<?xml version="1.0" encoding="UTF-8" standalone="no" ?>
<gpx xmlns="http://www.topografix.com/GPX/1/1" xmlns:xsi="http://www.w3.org/2001/XMLSchema-instance" xsi:schemaLocation="http://www.topografix.com/GPX/1/1 http://www.topografix.com/GPX/1/1/gpx.xsd" version="1.1" creator="VisuGPX - https://www.visugpx.com">
  <metadata>
    <name>Radome Calern Gourdon</name>
    <desc><![CDATA[cf [url]https://www.ascvtt.com/2025/09/28/classico-tout-la-haut/[/url]]]></desc>
  </metadata>
  <trk>
    <name><![CDATA[C'est la rentrée à l'ascvtt]]></name>
    <trkseg>
      <trkpt lat="43.7078" lon="6.97391">
        <ele>667.7</ele>
        <time>2025-09-27T07:04:10Z</time>
      </trkpt>
      <trkpt lat="43.7078" lon="6.97391">
        <ele>667.7</ele>
        <time>2025-09-27T07:04:11Z</time>
      </trkpt>
      <trkpt lat="43.7078" lon="6.97384">
        <ele>668</ele>
        <time>2025-09-27T07:04:46Z</time>
      </trkpt>
      <trkpt lat="43.70782" lon="6.97378">
        <ele>668.3</ele>
        <time>2025-09-27T07:04:52Z</time>
      </trkpt>
      <trkpt lat="43.70787" lon="6.97374">
        <ele>668.8</ele>
        <time>2025-09-27T07:04:58Z</time>
      </trkpt>
      <trkpt lat="43.70792" lon="6.97371">
        <ele>669.3</ele>
        <time>2025-09-27T07:05:02Z</time>
      </trkpt>
      <trkpt lat="43.70793" lon="6.97362">
        <ele>669.9</ele>
        <time>2025-09-27T07:05:06Z</time>
      </trkpt>
      <trkpt lat="43.70793" lon="6.97356">
        <ele>670.4</ele>
        <time>2025-09-27T07:05:12Z</time>
      </trkpt>
      <trkpt lat="43.70795" lon="6.97349">
        <ele>670.9</ele>
        <time>2025-09-27T07:05:19Z</time>
      </trkpt>
      <trkpt lat="43.70796" lon="6.97342">
        <ele>671.4</ele>
        <time>2025-09-27T07:05:23Z</time>
      </trkpt>
      <trkpt lat="43.70798" lon="6.97335">
        <ele>672</ele>
        <time>2025-09-27T07:05:27Z</time>
      </trkpt>
      <trkpt lat="43.70799" lon="6.97327">
        <ele>672.6</ele>
        <time>2025-09-27T07:05:31Z</time>
      </trkpt>
      <trkpt lat="43.70801" lon="6.97319">
        <ele>673.2</ele>
        <time>2025-09-27T07:05:35Z</time>
      </trkpt>
      <trkpt lat="43.70802" lon="6.97313">
        <ele>673.8</ele>
        <time>2025-09-27T07:05:38Z</time>
      </trkpt>
      <trkpt lat="43.70805" lon="6.97306">
        <ele>674.5</ele>
        <time>2025-09-27T07:05:42Z</time>
      </trkpt>
      <trkpt lat="43.70807" lon="6.973">
        <ele>675.1</ele>
        <time>2025-09-27T07:05:46Z</time>
      </trkpt>
      <trkpt lat="43.7081" lon="6.97293">
        <ele>675.8</ele>
        <time>2025-09-27T07:05:50Z</time>
      </trkpt>
      <trkpt lat="43.70813" lon="6.97286">
        <ele>676.5</ele>
        <time>2025-09-27T07:05:54Z</time>
      </trkpt>
      <trkpt lat="43.70815" lon="6.9728">
        <ele>677.2</ele>
        <time>2025-09-27T07:05:58Z</time>
      </trkpt>
      <trkpt lat="43.70818" lon="6.97274">
        <ele>677.8</ele>
        <time>2025-09-27T07:06:02Z</time>
      </trkpt>
      <trkpt lat="43.70821" lon="6.97268">
        <ele>678.5</ele>
        <time>2025-09-27T07:06:06Z</time>
      </trkpt>
      <trkpt lat="43.70824" lon="6.97262">
        <ele>679.1</ele>
        <time>2025-09-27T07:06:10Z</time>
      </trkpt>
      <trkpt lat="43.70827" lon="6.97257">
        <ele>679.8</ele>
        <time>2025-09-27T07:06:14Z</time>
      </trkpt>
      <trkpt lat="43.70831" lon="6.97252">
        <ele>680.4</ele>
        <time>2025-09-27T07:06:18Z</time>
      </trkpt>
      <trkpt lat="43.70835" lon="6.97247">
        <ele>681</ele>
        <time>2025-09-27T07:06:22Z</time>
      </trkpt>
      <trkpt lat="43.70839" lon="6.97243">
        <ele>681.6</ele>
        <time>2025-09-27T07:06:26Z</time>
      </trkpt>
      <trkpt lat="43.70843" lon="6.97238">
        <ele>682.2</ele>
        <time>2025-09-27T07:06:30Z</time>
      </trkpt>
      <trkpt lat="43.70847" lon="6.97233">
        <ele>682.9</ele>
        <time>2025-09-27T07:06:34Z</time>
      </trkpt>
      <trkpt lat="43.70851" lon="6.97229">
        <ele>683.4</ele>
        <time>2025-09-27T07:06:38Z</time>
      </trkpt>
      <trkpt lat="43.70856" lon="6.97226">
        <ele>684</ele>
        <time>2025-09-27T07:06:42Z</time>
      </trkpt>
      <trkpt lat="43.7086" lon="6.97221">
        <ele>684.5</ele>
        <time>2025-09-27T07:06:46Z</time>
      </trkpt>
      <trkpt lat="43.70865" lon="6.97217">
        <ele>685</ele>
        <time>2025-09-27T07:06:50Z</time>
      </trkpt>
      <trkpt lat="43.70869" lon="6.97213">
        <ele>685.4</ele>
        <time>2025-09-27T07:06:54Z</time>
      </trkpt>
      <trkpt lat="43.70873" lon="6.97209">
        <ele>685.7</ele>
        <time>2025-09-27T07:06:57Z</time>
      </trkpt>
      <trkpt lat="43.70877" lon="6.97203">
        <ele>686.1</ele>
        <time>2025-09-27T07:07:01Z</time>
      </trkpt>
      <trkpt lat="43.70881" lon="6.97196">
        <ele>686.6</ele>
        <time>2025-09-27T07:07:05Z</time>
      </trkpt>
      <trkpt lat="43.70883" lon="6.97191">
        <ele>687</ele>
        <time>2025-09-27T07:07:08Z</time>
      </trkpt>
      <trkpt lat="43.70886" lon="6.97185">
        <ele>687.4</ele>
        <time>2025-09-27T07:07:11Z</time>
      </trkpt>
      <trkpt lat="43.70887" lon="6.97179">
        <ele>687.9</ele>
        <time>2025-09-27T07:07:14Z</time>
      </trkpt>
      <trkpt lat="43.7089" lon="6.97172">
        <ele>688.5</ele>
        <time>2025-09-27T07:07:18Z</time>
      </trkpt>
      <trkpt lat="43.70892" lon="6.97164">
        <ele>689.1</ele>
        <time>2025-09-27T07:07:22Z</time>
      </trkpt>
      <trkpt lat="43.70894" lon="6.97157">
        <ele>689.7</ele>
        <time>2025-09-27T07:07:26Z</time>
      </trkpt>
      <trkpt lat="43.70897" lon="6.9715">
        <ele>690.3</ele>
        <time>2025-09-27T07:07:30Z</time>
      </trkpt>
      <trkpt lat="43.70899" lon="6.97143">
        <ele>690.9</ele>
        <time>2025-09-27T07:07:34Z</time>
      </trkpt>
      <trkpt lat="43.70901" lon="6.97137">
        <ele>691.4</ele>
        <time>2025-09-27T07:07:38Z</time>
      </trkpt>
      <trkpt lat="43.70904" lon="6.9713">
        <ele>692.1</ele>
        <time>2025-09-27T07:07:42Z</time>
      </trkpt>
      <trkpt lat="43.70908" lon="6.97124">
        <ele>692.6</ele>
        <time>2025-09-27T07:07:46Z</time>
      </trkpt>
      <trkpt lat="43.70911" lon="6.97117">
        <ele>693.2</ele>
        <time>2025-09-27T07:07:50Z</time>
      </trkpt>
      <trkpt lat="43.70914" lon="6.97111">
        <ele>693.7</ele>
        <time>2025-09-27T07:07:54Z</time>
      </trkpt>
      <trkpt lat="43.70917" lon="6.97104">
        <ele>694.2</ele>
        <time>2025-09-27T07:07:58Z</time>
      </trkpt>
      <trkpt lat="43.7092" lon="6.97099">
        <ele>694.5</ele>
        <time>2025-09-27T07:08:01Z</time>
      </trkpt>
      <trkpt lat="43.70923" lon="6.97092">
        <ele>695</ele>
        <time>2025-09-27T07:08:05Z</time>
      </trkpt>
      <trkpt lat="43.70925" lon="6.97086">
        <ele>695.3</ele>
        <time>2025-09-27T07:08:08Z</time>
      </trkpt>
      <trkpt lat="43.70927" lon="6.97081">
        <ele>695.6</ele>
        <time>2025-09-27T07:08:11Z</time>
      </trkpt>
      <trkpt lat="43.7093" lon="6.97075">
        <ele>695.9</ele>
        <time>2025-09-27T07:08:14Z</time>
      </trkpt>
      <trkpt lat="43.70933" lon="6.97068">
        <ele>696.3</ele>
        <time>2025-09-27T07:08:18Z</time>
      </trkpt>
      <trkpt lat="43.70935" lon="6.97062">
        <ele>696.6</ele>
        <time>2025-09-27T07:08:21Z</time>
      </trkpt>
      <trkpt lat="43.70937" lon="6.97056">
        <ele>697</ele>
        <time>2025-09-27T07:08:24Z</time>
      </trkpt>
      <trkpt lat="43.7094" lon="6.97051">
        <ele>697.3</ele>
        <time>2025-09-27T07:08:27Z</time>
      </trkpt>
      <trkpt lat="43.70942" lon="6.97045">
        <ele>697.7</ele>
        <time>2025-09-27T07:08:30Z</time>
      </trkpt>
      <trkpt lat="43.70944" lon="6.97039">
        <ele>698.1</ele>
        <time>2025-09-27T07:08:33Z</time>
      </trkpt>
      <trkpt lat="43.70947" lon="6.97032">
        <ele>698.6</ele>
        <time>2025-09-27T07:08:37Z</time>
      </trkpt>
      <trkpt lat="43.7095" lon="6.97025">
        <ele>699.2</ele>
        <time>2025-09-27T07:08:41Z</time>
      </trkpt>
      <trkpt lat="43.70952" lon="6.97018">
        <ele>699.7</ele>
        <time>2025-09-27T07:08:45Z</time>
      </trkpt>
      <trkpt lat="43.70954" lon="6.97011">
        <ele>700.3</ele>
        <time>2025-09-27T07:08:49Z</time>
      </trkpt>
      <trkpt lat="43.70956" lon="6.97003">
        <ele>700.9</ele>
        <time>2025-09-27T07:08:53Z</time>
      </trkpt>
      <trkpt lat="43.70958" lon="6.96997">
        <ele>701.3</ele>
        <time>2025-09-27T07:08:56Z</time>
      </trkpt>
      <trkpt lat="43.70959" lon="6.96991">
        <ele>701.8</ele>
        <time>2025-09-27T07:08:59Z</time>
      </trkpt>
      <trkpt lat="43.7096" lon="6.96983">
        <ele>702.3</ele>
        <time>2025-09-27T07:09:03Z</time>
      </trkpt>
      <trkpt lat="43.7096" lon="6.96977">
        <ele>702.7</ele>
        <time>2025-09-27T07:09:06Z</time>
      </trkpt>
      <trkpt lat="43.70961" lon="6.96971">
        <ele>703.1</ele>
        <time>2025-09-27T07:09:09Z</time>
      </trkpt>
      <trkpt lat="43.70961" lon="6.96964">
        <ele>703.5</ele>
        <time>2025-09-27T07:09:12Z</time>
      </trkpt>
      <trkpt lat="43.70961" lon="6.96957">
        <ele>703.9</ele>
        <time>2025-09-27T07:09:15Z</time>
      </trkpt>
      <trkpt lat="43.70961" lon="6.9695">
        <ele>704.2</ele>
        <time>2025-09-27T07:09:18Z</time>
      </trkpt>
      <trkpt lat="43.70961" lon="6.96943">
        <ele>704.6</ele>
        <time>2025-09-27T07:09:21Z</time>
      </trkpt>
      <trkpt lat="43.70962" lon="6.96937">
        <ele>704.8</ele>
        <time>2025-09-27T07:09:24Z</time>
      </trkpt>
      <trkpt lat="43.70963" lon="6.9693">
        <ele>705.1</ele>
        <time>2025-09-27T07:09:27Z</time>
      </trkpt>
      <trkpt lat="43.70964" lon="6.96924">
        <ele>705.3</ele>
        <time>2025-09-27T07:09:30Z</time>
      </trkpt>
      <trkpt lat="43.70965" lon="6.96918">
        <ele>705.4</ele>
        <time>2025-09-27T07:09:33Z</time>
      </trkpt>
      <trkpt lat="43.70966" lon="6.96911">
        <ele>705.5</ele>
        <time>2025-09-27T07:09:36Z</time>
      </trkpt>
      <trkpt lat="43.70969" lon="6.96905">
        <ele>705.6</ele>
        <time>2025-09-27T07:09:39Z</time>
      </trkpt>
      <trkpt lat="43.70974" lon="6.96902">
        <ele>705.7</ele>
        <time>2025-09-27T07:09:42Z</time>
      </trkpt>
      <trkpt lat="43.7098" lon="6.96903">
        <ele>705.9</ele>
        <time>2025-09-27T07:09:45Z</time>
      </trkpt>
      <trkpt lat="43.70985" lon="6.96908">
        <ele>706.1</ele>
        <time>2025-09-27T07:09:48Z</time>
      </trkpt>
      <trkpt lat="43.70988" lon="6.96914">
        <ele>706.4</ele>
        <time>2025-09-27T07:09:51Z</time>
      </trkpt>
      <trkpt lat="43.70991" lon="6.96921">
        <ele>706.7</ele>
        <time>2025-09-27T07:09:54Z</time>
      </trkpt>
      <trkpt lat="43.70994" lon="6.96927">
        <ele>707.1</ele>
        <time>2025-09-27T07:09:57Z</time>
      </trkpt>
      <trkpt lat="43.70997" lon="6.96933">
        <ele>707.4</ele>
        <time>2025-09-27T07:10:00Z</time>
      </trkpt>
      <trkpt lat="43.70999" lon="6.96939">
        <ele>707.7</ele>
        <time>2025-09-27T07:10:03Z</time>
      </trkpt>
      <trkpt lat="43.71002" lon="6.96946">
        <ele>708</ele>
        <time>2025-09-27T07:10:06Z</time>
      </trkpt>
      <trkpt lat="43.71005" lon="6.96952">
        <ele>708.4</ele>
        <time>2025-09-27T07:10:09Z</time>
      </trkpt>
      <trkpt lat="43.71008" lon="6.96959">
        <ele>708.7</ele>
        <time>2025-09-27T07:10:12Z</time>
      </trkpt>
      <trkpt lat="43.71011" lon="6.96965">
        <ele>709.1</ele>
        <time>2025-09-27T07:10:15Z</time>
      </trkpt>
      <trkpt lat="43.71015" lon="6.96971">
        <ele>709.4</ele>
        <time>2025-09-27T07:10:18Z</time>
      </trkpt>
      <trkpt lat="43.7102" lon="6.96976">
        <ele>709.7</ele>
        <time>2025-09-27T07:10:21Z</time>
      </trkpt>
      <trkpt lat="43.71024" lon="6.9698">
        <ele>710.1</ele>
        <time>2025-09-27T07:10:24Z</time>
      </trkpt>
      <trkpt lat="43.7103" lon="6.96983">
        <ele>710.4</ele>
        <time>2025-09-27T07:10:27Z</time>
      </trkpt>
      <trkpt lat="43.71035" lon="6.96986">
        <ele>710.7</ele>
        <time>2025-09-27T07:10:30Z</time>
      </trkpt>
      <trkpt lat="43.71041" lon="6.96988">
        <ele>711.1</ele>
        <time>2025-09-27T07:10:33Z</time>
      </trkpt>
      <trkpt lat="43.71046" lon="6.9699">
        <ele>711.4</ele>
        <time>2025-09-27T07:10:36Z</time>
      </trkpt>
      <trkpt lat="43.71051" lon="6.96992">
        <ele>711.8</ele>
        <time>2025-09-27T07:10:39Z</time>
      </trkpt>
      <trkpt lat="43.71057" lon="6.96994">
        <ele>712.1</ele>
        <time>2025-09-27T07:10:42Z</time>
      </trkpt>
      <trkpt lat="43.71062" lon="6.96996">
        <ele>712.5</ele>
        <time>2025-09-27T07:10:45Z</time>
      </trkpt>
      <trkpt lat="43.71068" lon="6.96998">
        <ele>712.8</ele>
        <time>2025-09-27T07:10:48Z</time>
      </trkpt>
      <trkpt lat="43.71073" lon="6.97">
        <ele>713.2</ele>
        <time>2025-09-27T07:10:51Z</time>
      </trkpt>
      <trkpt lat="43.71079" lon="6.97003">
        <ele>713.6</ele>
        <time>2025-09-27T07:10:54Z</time>
      </trkpt>
      <trkpt lat="43.71084" lon="6.97005">
        <ele>714</ele>
        <time>2025-09-27T07:10:57Z</time>
      </trkpt>
      <trkpt lat="43.71089" lon="6.97007">
        <ele>714.4</ele>
        <time>2025-09-27T07:11:00Z</time>
      </trkpt>
      <trkpt lat="43.71095" lon="6.97009">
        <ele>714.8</ele>
        <time>2025-09-27T07:11:03Z</time>
      </trkpt>
      <trkpt lat="43.711" lon="6.97011">
        <ele>715.3</ele>
        <time>2025-09-27T07:11:06Z</time>
      </trkpt>
      <trkpt lat="43.71106" lon="6.97013">
        <ele>715.7</ele>
        <time>2025-09-27T07:11:09Z</time>
      </trkpt>
      <trkpt lat="43.71111" lon="6.97015">
        <ele>716.1</ele>
        <time>2025-09-27T07:11:12Z</time>
      </trkpt>
      <trkpt lat="43.71117" lon="6.97016">
        <ele>716.6</ele>
        <time>2025-09-27T07:11:15Z</time>
      </trkpt>
      <trkpt lat="43.71123" lon="6.97017">
        <ele>717</ele>
        <time>2025-09-27T07:11:18Z</time>
      </trkpt>
      <trkpt lat="43.71128" lon="6.97018">
        <ele>717.3</ele>
        <time>2025-09-27T07:11:21Z</time>
      </trkpt>
      <trkpt lat="43.71133" lon="6.9702">
        <ele>717.7</ele>
        <time>2025-09-27T07:11:24Z</time>
      </trkpt>
      <trkpt lat="43.71138" lon="6.97022">
        <ele>718</ele>
        <time>2025-09-27T07:11:27Z</time>
      </trkpt>
      <trkpt lat="43.71144" lon="6.97023">
        <ele>718.4</ele>
        <time>2025-09-27T07:11:30Z</time>
      </trkpt>
      <trkpt lat="43.7115" lon="6.97025">
        <ele>718.8</ele>
        <time>2025-09-27T07:11:33Z</time>
      </trkpt>
      <trkpt lat="43.71155" lon="6.97027">
        <ele>719.1</ele>
        <time>2025-09-27T07:11:36Z</time>
      </trkpt>
      <trkpt lat="43.71159" lon="6.9703">
        <ele>719.4</ele>
        <time>2025-09-27T07:11:39Z</time>
      </trkpt>
      <trkpt lat="43.71165" lon="6.97031">
        <ele>719.8</ele>
        <time>2025-09-27T07:11:42Z</time>
      </trkpt>
      <trkpt lat="43.7117" lon="6.97033">
        <ele>720.2</ele>
        <time>2025-09-27T07:11:45Z</time>
      </trkpt>
      <trkpt lat="43.71175" lon="6.97035">
        <ele>720.5</ele>
        <time>2025-09-27T07:11:48Z</time>
      </trkpt>
      <trkpt lat="43.71181" lon="6.97036">
        <ele>721</ele>
        <time>2025-09-27T07:11:51Z</time>
      </trkpt>
      <trkpt lat="43.71186" lon="6.97038">
        <ele>721.4</ele>
        <time>2025-09-27T07:11:54Z</time>
      </trkpt>
      <trkpt lat="43.71192" lon="6.9704">
        <ele>721.9</ele>
        <time>2025-09-27T07:11:57Z</time>
      </trkpt>
      <trkpt lat="43.71197" lon="6.97042">
        <ele>722.3</ele>
        <time>2025-09-27T07:12:00Z</time>
      </trkpt>
      <trkpt lat="43.71202" lon="6.97044">
        <ele>722.8</ele>
        <time>2025-09-27T07:12:03Z</time>
      </trkpt>
      <trkpt lat="43.71208" lon="6.97045">
        <ele>723.2</ele>
        <time>2025-09-27T07:12:06Z</time>
      </trkpt>
      <trkpt lat="43.71212" lon="6.97046">
        <ele>723.6</ele>
        <time>2025-09-27T07:12:09Z</time>
      </trkpt>
      <trkpt lat="43.71217" lon="6.97047">
        <ele>724</ele>
        <time>2025-09-27T07:12:12Z</time>
      </trkpt>
      <trkpt lat="43.71223" lon="6.97048">
        <ele>724.4</ele>
        <time>2025-09-27T07:12:15Z</time>
      </trkpt>
      <trkpt lat="43.71228" lon="6.97048">
        <ele>724.8</ele>
        <time>2025-09-27T07:12:18Z</time>
      </trkpt>
      <trkpt lat="43.71233" lon="6.97048">
        <ele>725.2</ele>
        <time>2025-09-27T07:12:21Z</time>
      </trkpt>
      <trkpt lat="43.71239" lon="6.97047">
        <ele>725.6</ele>
        <time>2025-09-27T07:12:24Z</time>
      </trkpt>
      <trkpt lat="43.71245" lon="6.97048">
        <ele>726</ele>
        <time>2025-09-27T07:12:27Z</time>
      </trkpt>
      <trkpt lat="43.7125" lon="6.97048">
        <ele>726.4</ele>
        <time>2025-09-27T07:12:30Z</time>
      </trkpt>
      <trkpt lat="43.71255" lon="6.97049">
        <ele>726.8</ele>
        <time>2025-09-27T07:12:33Z</time>
      </trkpt>
      <trkpt lat="43.7126" lon="6.97049">
        <ele>727.2</ele>
        <time>2025-09-27T07:12:36Z</time>
      </trkpt>
      <trkpt lat="43.71266" lon="6.97051">
        <ele>727.7</ele>
        <time>2025-09-27T07:12:39Z</time>
      </trkpt>
      <trkpt lat="43.71271" lon="6.97053">
        <ele>728.1</ele>
        <time>2025-09-27T07:12:42Z</time>
      </trkpt>
      <trkpt lat="43.71275" lon="6.97054">
        <ele>728.5</ele>
        <time>2025-09-27T07:12:45Z</time>
      </trkpt>
      <trkpt lat="43.7128" lon="6.97055">
        <ele>728.8</ele>
        <time>2025-09-27T07:12:48Z</time>
      </trkpt>
      <trkpt lat="43.71285" lon="6.97057">
        <ele>729.2</ele>
        <time>2025-09-27T07:12:52Z</time>
      </trkpt>
      <trkpt lat="43.71291" lon="6.9706">
        <ele>729.6</ele>
        <time>2025-09-27T07:12:55Z</time>
      </trkpt>
      <trkpt lat="43.71296" lon="6.97063">
        <ele>729.9</ele>
        <time>2025-09-27T07:12:58Z</time>
      </trkpt>
      <trkpt lat="43.71301" lon="6.97066">
        <ele>730.2</ele>
        <time>2025-09-27T07:13:01Z</time>
      </trkpt>
      <trkpt lat="43.71307" lon="6.97069">
        <ele>730.5</ele>
        <time>2025-09-27T07:13:04Z</time>
      </trkpt>
      <trkpt lat="43.71312" lon="6.97072">
        <ele>730.7</ele>
        <time>2025-09-27T07:13:07Z</time>
      </trkpt>
      <trkpt lat="43.71318" lon="6.97076">
        <ele>730.9</ele>
        <time>2025-09-27T07:13:10Z</time>
      </trkpt>
      <trkpt lat="43.71323" lon="6.97079">
        <ele>731.1</ele>
        <time>2025-09-27T07:13:13Z</time>
      </trkpt>
      <trkpt lat="43.71328" lon="6.97083">
        <ele>731.3</ele>
        <time>2025-09-27T07:13:16Z</time>
      </trkpt>
      <trkpt lat="43.71333" lon="6.97087">
        <ele>731.5</ele>
        <time>2025-09-27T07:13:19Z</time>
      </trkpt>
      <trkpt lat="43.71338" lon="6.97091">
        <ele>731.8</ele>
        <time>2025-09-27T07:13:22Z</time>
      </trkpt>
      <trkpt lat="43.71343" lon="6.97096">
        <ele>732.1</ele>
        <time>2025-09-27T07:13:25Z</time>
      </trkpt>
      <trkpt lat="43.71347" lon="6.971">
        <ele>732.3</ele>
        <time>2025-09-27T07:13:28Z</time>
      </trkpt>
      <trkpt lat="43.71352" lon="6.97104">
        <ele>732.6</ele>
        <time>2025-09-27T07:13:31Z</time>
      </trkpt>
      <trkpt lat="43.71356" lon="6.97109">
        <ele>732.9</ele>
        <time>2025-09-27T07:13:34Z</time>
      </trkpt>
      <trkpt lat="43.71361" lon="6.97113">
        <ele>733.2</ele>
        <time>2025-09-27T07:13:37Z</time>
      </trkpt>
      <trkpt lat="43.71365" lon="6.97118">
        <ele>733.6</ele>
        <time>2025-09-27T07:13:40Z</time>
      </trkpt>
      <trkpt lat="43.7137" lon="6.97123">
        <ele>733.9</ele>
        <time>2025-09-27T07:13:43Z</time>
      </trkpt>
      <trkpt lat="43.71375" lon="6.97128">
        <ele>734.2</ele>
        <time>2025-09-27T07:13:46Z</time>
      </trkpt>
      <trkpt lat="43.71379" lon="6.97132">
        <ele>734.4</ele>
        <time>2025-09-27T07:13:49Z</time>
      </trkpt>
      <trkpt lat="43.71384" lon="6.97136">
        <ele>734.7</ele>
        <time>2025-09-27T07:13:52Z</time>
      </trkpt>
      <trkpt lat="43.71389" lon="6.97141">
        <ele>735</ele>
        <time>2025-09-27T07:13:55Z</time>
      </trkpt>
      <trkpt lat="43.71394" lon="6.97146">
        <ele>735.2</ele>
        <time>2025-09-27T07:13:58Z</time>
      </trkpt>
      <trkpt lat="43.71398" lon="6.97151">
        <ele>735.5</ele>
        <time>2025-09-27T07:14:01Z</time>
      </trkpt>
      <trkpt lat="43.71403" lon="6.97157">
        <ele>735.8</ele>
        <time>2025-09-27T07:14:04Z</time>
      </trkpt>
      <trkpt lat="43.71407" lon="6.97161">
        <ele>736.1</ele>
        <time>2025-09-27T07:14:07Z</time>
      </trkpt>
      <trkpt lat="43.71411" lon="6.97167">
        <ele>736.3</ele>
        <time>2025-09-27T07:14:10Z</time>
      </trkpt>
      <trkpt lat="43.71415" lon="6.97172">
        <ele>736.6</ele>
        <time>2025-09-27T07:14:13Z</time>
      </trkpt>
      <trkpt lat="43.7142" lon="6.97178">
        <ele>736.9</ele>
        <time>2025-09-27T07:14:16Z</time>
      </trkpt>
      <trkpt lat="43.71425" lon="6.97183">
        <ele>737.2</ele>
        <time>2025-09-27T07:14:19Z</time>
      </trkpt>
      <trkpt lat="43.7143" lon="6.97186">
        <ele>737.5</ele>
        <time>2025-09-27T07:14:22Z</time>
      </trkpt>
      <trkpt lat="43.71435" lon="6.9719">
        <ele>737.8</ele>
        <time>2025-09-27T07:14:25Z</time>
      </trkpt>
      <trkpt lat="43.7144" lon="6.97194">
        <ele>738.2</ele>
        <time>2025-09-27T07:14:28Z</time>
      </trkpt>
      <trkpt lat="43.71445" lon="6.97198">
        <ele>738.5</ele>
        <time>2025-09-27T07:14:31Z</time>
      </trkpt>
      <trkpt lat="43.71449" lon="6.97203">
        <ele>738.9</ele>
        <time>2025-09-27T07:14:34Z</time>
      </trkpt>
      <trkpt lat="43.71454" lon="6.97207">
        <ele>739.4</ele>
        <time>2025-09-27T07:14:37Z</time>
      </trkpt>
      <trkpt lat="43.71459" lon="6.9721">
        <ele>739.8</ele>
        <time>2025-09-27T07:14:40Z</time>
      </trkpt>
      <trkpt lat="43.71463" lon="6.97209">
        <ele>740.2</ele>
        <time>2025-09-27T07:14:43Z</time>
      </trkpt>
      <trkpt lat="43.71464" lon="6.97202">
        <ele>740.6</ele>
        <time>2025-09-27T07:14:46Z</time>
      </trkpt>
      <trkpt lat="43.71462" lon="6.97197">
        <ele>741</ele>
        <time>2025-09-27T07:14:49Z</time>
      </trkpt>
      <trkpt lat="43.71459" lon="6.97192">
        <ele>741.4</ele>
        <time>2025-09-27T07:14:52Z</time>
      </trkpt>
      <trkpt lat="43.71456" lon="6.97187">
        <ele>741.8</ele>
        <time>2025-09-27T07:14:55Z</time>
      </trkpt>
      <trkpt lat="43.71452" lon="6.97183">
        <ele>742.1</ele>
        <time>2025-09-27T07:14:58Z</time>
      </trkpt>
      <trkpt lat="43.71448" lon="6.97177">
        <ele>742.6</ele>
        <time>2025-09-27T07:15:02Z</time>
      </trkpt>
      <trkpt lat="43.71444" lon="6.97173">
        <ele>743</ele>
        <time>2025-09-27T07:15:05Z</time>
      </trkpt>
      <trkpt lat="43.71439" lon="6.97167">
        <ele>743.5</ele>
        <time>2025-09-27T07:15:09Z</time>
      </trkpt>
      <trkpt lat="43.71436" lon="6.97163">
        <ele>743.9</ele>
        <time>2025-09-27T07:15:12Z</time>
      </trkpt>
      <trkpt lat="43.71433" lon="6.97158">
        <ele>744.2</ele>
        <time>2025-09-27T07:15:15Z</time>
      </trkpt>
      <trkpt lat="43.7143" lon="6.97152">
        <ele>744.6</ele>
        <time>2025-09-27T07:15:18Z</time>
      </trkpt>
      <trkpt lat="43.71427" lon="6.97146">
        <ele>744.8</ele>
        <time>2025-09-27T07:15:21Z</time>
      </trkpt>
      <trkpt lat="43.71424" lon="6.9714">
        <ele>745.1</ele>
        <time>2025-09-27T07:15:24Z</time>
      </trkpt>
      <trkpt lat="43.71421" lon="6.97133">
        <ele>745.4</ele>
        <time>2025-09-27T07:15:27Z</time>
      </trkpt>
      <trkpt lat="43.71418" lon="6.97128">
        <ele>745.7</ele>
        <time>2025-09-27T07:15:30Z</time>
      </trkpt>
      <trkpt lat="43.71415" lon="6.97122">
        <ele>746</ele>
        <time>2025-09-27T07:15:33Z</time>
      </trkpt>
      <trkpt lat="43.71412" lon="6.97116">
        <ele>746.3</ele>
        <time>2025-09-27T07:15:36Z</time>
      </trkpt>
      <trkpt lat="43.71409" lon="6.97111">
        <ele>746.7</ele>
        <time>2025-09-27T07:15:39Z</time>
      </trkpt>
      <trkpt lat="43.71405" lon="6.97105">
        <ele>747</ele>
        <time>2025-09-27T07:15:42Z</time>
      </trkpt>
      <trkpt lat="43.71402" lon="6.971">
        <ele>747.3</ele>
        <time>2025-09-27T07:15:45Z</time>
      </trkpt>
      <trkpt lat="43.71399" lon="6.97094">
        <ele>747.7</ele>
        <time>2025-09-27T07:15:49Z</time>
      </trkpt>
      <trkpt lat="43.71395" lon="6.97089">
        <ele>748.1</ele>
        <time>2025-09-27T07:15:52Z</time>
      </trkpt>
      <trkpt lat="43.71391" lon="6.97084">
        <ele>748.4</ele>
        <time>2025-09-27T07:15:55Z</time>
      </trkpt>
      <trkpt lat="43.71388" lon="6.97079">
        <ele>748.7</ele>
        <time>2025-09-27T07:15:58Z</time>
      </trkpt>
      <trkpt lat="43.71384" lon="6.97074">
        <ele>749</ele>
        <time>2025-09-27T07:16:01Z</time>
      </trkpt>
      <trkpt lat="43.7138" lon="6.97068">
        <ele>749.3</ele>
        <time>2025-09-27T07:16:04Z</time>
      </trkpt>
      <trkpt lat="43.71376" lon="6.97063">
        <ele>749.6</ele>
        <time>2025-09-27T07:16:07Z</time>
      </trkpt>
      <trkpt lat="43.71373" lon="6.97057">
        <ele>749.8</ele>
        <time>2025-09-27T07:16:10Z</time>
      </trkpt>
      <trkpt lat="43.71369" lon="6.97051">
        <ele>750.1</ele>
        <time>2025-09-27T07:16:13Z</time>
      </trkpt>
      <trkpt lat="43.71366" lon="6.97045">
        <ele>750.3</ele>
        <time>2025-09-27T07:16:16Z</time>
      </trkpt>
      <trkpt lat="43.71363" lon="6.97039">
        <ele>750.5</ele>
        <time>2025-09-27T07:16:19Z</time>
      </trkpt>
      <trkpt lat="43.7136" lon="6.97033">
        <ele>750.8</ele>
        <time>2025-09-27T07:16:22Z</time>
      </trkpt>
      <trkpt lat="43.71356" lon="6.97027">
        <ele>751.1</ele>
        <time>2025-09-27T07:16:25Z</time>
      </trkpt>
      <trkpt lat="43.71353" lon="6.97022">
        <ele>751.4</ele>
        <time>2025-09-27T07:16:28Z</time>
      </trkpt>
      <trkpt lat="43.7135" lon="6.97016">
        <ele>751.7</ele>
        <time>2025-09-27T07:16:31Z</time>
      </trkpt>
      <trkpt lat="43.71346" lon="6.9701">
        <ele>752</ele>
        <time>2025-09-27T07:16:34Z</time>
      </trkpt>
      <trkpt lat="43.71343" lon="6.97005">
        <ele>752.4</ele>
        <time>2025-09-27T07:16:37Z</time>
      </trkpt>
      <trkpt lat="43.7134" lon="6.96999">
        <ele>752.8</ele>
        <time>2025-09-27T07:16:40Z</time>
      </trkpt>
      <trkpt lat="43.71336" lon="6.96994">
        <ele>753.2</ele>
        <time>2025-09-27T07:16:43Z</time>
      </trkpt>
      <trkpt lat="43.71333" lon="6.96989">
        <ele>753.6</ele>
        <time>2025-09-27T07:16:46Z</time>
      </trkpt>
      <trkpt lat="43.71329" lon="6.96984">
        <ele>754</ele>
        <time>2025-09-27T07:16:49Z</time>
      </trkpt>
      <trkpt lat="43.71325" lon="6.96979">
        <ele>754.4</ele>
        <time>2025-09-27T07:16:52Z</time>
      </trkpt>
      <trkpt lat="43.71321" lon="6.96973">
        <ele>754.9</ele>
        <time>2025-09-27T07:16:55Z</time>
      </trkpt>
      <trkpt lat="43.71318" lon="6.96968">
        <ele>755.3</ele>
        <time>2025-09-27T07:16:58Z</time>
      </trkpt>
      <trkpt lat="43.71315" lon="6.96962">
        <ele>755.7</ele>
        <time>2025-09-27T07:17:01Z</time>
      </trkpt>
      <trkpt lat="43.71312" lon="6.96956">
        <ele>756.1</ele>
        <time>2025-09-27T07:17:04Z</time>
      </trkpt>
      <trkpt lat="43.7131" lon="6.96949">
        <ele>756.4</ele>
        <time>2025-09-27T07:17:07Z</time>
      </trkpt>
      <trkpt lat="43.71308" lon="6.96942">
        <ele>756.7</ele>
        <time>2025-09-27T07:17:10Z</time>
      </trkpt>
      <trkpt lat="43.71306" lon="6.96935">
        <ele>757.1</ele>
        <time>2025-09-27T07:17:13Z</time>
      </trkpt>
      <trkpt lat="43.71304" lon="6.96928">
        <ele>757.4</ele>
        <time>2025-09-27T07:17:16Z</time>
      </trkpt>
      <trkpt lat="43.71302" lon="6.96921">
        <ele>757.8</ele>
        <time>2025-09-27T07:17:19Z</time>
      </trkpt>
      <trkpt lat="43.71301" lon="6.96915">
        <ele>758.1</ele>
        <time>2025-09-27T07:17:22Z</time>
      </trkpt>
      <trkpt lat="43.71299" lon="6.96908">
        <ele>758.4</ele>
        <time>2025-09-27T07:17:25Z</time>
      </trkpt>
      <trkpt lat="43.71298" lon="6.96901">
        <ele>758.8</ele>
        <time>2025-09-27T07:17:28Z</time>
      </trkpt>
      <trkpt lat="43.71296" lon="6.96894">
        <ele>759.1</ele>
        <time>2025-09-27T07:17:31Z</time>
      </trkpt>
      <trkpt lat="43.71295" lon="6.96887">
        <ele>759.5</ele>
        <time>2025-09-27T07:17:34Z</time>
      </trkpt>
      <trkpt lat="43.71293" lon="6.9688">
        <ele>759.8</ele>
        <time>2025-09-27T07:17:37Z</time>
      </trkpt>
      <trkpt lat="43.71292" lon="6.96874">
        <ele>760.1</ele>
        <time>2025-09-27T07:17:40Z</time>
      </trkpt>
      <trkpt lat="43.71291" lon="6.96866">
        <ele>760.4</ele>
        <time>2025-09-27T07:17:43Z</time>
      </trkpt>
      <trkpt lat="43.71289" lon="6.96859">
        <ele>760.8</ele>
        <time>2025-09-27T07:17:46Z</time>
      </trkpt>
      <trkpt lat="43.71288" lon="6.96852">
        <ele>761.1</ele>
        <time>2025-09-27T07:17:49Z</time>
      </trkpt>
      <trkpt lat="43.71286" lon="6.96845">
        <ele>761.5</ele>
        <time>2025-09-27T07:17:52Z</time>
      </trkpt>
      <trkpt lat="43.71284" lon="6.96838">
        <ele>761.8</ele>
        <time>2025-09-27T07:17:55Z</time>
      </trkpt>
      <trkpt lat="43.71282" lon="6.96831">
        <ele>762.1</ele>
        <time>2025-09-27T07:17:58Z</time>
      </trkpt>
      <trkpt lat="43.7128" lon="6.96825">
        <ele>762.3</ele>
        <time>2025-09-27T07:18:01Z</time>
      </trkpt>
      <trkpt lat="43.71278" lon="6.96818">
        <ele>762.6</ele>
        <time>2025-09-27T07:18:04Z</time>
      </trkpt>
      <trkpt lat="43.71276" lon="6.96812">
        <ele>762.8</ele>
        <time>2025-09-27T07:18:07Z</time>
      </trkpt>
      <trkpt lat="43.71273" lon="6.96807">
        <ele>763</ele>
        <time>2025-09-27T07:18:16Z</time>
      </trkpt>
      <trkpt lat="43.71273" lon="6.968">
        <ele>763.2</ele>
        <time>2025-09-27T07:18:32Z</time>
      </trkpt>
      <trkpt lat="43.7127" lon="6.96794">
        <ele>763.4</ele>
        <time>2025-09-27T07:18:35Z</time>
      </trkpt>
      <trkpt lat="43.71268" lon="6.96786">
        <ele>763.7</ele>
        <time>2025-09-27T07:18:38Z</time>
      </trkpt>
      <trkpt lat="43.71264" lon="6.96779">
        <ele>764</ele>
        <time>2025-09-27T07:18:41Z</time>
      </trkpt>
      <trkpt lat="43.71262" lon="6.96771">
        <ele>764.3</ele>
        <time>2025-09-27T07:18:44Z</time>
      </trkpt>
      <trkpt lat="43.71259" lon="6.96763">
        <ele>764.7</ele>
        <time>2025-09-27T07:18:47Z</time>
      </trkpt>
      <trkpt lat="43.71257" lon="6.96755">
        <ele>765.1</ele>
        <time>2025-09-27T07:18:50Z</time>
      </trkpt>
      <trkpt lat="43.71254" lon="6.96747">
        <ele>765.6</ele>
        <time>2025-09-27T07:18:53Z</time>
      </trkpt>
      <trkpt lat="43.71251" lon="6.9674">
        <ele>766</ele>
        <time>2025-09-27T07:18:56Z</time>
      </trkpt>
      <trkpt lat="43.71248" lon="6.96732">
        <ele>766.4</ele>
        <time>2025-09-27T07:18:59Z</time>
      </trkpt>
      <trkpt lat="43.71244" lon="6.96725">
        <ele>766.9</ele>
        <time>2025-09-27T07:19:02Z</time>
      </trkpt>
      <trkpt lat="43.71241" lon="6.96718">
        <ele>767.3</ele>
        <time>2025-09-27T07:19:05Z</time>
      </trkpt>
      <trkpt lat="43.71238" lon="6.96711">
        <ele>767.7</ele>
        <time>2025-09-27T07:19:08Z</time>
      </trkpt>
      <trkpt lat="43.71235" lon="6.96703">
        <ele>768.1</ele>
        <time>2025-09-27T07:19:11Z</time>
      </trkpt>
      <trkpt lat="43.71232" lon="6.96695">
        <ele>768.5</ele>
        <time>2025-09-27T07:19:14Z</time>
      </trkpt>
      <trkpt lat="43.7123" lon="6.96686">
        <ele>768.9</ele>
        <time>2025-09-27T07:19:17Z</time>
      </trkpt>
      <trkpt lat="43.7123" lon="6.96679">
        <ele>769.2</ele>
        <time>2025-09-27T07:19:20Z</time>
      </trkpt>
      <trkpt lat="43.71229" lon="6.96671">
        <ele>769.5</ele>
        <time>2025-09-27T07:19:23Z</time>
      </trkpt>
      <trkpt lat="43.71229" lon="6.96664">
        <ele>769.7</ele>
        <time>2025-09-27T07:19:25Z</time>
      </trkpt>
      <trkpt lat="43.71229" lon="6.96658">
        <ele>769.9</ele>
        <time>2025-09-27T07:19:27Z</time>
      </trkpt>
      <trkpt lat="43.71228" lon="6.96649">
        <ele>770.2</ele>
        <time>2025-09-27T07:19:30Z</time>
      </trkpt>
      <trkpt lat="43.71228" lon="6.9664">
        <ele>770.5</ele>
        <time>2025-09-27T07:19:33Z</time>
      </trkpt>
      <trkpt lat="43.71228" lon="6.96631">
        <ele>770.8</ele>
        <time>2025-09-27T07:19:36Z</time>
      </trkpt>
      <trkpt lat="43.71228" lon="6.96622">
        <ele>771.1</ele>
        <time>2025-09-27T07:19:39Z</time>
      </trkpt>
      <trkpt lat="43.71227" lon="6.96613">
        <ele>771.4</ele>
        <time>2025-09-27T07:19:42Z</time>
      </trkpt>
      <trkpt lat="43.71226" lon="6.96604">
        <ele>771.8</ele>
        <time>2025-09-27T07:19:45Z</time>
      </trkpt>
      <trkpt lat="43.71226" lon="6.96596">
        <ele>772.1</ele>
        <time>2025-09-27T07:19:48Z</time>
      </trkpt>
      <trkpt lat="43.71225" lon="6.96587">
        <ele>772.6</ele>
        <time>2025-09-27T07:19:51Z</time>
      </trkpt>
      <trkpt lat="43.71224" lon="6.96578">
        <ele>773</ele>
        <time>2025-09-27T07:19:54Z</time>
      </trkpt>
      <trkpt lat="43.71223" lon="6.9657">
        <ele>773.4</ele>
        <time>2025-09-27T07:19:57Z</time>
      </trkpt>
      <trkpt lat="43.71223" lon="6.96562">
        <ele>773.9</ele>
        <time>2025-09-27T07:20:00Z</time>
      </trkpt>
      <trkpt lat="43.71222" lon="6.96554">
        <ele>774.3</ele>
        <time>2025-09-27T07:20:03Z</time>
      </trkpt>
      <trkpt lat="43.71222" lon="6.96546">
        <ele>774.7</ele>
        <time>2025-09-27T07:20:06Z</time>
      </trkpt>
      <trkpt lat="43.71222" lon="6.96538">
        <ele>775.1</ele>
        <time>2025-09-27T07:20:09Z</time>
      </trkpt>
      <trkpt lat="43.71221" lon="6.9653">
        <ele>775.4</ele>
        <time>2025-09-27T07:20:12Z</time>
      </trkpt>
      <trkpt lat="43.71221" lon="6.96521">
        <ele>775.8</ele>
        <time>2025-09-27T07:20:15Z</time>
      </trkpt>
      <trkpt lat="43.71221" lon="6.96513">
        <ele>776.1</ele>
        <time>2025-09-27T07:20:18Z</time>
      </trkpt>
      <trkpt lat="43.7122" lon="6.96505">
        <ele>776.4</ele>
        <time>2025-09-27T07:20:21Z</time>
      </trkpt>
      <trkpt lat="43.7122" lon="6.96496">
        <ele>776.7</ele>
        <time>2025-09-27T07:20:24Z</time>
      </trkpt>
      <trkpt lat="43.7122" lon="6.96488">
        <ele>777</ele>
        <time>2025-09-27T07:20:27Z</time>
      </trkpt>
      <trkpt lat="43.7122" lon="6.9648">
        <ele>777.2</ele>
        <time>2025-09-27T07:20:30Z</time>
      </trkpt>
      <trkpt lat="43.7122" lon="6.96472">
        <ele>777.4</ele>
        <time>2025-09-27T07:20:33Z</time>
      </trkpt>
      <trkpt lat="43.71219" lon="6.96463">
        <ele>777.5</ele>
        <time>2025-09-27T07:20:36Z</time>
      </trkpt>
      <trkpt lat="43.71218" lon="6.96457">
        <ele>777.5</ele>
        <time>2025-09-27T07:20:52Z</time>
      </trkpt>
      <trkpt lat="43.71216" lon="6.9645">
        <ele>777.6</ele>
        <time>2025-09-27T07:20:56Z</time>
      </trkpt>
      <trkpt lat="43.71213" lon="6.96443">
        <ele>777.6</ele>
        <time>2025-09-27T07:21:06Z</time>
      </trkpt>
      <trkpt lat="43.71211" lon="6.96438">
        <ele>777.6</ele>
        <time>2025-09-27T07:21:09Z</time>
      </trkpt>
      <trkpt lat="43.71206" lon="6.96431">
        <ele>777.6</ele>
        <time>2025-09-27T07:21:12Z</time>
      </trkpt>
      <trkpt lat="43.71204" lon="6.96426">
        <ele>777.6</ele>
        <time>2025-09-27T07:21:14Z</time>
      </trkpt>
      <trkpt lat="43.712" lon="6.96422">
        <ele>777.7</ele>
        <time>2025-09-27T07:21:16Z</time>
      </trkpt>
      <trkpt lat="43.71198" lon="6.96417">
        <ele>777.8</ele>
        <time>2025-09-27T07:21:18Z</time>
      </trkpt>
      <trkpt lat="43.71195" lon="6.96411">
        <ele>777.9</ele>
        <time>2025-09-27T07:21:20Z</time>
      </trkpt>
      <trkpt lat="43.71191" lon="6.96405">
        <ele>778.2</ele>
        <time>2025-09-27T07:21:23Z</time>
      </trkpt>
      <trkpt lat="43.71187" lon="6.96398">
        <ele>778.4</ele>
        <time>2025-09-27T07:21:26Z</time>
      </trkpt>
      <trkpt lat="43.71183" lon="6.9639">
        <ele>778.7</ele>
        <time>2025-09-27T07:21:29Z</time>
      </trkpt>
      <trkpt lat="43.7118" lon="6.96382">
        <ele>779</ele>
        <time>2025-09-27T07:21:32Z</time>
      </trkpt>
      <trkpt lat="43.71177" lon="6.96374">
        <ele>779.3</ele>
        <time>2025-09-27T07:21:35Z</time>
      </trkpt>
      <trkpt lat="43.71174" lon="6.96366">
        <ele>779.6</ele>
        <time>2025-09-27T07:21:38Z</time>
      </trkpt>
      <trkpt lat="43.71171" lon="6.96358">
        <ele>780</ele>
        <time>2025-09-27T07:21:41Z</time>
      </trkpt>
      <trkpt lat="43.71169" lon="6.9635">
        <ele>780.4</ele>
        <time>2025-09-27T07:21:44Z</time>
      </trkpt>
      <trkpt lat="43.71167" lon="6.96341">
        <ele>780.8</ele>
        <time>2025-09-27T07:21:47Z</time>
      </trkpt>
      <trkpt lat="43.71167" lon="6.96333">
        <ele>781.2</ele>
        <time>2025-09-27T07:21:50Z</time>
      </trkpt>
      <trkpt lat="43.71166" lon="6.96324">
        <ele>781.7</ele>
        <time>2025-09-27T07:21:53Z</time>
      </trkpt>
      <trkpt lat="43.71166" lon="6.96316">
        <ele>782.2</ele>
        <time>2025-09-27T07:21:56Z</time>
      </trkpt>
      <trkpt lat="43.71166" lon="6.96308">
        <ele>782.8</ele>
        <time>2025-09-27T07:21:59Z</time>
      </trkpt>
      <trkpt lat="43.71166" lon="6.96299">
        <ele>783.3</ele>
        <time>2025-09-27T07:22:02Z</time>
      </trkpt>
      <trkpt lat="43.71166" lon="6.96291">
        <ele>783.9</ele>
        <time>2025-09-27T07:22:05Z</time>
      </trkpt>
      <trkpt lat="43.71166" lon="6.96283">
        <ele>784.4</ele>
        <time>2025-09-27T07:22:08Z</time>
      </trkpt>
      <trkpt lat="43.71166" lon="6.96276">
        <ele>784.8</ele>
        <time>2025-09-27T07:22:10Z</time>
      </trkpt>
      <trkpt lat="43.71168" lon="6.96269">
        <ele>785.2</ele>
        <time>2025-09-27T07:22:13Z</time>
      </trkpt>
      <trkpt lat="43.71173" lon="6.96267">
        <ele>785.6</ele>
        <time>2025-09-27T07:22:16Z</time>
      </trkpt>
      <trkpt lat="43.71177" lon="6.96272">
        <ele>786</ele>
        <time>2025-09-27T07:22:19Z</time>
      </trkpt>
      <trkpt lat="43.71181" lon="6.96276">
        <ele>786.3</ele>
        <time>2025-09-27T07:22:22Z</time>
      </trkpt>
      <trkpt lat="43.71186" lon="6.96281">
        <ele>786.7</ele>
        <time>2025-09-27T07:22:25Z</time>
      </trkpt>
      <trkpt lat="43.7119" lon="6.96285">
        <ele>787</ele>
        <time>2025-09-27T07:22:28Z</time>
      </trkpt>
      <trkpt lat="43.71196" lon="6.96289">
        <ele>787.4</ele>
        <time>2025-09-27T07:22:31Z</time>
      </trkpt>
      <trkpt lat="43.71202" lon="6.96291">
        <ele>787.7</ele>
        <time>2025-09-27T07:22:34Z</time>
      </trkpt>
      <trkpt lat="43.71209" lon="6.96292">
        <ele>788</ele>
        <time>2025-09-27T07:22:37Z</time>
      </trkpt>
      <trkpt lat="43.71213" lon="6.96292">
        <ele>788.2</ele>
        <time>2025-09-27T07:22:39Z</time>
      </trkpt>
      <trkpt lat="43.71218" lon="6.96291">
        <ele>788.3</ele>
        <time>2025-09-27T07:22:41Z</time>
      </trkpt>
      <trkpt lat="43.71223" lon="6.9629">
        <ele>788.5</ele>
        <time>2025-09-27T07:22:43Z</time>
      </trkpt>
      <trkpt lat="43.71228" lon="6.96288">
        <ele>788.6</ele>
        <time>2025-09-27T07:22:45Z</time>
      </trkpt>
      <trkpt lat="43.71234" lon="6.96286">
        <ele>788.7</ele>
        <time>2025-09-27T07:22:47Z</time>
      </trkpt>
      <trkpt lat="43.71239" lon="6.96285">
        <ele>788.8</ele>
        <time>2025-09-27T07:22:49Z</time>
      </trkpt>
      <trkpt lat="43.71244" lon="6.96285">
        <ele>788.9</ele>
        <time>2025-09-27T07:22:51Z</time>
      </trkpt>
      <trkpt lat="43.71249" lon="6.96284">
        <ele>789</ele>
        <time>2025-09-27T07:22:53Z</time>
      </trkpt>
      <trkpt lat="43.71255" lon="6.96284">
        <ele>789.1</ele>
        <time>2025-09-27T07:22:55Z</time>
      </trkpt>
      <trkpt lat="43.7126" lon="6.96283">
        <ele>789.1</ele>
        <time>2025-09-27T07:22:57Z</time>
      </trkpt>
      <trkpt lat="43.71266" lon="6.96282">
        <ele>789.2</ele>
        <time>2025-09-27T07:22:59Z</time>
      </trkpt>
      <trkpt lat="43.71271" lon="6.96281">
        <ele>789.2</ele>
        <time>2025-09-27T07:23:01Z</time>
      </trkpt>
      <trkpt lat="43.71276" lon="6.96279">
        <ele>789.2</ele>
        <time>2025-09-27T07:23:03Z</time>
      </trkpt>
      <trkpt lat="43.71282" lon="6.96278">
        <ele>789.2</ele>
        <time>2025-09-27T07:23:05Z</time>
      </trkpt>
      <trkpt lat="43.71288" lon="6.96277">
        <ele>789.3</ele>
        <time>2025-09-27T07:23:07Z</time>
      </trkpt>
      <trkpt lat="43.71293" lon="6.96279">
        <ele>789.3</ele>
        <time>2025-09-27T07:23:09Z</time>
      </trkpt>
      <trkpt lat="43.71297" lon="6.96282">
        <ele>789.3</ele>
        <time>2025-09-27T07:23:11Z</time>
      </trkpt>
      <trkpt lat="43.71302" lon="6.96287">
        <ele>789.4</ele>
        <time>2025-09-27T07:23:14Z</time>
      </trkpt>
      <trkpt lat="43.71307" lon="6.96293">
        <ele>789.5</ele>
        <time>2025-09-27T07:23:17Z</time>
      </trkpt>
      <trkpt lat="43.71312" lon="6.96299">
        <ele>789.5</ele>
        <time>2025-09-27T07:23:20Z</time>
      </trkpt>
      <trkpt lat="43.71315" lon="6.96302">
        <ele>789.5</ele>
        <time>2025-09-27T07:23:22Z</time>
      </trkpt>
      <trkpt lat="43.7132" lon="6.96305">
        <ele>789.5</ele>
        <time>2025-09-27T07:23:24Z</time>
      </trkpt>
      <trkpt lat="43.71326" lon="6.96308">
        <ele>789.4</ele>
        <time>2025-09-27T07:23:27Z</time>
      </trkpt>
      <trkpt lat="43.7133" lon="6.9631">
        <ele>789.4</ele>
        <time>2025-09-27T07:23:29Z</time>
      </trkpt>
      <trkpt lat="43.71335" lon="6.96311">
        <ele>789.4</ele>
        <time>2025-09-27T07:23:31Z</time>
      </trkpt>
      <trkpt lat="43.7134" lon="6.96313">
        <ele>789.4</ele>
        <time>2025-09-27T07:23:33Z</time>
      </trkpt>
      <trkpt lat="43.71345" lon="6.96315">
        <ele>789.4</ele>
        <time>2025-09-27T07:23:35Z</time>
      </trkpt>
      <trkpt lat="43.7135" lon="6.96317">
        <ele>789.4</ele>
        <time>2025-09-27T07:23:37Z</time>
      </trkpt>
      <trkpt lat="43.71354" lon="6.96319">
        <ele>789.3</ele>
        <time>2025-09-27T07:23:39Z</time>
      </trkpt>
      <trkpt lat="43.71359" lon="6.96323">
        <ele>789.2</ele>
        <time>2025-09-27T07:23:41Z</time>
      </trkpt>
      <trkpt lat="43.71364" lon="6.96328">
        <ele>789.1</ele>
        <time>2025-09-27T07:23:43Z</time>
      </trkpt>
      <trkpt lat="43.7137" lon="6.96334">
        <ele>788.9</ele>
        <time>2025-09-27T07:23:45Z</time>
      </trkpt>
      <trkpt lat="43.71375" lon="6.96341">
        <ele>788.7</ele>
        <time>2025-09-27T07:23:47Z</time>
      </trkpt>
      <trkpt lat="43.71381" lon="6.9635">
        <ele>788.6</ele>
        <time>2025-09-27T07:23:49Z</time>
      </trkpt>
      <trkpt lat="43.71385" lon="6.96358">
        <ele>788.6</ele>
        <time>2025-09-27T07:23:51Z</time>
      </trkpt>
      <trkpt lat="43.7139" lon="6.96366">
        <ele>788.6</ele>
        <time>2025-09-27T07:23:53Z</time>
      </trkpt>
      <trkpt lat="43.71394" lon="6.96373">
        <ele>788.6</ele>
        <time>2025-09-27T07:23:55Z</time>
      </trkpt>
      <trkpt lat="43.71398" lon="6.9638">
        <ele>788.7</ele>
        <time>2025-09-27T07:23:57Z</time>
      </trkpt>
      <trkpt lat="43.71402" lon="6.96387">
        <ele>788.7</ele>
        <time>2025-09-27T07:23:59Z</time>
      </trkpt>
      <trkpt lat="43.71406" lon="6.96394">
        <ele>788.7</ele>
        <time>2025-09-27T07:24:01Z</time>
      </trkpt>
      <trkpt lat="43.7141" lon="6.96401">
        <ele>788.7</ele>
        <time>2025-09-27T07:24:03Z</time>
      </trkpt>
      <trkpt lat="43.71415" lon="6.96408">
        <ele>788.7</ele>
        <time>2025-09-27T07:24:05Z</time>
      </trkpt>
      <trkpt lat="43.71419" lon="6.96415">
        <ele>788.7</ele>
        <time>2025-09-27T07:24:07Z</time>
      </trkpt>
      <trkpt lat="43.71423" lon="6.96422">
        <ele>788.6</ele>
        <time>2025-09-27T07:24:09Z</time>
      </trkpt>
      <trkpt lat="43.71427" lon="6.9643">
        <ele>788.6</ele>
        <time>2025-09-27T07:24:11Z</time>
      </trkpt>
      <trkpt lat="43.7143" lon="6.96439">
        <ele>788.5</ele>
        <time>2025-09-27T07:24:13Z</time>
      </trkpt>
      <trkpt lat="43.71432" lon="6.96448">
        <ele>788.4</ele>
        <time>2025-09-27T07:24:15Z</time>
      </trkpt>
      <trkpt lat="43.71433" lon="6.96458">
        <ele>788.3</ele>
        <time>2025-09-27T07:24:17Z</time>
      </trkpt>
      <trkpt lat="43.71433" lon="6.96467">
        <ele>788.3</ele>
        <time>2025-09-27T07:24:19Z</time>
      </trkpt>
      <trkpt lat="43.71432" lon="6.96477">
        <ele>788.2</ele>
        <time>2025-09-27T07:24:21Z</time>
      </trkpt>
      <trkpt lat="43.71431" lon="6.96486">
        <ele>788.2</ele>
        <time>2025-09-27T07:24:23Z</time>
      </trkpt>
      <trkpt lat="43.7143" lon="6.96495">
        <ele>788.2</ele>
        <time>2025-09-27T07:24:25Z</time>
      </trkpt>
      <trkpt lat="43.71429" lon="6.96504">
        <ele>788.2</ele>
        <time>2025-09-27T07:24:27Z</time>
      </trkpt>
      <trkpt lat="43.71428" lon="6.96513">
        <ele>788.2</ele>
        <time>2025-09-27T07:24:29Z</time>
      </trkpt>
      <trkpt lat="43.71429" lon="6.96523">
        <ele>788.1</ele>
        <time>2025-09-27T07:24:31Z</time>
      </trkpt>
      <trkpt lat="43.7143" lon="6.96533">
        <ele>788</ele>
        <time>2025-09-27T07:24:33Z</time>
      </trkpt>
      <trkpt lat="43.71431" lon="6.96543">
        <ele>787.9</ele>
        <time>2025-09-27T07:24:35Z</time>
      </trkpt>
      <trkpt lat="43.71434" lon="6.96552">
        <ele>787.8</ele>
        <time>2025-09-27T07:24:37Z</time>
      </trkpt>
      <trkpt lat="43.71437" lon="6.9656">
        <ele>787.7</ele>
        <time>2025-09-27T07:24:39Z</time>
      </trkpt>
      <trkpt lat="43.7144" lon="6.9657">
        <ele>787.6</ele>
        <time>2025-09-27T07:24:41Z</time>
      </trkpt>
      <trkpt lat="43.71443" lon="6.96579">
        <ele>787.5</ele>
        <time>2025-09-27T07:24:43Z</time>
      </trkpt>
      <trkpt lat="43.71445" lon="6.96589">
        <ele>787.4</ele>
        <time>2025-09-27T07:24:45Z</time>
      </trkpt>
      <trkpt lat="43.71446" lon="6.96599">
        <ele>787.3</ele>
        <time>2025-09-27T07:24:47Z</time>
      </trkpt>
      <trkpt lat="43.71447" lon="6.96609">
        <ele>787.2</ele>
        <time>2025-09-27T07:24:49Z</time>
      </trkpt>
      <trkpt lat="43.71448" lon="6.96619">
        <ele>787.1</ele>
        <time>2025-09-27T07:24:51Z</time>
      </trkpt>
      <trkpt lat="43.71448" lon="6.96628">
        <ele>787</ele>
        <time>2025-09-27T07:24:53Z</time>
      </trkpt>
      <trkpt lat="43.71448" lon="6.96638">
        <ele>787</ele>
        <time>2025-09-27T07:24:55Z</time>
      </trkpt>
      <trkpt lat="43.71448" lon="6.96649">
        <ele>786.9</ele>
        <time>2025-09-27T07:24:57Z</time>
      </trkpt>
      <trkpt lat="43.7145" lon="6.96659">
        <ele>786.9</ele>
        <time>2025-09-27T07:24:59Z</time>
      </trkpt>
      <trkpt lat="43.71452" lon="6.96669">
        <ele>786.8</ele>
        <time>2025-09-27T07:25:01Z</time>
      </trkpt>
      <trkpt lat="43.71455" lon="6.96678">
        <ele>786.7</ele>
        <time>2025-09-27T07:25:03Z</time>
      </trkpt>
      <trkpt lat="43.71459" lon="6.96687">
        <ele>786.7</ele>
        <time>2025-09-27T07:25:05Z</time>
      </trkpt>
      <trkpt lat="43.71464" lon="6.96696">
        <ele>786.5</ele>
        <time>2025-09-27T07:25:07Z</time>
      </trkpt>
      <trkpt lat="43.71468" lon="6.96704">
        <ele>786.4</ele>
        <time>2025-09-27T07:25:09Z</time>
      </trkpt>
      <trkpt lat="43.71472" lon="6.96713">
        <ele>786.3</ele>
        <time>2025-09-27T07:25:11Z</time>
      </trkpt>
      <trkpt lat="43.71477" lon="6.96722">
        <ele>786.2</ele>
        <time>2025-09-27T07:25:13Z</time>
      </trkpt>
      <trkpt lat="43.71481" lon="6.96731">
        <ele>786.1</ele>
        <time>2025-09-27T07:25:15Z</time>
      </trkpt>
      <trkpt lat="43.71486" lon="6.9674">
        <ele>786</ele>
        <time>2025-09-27T07:25:17Z</time>
      </trkpt>
      <trkpt lat="43.71492" lon="6.96747">
        <ele>785.9</ele>
        <time>2025-09-27T07:25:19Z</time>
      </trkpt>
      <trkpt lat="43.71498" lon="6.96752">
        <ele>785.8</ele>
        <time>2025-09-27T07:25:21Z</time>
      </trkpt>
      <trkpt lat="43.71505" lon="6.96755">
        <ele>785.6</ele>
        <time>2025-09-27T07:25:23Z</time>
      </trkpt>
      <trkpt lat="43.71511" lon="6.96757">
        <ele>785.4</ele>
        <time>2025-09-27T07:25:25Z</time>
      </trkpt>
      <trkpt lat="43.71517" lon="6.9676">
        <ele>785.2</ele>
        <time>2025-09-27T07:25:27Z</time>
      </trkpt>
      <trkpt lat="43.71522" lon="6.96759">
        <ele>784.9</ele>
        <time>2025-09-27T07:25:47Z</time>
      </trkpt>
      <trkpt lat="43.71528" lon="6.96757">
        <ele>784.6</ele>
        <time>2025-09-27T07:25:50Z</time>
      </trkpt>
      <trkpt lat="43.71533" lon="6.96755">
        <ele>784.4</ele>
        <time>2025-09-27T07:25:52Z</time>
      </trkpt>
      <trkpt lat="43.71539" lon="6.96751">
        <ele>784</ele>
        <time>2025-09-27T07:25:55Z</time>
      </trkpt>
      <trkpt lat="43.71545" lon="6.96749">
        <ele>783.5</ele>
        <time>2025-09-27T07:25:57Z</time>
      </trkpt>
      <trkpt lat="43.71551" lon="6.96745">
        <ele>783</ele>
        <time>2025-09-27T07:25:59Z</time>
      </trkpt>
      <trkpt lat="43.71558" lon="6.9674">
        <ele>782.3</ele>
        <time>2025-09-27T07:26:01Z</time>
      </trkpt>
      <trkpt lat="43.71562" lon="6.96736">
        <ele>781.9</ele>
        <time>2025-09-27T07:26:02Z</time>
      </trkpt>
      <trkpt lat="43.71565" lon="6.96731">
        <ele>781.5</ele>
        <time>2025-09-27T07:26:03Z</time>
      </trkpt>
      <trkpt lat="43.71569" lon="6.96725">
        <ele>781</ele>
        <time>2025-09-27T07:26:04Z</time>
      </trkpt>
      <trkpt lat="43.71572" lon="6.96719">
        <ele>780.5</ele>
        <time>2025-09-27T07:26:05Z</time>
      </trkpt>
      <trkpt lat="43.71575" lon="6.96711">
        <ele>779.9</ele>
        <time>2025-09-27T07:26:06Z</time>
      </trkpt>
      <trkpt lat="43.71578" lon="6.96703">
        <ele>779.2</ele>
        <time>2025-09-27T07:26:07Z</time>
      </trkpt>
      <trkpt lat="43.71581" lon="6.96695">
        <ele>778.5</ele>
        <time>2025-09-27T07:26:08Z</time>
      </trkpt>
      <trkpt lat="43.71585" lon="6.96686">
        <ele>777.8</ele>
        <time>2025-09-27T07:26:09Z</time>
      </trkpt>
      <trkpt lat="43.71588" lon="6.96677">
        <ele>777.1</ele>
        <time>2025-09-27T07:26:10Z</time>
      </trkpt>
      <trkpt lat="43.71592" lon="6.96668">
        <ele>776.4</ele>
        <time>2025-09-27T07:26:11Z</time>
      </trkpt>
      <trkpt lat="43.71597" lon="6.96659">
        <ele>775.8</ele>
        <time>2025-09-27T07:26:12Z</time>
      </trkpt>
      <trkpt lat="43.71602" lon="6.9665">
        <ele>775.2</ele>
        <time>2025-09-27T07:26:13Z</time>
      </trkpt>
      <trkpt lat="43.71606" lon="6.9664">
        <ele>774.8</ele>
        <time>2025-09-27T07:26:14Z</time>
      </trkpt>
      <trkpt lat="43.7161" lon="6.96631">
        <ele>774.5</ele>
        <time>2025-09-27T07:26:15Z</time>
      </trkpt>
      <trkpt lat="43.71614" lon="6.96623">
        <ele>774.3</ele>
        <time>2025-09-27T07:26:16Z</time>
      </trkpt>
      <trkpt lat="43.71619" lon="6.96614">
        <ele>774</ele>
        <time>2025-09-27T07:26:17Z</time>
      </trkpt>
      <trkpt lat="43.71622" lon="6.96606">
        <ele>773.9</ele>
        <time>2025-09-27T07:26:18Z</time>
      </trkpt>
      <trkpt lat="43.71625" lon="6.96599">
        <ele>773.7</ele>
        <time>2025-09-27T07:26:19Z</time>
      </trkpt>
      <trkpt lat="43.7163" lon="6.9659">
        <ele>773.6</ele>
        <time>2025-09-27T07:26:20Z</time>
      </trkpt>
      <trkpt lat="43.71633" lon="6.96583">
        <ele>773.6</ele>
        <time>2025-09-27T07:26:21Z</time>
      </trkpt>
      <trkpt lat="43.71637" lon="6.96576">
        <ele>773.6</ele>
        <time>2025-09-27T07:26:22Z</time>
      </trkpt>
      <trkpt lat="43.71641" lon="6.96569">
        <ele>773.7</ele>
        <time>2025-09-27T07:26:23Z</time>
      </trkpt>
      <trkpt lat="43.71646" lon="6.96562">
        <ele>773.8</ele>
        <time>2025-09-27T07:26:24Z</time>
      </trkpt>
      <trkpt lat="43.7165" lon="6.96557">
        <ele>774</ele>
        <time>2025-09-27T07:26:25Z</time>
      </trkpt>
      <trkpt lat="43.71654" lon="6.96552">
        <ele>774.2</ele>
        <time>2025-09-27T07:26:26Z</time>
      </trkpt>
      <trkpt lat="43.71658" lon="6.96549">
        <ele>774.5</ele>
        <time>2025-09-27T07:26:27Z</time>
      </trkpt>
      <trkpt lat="43.71665" lon="6.96543">
        <ele>775.1</ele>
        <time>2025-09-27T07:26:29Z</time>
      </trkpt>
      <trkpt lat="43.7167" lon="6.9654">
        <ele>775.6</ele>
        <time>2025-09-27T07:26:31Z</time>
      </trkpt>
      <trkpt lat="43.71675" lon="6.96537">
        <ele>776</ele>
        <time>2025-09-27T07:26:33Z</time>
      </trkpt>
      <trkpt lat="43.7168" lon="6.96534">
        <ele>776.3</ele>
        <time>2025-09-27T07:26:35Z</time>
      </trkpt>
      <trkpt lat="43.71685" lon="6.96528">
        <ele>776.7</ele>
        <time>2025-09-27T07:26:38Z</time>
      </trkpt>
      <trkpt lat="43.71689" lon="6.96524">
        <ele>776.9</ele>
        <time>2025-09-27T07:26:40Z</time>
      </trkpt>
      <trkpt lat="43.71693" lon="6.96519">
        <ele>777</ele>
        <time>2025-09-27T07:26:42Z</time>
      </trkpt>
      <trkpt lat="43.71696" lon="6.96514">
        <ele>777</ele>
        <time>2025-09-27T07:26:44Z</time>
      </trkpt>
      <trkpt lat="43.717" lon="6.96507">
        <ele>777</ele>
        <time>2025-09-27T07:26:46Z</time>
      </trkpt>
      <trkpt lat="43.71703" lon="6.96499">
        <ele>776.9</ele>
        <time>2025-09-27T07:26:48Z</time>
      </trkpt>
      <trkpt lat="43.71706" lon="6.96491">
        <ele>776.7</ele>
        <time>2025-09-27T07:26:50Z</time>
      </trkpt>
      <trkpt lat="43.71709" lon="6.96482">
        <ele>776.6</ele>
        <time>2025-09-27T07:26:52Z</time>
      </trkpt>
      <trkpt lat="43.71713" lon="6.96475">
        <ele>776.4</ele>
        <time>2025-09-27T07:26:54Z</time>
      </trkpt>
      <trkpt lat="43.71718" lon="6.96468">
        <ele>776.2</ele>
        <time>2025-09-27T07:26:56Z</time>
      </trkpt>
      <trkpt lat="43.71723" lon="6.96462">
        <ele>775.9</ele>
        <time>2025-09-27T07:26:58Z</time>
      </trkpt>
      <trkpt lat="43.71729" lon="6.96457">
        <ele>775.6</ele>
        <time>2025-09-27T07:27:00Z</time>
      </trkpt>
      <trkpt lat="43.71735" lon="6.96452">
        <ele>775.2</ele>
        <time>2025-09-27T07:27:02Z</time>
      </trkpt>
      <trkpt lat="43.71742" lon="6.96445">
        <ele>774.7</ele>
        <time>2025-09-27T07:27:04Z</time>
      </trkpt>
      <trkpt lat="43.71748" lon="6.96439">
        <ele>774.2</ele>
        <time>2025-09-27T07:27:06Z</time>
      </trkpt>
      <trkpt lat="43.71754" lon="6.96431">
        <ele>773.7</ele>
        <time>2025-09-27T07:27:08Z</time>
      </trkpt>
      <trkpt lat="43.71761" lon="6.96424">
        <ele>773.2</ele>
        <time>2025-09-27T07:27:10Z</time>
      </trkpt>
      <trkpt lat="43.71767" lon="6.96415">
        <ele>772.6</ele>
        <time>2025-09-27T07:27:12Z</time>
      </trkpt>
      <trkpt lat="43.7177" lon="6.96409">
        <ele>772.2</ele>
        <time>2025-09-27T07:27:13Z</time>
      </trkpt>
      <trkpt lat="43.71774" lon="6.96403">
        <ele>771.8</ele>
        <time>2025-09-27T07:27:14Z</time>
      </trkpt>
      <trkpt lat="43.71777" lon="6.96396">
        <ele>771.3</ele>
        <time>2025-09-27T07:27:15Z</time>
      </trkpt>
      <trkpt lat="43.71779" lon="6.96389">
        <ele>770.8</ele>
        <time>2025-09-27T07:27:16Z</time>
      </trkpt>
      <trkpt lat="43.71782" lon="6.96381">
        <ele>770.2</ele>
        <time>2025-09-27T07:27:17Z</time>
      </trkpt>
      <trkpt lat="43.71784" lon="6.96372">
        <ele>769.6</ele>
        <time>2025-09-27T07:27:18Z</time>
      </trkpt>
      <trkpt lat="43.71786" lon="6.96363">
        <ele>768.9</ele>
        <time>2025-09-27T07:27:19Z</time>
      </trkpt>
      <trkpt lat="43.71789" lon="6.96354">
        <ele>768.3</ele>
        <time>2025-09-27T07:27:20Z</time>
      </trkpt>
      <trkpt lat="43.71791" lon="6.96344">
        <ele>767.6</ele>
        <time>2025-09-27T07:27:21Z</time>
      </trkpt>
      <trkpt lat="43.71793" lon="6.96333">
        <ele>767</ele>
        <time>2025-09-27T07:27:22Z</time>
      </trkpt>
      <trkpt lat="43.71795" lon="6.96323">
        <ele>766.5</ele>
        <time>2025-09-27T07:27:23Z</time>
      </trkpt>
      <trkpt lat="43.71797" lon="6.96312">
        <ele>766</ele>
        <time>2025-09-27T07:27:24Z</time>
      </trkpt>
      <trkpt lat="43.71799" lon="6.96301">
        <ele>765.7</ele>
        <time>2025-09-27T07:27:25Z</time>
      </trkpt>
      <trkpt lat="43.71801" lon="6.96291">
        <ele>765.4</ele>
        <time>2025-09-27T07:27:26Z</time>
      </trkpt>
      <trkpt lat="43.71804" lon="6.9628">
        <ele>765.1</ele>
        <time>2025-09-27T07:27:27Z</time>
      </trkpt>
      <trkpt lat="43.71807" lon="6.9627">
        <ele>765.1</ele>
        <time>2025-09-27T07:27:28Z</time>
      </trkpt>
      <trkpt lat="43.7181" lon="6.96261">
        <ele>765.1</ele>
        <time>2025-09-27T07:27:29Z</time>
      </trkpt>
      <trkpt lat="43.71813" lon="6.96253">
        <ele>765.2</ele>
        <time>2025-09-27T07:27:30Z</time>
      </trkpt>
      <trkpt lat="43.71817" lon="6.96247">
        <ele>765.3</ele>
        <time>2025-09-27T07:27:31Z</time>
      </trkpt>
      <trkpt lat="43.71822" lon="6.96242">
        <ele>765.4</ele>
        <time>2025-09-27T07:27:32Z</time>
      </trkpt>
      <trkpt lat="43.71826" lon="6.96238">
        <ele>765.4</ele>
        <time>2025-09-27T07:27:33Z</time>
      </trkpt>
      <trkpt lat="43.71829" lon="6.96234">
        <ele>765.4</ele>
        <time>2025-09-27T07:27:34Z</time>
      </trkpt>
      <trkpt lat="43.71836" lon="6.96226">
        <ele>765.3</ele>
        <time>2025-09-27T07:27:36Z</time>
      </trkpt>
      <trkpt lat="43.71841" lon="6.96217">
        <ele>765.1</ele>
        <time>2025-09-27T07:27:38Z</time>
      </trkpt>
      <trkpt lat="43.71844" lon="6.96212">
        <ele>765</ele>
        <time>2025-09-27T07:27:39Z</time>
      </trkpt>
      <trkpt lat="43.71851" lon="6.96205">
        <ele>764.9</ele>
        <time>2025-09-27T07:27:41Z</time>
      </trkpt>
      <trkpt lat="43.71857" lon="6.96203">
        <ele>764.7</ele>
        <time>2025-09-27T07:27:43Z</time>
      </trkpt>
      <trkpt lat="43.71865" lon="6.96199">
        <ele>764.4</ele>
        <time>2025-09-27T07:27:45Z</time>
      </trkpt>
      <trkpt lat="43.71873" lon="6.96195">
        <ele>764</ele>
        <time>2025-09-27T07:27:47Z</time>
      </trkpt>
      <trkpt lat="43.71878" lon="6.96194">
        <ele>763.8</ele>
        <time>2025-09-27T07:27:48Z</time>
      </trkpt>
      <trkpt lat="43.71883" lon="6.96193">
        <ele>763.5</ele>
        <time>2025-09-27T07:27:49Z</time>
      </trkpt>
      <trkpt lat="43.71888" lon="6.96192">
        <ele>763.3</ele>
        <time>2025-09-27T07:27:50Z</time>
      </trkpt>
      <trkpt lat="43.71893" lon="6.9619">
        <ele>763.1</ele>
        <time>2025-09-27T07:27:51Z</time>
      </trkpt>
      <trkpt lat="43.71898" lon="6.96189">
        <ele>762.9</ele>
        <time>2025-09-27T07:27:52Z</time>
      </trkpt>
      <trkpt lat="43.71904" lon="6.96186">
        <ele>762.7</ele>
        <time>2025-09-27T07:27:53Z</time>
      </trkpt>
      <trkpt lat="43.71909" lon="6.96184">
        <ele>762.5</ele>
        <time>2025-09-27T07:27:54Z</time>
      </trkpt>
      <trkpt lat="43.71915" lon="6.96183">
        <ele>762.4</ele>
        <time>2025-09-27T07:27:55Z</time>
      </trkpt>
      <trkpt lat="43.7192" lon="6.96181">
        <ele>762.4</ele>
        <time>2025-09-27T07:27:56Z</time>
      </trkpt>
      <trkpt lat="43.71925" lon="6.9618">
        <ele>762.3</ele>
        <time>2025-09-27T07:27:57Z</time>
      </trkpt>
      <trkpt lat="43.7193" lon="6.96178">
        <ele>762.4</ele>
        <time>2025-09-27T07:27:58Z</time>
      </trkpt>
      <trkpt lat="43.71934" lon="6.96177">
        <ele>762.4</ele>
        <time>2025-09-27T07:27:59Z</time>
      </trkpt>
      <trkpt lat="43.71943" lon="6.96176">
        <ele>762.6</ele>
        <time>2025-09-27T07:28:01Z</time>
      </trkpt>
      <trkpt lat="43.71951" lon="6.96176">
        <ele>763.1</ele>
        <time>2025-09-27T07:28:03Z</time>
      </trkpt>
      <trkpt lat="43.71958" lon="6.96178">
        <ele>763.6</ele>
        <time>2025-09-27T07:28:05Z</time>
      </trkpt>
      <trkpt lat="43.71964" lon="6.9618">
        <ele>764.1</ele>
        <time>2025-09-27T07:28:07Z</time>
      </trkpt>
      <trkpt lat="43.71968" lon="6.96183">
        <ele>764.6</ele>
        <time>2025-09-27T07:28:09Z</time>
      </trkpt>
      <trkpt lat="43.71974" lon="6.96187">
        <ele>765.2</ele>
        <time>2025-09-27T07:28:12Z</time>
      </trkpt>
      <trkpt lat="43.71978" lon="6.9619">
        <ele>765.6</ele>
        <time>2025-09-27T07:28:14Z</time>
      </trkpt>
      <trkpt lat="43.71983" lon="6.96193">
        <ele>766.1</ele>
        <time>2025-09-27T07:28:17Z</time>
      </trkpt>
      <trkpt lat="43.7199" lon="6.96196">
        <ele>766.5</ele>
        <time>2025-09-27T07:28:20Z</time>
      </trkpt>
      <trkpt lat="43.71996" lon="6.96199">
        <ele>766.8</ele>
        <time>2025-09-27T07:28:23Z</time>
      </trkpt>
      <trkpt lat="43.72002" lon="6.96202">
        <ele>767</ele>
        <time>2025-09-27T07:28:26Z</time>
      </trkpt>
      <trkpt lat="43.72003" lon="6.96209">
        <ele>767</ele>
        <time>2025-09-27T07:28:29Z</time>
      </trkpt>
      <trkpt lat="43.72004" lon="6.96215">
        <ele>767</ele>
        <time>2025-09-27T07:28:33Z</time>
      </trkpt>
      <trkpt lat="43.72007" lon="6.96221">
        <ele>766.9</ele>
        <time>2025-09-27T07:28:36Z</time>
      </trkpt>
      <trkpt lat="43.7201" lon="6.96228">
        <ele>766.7</ele>
        <time>2025-09-27T07:28:39Z</time>
      </trkpt>
      <trkpt lat="43.72011" lon="6.96236">
        <ele>766.4</ele>
        <time>2025-09-27T07:28:42Z</time>
      </trkpt>
      <trkpt lat="43.72012" lon="6.96246">
        <ele>765.9</ele>
        <time>2025-09-27T07:28:45Z</time>
      </trkpt>
      <trkpt lat="43.72013" lon="6.96253">
        <ele>765.5</ele>
        <time>2025-09-27T07:28:47Z</time>
      </trkpt>
      <trkpt lat="43.72014" lon="6.96261">
        <ele>764.9</ele>
        <time>2025-09-27T07:28:49Z</time>
      </trkpt>
      <trkpt lat="43.72017" lon="6.96269">
        <ele>764.3</ele>
        <time>2025-09-27T07:28:51Z</time>
      </trkpt>
      <trkpt lat="43.72019" lon="6.96277">
        <ele>763.6</ele>
        <time>2025-09-27T07:28:53Z</time>
      </trkpt>
      <trkpt lat="43.72022" lon="6.96286">
        <ele>763</ele>
        <time>2025-09-27T07:28:55Z</time>
      </trkpt>
      <trkpt lat="43.72025" lon="6.96294">
        <ele>762.3</ele>
        <time>2025-09-27T07:28:57Z</time>
      </trkpt>
      <trkpt lat="43.72027" lon="6.96304">
        <ele>761.7</ele>
        <time>2025-09-27T07:28:59Z</time>
      </trkpt>
      <trkpt lat="43.72028" lon="6.96315">
        <ele>760.9</ele>
        <time>2025-09-27T07:29:01Z</time>
      </trkpt>
      <trkpt lat="43.72029" lon="6.96326">
        <ele>760.1</ele>
        <time>2025-09-27T07:29:03Z</time>
      </trkpt>
      <trkpt lat="43.7203" lon="6.96337">
        <ele>759.3</ele>
        <time>2025-09-27T07:29:05Z</time>
      </trkpt>
      <trkpt lat="43.72032" lon="6.96348">
        <ele>758.5</ele>
        <time>2025-09-27T07:29:07Z</time>
      </trkpt>
      <trkpt lat="43.72034" lon="6.96359">
        <ele>757.6</ele>
        <time>2025-09-27T07:29:09Z</time>
      </trkpt>
      <trkpt lat="43.72036" lon="6.9637">
        <ele>756.9</ele>
        <time>2025-09-27T07:29:11Z</time>
      </trkpt>
      <trkpt lat="43.72038" lon="6.96376">
        <ele>756.5</ele>
        <time>2025-09-27T07:29:12Z</time>
      </trkpt>
      <trkpt lat="43.7204" lon="6.96383">
        <ele>756.2</ele>
        <time>2025-09-27T07:29:13Z</time>
      </trkpt>
      <trkpt lat="43.72041" lon="6.96389">
        <ele>756</ele>
        <time>2025-09-27T07:29:14Z</time>
      </trkpt>
      <trkpt lat="43.72043" lon="6.96395">
        <ele>755.8</ele>
        <time>2025-09-27T07:29:15Z</time>
      </trkpt>
      <trkpt lat="43.72045" lon="6.96401">
        <ele>755.7</ele>
        <time>2025-09-27T07:29:16Z</time>
      </trkpt>
      <trkpt lat="43.72047" lon="6.96407">
        <ele>755.6</ele>
        <time>2025-09-27T07:29:17Z</time>
      </trkpt>
      <trkpt lat="43.72051" lon="6.96418">
        <ele>755.6</ele>
        <time>2025-09-27T07:29:19Z</time>
      </trkpt>
      <trkpt lat="43.72052" lon="6.96428">
        <ele>755.7</ele>
        <time>2025-09-27T07:29:21Z</time>
      </trkpt>
      <trkpt lat="43.72054" lon="6.96436">
        <ele>755.8</ele>
        <time>2025-09-27T07:29:23Z</time>
      </trkpt>
      <trkpt lat="43.72054" lon="6.96443">
        <ele>755.9</ele>
        <time>2025-09-27T07:29:25Z</time>
      </trkpt>
      <trkpt lat="43.72056" lon="6.96452">
        <ele>756.1</ele>
        <time>2025-09-27T07:29:28Z</time>
      </trkpt>
      <trkpt lat="43.72056" lon="6.96459">
        <ele>756.2</ele>
        <time>2025-09-27T07:29:30Z</time>
      </trkpt>
      <trkpt lat="43.72056" lon="6.96466">
        <ele>756.3</ele>
        <time>2025-09-27T07:29:32Z</time>
      </trkpt>
      <trkpt lat="43.72057" lon="6.96472">
        <ele>756.4</ele>
        <time>2025-09-27T07:29:34Z</time>
      </trkpt>
      <trkpt lat="43.72057" lon="6.9648">
        <ele>756.6</ele>
        <time>2025-09-27T07:29:36Z</time>
      </trkpt>
      <trkpt lat="43.72057" lon="6.96487">
        <ele>756.8</ele>
        <time>2025-09-27T07:29:38Z</time>
      </trkpt>
      <trkpt lat="43.72058" lon="6.96494">
        <ele>757.1</ele>
        <time>2025-09-27T07:29:40Z</time>
      </trkpt>
      <trkpt lat="43.72058" lon="6.965">
        <ele>757.4</ele>
        <time>2025-09-27T07:29:42Z</time>
      </trkpt>
      <trkpt lat="43.72059" lon="6.96506">
        <ele>757.8</ele>
        <time>2025-09-27T07:29:44Z</time>
      </trkpt>
      <trkpt lat="43.7206" lon="6.96513">
        <ele>758.2</ele>
        <time>2025-09-27T07:29:46Z</time>
      </trkpt>
      <trkpt lat="43.72061" lon="6.9652">
        <ele>758.7</ele>
        <time>2025-09-27T07:29:48Z</time>
      </trkpt>
      <trkpt lat="43.72063" lon="6.96528">
        <ele>759.3</ele>
        <time>2025-09-27T07:29:51Z</time>
      </trkpt>
      <trkpt lat="43.72066" lon="6.96535">
        <ele>760</ele>
        <time>2025-09-27T07:29:54Z</time>
      </trkpt>
      <trkpt lat="43.72068" lon="6.96541">
        <ele>760.5</ele>
        <time>2025-09-27T07:29:57Z</time>
      </trkpt>
      <trkpt lat="43.72072" lon="6.96547">
        <ele>761</ele>
        <time>2025-09-27T07:30:00Z</time>
      </trkpt>
      <trkpt lat="43.72076" lon="6.96552">
        <ele>761.5</ele>
        <time>2025-09-27T07:30:03Z</time>
      </trkpt>
      <trkpt lat="43.72081" lon="6.96554">
        <ele>761.9</ele>
        <time>2025-09-27T07:30:06Z</time>
      </trkpt>
      <trkpt lat="43.72087" lon="6.96554">
        <ele>762.2</ele>
        <time>2025-09-27T07:30:09Z</time>
      </trkpt>
      <trkpt lat="43.72092" lon="6.96552">
        <ele>762.4</ele>
        <time>2025-09-27T07:30:12Z</time>
      </trkpt>
      <trkpt lat="43.72098" lon="6.96549">
        <ele>762.5</ele>
        <time>2025-09-27T07:30:15Z</time>
      </trkpt>
      <trkpt lat="43.72103" lon="6.96548">
        <ele>762.6</ele>
        <time>2025-09-27T07:30:18Z</time>
      </trkpt>
      <trkpt lat="43.72108" lon="6.96546">
        <ele>762.6</ele>
        <time>2025-09-27T07:30:21Z</time>
      </trkpt>
      <trkpt lat="43.72114" lon="6.96545">
        <ele>762.7</ele>
        <time>2025-09-27T07:30:24Z</time>
      </trkpt>
      <trkpt lat="43.7212" lon="6.96542">
        <ele>762.6</ele>
        <time>2025-09-27T07:30:27Z</time>
      </trkpt>
      <trkpt lat="43.72126" lon="6.96539">
        <ele>762.6</ele>
        <time>2025-09-27T07:30:30Z</time>
      </trkpt>
      <trkpt lat="43.72131" lon="6.96536">
        <ele>762.5</ele>
        <time>2025-09-27T07:30:33Z</time>
      </trkpt>
      <trkpt lat="43.72135" lon="6.96532">
        <ele>762.4</ele>
        <time>2025-09-27T07:30:36Z</time>
      </trkpt>
      <trkpt lat="43.72141" lon="6.96527">
        <ele>762.1</ele>
        <time>2025-09-27T07:30:39Z</time>
      </trkpt>
      <trkpt lat="43.72145" lon="6.96523">
        <ele>761.9</ele>
        <time>2025-09-27T07:30:41Z</time>
      </trkpt>
      <trkpt lat="43.72151" lon="6.96518">
        <ele>761.5</ele>
        <time>2025-09-27T07:30:43Z</time>
      </trkpt>
      <trkpt lat="43.72157" lon="6.96512">
        <ele>761.1</ele>
        <time>2025-09-27T07:30:45Z</time>
      </trkpt>
      <trkpt lat="43.72164" lon="6.96506">
        <ele>760.7</ele>
        <time>2025-09-27T07:30:47Z</time>
      </trkpt>
      <trkpt lat="43.72171" lon="6.965">
        <ele>760.4</ele>
        <time>2025-09-27T07:30:49Z</time>
      </trkpt>
      <trkpt lat="43.72177" lon="6.96495">
        <ele>760.2</ele>
        <time>2025-09-27T07:30:51Z</time>
      </trkpt>
      <trkpt lat="43.72184" lon="6.96493">
        <ele>759.9</ele>
        <time>2025-09-27T07:30:53Z</time>
      </trkpt>
      <trkpt lat="43.72191" lon="6.96492">
        <ele>759.8</ele>
        <time>2025-09-27T07:30:55Z</time>
      </trkpt>
      <trkpt lat="43.72196" lon="6.96494">
        <ele>759.7</ele>
        <time>2025-09-27T07:30:57Z</time>
      </trkpt>
      <trkpt lat="43.72202" lon="6.96497">
        <ele>759.7</ele>
        <time>2025-09-27T07:30:59Z</time>
      </trkpt>
      <trkpt lat="43.72208" lon="6.965">
        <ele>759.6</ele>
        <time>2025-09-27T07:31:01Z</time>
      </trkpt>
      <trkpt lat="43.72211" lon="6.96506">
        <ele>759.6</ele>
        <time>2025-09-27T07:31:03Z</time>
      </trkpt>
      <trkpt lat="43.72214" lon="6.96512">
        <ele>759.6</ele>
        <time>2025-09-27T07:31:05Z</time>
      </trkpt>
      <trkpt lat="43.72217" lon="6.96519">
        <ele>759.7</ele>
        <time>2025-09-27T07:31:07Z</time>
      </trkpt>
      <trkpt lat="43.72219" lon="6.96526">
        <ele>759.7</ele>
        <time>2025-09-27T07:31:09Z</time>
      </trkpt>
      <trkpt lat="43.7222" lon="6.96532">
        <ele>759.9</ele>
        <time>2025-09-27T07:31:11Z</time>
      </trkpt>
      <trkpt lat="43.72222" lon="6.9654">
        <ele>760</ele>
        <time>2025-09-27T07:31:14Z</time>
      </trkpt>
      <trkpt lat="43.72223" lon="6.96547">
        <ele>760.2</ele>
        <time>2025-09-27T07:31:16Z</time>
      </trkpt>
      <trkpt lat="43.72224" lon="6.96553">
        <ele>760.4</ele>
        <time>2025-09-27T07:31:18Z</time>
      </trkpt>
      <trkpt lat="43.72227" lon="6.96562">
        <ele>760.7</ele>
        <time>2025-09-27T07:31:21Z</time>
      </trkpt>
      <trkpt lat="43.72229" lon="6.96568">
        <ele>760.9</ele>
        <time>2025-09-27T07:31:23Z</time>
      </trkpt>
      <trkpt lat="43.7223" lon="6.96574">
        <ele>761.2</ele>
        <time>2025-09-27T07:31:25Z</time>
      </trkpt>
      <trkpt lat="43.72232" lon="6.96583">
        <ele>761.6</ele>
        <time>2025-09-27T07:31:28Z</time>
      </trkpt>
      <trkpt lat="43.72233" lon="6.9659">
        <ele>762</ele>
        <time>2025-09-27T07:31:30Z</time>
      </trkpt>
      <trkpt lat="43.72234" lon="6.96596">
        <ele>762.4</ele>
        <time>2025-09-27T07:31:32Z</time>
      </trkpt>
      <trkpt lat="43.72236" lon="6.96603">
        <ele>762.8</ele>
        <time>2025-09-27T07:31:35Z</time>
      </trkpt>
      <trkpt lat="43.72237" lon="6.9661">
        <ele>763.3</ele>
        <time>2025-09-27T07:31:39Z</time>
      </trkpt>
      <trkpt lat="43.72235" lon="6.96616">
        <ele>763.9</ele>
        <time>2025-09-27T07:31:42Z</time>
      </trkpt>
      <trkpt lat="43.72232" lon="6.96622">
        <ele>764.6</ele>
        <time>2025-09-27T07:31:45Z</time>
      </trkpt>
      <trkpt lat="43.72229" lon="6.96629">
        <ele>765.3</ele>
        <time>2025-09-27T07:31:48Z</time>
      </trkpt>
      <trkpt lat="43.72227" lon="6.96636">
        <ele>766</ele>
        <time>2025-09-27T07:31:51Z</time>
      </trkpt>
      <trkpt lat="43.72225" lon="6.96643">
        <ele>766.7</ele>
        <time>2025-09-27T07:31:54Z</time>
      </trkpt>
      <trkpt lat="43.72224" lon="6.9665">
        <ele>767.2</ele>
        <time>2025-09-27T07:31:57Z</time>
      </trkpt>
      <trkpt lat="43.72224" lon="6.96657">
        <ele>767.7</ele>
        <time>2025-09-27T07:32:00Z</time>
      </trkpt>
      <trkpt lat="43.72225" lon="6.96665">
        <ele>768.1</ele>
        <time>2025-09-27T07:32:04Z</time>
      </trkpt>
      <trkpt lat="43.72227" lon="6.96671">
        <ele>768.5</ele>
        <time>2025-09-27T07:32:07Z</time>
      </trkpt>
      <trkpt lat="43.72228" lon="6.96679">
        <ele>768.7</ele>
        <time>2025-09-27T07:32:10Z</time>
      </trkpt>
      <trkpt lat="43.7223" lon="6.96686">
        <ele>769</ele>
        <time>2025-09-27T07:32:13Z</time>
      </trkpt>
      <trkpt lat="43.72232" lon="6.96695">
        <ele>769.1</ele>
        <time>2025-09-27T07:32:16Z</time>
      </trkpt>
      <trkpt lat="43.72234" lon="6.96703">
        <ele>769.1</ele>
        <time>2025-09-27T07:32:19Z</time>
      </trkpt>
      <trkpt lat="43.72236" lon="6.96712">
        <ele>769.3</ele>
        <time>2025-09-27T07:32:22Z</time>
      </trkpt>
      <trkpt lat="43.72237" lon="6.96718">
        <ele>769.4</ele>
        <time>2025-09-27T07:32:24Z</time>
      </trkpt>
      <trkpt lat="43.72239" lon="6.96727">
        <ele>769.5</ele>
        <time>2025-09-27T07:32:27Z</time>
      </trkpt>
      <trkpt lat="43.7224" lon="6.96733">
        <ele>769.7</ele>
        <time>2025-09-27T07:32:29Z</time>
      </trkpt>
      <trkpt lat="43.72241" lon="6.96742">
        <ele>769.9</ele>
        <time>2025-09-27T07:32:32Z</time>
      </trkpt>
      <trkpt lat="43.72243" lon="6.96749">
        <ele>770.1</ele>
        <time>2025-09-27T07:32:35Z</time>
      </trkpt>
      <trkpt lat="43.72244" lon="6.96758">
        <ele>770.3</ele>
        <time>2025-09-27T07:32:38Z</time>
      </trkpt>
      <trkpt lat="43.72245" lon="6.96766">
        <ele>770.6</ele>
        <time>2025-09-27T07:32:41Z</time>
      </trkpt>
      <trkpt lat="43.72246" lon="6.96774">
        <ele>770.9</ele>
        <time>2025-09-27T07:32:44Z</time>
      </trkpt>
      <trkpt lat="43.72248" lon="6.96781">
        <ele>771.1</ele>
        <time>2025-09-27T07:32:47Z</time>
      </trkpt>
      <trkpt lat="43.72249" lon="6.96788">
        <ele>771.4</ele>
        <time>2025-09-27T07:32:51Z</time>
      </trkpt>
      <trkpt lat="43.72252" lon="6.96782">
        <ele>772</ele>
        <time>2025-09-27T07:33:03Z</time>
      </trkpt>
      <trkpt lat="43.72251" lon="6.96775">
        <ele>772.6</ele>
        <time>2025-09-27T07:33:10Z</time>
      </trkpt>
      <trkpt lat="43.72251" lon="6.96767">
        <ele>773.3</ele>
        <time>2025-09-27T07:33:15Z</time>
      </trkpt>
      <trkpt lat="43.72252" lon="6.96761">
        <ele>773.8</ele>
        <time>2025-09-27T07:33:18Z</time>
      </trkpt>
      <trkpt lat="43.72252" lon="6.96755">
        <ele>774.3</ele>
        <time>2025-09-27T07:33:21Z</time>
      </trkpt>
      <trkpt lat="43.72252" lon="6.96748">
        <ele>774.7</ele>
        <time>2025-09-27T07:33:24Z</time>
      </trkpt>
      <trkpt lat="43.72253" lon="6.96741">
        <ele>775.2</ele>
        <time>2025-09-27T07:33:27Z</time>
      </trkpt>
      <trkpt lat="43.72254" lon="6.96732">
        <ele>775.7</ele>
        <time>2025-09-27T07:33:30Z</time>
      </trkpt>
      <trkpt lat="43.72256" lon="6.96725">
        <ele>776.2</ele>
        <time>2025-09-27T07:33:33Z</time>
      </trkpt>
      <trkpt lat="43.72261" lon="6.96722">
        <ele>776.6</ele>
        <time>2025-09-27T07:33:36Z</time>
      </trkpt>
      <trkpt lat="43.72266" lon="6.96721">
        <ele>776.9</ele>
        <time>2025-09-27T07:33:39Z</time>
      </trkpt>
      <trkpt lat="43.72271" lon="6.9672">
        <ele>777.1</ele>
        <time>2025-09-27T07:33:42Z</time>
      </trkpt>
      <trkpt lat="43.72276" lon="6.96719">
        <ele>777.3</ele>
        <time>2025-09-27T07:33:45Z</time>
      </trkpt>
      <trkpt lat="43.72282" lon="6.96717">
        <ele>777.4</ele>
        <time>2025-09-27T07:33:48Z</time>
      </trkpt>
      <trkpt lat="43.72288" lon="6.96715">
        <ele>777.4</ele>
        <time>2025-09-27T07:33:51Z</time>
      </trkpt>
      <trkpt lat="43.72294" lon="6.96712">
        <ele>777.3</ele>
        <time>2025-09-27T07:33:54Z</time>
      </trkpt>
      <trkpt lat="43.723" lon="6.9671">
        <ele>777.3</ele>
        <time>2025-09-27T07:33:57Z</time>
      </trkpt>
      <trkpt lat="43.72305" lon="6.96708">
        <ele>777.2</ele>
        <time>2025-09-27T07:33:59Z</time>
      </trkpt>
      <trkpt lat="43.7231" lon="6.96708">
        <ele>777.3</ele>
        <time>2025-09-27T07:34:01Z</time>
      </trkpt>
      <trkpt lat="43.72315" lon="6.96708">
        <ele>777.3</ele>
        <time>2025-09-27T07:34:03Z</time>
      </trkpt>
      <trkpt lat="43.72321" lon="6.96708">
        <ele>777.4</ele>
        <time>2025-09-27T07:34:06Z</time>
      </trkpt>
      <trkpt lat="43.72327" lon="6.9671">
        <ele>777.6</ele>
        <time>2025-09-27T07:34:09Z</time>
      </trkpt>
      <trkpt lat="43.72333" lon="6.96711">
        <ele>777.8</ele>
        <time>2025-09-27T07:34:12Z</time>
      </trkpt>
      <trkpt lat="43.72339" lon="6.96712">
        <ele>778</ele>
        <time>2025-09-27T07:34:15Z</time>
      </trkpt>
      <trkpt lat="43.72344" lon="6.96712">
        <ele>778.1</ele>
        <time>2025-09-27T07:34:18Z</time>
      </trkpt>
      <trkpt lat="43.7235" lon="6.96712">
        <ele>778.3</ele>
        <time>2025-09-27T07:34:21Z</time>
      </trkpt>
      <trkpt lat="43.72355" lon="6.96709">
        <ele>778.3</ele>
        <time>2025-09-27T07:34:24Z</time>
      </trkpt>
      <trkpt lat="43.72358" lon="6.96703">
        <ele>778.4</ele>
        <time>2025-09-27T07:34:27Z</time>
      </trkpt>
      <trkpt lat="43.7236" lon="6.96695">
        <ele>778.4</ele>
        <time>2025-09-27T07:34:30Z</time>
      </trkpt>
      <trkpt lat="43.72361" lon="6.96688">
        <ele>778.5</ele>
        <time>2025-09-27T07:34:32Z</time>
      </trkpt>
      <trkpt lat="43.72364" lon="6.96683">
        <ele>778.7</ele>
        <time>2025-09-27T07:34:34Z</time>
      </trkpt>
      <trkpt lat="43.72367" lon="6.96678">
        <ele>778.9</ele>
        <time>2025-09-27T07:34:36Z</time>
      </trkpt>
      <trkpt lat="43.7237" lon="6.96673">
        <ele>779.2</ele>
        <time>2025-09-27T07:34:38Z</time>
      </trkpt>
      <trkpt lat="43.72372" lon="6.96667">
        <ele>779.4</ele>
        <time>2025-09-27T07:34:40Z</time>
      </trkpt>
      <trkpt lat="43.72374" lon="6.96661">
        <ele>779.7</ele>
        <time>2025-09-27T07:34:42Z</time>
      </trkpt>
      <trkpt lat="43.72375" lon="6.96654">
        <ele>780.1</ele>
        <time>2025-09-27T07:34:44Z</time>
      </trkpt>
      <trkpt lat="43.72377" lon="6.96645">
        <ele>780.7</ele>
        <time>2025-09-27T07:34:47Z</time>
      </trkpt>
      <trkpt lat="43.72377" lon="6.96637">
        <ele>781.4</ele>
        <time>2025-09-27T07:34:50Z</time>
      </trkpt>
      <trkpt lat="43.72378" lon="6.96629">
        <ele>782.2</ele>
        <time>2025-09-27T07:35:29Z</time>
      </trkpt>
      <trkpt lat="43.72379" lon="6.96623">
        <ele>783.1</ele>
        <time>2025-09-27T07:35:35Z</time>
      </trkpt>
      <trkpt lat="43.72381" lon="6.96616">
        <ele>784</ele>
        <time>2025-09-27T07:35:43Z</time>
      </trkpt>
      <trkpt lat="43.72385" lon="6.96613">
        <ele>784.9</ele>
        <time>2025-09-27T07:36:01Z</time>
      </trkpt>
      <trkpt lat="43.72389" lon="6.96609">
        <ele>785.8</ele>
        <time>2025-09-27T07:36:25Z</time>
      </trkpt>
      <trkpt lat="43.72394" lon="6.96608">
        <ele>786.7</ele>
        <time>2025-09-27T07:36:32Z</time>
      </trkpt>
      <trkpt lat="43.72399" lon="6.96607">
        <ele>787.5</ele>
        <time>2025-09-27T07:36:35Z</time>
      </trkpt>
      <trkpt lat="43.72404" lon="6.96607">
        <ele>788.2</ele>
        <time>2025-09-27T07:36:38Z</time>
      </trkpt>
      <trkpt lat="43.7241" lon="6.96608">
        <ele>789.2</ele>
        <time>2025-09-27T07:36:41Z</time>
      </trkpt>
      <trkpt lat="43.72415" lon="6.9661">
        <ele>790</ele>
        <time>2025-09-27T07:36:44Z</time>
      </trkpt>
      <trkpt lat="43.72419" lon="6.96614">
        <ele>790.7</ele>
        <time>2025-09-27T07:36:47Z</time>
      </trkpt>
      <trkpt lat="43.72423" lon="6.9662">
        <ele>791.4</ele>
        <time>2025-09-27T07:36:50Z</time>
      </trkpt>
      <trkpt lat="43.72425" lon="6.96627">
        <ele>792.2</ele>
        <time>2025-09-27T07:36:53Z</time>
      </trkpt>
      <trkpt lat="43.72428" lon="6.96634">
        <ele>792.9</ele>
        <time>2025-09-27T07:36:56Z</time>
      </trkpt>
      <trkpt lat="43.7243" lon="6.96641">
        <ele>793.7</ele>
        <time>2025-09-27T07:36:59Z</time>
      </trkpt>
      <trkpt lat="43.72431" lon="6.96649">
        <ele>794.4</ele>
        <time>2025-09-27T07:37:02Z</time>
      </trkpt>
      <trkpt lat="43.72431" lon="6.96655">
        <ele>795.1</ele>
        <time>2025-09-27T07:37:05Z</time>
      </trkpt>
      <trkpt lat="43.72432" lon="6.96662">
        <ele>795.8</ele>
        <time>2025-09-27T07:37:09Z</time>
      </trkpt>
      <trkpt lat="43.72434" lon="6.9667">
        <ele>796.5</ele>
        <time>2025-09-27T07:37:13Z</time>
      </trkpt>
      <trkpt lat="43.72438" lon="6.96676">
        <ele>797.3</ele>
        <time>2025-09-27T07:37:17Z</time>
      </trkpt>
      <trkpt lat="43.7244" lon="6.96681">
        <ele>797.9</ele>
        <time>2025-09-27T07:37:20Z</time>
      </trkpt>
      <trkpt lat="43.72445" lon="6.96686">
        <ele>798.6</ele>
        <time>2025-09-27T07:37:24Z</time>
      </trkpt>
      <trkpt lat="43.72449" lon="6.9669">
        <ele>799.2</ele>
        <time>2025-09-27T07:37:27Z</time>
      </trkpt>
      <trkpt lat="43.72453" lon="6.96693">
        <ele>799.7</ele>
        <time>2025-09-27T07:37:30Z</time>
      </trkpt>
      <trkpt lat="43.72458" lon="6.96697">
        <ele>800.6</ele>
        <time>2025-09-27T07:37:34Z</time>
      </trkpt>
      <trkpt lat="43.72462" lon="6.96703">
        <ele>801.5</ele>
        <time>2025-09-27T07:37:38Z</time>
      </trkpt>
      <trkpt lat="43.72465" lon="6.96708">
        <ele>802.5</ele>
        <time>2025-09-27T07:37:42Z</time>
      </trkpt>
      <trkpt lat="43.72468" lon="6.96713">
        <ele>803.4</ele>
        <time>2025-09-27T07:37:46Z</time>
      </trkpt>
      <trkpt lat="43.72473" lon="6.96715">
        <ele>804.4</ele>
        <time>2025-09-27T07:37:50Z</time>
      </trkpt>
      <trkpt lat="43.72478" lon="6.96717">
        <ele>805.4</ele>
        <time>2025-09-27T07:37:54Z</time>
      </trkpt>
      <trkpt lat="43.72481" lon="6.96721">
        <ele>806.3</ele>
        <time>2025-09-27T07:37:58Z</time>
      </trkpt>
      <trkpt lat="43.72482" lon="6.96727">
        <ele>807.1</ele>
        <time>2025-09-27T07:38:06Z</time>
      </trkpt>
      <trkpt lat="43.72484" lon="6.96734">
        <ele>807.9</ele>
        <time>2025-09-27T07:38:16Z</time>
      </trkpt>
      <trkpt lat="43.72484" lon="6.96741">
        <ele>808.6</ele>
        <time>2025-09-27T07:38:20Z</time>
      </trkpt>
      <trkpt lat="43.72486" lon="6.96747">
        <ele>809.1</ele>
        <time>2025-09-27T07:38:23Z</time>
      </trkpt>
      <trkpt lat="43.72488" lon="6.96754">
        <ele>809.9</ele>
        <time>2025-09-27T07:38:27Z</time>
      </trkpt>
      <trkpt lat="43.72491" lon="6.96761">
        <ele>810.6</ele>
        <time>2025-09-27T07:38:31Z</time>
      </trkpt>
      <trkpt lat="43.72494" lon="6.96766">
        <ele>811.4</ele>
        <time>2025-09-27T07:38:35Z</time>
      </trkpt>
      <trkpt lat="43.72498" lon="6.9677">
        <ele>812.1</ele>
        <time>2025-09-27T07:38:39Z</time>
      </trkpt>
      <trkpt lat="43.72501" lon="6.96765">
        <ele>812.9</ele>
        <time>2025-09-27T07:38:44Z</time>
      </trkpt>
      <trkpt lat="43.725" lon="6.96758">
        <ele>813.7</ele>
        <time>2025-09-27T07:38:48Z</time>
      </trkpt>
      <trkpt lat="43.72501" lon="6.96751">
        <ele>814.4</ele>
        <time>2025-09-27T07:38:52Z</time>
      </trkpt>
      <trkpt lat="43.72506" lon="6.96752">
        <ele>815.1</ele>
        <time>2025-09-27T07:38:56Z</time>
      </trkpt>
      <trkpt lat="43.7251" lon="6.96756">
        <ele>815.8</ele>
        <time>2025-09-27T07:39:01Z</time>
      </trkpt>
      <trkpt lat="43.72514" lon="6.96759">
        <ele>816.5</ele>
        <time>2025-09-27T07:39:06Z</time>
      </trkpt>
      <trkpt lat="43.72519" lon="6.96763">
        <ele>817.2</ele>
        <time>2025-09-27T07:39:10Z</time>
      </trkpt>
      <trkpt lat="43.72523" lon="6.96767">
        <ele>817.9</ele>
        <time>2025-09-27T07:39:13Z</time>
      </trkpt>
      <trkpt lat="43.72528" lon="6.9677">
        <ele>818.7</ele>
        <time>2025-09-27T07:39:17Z</time>
      </trkpt>
      <trkpt lat="43.72534" lon="6.96774">
        <ele>819.6</ele>
        <time>2025-09-27T07:39:21Z</time>
      </trkpt>
      <trkpt lat="43.72538" lon="6.96778">
        <ele>820.5</ele>
        <time>2025-09-27T07:39:25Z</time>
      </trkpt>
      <trkpt lat="43.72543" lon="6.96782">
        <ele>821.2</ele>
        <time>2025-09-27T07:39:29Z</time>
      </trkpt>
      <trkpt lat="43.72547" lon="6.96786">
        <ele>822</ele>
        <time>2025-09-27T07:39:33Z</time>
      </trkpt>
      <trkpt lat="43.72552" lon="6.96789">
        <ele>822.8</ele>
        <time>2025-09-27T07:39:37Z</time>
      </trkpt>
      <trkpt lat="43.72557" lon="6.96792">
        <ele>823.6</ele>
        <time>2025-09-27T07:39:41Z</time>
      </trkpt>
      <trkpt lat="43.72562" lon="6.96796">
        <ele>824.5</ele>
        <time>2025-09-27T07:39:45Z</time>
      </trkpt>
      <trkpt lat="43.72567" lon="6.96799">
        <ele>825.2</ele>
        <time>2025-09-27T07:39:49Z</time>
      </trkpt>
      <trkpt lat="43.72571" lon="6.96804">
        <ele>825.8</ele>
        <time>2025-09-27T07:39:53Z</time>
      </trkpt>
      <trkpt lat="43.72575" lon="6.96808">
        <ele>826.5</ele>
        <time>2025-09-27T07:39:57Z</time>
      </trkpt>
      <trkpt lat="43.72579" lon="6.96814">
        <ele>827.1</ele>
        <time>2025-09-27T07:40:01Z</time>
      </trkpt>
      <trkpt lat="43.72582" lon="6.9682">
        <ele>827.7</ele>
        <time>2025-09-27T07:40:05Z</time>
      </trkpt>
      <trkpt lat="43.72586" lon="6.96825">
        <ele>828.3</ele>
        <time>2025-09-27T07:40:09Z</time>
      </trkpt>
      <trkpt lat="43.72591" lon="6.96829">
        <ele>829</ele>
        <time>2025-09-27T07:40:13Z</time>
      </trkpt>
      <trkpt lat="43.72595" lon="6.96833">
        <ele>829.6</ele>
        <time>2025-09-27T07:40:16Z</time>
      </trkpt>
      <trkpt lat="43.726" lon="6.96838">
        <ele>830.3</ele>
        <time>2025-09-27T07:40:20Z</time>
      </trkpt>
      <trkpt lat="43.72604" lon="6.96841">
        <ele>830.8</ele>
        <time>2025-09-27T07:40:23Z</time>
      </trkpt>
      <trkpt lat="43.72609" lon="6.96844">
        <ele>831.4</ele>
        <time>2025-09-27T07:40:27Z</time>
      </trkpt>
      <trkpt lat="43.72615" lon="6.96847">
        <ele>832.1</ele>
        <time>2025-09-27T07:40:31Z</time>
      </trkpt>
      <trkpt lat="43.72619" lon="6.96851">
        <ele>832.8</ele>
        <time>2025-09-27T07:40:35Z</time>
      </trkpt>
      <trkpt lat="43.72624" lon="6.96856">
        <ele>833.6</ele>
        <time>2025-09-27T07:40:39Z</time>
      </trkpt>
      <trkpt lat="43.72627" lon="6.9686">
        <ele>834.3</ele>
        <time>2025-09-27T07:40:43Z</time>
      </trkpt>
      <trkpt lat="43.72632" lon="6.96863">
        <ele>835</ele>
        <time>2025-09-27T07:40:47Z</time>
      </trkpt>
      <trkpt lat="43.72637" lon="6.96862">
        <ele>835.7</ele>
        <time>2025-09-27T07:40:51Z</time>
      </trkpt>
      <trkpt lat="43.72641" lon="6.96858">
        <ele>836.4</ele>
        <time>2025-09-27T07:40:55Z</time>
      </trkpt>
      <trkpt lat="43.72644" lon="6.96853">
        <ele>837</ele>
        <time>2025-09-27T07:40:59Z</time>
      </trkpt>
      <trkpt lat="43.72649" lon="6.9685">
        <ele>837.6</ele>
        <time>2025-09-27T07:41:03Z</time>
      </trkpt>
      <trkpt lat="43.72655" lon="6.96849">
        <ele>838.1</ele>
        <time>2025-09-27T07:41:07Z</time>
      </trkpt>
      <trkpt lat="43.72659" lon="6.96847">
        <ele>838.4</ele>
        <time>2025-09-27T07:41:10Z</time>
      </trkpt>
      <trkpt lat="43.72663" lon="6.96844">
        <ele>838.7</ele>
        <time>2025-09-27T07:41:13Z</time>
      </trkpt>
      <trkpt lat="43.72667" lon="6.96841">
        <ele>839</ele>
        <time>2025-09-27T07:41:16Z</time>
      </trkpt>
      <trkpt lat="43.72672" lon="6.96838">
        <ele>839.2</ele>
        <time>2025-09-27T07:41:19Z</time>
      </trkpt>
      <trkpt lat="43.72676" lon="6.96837">
        <ele>839.5</ele>
        <time>2025-09-27T07:41:22Z</time>
      </trkpt>
      <trkpt lat="43.72681" lon="6.96834">
        <ele>839.8</ele>
        <time>2025-09-27T07:41:25Z</time>
      </trkpt>
      <trkpt lat="43.72686" lon="6.96832">
        <ele>840</ele>
        <time>2025-09-27T07:41:28Z</time>
      </trkpt>
      <trkpt lat="43.7269" lon="6.96828">
        <ele>840.2</ele>
        <time>2025-09-27T07:41:31Z</time>
      </trkpt>
      <trkpt lat="43.72695" lon="6.96826">
        <ele>840.3</ele>
        <time>2025-09-27T07:41:34Z</time>
      </trkpt>
      <trkpt lat="43.72698" lon="6.96831">
        <ele>840.4</ele>
        <time>2025-09-27T07:42:36Z</time>
      </trkpt>
      <trkpt lat="43.72699" lon="6.96825">
        <ele>840.4</ele>
        <time>2025-09-27T07:43:46Z</time>
      </trkpt>
      <trkpt lat="43.72699" lon="6.96817">
        <ele>840.5</ele>
        <time>2025-09-27T07:44:31Z</time>
      </trkpt>
      <trkpt lat="43.727" lon="6.96811">
        <ele>840.7</ele>
        <time>2025-09-27T07:44:35Z</time>
      </trkpt>
      <trkpt lat="43.72701" lon="6.96804">
        <ele>841</ele>
        <time>2025-09-27T07:44:38Z</time>
      </trkpt>
      <trkpt lat="43.72703" lon="6.96797">
        <ele>841.4</ele>
        <time>2025-09-27T07:44:41Z</time>
      </trkpt>
      <trkpt lat="43.72705" lon="6.9679">
        <ele>841.7</ele>
        <time>2025-09-27T07:44:44Z</time>
      </trkpt>
      <trkpt lat="43.72707" lon="6.96784">
        <ele>842</ele>
        <time>2025-09-27T07:44:47Z</time>
      </trkpt>
      <trkpt lat="43.72709" lon="6.96778">
        <ele>842.3</ele>
        <time>2025-09-27T07:44:50Z</time>
      </trkpt>
      <trkpt lat="43.7271" lon="6.96771">
        <ele>842.7</ele>
        <time>2025-09-27T07:44:53Z</time>
      </trkpt>
      <trkpt lat="43.72712" lon="6.96764">
        <ele>843</ele>
        <time>2025-09-27T07:44:56Z</time>
      </trkpt>
      <trkpt lat="43.72713" lon="6.96757">
        <ele>843.3</ele>
        <time>2025-09-27T07:44:59Z</time>
      </trkpt>
      <trkpt lat="43.72715" lon="6.96749">
        <ele>843.7</ele>
        <time>2025-09-27T07:45:02Z</time>
      </trkpt>
      <trkpt lat="43.72716" lon="6.96741">
        <ele>844.1</ele>
        <time>2025-09-27T07:45:05Z</time>
      </trkpt>
      <trkpt lat="43.72718" lon="6.96733">
        <ele>844.5</ele>
        <time>2025-09-27T07:45:08Z</time>
      </trkpt>
      <trkpt lat="43.72719" lon="6.96725">
        <ele>844.9</ele>
        <time>2025-09-27T07:45:11Z</time>
      </trkpt>
      <trkpt lat="43.7272" lon="6.96717">
        <ele>845.3</ele>
        <time>2025-09-27T07:45:14Z</time>
      </trkpt>
      <trkpt lat="43.72721" lon="6.96709">
        <ele>845.7</ele>
        <time>2025-09-27T07:45:17Z</time>
      </trkpt>
      <trkpt lat="43.72723" lon="6.96701">
        <ele>846.2</ele>
        <time>2025-09-27T07:45:20Z</time>
      </trkpt>
      <trkpt lat="43.72724" lon="6.96693">
        <ele>846.6</ele>
        <time>2025-09-27T07:45:23Z</time>
      </trkpt>
      <trkpt lat="43.72725" lon="6.96685">
        <ele>847</ele>
        <time>2025-09-27T07:45:26Z</time>
      </trkpt>
      <trkpt lat="43.72727" lon="6.96677">
        <ele>847.4</ele>
        <time>2025-09-27T07:45:29Z</time>
      </trkpt>
      <trkpt lat="43.72728" lon="6.96668">
        <ele>847.8</ele>
        <time>2025-09-27T07:45:32Z</time>
      </trkpt>
      <trkpt lat="43.72729" lon="6.9666">
        <ele>848.2</ele>
        <time>2025-09-27T07:45:35Z</time>
      </trkpt>
      <trkpt lat="43.7273" lon="6.96652">
        <ele>848.7</ele>
        <time>2025-09-27T07:45:38Z</time>
      </trkpt>
      <trkpt lat="43.72731" lon="6.96643">
        <ele>849.1</ele>
        <time>2025-09-27T07:45:41Z</time>
      </trkpt>
      <trkpt lat="43.72732" lon="6.96634">
        <ele>849.5</ele>
        <time>2025-09-27T07:45:44Z</time>
      </trkpt>
      <trkpt lat="43.72733" lon="6.96626">
        <ele>849.9</ele>
        <time>2025-09-27T07:45:47Z</time>
      </trkpt>
      <trkpt lat="43.72733" lon="6.96618">
        <ele>850.3</ele>
        <time>2025-09-27T07:45:50Z</time>
      </trkpt>
      <trkpt lat="43.72734" lon="6.9661">
        <ele>850.7</ele>
        <time>2025-09-27T07:45:53Z</time>
      </trkpt>
      <trkpt lat="43.72735" lon="6.96602">
        <ele>851.1</ele>
        <time>2025-09-27T07:45:56Z</time>
      </trkpt>
      <trkpt lat="43.72735" lon="6.96595">
        <ele>851.5</ele>
        <time>2025-09-27T07:45:59Z</time>
      </trkpt>
      <trkpt lat="43.72736" lon="6.96587">
        <ele>851.9</ele>
        <time>2025-09-27T07:46:02Z</time>
      </trkpt>
      <trkpt lat="43.72737" lon="6.96579">
        <ele>852.3</ele>
        <time>2025-09-27T07:46:05Z</time>
      </trkpt>
      <trkpt lat="43.72737" lon="6.96571">
        <ele>852.7</ele>
        <time>2025-09-27T07:46:08Z</time>
      </trkpt>
      <trkpt lat="43.72737" lon="6.96563">
        <ele>853.1</ele>
        <time>2025-09-27T07:46:11Z</time>
      </trkpt>
      <trkpt lat="43.72737" lon="6.96555">
        <ele>853.5</ele>
        <time>2025-09-27T07:46:14Z</time>
      </trkpt>
      <trkpt lat="43.72738" lon="6.96547">
        <ele>853.8</ele>
        <time>2025-09-27T07:46:17Z</time>
      </trkpt>
      <trkpt lat="43.72738" lon="6.96539">
        <ele>854.2</ele>
        <time>2025-09-27T07:46:20Z</time>
      </trkpt>
      <trkpt lat="43.72737" lon="6.96532">
        <ele>854.6</ele>
        <time>2025-09-27T07:46:23Z</time>
      </trkpt>
      <trkpt lat="43.72737" lon="6.96524">
        <ele>855</ele>
        <time>2025-09-27T07:46:26Z</time>
      </trkpt>
      <trkpt lat="43.72737" lon="6.96517">
        <ele>855.3</ele>
        <time>2025-09-27T07:46:29Z</time>
      </trkpt>
      <trkpt lat="43.72736" lon="6.96508">
        <ele>855.8</ele>
        <time>2025-09-27T07:46:32Z</time>
      </trkpt>
      <trkpt lat="43.72736" lon="6.965">
        <ele>856.2</ele>
        <time>2025-09-27T07:46:35Z</time>
      </trkpt>
      <trkpt lat="43.72736" lon="6.96491">
        <ele>856.6</ele>
        <time>2025-09-27T07:46:38Z</time>
      </trkpt>
      <trkpt lat="43.72736" lon="6.96483">
        <ele>857</ele>
        <time>2025-09-27T07:46:41Z</time>
      </trkpt>
      <trkpt lat="43.72736" lon="6.96474">
        <ele>857.4</ele>
        <time>2025-09-27T07:46:44Z</time>
      </trkpt>
      <trkpt lat="43.72736" lon="6.96465">
        <ele>857.8</ele>
        <time>2025-09-27T07:46:47Z</time>
      </trkpt>
      <trkpt lat="43.72736" lon="6.96457">
        <ele>858.2</ele>
        <time>2025-09-27T07:46:50Z</time>
      </trkpt>
      <trkpt lat="43.72735" lon="6.96449">
        <ele>858.6</ele>
        <time>2025-09-27T07:46:53Z</time>
      </trkpt>
      <trkpt lat="43.72735" lon="6.9644">
        <ele>859</ele>
        <time>2025-09-27T07:46:56Z</time>
      </trkpt>
      <trkpt lat="43.72734" lon="6.96432">
        <ele>859.4</ele>
        <time>2025-09-27T07:46:59Z</time>
      </trkpt>
      <trkpt lat="43.72734" lon="6.96423">
        <ele>859.7</ele>
        <time>2025-09-27T07:47:02Z</time>
      </trkpt>
      <trkpt lat="43.72734" lon="6.96414">
        <ele>860.1</ele>
        <time>2025-09-27T07:47:05Z</time>
      </trkpt>
      <trkpt lat="43.72734" lon="6.96406">
        <ele>860.5</ele>
        <time>2025-09-27T07:47:08Z</time>
      </trkpt>
      <trkpt lat="43.72734" lon="6.96397">
        <ele>861</ele>
        <time>2025-09-27T07:47:11Z</time>
      </trkpt>
      <trkpt lat="43.72734" lon="6.96388">
        <ele>861.4</ele>
        <time>2025-09-27T07:47:14Z</time>
      </trkpt>
      <trkpt lat="43.72734" lon="6.96379">
        <ele>861.8</ele>
        <time>2025-09-27T07:47:17Z</time>
      </trkpt>
      <trkpt lat="43.72734" lon="6.9637">
        <ele>862.3</ele>
        <time>2025-09-27T07:47:20Z</time>
      </trkpt>
      <trkpt lat="43.72734" lon="6.96364">
        <ele>862.6</ele>
        <time>2025-09-27T07:47:22Z</time>
      </trkpt>
      <trkpt lat="43.72733" lon="6.96354">
        <ele>863</ele>
        <time>2025-09-27T07:47:25Z</time>
      </trkpt>
      <trkpt lat="43.72733" lon="6.96348">
        <ele>863.3</ele>
        <time>2025-09-27T07:47:27Z</time>
      </trkpt>
      <trkpt lat="43.72733" lon="6.96342">
        <ele>863.6</ele>
        <time>2025-09-27T07:47:29Z</time>
      </trkpt>
      <trkpt lat="43.72733" lon="6.96335">
        <ele>863.9</ele>
        <time>2025-09-27T07:47:31Z</time>
      </trkpt>
      <trkpt lat="43.72732" lon="6.96326">
        <ele>864.4</ele>
        <time>2025-09-27T07:47:34Z</time>
      </trkpt>
      <trkpt lat="43.72732" lon="6.96317">
        <ele>864.8</ele>
        <time>2025-09-27T07:47:37Z</time>
      </trkpt>
      <trkpt lat="43.72732" lon="6.96311">
        <ele>865.1</ele>
        <time>2025-09-27T07:47:39Z</time>
      </trkpt>
      <trkpt lat="43.72731" lon="6.96301">
        <ele>865.5</ele>
        <time>2025-09-27T07:47:42Z</time>
      </trkpt>
      <trkpt lat="43.72732" lon="6.96295">
        <ele>865.9</ele>
        <time>2025-09-27T07:47:44Z</time>
      </trkpt>
      <trkpt lat="43.72731" lon="6.96289">
        <ele>866.2</ele>
        <time>2025-09-27T07:47:46Z</time>
      </trkpt>
      <trkpt lat="43.72731" lon="6.96282">
        <ele>866.5</ele>
        <time>2025-09-27T07:47:48Z</time>
      </trkpt>
      <trkpt lat="43.72731" lon="6.96276">
        <ele>866.8</ele>
        <time>2025-09-27T07:47:50Z</time>
      </trkpt>
      <trkpt lat="43.72731" lon="6.9627">
        <ele>867.1</ele>
        <time>2025-09-27T07:47:52Z</time>
      </trkpt>
      <trkpt lat="43.72732" lon="6.96263">
        <ele>867.4</ele>
        <time>2025-09-27T07:47:54Z</time>
      </trkpt>
      <trkpt lat="43.72733" lon="6.96257">
        <ele>867.7</ele>
        <time>2025-09-27T07:47:56Z</time>
      </trkpt>
      <trkpt lat="43.72735" lon="6.96248">
        <ele>868.1</ele>
        <time>2025-09-27T07:47:59Z</time>
      </trkpt>
      <trkpt lat="43.72736" lon="6.96243">
        <ele>868.4</ele>
        <time>2025-09-27T07:48:01Z</time>
      </trkpt>
      <trkpt lat="43.72738" lon="6.96234">
        <ele>868.8</ele>
        <time>2025-09-27T07:48:04Z</time>
      </trkpt>
      <trkpt lat="43.72741" lon="6.96226">
        <ele>869.3</ele>
        <time>2025-09-27T07:48:07Z</time>
      </trkpt>
      <trkpt lat="43.72743" lon="6.96218">
        <ele>869.7</ele>
        <time>2025-09-27T07:48:10Z</time>
      </trkpt>
      <trkpt lat="43.72746" lon="6.96211">
        <ele>870.1</ele>
        <time>2025-09-27T07:48:13Z</time>
      </trkpt>
      <trkpt lat="43.72748" lon="6.96205">
        <ele>870.4</ele>
        <time>2025-09-27T07:48:15Z</time>
      </trkpt>
      <trkpt lat="43.72751" lon="6.96197">
        <ele>870.9</ele>
        <time>2025-09-27T07:48:18Z</time>
      </trkpt>
      <trkpt lat="43.72753" lon="6.96191">
        <ele>871.2</ele>
        <time>2025-09-27T07:48:20Z</time>
      </trkpt>
      <trkpt lat="43.72756" lon="6.96186">
        <ele>871.5</ele>
        <time>2025-09-27T07:48:22Z</time>
      </trkpt>
      <trkpt lat="43.72759" lon="6.96179">
        <ele>871.9</ele>
        <time>2025-09-27T07:48:25Z</time>
      </trkpt>
      <trkpt lat="43.72763" lon="6.96171">
        <ele>872.4</ele>
        <time>2025-09-27T07:48:28Z</time>
      </trkpt>
      <trkpt lat="43.72766" lon="6.96164">
        <ele>872.8</ele>
        <time>2025-09-27T07:48:31Z</time>
      </trkpt>
      <trkpt lat="43.72771" lon="6.96157">
        <ele>873.3</ele>
        <time>2025-09-27T07:48:34Z</time>
      </trkpt>
      <trkpt lat="43.72775" lon="6.96151">
        <ele>873.7</ele>
        <time>2025-09-27T07:48:37Z</time>
      </trkpt>
      <trkpt lat="43.72779" lon="6.96144">
        <ele>874.2</ele>
        <time>2025-09-27T07:48:40Z</time>
      </trkpt>
      <trkpt lat="43.72782" lon="6.9614">
        <ele>874.5</ele>
        <time>2025-09-27T07:48:42Z</time>
      </trkpt>
      <trkpt lat="43.72787" lon="6.96133">
        <ele>875</ele>
        <time>2025-09-27T07:48:45Z</time>
      </trkpt>
      <trkpt lat="43.72792" lon="6.96127">
        <ele>875.5</ele>
        <time>2025-09-27T07:48:48Z</time>
      </trkpt>
      <trkpt lat="43.72797" lon="6.96122">
        <ele>876</ele>
        <time>2025-09-27T07:48:51Z</time>
      </trkpt>
      <trkpt lat="43.72802" lon="6.96116">
        <ele>876.5</ele>
        <time>2025-09-27T07:48:54Z</time>
      </trkpt>
      <trkpt lat="43.72808" lon="6.96111">
        <ele>876.9</ele>
        <time>2025-09-27T07:48:57Z</time>
      </trkpt>
      <trkpt lat="43.72813" lon="6.96106">
        <ele>877.4</ele>
        <time>2025-09-27T07:49:00Z</time>
      </trkpt>
      <trkpt lat="43.72819" lon="6.96102">
        <ele>877.9</ele>
        <time>2025-09-27T07:49:03Z</time>
      </trkpt>
      <trkpt lat="43.72824" lon="6.96098">
        <ele>878.3</ele>
        <time>2025-09-27T07:49:06Z</time>
      </trkpt>
      <trkpt lat="43.7283" lon="6.96095">
        <ele>878.8</ele>
        <time>2025-09-27T07:49:09Z</time>
      </trkpt>
      <trkpt lat="43.72836" lon="6.96091">
        <ele>879.2</ele>
        <time>2025-09-27T07:49:12Z</time>
      </trkpt>
      <trkpt lat="43.72842" lon="6.96088">
        <ele>879.6</ele>
        <time>2025-09-27T07:49:15Z</time>
      </trkpt>
      <trkpt lat="43.72848" lon="6.96084">
        <ele>880</ele>
        <time>2025-09-27T07:49:18Z</time>
      </trkpt>
      <trkpt lat="43.72852" lon="6.96081">
        <ele>880.3</ele>
        <time>2025-09-27T07:49:20Z</time>
      </trkpt>
      <trkpt lat="43.72858" lon="6.96077">
        <ele>880.8</ele>
        <time>2025-09-27T07:49:23Z</time>
      </trkpt>
      <trkpt lat="43.72863" lon="6.96074">
        <ele>881.1</ele>
        <time>2025-09-27T07:49:25Z</time>
      </trkpt>
      <trkpt lat="43.72867" lon="6.96072">
        <ele>881.4</ele>
        <time>2025-09-27T07:49:27Z</time>
      </trkpt>
      <trkpt lat="43.72871" lon="6.96069">
        <ele>881.7</ele>
        <time>2025-09-27T07:49:29Z</time>
      </trkpt>
      <trkpt lat="43.72876" lon="6.96067">
        <ele>882</ele>
        <time>2025-09-27T07:49:31Z</time>
      </trkpt>
      <trkpt lat="43.7288" lon="6.96065">
        <ele>882.3</ele>
        <time>2025-09-27T07:49:33Z</time>
      </trkpt>
      <trkpt lat="43.72884" lon="6.96063">
        <ele>882.6</ele>
        <time>2025-09-27T07:49:35Z</time>
      </trkpt>
      <trkpt lat="43.72891" lon="6.96059">
        <ele>883</ele>
        <time>2025-09-27T07:49:38Z</time>
      </trkpt>
      <trkpt lat="43.72897" lon="6.96056">
        <ele>883.4</ele>
        <time>2025-09-27T07:49:41Z</time>
      </trkpt>
      <trkpt lat="43.72901" lon="6.96053">
        <ele>883.7</ele>
        <time>2025-09-27T07:49:43Z</time>
      </trkpt>
      <trkpt lat="43.72905" lon="6.9605">
        <ele>884</ele>
        <time>2025-09-27T07:49:45Z</time>
      </trkpt>
      <trkpt lat="43.72911" lon="6.96046">
        <ele>884.4</ele>
        <time>2025-09-27T07:49:48Z</time>
      </trkpt>
      <trkpt lat="43.72916" lon="6.96044">
        <ele>884.7</ele>
        <time>2025-09-27T07:49:50Z</time>
      </trkpt>
      <trkpt lat="43.7292" lon="6.96041">
        <ele>885</ele>
        <time>2025-09-27T07:49:52Z</time>
      </trkpt>
      <trkpt lat="43.72926" lon="6.96038">
        <ele>885.4</ele>
        <time>2025-09-27T07:49:55Z</time>
      </trkpt>
      <trkpt lat="43.72932" lon="6.96035">
        <ele>885.8</ele>
        <time>2025-09-27T07:49:58Z</time>
      </trkpt>
      <trkpt lat="43.72936" lon="6.96032">
        <ele>886.1</ele>
        <time>2025-09-27T07:50:00Z</time>
      </trkpt>
      <trkpt lat="43.7294" lon="6.96029">
        <ele>886.4</ele>
        <time>2025-09-27T07:50:02Z</time>
      </trkpt>
      <trkpt lat="43.72947" lon="6.96026">
        <ele>886.8</ele>
        <time>2025-09-27T07:50:05Z</time>
      </trkpt>
      <trkpt lat="43.72951" lon="6.96024">
        <ele>887.1</ele>
        <time>2025-09-27T07:50:07Z</time>
      </trkpt>
      <trkpt lat="43.72955" lon="6.96021">
        <ele>887.4</ele>
        <time>2025-09-27T07:50:09Z</time>
      </trkpt>
      <trkpt lat="43.72961" lon="6.96018">
        <ele>887.8</ele>
        <time>2025-09-27T07:50:12Z</time>
      </trkpt>
      <trkpt lat="43.72965" lon="6.96015">
        <ele>888.1</ele>
        <time>2025-09-27T07:50:14Z</time>
      </trkpt>
      <trkpt lat="43.7297" lon="6.96012">
        <ele>888.5</ele>
        <time>2025-09-27T07:50:16Z</time>
      </trkpt>
      <trkpt lat="43.72974" lon="6.9601">
        <ele>888.8</ele>
        <time>2025-09-27T07:50:18Z</time>
      </trkpt>
      <trkpt lat="43.7298" lon="6.96006">
        <ele>889.3</ele>
        <time>2025-09-27T07:50:21Z</time>
      </trkpt>
      <trkpt lat="43.72984" lon="6.96004">
        <ele>889.6</ele>
        <time>2025-09-27T07:50:23Z</time>
      </trkpt>
      <trkpt lat="43.72988" lon="6.96001">
        <ele>889.9</ele>
        <time>2025-09-27T07:50:25Z</time>
      </trkpt>
      <trkpt lat="43.72994" lon="6.95997">
        <ele>890.4</ele>
        <time>2025-09-27T07:50:28Z</time>
      </trkpt>
      <trkpt lat="43.73001" lon="6.95993">
        <ele>890.9</ele>
        <time>2025-09-27T07:50:31Z</time>
      </trkpt>
      <trkpt lat="43.73005" lon="6.95991">
        <ele>891.2</ele>
        <time>2025-09-27T07:50:33Z</time>
      </trkpt>
      <trkpt lat="43.7301" lon="6.9599">
        <ele>891.5</ele>
        <time>2025-09-27T07:50:35Z</time>
      </trkpt>
      <trkpt lat="43.73014" lon="6.95988">
        <ele>891.9</ele>
        <time>2025-09-27T07:50:37Z</time>
      </trkpt>
      <trkpt lat="43.73019" lon="6.95987">
        <ele>892.2</ele>
        <time>2025-09-27T07:50:39Z</time>
      </trkpt>
      <trkpt lat="43.73023" lon="6.95986">
        <ele>892.6</ele>
        <time>2025-09-27T07:50:41Z</time>
      </trkpt>
      <trkpt lat="43.7303" lon="6.95984">
        <ele>893.1</ele>
        <time>2025-09-27T07:50:44Z</time>
      </trkpt>
      <trkpt lat="43.73037" lon="6.95984">
        <ele>893.5</ele>
        <time>2025-09-27T07:50:47Z</time>
      </trkpt>
      <trkpt lat="43.73041" lon="6.95982">
        <ele>893.9</ele>
        <time>2025-09-27T07:50:49Z</time>
      </trkpt>
      <trkpt lat="43.73047" lon="6.95981">
        <ele>894.3</ele>
        <time>2025-09-27T07:50:52Z</time>
      </trkpt>
      <trkpt lat="43.73054" lon="6.95979">
        <ele>894.8</ele>
        <time>2025-09-27T07:50:55Z</time>
      </trkpt>
      <trkpt lat="43.7306" lon="6.95977">
        <ele>895.3</ele>
        <time>2025-09-27T07:50:58Z</time>
      </trkpt>
      <trkpt lat="43.73066" lon="6.95975">
        <ele>895.7</ele>
        <time>2025-09-27T07:51:01Z</time>
      </trkpt>
      <trkpt lat="43.73072" lon="6.95972">
        <ele>896.2</ele>
        <time>2025-09-27T07:51:04Z</time>
      </trkpt>
      <trkpt lat="43.73079" lon="6.95968">
        <ele>896.7</ele>
        <time>2025-09-27T07:51:07Z</time>
      </trkpt>
      <trkpt lat="43.73085" lon="6.95965">
        <ele>897.2</ele>
        <time>2025-09-27T07:51:10Z</time>
      </trkpt>
      <trkpt lat="43.7309" lon="6.95961">
        <ele>897.6</ele>
        <time>2025-09-27T07:51:13Z</time>
      </trkpt>
      <trkpt lat="43.73096" lon="6.95957">
        <ele>898</ele>
        <time>2025-09-27T07:51:16Z</time>
      </trkpt>
      <trkpt lat="43.73101" lon="6.95954">
        <ele>898.4</ele>
        <time>2025-09-27T07:51:19Z</time>
      </trkpt>
      <trkpt lat="43.73106" lon="6.9595">
        <ele>898.8</ele>
        <time>2025-09-27T07:51:22Z</time>
      </trkpt>
      <trkpt lat="43.73112" lon="6.95946">
        <ele>899.2</ele>
        <time>2025-09-27T07:51:25Z</time>
      </trkpt>
      <trkpt lat="43.73117" lon="6.95942">
        <ele>899.6</ele>
        <time>2025-09-27T07:51:28Z</time>
      </trkpt>
      <trkpt lat="43.73123" lon="6.95938">
        <ele>900.1</ele>
        <time>2025-09-27T07:51:31Z</time>
      </trkpt>
      <trkpt lat="43.73129" lon="6.95934">
        <ele>900.5</ele>
        <time>2025-09-27T07:51:34Z</time>
      </trkpt>
      <trkpt lat="43.73134" lon="6.95931">
        <ele>900.9</ele>
        <time>2025-09-27T07:51:37Z</time>
      </trkpt>
      <trkpt lat="43.7314" lon="6.95927">
        <ele>901.3</ele>
        <time>2025-09-27T07:51:40Z</time>
      </trkpt>
      <trkpt lat="43.73145" lon="6.95924">
        <ele>901.7</ele>
        <time>2025-09-27T07:51:43Z</time>
      </trkpt>
      <trkpt lat="43.73151" lon="6.95919">
        <ele>902.1</ele>
        <time>2025-09-27T07:51:46Z</time>
      </trkpt>
      <trkpt lat="43.73157" lon="6.95916">
        <ele>902.6</ele>
        <time>2025-09-27T07:51:49Z</time>
      </trkpt>
      <trkpt lat="43.73161" lon="6.95914">
        <ele>902.9</ele>
        <time>2025-09-27T07:51:51Z</time>
      </trkpt>
      <trkpt lat="43.73166" lon="6.9591">
        <ele>903.2</ele>
        <time>2025-09-27T07:51:53Z</time>
      </trkpt>
      <trkpt lat="43.7317" lon="6.95907">
        <ele>903.6</ele>
        <time>2025-09-27T07:51:55Z</time>
      </trkpt>
      <trkpt lat="43.73175" lon="6.95903">
        <ele>904</ele>
        <time>2025-09-27T07:51:58Z</time>
      </trkpt>
      <trkpt lat="43.73179" lon="6.959">
        <ele>904.3</ele>
        <time>2025-09-27T07:52:00Z</time>
      </trkpt>
      <trkpt lat="43.73185" lon="6.95895">
        <ele>904.8</ele>
        <time>2025-09-27T07:52:03Z</time>
      </trkpt>
      <trkpt lat="43.73189" lon="6.95892">
        <ele>905.1</ele>
        <time>2025-09-27T07:52:05Z</time>
      </trkpt>
      <trkpt lat="43.73193" lon="6.95888">
        <ele>905.4</ele>
        <time>2025-09-27T07:52:07Z</time>
      </trkpt>
      <trkpt lat="43.73196" lon="6.95884">
        <ele>905.7</ele>
        <time>2025-09-27T07:52:09Z</time>
      </trkpt>
      <trkpt lat="43.73202" lon="6.95879">
        <ele>906.1</ele>
        <time>2025-09-27T07:52:12Z</time>
      </trkpt>
      <trkpt lat="43.73207" lon="6.95873">
        <ele>906.6</ele>
        <time>2025-09-27T07:52:15Z</time>
      </trkpt>
      <trkpt lat="43.73212" lon="6.95867">
        <ele>907</ele>
        <time>2025-09-27T07:52:18Z</time>
      </trkpt>
      <trkpt lat="43.73217" lon="6.95861">
        <ele>907.5</ele>
        <time>2025-09-27T07:52:21Z</time>
      </trkpt>
      <trkpt lat="43.73222" lon="6.95855">
        <ele>908</ele>
        <time>2025-09-27T07:52:24Z</time>
      </trkpt>
      <trkpt lat="43.73227" lon="6.95849">
        <ele>908.4</ele>
        <time>2025-09-27T07:52:27Z</time>
      </trkpt>
      <trkpt lat="43.73232" lon="6.95843">
        <ele>908.9</ele>
        <time>2025-09-27T07:52:30Z</time>
      </trkpt>
      <trkpt lat="43.73237" lon="6.95837">
        <ele>909.4</ele>
        <time>2025-09-27T07:52:33Z</time>
      </trkpt>
      <trkpt lat="43.73242" lon="6.95831">
        <ele>909.9</ele>
        <time>2025-09-27T07:52:36Z</time>
      </trkpt>
      <trkpt lat="43.73246" lon="6.95825">
        <ele>910.4</ele>
        <time>2025-09-27T07:52:39Z</time>
      </trkpt>
      <trkpt lat="43.73251" lon="6.9582">
        <ele>910.8</ele>
        <time>2025-09-27T07:52:42Z</time>
      </trkpt>
      <trkpt lat="43.73257" lon="6.95816">
        <ele>911.3</ele>
        <time>2025-09-27T07:52:45Z</time>
      </trkpt>
      <trkpt lat="43.73263" lon="6.95812">
        <ele>911.8</ele>
        <time>2025-09-27T07:52:48Z</time>
      </trkpt>
      <trkpt lat="43.73269" lon="6.9581">
        <ele>912.2</ele>
        <time>2025-09-27T07:52:51Z</time>
      </trkpt>
      <trkpt lat="43.73275" lon="6.95808">
        <ele>912.7</ele>
        <time>2025-09-27T07:52:54Z</time>
      </trkpt>
      <trkpt lat="43.73281" lon="6.95806">
        <ele>913.1</ele>
        <time>2025-09-27T07:52:57Z</time>
      </trkpt>
      <trkpt lat="43.73288" lon="6.95805">
        <ele>913.5</ele>
        <time>2025-09-27T07:53:00Z</time>
      </trkpt>
      <trkpt lat="43.73294" lon="6.95805">
        <ele>913.9</ele>
        <time>2025-09-27T07:53:03Z</time>
      </trkpt>
      <trkpt lat="43.73298" lon="6.95806">
        <ele>914.2</ele>
        <time>2025-09-27T07:53:05Z</time>
      </trkpt>
      <trkpt lat="43.73305" lon="6.95806">
        <ele>914.7</ele>
        <time>2025-09-27T07:53:08Z</time>
      </trkpt>
      <trkpt lat="43.73311" lon="6.95807">
        <ele>915.1</ele>
        <time>2025-09-27T07:53:11Z</time>
      </trkpt>
      <trkpt lat="43.73317" lon="6.95808">
        <ele>915.6</ele>
        <time>2025-09-27T07:53:14Z</time>
      </trkpt>
      <trkpt lat="43.73324" lon="6.95809">
        <ele>916</ele>
        <time>2025-09-27T07:53:17Z</time>
      </trkpt>
      <trkpt lat="43.7333" lon="6.9581">
        <ele>916.5</ele>
        <time>2025-09-27T07:53:20Z</time>
      </trkpt>
      <trkpt lat="43.73336" lon="6.95811">
        <ele>916.9</ele>
        <time>2025-09-27T07:53:23Z</time>
      </trkpt>
      <trkpt lat="43.73342" lon="6.95812">
        <ele>917.3</ele>
        <time>2025-09-27T07:53:26Z</time>
      </trkpt>
      <trkpt lat="43.73348" lon="6.95814">
        <ele>917.8</ele>
        <time>2025-09-27T07:53:29Z</time>
      </trkpt>
      <trkpt lat="43.73354" lon="6.95815">
        <ele>918.3</ele>
        <time>2025-09-27T07:53:32Z</time>
      </trkpt>
      <trkpt lat="43.7336" lon="6.95816">
        <ele>918.7</ele>
        <time>2025-09-27T07:53:35Z</time>
      </trkpt>
      <trkpt lat="43.73367" lon="6.95817">
        <ele>919.2</ele>
        <time>2025-09-27T07:53:38Z</time>
      </trkpt>
      <trkpt lat="43.73371" lon="6.95817">
        <ele>919.6</ele>
        <time>2025-09-27T07:53:40Z</time>
      </trkpt>
      <trkpt lat="43.73378" lon="6.95815">
        <ele>920</ele>
        <time>2025-09-27T07:53:43Z</time>
      </trkpt>
      <trkpt lat="43.73383" lon="6.95812">
        <ele>920.5</ele>
        <time>2025-09-27T07:53:46Z</time>
      </trkpt>
      <trkpt lat="43.73389" lon="6.95808">
        <ele>920.9</ele>
        <time>2025-09-27T07:53:49Z</time>
      </trkpt>
      <trkpt lat="43.73393" lon="6.95802">
        <ele>921.4</ele>
        <time>2025-09-27T07:53:52Z</time>
      </trkpt>
      <trkpt lat="43.73396" lon="6.95796">
        <ele>921.7</ele>
        <time>2025-09-27T07:53:55Z</time>
      </trkpt>
      <trkpt lat="43.73398" lon="6.95787">
        <ele>922.2</ele>
        <time>2025-09-27T07:53:58Z</time>
      </trkpt>
      <trkpt lat="43.73399" lon="6.95781">
        <ele>922.5</ele>
        <time>2025-09-27T07:54:00Z</time>
      </trkpt>
      <trkpt lat="43.73399" lon="6.95772">
        <ele>923</ele>
        <time>2025-09-27T07:54:03Z</time>
      </trkpt>
      <trkpt lat="43.73398" lon="6.95766">
        <ele>923.3</ele>
        <time>2025-09-27T07:54:05Z</time>
      </trkpt>
      <trkpt lat="43.73397" lon="6.95759">
        <ele>923.6</ele>
        <time>2025-09-27T07:54:07Z</time>
      </trkpt>
      <trkpt lat="43.73394" lon="6.95753">
        <ele>923.9</ele>
        <time>2025-09-27T07:54:09Z</time>
      </trkpt>
      <trkpt lat="43.73392" lon="6.95748">
        <ele>924.2</ele>
        <time>2025-09-27T07:54:11Z</time>
      </trkpt>
      <trkpt lat="43.73389" lon="6.95742">
        <ele>924.4</ele>
        <time>2025-09-27T07:54:13Z</time>
      </trkpt>
      <trkpt lat="43.73387" lon="6.95737">
        <ele>924.7</ele>
        <time>2025-09-27T07:54:15Z</time>
      </trkpt>
      <trkpt lat="43.73385" lon="6.95731">
        <ele>924.9</ele>
        <time>2025-09-27T07:54:17Z</time>
      </trkpt>
      <trkpt lat="43.73383" lon="6.95725">
        <ele>925.2</ele>
        <time>2025-09-27T07:54:19Z</time>
      </trkpt>
      <trkpt lat="43.73381" lon="6.95719">
        <ele>925.4</ele>
        <time>2025-09-27T07:54:21Z</time>
      </trkpt>
      <trkpt lat="43.73381" lon="6.9571">
        <ele>925.8</ele>
        <time>2025-09-27T07:54:24Z</time>
      </trkpt>
      <trkpt lat="43.73381" lon="6.95704">
        <ele>926</ele>
        <time>2025-09-27T07:54:26Z</time>
      </trkpt>
      <trkpt lat="43.73383" lon="6.95695">
        <ele>926.4</ele>
        <time>2025-09-27T07:54:29Z</time>
      </trkpt>
      <trkpt lat="43.73385" lon="6.95686">
        <ele>926.8</ele>
        <time>2025-09-27T07:54:32Z</time>
      </trkpt>
      <trkpt lat="43.73388" lon="6.95678">
        <ele>927.1</ele>
        <time>2025-09-27T07:54:35Z</time>
      </trkpt>
      <trkpt lat="43.73391" lon="6.9567">
        <ele>927.6</ele>
        <time>2025-09-27T07:54:38Z</time>
      </trkpt>
      <trkpt lat="43.73394" lon="6.95662">
        <ele>928</ele>
        <time>2025-09-27T07:54:41Z</time>
      </trkpt>
      <trkpt lat="43.73397" lon="6.95654">
        <ele>928.4</ele>
        <time>2025-09-27T07:54:44Z</time>
      </trkpt>
      <trkpt lat="43.73401" lon="6.95647">
        <ele>928.9</ele>
        <time>2025-09-27T07:54:47Z</time>
      </trkpt>
      <trkpt lat="43.73405" lon="6.9564">
        <ele>929.3</ele>
        <time>2025-09-27T07:54:50Z</time>
      </trkpt>
      <trkpt lat="43.73409" lon="6.95633">
        <ele>929.8</ele>
        <time>2025-09-27T07:54:53Z</time>
      </trkpt>
      <trkpt lat="43.73413" lon="6.95627">
        <ele>930.2</ele>
        <time>2025-09-27T07:54:56Z</time>
      </trkpt>
      <trkpt lat="43.73418" lon="6.95621">
        <ele>930.6</ele>
        <time>2025-09-27T07:54:59Z</time>
      </trkpt>
      <trkpt lat="43.73422" lon="6.95615">
        <ele>931.1</ele>
        <time>2025-09-27T07:55:02Z</time>
      </trkpt>
      <trkpt lat="43.73427" lon="6.95609">
        <ele>931.6</ele>
        <time>2025-09-27T07:55:05Z</time>
      </trkpt>
      <trkpt lat="43.73432" lon="6.95604">
        <ele>932</ele>
        <time>2025-09-27T07:55:08Z</time>
      </trkpt>
      <trkpt lat="43.73437" lon="6.95598">
        <ele>932.5</ele>
        <time>2025-09-27T07:55:11Z</time>
      </trkpt>
      <trkpt lat="43.73442" lon="6.95593">
        <ele>932.9</ele>
        <time>2025-09-27T07:55:14Z</time>
      </trkpt>
      <trkpt lat="43.73447" lon="6.95588">
        <ele>933.4</ele>
        <time>2025-09-27T07:55:17Z</time>
      </trkpt>
      <trkpt lat="43.73452" lon="6.95582">
        <ele>933.8</ele>
        <time>2025-09-27T07:55:20Z</time>
      </trkpt>
      <trkpt lat="43.73456" lon="6.95575">
        <ele>934.2</ele>
        <time>2025-09-27T07:55:23Z</time>
      </trkpt>
      <trkpt lat="43.73458" lon="6.95567">
        <ele>934.7</ele>
        <time>2025-09-27T07:55:26Z</time>
      </trkpt>
      <trkpt lat="43.73459" lon="6.95558">
        <ele>935.1</ele>
        <time>2025-09-27T07:55:29Z</time>
      </trkpt>
      <trkpt lat="43.73459" lon="6.95549">
        <ele>935.5</ele>
        <time>2025-09-27T07:55:32Z</time>
      </trkpt>
      <trkpt lat="43.73459" lon="6.9554">
        <ele>935.9</ele>
        <time>2025-09-27T07:55:35Z</time>
      </trkpt>
      <trkpt lat="43.7346" lon="6.95531">
        <ele>936.4</ele>
        <time>2025-09-27T07:55:38Z</time>
      </trkpt>
      <trkpt lat="43.7346" lon="6.95522">
        <ele>936.8</ele>
        <time>2025-09-27T07:55:41Z</time>
      </trkpt>
      <trkpt lat="43.7346" lon="6.95513">
        <ele>937.2</ele>
        <time>2025-09-27T07:55:44Z</time>
      </trkpt>
      <trkpt lat="43.7346" lon="6.95504">
        <ele>937.6</ele>
        <time>2025-09-27T07:55:47Z</time>
      </trkpt>
      <trkpt lat="43.7346" lon="6.95495">
        <ele>938</ele>
        <time>2025-09-27T07:55:50Z</time>
      </trkpt>
      <trkpt lat="43.7346" lon="6.95486">
        <ele>938.5</ele>
        <time>2025-09-27T07:55:53Z</time>
      </trkpt>
      <trkpt lat="43.7346" lon="6.95478">
        <ele>938.9</ele>
        <time>2025-09-27T07:55:56Z</time>
      </trkpt>
      <trkpt lat="43.7346" lon="6.95469">
        <ele>939.4</ele>
        <time>2025-09-27T07:55:59Z</time>
      </trkpt>
      <trkpt lat="43.73461" lon="6.9546">
        <ele>939.9</ele>
        <time>2025-09-27T07:56:02Z</time>
      </trkpt>
      <trkpt lat="43.73461" lon="6.95451">
        <ele>940.3</ele>
        <time>2025-09-27T07:56:05Z</time>
      </trkpt>
      <trkpt lat="43.73461" lon="6.95443">
        <ele>940.8</ele>
        <time>2025-09-27T07:56:08Z</time>
      </trkpt>
      <trkpt lat="43.73461" lon="6.95434">
        <ele>941.2</ele>
        <time>2025-09-27T07:56:11Z</time>
      </trkpt>
      <trkpt lat="43.73461" lon="6.95425">
        <ele>941.7</ele>
        <time>2025-09-27T07:56:14Z</time>
      </trkpt>
      <trkpt lat="43.73462" lon="6.95417">
        <ele>942.1</ele>
        <time>2025-09-27T07:56:17Z</time>
      </trkpt>
      <trkpt lat="43.73462" lon="6.95408">
        <ele>942.5</ele>
        <time>2025-09-27T07:56:20Z</time>
      </trkpt>
      <trkpt lat="43.73462" lon="6.95399">
        <ele>942.9</ele>
        <time>2025-09-27T07:56:23Z</time>
      </trkpt>
      <trkpt lat="43.73462" lon="6.95391">
        <ele>943.4</ele>
        <time>2025-09-27T07:56:26Z</time>
      </trkpt>
      <trkpt lat="43.73463" lon="6.95382">
        <ele>943.8</ele>
        <time>2025-09-27T07:56:29Z</time>
      </trkpt>
      <trkpt lat="43.73464" lon="6.95373">
        <ele>944.3</ele>
        <time>2025-09-27T07:56:32Z</time>
      </trkpt>
      <trkpt lat="43.73466" lon="6.95364">
        <ele>944.7</ele>
        <time>2025-09-27T07:56:35Z</time>
      </trkpt>
      <trkpt lat="43.73467" lon="6.95355">
        <ele>945.2</ele>
        <time>2025-09-27T07:56:38Z</time>
      </trkpt>
      <trkpt lat="43.73469" lon="6.95347">
        <ele>945.6</ele>
        <time>2025-09-27T07:56:41Z</time>
      </trkpt>
      <trkpt lat="43.73472" lon="6.95339">
        <ele>946</ele>
        <time>2025-09-27T07:56:44Z</time>
      </trkpt>
      <trkpt lat="43.73474" lon="6.9533">
        <ele>946.5</ele>
        <time>2025-09-27T07:56:47Z</time>
      </trkpt>
      <trkpt lat="43.73477" lon="6.95322">
        <ele>947</ele>
        <time>2025-09-27T07:56:50Z</time>
      </trkpt>
      <trkpt lat="43.73481" lon="6.95314">
        <ele>947.5</ele>
        <time>2025-09-27T07:56:53Z</time>
      </trkpt>
      <trkpt lat="43.73484" lon="6.95307">
        <ele>947.9</ele>
        <time>2025-09-27T07:56:56Z</time>
      </trkpt>
      <trkpt lat="43.73489" lon="6.953">
        <ele>948.4</ele>
        <time>2025-09-27T07:56:59Z</time>
      </trkpt>
      <trkpt lat="43.73493" lon="6.95293">
        <ele>948.8</ele>
        <time>2025-09-27T07:57:02Z</time>
      </trkpt>
      <trkpt lat="43.73497" lon="6.95286">
        <ele>949.3</ele>
        <time>2025-09-27T07:57:05Z</time>
      </trkpt>
      <trkpt lat="43.73502" lon="6.95279">
        <ele>949.8</ele>
        <time>2025-09-27T07:57:08Z</time>
      </trkpt>
      <trkpt lat="43.73506" lon="6.95273">
        <ele>950.2</ele>
        <time>2025-09-27T07:57:11Z</time>
      </trkpt>
      <trkpt lat="43.73511" lon="6.95266">
        <ele>950.6</ele>
        <time>2025-09-27T07:57:14Z</time>
      </trkpt>
      <trkpt lat="43.73515" lon="6.9526">
        <ele>951.1</ele>
        <time>2025-09-27T07:57:17Z</time>
      </trkpt>
      <trkpt lat="43.7352" lon="6.95253">
        <ele>951.6</ele>
        <time>2025-09-27T07:57:20Z</time>
      </trkpt>
      <trkpt lat="43.73525" lon="6.95246">
        <ele>952</ele>
        <time>2025-09-27T07:57:23Z</time>
      </trkpt>
      <trkpt lat="43.73529" lon="6.9524">
        <ele>952.5</ele>
        <time>2025-09-27T07:57:26Z</time>
      </trkpt>
      <trkpt lat="43.73534" lon="6.95233">
        <ele>952.9</ele>
        <time>2025-09-27T07:57:29Z</time>
      </trkpt>
      <trkpt lat="43.73538" lon="6.95227">
        <ele>953.4</ele>
        <time>2025-09-27T07:57:32Z</time>
      </trkpt>
      <trkpt lat="43.73543" lon="6.9522">
        <ele>953.9</ele>
        <time>2025-09-27T07:57:35Z</time>
      </trkpt>
      <trkpt lat="43.73547" lon="6.95213">
        <ele>954.4</ele>
        <time>2025-09-27T07:57:38Z</time>
      </trkpt>
      <trkpt lat="43.73552" lon="6.95207">
        <ele>954.9</ele>
        <time>2025-09-27T07:57:41Z</time>
      </trkpt>
      <trkpt lat="43.73556" lon="6.952">
        <ele>955.4</ele>
        <time>2025-09-27T07:57:44Z</time>
      </trkpt>
      <trkpt lat="43.73561" lon="6.95194">
        <ele>955.9</ele>
        <time>2025-09-27T07:57:47Z</time>
      </trkpt>
      <trkpt lat="43.73566" lon="6.95189">
        <ele>956.4</ele>
        <time>2025-09-27T07:57:50Z</time>
      </trkpt>
      <trkpt lat="43.73572" lon="6.95184">
        <ele>956.9</ele>
        <time>2025-09-27T07:57:53Z</time>
      </trkpt>
      <trkpt lat="43.73578" lon="6.95179">
        <ele>957.4</ele>
        <time>2025-09-27T07:57:56Z</time>
      </trkpt>
      <trkpt lat="43.73583" lon="6.95175">
        <ele>958</ele>
        <time>2025-09-27T07:57:59Z</time>
      </trkpt>
      <trkpt lat="43.73589" lon="6.9517">
        <ele>958.5</ele>
        <time>2025-09-27T07:58:02Z</time>
      </trkpt>
      <trkpt lat="43.73594" lon="6.95167">
        <ele>959</ele>
        <time>2025-09-27T07:58:05Z</time>
      </trkpt>
      <trkpt lat="43.73599" lon="6.95162">
        <ele>959.6</ele>
        <time>2025-09-27T07:58:08Z</time>
      </trkpt>
      <trkpt lat="43.73604" lon="6.95158">
        <ele>960.1</ele>
        <time>2025-09-27T07:58:11Z</time>
      </trkpt>
      <trkpt lat="43.73609" lon="6.95153">
        <ele>960.7</ele>
        <time>2025-09-27T07:58:14Z</time>
      </trkpt>
      <trkpt lat="43.73613" lon="6.95145">
        <ele>961.2</ele>
        <time>2025-09-27T07:58:17Z</time>
      </trkpt>
      <trkpt lat="43.73614" lon="6.95139">
        <ele>961.6</ele>
        <time>2025-09-27T07:58:19Z</time>
      </trkpt>
      <trkpt lat="43.73613" lon="6.9513">
        <ele>962</ele>
        <time>2025-09-27T07:58:22Z</time>
      </trkpt>
      <trkpt lat="43.73611" lon="6.95122">
        <ele>962.5</ele>
        <time>2025-09-27T07:58:25Z</time>
      </trkpt>
      <trkpt lat="43.73606" lon="6.95116">
        <ele>962.9</ele>
        <time>2025-09-27T07:58:28Z</time>
      </trkpt>
      <trkpt lat="43.736" lon="6.95112">
        <ele>963.3</ele>
        <time>2025-09-27T07:58:31Z</time>
      </trkpt>
      <trkpt lat="43.73596" lon="6.95111">
        <ele>963.6</ele>
        <time>2025-09-27T07:58:33Z</time>
      </trkpt>
      <trkpt lat="43.73591" lon="6.9511">
        <ele>963.8</ele>
        <time>2025-09-27T07:58:35Z</time>
      </trkpt>
      <trkpt lat="43.73586" lon="6.9511">
        <ele>964</ele>
        <time>2025-09-27T07:58:37Z</time>
      </trkpt>
      <trkpt lat="43.73581" lon="6.9511">
        <ele>964.2</ele>
        <time>2025-09-27T07:58:39Z</time>
      </trkpt>
      <trkpt lat="43.73576" lon="6.9511">
        <ele>964.4</ele>
        <time>2025-09-27T07:58:41Z</time>
      </trkpt>
      <trkpt lat="43.73572" lon="6.9511">
        <ele>964.6</ele>
        <time>2025-09-27T07:58:43Z</time>
      </trkpt>
      <trkpt lat="43.73567" lon="6.9511">
        <ele>964.9</ele>
        <time>2025-09-27T07:58:45Z</time>
      </trkpt>
      <trkpt lat="43.73562" lon="6.9511">
        <ele>965.1</ele>
        <time>2025-09-27T07:58:47Z</time>
      </trkpt>
      <trkpt lat="43.73558" lon="6.9511">
        <ele>965.4</ele>
        <time>2025-09-27T07:58:49Z</time>
      </trkpt>
      <trkpt lat="43.73553" lon="6.95109">
        <ele>965.7</ele>
        <time>2025-09-27T07:58:51Z</time>
      </trkpt>
      <trkpt lat="43.73548" lon="6.95109">
        <ele>966</ele>
        <time>2025-09-27T07:58:53Z</time>
      </trkpt>
      <trkpt lat="43.73544" lon="6.95109">
        <ele>966.3</ele>
        <time>2025-09-27T07:58:55Z</time>
      </trkpt>
      <trkpt lat="43.73537" lon="6.95109">
        <ele>966.7</ele>
        <time>2025-09-27T07:58:58Z</time>
      </trkpt>
      <trkpt lat="43.73532" lon="6.95109">
        <ele>967.1</ele>
        <time>2025-09-27T07:59:00Z</time>
      </trkpt>
      <trkpt lat="43.73528" lon="6.95109">
        <ele>967.4</ele>
        <time>2025-09-27T07:59:02Z</time>
      </trkpt>
      <trkpt lat="43.73523" lon="6.95109">
        <ele>967.7</ele>
        <time>2025-09-27T07:59:04Z</time>
      </trkpt>
      <trkpt lat="43.73518" lon="6.95108">
        <ele>968.1</ele>
        <time>2025-09-27T07:59:06Z</time>
      </trkpt>
      <trkpt lat="43.73513" lon="6.95108">
        <ele>968.4</ele>
        <time>2025-09-27T07:59:08Z</time>
      </trkpt>
      <trkpt lat="43.73509" lon="6.95108">
        <ele>968.8</ele>
        <time>2025-09-27T07:59:10Z</time>
      </trkpt>
      <trkpt lat="43.73504" lon="6.95108">
        <ele>969.1</ele>
        <time>2025-09-27T07:59:12Z</time>
      </trkpt>
      <trkpt lat="43.73499" lon="6.95108">
        <ele>969.5</ele>
        <time>2025-09-27T07:59:14Z</time>
      </trkpt>
      <trkpt lat="43.73494" lon="6.95107">
        <ele>969.8</ele>
        <time>2025-09-27T07:59:16Z</time>
      </trkpt>
      <trkpt lat="43.73489" lon="6.95107">
        <ele>970.2</ele>
        <time>2025-09-27T07:59:18Z</time>
      </trkpt>
      <trkpt lat="43.73485" lon="6.95107">
        <ele>970.5</ele>
        <time>2025-09-27T07:59:20Z</time>
      </trkpt>
      <trkpt lat="43.7348" lon="6.95107">
        <ele>970.9</ele>
        <time>2025-09-27T07:59:22Z</time>
      </trkpt>
      <trkpt lat="43.73475" lon="6.95108">
        <ele>971.3</ele>
        <time>2025-09-27T07:59:24Z</time>
      </trkpt>
      <trkpt lat="43.7347" lon="6.95107">
        <ele>971.6</ele>
        <time>2025-09-27T07:59:26Z</time>
      </trkpt>
      <trkpt lat="43.73466" lon="6.95107">
        <ele>972</ele>
        <time>2025-09-27T07:59:28Z</time>
      </trkpt>
      <trkpt lat="43.73459" lon="6.95107">
        <ele>972.5</ele>
        <time>2025-09-27T07:59:31Z</time>
      </trkpt>
      <trkpt lat="43.73454" lon="6.95107">
        <ele>972.9</ele>
        <time>2025-09-27T07:59:33Z</time>
      </trkpt>
      <trkpt lat="43.7345" lon="6.95106">
        <ele>973.3</ele>
        <time>2025-09-27T07:59:35Z</time>
      </trkpt>
      <trkpt lat="43.73445" lon="6.95104">
        <ele>973.6</ele>
        <time>2025-09-27T07:59:37Z</time>
      </trkpt>
      <trkpt lat="43.7344" lon="6.95103">
        <ele>974</ele>
        <time>2025-09-27T07:59:39Z</time>
      </trkpt>
      <trkpt lat="43.73436" lon="6.951">
        <ele>974.4</ele>
        <time>2025-09-27T07:59:41Z</time>
      </trkpt>
      <trkpt lat="43.73432" lon="6.95098">
        <ele>974.8</ele>
        <time>2025-09-27T07:59:43Z</time>
      </trkpt>
      <trkpt lat="43.73428" lon="6.95095">
        <ele>975.1</ele>
        <time>2025-09-27T07:59:45Z</time>
      </trkpt>
      <trkpt lat="43.73423" lon="6.95092">
        <ele>975.5</ele>
        <time>2025-09-27T07:59:47Z</time>
      </trkpt>
      <trkpt lat="43.73419" lon="6.95089">
        <ele>975.9</ele>
        <time>2025-09-27T07:59:49Z</time>
      </trkpt>
      <trkpt lat="43.73415" lon="6.95086">
        <ele>976.2</ele>
        <time>2025-09-27T07:59:51Z</time>
      </trkpt>
      <trkpt lat="43.73411" lon="6.95084">
        <ele>976.6</ele>
        <time>2025-09-27T07:59:53Z</time>
      </trkpt>
      <trkpt lat="43.73406" lon="6.95082">
        <ele>977</ele>
        <time>2025-09-27T07:59:55Z</time>
      </trkpt>
      <trkpt lat="43.73401" lon="6.95083">
        <ele>977.4</ele>
        <time>2025-09-27T07:59:57Z</time>
      </trkpt>
      <trkpt lat="43.73396" lon="6.95084">
        <ele>977.8</ele>
        <time>2025-09-27T07:59:59Z</time>
      </trkpt>
      <trkpt lat="43.7339" lon="6.95089">
        <ele>978.3</ele>
        <time>2025-09-27T08:00:02Z</time>
      </trkpt>
      <trkpt lat="43.73385" lon="6.95094">
        <ele>978.8</ele>
        <time>2025-09-27T08:00:05Z</time>
      </trkpt>
      <trkpt lat="43.7338" lon="6.951">
        <ele>979.3</ele>
        <time>2025-09-27T08:00:08Z</time>
      </trkpt>
      <trkpt lat="43.73375" lon="6.95108">
        <ele>979.7</ele>
        <time>2025-09-27T08:00:11Z</time>
      </trkpt>
      <trkpt lat="43.73372" lon="6.95114">
        <ele>980.1</ele>
        <time>2025-09-27T08:00:13Z</time>
      </trkpt>
      <trkpt lat="43.73369" lon="6.95119">
        <ele>980.4</ele>
        <time>2025-09-27T08:00:15Z</time>
      </trkpt>
      <trkpt lat="43.73366" lon="6.95124">
        <ele>980.7</ele>
        <time>2025-09-27T08:00:17Z</time>
      </trkpt>
      <trkpt lat="43.73363" lon="6.95129">
        <ele>981.1</ele>
        <time>2025-09-27T08:00:19Z</time>
      </trkpt>
      <trkpt lat="43.7336" lon="6.95134">
        <ele>981.4</ele>
        <time>2025-09-27T08:00:21Z</time>
      </trkpt>
      <trkpt lat="43.73357" lon="6.95139">
        <ele>981.7</ele>
        <time>2025-09-27T08:00:23Z</time>
      </trkpt>
      <trkpt lat="43.73353" lon="6.95145">
        <ele>982.1</ele>
        <time>2025-09-27T08:00:26Z</time>
      </trkpt>
      <trkpt lat="43.73347" lon="6.9515">
        <ele>982.6</ele>
        <time>2025-09-27T08:00:29Z</time>
      </trkpt>
      <trkpt lat="43.73344" lon="6.95154">
        <ele>982.9</ele>
        <time>2025-09-27T08:00:31Z</time>
      </trkpt>
      <trkpt lat="43.7334" lon="6.95158">
        <ele>983.2</ele>
        <time>2025-09-27T08:00:33Z</time>
      </trkpt>
      <trkpt lat="43.73336" lon="6.95162">
        <ele>983.6</ele>
        <time>2025-09-27T08:00:35Z</time>
      </trkpt>
      <trkpt lat="43.73332" lon="6.95166">
        <ele>983.9</ele>
        <time>2025-09-27T08:00:37Z</time>
      </trkpt>
      <trkpt lat="43.73328" lon="6.95169">
        <ele>984.3</ele>
        <time>2025-09-27T08:00:39Z</time>
      </trkpt>
      <trkpt lat="43.73324" lon="6.95172">
        <ele>984.7</ele>
        <time>2025-09-27T08:00:41Z</time>
      </trkpt>
      <trkpt lat="43.7332" lon="6.95176">
        <ele>985.1</ele>
        <time>2025-09-27T08:00:43Z</time>
      </trkpt>
      <trkpt lat="43.73315" lon="6.95178">
        <ele>985.5</ele>
        <time>2025-09-27T08:00:45Z</time>
      </trkpt>
      <trkpt lat="43.7331" lon="6.95181">
        <ele>985.9</ele>
        <time>2025-09-27T08:00:47Z</time>
      </trkpt>
      <trkpt lat="43.73306" lon="6.95183">
        <ele>986.3</ele>
        <time>2025-09-27T08:00:49Z</time>
      </trkpt>
      <trkpt lat="43.73301" lon="6.95185">
        <ele>986.7</ele>
        <time>2025-09-27T08:00:51Z</time>
      </trkpt>
      <trkpt lat="43.73296" lon="6.95186">
        <ele>987</ele>
        <time>2025-09-27T08:00:53Z</time>
      </trkpt>
      <trkpt lat="43.73291" lon="6.95187">
        <ele>987.4</ele>
        <time>2025-09-27T08:00:55Z</time>
      </trkpt>
      <trkpt lat="43.73286" lon="6.95187">
        <ele>987.8</ele>
        <time>2025-09-27T08:00:57Z</time>
      </trkpt>
      <trkpt lat="43.73281" lon="6.95186">
        <ele>988.2</ele>
        <time>2025-09-27T08:00:59Z</time>
      </trkpt>
      <trkpt lat="43.73277" lon="6.95185">
        <ele>988.6</ele>
        <time>2025-09-27T08:01:01Z</time>
      </trkpt>
      <trkpt lat="43.73272" lon="6.95183">
        <ele>988.9</ele>
        <time>2025-09-27T08:01:03Z</time>
      </trkpt>
      <trkpt lat="43.73267" lon="6.95182">
        <ele>989.3</ele>
        <time>2025-09-27T08:01:05Z</time>
      </trkpt>
      <trkpt lat="43.73262" lon="6.95181">
        <ele>989.7</ele>
        <time>2025-09-27T08:01:07Z</time>
      </trkpt>
      <trkpt lat="43.73258" lon="6.95181">
        <ele>990.1</ele>
        <time>2025-09-27T08:01:09Z</time>
      </trkpt>
      <trkpt lat="43.73253" lon="6.9518">
        <ele>990.4</ele>
        <time>2025-09-27T08:01:11Z</time>
      </trkpt>
      <trkpt lat="43.73248" lon="6.9518">
        <ele>990.8</ele>
        <time>2025-09-27T08:01:13Z</time>
      </trkpt>
      <trkpt lat="43.73243" lon="6.95179">
        <ele>991.2</ele>
        <time>2025-09-27T08:01:15Z</time>
      </trkpt>
      <trkpt lat="43.73238" lon="6.95179">
        <ele>991.5</ele>
        <time>2025-09-27T08:01:17Z</time>
      </trkpt>
      <trkpt lat="43.73233" lon="6.95178">
        <ele>991.9</ele>
        <time>2025-09-27T08:01:19Z</time>
      </trkpt>
      <trkpt lat="43.73228" lon="6.95177">
        <ele>992.3</ele>
        <time>2025-09-27T08:01:21Z</time>
      </trkpt>
      <trkpt lat="43.73223" lon="6.95176">
        <ele>992.7</ele>
        <time>2025-09-27T08:01:23Z</time>
      </trkpt>
      <trkpt lat="43.73218" lon="6.95175">
        <ele>993</ele>
        <time>2025-09-27T08:01:25Z</time>
      </trkpt>
      <trkpt lat="43.73214" lon="6.95174">
        <ele>993.4</ele>
        <time>2025-09-27T08:01:27Z</time>
      </trkpt>
      <trkpt lat="43.73209" lon="6.95173">
        <ele>993.8</ele>
        <time>2025-09-27T08:01:29Z</time>
      </trkpt>
      <trkpt lat="43.73204" lon="6.95172">
        <ele>994.2</ele>
        <time>2025-09-27T08:01:31Z</time>
      </trkpt>
      <trkpt lat="43.732" lon="6.95171">
        <ele>994.6</ele>
        <time>2025-09-27T08:01:33Z</time>
      </trkpt>
      <trkpt lat="43.73195" lon="6.95172">
        <ele>995</ele>
        <time>2025-09-27T08:01:35Z</time>
      </trkpt>
      <trkpt lat="43.7319" lon="6.95172">
        <ele>995.4</ele>
        <time>2025-09-27T08:01:37Z</time>
      </trkpt>
      <trkpt lat="43.73186" lon="6.95174">
        <ele>995.8</ele>
        <time>2025-09-27T08:01:39Z</time>
      </trkpt>
      <trkpt lat="43.73182" lon="6.95176">
        <ele>996.2</ele>
        <time>2025-09-27T08:01:41Z</time>
      </trkpt>
      <trkpt lat="43.73177" lon="6.9518">
        <ele>996.6</ele>
        <time>2025-09-27T08:01:43Z</time>
      </trkpt>
      <trkpt lat="43.73174" lon="6.95185">
        <ele>997</ele>
        <time>2025-09-27T08:01:45Z</time>
      </trkpt>
      <trkpt lat="43.73171" lon="6.9519">
        <ele>997.4</ele>
        <time>2025-09-27T08:01:47Z</time>
      </trkpt>
      <trkpt lat="43.73168" lon="6.95197">
        <ele>997.8</ele>
        <time>2025-09-27T08:01:49Z</time>
      </trkpt>
      <trkpt lat="43.73166" lon="6.95205">
        <ele>998.2</ele>
        <time>2025-09-27T08:01:52Z</time>
      </trkpt>
      <trkpt lat="43.73164" lon="6.95212">
        <ele>998.6</ele>
        <time>2025-09-27T08:01:54Z</time>
      </trkpt>
      <trkpt lat="43.73164" lon="6.95218">
        <ele>998.9</ele>
        <time>2025-09-27T08:01:56Z</time>
      </trkpt>
      <trkpt lat="43.73164" lon="6.95227">
        <ele>999.3</ele>
        <time>2025-09-27T08:01:59Z</time>
      </trkpt>
      <trkpt lat="43.73163" lon="6.95235">
        <ele>999.7</ele>
        <time>2025-09-27T08:02:01Z</time>
      </trkpt>
      <trkpt lat="43.73162" lon="6.95242">
        <ele>1000.1</ele>
        <time>2025-09-27T08:02:03Z</time>
      </trkpt>
      <trkpt lat="43.73162" lon="6.95249">
        <ele>1000.4</ele>
        <time>2025-09-27T08:02:05Z</time>
      </trkpt>
      <trkpt lat="43.73162" lon="6.95255">
        <ele>1000.8</ele>
        <time>2025-09-27T08:02:07Z</time>
      </trkpt>
      <trkpt lat="43.7316" lon="6.95262">
        <ele>1001.1</ele>
        <time>2025-09-27T08:02:09Z</time>
      </trkpt>
      <trkpt lat="43.73159" lon="6.95269">
        <ele>1001.5</ele>
        <time>2025-09-27T08:02:11Z</time>
      </trkpt>
      <trkpt lat="43.73158" lon="6.95275">
        <ele>1001.8</ele>
        <time>2025-09-27T08:02:13Z</time>
      </trkpt>
      <trkpt lat="43.73156" lon="6.95281">
        <ele>1002.2</ele>
        <time>2025-09-27T08:02:15Z</time>
      </trkpt>
      <trkpt lat="43.73154" lon="6.95287">
        <ele>1002.5</ele>
        <time>2025-09-27T08:02:17Z</time>
      </trkpt>
      <trkpt lat="43.73151" lon="6.95293">
        <ele>1002.9</ele>
        <time>2025-09-27T08:02:19Z</time>
      </trkpt>
      <trkpt lat="43.73148" lon="6.95299">
        <ele>1003.2</ele>
        <time>2025-09-27T08:02:21Z</time>
      </trkpt>
      <trkpt lat="43.73145" lon="6.95305">
        <ele>1003.6</ele>
        <time>2025-09-27T08:02:23Z</time>
      </trkpt>
      <trkpt lat="43.73141" lon="6.95311">
        <ele>1004</ele>
        <time>2025-09-27T08:02:25Z</time>
      </trkpt>
      <trkpt lat="43.73138" lon="6.95317">
        <ele>1004.4</ele>
        <time>2025-09-27T08:02:27Z</time>
      </trkpt>
      <trkpt lat="43.73135" lon="6.95323">
        <ele>1004.8</ele>
        <time>2025-09-27T08:02:29Z</time>
      </trkpt>
      <trkpt lat="43.73131" lon="6.95329">
        <ele>1005.1</ele>
        <time>2025-09-27T08:02:31Z</time>
      </trkpt>
      <trkpt lat="43.73128" lon="6.95333">
        <ele>1005.5</ele>
        <time>2025-09-27T08:02:33Z</time>
      </trkpt>
      <trkpt lat="43.73124" lon="6.95337">
        <ele>1005.8</ele>
        <time>2025-09-27T08:02:35Z</time>
      </trkpt>
      <trkpt lat="43.7312" lon="6.9534">
        <ele>1006.2</ele>
        <time>2025-09-27T08:02:37Z</time>
      </trkpt>
      <trkpt lat="43.73115" lon="6.9534">
        <ele>1006.6</ele>
        <time>2025-09-27T08:02:39Z</time>
      </trkpt>
      <trkpt lat="43.73111" lon="6.95337">
        <ele>1007</ele>
        <time>2025-09-27T08:02:41Z</time>
      </trkpt>
      <trkpt lat="43.73109" lon="6.95329">
        <ele>1007.8</ele>
        <time>2025-09-27T08:02:44Z</time>
      </trkpt>
      <trkpt lat="43.73109" lon="6.95322">
        <ele>1008.1</ele>
        <time>2025-09-27T08:02:46Z</time>
      </trkpt>
      <trkpt lat="43.73112" lon="6.95317">
        <ele>1008.4</ele>
        <time>2025-09-27T08:02:48Z</time>
      </trkpt>
      <trkpt lat="43.73114" lon="6.95311">
        <ele>1008.7</ele>
        <time>2025-09-27T08:02:50Z</time>
      </trkpt>
      <trkpt lat="43.73117" lon="6.95306">
        <ele>1008.9</ele>
        <time>2025-09-27T08:02:52Z</time>
      </trkpt>
      <trkpt lat="43.73119" lon="6.953">
        <ele>1009.2</ele>
        <time>2025-09-27T08:02:54Z</time>
      </trkpt>
      <trkpt lat="43.73122" lon="6.95294">
        <ele>1009.4</ele>
        <time>2025-09-27T08:02:56Z</time>
      </trkpt>
      <trkpt lat="43.73125" lon="6.95285">
        <ele>1009.8</ele>
        <time>2025-09-27T08:02:59Z</time>
      </trkpt>
      <trkpt lat="43.73126" lon="6.95279">
        <ele>1010.1</ele>
        <time>2025-09-27T08:03:01Z</time>
      </trkpt>
      <trkpt lat="43.73128" lon="6.95272">
        <ele>1010.4</ele>
        <time>2025-09-27T08:03:03Z</time>
      </trkpt>
      <trkpt lat="43.73129" lon="6.95265">
        <ele>1010.7</ele>
        <time>2025-09-27T08:03:05Z</time>
      </trkpt>
      <trkpt lat="43.7313" lon="6.95257">
        <ele>1011</ele>
        <time>2025-09-27T08:03:07Z</time>
      </trkpt>
      <trkpt lat="43.7313" lon="6.95249">
        <ele>1011.3</ele>
        <time>2025-09-27T08:03:10Z</time>
      </trkpt>
      <trkpt lat="43.73127" lon="6.95242">
        <ele>1012.1</ele>
        <time>2025-09-27T08:03:13Z</time>
      </trkpt>
      <trkpt lat="43.73122" lon="6.95243">
        <ele>1012.8</ele>
        <time>2025-09-27T08:03:15Z</time>
      </trkpt>
      <trkpt lat="43.73117" lon="6.95245">
        <ele>1013.5</ele>
        <time>2025-09-27T08:03:18Z</time>
      </trkpt>
      <trkpt lat="43.73113" lon="6.95249">
        <ele>1014</ele>
        <time>2025-09-27T08:03:21Z</time>
      </trkpt>
      <trkpt lat="43.73109" lon="6.95253">
        <ele>1014.6</ele>
        <time>2025-09-27T08:03:24Z</time>
      </trkpt>
      <trkpt lat="43.73105" lon="6.95258">
        <ele>1015.1</ele>
        <time>2025-09-27T08:03:27Z</time>
      </trkpt>
      <trkpt lat="43.731" lon="6.95262">
        <ele>1015.5</ele>
        <time>2025-09-27T08:03:30Z</time>
      </trkpt>
      <trkpt lat="43.73096" lon="6.95267">
        <ele>1015.9</ele>
        <time>2025-09-27T08:03:33Z</time>
      </trkpt>
      <trkpt lat="43.73092" lon="6.95274">
        <ele>1016.4</ele>
        <time>2025-09-27T08:03:36Z</time>
      </trkpt>
      <trkpt lat="43.73089" lon="6.9528">
        <ele>1016.6</ele>
        <time>2025-09-27T08:03:38Z</time>
      </trkpt>
      <trkpt lat="43.73085" lon="6.95287">
        <ele>1017.1</ele>
        <time>2025-09-27T08:03:41Z</time>
      </trkpt>
      <trkpt lat="43.7308" lon="6.9529">
        <ele>1017.6</ele>
        <time>2025-09-27T08:03:44Z</time>
      </trkpt>
      <trkpt lat="43.73075" lon="6.95291">
        <ele>1018.1</ele>
        <time>2025-09-27T08:03:47Z</time>
      </trkpt>
      <trkpt lat="43.7307" lon="6.95289">
        <ele>1018.6</ele>
        <time>2025-09-27T08:03:50Z</time>
      </trkpt>
      <trkpt lat="43.73065" lon="6.95287">
        <ele>1019.2</ele>
        <time>2025-09-27T08:03:53Z</time>
      </trkpt>
      <trkpt lat="43.7306" lon="6.95286">
        <ele>1019.7</ele>
        <time>2025-09-27T08:03:56Z</time>
      </trkpt>
      <trkpt lat="43.73055" lon="6.95285">
        <ele>1020.2</ele>
        <time>2025-09-27T08:03:59Z</time>
      </trkpt>
      <trkpt lat="43.73049" lon="6.95283">
        <ele>1020.7</ele>
        <time>2025-09-27T08:04:02Z</time>
      </trkpt>
      <trkpt lat="43.73043" lon="6.95281">
        <ele>1021.2</ele>
        <time>2025-09-27T08:04:05Z</time>
      </trkpt>
      <trkpt lat="43.73037" lon="6.95277">
        <ele>1021.6</ele>
        <time>2025-09-27T08:04:08Z</time>
      </trkpt>
      <trkpt lat="43.73032" lon="6.95273">
        <ele>1022</ele>
        <time>2025-09-27T08:04:11Z</time>
      </trkpt>
      <trkpt lat="43.73026" lon="6.95269">
        <ele>1022</ele>
        <time>2025-09-27T08:04:14Z</time>
      </trkpt>
      <trkpt lat="43.73021" lon="6.95267">
        <ele>1022.2</ele>
        <time>2025-09-27T08:04:16Z</time>
      </trkpt>
      <trkpt lat="43.73015" lon="6.95266">
        <ele>1022.5</ele>
        <time>2025-09-27T08:04:19Z</time>
      </trkpt>
      <trkpt lat="43.73008" lon="6.95266">
        <ele>1022.7</ele>
        <time>2025-09-27T08:04:22Z</time>
      </trkpt>
      <trkpt lat="43.73002" lon="6.95268">
        <ele>1023.1</ele>
        <time>2025-09-27T08:04:25Z</time>
      </trkpt>
      <trkpt lat="43.72996" lon="6.95269">
        <ele>1023.5</ele>
        <time>2025-09-27T08:04:28Z</time>
      </trkpt>
      <trkpt lat="43.72991" lon="6.95269">
        <ele>1024</ele>
        <time>2025-09-27T08:04:31Z</time>
      </trkpt>
      <trkpt lat="43.72985" lon="6.95268">
        <ele>1024.6</ele>
        <time>2025-09-27T08:04:34Z</time>
      </trkpt>
      <trkpt lat="43.72981" lon="6.95265">
        <ele>1025.1</ele>
        <time>2025-09-27T08:04:37Z</time>
      </trkpt>
      <trkpt lat="43.72975" lon="6.95263">
        <ele>1025.9</ele>
        <time>2025-09-27T08:04:41Z</time>
      </trkpt>
      <trkpt lat="43.7297" lon="6.95261">
        <ele>1026.6</ele>
        <time>2025-09-27T08:04:45Z</time>
      </trkpt>
      <trkpt lat="43.72964" lon="6.9526">
        <ele>1027.4</ele>
        <time>2025-09-27T08:04:49Z</time>
      </trkpt>
      <trkpt lat="43.72959" lon="6.95258">
        <ele>1028.1</ele>
        <time>2025-09-27T08:04:52Z</time>
      </trkpt>
      <trkpt lat="43.72956" lon="6.95252">
        <ele>1028.7</ele>
        <time>2025-09-27T08:04:55Z</time>
      </trkpt>
      <trkpt lat="43.72956" lon="6.95245">
        <ele>1029.4</ele>
        <time>2025-09-27T08:04:59Z</time>
      </trkpt>
      <trkpt lat="43.72958" lon="6.95238">
        <ele>1030.1</ele>
        <time>2025-09-27T08:05:03Z</time>
      </trkpt>
      <trkpt lat="43.72961" lon="6.95231">
        <ele>1030.8</ele>
        <time>2025-09-27T08:05:07Z</time>
      </trkpt>
      <trkpt lat="43.72964" lon="6.95226">
        <ele>1031.4</ele>
        <time>2025-09-27T08:05:10Z</time>
      </trkpt>
      <trkpt lat="43.72967" lon="6.95221">
        <ele>1032</ele>
        <time>2025-09-27T08:05:13Z</time>
      </trkpt>
      <trkpt lat="43.7297" lon="6.95214">
        <ele>1032.7</ele>
        <time>2025-09-27T08:05:17Z</time>
      </trkpt>
      <trkpt lat="43.72972" lon="6.95208">
        <ele>1033.2</ele>
        <time>2025-09-27T08:05:20Z</time>
      </trkpt>
      <trkpt lat="43.72975" lon="6.95202">
        <ele>1033.7</ele>
        <time>2025-09-27T08:05:23Z</time>
      </trkpt>
      <trkpt lat="43.72978" lon="6.95197">
        <ele>1034.2</ele>
        <time>2025-09-27T08:05:26Z</time>
      </trkpt>
      <trkpt lat="43.72982" lon="6.95193">
        <ele>1034.6</ele>
        <time>2025-09-27T08:05:29Z</time>
      </trkpt>
      <trkpt lat="43.72986" lon="6.95189">
        <ele>1035</ele>
        <time>2025-09-27T08:05:32Z</time>
      </trkpt>
      <trkpt lat="43.7299" lon="6.95185">
        <ele>1035.5</ele>
        <time>2025-09-27T08:05:35Z</time>
      </trkpt>
      <trkpt lat="43.72993" lon="6.9518">
        <ele>1035.9</ele>
        <time>2025-09-27T08:05:38Z</time>
      </trkpt>
      <trkpt lat="43.72996" lon="6.95174">
        <ele>1036.4</ele>
        <time>2025-09-27T08:05:41Z</time>
      </trkpt>
      <trkpt lat="43.72996" lon="6.95167">
        <ele>1036.8</ele>
        <time>2025-09-27T08:05:44Z</time>
      </trkpt>
      <trkpt lat="43.72996" lon="6.95161">
        <ele>1037.3</ele>
        <time>2025-09-27T08:05:47Z</time>
      </trkpt>
      <trkpt lat="43.72992" lon="6.95155">
        <ele>1037.7</ele>
        <time>2025-09-27T08:05:50Z</time>
      </trkpt>
      <trkpt lat="43.72988" lon="6.95151">
        <ele>1038.2</ele>
        <time>2025-09-27T08:05:53Z</time>
      </trkpt>
      <trkpt lat="43.72983" lon="6.95149">
        <ele>1038.6</ele>
        <time>2025-09-27T08:05:56Z</time>
      </trkpt>
      <trkpt lat="43.72978" lon="6.95148">
        <ele>1039</ele>
        <time>2025-09-27T08:05:59Z</time>
      </trkpt>
      <trkpt lat="43.72973" lon="6.95147">
        <ele>1039.5</ele>
        <time>2025-09-27T08:06:02Z</time>
      </trkpt>
      <trkpt lat="43.72967" lon="6.95147">
        <ele>1040</ele>
        <time>2025-09-27T08:06:06Z</time>
      </trkpt>
      <trkpt lat="43.72962" lon="6.95147">
        <ele>1040.4</ele>
        <time>2025-09-27T08:06:09Z</time>
      </trkpt>
      <trkpt lat="43.72957" lon="6.95145">
        <ele>1041</ele>
        <time>2025-09-27T08:06:12Z</time>
      </trkpt>
      <trkpt lat="43.72952" lon="6.95143">
        <ele>1041.5</ele>
        <time>2025-09-27T08:06:15Z</time>
      </trkpt>
      <trkpt lat="43.72947" lon="6.95141">
        <ele>1042</ele>
        <time>2025-09-27T08:06:18Z</time>
      </trkpt>
      <trkpt lat="43.72942" lon="6.95139">
        <ele>1042.5</ele>
        <time>2025-09-27T08:06:21Z</time>
      </trkpt>
      <trkpt lat="43.72938" lon="6.95139">
        <ele>1043</ele>
        <time>2025-09-27T08:06:24Z</time>
      </trkpt>
      <trkpt lat="43.72932" lon="6.95138">
        <ele>1043.6</ele>
        <time>2025-09-27T08:06:27Z</time>
      </trkpt>
      <trkpt lat="43.72927" lon="6.95138">
        <ele>1044.1</ele>
        <time>2025-09-27T08:06:30Z</time>
      </trkpt>
      <trkpt lat="43.72923" lon="6.95137">
        <ele>1044.6</ele>
        <time>2025-09-27T08:06:33Z</time>
      </trkpt>
      <trkpt lat="43.72917" lon="6.95137">
        <ele>1045.2</ele>
        <time>2025-09-27T08:06:37Z</time>
      </trkpt>
      <trkpt lat="43.72912" lon="6.95137">
        <ele>1045.7</ele>
        <time>2025-09-27T08:06:40Z</time>
      </trkpt>
      <trkpt lat="43.72907" lon="6.95136">
        <ele>1046.2</ele>
        <time>2025-09-27T08:06:43Z</time>
      </trkpt>
      <trkpt lat="43.72902" lon="6.95135">
        <ele>1046.6</ele>
        <time>2025-09-27T08:06:46Z</time>
      </trkpt>
      <trkpt lat="43.72897" lon="6.95135">
        <ele>1047.1</ele>
        <time>2025-09-27T08:06:49Z</time>
      </trkpt>
      <trkpt lat="43.72891" lon="6.95133">
        <ele>1047.6</ele>
        <time>2025-09-27T08:06:52Z</time>
      </trkpt>
      <trkpt lat="43.72887" lon="6.95131">
        <ele>1048.1</ele>
        <time>2025-09-27T08:06:55Z</time>
      </trkpt>
      <trkpt lat="43.72883" lon="6.95126">
        <ele>1048.6</ele>
        <time>2025-09-27T08:06:58Z</time>
      </trkpt>
      <trkpt lat="43.72881" lon="6.95119">
        <ele>1049.1</ele>
        <time>2025-09-27T08:07:01Z</time>
      </trkpt>
      <trkpt lat="43.72882" lon="6.95113">
        <ele>1049.6</ele>
        <time>2025-09-27T08:07:04Z</time>
      </trkpt>
      <trkpt lat="43.72886" lon="6.95108">
        <ele>1050.1</ele>
        <time>2025-09-27T08:07:07Z</time>
      </trkpt>
      <trkpt lat="43.72889" lon="6.95103">
        <ele>1050.5</ele>
        <time>2025-09-27T08:07:10Z</time>
      </trkpt>
      <trkpt lat="43.72893" lon="6.95099">
        <ele>1050.9</ele>
        <time>2025-09-27T08:07:13Z</time>
      </trkpt>
      <trkpt lat="43.72897" lon="6.95093">
        <ele>1051.4</ele>
        <time>2025-09-27T08:07:16Z</time>
      </trkpt>
      <trkpt lat="43.729" lon="6.95088">
        <ele>1051.7</ele>
        <time>2025-09-27T08:07:19Z</time>
      </trkpt>
      <trkpt lat="43.72904" lon="6.95083">
        <ele>1052.1</ele>
        <time>2025-09-27T08:07:22Z</time>
      </trkpt>
      <trkpt lat="43.72908" lon="6.95078">
        <ele>1052.4</ele>
        <time>2025-09-27T08:07:25Z</time>
      </trkpt>
      <trkpt lat="43.72912" lon="6.95074">
        <ele>1052.8</ele>
        <time>2025-09-27T08:07:28Z</time>
      </trkpt>
      <trkpt lat="43.72917" lon="6.9507">
        <ele>1053.1</ele>
        <time>2025-09-27T08:07:31Z</time>
      </trkpt>
      <trkpt lat="43.72921" lon="6.95066">
        <ele>1053.5</ele>
        <time>2025-09-27T08:07:34Z</time>
      </trkpt>
      <trkpt lat="43.72925" lon="6.95062">
        <ele>1053.8</ele>
        <time>2025-09-27T08:07:37Z</time>
      </trkpt>
      <trkpt lat="43.72929" lon="6.95057">
        <ele>1054.2</ele>
        <time>2025-09-27T08:07:40Z</time>
      </trkpt>
      <trkpt lat="43.72933" lon="6.95053">
        <ele>1054.6</ele>
        <time>2025-09-27T08:07:43Z</time>
      </trkpt>
      <trkpt lat="43.72937" lon="6.95049">
        <ele>1055</ele>
        <time>2025-09-27T08:07:46Z</time>
      </trkpt>
      <trkpt lat="43.72942" lon="6.95044">
        <ele>1055.4</ele>
        <time>2025-09-27T08:07:49Z</time>
      </trkpt>
      <trkpt lat="43.72946" lon="6.95039">
        <ele>1055.8</ele>
        <time>2025-09-27T08:07:52Z</time>
      </trkpt>
      <trkpt lat="43.7295" lon="6.95035">
        <ele>1056.2</ele>
        <time>2025-09-27T08:07:55Z</time>
      </trkpt>
      <trkpt lat="43.72954" lon="6.9503">
        <ele>1056.6</ele>
        <time>2025-09-27T08:07:59Z</time>
      </trkpt>
      <trkpt lat="43.72958" lon="6.95025">
        <ele>1057.1</ele>
        <time>2025-09-27T08:08:02Z</time>
      </trkpt>
      <trkpt lat="43.72961" lon="6.9502">
        <ele>1057.5</ele>
        <time>2025-09-27T08:08:05Z</time>
      </trkpt>
      <trkpt lat="43.72964" lon="6.95014">
        <ele>1058</ele>
        <time>2025-09-27T08:08:08Z</time>
      </trkpt>
      <trkpt lat="43.72968" lon="6.95009">
        <ele>1058.6</ele>
        <time>2025-09-27T08:08:11Z</time>
      </trkpt>
      <trkpt lat="43.72971" lon="6.95002">
        <ele>1059.2</ele>
        <time>2025-09-27T08:08:14Z</time>
      </trkpt>
      <trkpt lat="43.72974" lon="6.94996">
        <ele>1059.7</ele>
        <time>2025-09-27T08:08:17Z</time>
      </trkpt>
      <trkpt lat="43.72977" lon="6.9499">
        <ele>1060.2</ele>
        <time>2025-09-27T08:08:20Z</time>
      </trkpt>
      <trkpt lat="43.72981" lon="6.94984">
        <ele>1060.7</ele>
        <time>2025-09-27T08:08:23Z</time>
      </trkpt>
      <trkpt lat="43.72985" lon="6.94978">
        <ele>1061.2</ele>
        <time>2025-09-27T08:08:26Z</time>
      </trkpt>
      <trkpt lat="43.72988" lon="6.94971">
        <ele>1061.7</ele>
        <time>2025-09-27T08:08:29Z</time>
      </trkpt>
      <trkpt lat="43.7299" lon="6.94965">
        <ele>1062.2</ele>
        <time>2025-09-27T08:08:32Z</time>
      </trkpt>
      <trkpt lat="43.72992" lon="6.94957">
        <ele>1062.7</ele>
        <time>2025-09-27T08:08:36Z</time>
      </trkpt>
      <trkpt lat="43.72991" lon="6.94949">
        <ele>1063.3</ele>
        <time>2025-09-27T08:08:39Z</time>
      </trkpt>
      <trkpt lat="43.72989" lon="6.94942">
        <ele>1063.9</ele>
        <time>2025-09-27T08:08:42Z</time>
      </trkpt>
      <trkpt lat="43.72985" lon="6.94936">
        <ele>1064.6</ele>
        <time>2025-09-27T08:08:45Z</time>
      </trkpt>
      <trkpt lat="43.72981" lon="6.94932">
        <ele>1065.2</ele>
        <time>2025-09-27T08:08:48Z</time>
      </trkpt>
      <trkpt lat="43.72976" lon="6.9493">
        <ele>1065.8</ele>
        <time>2025-09-27T08:08:51Z</time>
      </trkpt>
      <trkpt lat="43.72971" lon="6.94929">
        <ele>1066.4</ele>
        <time>2025-09-27T08:08:54Z</time>
      </trkpt>
      <trkpt lat="43.72966" lon="6.94929">
        <ele>1066.9</ele>
        <time>2025-09-27T08:08:57Z</time>
      </trkpt>
      <trkpt lat="43.72961" lon="6.94928">
        <ele>1067.4</ele>
        <time>2025-09-27T08:09:00Z</time>
      </trkpt>
      <trkpt lat="43.72955" lon="6.94926">
        <ele>1068</ele>
        <time>2025-09-27T08:09:03Z</time>
      </trkpt>
      <trkpt lat="43.7295" lon="6.94926">
        <ele>1068.5</ele>
        <time>2025-09-27T08:09:06Z</time>
      </trkpt>
      <trkpt lat="43.72945" lon="6.94925">
        <ele>1069</ele>
        <time>2025-09-27T08:09:09Z</time>
      </trkpt>
      <trkpt lat="43.7294" lon="6.94924">
        <ele>1069.5</ele>
        <time>2025-09-27T08:09:12Z</time>
      </trkpt>
      <trkpt lat="43.72935" lon="6.94924">
        <ele>1070</ele>
        <time>2025-09-27T08:09:15Z</time>
      </trkpt>
      <trkpt lat="43.7293" lon="6.94924">
        <ele>1070.5</ele>
        <time>2025-09-27T08:09:18Z</time>
      </trkpt>
      <trkpt lat="43.72926" lon="6.94924">
        <ele>1070.9</ele>
        <time>2025-09-27T08:09:21Z</time>
      </trkpt>
      <trkpt lat="43.7292" lon="6.94926">
        <ele>1071.5</ele>
        <time>2025-09-27T08:09:25Z</time>
      </trkpt>
      <trkpt lat="43.72914" lon="6.94925">
        <ele>1072</ele>
        <time>2025-09-27T08:09:29Z</time>
      </trkpt>
      <trkpt lat="43.72909" lon="6.94925">
        <ele>1072.5</ele>
        <time>2025-09-27T08:09:32Z</time>
      </trkpt>
      <trkpt lat="43.72903" lon="6.94925">
        <ele>1073</ele>
        <time>2025-09-27T08:09:35Z</time>
      </trkpt>
      <trkpt lat="43.72898" lon="6.94926">
        <ele>1073.5</ele>
        <time>2025-09-27T08:09:38Z</time>
      </trkpt>
      <trkpt lat="43.72892" lon="6.94926">
        <ele>1074</ele>
        <time>2025-09-27T08:09:41Z</time>
      </trkpt>
      <trkpt lat="43.72887" lon="6.94925">
        <ele>1074.5</ele>
        <time>2025-09-27T08:09:44Z</time>
      </trkpt>
      <trkpt lat="43.72882" lon="6.94922">
        <ele>1075</ele>
        <time>2025-09-27T08:09:47Z</time>
      </trkpt>
      <trkpt lat="43.72877" lon="6.9492">
        <ele>1075.5</ele>
        <time>2025-09-27T08:09:50Z</time>
      </trkpt>
      <trkpt lat="43.72873" lon="6.94918">
        <ele>1076</ele>
        <time>2025-09-27T08:09:53Z</time>
      </trkpt>
      <trkpt lat="43.72869" lon="6.94914">
        <ele>1076.5</ele>
        <time>2025-09-27T08:09:56Z</time>
      </trkpt>
      <trkpt lat="43.72865" lon="6.9491">
        <ele>1077</ele>
        <time>2025-09-27T08:09:59Z</time>
      </trkpt>
      <trkpt lat="43.72861" lon="6.94906">
        <ele>1077.6</ele>
        <time>2025-09-27T08:10:02Z</time>
      </trkpt>
      <trkpt lat="43.72857" lon="6.94902">
        <ele>1078.1</ele>
        <time>2025-09-27T08:10:05Z</time>
      </trkpt>
      <trkpt lat="43.72855" lon="6.94896">
        <ele>1078.7</ele>
        <time>2025-09-27T08:10:08Z</time>
      </trkpt>
      <trkpt lat="43.72854" lon="6.9489">
        <ele>1079.2</ele>
        <time>2025-09-27T08:10:11Z</time>
      </trkpt>
      <trkpt lat="43.72854" lon="6.94884">
        <ele>1079.8</ele>
        <time>2025-09-27T08:10:14Z</time>
      </trkpt>
      <trkpt lat="43.72855" lon="6.94877">
        <ele>1080.4</ele>
        <time>2025-09-27T08:10:17Z</time>
      </trkpt>
      <trkpt lat="43.72856" lon="6.94871">
        <ele>1081</ele>
        <time>2025-09-27T08:10:20Z</time>
      </trkpt>
      <trkpt lat="43.72857" lon="6.94865">
        <ele>1081.6</ele>
        <time>2025-09-27T08:10:23Z</time>
      </trkpt>
      <trkpt lat="43.72858" lon="6.94857">
        <ele>1082.3</ele>
        <time>2025-09-27T08:10:27Z</time>
      </trkpt>
      <trkpt lat="43.72855" lon="6.9485">
        <ele>1083</ele>
        <time>2025-09-27T08:10:31Z</time>
      </trkpt>
      <trkpt lat="43.72851" lon="6.94845">
        <ele>1083.4</ele>
        <time>2025-09-27T08:10:34Z</time>
      </trkpt>
      <trkpt lat="43.72847" lon="6.94841">
        <ele>1083.9</ele>
        <time>2025-09-27T08:10:37Z</time>
      </trkpt>
      <trkpt lat="43.72843" lon="6.94837">
        <ele>1084.3</ele>
        <time>2025-09-27T08:10:40Z</time>
      </trkpt>
      <trkpt lat="43.72839" lon="6.94831">
        <ele>1084.7</ele>
        <time>2025-09-27T08:10:44Z</time>
      </trkpt>
      <trkpt lat="43.72836" lon="6.94824">
        <ele>1085</ele>
        <time>2025-09-27T08:10:47Z</time>
      </trkpt>
      <trkpt lat="43.72834" lon="6.94818">
        <ele>1085.4</ele>
        <time>2025-09-27T08:10:50Z</time>
      </trkpt>
      <trkpt lat="43.72833" lon="6.94811">
        <ele>1085.8</ele>
        <time>2025-09-27T08:10:53Z</time>
      </trkpt>
      <trkpt lat="43.72834" lon="6.94803">
        <ele>1086.2</ele>
        <time>2025-09-27T08:10:56Z</time>
      </trkpt>
      <trkpt lat="43.72835" lon="6.94797">
        <ele>1086.7</ele>
        <time>2025-09-27T08:10:59Z</time>
      </trkpt>
      <trkpt lat="43.72836" lon="6.9479">
        <ele>1087.2</ele>
        <time>2025-09-27T08:11:02Z</time>
      </trkpt>
      <trkpt lat="43.72836" lon="6.94782">
        <ele>1087.9</ele>
        <time>2025-09-27T08:11:06Z</time>
      </trkpt>
      <trkpt lat="43.72836" lon="6.94776">
        <ele>1088.4</ele>
        <time>2025-09-27T08:11:09Z</time>
      </trkpt>
      <trkpt lat="43.72834" lon="6.9477">
        <ele>1089</ele>
        <time>2025-09-27T08:11:12Z</time>
      </trkpt>
      <trkpt lat="43.72832" lon="6.94764">
        <ele>1089.6</ele>
        <time>2025-09-27T08:11:15Z</time>
      </trkpt>
      <trkpt lat="43.7283" lon="6.94758">
        <ele>1090.2</ele>
        <time>2025-09-27T08:11:18Z</time>
      </trkpt>
      <trkpt lat="43.72827" lon="6.94752">
        <ele>1090.9</ele>
        <time>2025-09-27T08:11:22Z</time>
      </trkpt>
      <trkpt lat="43.72824" lon="6.94745">
        <ele>1091.6</ele>
        <time>2025-09-27T08:11:26Z</time>
      </trkpt>
      <trkpt lat="43.7282" lon="6.94739">
        <ele>1092.3</ele>
        <time>2025-09-27T08:11:30Z</time>
      </trkpt>
      <trkpt lat="43.72816" lon="6.94733">
        <ele>1093</ele>
        <time>2025-09-27T08:11:34Z</time>
      </trkpt>
      <trkpt lat="43.72812" lon="6.94727">
        <ele>1093.6</ele>
        <time>2025-09-27T08:11:38Z</time>
      </trkpt>
      <trkpt lat="43.72808" lon="6.94723">
        <ele>1094.1</ele>
        <time>2025-09-27T08:11:41Z</time>
      </trkpt>
      <trkpt lat="43.72805" lon="6.94718">
        <ele>1094.6</ele>
        <time>2025-09-27T08:11:44Z</time>
      </trkpt>
      <trkpt lat="43.72801" lon="6.94712">
        <ele>1095.1</ele>
        <time>2025-09-27T08:11:48Z</time>
      </trkpt>
      <trkpt lat="43.72799" lon="6.94707">
        <ele>1095.5</ele>
        <time>2025-09-27T08:11:51Z</time>
      </trkpt>
      <trkpt lat="43.72797" lon="6.94701">
        <ele>1095.9</ele>
        <time>2025-09-27T08:11:54Z</time>
      </trkpt>
      <trkpt lat="43.72796" lon="6.94694">
        <ele>1096.4</ele>
        <time>2025-09-27T08:11:57Z</time>
      </trkpt>
      <trkpt lat="43.72795" lon="6.94687">
        <ele>1096.8</ele>
        <time>2025-09-27T08:12:00Z</time>
      </trkpt>
      <trkpt lat="43.72794" lon="6.94681">
        <ele>1097.3</ele>
        <time>2025-09-27T08:12:03Z</time>
      </trkpt>
      <trkpt lat="43.72793" lon="6.94674">
        <ele>1097.7</ele>
        <time>2025-09-27T08:12:06Z</time>
      </trkpt>
      <trkpt lat="43.72791" lon="6.94668">
        <ele>1098.1</ele>
        <time>2025-09-27T08:12:09Z</time>
      </trkpt>
      <trkpt lat="43.72789" lon="6.94662">
        <ele>1098.5</ele>
        <time>2025-09-27T08:12:12Z</time>
      </trkpt>
      <trkpt lat="43.72788" lon="6.94656">
        <ele>1098.9</ele>
        <time>2025-09-27T08:12:15Z</time>
      </trkpt>
      <trkpt lat="43.72787" lon="6.9465">
        <ele>1099.3</ele>
        <time>2025-09-27T08:12:18Z</time>
      </trkpt>
      <trkpt lat="43.72785" lon="6.94644">
        <ele>1099.7</ele>
        <time>2025-09-27T08:12:21Z</time>
      </trkpt>
      <trkpt lat="43.72783" lon="6.94638">
        <ele>1100.1</ele>
        <time>2025-09-27T08:12:24Z</time>
      </trkpt>
      <trkpt lat="43.72779" lon="6.94632">
        <ele>1100.5</ele>
        <time>2025-09-27T08:12:28Z</time>
      </trkpt>
      <trkpt lat="43.72774" lon="6.94628">
        <ele>1100.8</ele>
        <time>2025-09-27T08:12:32Z</time>
      </trkpt>
      <trkpt lat="43.7277" lon="6.94626">
        <ele>1101.1</ele>
        <time>2025-09-27T08:12:35Z</time>
      </trkpt>
      <trkpt lat="43.72767" lon="6.9462">
        <ele>1101.4</ele>
        <time>2025-09-27T08:12:39Z</time>
      </trkpt>
      <trkpt lat="43.72768" lon="6.94614">
        <ele>1101.7</ele>
        <time>2025-09-27T08:12:43Z</time>
      </trkpt>
      <trkpt lat="43.72773" lon="6.94612">
        <ele>1102</ele>
        <time>2025-09-27T08:15:36Z</time>
      </trkpt>
      <trkpt lat="43.72777" lon="6.94607">
        <ele>1102.3</ele>
        <time>2025-09-27T08:15:42Z</time>
      </trkpt>
      <trkpt lat="43.7278" lon="6.94601">
        <ele>1102.6</ele>
        <time>2025-09-27T08:15:46Z</time>
      </trkpt>
      <trkpt lat="43.72781" lon="6.94594">
        <ele>1103.1</ele>
        <time>2025-09-27T08:15:55Z</time>
      </trkpt>
      <trkpt lat="43.72781" lon="6.94586">
        <ele>1103.7</ele>
        <time>2025-09-27T08:16:01Z</time>
      </trkpt>
      <trkpt lat="43.72781" lon="6.94578">
        <ele>1104.2</ele>
        <time>2025-09-27T08:16:04Z</time>
      </trkpt>
      <trkpt lat="43.72783" lon="6.94571">
        <ele>1104.4</ele>
        <time>2025-09-27T08:16:07Z</time>
      </trkpt>
      <trkpt lat="43.72782" lon="6.94565">
        <ele>1104.6</ele>
        <time>2025-09-27T08:16:10Z</time>
      </trkpt>
      <trkpt lat="43.72784" lon="6.94557">
        <ele>1104.8</ele>
        <time>2025-09-27T08:16:14Z</time>
      </trkpt>
      <trkpt lat="43.72783" lon="6.9455">
        <ele>1105.1</ele>
        <time>2025-09-27T08:16:18Z</time>
      </trkpt>
      <trkpt lat="43.72783" lon="6.94542">
        <ele>1105.4</ele>
        <time>2025-09-27T08:16:22Z</time>
      </trkpt>
      <trkpt lat="43.72784" lon="6.94536">
        <ele>1105.6</ele>
        <time>2025-09-27T08:16:25Z</time>
      </trkpt>
      <trkpt lat="43.72785" lon="6.94528">
        <ele>1105.8</ele>
        <time>2025-09-27T08:16:28Z</time>
      </trkpt>
      <trkpt lat="43.72787" lon="6.9452">
        <ele>1105.9</ele>
        <time>2025-09-27T08:16:31Z</time>
      </trkpt>
      <trkpt lat="43.72787" lon="6.94514">
        <ele>1106</ele>
        <time>2025-09-27T08:16:33Z</time>
      </trkpt>
      <trkpt lat="43.72788" lon="6.94505">
        <ele>1106.1</ele>
        <time>2025-09-27T08:16:36Z</time>
      </trkpt>
      <trkpt lat="43.72788" lon="6.94498">
        <ele>1106.1</ele>
        <time>2025-09-27T08:16:38Z</time>
      </trkpt>
      <trkpt lat="43.72789" lon="6.94492">
        <ele>1106.1</ele>
        <time>2025-09-27T08:16:40Z</time>
      </trkpt>
      <trkpt lat="43.7279" lon="6.94486">
        <ele>1106.1</ele>
        <time>2025-09-27T08:16:42Z</time>
      </trkpt>
      <trkpt lat="43.72791" lon="6.94479">
        <ele>1106.2</ele>
        <time>2025-09-27T08:16:44Z</time>
      </trkpt>
      <trkpt lat="43.72792" lon="6.94472">
        <ele>1106.2</ele>
        <time>2025-09-27T08:16:46Z</time>
      </trkpt>
      <trkpt lat="43.72793" lon="6.94466">
        <ele>1106.2</ele>
        <time>2025-09-27T08:16:48Z</time>
      </trkpt>
      <trkpt lat="43.72793" lon="6.94459">
        <ele>1106.3</ele>
        <time>2025-09-27T08:16:50Z</time>
      </trkpt>
      <trkpt lat="43.72795" lon="6.94453">
        <ele>1106.4</ele>
        <time>2025-09-27T08:16:52Z</time>
      </trkpt>
      <trkpt lat="43.72795" lon="6.94446">
        <ele>1106.5</ele>
        <time>2025-09-27T08:16:54Z</time>
      </trkpt>
      <trkpt lat="43.72797" lon="6.9444">
        <ele>1106.6</ele>
        <time>2025-09-27T08:16:56Z</time>
      </trkpt>
      <trkpt lat="43.72799" lon="6.94433">
        <ele>1106.7</ele>
        <time>2025-09-27T08:16:58Z</time>
      </trkpt>
      <trkpt lat="43.72801" lon="6.94428">
        <ele>1106.9</ele>
        <time>2025-09-27T08:17:00Z</time>
      </trkpt>
      <trkpt lat="43.72802" lon="6.94421">
        <ele>1107.1</ele>
        <time>2025-09-27T08:17:02Z</time>
      </trkpt>
      <trkpt lat="43.72803" lon="6.94414">
        <ele>1107.3</ele>
        <time>2025-09-27T08:17:04Z</time>
      </trkpt>
      <trkpt lat="43.72802" lon="6.94408">
        <ele>1107.6</ele>
        <time>2025-09-27T08:17:06Z</time>
      </trkpt>
      <trkpt lat="43.72799" lon="6.944">
        <ele>1108</ele>
        <time>2025-09-27T08:17:09Z</time>
      </trkpt>
      <trkpt lat="43.72796" lon="6.94394">
        <ele>1108.4</ele>
        <time>2025-09-27T08:17:12Z</time>
      </trkpt>
      <trkpt lat="43.72794" lon="6.94388">
        <ele>1108.7</ele>
        <time>2025-09-27T08:17:15Z</time>
      </trkpt>
      <trkpt lat="43.72796" lon="6.9438">
        <ele>1109.1</ele>
        <time>2025-09-27T08:17:18Z</time>
      </trkpt>
      <trkpt lat="43.72798" lon="6.94373">
        <ele>1109.3</ele>
        <time>2025-09-27T08:17:21Z</time>
      </trkpt>
      <trkpt lat="43.72799" lon="6.94364">
        <ele>1109.7</ele>
        <time>2025-09-27T08:17:24Z</time>
      </trkpt>
      <trkpt lat="43.72801" lon="6.94358">
        <ele>1109.9</ele>
        <time>2025-09-27T08:17:26Z</time>
      </trkpt>
      <trkpt lat="43.72802" lon="6.9435">
        <ele>1110.2</ele>
        <time>2025-09-27T08:17:29Z</time>
      </trkpt>
      <trkpt lat="43.72803" lon="6.94342">
        <ele>1110.4</ele>
        <time>2025-09-27T08:17:32Z</time>
      </trkpt>
      <trkpt lat="43.72802" lon="6.94334">
        <ele>1110.7</ele>
        <time>2025-09-27T08:17:35Z</time>
      </trkpt>
      <trkpt lat="43.728" lon="6.94327">
        <ele>1110.8</ele>
        <time>2025-09-27T08:17:37Z</time>
      </trkpt>
      <trkpt lat="43.72799" lon="6.94321">
        <ele>1110.9</ele>
        <time>2025-09-27T08:17:39Z</time>
      </trkpt>
      <trkpt lat="43.72797" lon="6.94315">
        <ele>1111.1</ele>
        <time>2025-09-27T08:17:41Z</time>
      </trkpt>
      <trkpt lat="43.72797" lon="6.94306">
        <ele>1111.3</ele>
        <time>2025-09-27T08:17:44Z</time>
      </trkpt>
      <trkpt lat="43.72798" lon="6.94298">
        <ele>1111.4</ele>
        <time>2025-09-27T08:17:47Z</time>
      </trkpt>
      <trkpt lat="43.72799" lon="6.94291">
        <ele>1111.5</ele>
        <time>2025-09-27T08:17:49Z</time>
      </trkpt>
      <trkpt lat="43.72799" lon="6.94285">
        <ele>1111.7</ele>
        <time>2025-09-27T08:17:51Z</time>
      </trkpt>
      <trkpt lat="43.72799" lon="6.94276">
        <ele>1111.8</ele>
        <time>2025-09-27T08:17:54Z</time>
      </trkpt>
      <trkpt lat="43.72798" lon="6.94269">
        <ele>1112</ele>
        <time>2025-09-27T08:17:56Z</time>
      </trkpt>
      <trkpt lat="43.72796" lon="6.94263">
        <ele>1112.1</ele>
        <time>2025-09-27T08:17:58Z</time>
      </trkpt>
      <trkpt lat="43.72794" lon="6.94257">
        <ele>1112.2</ele>
        <time>2025-09-27T08:18:00Z</time>
      </trkpt>
      <trkpt lat="43.72793" lon="6.94251">
        <ele>1112.4</ele>
        <time>2025-09-27T08:18:02Z</time>
      </trkpt>
      <trkpt lat="43.72791" lon="6.94245">
        <ele>1112.5</ele>
        <time>2025-09-27T08:18:04Z</time>
      </trkpt>
      <trkpt lat="43.72789" lon="6.94237">
        <ele>1112.8</ele>
        <time>2025-09-27T08:18:07Z</time>
      </trkpt>
      <trkpt lat="43.72786" lon="6.9423">
        <ele>1113</ele>
        <time>2025-09-27T08:18:10Z</time>
      </trkpt>
      <trkpt lat="43.72785" lon="6.94223">
        <ele>1113.4</ele>
        <time>2025-09-27T08:18:13Z</time>
      </trkpt>
      <trkpt lat="43.72783" lon="6.94215">
        <ele>1113.8</ele>
        <time>2025-09-27T08:18:17Z</time>
      </trkpt>
      <trkpt lat="43.72783" lon="6.94207">
        <ele>1114.3</ele>
        <time>2025-09-27T08:18:21Z</time>
      </trkpt>
      <trkpt lat="43.72785" lon="6.942">
        <ele>1114.9</ele>
        <time>2025-09-27T08:18:25Z</time>
      </trkpt>
      <trkpt lat="43.72785" lon="6.94192">
        <ele>1115.5</ele>
        <time>2025-09-27T08:18:29Z</time>
      </trkpt>
      <trkpt lat="43.72785" lon="6.94185">
        <ele>1116.1</ele>
        <time>2025-09-27T08:18:34Z</time>
      </trkpt>
      <trkpt lat="43.72784" lon="6.94178">
        <ele>1116.8</ele>
        <time>2025-09-27T08:18:38Z</time>
      </trkpt>
      <trkpt lat="43.72784" lon="6.94171">
        <ele>1117.5</ele>
        <time>2025-09-27T08:18:42Z</time>
      </trkpt>
      <trkpt lat="43.72784" lon="6.94163">
        <ele>1118.4</ele>
        <time>2025-09-27T08:18:47Z</time>
      </trkpt>
      <trkpt lat="43.72784" lon="6.94156">
        <ele>1119.2</ele>
        <time>2025-09-27T08:18:51Z</time>
      </trkpt>
      <trkpt lat="43.72782" lon="6.9415">
        <ele>1119.9</ele>
        <time>2025-09-27T08:18:54Z</time>
      </trkpt>
      <trkpt lat="43.7278" lon="6.94144">
        <ele>1120.7</ele>
        <time>2025-09-27T08:18:58Z</time>
      </trkpt>
      <trkpt lat="43.72779" lon="6.94137">
        <ele>1121.5</ele>
        <time>2025-09-27T08:19:02Z</time>
      </trkpt>
      <trkpt lat="43.72779" lon="6.94129">
        <ele>1122.4</ele>
        <time>2025-09-27T08:19:07Z</time>
      </trkpt>
      <trkpt lat="43.7278" lon="6.94122">
        <ele>1123.2</ele>
        <time>2025-09-27T08:19:11Z</time>
      </trkpt>
      <trkpt lat="43.7278" lon="6.94115">
        <ele>1123.9</ele>
        <time>2025-09-27T08:19:15Z</time>
      </trkpt>
      <trkpt lat="43.72783" lon="6.9411">
        <ele>1124.5</ele>
        <time>2025-09-27T08:19:19Z</time>
      </trkpt>
      <trkpt lat="43.72786" lon="6.94102">
        <ele>1125.1</ele>
        <time>2025-09-27T08:19:22Z</time>
      </trkpt>
      <trkpt lat="43.72789" lon="6.94095">
        <ele>1125.6</ele>
        <time>2025-09-27T08:19:26Z</time>
      </trkpt>
      <trkpt lat="43.72792" lon="6.94088">
        <ele>1126.2</ele>
        <time>2025-09-27T08:19:29Z</time>
      </trkpt>
      <trkpt lat="43.72793" lon="6.94081">
        <ele>1126.6</ele>
        <time>2025-09-27T08:19:32Z</time>
      </trkpt>
      <trkpt lat="43.72794" lon="6.94074">
        <ele>1127.1</ele>
        <time>2025-09-27T08:19:36Z</time>
      </trkpt>
      <trkpt lat="43.72795" lon="6.94066">
        <ele>1127.6</ele>
        <time>2025-09-27T08:19:41Z</time>
      </trkpt>
      <trkpt lat="43.72796" lon="6.94059">
        <ele>1128.2</ele>
        <time>2025-09-27T08:19:45Z</time>
      </trkpt>
      <trkpt lat="43.72797" lon="6.94052">
        <ele>1128.8</ele>
        <time>2025-09-27T08:19:49Z</time>
      </trkpt>
      <trkpt lat="43.728" lon="6.94045">
        <ele>1129.4</ele>
        <time>2025-09-27T08:19:53Z</time>
      </trkpt>
      <trkpt lat="43.72803" lon="6.94038">
        <ele>1130</ele>
        <time>2025-09-27T08:19:56Z</time>
      </trkpt>
      <trkpt lat="43.72805" lon="6.94032">
        <ele>1130.4</ele>
        <time>2025-09-27T08:19:59Z</time>
      </trkpt>
      <trkpt lat="43.72809" lon="6.94025">
        <ele>1130.9</ele>
        <time>2025-09-27T08:20:03Z</time>
      </trkpt>
      <trkpt lat="43.72812" lon="6.9402">
        <ele>1131.2</ele>
        <time>2025-09-27T08:20:06Z</time>
      </trkpt>
      <trkpt lat="43.72816" lon="6.94015">
        <ele>1131.6</ele>
        <time>2025-09-27T08:20:09Z</time>
      </trkpt>
      <trkpt lat="43.72819" lon="6.9401">
        <ele>1131.9</ele>
        <time>2025-09-27T08:20:12Z</time>
      </trkpt>
      <trkpt lat="43.72823" lon="6.94005">
        <ele>1132.3</ele>
        <time>2025-09-27T08:20:16Z</time>
      </trkpt>
      <trkpt lat="43.72828" lon="6.94001">
        <ele>1132.9</ele>
        <time>2025-09-27T08:20:20Z</time>
      </trkpt>
      <trkpt lat="43.72831" lon="6.93995">
        <ele>1133.3</ele>
        <time>2025-09-27T08:20:23Z</time>
      </trkpt>
      <trkpt lat="43.72834" lon="6.93989">
        <ele>1134</ele>
        <time>2025-09-27T08:20:27Z</time>
      </trkpt>
      <trkpt lat="43.72835" lon="6.93982">
        <ele>1134.7</ele>
        <time>2025-09-27T08:20:32Z</time>
      </trkpt>
      <trkpt lat="43.72829" lon="6.93982">
        <ele>1135.2</ele>
        <time>2025-09-27T08:20:36Z</time>
      </trkpt>
      <trkpt lat="43.72825" lon="6.93981">
        <ele>1135.5</ele>
        <time>2025-09-27T08:21:24Z</time>
      </trkpt>
      <trkpt lat="43.7282" lon="6.9398">
        <ele>1135.9</ele>
        <time>2025-09-27T08:24:01Z</time>
      </trkpt>
      <trkpt lat="43.72815" lon="6.93981">
        <ele>1136.4</ele>
        <time>2025-09-27T08:24:05Z</time>
      </trkpt>
      <trkpt lat="43.72809" lon="6.9398">
        <ele>1136.9</ele>
        <time>2025-09-27T08:24:09Z</time>
      </trkpt>
      <trkpt lat="43.72803" lon="6.9398">
        <ele>1137.4</ele>
        <time>2025-09-27T08:24:13Z</time>
      </trkpt>
      <trkpt lat="43.72797" lon="6.9398">
        <ele>1138</ele>
        <time>2025-09-27T08:24:17Z</time>
      </trkpt>
      <trkpt lat="43.72791" lon="6.9398">
        <ele>1138.5</ele>
        <time>2025-09-27T08:24:21Z</time>
      </trkpt>
      <trkpt lat="43.72786" lon="6.93979">
        <ele>1138.8</ele>
        <time>2025-09-27T08:24:24Z</time>
      </trkpt>
      <trkpt lat="43.72781" lon="6.93979">
        <ele>1139.2</ele>
        <time>2025-09-27T08:24:27Z</time>
      </trkpt>
      <trkpt lat="43.72777" lon="6.93979">
        <ele>1139.4</ele>
        <time>2025-09-27T08:24:30Z</time>
      </trkpt>
      <trkpt lat="43.72772" lon="6.93979">
        <ele>1139.7</ele>
        <time>2025-09-27T08:24:33Z</time>
      </trkpt>
      <trkpt lat="43.72767" lon="6.93978">
        <ele>1139.9</ele>
        <time>2025-09-27T08:24:36Z</time>
      </trkpt>
      <trkpt lat="43.72761" lon="6.93977">
        <ele>1140.2</ele>
        <time>2025-09-27T08:24:40Z</time>
      </trkpt>
      <trkpt lat="43.72756" lon="6.93976">
        <ele>1140.5</ele>
        <time>2025-09-27T08:24:43Z</time>
      </trkpt>
      <trkpt lat="43.72751" lon="6.93976">
        <ele>1140.8</ele>
        <time>2025-09-27T08:24:46Z</time>
      </trkpt>
      <trkpt lat="43.72747" lon="6.93975">
        <ele>1141.1</ele>
        <time>2025-09-27T08:24:49Z</time>
      </trkpt>
      <trkpt lat="43.72742" lon="6.93973">
        <ele>1141.5</ele>
        <time>2025-09-27T08:24:52Z</time>
      </trkpt>
      <trkpt lat="43.72738" lon="6.93972">
        <ele>1141.9</ele>
        <time>2025-09-27T08:24:55Z</time>
      </trkpt>
      <trkpt lat="43.72733" lon="6.93971">
        <ele>1142.4</ele>
        <time>2025-09-27T08:24:58Z</time>
      </trkpt>
      <trkpt lat="43.72729" lon="6.9397">
        <ele>1142.8</ele>
        <time>2025-09-27T08:25:01Z</time>
      </trkpt>
      <trkpt lat="43.72724" lon="6.93969">
        <ele>1143.3</ele>
        <time>2025-09-27T08:25:04Z</time>
      </trkpt>
      <trkpt lat="43.7272" lon="6.93968">
        <ele>1143.8</ele>
        <time>2025-09-27T08:25:07Z</time>
      </trkpt>
      <trkpt lat="43.72715" lon="6.93967">
        <ele>1144.3</ele>
        <time>2025-09-27T08:25:10Z</time>
      </trkpt>
      <trkpt lat="43.7271" lon="6.93966">
        <ele>1144.9</ele>
        <time>2025-09-27T08:25:13Z</time>
      </trkpt>
      <trkpt lat="43.72706" lon="6.93965">
        <ele>1145.4</ele>
        <time>2025-09-27T08:25:16Z</time>
      </trkpt>
      <trkpt lat="43.72701" lon="6.93964">
        <ele>1145.9</ele>
        <time>2025-09-27T08:25:19Z</time>
      </trkpt>
      <trkpt lat="43.72697" lon="6.93963">
        <ele>1146.4</ele>
        <time>2025-09-27T08:25:22Z</time>
      </trkpt>
      <trkpt lat="43.72691" lon="6.93961">
        <ele>1147.1</ele>
        <time>2025-09-27T08:25:26Z</time>
      </trkpt>
      <trkpt lat="43.72685" lon="6.9396">
        <ele>1147.8</ele>
        <time>2025-09-27T08:25:30Z</time>
      </trkpt>
      <trkpt lat="43.72679" lon="6.93958">
        <ele>1148.5</ele>
        <time>2025-09-27T08:25:34Z</time>
      </trkpt>
      <trkpt lat="43.72674" lon="6.93956">
        <ele>1149.2</ele>
        <time>2025-09-27T08:25:38Z</time>
      </trkpt>
      <trkpt lat="43.72668" lon="6.93956">
        <ele>1149.9</ele>
        <time>2025-09-27T08:25:42Z</time>
      </trkpt>
      <trkpt lat="43.72662" lon="6.93954">
        <ele>1150.5</ele>
        <time>2025-09-27T08:25:46Z</time>
      </trkpt>
      <trkpt lat="43.72657" lon="6.93953">
        <ele>1151.2</ele>
        <time>2025-09-27T08:25:50Z</time>
      </trkpt>
      <trkpt lat="43.72651" lon="6.93952">
        <ele>1151.9</ele>
        <time>2025-09-27T08:25:54Z</time>
      </trkpt>
      <trkpt lat="43.72646" lon="6.93951">
        <ele>1152.4</ele>
        <time>2025-09-27T08:25:57Z</time>
      </trkpt>
      <trkpt lat="43.7264" lon="6.9395">
        <ele>1153.1</ele>
        <time>2025-09-27T08:26:01Z</time>
      </trkpt>
      <trkpt lat="43.72634" lon="6.93949">
        <ele>1153.8</ele>
        <time>2025-09-27T08:26:05Z</time>
      </trkpt>
      <trkpt lat="43.7263" lon="6.93948">
        <ele>1154.4</ele>
        <time>2025-09-27T08:26:08Z</time>
      </trkpt>
      <trkpt lat="43.72624" lon="6.93946">
        <ele>1155.1</ele>
        <time>2025-09-27T08:26:12Z</time>
      </trkpt>
      <trkpt lat="43.72618" lon="6.93945">
        <ele>1155.9</ele>
        <time>2025-09-27T08:26:16Z</time>
      </trkpt>
      <trkpt lat="43.72613" lon="6.93944">
        <ele>1156.8</ele>
        <time>2025-09-27T08:26:20Z</time>
      </trkpt>
      <trkpt lat="43.72607" lon="6.93943">
        <ele>1157.6</ele>
        <time>2025-09-27T08:26:24Z</time>
      </trkpt>
      <trkpt lat="43.72602" lon="6.93942">
        <ele>1158.4</ele>
        <time>2025-09-27T08:26:28Z</time>
      </trkpt>
      <trkpt lat="43.72596" lon="6.93941">
        <ele>1159.2</ele>
        <time>2025-09-27T08:26:32Z</time>
      </trkpt>
      <trkpt lat="43.72591" lon="6.9394">
        <ele>1160</ele>
        <time>2025-09-27T08:26:36Z</time>
      </trkpt>
      <trkpt lat="43.72585" lon="6.93939">
        <ele>1160.8</ele>
        <time>2025-09-27T08:26:40Z</time>
      </trkpt>
      <trkpt lat="43.7258" lon="6.93938">
        <ele>1161.5</ele>
        <time>2025-09-27T08:26:44Z</time>
      </trkpt>
      <trkpt lat="43.72574" lon="6.93936">
        <ele>1162.3</ele>
        <time>2025-09-27T08:26:48Z</time>
      </trkpt>
      <trkpt lat="43.72569" lon="6.93935">
        <ele>1163.1</ele>
        <time>2025-09-27T08:26:52Z</time>
      </trkpt>
      <trkpt lat="43.72563" lon="6.93935">
        <ele>1163.8</ele>
        <time>2025-09-27T08:26:56Z</time>
      </trkpt>
      <trkpt lat="43.72558" lon="6.93934">
        <ele>1164.6</ele>
        <time>2025-09-27T08:27:00Z</time>
      </trkpt>
      <trkpt lat="43.72552" lon="6.93933">
        <ele>1165.4</ele>
        <time>2025-09-27T08:27:04Z</time>
      </trkpt>
      <trkpt lat="43.72547" lon="6.93932">
        <ele>1166.2</ele>
        <time>2025-09-27T08:27:08Z</time>
      </trkpt>
      <trkpt lat="43.72542" lon="6.9393">
        <ele>1167</ele>
        <time>2025-09-27T08:27:12Z</time>
      </trkpt>
      <trkpt lat="43.72536" lon="6.93929">
        <ele>1167.8</ele>
        <time>2025-09-27T08:27:16Z</time>
      </trkpt>
      <trkpt lat="43.72531" lon="6.93928">
        <ele>1168.6</ele>
        <time>2025-09-27T08:27:20Z</time>
      </trkpt>
      <trkpt lat="43.72526" lon="6.93926">
        <ele>1169.4</ele>
        <time>2025-09-27T08:27:24Z</time>
      </trkpt>
      <trkpt lat="43.72521" lon="6.93925">
        <ele>1170.2</ele>
        <time>2025-09-27T08:27:28Z</time>
      </trkpt>
      <trkpt lat="43.72515" lon="6.93924">
        <ele>1171</ele>
        <time>2025-09-27T08:27:32Z</time>
      </trkpt>
      <trkpt lat="43.7251" lon="6.93922">
        <ele>1171.9</ele>
        <time>2025-09-27T08:27:36Z</time>
      </trkpt>
      <trkpt lat="43.72505" lon="6.93921">
        <ele>1172.4</ele>
        <time>2025-09-27T08:27:39Z</time>
      </trkpt>
      <trkpt lat="43.725" lon="6.93917">
        <ele>1173.1</ele>
        <time>2025-09-27T08:27:43Z</time>
      </trkpt>
      <trkpt lat="43.72495" lon="6.93913">
        <ele>1173.6</ele>
        <time>2025-09-27T08:27:47Z</time>
      </trkpt>
      <trkpt lat="43.72491" lon="6.93908">
        <ele>1174.1</ele>
        <time>2025-09-27T08:27:51Z</time>
      </trkpt>
      <trkpt lat="43.72487" lon="6.93903">
        <ele>1174.5</ele>
        <time>2025-09-27T08:27:55Z</time>
      </trkpt>
      <trkpt lat="43.72483" lon="6.93898">
        <ele>1174.8</ele>
        <time>2025-09-27T08:27:58Z</time>
      </trkpt>
      <trkpt lat="43.72479" lon="6.93894">
        <ele>1175</ele>
        <time>2025-09-27T08:28:01Z</time>
      </trkpt>
      <trkpt lat="43.72475" lon="6.9389">
        <ele>1175.2</ele>
        <time>2025-09-27T08:28:04Z</time>
      </trkpt>
      <trkpt lat="43.72471" lon="6.93886">
        <ele>1175.5</ele>
        <time>2025-09-27T08:28:07Z</time>
      </trkpt>
      <trkpt lat="43.72466" lon="6.93882">
        <ele>1175.7</ele>
        <time>2025-09-27T08:28:10Z</time>
      </trkpt>
      <trkpt lat="43.72462" lon="6.93878">
        <ele>1175.9</ele>
        <time>2025-09-27T08:28:13Z</time>
      </trkpt>
      <trkpt lat="43.72458" lon="6.93874">
        <ele>1176.2</ele>
        <time>2025-09-27T08:28:16Z</time>
      </trkpt>
      <trkpt lat="43.72454" lon="6.9387">
        <ele>1176.4</ele>
        <time>2025-09-27T08:28:19Z</time>
      </trkpt>
      <trkpt lat="43.7245" lon="6.93866">
        <ele>1176.6</ele>
        <time>2025-09-27T08:28:22Z</time>
      </trkpt>
      <trkpt lat="43.72447" lon="6.93861">
        <ele>1176.9</ele>
        <time>2025-09-27T08:28:25Z</time>
      </trkpt>
      <trkpt lat="43.72443" lon="6.93855">
        <ele>1177.2</ele>
        <time>2025-09-27T08:28:28Z</time>
      </trkpt>
      <trkpt lat="43.7244" lon="6.93849">
        <ele>1177.5</ele>
        <time>2025-09-27T08:28:31Z</time>
      </trkpt>
      <trkpt lat="43.72436" lon="6.93844">
        <ele>1178</ele>
        <time>2025-09-27T08:28:34Z</time>
      </trkpt>
      <trkpt lat="43.72432" lon="6.93839">
        <ele>1178.5</ele>
        <time>2025-09-27T08:28:37Z</time>
      </trkpt>
      <trkpt lat="43.72428" lon="6.93836">
        <ele>1179</ele>
        <time>2025-09-27T08:28:40Z</time>
      </trkpt>
      <trkpt lat="43.72423" lon="6.93832">
        <ele>1179.6</ele>
        <time>2025-09-27T08:28:43Z</time>
      </trkpt>
      <trkpt lat="43.72419" lon="6.93828">
        <ele>1180.3</ele>
        <time>2025-09-27T08:28:46Z</time>
      </trkpt>
      <trkpt lat="43.72415" lon="6.93825">
        <ele>1180.9</ele>
        <time>2025-09-27T08:28:49Z</time>
      </trkpt>
      <trkpt lat="43.7241" lon="6.93822">
        <ele>1181.5</ele>
        <time>2025-09-27T08:28:52Z</time>
      </trkpt>
      <trkpt lat="43.72406" lon="6.93818">
        <ele>1182.1</ele>
        <time>2025-09-27T08:28:55Z</time>
      </trkpt>
      <trkpt lat="43.72402" lon="6.93815">
        <ele>1182.7</ele>
        <time>2025-09-27T08:28:58Z</time>
      </trkpt>
      <trkpt lat="43.72397" lon="6.93812">
        <ele>1183.3</ele>
        <time>2025-09-27T08:29:01Z</time>
      </trkpt>
      <trkpt lat="43.72393" lon="6.93809">
        <ele>1183.8</ele>
        <time>2025-09-27T08:29:04Z</time>
      </trkpt>
      <trkpt lat="43.72388" lon="6.93806">
        <ele>1184.5</ele>
        <time>2025-09-27T08:29:07Z</time>
      </trkpt>
      <trkpt lat="43.72384" lon="6.93803">
        <ele>1185.1</ele>
        <time>2025-09-27T08:29:10Z</time>
      </trkpt>
      <trkpt lat="43.7238" lon="6.938">
        <ele>1185.7</ele>
        <time>2025-09-27T08:29:13Z</time>
      </trkpt>
      <trkpt lat="43.72376" lon="6.93798">
        <ele>1186.4</ele>
        <time>2025-09-27T08:29:16Z</time>
      </trkpt>
      <trkpt lat="43.7237" lon="6.93795">
        <ele>1187.2</ele>
        <time>2025-09-27T08:29:20Z</time>
      </trkpt>
      <trkpt lat="43.72365" lon="6.93791">
        <ele>1188.1</ele>
        <time>2025-09-27T08:29:24Z</time>
      </trkpt>
      <trkpt lat="43.72361" lon="6.93788">
        <ele>1188.9</ele>
        <time>2025-09-27T08:29:27Z</time>
      </trkpt>
      <trkpt lat="43.72355" lon="6.93785">
        <ele>1189.9</ele>
        <time>2025-09-27T08:29:31Z</time>
      </trkpt>
      <trkpt lat="43.7235" lon="6.93783">
        <ele>1190.8</ele>
        <time>2025-09-27T08:29:35Z</time>
      </trkpt>
      <trkpt lat="43.72344" lon="6.93781">
        <ele>1191.8</ele>
        <time>2025-09-27T08:29:39Z</time>
      </trkpt>
      <trkpt lat="43.72338" lon="6.9378">
        <ele>1192.8</ele>
        <time>2025-09-27T08:29:43Z</time>
      </trkpt>
      <trkpt lat="43.72333" lon="6.9378">
        <ele>1193.7</ele>
        <time>2025-09-27T08:29:47Z</time>
      </trkpt>
      <trkpt lat="43.72327" lon="6.93781">
        <ele>1194.5</ele>
        <time>2025-09-27T08:29:51Z</time>
      </trkpt>
      <trkpt lat="43.72322" lon="6.93781">
        <ele>1195.4</ele>
        <time>2025-09-27T08:29:55Z</time>
      </trkpt>
      <trkpt lat="43.72316" lon="6.93782">
        <ele>1196.3</ele>
        <time>2025-09-27T08:29:59Z</time>
      </trkpt>
      <trkpt lat="43.72311" lon="6.93784">
        <ele>1197.1</ele>
        <time>2025-09-27T08:30:03Z</time>
      </trkpt>
      <trkpt lat="43.72305" lon="6.93786">
        <ele>1197.9</ele>
        <time>2025-09-27T08:30:07Z</time>
      </trkpt>
      <trkpt lat="43.723" lon="6.93789">
        <ele>1198.6</ele>
        <time>2025-09-27T08:30:11Z</time>
      </trkpt>
      <trkpt lat="43.72294" lon="6.93792">
        <ele>1199.3</ele>
        <time>2025-09-27T08:30:15Z</time>
      </trkpt>
      <trkpt lat="43.7229" lon="6.93795">
        <ele>1199.8</ele>
        <time>2025-09-27T08:30:18Z</time>
      </trkpt>
      <trkpt lat="43.72286" lon="6.93798">
        <ele>1200.3</ele>
        <time>2025-09-27T08:30:21Z</time>
      </trkpt>
      <trkpt lat="43.72282" lon="6.93802">
        <ele>1200.8</ele>
        <time>2025-09-27T08:30:24Z</time>
      </trkpt>
      <trkpt lat="43.72278" lon="6.93806">
        <ele>1201.3</ele>
        <time>2025-09-27T08:30:27Z</time>
      </trkpt>
      <trkpt lat="43.72274" lon="6.93811">
        <ele>1201.7</ele>
        <time>2025-09-27T08:30:30Z</time>
      </trkpt>
      <trkpt lat="43.72271" lon="6.93815">
        <ele>1202.2</ele>
        <time>2025-09-27T08:30:33Z</time>
      </trkpt>
      <trkpt lat="43.72267" lon="6.93819">
        <ele>1202.6</ele>
        <time>2025-09-27T08:30:36Z</time>
      </trkpt>
      <trkpt lat="43.72264" lon="6.93824">
        <ele>1203</ele>
        <time>2025-09-27T08:30:39Z</time>
      </trkpt>
      <trkpt lat="43.7226" lon="6.93827">
        <ele>1203.4</ele>
        <time>2025-09-27T08:30:42Z</time>
      </trkpt>
      <trkpt lat="43.72255" lon="6.9383">
        <ele>1203.9</ele>
        <time>2025-09-27T08:30:45Z</time>
      </trkpt>
      <trkpt lat="43.72251" lon="6.93832">
        <ele>1204.3</ele>
        <time>2025-09-27T08:30:48Z</time>
      </trkpt>
      <trkpt lat="43.72246" lon="6.93833">
        <ele>1204.8</ele>
        <time>2025-09-27T08:30:51Z</time>
      </trkpt>
      <trkpt lat="43.72241" lon="6.93836">
        <ele>1205.2</ele>
        <time>2025-09-27T08:30:54Z</time>
      </trkpt>
      <trkpt lat="43.72236" lon="6.93838">
        <ele>1205.7</ele>
        <time>2025-09-27T08:30:57Z</time>
      </trkpt>
      <trkpt lat="43.72232" lon="6.9384">
        <ele>1206.2</ele>
        <time>2025-09-27T08:31:00Z</time>
      </trkpt>
      <trkpt lat="43.72227" lon="6.93843">
        <ele>1206.7</ele>
        <time>2025-09-27T08:31:03Z</time>
      </trkpt>
      <trkpt lat="43.72222" lon="6.93845">
        <ele>1207.2</ele>
        <time>2025-09-27T08:31:06Z</time>
      </trkpt>
      <trkpt lat="43.72217" lon="6.93846">
        <ele>1207.7</ele>
        <time>2025-09-27T08:31:09Z</time>
      </trkpt>
      <trkpt lat="43.72213" lon="6.93847">
        <ele>1208.3</ele>
        <time>2025-09-27T08:31:12Z</time>
      </trkpt>
      <trkpt lat="43.72208" lon="6.93847">
        <ele>1208.8</ele>
        <time>2025-09-27T08:31:15Z</time>
      </trkpt>
      <trkpt lat="43.72203" lon="6.93847">
        <ele>1209.4</ele>
        <time>2025-09-27T08:31:18Z</time>
      </trkpt>
      <trkpt lat="43.72198" lon="6.93846">
        <ele>1210</ele>
        <time>2025-09-27T08:31:21Z</time>
      </trkpt>
      <trkpt lat="43.72194" lon="6.93845">
        <ele>1210.6</ele>
        <time>2025-09-27T08:31:24Z</time>
      </trkpt>
      <trkpt lat="43.72189" lon="6.93843">
        <ele>1211.2</ele>
        <time>2025-09-27T08:31:27Z</time>
      </trkpt>
      <trkpt lat="43.72184" lon="6.93841">
        <ele>1211.8</ele>
        <time>2025-09-27T08:31:30Z</time>
      </trkpt>
      <trkpt lat="43.7218" lon="6.9384">
        <ele>1212.4</ele>
        <time>2025-09-27T08:31:33Z</time>
      </trkpt>
      <trkpt lat="43.72175" lon="6.93838">
        <ele>1213</ele>
        <time>2025-09-27T08:31:36Z</time>
      </trkpt>
      <trkpt lat="43.72171" lon="6.93835">
        <ele>1213.6</ele>
        <time>2025-09-27T08:31:39Z</time>
      </trkpt>
      <trkpt lat="43.72166" lon="6.9383">
        <ele>1214.4</ele>
        <time>2025-09-27T08:31:43Z</time>
      </trkpt>
      <trkpt lat="43.72162" lon="6.93826">
        <ele>1215.2</ele>
        <time>2025-09-27T08:31:47Z</time>
      </trkpt>
      <trkpt lat="43.72158" lon="6.93822">
        <ele>1215.8</ele>
        <time>2025-09-27T08:31:50Z</time>
      </trkpt>
      <trkpt lat="43.72154" lon="6.93818">
        <ele>1216.4</ele>
        <time>2025-09-27T08:31:53Z</time>
      </trkpt>
      <trkpt lat="43.72151" lon="6.93814">
        <ele>1217</ele>
        <time>2025-09-27T08:31:56Z</time>
      </trkpt>
      <trkpt lat="43.72147" lon="6.93809">
        <ele>1217.6</ele>
        <time>2025-09-27T08:31:59Z</time>
      </trkpt>
      <trkpt lat="43.72144" lon="6.93805">
        <ele>1218.2</ele>
        <time>2025-09-27T08:32:02Z</time>
      </trkpt>
      <trkpt lat="43.7214" lon="6.938">
        <ele>1218.8</ele>
        <time>2025-09-27T08:32:05Z</time>
      </trkpt>
      <trkpt lat="43.72136" lon="6.93795">
        <ele>1219.6</ele>
        <time>2025-09-27T08:32:09Z</time>
      </trkpt>
      <trkpt lat="43.72133" lon="6.93791">
        <ele>1220.2</ele>
        <time>2025-09-27T08:32:12Z</time>
      </trkpt>
      <trkpt lat="43.72129" lon="6.93787">
        <ele>1220.8</ele>
        <time>2025-09-27T08:32:15Z</time>
      </trkpt>
      <trkpt lat="43.72125" lon="6.93781">
        <ele>1221.7</ele>
        <time>2025-09-27T08:32:19Z</time>
      </trkpt>
      <trkpt lat="43.72121" lon="6.93775">
        <ele>1222.5</ele>
        <time>2025-09-27T08:32:23Z</time>
      </trkpt>
      <trkpt lat="43.72116" lon="6.9377">
        <ele>1223.4</ele>
        <time>2025-09-27T08:32:27Z</time>
      </trkpt>
      <trkpt lat="43.72113" lon="6.93766">
        <ele>1224.1</ele>
        <time>2025-09-27T08:32:30Z</time>
      </trkpt>
      <trkpt lat="43.72109" lon="6.93761">
        <ele>1224.7</ele>
        <time>2025-09-27T08:32:33Z</time>
      </trkpt>
      <trkpt lat="43.72105" lon="6.93757">
        <ele>1225.4</ele>
        <time>2025-09-27T08:32:36Z</time>
      </trkpt>
      <trkpt lat="43.72102" lon="6.93754">
        <ele>1226.1</ele>
        <time>2025-09-27T08:32:39Z</time>
      </trkpt>
      <trkpt lat="43.72098" lon="6.9375">
        <ele>1226.9</ele>
        <time>2025-09-27T08:32:42Z</time>
      </trkpt>
      <trkpt lat="43.72094" lon="6.93746">
        <ele>1227.6</ele>
        <time>2025-09-27T08:32:45Z</time>
      </trkpt>
      <trkpt lat="43.7209" lon="6.93742">
        <ele>1228.6</ele>
        <time>2025-09-27T08:32:49Z</time>
      </trkpt>
      <trkpt lat="43.72085" lon="6.93738">
        <ele>1229.5</ele>
        <time>2025-09-27T08:32:53Z</time>
      </trkpt>
      <trkpt lat="43.72081" lon="6.93734">
        <ele>1230.4</ele>
        <time>2025-09-27T08:32:57Z</time>
      </trkpt>
      <trkpt lat="43.72076" lon="6.93729">
        <ele>1231.3</ele>
        <time>2025-09-27T08:33:01Z</time>
      </trkpt>
      <trkpt lat="43.72072" lon="6.93725">
        <ele>1232.1</ele>
        <time>2025-09-27T08:33:05Z</time>
      </trkpt>
      <trkpt lat="43.72068" lon="6.93721">
        <ele>1233</ele>
        <time>2025-09-27T08:33:09Z</time>
      </trkpt>
      <trkpt lat="43.72063" lon="6.93716">
        <ele>1233.9</ele>
        <time>2025-09-27T08:33:13Z</time>
      </trkpt>
      <trkpt lat="43.72059" lon="6.93712">
        <ele>1234.8</ele>
        <time>2025-09-27T08:33:17Z</time>
      </trkpt>
      <trkpt lat="43.72055" lon="6.93708">
        <ele>1235.6</ele>
        <time>2025-09-27T08:33:21Z</time>
      </trkpt>
      <trkpt lat="43.7205" lon="6.93703">
        <ele>1236.6</ele>
        <time>2025-09-27T08:33:25Z</time>
      </trkpt>
      <trkpt lat="43.72045" lon="6.937">
        <ele>1237.5</ele>
        <time>2025-09-27T08:33:29Z</time>
      </trkpt>
      <trkpt lat="43.72041" lon="6.93696">
        <ele>1238.5</ele>
        <time>2025-09-27T08:33:33Z</time>
      </trkpt>
      <trkpt lat="43.72036" lon="6.93692">
        <ele>1239.5</ele>
        <time>2025-09-27T08:33:37Z</time>
      </trkpt>
      <trkpt lat="43.72031" lon="6.93687">
        <ele>1240.4</ele>
        <time>2025-09-27T08:33:41Z</time>
      </trkpt>
      <trkpt lat="43.72027" lon="6.93684">
        <ele>1241.3</ele>
        <time>2025-09-27T08:33:45Z</time>
      </trkpt>
      <trkpt lat="43.72023" lon="6.93679">
        <ele>1242.2</ele>
        <time>2025-09-27T08:33:49Z</time>
      </trkpt>
      <trkpt lat="43.72019" lon="6.93675">
        <ele>1243</ele>
        <time>2025-09-27T08:33:53Z</time>
      </trkpt>
      <trkpt lat="43.72015" lon="6.9367">
        <ele>1243.8</ele>
        <time>2025-09-27T08:33:57Z</time>
      </trkpt>
      <trkpt lat="43.7201" lon="6.93665">
        <ele>1244.7</ele>
        <time>2025-09-27T08:34:01Z</time>
      </trkpt>
      <trkpt lat="43.72006" lon="6.93661">
        <ele>1245.5</ele>
        <time>2025-09-27T08:34:05Z</time>
      </trkpt>
      <trkpt lat="43.72002" lon="6.93656">
        <ele>1246.3</ele>
        <time>2025-09-27T08:34:09Z</time>
      </trkpt>
      <trkpt lat="43.71998" lon="6.93652">
        <ele>1247.1</ele>
        <time>2025-09-27T08:34:13Z</time>
      </trkpt>
      <trkpt lat="43.71994" lon="6.93648">
        <ele>1247.8</ele>
        <time>2025-09-27T08:34:17Z</time>
      </trkpt>
      <trkpt lat="43.71989" lon="6.93644">
        <ele>1248.6</ele>
        <time>2025-09-27T08:34:21Z</time>
      </trkpt>
      <trkpt lat="43.71984" lon="6.9364">
        <ele>1249.3</ele>
        <time>2025-09-27T08:34:25Z</time>
      </trkpt>
      <trkpt lat="43.7198" lon="6.93635">
        <ele>1250.1</ele>
        <time>2025-09-27T08:34:29Z</time>
      </trkpt>
      <trkpt lat="43.71976" lon="6.93631">
        <ele>1250.8</ele>
        <time>2025-09-27T08:34:33Z</time>
      </trkpt>
      <trkpt lat="43.71972" lon="6.93626">
        <ele>1251.7</ele>
        <time>2025-09-27T08:34:37Z</time>
      </trkpt>
      <trkpt lat="43.71967" lon="6.93622">
        <ele>1252.5</ele>
        <time>2025-09-27T08:34:41Z</time>
      </trkpt>
      <trkpt lat="43.71963" lon="6.93617">
        <ele>1253.4</ele>
        <time>2025-09-27T08:34:45Z</time>
      </trkpt>
      <trkpt lat="43.71959" lon="6.93613">
        <ele>1254.2</ele>
        <time>2025-09-27T08:34:49Z</time>
      </trkpt>
      <trkpt lat="43.71955" lon="6.93608">
        <ele>1255.1</ele>
        <time>2025-09-27T08:34:53Z</time>
      </trkpt>
      <trkpt lat="43.71951" lon="6.93602">
        <ele>1255.9</ele>
        <time>2025-09-27T08:34:57Z</time>
      </trkpt>
      <trkpt lat="43.71947" lon="6.93597">
        <ele>1256.9</ele>
        <time>2025-09-27T08:35:01Z</time>
      </trkpt>
      <trkpt lat="43.71944" lon="6.93592">
        <ele>1257.7</ele>
        <time>2025-09-27T08:35:05Z</time>
      </trkpt>
      <trkpt lat="43.7194" lon="6.93587">
        <ele>1258.6</ele>
        <time>2025-09-27T08:35:09Z</time>
      </trkpt>
      <trkpt lat="43.71937" lon="6.93581">
        <ele>1259.6</ele>
        <time>2025-09-27T08:35:13Z</time>
      </trkpt>
      <trkpt lat="43.71934" lon="6.93576">
        <ele>1260.6</ele>
        <time>2025-09-27T08:35:17Z</time>
      </trkpt>
      <trkpt lat="43.7193" lon="6.93571">
        <ele>1261.7</ele>
        <time>2025-09-27T08:35:21Z</time>
      </trkpt>
      <trkpt lat="43.71926" lon="6.93566">
        <ele>1262.8</ele>
        <time>2025-09-27T08:35:25Z</time>
      </trkpt>
      <trkpt lat="43.71921" lon="6.93561">
        <ele>1263.9</ele>
        <time>2025-09-27T08:35:29Z</time>
      </trkpt>
      <trkpt lat="43.71917" lon="6.93556">
        <ele>1264.9</ele>
        <time>2025-09-27T08:35:33Z</time>
      </trkpt>
      <trkpt lat="43.71914" lon="6.93551">
        <ele>1266</ele>
        <time>2025-09-27T08:35:37Z</time>
      </trkpt>
      <trkpt lat="43.71909" lon="6.93547">
        <ele>1266.8</ele>
        <time>2025-09-27T08:35:41Z</time>
      </trkpt>
      <trkpt lat="43.71906" lon="6.93542">
        <ele>1267.6</ele>
        <time>2025-09-27T08:35:45Z</time>
      </trkpt>
      <trkpt lat="43.71902" lon="6.93538">
        <ele>1268.1</ele>
        <time>2025-09-27T08:35:49Z</time>
      </trkpt>
      <trkpt lat="43.71899" lon="6.93533">
        <ele>1268.6</ele>
        <time>2025-09-27T08:35:53Z</time>
      </trkpt>
      <trkpt lat="43.71896" lon="6.93529">
        <ele>1269</ele>
        <time>2025-09-27T08:35:57Z</time>
      </trkpt>
      <trkpt lat="43.71893" lon="6.93524">
        <ele>1269.3</ele>
        <time>2025-09-27T08:36:01Z</time>
      </trkpt>
      <trkpt lat="43.71889" lon="6.93518">
        <ele>1269.5</ele>
        <time>2025-09-27T08:36:05Z</time>
      </trkpt>
      <trkpt lat="43.71885" lon="6.93513">
        <ele>1269.7</ele>
        <time>2025-09-27T08:36:09Z</time>
      </trkpt>
      <trkpt lat="43.71881" lon="6.93507">
        <ele>1269.9</ele>
        <time>2025-09-27T08:36:13Z</time>
      </trkpt>
      <trkpt lat="43.71878" lon="6.93502">
        <ele>1270</ele>
        <time>2025-09-27T08:36:17Z</time>
      </trkpt>
      <trkpt lat="43.71874" lon="6.93496">
        <ele>1270.1</ele>
        <time>2025-09-27T08:36:21Z</time>
      </trkpt>
      <trkpt lat="43.71871" lon="6.93491">
        <ele>1270.2</ele>
        <time>2025-09-27T08:36:24Z</time>
      </trkpt>
      <trkpt lat="43.71868" lon="6.93484">
        <ele>1270.2</ele>
        <time>2025-09-27T08:36:28Z</time>
      </trkpt>
      <trkpt lat="43.71864" lon="6.9348">
        <ele>1270.2</ele>
        <time>2025-09-27T08:36:31Z</time>
      </trkpt>
      <trkpt lat="43.71861" lon="6.93475">
        <ele>1270.2</ele>
        <time>2025-09-27T08:36:34Z</time>
      </trkpt>
      <trkpt lat="43.71858" lon="6.93469">
        <ele>1270.3</ele>
        <time>2025-09-27T08:36:37Z</time>
      </trkpt>
      <trkpt lat="43.71854" lon="6.93463">
        <ele>1270.3</ele>
        <time>2025-09-27T08:36:40Z</time>
      </trkpt>
      <trkpt lat="43.71851" lon="6.93459">
        <ele>1270.3</ele>
        <time>2025-09-27T08:36:43Z</time>
      </trkpt>
      <trkpt lat="43.71848" lon="6.93453">
        <ele>1270.2</ele>
        <time>2025-09-27T08:36:46Z</time>
      </trkpt>
      <trkpt lat="43.71844" lon="6.93446">
        <ele>1270.1</ele>
        <time>2025-09-27T08:36:49Z</time>
      </trkpt>
      <trkpt lat="43.71841" lon="6.93441">
        <ele>1270</ele>
        <time>2025-09-27T08:36:52Z</time>
      </trkpt>
      <trkpt lat="43.71838" lon="6.93435">
        <ele>1269.8</ele>
        <time>2025-09-27T08:36:55Z</time>
      </trkpt>
      <trkpt lat="43.71834" lon="6.93427">
        <ele>1269.5</ele>
        <time>2025-09-27T08:36:58Z</time>
      </trkpt>
      <trkpt lat="43.7183" lon="6.93419">
        <ele>1269.2</ele>
        <time>2025-09-27T08:37:00Z</time>
      </trkpt>
      <trkpt lat="43.71826" lon="6.93411">
        <ele>1268.9</ele>
        <time>2025-09-27T08:37:02Z</time>
      </trkpt>
      <trkpt lat="43.71821" lon="6.93401">
        <ele>1268.6</ele>
        <time>2025-09-27T08:37:04Z</time>
      </trkpt>
      <trkpt lat="43.71816" lon="6.93391">
        <ele>1268.5</ele>
        <time>2025-09-27T08:37:06Z</time>
      </trkpt>
      <trkpt lat="43.71813" lon="6.93386">
        <ele>1268.5</ele>
        <time>2025-09-27T08:37:07Z</time>
      </trkpt>
      <trkpt lat="43.71808" lon="6.93376">
        <ele>1268.7</ele>
        <time>2025-09-27T08:37:09Z</time>
      </trkpt>
      <trkpt lat="43.71804" lon="6.93368">
        <ele>1268.9</ele>
        <time>2025-09-27T08:37:11Z</time>
      </trkpt>
      <trkpt lat="43.718" lon="6.93363">
        <ele>1269</ele>
        <time>2025-09-27T08:37:13Z</time>
      </trkpt>
      <trkpt lat="43.71795" lon="6.93357">
        <ele>1269.1</ele>
        <time>2025-09-27T08:37:16Z</time>
      </trkpt>
      <trkpt lat="43.71791" lon="6.93352">
        <ele>1269.2</ele>
        <time>2025-09-27T08:37:19Z</time>
      </trkpt>
      <trkpt lat="43.71785" lon="6.93348">
        <ele>1269.9</ele>
        <time>2025-09-27T08:37:22Z</time>
      </trkpt>
      <trkpt lat="43.7178" lon="6.93344">
        <ele>1270.6</ele>
        <time>2025-09-27T08:37:25Z</time>
      </trkpt>
      <trkpt lat="43.71774" lon="6.93342">
        <ele>1271.3</ele>
        <time>2025-09-27T08:37:28Z</time>
      </trkpt>
      <trkpt lat="43.71768" lon="6.93341">
        <ele>1272</ele>
        <time>2025-09-27T08:37:31Z</time>
      </trkpt>
      <trkpt lat="43.71762" lon="6.93342">
        <ele>1272.7</ele>
        <time>2025-09-27T08:37:34Z</time>
      </trkpt>
      <trkpt lat="43.71756" lon="6.93344">
        <ele>1273.5</ele>
        <time>2025-09-27T08:37:37Z</time>
      </trkpt>
      <trkpt lat="43.71751" lon="6.93346">
        <ele>1274.2</ele>
        <time>2025-09-27T08:37:40Z</time>
      </trkpt>
      <trkpt lat="43.71745" lon="6.93349">
        <ele>1275</ele>
        <time>2025-09-27T08:37:43Z</time>
      </trkpt>
      <trkpt lat="43.7174" lon="6.93351">
        <ele>1275.8</ele>
        <time>2025-09-27T08:37:46Z</time>
      </trkpt>
      <trkpt lat="43.71736" lon="6.93353">
        <ele>1276.5</ele>
        <time>2025-09-27T08:37:49Z</time>
      </trkpt>
      <trkpt lat="43.7173" lon="6.93355">
        <ele>1277.4</ele>
        <time>2025-09-27T08:37:53Z</time>
      </trkpt>
      <trkpt lat="43.71724" lon="6.93357">
        <ele>1278.3</ele>
        <time>2025-09-27T08:37:57Z</time>
      </trkpt>
      <trkpt lat="43.71719" lon="6.93359">
        <ele>1279.1</ele>
        <time>2025-09-27T08:38:01Z</time>
      </trkpt>
      <trkpt lat="43.71713" lon="6.9336">
        <ele>1280</ele>
        <time>2025-09-27T08:38:05Z</time>
      </trkpt>
      <trkpt lat="43.71708" lon="6.93361">
        <ele>1280.9</ele>
        <time>2025-09-27T08:38:09Z</time>
      </trkpt>
      <trkpt lat="43.71703" lon="6.93362">
        <ele>1281.8</ele>
        <time>2025-09-27T08:38:13Z</time>
      </trkpt>
      <trkpt lat="43.71698" lon="6.93362">
        <ele>1282.8</ele>
        <time>2025-09-27T08:38:17Z</time>
      </trkpt>
      <trkpt lat="43.71693" lon="6.93362">
        <ele>1283.7</ele>
        <time>2025-09-27T08:38:21Z</time>
      </trkpt>
      <trkpt lat="43.71688" lon="6.93361">
        <ele>1284.6</ele>
        <time>2025-09-27T08:38:25Z</time>
      </trkpt>
      <trkpt lat="43.71683" lon="6.93361">
        <ele>1285.5</ele>
        <time>2025-09-27T08:38:29Z</time>
      </trkpt>
      <trkpt lat="43.71679" lon="6.93359">
        <ele>1286.3</ele>
        <time>2025-09-27T08:38:33Z</time>
      </trkpt>
      <trkpt lat="43.71674" lon="6.93357">
        <ele>1287.3</ele>
        <time>2025-09-27T08:38:38Z</time>
      </trkpt>
      <trkpt lat="43.71669" lon="6.93353">
        <ele>1288.3</ele>
        <time>2025-09-27T08:38:43Z</time>
      </trkpt>
      <trkpt lat="43.71665" lon="6.93351">
        <ele>1289.2</ele>
        <time>2025-09-27T08:38:47Z</time>
      </trkpt>
      <trkpt lat="43.7166" lon="6.93349">
        <ele>1290</ele>
        <time>2025-09-27T08:38:51Z</time>
      </trkpt>
      <trkpt lat="43.71655" lon="6.93346">
        <ele>1291</ele>
        <time>2025-09-27T08:38:56Z</time>
      </trkpt>
      <trkpt lat="43.71651" lon="6.93344">
        <ele>1291.8</ele>
        <time>2025-09-27T08:39:00Z</time>
      </trkpt>
      <trkpt lat="43.71647" lon="6.9334">
        <ele>1292.6</ele>
        <time>2025-09-27T08:39:04Z</time>
      </trkpt>
      <trkpt lat="43.71643" lon="6.93336">
        <ele>1293.4</ele>
        <time>2025-09-27T08:39:08Z</time>
      </trkpt>
      <trkpt lat="43.7164" lon="6.93331">
        <ele>1294.2</ele>
        <time>2025-09-27T08:39:12Z</time>
      </trkpt>
      <trkpt lat="43.71637" lon="6.93326">
        <ele>1295</ele>
        <time>2025-09-27T08:39:16Z</time>
      </trkpt>
      <trkpt lat="43.71633" lon="6.93321">
        <ele>1295.7</ele>
        <time>2025-09-27T08:39:20Z</time>
      </trkpt>
      <trkpt lat="43.71629" lon="6.93317">
        <ele>1296.5</ele>
        <time>2025-09-27T08:39:24Z</time>
      </trkpt>
      <trkpt lat="43.71626" lon="6.93311">
        <ele>1297.3</ele>
        <time>2025-09-27T08:39:28Z</time>
      </trkpt>
      <trkpt lat="43.71622" lon="6.93306">
        <ele>1298.1</ele>
        <time>2025-09-27T08:39:32Z</time>
      </trkpt>
      <trkpt lat="43.7162" lon="6.933">
        <ele>1298.9</ele>
        <time>2025-09-27T08:39:36Z</time>
      </trkpt>
      <trkpt lat="43.71617" lon="6.93294">
        <ele>1299.7</ele>
        <time>2025-09-27T08:39:40Z</time>
      </trkpt>
      <trkpt lat="43.71615" lon="6.93288">
        <ele>1300.4</ele>
        <time>2025-09-27T08:39:44Z</time>
      </trkpt>
      <trkpt lat="43.71613" lon="6.93281">
        <ele>1301.2</ele>
        <time>2025-09-27T08:39:48Z</time>
      </trkpt>
      <trkpt lat="43.71611" lon="6.93274">
        <ele>1302</ele>
        <time>2025-09-27T08:39:52Z</time>
      </trkpt>
      <trkpt lat="43.71609" lon="6.93268">
        <ele>1302.8</ele>
        <time>2025-09-27T08:39:56Z</time>
      </trkpt>
      <trkpt lat="43.71608" lon="6.93261">
        <ele>1303.6</ele>
        <time>2025-09-27T08:40:00Z</time>
      </trkpt>
      <trkpt lat="43.71607" lon="6.93255">
        <ele>1304.4</ele>
        <time>2025-09-27T08:40:04Z</time>
      </trkpt>
      <trkpt lat="43.71606" lon="6.93247">
        <ele>1305.4</ele>
        <time>2025-09-27T08:40:09Z</time>
      </trkpt>
      <trkpt lat="43.71605" lon="6.93239">
        <ele>1306.5</ele>
        <time>2025-09-27T08:40:14Z</time>
      </trkpt>
      <trkpt lat="43.71605" lon="6.93232">
        <ele>1307.5</ele>
        <time>2025-09-27T08:40:19Z</time>
      </trkpt>
      <trkpt lat="43.71605" lon="6.93224">
        <ele>1308.6</ele>
        <time>2025-09-27T08:40:24Z</time>
      </trkpt>
      <trkpt lat="43.71606" lon="6.93217">
        <ele>1309.5</ele>
        <time>2025-09-27T08:40:28Z</time>
      </trkpt>
      <trkpt lat="43.71606" lon="6.9321">
        <ele>1310.4</ele>
        <time>2025-09-27T08:40:32Z</time>
      </trkpt>
      <trkpt lat="43.71607" lon="6.93203">
        <ele>1311.3</ele>
        <time>2025-09-27T08:40:36Z</time>
      </trkpt>
      <trkpt lat="43.71607" lon="6.93196">
        <ele>1312.3</ele>
        <time>2025-09-27T08:40:40Z</time>
      </trkpt>
      <trkpt lat="43.71607" lon="6.93189">
        <ele>1313.2</ele>
        <time>2025-09-27T08:40:44Z</time>
      </trkpt>
      <trkpt lat="43.71607" lon="6.93182">
        <ele>1314.1</ele>
        <time>2025-09-27T08:40:48Z</time>
      </trkpt>
      <trkpt lat="43.71608" lon="6.93176">
        <ele>1315</ele>
        <time>2025-09-27T08:40:52Z</time>
      </trkpt>
      <trkpt lat="43.71608" lon="6.93169">
        <ele>1315.8</ele>
        <time>2025-09-27T08:40:56Z</time>
      </trkpt>
      <trkpt lat="43.71608" lon="6.93163">
        <ele>1316.7</ele>
        <time>2025-09-27T08:41:00Z</time>
      </trkpt>
      <trkpt lat="43.71608" lon="6.93156">
        <ele>1317.5</ele>
        <time>2025-09-27T08:41:04Z</time>
      </trkpt>
      <trkpt lat="43.71607" lon="6.9315">
        <ele>1318.4</ele>
        <time>2025-09-27T08:41:08Z</time>
      </trkpt>
      <trkpt lat="43.71606" lon="6.93142">
        <ele>1319.4</ele>
        <time>2025-09-27T08:41:13Z</time>
      </trkpt>
      <trkpt lat="43.71605" lon="6.93135">
        <ele>1320.4</ele>
        <time>2025-09-27T08:41:18Z</time>
      </trkpt>
      <trkpt lat="43.71604" lon="6.93128">
        <ele>1321.2</ele>
        <time>2025-09-27T08:41:22Z</time>
      </trkpt>
      <trkpt lat="43.71603" lon="6.93122">
        <ele>1322</ele>
        <time>2025-09-27T08:41:26Z</time>
      </trkpt>
      <trkpt lat="43.71603" lon="6.93116">
        <ele>1322.8</ele>
        <time>2025-09-27T08:41:30Z</time>
      </trkpt>
      <trkpt lat="43.71601" lon="6.9311">
        <ele>1323.6</ele>
        <time>2025-09-27T08:41:34Z</time>
      </trkpt>
      <trkpt lat="43.716" lon="6.93103">
        <ele>1324.5</ele>
        <time>2025-09-27T08:41:38Z</time>
      </trkpt>
      <trkpt lat="43.71598" lon="6.93096">
        <ele>1325.3</ele>
        <time>2025-09-27T08:41:42Z</time>
      </trkpt>
      <trkpt lat="43.71597" lon="6.9309">
        <ele>1326</ele>
        <time>2025-09-27T08:41:46Z</time>
      </trkpt>
      <trkpt lat="43.71594" lon="6.93084">
        <ele>1326.7</ele>
        <time>2025-09-27T08:41:50Z</time>
      </trkpt>
      <trkpt lat="43.71592" lon="6.93077">
        <ele>1327.4</ele>
        <time>2025-09-27T08:41:54Z</time>
      </trkpt>
      <trkpt lat="43.7159" lon="6.93071">
        <ele>1328</ele>
        <time>2025-09-27T08:41:58Z</time>
      </trkpt>
      <trkpt lat="43.71589" lon="6.93064">
        <ele>1328.6</ele>
        <time>2025-09-27T08:42:02Z</time>
      </trkpt>
      <trkpt lat="43.71587" lon="6.93057">
        <ele>1329.1</ele>
        <time>2025-09-27T08:42:06Z</time>
      </trkpt>
      <trkpt lat="43.71583" lon="6.93052">
        <ele>1329.6</ele>
        <time>2025-09-27T08:42:10Z</time>
      </trkpt>
      <trkpt lat="43.71579" lon="6.93048">
        <ele>1329.9</ele>
        <time>2025-09-27T08:42:13Z</time>
      </trkpt>
      <trkpt lat="43.71574" lon="6.93044">
        <ele>1330.1</ele>
        <time>2025-09-27T08:42:17Z</time>
      </trkpt>
      <trkpt lat="43.7157" lon="6.93042">
        <ele>1330.3</ele>
        <time>2025-09-27T08:42:20Z</time>
      </trkpt>
      <trkpt lat="43.71565" lon="6.93041">
        <ele>1330.5</ele>
        <time>2025-09-27T08:42:23Z</time>
      </trkpt>
      <trkpt lat="43.71561" lon="6.93041">
        <ele>1330.6</ele>
        <time>2025-09-27T08:42:26Z</time>
      </trkpt>
      <trkpt lat="43.71557" lon="6.93044">
        <ele>1330.1</ele>
        <time>2025-09-27T08:42:30Z</time>
      </trkpt>
      <trkpt lat="43.71551" lon="6.93047">
        <ele>1329.6</ele>
        <time>2025-09-27T08:42:34Z</time>
      </trkpt>
      <trkpt lat="43.71547" lon="6.9305">
        <ele>1329</ele>
        <time>2025-09-27T08:42:36Z</time>
      </trkpt>
      <trkpt lat="43.71542" lon="6.93054">
        <ele>1328.6</ele>
        <time>2025-09-27T08:42:38Z</time>
      </trkpt>
      <trkpt lat="43.71538" lon="6.93059">
        <ele>1328.2</ele>
        <time>2025-09-27T08:42:40Z</time>
      </trkpt>
      <trkpt lat="43.71535" lon="6.93067">
        <ele>1327.7</ele>
        <time>2025-09-27T08:42:43Z</time>
      </trkpt>
      <trkpt lat="43.71534" lon="6.93074">
        <ele>1327.3</ele>
        <time>2025-09-27T08:42:46Z</time>
      </trkpt>
      <trkpt lat="43.71535" lon="6.93081">
        <ele>1327.4</ele>
        <time>2025-09-27T08:42:49Z</time>
      </trkpt>
      <trkpt lat="43.71537" lon="6.93088">
        <ele>1327.1</ele>
        <time>2025-09-27T08:42:52Z</time>
      </trkpt>
      <trkpt lat="43.71534" lon="6.93082">
        <ele>1327</ele>
        <time>2025-09-27T08:56:55Z</time>
      </trkpt>
      <trkpt lat="43.71533" lon="6.93075">
        <ele>1327</ele>
        <time>2025-09-27T08:57:00Z</time>
      </trkpt>
      <trkpt lat="43.71533" lon="6.93067">
        <ele>1327</ele>
        <time>2025-09-27T08:57:04Z</time>
      </trkpt>
      <trkpt lat="43.71533" lon="6.9306">
        <ele>1327</ele>
        <time>2025-09-27T08:57:07Z</time>
      </trkpt>
      <trkpt lat="43.7153" lon="6.93053">
        <ele>1326.6</ele>
        <time>2025-09-27T08:57:10Z</time>
      </trkpt>
      <trkpt lat="43.71528" lon="6.93045">
        <ele>1326.1</ele>
        <time>2025-09-27T08:57:13Z</time>
      </trkpt>
      <trkpt lat="43.71524" lon="6.9304">
        <ele>1325.5</ele>
        <time>2025-09-27T08:57:17Z</time>
      </trkpt>
      <trkpt lat="43.71518" lon="6.93039">
        <ele>1324.4</ele>
        <time>2025-09-27T08:57:29Z</time>
      </trkpt>
      <trkpt lat="43.71513" lon="6.93041">
        <ele>1323.4</ele>
        <time>2025-09-27T08:57:31Z</time>
      </trkpt>
      <trkpt lat="43.71505" lon="6.93044">
        <ele>1322.1</ele>
        <time>2025-09-27T08:57:33Z</time>
      </trkpt>
      <trkpt lat="43.71499" lon="6.93051">
        <ele>1320.8</ele>
        <time>2025-09-27T08:57:35Z</time>
      </trkpt>
      <trkpt lat="43.71494" lon="6.93059">
        <ele>1319.8</ele>
        <time>2025-09-27T08:57:37Z</time>
      </trkpt>
      <trkpt lat="43.71489" lon="6.93068">
        <ele>1318.9</ele>
        <time>2025-09-27T08:57:39Z</time>
      </trkpt>
      <trkpt lat="43.71486" lon="6.93076">
        <ele>1318.1</ele>
        <time>2025-09-27T08:57:41Z</time>
      </trkpt>
      <trkpt lat="43.71481" lon="6.93077">
        <ele>1317.4</ele>
        <time>2025-09-27T08:58:13Z</time>
      </trkpt>
      <trkpt lat="43.71476" lon="6.9308">
        <ele>1316.6</ele>
        <time>2025-09-27T08:58:15Z</time>
      </trkpt>
      <trkpt lat="43.71471" lon="6.93083">
        <ele>1315.6</ele>
        <time>2025-09-27T08:58:17Z</time>
      </trkpt>
      <trkpt lat="43.71466" lon="6.93088">
        <ele>1314.2</ele>
        <time>2025-09-27T08:58:19Z</time>
      </trkpt>
      <trkpt lat="43.7146" lon="6.93091">
        <ele>1312.9</ele>
        <time>2025-09-27T08:58:21Z</time>
      </trkpt>
      <trkpt lat="43.71454" lon="6.93092">
        <ele>1311.7</ele>
        <time>2025-09-27T08:58:23Z</time>
      </trkpt>
      <trkpt lat="43.71447" lon="6.93093">
        <ele>1310.3</ele>
        <time>2025-09-27T08:58:25Z</time>
      </trkpt>
      <trkpt lat="43.7144" lon="6.93093">
        <ele>1308.8</ele>
        <time>2025-09-27T08:58:27Z</time>
      </trkpt>
      <trkpt lat="43.71433" lon="6.93096">
        <ele>1307.2</ele>
        <time>2025-09-27T08:58:29Z</time>
      </trkpt>
      <trkpt lat="43.71427" lon="6.93103">
        <ele>1305.6</ele>
        <time>2025-09-27T08:58:31Z</time>
      </trkpt>
      <trkpt lat="43.7142" lon="6.9311">
        <ele>1303.9</ele>
        <time>2025-09-27T08:58:33Z</time>
      </trkpt>
      <trkpt lat="43.71416" lon="6.93114">
        <ele>1302.7</ele>
        <time>2025-09-27T08:58:35Z</time>
      </trkpt>
      <trkpt lat="43.71411" lon="6.93121">
        <ele>1301.5</ele>
        <time>2025-09-27T08:58:37Z</time>
      </trkpt>
      <trkpt lat="43.7141" lon="6.9313">
        <ele>1300.3</ele>
        <time>2025-09-27T08:58:39Z</time>
      </trkpt>
      <trkpt lat="43.71412" lon="6.9314">
        <ele>1299.3</ele>
        <time>2025-09-27T08:58:41Z</time>
      </trkpt>
      <trkpt lat="43.71416" lon="6.9315">
        <ele>1298.4</ele>
        <time>2025-09-27T08:58:43Z</time>
      </trkpt>
      <trkpt lat="43.7142" lon="6.9316">
        <ele>1297.6</ele>
        <time>2025-09-27T08:58:45Z</time>
      </trkpt>
      <trkpt lat="43.71425" lon="6.93171">
        <ele>1297</ele>
        <time>2025-09-27T08:58:47Z</time>
      </trkpt>
      <trkpt lat="43.7143" lon="6.9318">
        <ele>1296.5</ele>
        <time>2025-09-27T08:58:49Z</time>
      </trkpt>
      <trkpt lat="43.71435" lon="6.93189">
        <ele>1296</ele>
        <time>2025-09-27T08:58:51Z</time>
      </trkpt>
      <trkpt lat="43.71441" lon="6.93195">
        <ele>1295.7</ele>
        <time>2025-09-27T08:58:53Z</time>
      </trkpt>
      <trkpt lat="43.71445" lon="6.93202">
        <ele>1295.4</ele>
        <time>2025-09-27T08:58:55Z</time>
      </trkpt>
      <trkpt lat="43.7145" lon="6.93208">
        <ele>1295.1</ele>
        <time>2025-09-27T08:58:57Z</time>
      </trkpt>
      <trkpt lat="43.71454" lon="6.93215">
        <ele>1294.8</ele>
        <time>2025-09-27T08:58:59Z</time>
      </trkpt>
      <trkpt lat="43.71457" lon="6.93224">
        <ele>1294.2</ele>
        <time>2025-09-27T08:59:01Z</time>
      </trkpt>
      <trkpt lat="43.7146" lon="6.9323">
        <ele>1293.9</ele>
        <time>2025-09-27T08:59:02Z</time>
      </trkpt>
      <trkpt lat="43.71463" lon="6.93235">
        <ele>1293.5</ele>
        <time>2025-09-27T08:59:03Z</time>
      </trkpt>
      <trkpt lat="43.71469" lon="6.93242">
        <ele>1292.9</ele>
        <time>2025-09-27T08:59:05Z</time>
      </trkpt>
      <trkpt lat="43.71474" lon="6.93249">
        <ele>1292.6</ele>
        <time>2025-09-27T08:59:07Z</time>
      </trkpt>
      <trkpt lat="43.71479" lon="6.93255">
        <ele>1292.4</ele>
        <time>2025-09-27T08:59:09Z</time>
      </trkpt>
      <trkpt lat="43.71484" lon="6.93261">
        <ele>1292.3</ele>
        <time>2025-09-27T08:59:11Z</time>
      </trkpt>
      <trkpt lat="43.71489" lon="6.93264">
        <ele>1292.3</ele>
        <time>2025-09-27T08:59:13Z</time>
      </trkpt>
      <trkpt lat="43.71494" lon="6.93266">
        <ele>1292.4</ele>
        <time>2025-09-27T08:59:16Z</time>
      </trkpt>
      <trkpt lat="43.71499" lon="6.93265">
        <ele>1292.4</ele>
        <time>2025-09-27T08:59:22Z</time>
      </trkpt>
      <trkpt lat="43.71504" lon="6.93266">
        <ele>1292.3</ele>
        <time>2025-09-27T09:00:47Z</time>
      </trkpt>
      <trkpt lat="43.7151" lon="6.9327">
        <ele>1292.1</ele>
        <time>2025-09-27T09:00:50Z</time>
      </trkpt>
      <trkpt lat="43.71516" lon="6.93274">
        <ele>1291.7</ele>
        <time>2025-09-27T09:00:52Z</time>
      </trkpt>
      <trkpt lat="43.71522" lon="6.93279">
        <ele>1291.1</ele>
        <time>2025-09-27T09:00:54Z</time>
      </trkpt>
      <trkpt lat="43.71528" lon="6.93285">
        <ele>1290.5</ele>
        <time>2025-09-27T09:00:56Z</time>
      </trkpt>
      <trkpt lat="43.71531" lon="6.93292">
        <ele>1289.8</ele>
        <time>2025-09-27T09:00:58Z</time>
      </trkpt>
      <trkpt lat="43.71534" lon="6.93303">
        <ele>1288.9</ele>
        <time>2025-09-27T09:01:00Z</time>
      </trkpt>
      <trkpt lat="43.71539" lon="6.93309">
        <ele>1288.3</ele>
        <time>2025-09-27T09:01:02Z</time>
      </trkpt>
      <trkpt lat="43.71543" lon="6.93308">
        <ele>1287.9</ele>
        <time>2025-09-27T09:01:04Z</time>
      </trkpt>
      <trkpt lat="43.71549" lon="6.93309">
        <ele>1287.6</ele>
        <time>2025-09-27T09:01:06Z</time>
      </trkpt>
      <trkpt lat="43.71553" lon="6.93314">
        <ele>1287.4</ele>
        <time>2025-09-27T09:01:08Z</time>
      </trkpt>
      <trkpt lat="43.71557" lon="6.9332">
        <ele>1287.2</ele>
        <time>2025-09-27T09:01:10Z</time>
      </trkpt>
      <trkpt lat="43.71563" lon="6.93324">
        <ele>1286.9</ele>
        <time>2025-09-27T09:01:12Z</time>
      </trkpt>
      <trkpt lat="43.71568" lon="6.93329">
        <ele>1286.7</ele>
        <time>2025-09-27T09:01:14Z</time>
      </trkpt>
      <trkpt lat="43.71573" lon="6.93336">
        <ele>1286.4</ele>
        <time>2025-09-27T09:01:16Z</time>
      </trkpt>
      <trkpt lat="43.71578" lon="6.93344">
        <ele>1286.1</ele>
        <time>2025-09-27T09:01:18Z</time>
      </trkpt>
      <trkpt lat="43.71584" lon="6.93352">
        <ele>1285.9</ele>
        <time>2025-09-27T09:01:20Z</time>
      </trkpt>
      <trkpt lat="43.71588" lon="6.93359">
        <ele>1285.8</ele>
        <time>2025-09-27T09:01:22Z</time>
      </trkpt>
      <trkpt lat="43.71591" lon="6.93365">
        <ele>1285.7</ele>
        <time>2025-09-27T09:01:24Z</time>
      </trkpt>
      <trkpt lat="43.71594" lon="6.9337">
        <ele>1285.8</ele>
        <time>2025-09-27T09:01:26Z</time>
      </trkpt>
      <trkpt lat="43.71599" lon="6.93374">
        <ele>1285.9</ele>
        <time>2025-09-27T09:01:29Z</time>
      </trkpt>
      <trkpt lat="43.71605" lon="6.93375">
        <ele>1286.1</ele>
        <time>2025-09-27T09:01:33Z</time>
      </trkpt>
      <trkpt lat="43.7161" lon="6.93375">
        <ele>1286.3</ele>
        <time>2025-09-27T09:01:36Z</time>
      </trkpt>
      <trkpt lat="43.71616" lon="6.93377">
        <ele>1286.5</ele>
        <time>2025-09-27T09:01:39Z</time>
      </trkpt>
      <trkpt lat="43.7162" lon="6.93381">
        <ele>1286.6</ele>
        <time>2025-09-27T09:01:41Z</time>
      </trkpt>
      <trkpt lat="43.71625" lon="6.93382">
        <ele>1286.6</ele>
        <time>2025-09-27T09:01:43Z</time>
      </trkpt>
      <trkpt lat="43.71629" lon="6.93383">
        <ele>1286.4</ele>
        <time>2025-09-27T09:01:46Z</time>
      </trkpt>
      <trkpt lat="43.71636" lon="6.93389">
        <ele>1285.9</ele>
        <time>2025-09-27T09:01:49Z</time>
      </trkpt>
      <trkpt lat="43.71641" lon="6.93396">
        <ele>1285</ele>
        <time>2025-09-27T09:01:51Z</time>
      </trkpt>
      <trkpt lat="43.71645" lon="6.93401">
        <ele>1284.1</ele>
        <time>2025-09-27T09:01:53Z</time>
      </trkpt>
      <trkpt lat="43.7165" lon="6.93405">
        <ele>1283.2</ele>
        <time>2025-09-27T09:01:55Z</time>
      </trkpt>
      <trkpt lat="43.71655" lon="6.93411">
        <ele>1281.8</ele>
        <time>2025-09-27T09:01:57Z</time>
      </trkpt>
      <trkpt lat="43.7166" lon="6.93413">
        <ele>1280.8</ele>
        <time>2025-09-27T09:01:59Z</time>
      </trkpt>
      <trkpt lat="43.71666" lon="6.93414">
        <ele>1279.8</ele>
        <time>2025-09-27T09:02:02Z</time>
      </trkpt>
      <trkpt lat="43.71672" lon="6.93415">
        <ele>1278.7</ele>
        <time>2025-09-27T09:02:04Z</time>
      </trkpt>
      <trkpt lat="43.71678" lon="6.93411">
        <ele>1277.7</ele>
        <time>2025-09-27T09:02:06Z</time>
      </trkpt>
      <trkpt lat="43.71685" lon="6.93411">
        <ele>1276.7</ele>
        <time>2025-09-27T09:02:08Z</time>
      </trkpt>
      <trkpt lat="43.71692" lon="6.9341">
        <ele>1276</ele>
        <time>2025-09-27T09:02:10Z</time>
      </trkpt>
      <trkpt lat="43.71698" lon="6.93407">
        <ele>1275.4</ele>
        <time>2025-09-27T09:02:12Z</time>
      </trkpt>
      <trkpt lat="43.71702" lon="6.93403">
        <ele>1275</ele>
        <time>2025-09-27T09:02:13Z</time>
      </trkpt>
      <trkpt lat="43.71709" lon="6.934">
        <ele>1274.4</ele>
        <time>2025-09-27T09:02:15Z</time>
      </trkpt>
      <trkpt lat="43.71715" lon="6.93399">
        <ele>1274</ele>
        <time>2025-09-27T09:02:17Z</time>
      </trkpt>
      <trkpt lat="43.71722" lon="6.93396">
        <ele>1273.7</ele>
        <time>2025-09-27T09:02:19Z</time>
      </trkpt>
      <trkpt lat="43.71727" lon="6.93394">
        <ele>1273.4</ele>
        <time>2025-09-27T09:02:21Z</time>
      </trkpt>
      <trkpt lat="43.71732" lon="6.93393">
        <ele>1273.2</ele>
        <time>2025-09-27T09:02:23Z</time>
      </trkpt>
      <trkpt lat="43.71739" lon="6.93392">
        <ele>1272.6</ele>
        <time>2025-09-27T09:02:25Z</time>
      </trkpt>
      <trkpt lat="43.71746" lon="6.93391">
        <ele>1271.9</ele>
        <time>2025-09-27T09:02:27Z</time>
      </trkpt>
      <trkpt lat="43.71751" lon="6.93394">
        <ele>1271.5</ele>
        <time>2025-09-27T09:02:29Z</time>
      </trkpt>
      <trkpt lat="43.71754" lon="6.93399">
        <ele>1270.9</ele>
        <time>2025-09-27T09:02:31Z</time>
      </trkpt>
      <trkpt lat="43.71758" lon="6.93404">
        <ele>1270</ele>
        <time>2025-09-27T09:02:34Z</time>
      </trkpt>
      <trkpt lat="43.71763" lon="6.93408">
        <ele>1268.6</ele>
        <time>2025-09-27T09:02:36Z</time>
      </trkpt>
      <trkpt lat="43.71768" lon="6.93415">
        <ele>1267</ele>
        <time>2025-09-27T09:02:38Z</time>
      </trkpt>
      <trkpt lat="43.71768" lon="6.93424">
        <ele>1265.5</ele>
        <time>2025-09-27T09:02:40Z</time>
      </trkpt>
      <trkpt lat="43.71767" lon="6.93434">
        <ele>1264.2</ele>
        <time>2025-09-27T09:02:42Z</time>
      </trkpt>
      <trkpt lat="43.71767" lon="6.93443">
        <ele>1263.5</ele>
        <time>2025-09-27T09:02:44Z</time>
      </trkpt>
      <trkpt lat="43.71767" lon="6.93453">
        <ele>1263.2</ele>
        <time>2025-09-27T09:02:46Z</time>
      </trkpt>
      <trkpt lat="43.71769" lon="6.9346">
        <ele>1263</ele>
        <time>2025-09-27T09:02:48Z</time>
      </trkpt>
      <trkpt lat="43.71771" lon="6.93466">
        <ele>1262.9</ele>
        <time>2025-09-27T09:02:50Z</time>
      </trkpt>
      <trkpt lat="43.71771" lon="6.93473">
        <ele>1262.7</ele>
        <time>2025-09-27T09:02:52Z</time>
      </trkpt>
      <trkpt lat="43.71773" lon="6.93481">
        <ele>1262.2</ele>
        <time>2025-09-27T09:02:54Z</time>
      </trkpt>
      <trkpt lat="43.71775" lon="6.93492">
        <ele>1261.4</ele>
        <time>2025-09-27T09:02:56Z</time>
      </trkpt>
      <trkpt lat="43.71774" lon="6.93504">
        <ele>1260.6</ele>
        <time>2025-09-27T09:02:58Z</time>
      </trkpt>
      <trkpt lat="43.71772" lon="6.93512">
        <ele>1260.1</ele>
        <time>2025-09-27T09:02:59Z</time>
      </trkpt>
      <trkpt lat="43.7177" lon="6.93519">
        <ele>1259.6</ele>
        <time>2025-09-27T09:03:00Z</time>
      </trkpt>
      <trkpt lat="43.71768" lon="6.93524">
        <ele>1259.3</ele>
        <time>2025-09-27T09:03:01Z</time>
      </trkpt>
      <trkpt lat="43.71762" lon="6.9353">
        <ele>1258.9</ele>
        <time>2025-09-27T09:03:03Z</time>
      </trkpt>
      <trkpt lat="43.71755" lon="6.93536">
        <ele>1258.6</ele>
        <time>2025-09-27T09:03:05Z</time>
      </trkpt>
      <trkpt lat="43.71748" lon="6.93542">
        <ele>1258.3</ele>
        <time>2025-09-27T09:03:07Z</time>
      </trkpt>
      <trkpt lat="43.71745" lon="6.93551">
        <ele>1257.9</ele>
        <time>2025-09-27T09:03:09Z</time>
      </trkpt>
      <trkpt lat="43.71744" lon="6.93562">
        <ele>1257.2</ele>
        <time>2025-09-27T09:03:11Z</time>
      </trkpt>
      <trkpt lat="43.71745" lon="6.9357">
        <ele>1256.6</ele>
        <time>2025-09-27T09:03:13Z</time>
      </trkpt>
      <trkpt lat="43.71749" lon="6.93574">
        <ele>1255.9</ele>
        <time>2025-09-27T09:03:15Z</time>
      </trkpt>
      <trkpt lat="43.71752" lon="6.93578">
        <ele>1255.1</ele>
        <time>2025-09-27T09:03:17Z</time>
      </trkpt>
      <trkpt lat="43.71756" lon="6.93583">
        <ele>1254.3</ele>
        <time>2025-09-27T09:03:19Z</time>
      </trkpt>
      <trkpt lat="43.71761" lon="6.93588">
        <ele>1253.3</ele>
        <time>2025-09-27T09:03:21Z</time>
      </trkpt>
      <trkpt lat="43.71765" lon="6.93594">
        <ele>1252.4</ele>
        <time>2025-09-27T09:03:23Z</time>
      </trkpt>
      <trkpt lat="43.7177" lon="6.93601">
        <ele>1251.7</ele>
        <time>2025-09-27T09:03:25Z</time>
      </trkpt>
      <trkpt lat="43.71776" lon="6.93604">
        <ele>1251.1</ele>
        <time>2025-09-27T09:03:27Z</time>
      </trkpt>
      <trkpt lat="43.7178" lon="6.93604">
        <ele>1250.8</ele>
        <time>2025-09-27T09:03:28Z</time>
      </trkpt>
      <trkpt lat="43.71788" lon="6.93606">
        <ele>1250.3</ele>
        <time>2025-09-27T09:03:30Z</time>
      </trkpt>
      <trkpt lat="43.71796" lon="6.93612">
        <ele>1249.7</ele>
        <time>2025-09-27T09:03:32Z</time>
      </trkpt>
      <trkpt lat="43.71801" lon="6.93621">
        <ele>1249.3</ele>
        <time>2025-09-27T09:03:34Z</time>
      </trkpt>
      <trkpt lat="43.71807" lon="6.9363">
        <ele>1248.7</ele>
        <time>2025-09-27T09:03:36Z</time>
      </trkpt>
      <trkpt lat="43.71815" lon="6.93636">
        <ele>1248.1</ele>
        <time>2025-09-27T09:03:38Z</time>
      </trkpt>
      <trkpt lat="43.71819" lon="6.93638">
        <ele>1247.8</ele>
        <time>2025-09-27T09:03:39Z</time>
      </trkpt>
      <trkpt lat="43.71824" lon="6.93639">
        <ele>1247.5</ele>
        <time>2025-09-27T09:03:40Z</time>
      </trkpt>
      <trkpt lat="43.71828" lon="6.93641">
        <ele>1247.3</ele>
        <time>2025-09-27T09:03:41Z</time>
      </trkpt>
      <trkpt lat="43.71831" lon="6.93645">
        <ele>1247.1</ele>
        <time>2025-09-27T09:03:42Z</time>
      </trkpt>
      <trkpt lat="43.71834" lon="6.93651">
        <ele>1246.8</ele>
        <time>2025-09-27T09:03:43Z</time>
      </trkpt>
      <trkpt lat="43.71837" lon="6.93656">
        <ele>1246.5</ele>
        <time>2025-09-27T09:03:44Z</time>
      </trkpt>
      <trkpt lat="43.71838" lon="6.93664">
        <ele>1246.1</ele>
        <time>2025-09-27T09:03:46Z</time>
      </trkpt>
      <trkpt lat="43.71842" lon="6.9367">
        <ele>1245.5</ele>
        <time>2025-09-27T09:03:50Z</time>
      </trkpt>
      <trkpt lat="43.71848" lon="6.93675">
        <ele>1245</ele>
        <time>2025-09-27T09:03:52Z</time>
      </trkpt>
      <trkpt lat="43.71851" lon="6.93681">
        <ele>1244.8</ele>
        <time>2025-09-27T09:03:54Z</time>
      </trkpt>
      <trkpt lat="43.71853" lon="6.93687">
        <ele>1244.8</ele>
        <time>2025-09-27T09:03:57Z</time>
      </trkpt>
      <trkpt lat="43.71857" lon="6.93693">
        <ele>1244.9</ele>
        <time>2025-09-27T09:04:01Z</time>
      </trkpt>
      <trkpt lat="43.71861" lon="6.93698">
        <ele>1244.9</ele>
        <time>2025-09-27T09:04:04Z</time>
      </trkpt>
      <trkpt lat="43.71866" lon="6.93703">
        <ele>1244.7</ele>
        <time>2025-09-27T09:04:09Z</time>
      </trkpt>
      <trkpt lat="43.71869" lon="6.93707">
        <ele>1244.5</ele>
        <time>2025-09-27T09:04:11Z</time>
      </trkpt>
      <trkpt lat="43.71874" lon="6.93712">
        <ele>1244</ele>
        <time>2025-09-27T09:04:13Z</time>
      </trkpt>
      <trkpt lat="43.7188" lon="6.93719">
        <ele>1243.4</ele>
        <time>2025-09-27T09:04:15Z</time>
      </trkpt>
      <trkpt lat="43.71884" lon="6.93721">
        <ele>1243.2</ele>
        <time>2025-09-27T09:04:16Z</time>
      </trkpt>
      <trkpt lat="43.71889" lon="6.93722">
        <ele>1243.1</ele>
        <time>2025-09-27T09:04:17Z</time>
      </trkpt>
      <trkpt lat="43.71896" lon="6.93721">
        <ele>1242.9</ele>
        <time>2025-09-27T09:04:19Z</time>
      </trkpt>
      <trkpt lat="43.71902" lon="6.9372">
        <ele>1243</ele>
        <time>2025-09-27T09:04:21Z</time>
      </trkpt>
      <trkpt lat="43.71907" lon="6.93717">
        <ele>1243</ele>
        <time>2025-09-27T09:04:24Z</time>
      </trkpt>
      <trkpt lat="43.71912" lon="6.93717">
        <ele>1243.1</ele>
        <time>2025-09-27T09:04:26Z</time>
      </trkpt>
      <trkpt lat="43.71917" lon="6.93719">
        <ele>1243.1</ele>
        <time>2025-09-27T09:04:28Z</time>
      </trkpt>
      <trkpt lat="43.71921" lon="6.93722">
        <ele>1243</ele>
        <time>2025-09-27T09:04:30Z</time>
      </trkpt>
      <trkpt lat="43.71926" lon="6.93724">
        <ele>1242.7</ele>
        <time>2025-09-27T09:04:32Z</time>
      </trkpt>
      <trkpt lat="43.71935" lon="6.93727">
        <ele>1241.9</ele>
        <time>2025-09-27T09:04:34Z</time>
      </trkpt>
      <trkpt lat="43.7194" lon="6.93729">
        <ele>1241.2</ele>
        <time>2025-09-27T09:04:35Z</time>
      </trkpt>
      <trkpt lat="43.71945" lon="6.93734">
        <ele>1240.5</ele>
        <time>2025-09-27T09:04:36Z</time>
      </trkpt>
      <trkpt lat="43.7195" lon="6.93739">
        <ele>1239.7</ele>
        <time>2025-09-27T09:04:37Z</time>
      </trkpt>
      <trkpt lat="43.71956" lon="6.93744">
        <ele>1238.9</ele>
        <time>2025-09-27T09:04:38Z</time>
      </trkpt>
      <trkpt lat="43.71961" lon="6.93749">
        <ele>1238.1</ele>
        <time>2025-09-27T09:04:39Z</time>
      </trkpt>
      <trkpt lat="43.71965" lon="6.93753">
        <ele>1237.5</ele>
        <time>2025-09-27T09:04:40Z</time>
      </trkpt>
      <trkpt lat="43.71971" lon="6.93761">
        <ele>1236.4</ele>
        <time>2025-09-27T09:04:42Z</time>
      </trkpt>
      <trkpt lat="43.71978" lon="6.93767">
        <ele>1235.3</ele>
        <time>2025-09-27T09:04:44Z</time>
      </trkpt>
      <trkpt lat="43.7198" lon="6.93774">
        <ele>1234.5</ele>
        <time>2025-09-27T09:04:46Z</time>
      </trkpt>
      <trkpt lat="43.71981" lon="6.93782">
        <ele>1233.7</ele>
        <time>2025-09-27T09:04:48Z</time>
      </trkpt>
      <trkpt lat="43.71983" lon="6.93791">
        <ele>1232.5</ele>
        <time>2025-09-27T09:04:50Z</time>
      </trkpt>
      <trkpt lat="43.71986" lon="6.93796">
        <ele>1231.7</ele>
        <time>2025-09-27T09:04:51Z</time>
      </trkpt>
      <trkpt lat="43.71992" lon="6.93802">
        <ele>1230.2</ele>
        <time>2025-09-27T09:04:53Z</time>
      </trkpt>
      <trkpt lat="43.71999" lon="6.93806">
        <ele>1229</ele>
        <time>2025-09-27T09:04:55Z</time>
      </trkpt>
      <trkpt lat="43.72004" lon="6.93804">
        <ele>1228.3</ele>
        <time>2025-09-27T09:04:56Z</time>
      </trkpt>
      <trkpt lat="43.72013" lon="6.93804">
        <ele>1227.2</ele>
        <time>2025-09-27T09:04:58Z</time>
      </trkpt>
      <trkpt lat="43.72019" lon="6.93804">
        <ele>1226.7</ele>
        <time>2025-09-27T09:04:59Z</time>
      </trkpt>
      <trkpt lat="43.72024" lon="6.93803">
        <ele>1226.2</ele>
        <time>2025-09-27T09:05:00Z</time>
      </trkpt>
      <trkpt lat="43.72029" lon="6.93801">
        <ele>1225.8</ele>
        <time>2025-09-27T09:05:01Z</time>
      </trkpt>
      <trkpt lat="43.72034" lon="6.938">
        <ele>1225.5</ele>
        <time>2025-09-27T09:05:02Z</time>
      </trkpt>
      <trkpt lat="43.72043" lon="6.93805">
        <ele>1224.8</ele>
        <time>2025-09-27T09:05:04Z</time>
      </trkpt>
      <trkpt lat="43.72048" lon="6.93807">
        <ele>1224.4</ele>
        <time>2025-09-27T09:05:05Z</time>
      </trkpt>
      <trkpt lat="43.72052" lon="6.93814">
        <ele>1223.7</ele>
        <time>2025-09-27T09:05:07Z</time>
      </trkpt>
      <trkpt lat="43.72054" lon="6.93826">
        <ele>1222.4</ele>
        <time>2025-09-27T09:05:09Z</time>
      </trkpt>
      <trkpt lat="43.72054" lon="6.93833">
        <ele>1221.5</ele>
        <time>2025-09-27T09:05:10Z</time>
      </trkpt>
      <trkpt lat="43.72055" lon="6.9384">
        <ele>1220.5</ele>
        <time>2025-09-27T09:05:11Z</time>
      </trkpt>
      <trkpt lat="43.72055" lon="6.93847">
        <ele>1219.5</ele>
        <time>2025-09-27T09:05:12Z</time>
      </trkpt>
      <trkpt lat="43.72054" lon="6.93853">
        <ele>1218.6</ele>
        <time>2025-09-27T09:05:13Z</time>
      </trkpt>
      <trkpt lat="43.72053" lon="6.93859">
        <ele>1217.6</ele>
        <time>2025-09-27T09:05:14Z</time>
      </trkpt>
      <trkpt lat="43.72054" lon="6.93872">
        <ele>1216</ele>
        <time>2025-09-27T09:05:16Z</time>
      </trkpt>
      <trkpt lat="43.72058" lon="6.9388">
        <ele>1214.7</ele>
        <time>2025-09-27T09:05:18Z</time>
      </trkpt>
      <trkpt lat="43.72062" lon="6.93884">
        <ele>1213.9</ele>
        <time>2025-09-27T09:05:19Z</time>
      </trkpt>
      <trkpt lat="43.72066" lon="6.93888">
        <ele>1213.1</ele>
        <time>2025-09-27T09:05:20Z</time>
      </trkpt>
      <trkpt lat="43.72071" lon="6.93893">
        <ele>1212.1</ele>
        <time>2025-09-27T09:05:21Z</time>
      </trkpt>
      <trkpt lat="43.72075" lon="6.93898">
        <ele>1211.2</ele>
        <time>2025-09-27T09:05:22Z</time>
      </trkpt>
      <trkpt lat="43.7208" lon="6.93905">
        <ele>1210</ele>
        <time>2025-09-27T09:05:24Z</time>
      </trkpt>
      <trkpt lat="43.72086" lon="6.9391">
        <ele>1208.9</ele>
        <time>2025-09-27T09:05:26Z</time>
      </trkpt>
      <trkpt lat="43.72094" lon="6.93911">
        <ele>1207.4</ele>
        <time>2025-09-27T09:05:28Z</time>
      </trkpt>
      <trkpt lat="43.72101" lon="6.93916">
        <ele>1206.1</ele>
        <time>2025-09-27T09:05:30Z</time>
      </trkpt>
      <trkpt lat="43.72108" lon="6.93922">
        <ele>1205.1</ele>
        <time>2025-09-27T09:05:32Z</time>
      </trkpt>
      <trkpt lat="43.72111" lon="6.93927">
        <ele>1204.6</ele>
        <time>2025-09-27T09:05:33Z</time>
      </trkpt>
      <trkpt lat="43.72114" lon="6.93932">
        <ele>1204.1</ele>
        <time>2025-09-27T09:05:34Z</time>
      </trkpt>
      <trkpt lat="43.72118" lon="6.93937">
        <ele>1203.6</ele>
        <time>2025-09-27T09:05:35Z</time>
      </trkpt>
      <trkpt lat="43.72122" lon="6.93943">
        <ele>1202.9</ele>
        <time>2025-09-27T09:05:36Z</time>
      </trkpt>
      <trkpt lat="43.72127" lon="6.93948">
        <ele>1202.1</ele>
        <time>2025-09-27T09:05:37Z</time>
      </trkpt>
      <trkpt lat="43.72132" lon="6.93953">
        <ele>1201.4</ele>
        <time>2025-09-27T09:05:38Z</time>
      </trkpt>
      <trkpt lat="43.72137" lon="6.93958">
        <ele>1200.7</ele>
        <time>2025-09-27T09:05:39Z</time>
      </trkpt>
      <trkpt lat="43.72141" lon="6.93963">
        <ele>1200.1</ele>
        <time>2025-09-27T09:05:40Z</time>
      </trkpt>
      <trkpt lat="43.72146" lon="6.93971">
        <ele>1199.3</ele>
        <time>2025-09-27T09:05:42Z</time>
      </trkpt>
      <trkpt lat="43.72148" lon="6.93977">
        <ele>1198.8</ele>
        <time>2025-09-27T09:05:43Z</time>
      </trkpt>
      <trkpt lat="43.7215" lon="6.93988">
        <ele>1198</ele>
        <time>2025-09-27T09:05:45Z</time>
      </trkpt>
      <trkpt lat="43.72151" lon="6.93995">
        <ele>1197.6</ele>
        <time>2025-09-27T09:05:47Z</time>
      </trkpt>
      <trkpt lat="43.72155" lon="6.93993">
        <ele>1197.2</ele>
        <time>2025-09-27T09:05:52Z</time>
      </trkpt>
      <trkpt lat="43.7216" lon="6.93991">
        <ele>1196.8</ele>
        <time>2025-09-27T09:05:56Z</time>
      </trkpt>
      <trkpt lat="43.72166" lon="6.93991">
        <ele>1196.4</ele>
        <time>2025-09-27T09:05:59Z</time>
      </trkpt>
      <trkpt lat="43.72173" lon="6.93991">
        <ele>1195.9</ele>
        <time>2025-09-27T09:06:02Z</time>
      </trkpt>
      <trkpt lat="43.72178" lon="6.93992">
        <ele>1195.6</ele>
        <time>2025-09-27T09:06:04Z</time>
      </trkpt>
      <trkpt lat="43.72185" lon="6.93994">
        <ele>1195.1</ele>
        <time>2025-09-27T09:06:06Z</time>
      </trkpt>
      <trkpt lat="43.72193" lon="6.93995">
        <ele>1194.6</ele>
        <time>2025-09-27T09:06:08Z</time>
      </trkpt>
      <trkpt lat="43.722" lon="6.93996">
        <ele>1194.2</ele>
        <time>2025-09-27T09:06:10Z</time>
      </trkpt>
      <trkpt lat="43.72207" lon="6.94001">
        <ele>1193.7</ele>
        <time>2025-09-27T09:06:12Z</time>
      </trkpt>
      <trkpt lat="43.72215" lon="6.94005">
        <ele>1193.2</ele>
        <time>2025-09-27T09:06:14Z</time>
      </trkpt>
      <trkpt lat="43.72219" lon="6.94008">
        <ele>1192.9</ele>
        <time>2025-09-27T09:06:15Z</time>
      </trkpt>
      <trkpt lat="43.72223" lon="6.94011">
        <ele>1192.6</ele>
        <time>2025-09-27T09:06:16Z</time>
      </trkpt>
      <trkpt lat="43.72227" lon="6.94015">
        <ele>1192.2</ele>
        <time>2025-09-27T09:06:17Z</time>
      </trkpt>
      <trkpt lat="43.72231" lon="6.94018">
        <ele>1191.8</ele>
        <time>2025-09-27T09:06:18Z</time>
      </trkpt>
      <trkpt lat="43.72235" lon="6.94022">
        <ele>1191.4</ele>
        <time>2025-09-27T09:06:19Z</time>
      </trkpt>
      <trkpt lat="43.7224" lon="6.94026">
        <ele>1191.1</ele>
        <time>2025-09-27T09:06:20Z</time>
      </trkpt>
      <trkpt lat="43.72244" lon="6.9403">
        <ele>1190.9</ele>
        <time>2025-09-27T09:06:21Z</time>
      </trkpt>
      <trkpt lat="43.72248" lon="6.94033">
        <ele>1190.7</ele>
        <time>2025-09-27T09:06:22Z</time>
      </trkpt>
      <trkpt lat="43.72255" lon="6.94039">
        <ele>1190.3</ele>
        <time>2025-09-27T09:06:24Z</time>
      </trkpt>
      <trkpt lat="43.72262" lon="6.94044">
        <ele>1189.9</ele>
        <time>2025-09-27T09:06:26Z</time>
      </trkpt>
      <trkpt lat="43.7227" lon="6.94048">
        <ele>1189.6</ele>
        <time>2025-09-27T09:06:28Z</time>
      </trkpt>
      <trkpt lat="43.72277" lon="6.94053">
        <ele>1189.4</ele>
        <time>2025-09-27T09:06:30Z</time>
      </trkpt>
      <trkpt lat="43.72282" lon="6.94057">
        <ele>1189.4</ele>
        <time>2025-09-27T09:06:33Z</time>
      </trkpt>
      <trkpt lat="43.72285" lon="6.94064">
        <ele>1189.5</ele>
        <time>2025-09-27T09:06:36Z</time>
      </trkpt>
      <trkpt lat="43.72289" lon="6.94069">
        <ele>1189.6</ele>
        <time>2025-09-27T09:06:38Z</time>
      </trkpt>
      <trkpt lat="43.72294" lon="6.94076">
        <ele>1189.5</ele>
        <time>2025-09-27T09:06:40Z</time>
      </trkpt>
      <trkpt lat="43.72298" lon="6.94082">
        <ele>1189.4</ele>
        <time>2025-09-27T09:06:42Z</time>
      </trkpt>
      <trkpt lat="43.72296" lon="6.9409">
        <ele>1189.1</ele>
        <time>2025-09-27T09:06:45Z</time>
      </trkpt>
      <trkpt lat="43.72295" lon="6.94099">
        <ele>1188.5</ele>
        <time>2025-09-27T09:06:47Z</time>
      </trkpt>
      <trkpt lat="43.72291" lon="6.94106">
        <ele>1187.7</ele>
        <time>2025-09-27T09:06:49Z</time>
      </trkpt>
      <trkpt lat="43.72288" lon="6.94112">
        <ele>1186.8</ele>
        <time>2025-09-27T09:06:51Z</time>
      </trkpt>
      <trkpt lat="43.72284" lon="6.94119">
        <ele>1185.8</ele>
        <time>2025-09-27T09:06:53Z</time>
      </trkpt>
      <trkpt lat="43.72286" lon="6.94127">
        <ele>1184.9</ele>
        <time>2025-09-27T09:06:55Z</time>
      </trkpt>
      <trkpt lat="43.72289" lon="6.94135">
        <ele>1184.2</ele>
        <time>2025-09-27T09:06:58Z</time>
      </trkpt>
      <trkpt lat="43.72291" lon="6.94142">
        <ele>1183.9</ele>
        <time>2025-09-27T09:07:00Z</time>
      </trkpt>
      <trkpt lat="43.72293" lon="6.9415">
        <ele>1183.6</ele>
        <time>2025-09-27T09:07:02Z</time>
      </trkpt>
      <trkpt lat="43.72297" lon="6.94157">
        <ele>1183.3</ele>
        <time>2025-09-27T09:07:04Z</time>
      </trkpt>
      <trkpt lat="43.72301" lon="6.94166">
        <ele>1182.9</ele>
        <time>2025-09-27T09:07:06Z</time>
      </trkpt>
      <trkpt lat="43.72303" lon="6.94177">
        <ele>1182.3</ele>
        <time>2025-09-27T09:07:08Z</time>
      </trkpt>
      <trkpt lat="43.72306" lon="6.94188">
        <ele>1181.6</ele>
        <time>2025-09-27T09:07:10Z</time>
      </trkpt>
      <trkpt lat="43.7231" lon="6.94198">
        <ele>1181</ele>
        <time>2025-09-27T09:07:12Z</time>
      </trkpt>
      <trkpt lat="43.72313" lon="6.94208">
        <ele>1180.5</ele>
        <time>2025-09-27T09:07:14Z</time>
      </trkpt>
      <trkpt lat="43.72316" lon="6.9422">
        <ele>1180</ele>
        <time>2025-09-27T09:07:16Z</time>
      </trkpt>
      <trkpt lat="43.72319" lon="6.9423">
        <ele>1179.7</ele>
        <time>2025-09-27T09:07:18Z</time>
      </trkpt>
      <trkpt lat="43.72322" lon="6.94238">
        <ele>1179.6</ele>
        <time>2025-09-27T09:07:20Z</time>
      </trkpt>
      <trkpt lat="43.72326" lon="6.94245">
        <ele>1179.5</ele>
        <time>2025-09-27T09:07:22Z</time>
      </trkpt>
      <trkpt lat="43.7233" lon="6.94253">
        <ele>1179.6</ele>
        <time>2025-09-27T09:07:24Z</time>
      </trkpt>
      <trkpt lat="43.72335" lon="6.94262">
        <ele>1179.6</ele>
        <time>2025-09-27T09:07:26Z</time>
      </trkpt>
      <trkpt lat="43.72339" lon="6.94268">
        <ele>1179.7</ele>
        <time>2025-09-27T09:07:28Z</time>
      </trkpt>
      <trkpt lat="43.72342" lon="6.94275">
        <ele>1179.6</ele>
        <time>2025-09-27T09:07:30Z</time>
      </trkpt>
      <trkpt lat="43.72344" lon="6.94281">
        <ele>1179.4</ele>
        <time>2025-09-27T09:07:32Z</time>
      </trkpt>
      <trkpt lat="43.72346" lon="6.94287">
        <ele>1179.2</ele>
        <time>2025-09-27T09:08:15Z</time>
      </trkpt>
      <trkpt lat="43.72348" lon="6.94293">
        <ele>1179.1</ele>
        <time>2025-09-27T09:12:43Z</time>
      </trkpt>
      <trkpt lat="43.72353" lon="6.94297">
        <ele>1178.8</ele>
        <time>2025-09-27T09:12:46Z</time>
      </trkpt>
      <trkpt lat="43.72356" lon="6.94302">
        <ele>1178.5</ele>
        <time>2025-09-27T09:12:48Z</time>
      </trkpt>
      <trkpt lat="43.72358" lon="6.9431">
        <ele>1178.2</ele>
        <time>2025-09-27T09:12:50Z</time>
      </trkpt>
      <trkpt lat="43.72361" lon="6.94319">
        <ele>1177.6</ele>
        <time>2025-09-27T09:12:52Z</time>
      </trkpt>
      <trkpt lat="43.72365" lon="6.94327">
        <ele>1177</ele>
        <time>2025-09-27T09:12:54Z</time>
      </trkpt>
      <trkpt lat="43.72368" lon="6.94337">
        <ele>1176.5</ele>
        <time>2025-09-27T09:12:56Z</time>
      </trkpt>
      <trkpt lat="43.72373" lon="6.94345">
        <ele>1175.8</ele>
        <time>2025-09-27T09:12:58Z</time>
      </trkpt>
      <trkpt lat="43.72378" lon="6.94351">
        <ele>1175.3</ele>
        <time>2025-09-27T09:13:00Z</time>
      </trkpt>
      <trkpt lat="43.72382" lon="6.94358">
        <ele>1174.6</ele>
        <time>2025-09-27T09:13:02Z</time>
      </trkpt>
      <trkpt lat="43.72388" lon="6.94366">
        <ele>1173.7</ele>
        <time>2025-09-27T09:13:04Z</time>
      </trkpt>
      <trkpt lat="43.72394" lon="6.94375">
        <ele>1172.4</ele>
        <time>2025-09-27T09:13:06Z</time>
      </trkpt>
      <trkpt lat="43.724" lon="6.94384">
        <ele>1170.9</ele>
        <time>2025-09-27T09:13:08Z</time>
      </trkpt>
      <trkpt lat="43.72406" lon="6.94391">
        <ele>1169.3</ele>
        <time>2025-09-27T09:13:10Z</time>
      </trkpt>
      <trkpt lat="43.7241" lon="6.94393">
        <ele>1168.4</ele>
        <time>2025-09-27T09:13:11Z</time>
      </trkpt>
      <trkpt lat="43.72415" lon="6.94392">
        <ele>1168.1</ele>
        <time>2025-09-27T09:13:12Z</time>
      </trkpt>
      <trkpt lat="43.7242" lon="6.94391">
        <ele>1167.9</ele>
        <time>2025-09-27T09:13:13Z</time>
      </trkpt>
      <trkpt lat="43.72428" lon="6.94389">
        <ele>1167.4</ele>
        <time>2025-09-27T09:13:15Z</time>
      </trkpt>
      <trkpt lat="43.72436" lon="6.94391">
        <ele>1166.7</ele>
        <time>2025-09-27T09:13:17Z</time>
      </trkpt>
      <trkpt lat="43.72442" lon="6.94397">
        <ele>1165.7</ele>
        <time>2025-09-27T09:13:19Z</time>
      </trkpt>
      <trkpt lat="43.72448" lon="6.944">
        <ele>1164.8</ele>
        <time>2025-09-27T09:13:21Z</time>
      </trkpt>
      <trkpt lat="43.72454" lon="6.94401">
        <ele>1163.8</ele>
        <time>2025-09-27T09:13:23Z</time>
      </trkpt>
      <trkpt lat="43.7246" lon="6.94398">
        <ele>1162.7</ele>
        <time>2025-09-27T09:13:25Z</time>
      </trkpt>
      <trkpt lat="43.72466" lon="6.94393">
        <ele>1161.5</ele>
        <time>2025-09-27T09:13:27Z</time>
      </trkpt>
      <trkpt lat="43.72471" lon="6.94387">
        <ele>1160.6</ele>
        <time>2025-09-27T09:13:29Z</time>
      </trkpt>
      <trkpt lat="43.72476" lon="6.94381">
        <ele>1159.9</ele>
        <time>2025-09-27T09:13:31Z</time>
      </trkpt>
      <trkpt lat="43.72481" lon="6.94375">
        <ele>1159.2</ele>
        <time>2025-09-27T09:13:33Z</time>
      </trkpt>
      <trkpt lat="43.72487" lon="6.9437">
        <ele>1158.6</ele>
        <time>2025-09-27T09:13:35Z</time>
      </trkpt>
      <trkpt lat="43.72493" lon="6.94364">
        <ele>1158.1</ele>
        <time>2025-09-27T09:13:37Z</time>
      </trkpt>
      <trkpt lat="43.725" lon="6.94363">
        <ele>1157.5</ele>
        <time>2025-09-27T09:13:39Z</time>
      </trkpt>
      <trkpt lat="43.72507" lon="6.9436">
        <ele>1156.9</ele>
        <time>2025-09-27T09:13:41Z</time>
      </trkpt>
      <trkpt lat="43.72509" lon="6.94354">
        <ele>1156.6</ele>
        <time>2025-09-27T09:13:43Z</time>
      </trkpt>
      <trkpt lat="43.72513" lon="6.94349">
        <ele>1156.2</ele>
        <time>2025-09-27T09:13:49Z</time>
      </trkpt>
      <trkpt lat="43.72516" lon="6.94344">
        <ele>1155.8</ele>
        <time>2025-09-27T09:13:52Z</time>
      </trkpt>
      <trkpt lat="43.7252" lon="6.94337">
        <ele>1155.4</ele>
        <time>2025-09-27T09:13:55Z</time>
      </trkpt>
      <trkpt lat="43.72523" lon="6.94332">
        <ele>1155</ele>
        <time>2025-09-27T09:13:57Z</time>
      </trkpt>
      <trkpt lat="43.72528" lon="6.94326">
        <ele>1154.6</ele>
        <time>2025-09-27T09:13:59Z</time>
      </trkpt>
      <trkpt lat="43.72533" lon="6.94322">
        <ele>1154.1</ele>
        <time>2025-09-27T09:14:01Z</time>
      </trkpt>
      <trkpt lat="43.72538" lon="6.94317">
        <ele>1153.5</ele>
        <time>2025-09-27T09:14:04Z</time>
      </trkpt>
      <trkpt lat="43.72543" lon="6.94315">
        <ele>1152.9</ele>
        <time>2025-09-27T09:14:06Z</time>
      </trkpt>
      <trkpt lat="43.72551" lon="6.94312">
        <ele>1151.8</ele>
        <time>2025-09-27T09:14:08Z</time>
      </trkpt>
      <trkpt lat="43.72555" lon="6.94308">
        <ele>1151.1</ele>
        <time>2025-09-27T09:14:09Z</time>
      </trkpt>
      <trkpt lat="43.72562" lon="6.94309">
        <ele>1150</ele>
        <time>2025-09-27T09:14:12Z</time>
      </trkpt>
      <trkpt lat="43.72564" lon="6.94317">
        <ele>1149</ele>
        <time>2025-09-27T09:14:14Z</time>
      </trkpt>
      <trkpt lat="43.72566" lon="6.94323">
        <ele>1148.2</ele>
        <time>2025-09-27T09:14:16Z</time>
      </trkpt>
      <trkpt lat="43.72568" lon="6.94333">
        <ele>1147</ele>
        <time>2025-09-27T09:14:19Z</time>
      </trkpt>
      <trkpt lat="43.7257" lon="6.94341">
        <ele>1146.1</ele>
        <time>2025-09-27T09:14:21Z</time>
      </trkpt>
      <trkpt lat="43.72575" lon="6.94349">
        <ele>1145</ele>
        <time>2025-09-27T09:14:23Z</time>
      </trkpt>
      <trkpt lat="43.72575" lon="6.94359">
        <ele>1143.9</ele>
        <time>2025-09-27T09:14:25Z</time>
      </trkpt>
      <trkpt lat="43.72574" lon="6.94366">
        <ele>1143.3</ele>
        <time>2025-09-27T09:14:27Z</time>
      </trkpt>
      <trkpt lat="43.72574" lon="6.94373">
        <ele>1142.6</ele>
        <time>2025-09-27T09:14:29Z</time>
      </trkpt>
      <trkpt lat="43.72579" lon="6.94379">
        <ele>1141.8</ele>
        <time>2025-09-27T09:14:31Z</time>
      </trkpt>
      <trkpt lat="43.72584" lon="6.94377">
        <ele>1141.3</ele>
        <time>2025-09-27T09:14:36Z</time>
      </trkpt>
      <trkpt lat="43.72587" lon="6.94372">
        <ele>1140.9</ele>
        <time>2025-09-27T09:14:39Z</time>
      </trkpt>
      <trkpt lat="43.72592" lon="6.9437">
        <ele>1140.4</ele>
        <time>2025-09-27T09:14:41Z</time>
      </trkpt>
      <trkpt lat="43.72597" lon="6.9437">
        <ele>1139.9</ele>
        <time>2025-09-27T09:14:43Z</time>
      </trkpt>
      <trkpt lat="43.726" lon="6.94366">
        <ele>1139.4</ele>
        <time>2025-09-27T09:14:45Z</time>
      </trkpt>
      <trkpt lat="43.72605" lon="6.94362">
        <ele>1138.8</ele>
        <time>2025-09-27T09:14:47Z</time>
      </trkpt>
      <trkpt lat="43.72612" lon="6.94362">
        <ele>1137.9</ele>
        <time>2025-09-27T09:14:50Z</time>
      </trkpt>
      <trkpt lat="43.72617" lon="6.94365">
        <ele>1137.1</ele>
        <time>2025-09-27T09:14:53Z</time>
      </trkpt>
      <trkpt lat="43.72622" lon="6.94363">
        <ele>1136.3</ele>
        <time>2025-09-27T09:14:55Z</time>
      </trkpt>
      <trkpt lat="43.72625" lon="6.94358">
        <ele>1135.4</ele>
        <time>2025-09-27T09:14:57Z</time>
      </trkpt>
      <trkpt lat="43.7263" lon="6.94355">
        <ele>1134.4</ele>
        <time>2025-09-27T09:14:59Z</time>
      </trkpt>
      <trkpt lat="43.72636" lon="6.94356">
        <ele>1133.4</ele>
        <time>2025-09-27T09:15:01Z</time>
      </trkpt>
      <trkpt lat="43.7264" lon="6.94358">
        <ele>1132.5</ele>
        <time>2025-09-27T09:15:03Z</time>
      </trkpt>
      <trkpt lat="43.72644" lon="6.94362">
        <ele>1131.5</ele>
        <time>2025-09-27T09:15:05Z</time>
      </trkpt>
      <trkpt lat="43.72648" lon="6.94367">
        <ele>1130.5</ele>
        <time>2025-09-27T09:15:07Z</time>
      </trkpt>
      <trkpt lat="43.72651" lon="6.94374">
        <ele>1129.3</ele>
        <time>2025-09-27T09:15:10Z</time>
      </trkpt>
      <trkpt lat="43.72652" lon="6.94384">
        <ele>1127.9</ele>
        <time>2025-09-27T09:15:13Z</time>
      </trkpt>
      <trkpt lat="43.72654" lon="6.94393">
        <ele>1126.6</ele>
        <time>2025-09-27T09:15:15Z</time>
      </trkpt>
      <trkpt lat="43.72658" lon="6.944">
        <ele>1125.3</ele>
        <time>2025-09-27T09:15:17Z</time>
      </trkpt>
      <trkpt lat="43.72665" lon="6.94402">
        <ele>1123.9</ele>
        <time>2025-09-27T09:15:19Z</time>
      </trkpt>
      <trkpt lat="43.72672" lon="6.94406">
        <ele>1122.7</ele>
        <time>2025-09-27T09:15:21Z</time>
      </trkpt>
      <trkpt lat="43.72677" lon="6.94412">
        <ele>1121.5</ele>
        <time>2025-09-27T09:15:22Z</time>
      </trkpt>
      <trkpt lat="43.72682" lon="6.94417">
        <ele>1120.4</ele>
        <time>2025-09-27T09:15:23Z</time>
      </trkpt>
      <trkpt lat="43.72686" lon="6.94423">
        <ele>1119.4</ele>
        <time>2025-09-27T09:15:24Z</time>
      </trkpt>
      <trkpt lat="43.72689" lon="6.94429">
        <ele>1118.5</ele>
        <time>2025-09-27T09:15:25Z</time>
      </trkpt>
      <trkpt lat="43.72693" lon="6.94434">
        <ele>1117.6</ele>
        <time>2025-09-27T09:15:26Z</time>
      </trkpt>
      <trkpt lat="43.72695" lon="6.94439">
        <ele>1116.8</ele>
        <time>2025-09-27T09:15:27Z</time>
      </trkpt>
      <trkpt lat="43.72696" lon="6.94447">
        <ele>1115.8</ele>
        <time>2025-09-27T09:15:29Z</time>
      </trkpt>
      <trkpt lat="43.72695" lon="6.94456">
        <ele>1114.8</ele>
        <time>2025-09-27T09:15:32Z</time>
      </trkpt>
      <trkpt lat="43.72692" lon="6.94464">
        <ele>1114</ele>
        <time>2025-09-27T09:15:35Z</time>
      </trkpt>
      <trkpt lat="43.72689" lon="6.9447">
        <ele>1113.3</ele>
        <time>2025-09-27T09:15:37Z</time>
      </trkpt>
      <trkpt lat="43.72686" lon="6.94476">
        <ele>1112.6</ele>
        <time>2025-09-27T09:15:39Z</time>
      </trkpt>
      <trkpt lat="43.72683" lon="6.94482">
        <ele>1112.1</ele>
        <time>2025-09-27T09:15:41Z</time>
      </trkpt>
      <trkpt lat="43.72681" lon="6.94488">
        <ele>1111.5</ele>
        <time>2025-09-27T09:15:43Z</time>
      </trkpt>
      <trkpt lat="43.72676" lon="6.94491">
        <ele>1111.1</ele>
        <time>2025-09-27T09:15:45Z</time>
      </trkpt>
      <trkpt lat="43.72672" lon="6.94497">
        <ele>1110.5</ele>
        <time>2025-09-27T09:15:47Z</time>
      </trkpt>
      <trkpt lat="43.72667" lon="6.94507">
        <ele>1110.6</ele>
        <time>2025-09-27T09:15:49Z</time>
      </trkpt>
      <trkpt lat="43.72662" lon="6.94517">
        <ele>1110.7</ele>
        <time>2025-09-27T09:15:51Z</time>
      </trkpt>
      <trkpt lat="43.7266" lon="6.94523">
        <ele>1111.2</ele>
        <time>2025-09-27T09:15:52Z</time>
      </trkpt>
      <trkpt lat="43.72655" lon="6.94533">
        <ele>1111.3</ele>
        <time>2025-09-27T09:15:54Z</time>
      </trkpt>
      <trkpt lat="43.72651" lon="6.94541">
        <ele>1112</ele>
        <time>2025-09-27T09:15:56Z</time>
      </trkpt>
      <trkpt lat="43.72646" lon="6.94549">
        <ele>1112.2</ele>
        <time>2025-09-27T09:15:58Z</time>
      </trkpt>
      <trkpt lat="43.72641" lon="6.94555">
        <ele>1113.3</ele>
        <time>2025-09-27T09:16:00Z</time>
      </trkpt>
      <trkpt lat="43.72637" lon="6.9456">
        <ele>1113.5</ele>
        <time>2025-09-27T09:16:03Z</time>
      </trkpt>
      <trkpt lat="43.72635" lon="6.94553">
        <ele>1115.1</ele>
        <time>2025-09-27T09:16:15Z</time>
      </trkpt>
      <trkpt lat="43.7263" lon="6.94556">
        <ele>1115.6</ele>
        <time>2025-09-27T09:16:20Z</time>
      </trkpt>
      <trkpt lat="43.72626" lon="6.94561">
        <ele>1116.6</ele>
        <time>2025-09-27T09:16:25Z</time>
      </trkpt>
      <trkpt lat="43.72624" lon="6.9457">
        <ele>1116.4</ele>
        <time>2025-09-27T09:16:28Z</time>
      </trkpt>
      <trkpt lat="43.72622" lon="6.94577">
        <ele>1116.7</ele>
        <time>2025-09-27T09:16:30Z</time>
      </trkpt>
      <trkpt lat="43.72619" lon="6.94582">
        <ele>1117.2</ele>
        <time>2025-09-27T09:16:32Z</time>
      </trkpt>
      <trkpt lat="43.72616" lon="6.94589">
        <ele>1117.8</ele>
        <time>2025-09-27T09:16:34Z</time>
      </trkpt>
      <trkpt lat="43.72611" lon="6.94597">
        <ele>1117.9</ele>
        <time>2025-09-27T09:16:36Z</time>
      </trkpt>
      <trkpt lat="43.72609" lon="6.94606">
        <ele>1117.4</ele>
        <time>2025-09-27T09:16:38Z</time>
      </trkpt>
      <trkpt lat="43.72608" lon="6.94612">
        <ele>1117.6</ele>
        <time>2025-09-27T09:17:10Z</time>
      </trkpt>
      <trkpt lat="43.72612" lon="6.94618">
        <ele>1116.9</ele>
        <time>2025-09-27T09:18:00Z</time>
      </trkpt>
      <trkpt lat="43.72616" lon="6.94622">
        <ele>1116.2</ele>
        <time>2025-09-27T09:18:02Z</time>
      </trkpt>
      <trkpt lat="43.72617" lon="6.94628">
        <ele>1115.6</ele>
        <time>2025-09-27T09:18:06Z</time>
      </trkpt>
      <trkpt lat="43.72614" lon="6.94634">
        <ele>1115</ele>
        <time>2025-09-27T09:18:25Z</time>
      </trkpt>
      <trkpt lat="43.72615" lon="6.94641">
        <ele>1114.4</ele>
        <time>2025-09-27T09:18:28Z</time>
      </trkpt>
      <trkpt lat="43.72618" lon="6.94649">
        <ele>1113.6</ele>
        <time>2025-09-27T09:18:32Z</time>
      </trkpt>
      <trkpt lat="43.72622" lon="6.94651">
        <ele>1113</ele>
        <time>2025-09-27T09:18:34Z</time>
      </trkpt>
      <trkpt lat="43.72627" lon="6.94654">
        <ele>1112.4</ele>
        <time>2025-09-27T09:18:37Z</time>
      </trkpt>
      <trkpt lat="43.72631" lon="6.94657">
        <ele>1111.9</ele>
        <time>2025-09-27T09:18:39Z</time>
      </trkpt>
      <trkpt lat="43.72636" lon="6.9466">
        <ele>1111.4</ele>
        <time>2025-09-27T09:18:41Z</time>
      </trkpt>
      <trkpt lat="43.7264" lon="6.94663">
        <ele>1110.9</ele>
        <time>2025-09-27T09:18:43Z</time>
      </trkpt>
      <trkpt lat="43.72645" lon="6.94665">
        <ele>1110.5</ele>
        <time>2025-09-27T09:18:45Z</time>
      </trkpt>
      <trkpt lat="43.7265" lon="6.94666">
        <ele>1110</ele>
        <time>2025-09-27T09:18:47Z</time>
      </trkpt>
      <trkpt lat="43.72655" lon="6.94668">
        <ele>1109.3</ele>
        <time>2025-09-27T09:18:49Z</time>
      </trkpt>
      <trkpt lat="43.7266" lon="6.94675">
        <ele>1108.4</ele>
        <time>2025-09-27T09:18:51Z</time>
      </trkpt>
      <trkpt lat="43.72664" lon="6.94684">
        <ele>1107.4</ele>
        <time>2025-09-27T09:18:53Z</time>
      </trkpt>
      <trkpt lat="43.7267" lon="6.94691">
        <ele>1106.1</ele>
        <time>2025-09-27T09:18:55Z</time>
      </trkpt>
      <trkpt lat="43.72673" lon="6.94698">
        <ele>1104.9</ele>
        <time>2025-09-27T09:18:57Z</time>
      </trkpt>
      <trkpt lat="43.72673" lon="6.94708">
        <ele>1103.5</ele>
        <time>2025-09-27T09:18:59Z</time>
      </trkpt>
      <trkpt lat="43.72671" lon="6.94716">
        <ele>1102.2</ele>
        <time>2025-09-27T09:19:15Z</time>
      </trkpt>
      <trkpt lat="43.72668" lon="6.94724">
        <ele>1101</ele>
        <time>2025-09-27T09:19:17Z</time>
      </trkpt>
      <trkpt lat="43.72664" lon="6.94732">
        <ele>1100.2</ele>
        <time>2025-09-27T09:19:19Z</time>
      </trkpt>
      <trkpt lat="43.72657" lon="6.94736">
        <ele>1099.8</ele>
        <time>2025-09-27T09:19:21Z</time>
      </trkpt>
      <trkpt lat="43.7265" lon="6.94735">
        <ele>1099.5</ele>
        <time>2025-09-27T09:19:23Z</time>
      </trkpt>
      <trkpt lat="43.72643" lon="6.94733">
        <ele>1099</ele>
        <time>2025-09-27T09:19:25Z</time>
      </trkpt>
      <trkpt lat="43.72635" lon="6.94734">
        <ele>1098.5</ele>
        <time>2025-09-27T09:19:27Z</time>
      </trkpt>
      <trkpt lat="43.72631" lon="6.94736">
        <ele>1098.1</ele>
        <time>2025-09-27T09:19:28Z</time>
      </trkpt>
      <trkpt lat="43.72626" lon="6.94737">
        <ele>1097.8</ele>
        <time>2025-09-27T09:19:29Z</time>
      </trkpt>
      <trkpt lat="43.72622" lon="6.94738">
        <ele>1097.5</ele>
        <time>2025-09-27T09:19:30Z</time>
      </trkpt>
      <trkpt lat="43.72617" lon="6.94739">
        <ele>1097.2</ele>
        <time>2025-09-27T09:19:31Z</time>
      </trkpt>
      <trkpt lat="43.72612" lon="6.9474">
        <ele>1097.1</ele>
        <time>2025-09-27T09:19:32Z</time>
      </trkpt>
      <trkpt lat="43.72608" lon="6.94743">
        <ele>1096.9</ele>
        <time>2025-09-27T09:19:33Z</time>
      </trkpt>
      <trkpt lat="43.72601" lon="6.94749">
        <ele>1096.8</ele>
        <time>2025-09-27T09:19:35Z</time>
      </trkpt>
      <trkpt lat="43.72595" lon="6.94757">
        <ele>1096.8</ele>
        <time>2025-09-27T09:19:37Z</time>
      </trkpt>
      <trkpt lat="43.7259" lon="6.94764">
        <ele>1096.7</ele>
        <time>2025-09-27T09:19:39Z</time>
      </trkpt>
      <trkpt lat="43.72588" lon="6.94773">
        <ele>1096.3</ele>
        <time>2025-09-27T09:19:41Z</time>
      </trkpt>
      <trkpt lat="43.72586" lon="6.94784">
        <ele>1095.9</ele>
        <time>2025-09-27T09:19:43Z</time>
      </trkpt>
      <trkpt lat="43.72586" lon="6.94795">
        <ele>1095.5</ele>
        <time>2025-09-27T09:19:45Z</time>
      </trkpt>
      <trkpt lat="43.72588" lon="6.94805">
        <ele>1095</ele>
        <time>2025-09-27T09:19:47Z</time>
      </trkpt>
      <trkpt lat="43.7259" lon="6.94813">
        <ele>1094.6</ele>
        <time>2025-09-27T09:19:49Z</time>
      </trkpt>
      <trkpt lat="43.72591" lon="6.94822">
        <ele>1093.9</ele>
        <time>2025-09-27T09:19:51Z</time>
      </trkpt>
      <trkpt lat="43.72592" lon="6.94833">
        <ele>1093.1</ele>
        <time>2025-09-27T09:19:53Z</time>
      </trkpt>
      <trkpt lat="43.72592" lon="6.94844">
        <ele>1092.3</ele>
        <time>2025-09-27T09:19:55Z</time>
      </trkpt>
      <trkpt lat="43.72592" lon="6.94856">
        <ele>1091.5</ele>
        <time>2025-09-27T09:19:57Z</time>
      </trkpt>
      <trkpt lat="43.72591" lon="6.94867">
        <ele>1090.5</ele>
        <time>2025-09-27T09:19:59Z</time>
      </trkpt>
      <trkpt lat="43.72591" lon="6.94876">
        <ele>1089.6</ele>
        <time>2025-09-27T09:20:01Z</time>
      </trkpt>
      <trkpt lat="43.72592" lon="6.94883">
        <ele>1088.9</ele>
        <time>2025-09-27T09:20:03Z</time>
      </trkpt>
      <trkpt lat="43.72592" lon="6.94892">
        <ele>1087.7</ele>
        <time>2025-09-27T09:20:05Z</time>
      </trkpt>
      <trkpt lat="43.72593" lon="6.94902">
        <ele>1085.9</ele>
        <time>2025-09-27T09:20:07Z</time>
      </trkpt>
      <trkpt lat="43.72594" lon="6.9491">
        <ele>1084.2</ele>
        <time>2025-09-27T09:20:09Z</time>
      </trkpt>
      <trkpt lat="43.72595" lon="6.94918">
        <ele>1082.7</ele>
        <time>2025-09-27T09:20:11Z</time>
      </trkpt>
      <trkpt lat="43.72597" lon="6.94924">
        <ele>1081.4</ele>
        <time>2025-09-27T09:20:13Z</time>
      </trkpt>
      <trkpt lat="43.72601" lon="6.94931">
        <ele>1079.8</ele>
        <time>2025-09-27T09:20:15Z</time>
      </trkpt>
      <trkpt lat="43.72607" lon="6.94932">
        <ele>1078.3</ele>
        <time>2025-09-27T09:20:18Z</time>
      </trkpt>
      <trkpt lat="43.72612" lon="6.94934">
        <ele>1075.4</ele>
        <time>2025-09-27T09:20:21Z</time>
      </trkpt>
      <trkpt lat="43.72617" lon="6.94934">
        <ele>1074.5</ele>
        <time>2025-09-27T09:20:28Z</time>
      </trkpt>
      <trkpt lat="43.72621" lon="6.9494">
        <ele>1073.2</ele>
        <time>2025-09-27T09:20:31Z</time>
      </trkpt>
      <trkpt lat="43.72627" lon="6.94946">
        <ele>1071.7</ele>
        <time>2025-09-27T09:20:33Z</time>
      </trkpt>
      <trkpt lat="43.72632" lon="6.9495">
        <ele>1070.6</ele>
        <time>2025-09-27T09:20:35Z</time>
      </trkpt>
      <trkpt lat="43.72638" lon="6.94946">
        <ele>1069.8</ele>
        <time>2025-09-27T09:20:37Z</time>
      </trkpt>
      <trkpt lat="43.72642" lon="6.94941">
        <ele>1069.1</ele>
        <time>2025-09-27T09:20:40Z</time>
      </trkpt>
      <trkpt lat="43.72648" lon="6.94944">
        <ele>1068.3</ele>
        <time>2025-09-27T09:20:44Z</time>
      </trkpt>
      <trkpt lat="43.72654" lon="6.94946">
        <ele>1067.2</ele>
        <time>2025-09-27T09:20:46Z</time>
      </trkpt>
      <trkpt lat="43.7266" lon="6.9495">
        <ele>1066.2</ele>
        <time>2025-09-27T09:20:48Z</time>
      </trkpt>
      <trkpt lat="43.72667" lon="6.94954">
        <ele>1065.2</ele>
        <time>2025-09-27T09:20:50Z</time>
      </trkpt>
      <trkpt lat="43.72672" lon="6.9496">
        <ele>1064.6</ele>
        <time>2025-09-27T09:20:52Z</time>
      </trkpt>
      <trkpt lat="43.72676" lon="6.94967">
        <ele>1064.3</ele>
        <time>2025-09-27T09:20:54Z</time>
      </trkpt>
      <trkpt lat="43.7268" lon="6.94974">
        <ele>1063.9</ele>
        <time>2025-09-27T09:20:56Z</time>
      </trkpt>
      <trkpt lat="43.72682" lon="6.94982">
        <ele>1063.2</ele>
        <time>2025-09-27T09:20:59Z</time>
      </trkpt>
      <trkpt lat="43.72687" lon="6.94989">
        <ele>1062.5</ele>
        <time>2025-09-27T09:21:01Z</time>
      </trkpt>
      <trkpt lat="43.7269" lon="6.94996">
        <ele>1062</ele>
        <time>2025-09-27T09:21:03Z</time>
      </trkpt>
      <trkpt lat="43.72687" lon="6.95001">
        <ele>1061.9</ele>
        <time>2025-09-27T09:21:17Z</time>
      </trkpt>
      <trkpt lat="43.72683" lon="6.95005">
        <ele>1062.2</ele>
        <time>2025-09-27T09:21:24Z</time>
      </trkpt>
      <trkpt lat="43.72682" lon="6.95014">
        <ele>1062.8</ele>
        <time>2025-09-27T09:21:27Z</time>
      </trkpt>
      <trkpt lat="43.72679" lon="6.9502">
        <ele>1063.1</ele>
        <time>2025-09-27T09:21:29Z</time>
      </trkpt>
      <trkpt lat="43.72679" lon="6.95028">
        <ele>1063.1</ele>
        <time>2025-09-27T09:21:31Z</time>
      </trkpt>
      <trkpt lat="43.72679" lon="6.95034">
        <ele>1062.9</ele>
        <time>2025-09-27T09:21:33Z</time>
      </trkpt>
      <trkpt lat="43.72683" lon="6.95039">
        <ele>1062.6</ele>
        <time>2025-09-27T09:21:35Z</time>
      </trkpt>
      <trkpt lat="43.72689" lon="6.95041">
        <ele>1060.6</ele>
        <time>2025-09-27T09:21:38Z</time>
      </trkpt>
      <trkpt lat="43.72694" lon="6.95045">
        <ele>1058.7</ele>
        <time>2025-09-27T09:21:41Z</time>
      </trkpt>
      <trkpt lat="43.72701" lon="6.95045">
        <ele>1057</ele>
        <time>2025-09-27T09:21:43Z</time>
      </trkpt>
      <trkpt lat="43.72707" lon="6.95045">
        <ele>1055.6</ele>
        <time>2025-09-27T09:21:45Z</time>
      </trkpt>
      <trkpt lat="43.72712" lon="6.95046">
        <ele>1054.5</ele>
        <time>2025-09-27T09:21:53Z</time>
      </trkpt>
      <trkpt lat="43.72716" lon="6.9505">
        <ele>1053.5</ele>
        <time>2025-09-27T09:21:58Z</time>
      </trkpt>
      <trkpt lat="43.72721" lon="6.95055">
        <ele>1052.5</ele>
        <time>2025-09-27T09:22:04Z</time>
      </trkpt>
      <trkpt lat="43.72726" lon="6.95058">
        <ele>1051.7</ele>
        <time>2025-09-27T09:22:07Z</time>
      </trkpt>
      <trkpt lat="43.7273" lon="6.95062">
        <ele>1051.1</ele>
        <time>2025-09-27T09:22:09Z</time>
      </trkpt>
      <trkpt lat="43.72734" lon="6.95065">
        <ele>1050.8</ele>
        <time>2025-09-27T09:22:11Z</time>
      </trkpt>
      <trkpt lat="43.72737" lon="6.9507">
        <ele>1050.5</ele>
        <time>2025-09-27T09:22:14Z</time>
      </trkpt>
      <trkpt lat="43.72741" lon="6.95074">
        <ele>1050.4</ele>
        <time>2025-09-27T09:22:16Z</time>
      </trkpt>
      <trkpt lat="43.72747" lon="6.9508">
        <ele>1050.4</ele>
        <time>2025-09-27T09:22:19Z</time>
      </trkpt>
      <trkpt lat="43.72751" lon="6.95085">
        <ele>1050.5</ele>
        <time>2025-09-27T09:22:21Z</time>
      </trkpt>
      <trkpt lat="43.72756" lon="6.95089">
        <ele>1050.7</ele>
        <time>2025-09-27T09:22:23Z</time>
      </trkpt>
      <trkpt lat="43.7276" lon="6.95095">
        <ele>1051.1</ele>
        <time>2025-09-27T09:22:26Z</time>
      </trkpt>
      <trkpt lat="43.72765" lon="6.95098">
        <ele>1051.5</ele>
        <time>2025-09-27T09:22:32Z</time>
      </trkpt>
      <trkpt lat="43.72767" lon="6.95103">
        <ele>1051.8</ele>
        <time>2025-09-27T09:22:40Z</time>
      </trkpt>
      <trkpt lat="43.72771" lon="6.95108">
        <ele>1052.1</ele>
        <time>2025-09-27T09:22:44Z</time>
      </trkpt>
      <trkpt lat="43.72773" lon="6.95114">
        <ele>1052.1</ele>
        <time>2025-09-27T09:22:47Z</time>
      </trkpt>
      <trkpt lat="43.72777" lon="6.9512">
        <ele>1051.8</ele>
        <time>2025-09-27T09:22:49Z</time>
      </trkpt>
      <trkpt lat="43.72781" lon="6.95128">
        <ele>1050.9</ele>
        <time>2025-09-27T09:22:51Z</time>
      </trkpt>
      <trkpt lat="43.72785" lon="6.95135">
        <ele>1049.8</ele>
        <time>2025-09-27T09:22:53Z</time>
      </trkpt>
      <trkpt lat="43.72787" lon="6.9514">
        <ele>1048.9</ele>
        <time>2025-09-27T09:22:55Z</time>
      </trkpt>
      <trkpt lat="43.72791" lon="6.95145">
        <ele>1047.9</ele>
        <time>2025-09-27T09:22:58Z</time>
      </trkpt>
      <trkpt lat="43.72798" lon="6.95145">
        <ele>1046.7</ele>
        <time>2025-09-27T09:23:01Z</time>
      </trkpt>
      <trkpt lat="43.72804" lon="6.95148">
        <ele>1045.7</ele>
        <time>2025-09-27T09:23:03Z</time>
      </trkpt>
      <trkpt lat="43.72809" lon="6.95155">
        <ele>1045.1</ele>
        <time>2025-09-27T09:23:05Z</time>
      </trkpt>
      <trkpt lat="43.72813" lon="6.9516">
        <ele>1044.7</ele>
        <time>2025-09-27T09:23:07Z</time>
      </trkpt>
      <trkpt lat="43.72815" lon="6.95165">
        <ele>1044.5</ele>
        <time>2025-09-27T09:23:09Z</time>
      </trkpt>
      <trkpt lat="43.7282" lon="6.9517">
        <ele>1044.3</ele>
        <time>2025-09-27T09:23:12Z</time>
      </trkpt>
      <trkpt lat="43.72823" lon="6.95177">
        <ele>1044</ele>
        <time>2025-09-27T09:23:15Z</time>
      </trkpt>
      <trkpt lat="43.72825" lon="6.95184">
        <ele>1043.6</ele>
        <time>2025-09-27T09:24:02Z</time>
      </trkpt>
      <trkpt lat="43.72828" lon="6.95192">
        <ele>1043</ele>
        <time>2025-09-27T09:24:05Z</time>
      </trkpt>
      <trkpt lat="43.72834" lon="6.95196">
        <ele>1042.3</ele>
        <time>2025-09-27T09:24:07Z</time>
      </trkpt>
      <trkpt lat="43.72843" lon="6.952">
        <ele>1041.5</ele>
        <time>2025-09-27T09:24:09Z</time>
      </trkpt>
      <trkpt lat="43.72848" lon="6.95202">
        <ele>1040.9</ele>
        <time>2025-09-27T09:24:10Z</time>
      </trkpt>
      <trkpt lat="43.72852" lon="6.95204">
        <ele>1040.3</ele>
        <time>2025-09-27T09:24:11Z</time>
      </trkpt>
      <trkpt lat="43.7286" lon="6.9521">
        <ele>1039.2</ele>
        <time>2025-09-27T09:24:13Z</time>
      </trkpt>
      <trkpt lat="43.72864" lon="6.95215">
        <ele>1038.6</ele>
        <time>2025-09-27T09:24:14Z</time>
      </trkpt>
      <trkpt lat="43.72869" lon="6.9522">
        <ele>1037.9</ele>
        <time>2025-09-27T09:24:15Z</time>
      </trkpt>
      <trkpt lat="43.72874" lon="6.95224">
        <ele>1037</ele>
        <time>2025-09-27T09:24:16Z</time>
      </trkpt>
      <trkpt lat="43.72879" lon="6.95226">
        <ele>1036</ele>
        <time>2025-09-27T09:24:18Z</time>
      </trkpt>
      <trkpt lat="43.72883" lon="6.95231">
        <ele>1035</ele>
        <time>2025-09-27T09:24:21Z</time>
      </trkpt>
      <trkpt lat="43.7289" lon="6.95232">
        <ele>1033.8</ele>
        <time>2025-09-27T09:24:26Z</time>
      </trkpt>
      <trkpt lat="43.72897" lon="6.95235">
        <ele>1032.8</ele>
        <time>2025-09-27T09:24:28Z</time>
      </trkpt>
      <trkpt lat="43.72904" lon="6.9524">
        <ele>1031.9</ele>
        <time>2025-09-27T09:24:30Z</time>
      </trkpt>
      <trkpt lat="43.72912" lon="6.95243">
        <ele>1031</ele>
        <time>2025-09-27T09:24:32Z</time>
      </trkpt>
      <trkpt lat="43.72919" lon="6.95245">
        <ele>1029.9</ele>
        <time>2025-09-27T09:24:34Z</time>
      </trkpt>
      <trkpt lat="43.72925" lon="6.95246">
        <ele>1029.1</ele>
        <time>2025-09-27T09:24:36Z</time>
      </trkpt>
      <trkpt lat="43.7293" lon="6.95249">
        <ele>1028.1</ele>
        <time>2025-09-27T09:24:38Z</time>
      </trkpt>
      <trkpt lat="43.72936" lon="6.95253">
        <ele>1027.2</ele>
        <time>2025-09-27T09:24:40Z</time>
      </trkpt>
      <trkpt lat="43.72941" lon="6.95255">
        <ele>1026.6</ele>
        <time>2025-09-27T09:24:42Z</time>
      </trkpt>
      <trkpt lat="43.72946" lon="6.95256">
        <ele>1026.8</ele>
        <time>2025-09-27T09:24:44Z</time>
      </trkpt>
      <trkpt lat="43.72952" lon="6.95258">
        <ele>1027.5</ele>
        <time>2025-09-27T09:24:46Z</time>
      </trkpt>
      <trkpt lat="43.72957" lon="6.95255">
        <ele>1028.1</ele>
        <time>2025-09-27T09:24:49Z</time>
      </trkpt>
      <trkpt lat="43.72958" lon="6.95248">
        <ele>1029</ele>
        <time>2025-09-27T09:24:53Z</time>
      </trkpt>
      <trkpt lat="43.7296" lon="6.95241">
        <ele>1029.7</ele>
        <time>2025-09-27T09:24:57Z</time>
      </trkpt>
      <trkpt lat="43.72962" lon="6.95235">
        <ele>1030.3</ele>
        <time>2025-09-27T09:25:01Z</time>
      </trkpt>
      <trkpt lat="43.72964" lon="6.95228">
        <ele>1031</ele>
        <time>2025-09-27T09:25:05Z</time>
      </trkpt>
      <trkpt lat="43.72968" lon="6.95221">
        <ele>1031.8</ele>
        <time>2025-09-27T09:25:09Z</time>
      </trkpt>
      <trkpt lat="43.7297" lon="6.95214">
        <ele>1032.4</ele>
        <time>2025-09-27T09:25:13Z</time>
      </trkpt>
      <trkpt lat="43.72972" lon="6.95208">
        <ele>1033</ele>
        <time>2025-09-27T09:25:17Z</time>
      </trkpt>
      <trkpt lat="43.72975" lon="6.952">
        <ele>1033.6</ele>
        <time>2025-09-27T09:25:21Z</time>
      </trkpt>
      <trkpt lat="43.72978" lon="6.95196">
        <ele>1034.1</ele>
        <time>2025-09-27T09:25:24Z</time>
      </trkpt>
      <trkpt lat="43.72982" lon="6.95192">
        <ele>1034.5</ele>
        <time>2025-09-27T09:25:27Z</time>
      </trkpt>
      <trkpt lat="43.72986" lon="6.95187">
        <ele>1035</ele>
        <time>2025-09-27T09:25:30Z</time>
      </trkpt>
      <trkpt lat="43.7299" lon="6.95184">
        <ele>1035.4</ele>
        <time>2025-09-27T09:25:33Z</time>
      </trkpt>
      <trkpt lat="43.72994" lon="6.95179">
        <ele>1035.9</ele>
        <time>2025-09-27T09:25:37Z</time>
      </trkpt>
      <trkpt lat="43.72997" lon="6.95172">
        <ele>1036.5</ele>
        <time>2025-09-27T09:25:41Z</time>
      </trkpt>
      <trkpt lat="43.72997" lon="6.95164">
        <ele>1037</ele>
        <time>2025-09-27T09:25:45Z</time>
      </trkpt>
      <trkpt lat="43.72995" lon="6.95158">
        <ele>1037.4</ele>
        <time>2025-09-27T09:25:48Z</time>
      </trkpt>
      <trkpt lat="43.72992" lon="6.95153">
        <ele>1037.8</ele>
        <time>2025-09-27T09:25:51Z</time>
      </trkpt>
      <trkpt lat="43.72987" lon="6.9515">
        <ele>1038.2</ele>
        <time>2025-09-27T09:25:54Z</time>
      </trkpt>
      <trkpt lat="43.72982" lon="6.95149">
        <ele>1038.7</ele>
        <time>2025-09-27T09:25:57Z</time>
      </trkpt>
      <trkpt lat="43.72977" lon="6.95148">
        <ele>1039.1</ele>
        <time>2025-09-27T09:26:00Z</time>
      </trkpt>
      <trkpt lat="43.72971" lon="6.95148">
        <ele>1039.6</ele>
        <time>2025-09-27T09:26:03Z</time>
      </trkpt>
      <trkpt lat="43.72966" lon="6.95148">
        <ele>1040.1</ele>
        <time>2025-09-27T09:26:06Z</time>
      </trkpt>
      <trkpt lat="43.72961" lon="6.95147">
        <ele>1040.6</ele>
        <time>2025-09-27T09:26:09Z</time>
      </trkpt>
      <trkpt lat="43.72955" lon="6.95145">
        <ele>1041.1</ele>
        <time>2025-09-27T09:26:12Z</time>
      </trkpt>
      <trkpt lat="43.7295" lon="6.95143">
        <ele>1041.7</ele>
        <time>2025-09-27T09:26:15Z</time>
      </trkpt>
      <trkpt lat="43.72945" lon="6.95141">
        <ele>1042.3</ele>
        <time>2025-09-27T09:26:18Z</time>
      </trkpt>
      <trkpt lat="43.7294" lon="6.9514">
        <ele>1042.7</ele>
        <time>2025-09-27T09:26:21Z</time>
      </trkpt>
      <trkpt lat="43.72935" lon="6.95139">
        <ele>1043.3</ele>
        <time>2025-09-27T09:26:24Z</time>
      </trkpt>
      <trkpt lat="43.72929" lon="6.95139">
        <ele>1043.9</ele>
        <time>2025-09-27T09:26:27Z</time>
      </trkpt>
      <trkpt lat="43.72924" lon="6.95139">
        <ele>1044.4</ele>
        <time>2025-09-27T09:26:30Z</time>
      </trkpt>
      <trkpt lat="43.72919" lon="6.95138">
        <ele>1045</ele>
        <time>2025-09-27T09:26:33Z</time>
      </trkpt>
      <trkpt lat="43.72914" lon="6.95138">
        <ele>1045.5</ele>
        <time>2025-09-27T09:26:36Z</time>
      </trkpt>
      <trkpt lat="43.72909" lon="6.95136">
        <ele>1046</ele>
        <time>2025-09-27T09:26:39Z</time>
      </trkpt>
      <trkpt lat="43.72904" lon="6.95136">
        <ele>1046.5</ele>
        <time>2025-09-27T09:26:42Z</time>
      </trkpt>
      <trkpt lat="43.72899" lon="6.95135">
        <ele>1047</ele>
        <time>2025-09-27T09:26:45Z</time>
      </trkpt>
      <trkpt lat="43.72893" lon="6.95134">
        <ele>1047.5</ele>
        <time>2025-09-27T09:26:48Z</time>
      </trkpt>
      <trkpt lat="43.72889" lon="6.95131">
        <ele>1047.9</ele>
        <time>2025-09-27T09:26:51Z</time>
      </trkpt>
      <trkpt lat="43.72884" lon="6.95125">
        <ele>1048.5</ele>
        <time>2025-09-27T09:26:55Z</time>
      </trkpt>
      <trkpt lat="43.72883" lon="6.95119">
        <ele>1049</ele>
        <time>2025-09-27T09:26:58Z</time>
      </trkpt>
      <trkpt lat="43.72885" lon="6.95113">
        <ele>1049.4</ele>
        <time>2025-09-27T09:27:01Z</time>
      </trkpt>
      <trkpt lat="43.72889" lon="6.95109">
        <ele>1049.9</ele>
        <time>2025-09-27T09:27:04Z</time>
      </trkpt>
      <trkpt lat="43.72892" lon="6.95104">
        <ele>1050.4</ele>
        <time>2025-09-27T09:27:08Z</time>
      </trkpt>
      <trkpt lat="43.72895" lon="6.95099">
        <ele>1050.8</ele>
        <time>2025-09-27T09:27:12Z</time>
      </trkpt>
      <trkpt lat="43.72899" lon="6.95094">
        <ele>1051.2</ele>
        <time>2025-09-27T09:27:15Z</time>
      </trkpt>
      <trkpt lat="43.72902" lon="6.95089">
        <ele>1051.5</ele>
        <time>2025-09-27T09:27:18Z</time>
      </trkpt>
      <trkpt lat="43.72905" lon="6.95083">
        <ele>1051.9</ele>
        <time>2025-09-27T09:27:21Z</time>
      </trkpt>
      <trkpt lat="43.72908" lon="6.95079">
        <ele>1052.2</ele>
        <time>2025-09-27T09:27:24Z</time>
      </trkpt>
      <trkpt lat="43.72912" lon="6.95075">
        <ele>1052.5</ele>
        <time>2025-09-27T09:27:27Z</time>
      </trkpt>
      <trkpt lat="43.72917" lon="6.95072">
        <ele>1052.9</ele>
        <time>2025-09-27T09:27:30Z</time>
      </trkpt>
      <trkpt lat="43.72921" lon="6.95068">
        <ele>1053.3</ele>
        <time>2025-09-27T09:27:33Z</time>
      </trkpt>
      <trkpt lat="43.72925" lon="6.95063">
        <ele>1053.6</ele>
        <time>2025-09-27T09:27:36Z</time>
      </trkpt>
      <trkpt lat="43.72929" lon="6.95059">
        <ele>1053.9</ele>
        <time>2025-09-27T09:27:39Z</time>
      </trkpt>
      <trkpt lat="43.72933" lon="6.95054">
        <ele>1054.3</ele>
        <time>2025-09-27T09:27:42Z</time>
      </trkpt>
      <trkpt lat="43.72936" lon="6.95049">
        <ele>1054.7</ele>
        <time>2025-09-27T09:27:45Z</time>
      </trkpt>
      <trkpt lat="43.7294" lon="6.95045">
        <ele>1055</ele>
        <time>2025-09-27T09:27:48Z</time>
      </trkpt>
      <trkpt lat="43.72942" lon="6.95039">
        <ele>1055.4</ele>
        <time>2025-09-27T09:27:52Z</time>
      </trkpt>
      <trkpt lat="43.72947" lon="6.95034">
        <ele>1055.8</ele>
        <time>2025-09-27T09:27:57Z</time>
      </trkpt>
      <trkpt lat="43.7295" lon="6.9503">
        <ele>1056.2</ele>
        <time>2025-09-27T09:28:00Z</time>
      </trkpt>
      <trkpt lat="43.72956" lon="6.95024">
        <ele>1056.7</ele>
        <time>2025-09-27T09:28:03Z</time>
      </trkpt>
      <trkpt lat="43.72959" lon="6.95019">
        <ele>1057.2</ele>
        <time>2025-09-27T09:28:05Z</time>
      </trkpt>
      <trkpt lat="43.72962" lon="6.95013">
        <ele>1057.7</ele>
        <time>2025-09-27T09:28:08Z</time>
      </trkpt>
      <trkpt lat="43.72965" lon="6.95007">
        <ele>1058.2</ele>
        <time>2025-09-27T09:28:11Z</time>
      </trkpt>
      <trkpt lat="43.72969" lon="6.95001">
        <ele>1058.8</ele>
        <time>2025-09-27T09:28:14Z</time>
      </trkpt>
      <trkpt lat="43.72972" lon="6.94995">
        <ele>1059.4</ele>
        <time>2025-09-27T09:28:17Z</time>
      </trkpt>
      <trkpt lat="43.72976" lon="6.94989">
        <ele>1059.9</ele>
        <time>2025-09-27T09:28:20Z</time>
      </trkpt>
      <trkpt lat="43.72979" lon="6.94982">
        <ele>1060.4</ele>
        <time>2025-09-27T09:28:23Z</time>
      </trkpt>
      <trkpt lat="43.72983" lon="6.94977">
        <ele>1060.9</ele>
        <time>2025-09-27T09:28:26Z</time>
      </trkpt>
      <trkpt lat="43.72986" lon="6.94971">
        <ele>1061.4</ele>
        <time>2025-09-27T09:28:29Z</time>
      </trkpt>
      <trkpt lat="43.72989" lon="6.94964">
        <ele>1061.9</ele>
        <time>2025-09-27T09:28:32Z</time>
      </trkpt>
      <trkpt lat="43.72992" lon="6.94958">
        <ele>1062.4</ele>
        <time>2025-09-27T09:28:35Z</time>
      </trkpt>
      <trkpt lat="43.72992" lon="6.94951">
        <ele>1062.9</ele>
        <time>2025-09-27T09:28:38Z</time>
      </trkpt>
      <trkpt lat="43.72991" lon="6.94943">
        <ele>1063.5</ele>
        <time>2025-09-27T09:28:41Z</time>
      </trkpt>
      <trkpt lat="43.72987" lon="6.94936">
        <ele>1064.1</ele>
        <time>2025-09-27T09:28:45Z</time>
      </trkpt>
      <trkpt lat="43.72983" lon="6.94933">
        <ele>1064.7</ele>
        <time>2025-09-27T09:28:48Z</time>
      </trkpt>
      <trkpt lat="43.72978" lon="6.9493">
        <ele>1065.4</ele>
        <time>2025-09-27T09:28:52Z</time>
      </trkpt>
      <trkpt lat="43.72973" lon="6.94929">
        <ele>1065.9</ele>
        <time>2025-09-27T09:28:55Z</time>
      </trkpt>
      <trkpt lat="43.72968" lon="6.94928">
        <ele>1066.5</ele>
        <time>2025-09-27T09:28:58Z</time>
      </trkpt>
      <trkpt lat="43.72963" lon="6.94928">
        <ele>1067</ele>
        <time>2025-09-27T09:29:01Z</time>
      </trkpt>
      <trkpt lat="43.72958" lon="6.94928">
        <ele>1067.5</ele>
        <time>2025-09-27T09:29:04Z</time>
      </trkpt>
      <trkpt lat="43.72953" lon="6.94928">
        <ele>1068</ele>
        <time>2025-09-27T09:29:07Z</time>
      </trkpt>
      <trkpt lat="43.72948" lon="6.94927">
        <ele>1068.5</ele>
        <time>2025-09-27T09:29:10Z</time>
      </trkpt>
      <trkpt lat="43.72943" lon="6.94927">
        <ele>1069</ele>
        <time>2025-09-27T09:29:13Z</time>
      </trkpt>
      <trkpt lat="43.72938" lon="6.94927">
        <ele>1069.5</ele>
        <time>2025-09-27T09:29:16Z</time>
      </trkpt>
      <trkpt lat="43.72933" lon="6.94928">
        <ele>1070</ele>
        <time>2025-09-27T09:29:19Z</time>
      </trkpt>
      <trkpt lat="43.72928" lon="6.94929">
        <ele>1070.5</ele>
        <time>2025-09-27T09:29:22Z</time>
      </trkpt>
      <trkpt lat="43.72924" lon="6.9493">
        <ele>1070.9</ele>
        <time>2025-09-27T09:29:25Z</time>
      </trkpt>
      <trkpt lat="43.72919" lon="6.9493">
        <ele>1071.4</ele>
        <time>2025-09-27T09:29:28Z</time>
      </trkpt>
      <trkpt lat="43.72914" lon="6.94928">
        <ele>1071.9</ele>
        <time>2025-09-27T09:29:31Z</time>
      </trkpt>
      <trkpt lat="43.72909" lon="6.94929">
        <ele>1072.4</ele>
        <time>2025-09-27T09:29:34Z</time>
      </trkpt>
      <trkpt lat="43.72903" lon="6.94929">
        <ele>1072.9</ele>
        <time>2025-09-27T09:29:37Z</time>
      </trkpt>
      <trkpt lat="43.72898" lon="6.94929">
        <ele>1073.4</ele>
        <time>2025-09-27T09:29:40Z</time>
      </trkpt>
      <trkpt lat="43.72892" lon="6.94929">
        <ele>1073.9</ele>
        <time>2025-09-27T09:29:43Z</time>
      </trkpt>
      <trkpt lat="43.72888" lon="6.94927">
        <ele>1074.3</ele>
        <time>2025-09-27T09:29:46Z</time>
      </trkpt>
      <trkpt lat="43.72882" lon="6.94925">
        <ele>1074.8</ele>
        <time>2025-09-27T09:29:49Z</time>
      </trkpt>
      <trkpt lat="43.72878" lon="6.94922">
        <ele>1075.3</ele>
        <time>2025-09-27T09:29:52Z</time>
      </trkpt>
      <trkpt lat="43.72873" lon="6.94918">
        <ele>1075.9</ele>
        <time>2025-09-27T09:29:55Z</time>
      </trkpt>
      <trkpt lat="43.72868" lon="6.94914">
        <ele>1076.5</ele>
        <time>2025-09-27T09:29:58Z</time>
      </trkpt>
      <trkpt lat="43.72864" lon="6.9491">
        <ele>1077</ele>
        <time>2025-09-27T09:30:01Z</time>
      </trkpt>
      <trkpt lat="43.7286" lon="6.94906">
        <ele>1077.6</ele>
        <time>2025-09-27T09:30:04Z</time>
      </trkpt>
      <trkpt lat="43.72856" lon="6.94901">
        <ele>1078.2</ele>
        <time>2025-09-27T09:30:07Z</time>
      </trkpt>
      <trkpt lat="43.72855" lon="6.94894">
        <ele>1078.9</ele>
        <time>2025-09-27T09:30:10Z</time>
      </trkpt>
      <trkpt lat="43.72855" lon="6.94886">
        <ele>1079.5</ele>
        <time>2025-09-27T09:30:13Z</time>
      </trkpt>
      <trkpt lat="43.72855" lon="6.9488">
        <ele>1080.1</ele>
        <time>2025-09-27T09:30:16Z</time>
      </trkpt>
      <trkpt lat="43.72857" lon="6.94873">
        <ele>1080.7</ele>
        <time>2025-09-27T09:30:19Z</time>
      </trkpt>
      <trkpt lat="43.72858" lon="6.94867">
        <ele>1081.3</ele>
        <time>2025-09-27T09:30:22Z</time>
      </trkpt>
      <trkpt lat="43.72858" lon="6.9486">
        <ele>1081.9</ele>
        <time>2025-09-27T09:30:25Z</time>
      </trkpt>
      <trkpt lat="43.72857" lon="6.94853">
        <ele>1082.5</ele>
        <time>2025-09-27T09:30:29Z</time>
      </trkpt>
      <trkpt lat="43.72853" lon="6.94847">
        <ele>1083.2</ele>
        <time>2025-09-27T09:30:33Z</time>
      </trkpt>
      <trkpt lat="43.72849" lon="6.94843">
        <ele>1083.6</ele>
        <time>2025-09-27T09:30:36Z</time>
      </trkpt>
      <trkpt lat="43.72846" lon="6.94838">
        <ele>1084</ele>
        <time>2025-09-27T09:30:39Z</time>
      </trkpt>
      <trkpt lat="43.72842" lon="6.94833">
        <ele>1084.4</ele>
        <time>2025-09-27T09:30:42Z</time>
      </trkpt>
      <trkpt lat="43.72838" lon="6.94827">
        <ele>1084.8</ele>
        <time>2025-09-27T09:30:45Z</time>
      </trkpt>
      <trkpt lat="43.72835" lon="6.9482">
        <ele>1085.2</ele>
        <time>2025-09-27T09:30:48Z</time>
      </trkpt>
      <trkpt lat="43.72834" lon="6.94812">
        <ele>1085.6</ele>
        <time>2025-09-27T09:30:51Z</time>
      </trkpt>
      <trkpt lat="43.72834" lon="6.94804">
        <ele>1086.1</ele>
        <time>2025-09-27T09:30:54Z</time>
      </trkpt>
      <trkpt lat="43.72835" lon="6.94797">
        <ele>1086.6</ele>
        <time>2025-09-27T09:30:57Z</time>
      </trkpt>
      <trkpt lat="43.72836" lon="6.94791">
        <ele>1087.1</ele>
        <time>2025-09-27T09:31:00Z</time>
      </trkpt>
      <trkpt lat="43.72837" lon="6.94784">
        <ele>1087.6</ele>
        <time>2025-09-27T09:31:03Z</time>
      </trkpt>
      <trkpt lat="43.72836" lon="6.94776">
        <ele>1088.3</ele>
        <time>2025-09-27T09:31:07Z</time>
      </trkpt>
      <trkpt lat="43.72834" lon="6.94769">
        <ele>1089</ele>
        <time>2025-09-27T09:31:11Z</time>
      </trkpt>
      <trkpt lat="43.72833" lon="6.94763">
        <ele>1089.5</ele>
        <time>2025-09-27T09:31:14Z</time>
      </trkpt>
      <trkpt lat="43.72831" lon="6.94757">
        <ele>1090.1</ele>
        <time>2025-09-27T09:31:17Z</time>
      </trkpt>
      <trkpt lat="43.72828" lon="6.94751">
        <ele>1090.7</ele>
        <time>2025-09-27T09:31:20Z</time>
      </trkpt>
      <trkpt lat="43.72826" lon="6.94746">
        <ele>1091.3</ele>
        <time>2025-09-27T09:31:23Z</time>
      </trkpt>
      <trkpt lat="43.72823" lon="6.9474">
        <ele>1091.9</ele>
        <time>2025-09-27T09:31:27Z</time>
      </trkpt>
      <trkpt lat="43.7282" lon="6.94734">
        <ele>1092.5</ele>
        <time>2025-09-27T09:31:31Z</time>
      </trkpt>
      <trkpt lat="43.72816" lon="6.94728">
        <ele>1093.2</ele>
        <time>2025-09-27T09:31:35Z</time>
      </trkpt>
      <trkpt lat="43.72812" lon="6.94724">
        <ele>1093.7</ele>
        <time>2025-09-27T09:31:38Z</time>
      </trkpt>
      <trkpt lat="43.72809" lon="6.94719">
        <ele>1094.3</ele>
        <time>2025-09-27T09:31:41Z</time>
      </trkpt>
      <trkpt lat="43.72805" lon="6.94715">
        <ele>1094.7</ele>
        <time>2025-09-27T09:31:44Z</time>
      </trkpt>
      <trkpt lat="43.72802" lon="6.94709">
        <ele>1095.2</ele>
        <time>2025-09-27T09:31:47Z</time>
      </trkpt>
      <trkpt lat="43.72801" lon="6.94703">
        <ele>1095.6</ele>
        <time>2025-09-27T09:31:50Z</time>
      </trkpt>
      <trkpt lat="43.72799" lon="6.94696">
        <ele>1096.1</ele>
        <time>2025-09-27T09:31:53Z</time>
      </trkpt>
      <trkpt lat="43.72798" lon="6.9469">
        <ele>1096.5</ele>
        <time>2025-09-27T09:31:56Z</time>
      </trkpt>
      <trkpt lat="43.72797" lon="6.94683">
        <ele>1097</ele>
        <time>2025-09-27T09:31:59Z</time>
      </trkpt>
      <trkpt lat="43.72795" lon="6.94677">
        <ele>1097.4</ele>
        <time>2025-09-27T09:32:02Z</time>
      </trkpt>
      <trkpt lat="43.72794" lon="6.94671">
        <ele>1097.8</ele>
        <time>2025-09-27T09:32:05Z</time>
      </trkpt>
      <trkpt lat="43.72792" lon="6.94664">
        <ele>1098.2</ele>
        <time>2025-09-27T09:32:08Z</time>
      </trkpt>
      <trkpt lat="43.72792" lon="6.94657">
        <ele>1098.7</ele>
        <time>2025-09-27T09:32:11Z</time>
      </trkpt>
      <trkpt lat="43.7279" lon="6.94651">
        <ele>1099.1</ele>
        <time>2025-09-27T09:32:14Z</time>
      </trkpt>
      <trkpt lat="43.72788" lon="6.94644">
        <ele>1099.6</ele>
        <time>2025-09-27T09:32:17Z</time>
      </trkpt>
      <trkpt lat="43.72785" lon="6.94637">
        <ele>1100</ele>
        <time>2025-09-27T09:32:20Z</time>
      </trkpt>
      <trkpt lat="43.72782" lon="6.94631">
        <ele>1100.5</ele>
        <time>2025-09-27T09:32:23Z</time>
      </trkpt>
      <trkpt lat="43.72777" lon="6.94626">
        <ele>1100.8</ele>
        <time>2025-09-27T09:32:26Z</time>
      </trkpt>
      <trkpt lat="43.72772" lon="6.94623">
        <ele>1101.2</ele>
        <time>2025-09-27T09:32:29Z</time>
      </trkpt>
      <trkpt lat="43.72769" lon="6.94618">
        <ele>1101.5</ele>
        <time>2025-09-27T09:32:32Z</time>
      </trkpt>
      <trkpt lat="43.72772" lon="6.94612">
        <ele>1101.9</ele>
        <time>2025-09-27T09:32:36Z</time>
      </trkpt>
      <trkpt lat="43.72777" lon="6.94607">
        <ele>1102.3</ele>
        <time>2025-09-27T09:32:39Z</time>
      </trkpt>
      <trkpt lat="43.72781" lon="6.94602">
        <ele>1102.7</ele>
        <time>2025-09-27T09:32:42Z</time>
      </trkpt>
      <trkpt lat="43.72785" lon="6.94597">
        <ele>1102.8</ele>
        <time>2025-09-27T09:32:45Z</time>
      </trkpt>
      <trkpt lat="43.72789" lon="6.94592">
        <ele>1103</ele>
        <time>2025-09-27T09:32:48Z</time>
      </trkpt>
      <trkpt lat="43.72793" lon="6.94588">
        <ele>1103.2</ele>
        <time>2025-09-27T09:32:51Z</time>
      </trkpt>
      <trkpt lat="43.72798" lon="6.94585">
        <ele>1103.4</ele>
        <time>2025-09-27T09:32:54Z</time>
      </trkpt>
      <trkpt lat="43.72802" lon="6.94582">
        <ele>1103.9</ele>
        <time>2025-09-27T09:33:59Z</time>
      </trkpt>
      <trkpt lat="43.72808" lon="6.94579">
        <ele>1104.5</ele>
        <time>2025-09-27T09:34:03Z</time>
      </trkpt>
      <trkpt lat="43.72813" lon="6.94576">
        <ele>1105</ele>
        <time>2025-09-27T09:34:06Z</time>
      </trkpt>
      <trkpt lat="43.72818" lon="6.94573">
        <ele>1105.5</ele>
        <time>2025-09-27T09:34:09Z</time>
      </trkpt>
      <trkpt lat="43.72821" lon="6.94568">
        <ele>1105.9</ele>
        <time>2025-09-27T09:34:12Z</time>
      </trkpt>
      <trkpt lat="43.72826" lon="6.94566">
        <ele>1106.2</ele>
        <time>2025-09-27T09:34:15Z</time>
      </trkpt>
      <trkpt lat="43.72831" lon="6.94561">
        <ele>1106.5</ele>
        <time>2025-09-27T09:34:19Z</time>
      </trkpt>
      <trkpt lat="43.72836" lon="6.94557">
        <ele>1106.7</ele>
        <time>2025-09-27T09:34:22Z</time>
      </trkpt>
      <trkpt lat="43.72841" lon="6.94553">
        <ele>1106.8</ele>
        <time>2025-09-27T09:34:25Z</time>
      </trkpt>
      <trkpt lat="43.72847" lon="6.94547">
        <ele>1106.9</ele>
        <time>2025-09-27T09:34:28Z</time>
      </trkpt>
      <trkpt lat="43.72851" lon="6.94543">
        <ele>1107</ele>
        <time>2025-09-27T09:34:30Z</time>
      </trkpt>
      <trkpt lat="43.72856" lon="6.94539">
        <ele>1107</ele>
        <time>2025-09-27T09:34:32Z</time>
      </trkpt>
      <trkpt lat="43.72859" lon="6.94534">
        <ele>1107</ele>
        <time>2025-09-27T09:34:34Z</time>
      </trkpt>
      <trkpt lat="43.72865" lon="6.94529">
        <ele>1107</ele>
        <time>2025-09-27T09:34:37Z</time>
      </trkpt>
      <trkpt lat="43.72869" lon="6.94526">
        <ele>1107</ele>
        <time>2025-09-27T09:34:39Z</time>
      </trkpt>
      <trkpt lat="43.72874" lon="6.94523">
        <ele>1106.9</ele>
        <time>2025-09-27T09:34:41Z</time>
      </trkpt>
      <trkpt lat="43.72879" lon="6.9452">
        <ele>1106.8</ele>
        <time>2025-09-27T09:34:43Z</time>
      </trkpt>
      <trkpt lat="43.72883" lon="6.94517">
        <ele>1106.8</ele>
        <time>2025-09-27T09:34:45Z</time>
      </trkpt>
      <trkpt lat="43.72888" lon="6.94513">
        <ele>1106.7</ele>
        <time>2025-09-27T09:34:47Z</time>
      </trkpt>
      <trkpt lat="43.72894" lon="6.94509">
        <ele>1106.7</ele>
        <time>2025-09-27T09:34:49Z</time>
      </trkpt>
      <trkpt lat="43.72899" lon="6.94505">
        <ele>1106.6</ele>
        <time>2025-09-27T09:34:51Z</time>
      </trkpt>
      <trkpt lat="43.72904" lon="6.94502">
        <ele>1106.7</ele>
        <time>2025-09-27T09:34:53Z</time>
      </trkpt>
      <trkpt lat="43.72909" lon="6.94498">
        <ele>1106.8</ele>
        <time>2025-09-27T09:34:55Z</time>
      </trkpt>
      <trkpt lat="43.72915" lon="6.94494">
        <ele>1107</ele>
        <time>2025-09-27T09:34:57Z</time>
      </trkpt>
      <trkpt lat="43.7292" lon="6.9449">
        <ele>1107.3</ele>
        <time>2025-09-27T09:34:59Z</time>
      </trkpt>
      <trkpt lat="43.72925" lon="6.94486">
        <ele>1107.8</ele>
        <time>2025-09-27T09:35:01Z</time>
      </trkpt>
      <trkpt lat="43.7293" lon="6.94482">
        <ele>1108.3</ele>
        <time>2025-09-27T09:35:04Z</time>
      </trkpt>
      <trkpt lat="43.72933" lon="6.94477">
        <ele>1108.8</ele>
        <time>2025-09-27T09:35:07Z</time>
      </trkpt>
      <trkpt lat="43.72938" lon="6.94476">
        <ele>1109.4</ele>
        <time>2025-09-27T09:35:11Z</time>
      </trkpt>
      <trkpt lat="43.72943" lon="6.94471">
        <ele>1109.9</ele>
        <time>2025-09-27T09:35:15Z</time>
      </trkpt>
      <trkpt lat="43.72947" lon="6.94469">
        <ele>1110.3</ele>
        <time>2025-09-27T09:35:18Z</time>
      </trkpt>
      <trkpt lat="43.72953" lon="6.94467">
        <ele>1110.7</ele>
        <time>2025-09-27T09:35:21Z</time>
      </trkpt>
      <trkpt lat="43.72958" lon="6.94464">
        <ele>1111.1</ele>
        <time>2025-09-27T09:35:24Z</time>
      </trkpt>
      <trkpt lat="43.72963" lon="6.94462">
        <ele>1111.4</ele>
        <time>2025-09-27T09:35:27Z</time>
      </trkpt>
      <trkpt lat="43.72968" lon="6.94459">
        <ele>1111.6</ele>
        <time>2025-09-27T09:35:30Z</time>
      </trkpt>
      <trkpt lat="43.72973" lon="6.94458">
        <ele>1111.6</ele>
        <time>2025-09-27T09:35:33Z</time>
      </trkpt>
      <trkpt lat="43.72978" lon="6.94458">
        <ele>1111.6</ele>
        <time>2025-09-27T09:35:36Z</time>
      </trkpt>
      <trkpt lat="43.72983" lon="6.94457">
        <ele>1111.4</ele>
        <time>2025-09-27T09:35:38Z</time>
      </trkpt>
      <trkpt lat="43.72988" lon="6.94452">
        <ele>1111</ele>
        <time>2025-09-27T09:35:41Z</time>
      </trkpt>
      <trkpt lat="43.72993" lon="6.94448">
        <ele>1110.7</ele>
        <time>2025-09-27T09:35:43Z</time>
      </trkpt>
      <trkpt lat="43.73" lon="6.94446">
        <ele>1110.3</ele>
        <time>2025-09-27T09:35:45Z</time>
      </trkpt>
      <trkpt lat="43.73007" lon="6.94445">
        <ele>1109.9</ele>
        <time>2025-09-27T09:35:47Z</time>
      </trkpt>
      <trkpt lat="43.73015" lon="6.94444">
        <ele>1109.7</ele>
        <time>2025-09-27T09:35:49Z</time>
      </trkpt>
      <trkpt lat="43.73021" lon="6.94442">
        <ele>1109.6</ele>
        <time>2025-09-27T09:35:51Z</time>
      </trkpt>
      <trkpt lat="43.73027" lon="6.94439">
        <ele>1109.6</ele>
        <time>2025-09-27T09:35:53Z</time>
      </trkpt>
      <trkpt lat="43.73033" lon="6.94435">
        <ele>1109.8</ele>
        <time>2025-09-27T09:35:55Z</time>
      </trkpt>
      <trkpt lat="43.73039" lon="6.94432">
        <ele>1110.1</ele>
        <time>2025-09-27T09:35:57Z</time>
      </trkpt>
      <trkpt lat="43.73045" lon="6.94429">
        <ele>1110.5</ele>
        <time>2025-09-27T09:35:59Z</time>
      </trkpt>
      <trkpt lat="43.7305" lon="6.94428">
        <ele>1110.8</ele>
        <time>2025-09-27T09:36:02Z</time>
      </trkpt>
      <trkpt lat="43.73056" lon="6.94427">
        <ele>1111.3</ele>
        <time>2025-09-27T09:36:06Z</time>
      </trkpt>
      <trkpt lat="43.73061" lon="6.94425">
        <ele>1111.6</ele>
        <time>2025-09-27T09:36:09Z</time>
      </trkpt>
      <trkpt lat="43.73066" lon="6.94423">
        <ele>1112</ele>
        <time>2025-09-27T09:36:12Z</time>
      </trkpt>
      <trkpt lat="43.73071" lon="6.9442">
        <ele>1112.3</ele>
        <time>2025-09-27T09:36:15Z</time>
      </trkpt>
      <trkpt lat="43.73076" lon="6.94419">
        <ele>1112.6</ele>
        <time>2025-09-27T09:36:18Z</time>
      </trkpt>
      <trkpt lat="43.73082" lon="6.94416">
        <ele>1113</ele>
        <time>2025-09-27T09:36:21Z</time>
      </trkpt>
      <trkpt lat="43.73088" lon="6.94414">
        <ele>1113.3</ele>
        <time>2025-09-27T09:36:25Z</time>
      </trkpt>
      <trkpt lat="43.73093" lon="6.94412">
        <ele>1113.5</ele>
        <time>2025-09-27T09:36:27Z</time>
      </trkpt>
      <trkpt lat="43.73097" lon="6.94408">
        <ele>1113.6</ele>
        <time>2025-09-27T09:36:30Z</time>
      </trkpt>
      <trkpt lat="43.73101" lon="6.94404">
        <ele>1113.7</ele>
        <time>2025-09-27T09:36:33Z</time>
      </trkpt>
      <trkpt lat="43.73106" lon="6.94399">
        <ele>1113.6</ele>
        <time>2025-09-27T09:36:36Z</time>
      </trkpt>
      <trkpt lat="43.7311" lon="6.94393">
        <ele>1113.5</ele>
        <time>2025-09-27T09:36:39Z</time>
      </trkpt>
      <trkpt lat="43.73114" lon="6.94389">
        <ele>1113.3</ele>
        <time>2025-09-27T09:36:41Z</time>
      </trkpt>
      <trkpt lat="43.73119" lon="6.94385">
        <ele>1113.1</ele>
        <time>2025-09-27T09:36:43Z</time>
      </trkpt>
      <trkpt lat="43.73124" lon="6.94381">
        <ele>1112.9</ele>
        <time>2025-09-27T09:36:45Z</time>
      </trkpt>
      <trkpt lat="43.73129" lon="6.94375">
        <ele>1112.6</ele>
        <time>2025-09-27T09:36:47Z</time>
      </trkpt>
      <trkpt lat="43.73134" lon="6.94369">
        <ele>1112.5</ele>
        <time>2025-09-27T09:36:49Z</time>
      </trkpt>
      <trkpt lat="43.73139" lon="6.94364">
        <ele>1112.4</ele>
        <time>2025-09-27T09:36:51Z</time>
      </trkpt>
      <trkpt lat="43.73144" lon="6.94359">
        <ele>1112.3</ele>
        <time>2025-09-27T09:36:53Z</time>
      </trkpt>
      <trkpt lat="43.73148" lon="6.94353">
        <ele>1112.3</ele>
        <time>2025-09-27T09:36:55Z</time>
      </trkpt>
      <trkpt lat="43.73153" lon="6.94348">
        <ele>1112.3</ele>
        <time>2025-09-27T09:36:57Z</time>
      </trkpt>
      <trkpt lat="43.73157" lon="6.94343">
        <ele>1112.3</ele>
        <time>2025-09-27T09:36:59Z</time>
      </trkpt>
      <trkpt lat="43.73162" lon="6.9434">
        <ele>1112.3</ele>
        <time>2025-09-27T09:37:01Z</time>
      </trkpt>
      <trkpt lat="43.73165" lon="6.94335">
        <ele>1112.3</ele>
        <time>2025-09-27T09:37:03Z</time>
      </trkpt>
      <trkpt lat="43.73169" lon="6.94331">
        <ele>1112.3</ele>
        <time>2025-09-27T09:37:05Z</time>
      </trkpt>
      <trkpt lat="43.73174" lon="6.94329">
        <ele>1112.3</ele>
        <time>2025-09-27T09:37:07Z</time>
      </trkpt>
      <trkpt lat="43.73179" lon="6.94324">
        <ele>1112.2</ele>
        <time>2025-09-27T09:37:09Z</time>
      </trkpt>
      <trkpt lat="43.73184" lon="6.94319">
        <ele>1112</ele>
        <time>2025-09-27T09:37:11Z</time>
      </trkpt>
      <trkpt lat="43.73189" lon="6.94313">
        <ele>1111.7</ele>
        <time>2025-09-27T09:37:13Z</time>
      </trkpt>
      <trkpt lat="43.73194" lon="6.94308">
        <ele>1111.4</ele>
        <time>2025-09-27T09:37:15Z</time>
      </trkpt>
      <trkpt lat="43.73201" lon="6.94303">
        <ele>1111</ele>
        <time>2025-09-27T09:37:17Z</time>
      </trkpt>
      <trkpt lat="43.73207" lon="6.94298">
        <ele>1110.7</ele>
        <time>2025-09-27T09:37:19Z</time>
      </trkpt>
      <trkpt lat="43.73215" lon="6.94295">
        <ele>1110.4</ele>
        <time>2025-09-27T09:37:21Z</time>
      </trkpt>
      <trkpt lat="43.73221" lon="6.94292">
        <ele>1110.2</ele>
        <time>2025-09-27T09:37:23Z</time>
      </trkpt>
      <trkpt lat="43.73229" lon="6.94289">
        <ele>1110.3</ele>
        <time>2025-09-27T09:37:25Z</time>
      </trkpt>
      <trkpt lat="43.73236" lon="6.94286">
        <ele>1110.6</ele>
        <time>2025-09-27T09:37:27Z</time>
      </trkpt>
      <trkpt lat="43.73242" lon="6.94284">
        <ele>1110.9</ele>
        <time>2025-09-27T09:37:29Z</time>
      </trkpt>
      <trkpt lat="43.73248" lon="6.94282">
        <ele>1111.4</ele>
        <time>2025-09-27T09:37:32Z</time>
      </trkpt>
      <trkpt lat="43.73253" lon="6.9428">
        <ele>1111.8</ele>
        <time>2025-09-27T09:37:35Z</time>
      </trkpt>
      <trkpt lat="43.73259" lon="6.94277">
        <ele>1112.2</ele>
        <time>2025-09-27T09:37:39Z</time>
      </trkpt>
      <trkpt lat="43.73264" lon="6.94275">
        <ele>1112.5</ele>
        <time>2025-09-27T09:37:42Z</time>
      </trkpt>
      <trkpt lat="43.7327" lon="6.94273">
        <ele>1112.8</ele>
        <time>2025-09-27T09:37:45Z</time>
      </trkpt>
      <trkpt lat="43.73275" lon="6.94269">
        <ele>1113.1</ele>
        <time>2025-09-27T09:37:48Z</time>
      </trkpt>
      <trkpt lat="43.7328" lon="6.94266">
        <ele>1113.5</ele>
        <time>2025-09-27T09:37:51Z</time>
      </trkpt>
      <trkpt lat="43.73283" lon="6.94261">
        <ele>1113.9</ele>
        <time>2025-09-27T09:37:54Z</time>
      </trkpt>
      <trkpt lat="43.73284" lon="6.94254">
        <ele>1114.4</ele>
        <time>2025-09-27T09:37:57Z</time>
      </trkpt>
      <trkpt lat="43.73284" lon="6.94246">
        <ele>1114.2</ele>
        <time>2025-09-27T09:38:00Z</time>
      </trkpt>
      <trkpt lat="43.73284" lon="6.94239">
        <ele>1114.1</ele>
        <time>2025-09-27T09:38:02Z</time>
      </trkpt>
      <trkpt lat="43.73286" lon="6.94232">
        <ele>1113.9</ele>
        <time>2025-09-27T09:38:05Z</time>
      </trkpt>
      <trkpt lat="43.73288" lon="6.94226">
        <ele>1113.7</ele>
        <time>2025-09-27T09:38:09Z</time>
      </trkpt>
      <trkpt lat="43.7329" lon="6.94218">
        <ele>1113.5</ele>
        <time>2025-09-27T09:38:13Z</time>
      </trkpt>
      <trkpt lat="43.73295" lon="6.94218">
        <ele>1113.3</ele>
        <time>2025-09-27T09:38:16Z</time>
      </trkpt>
      <trkpt lat="43.7329" lon="6.94217">
        <ele>1113</ele>
        <time>2025-09-27T09:38:28Z</time>
      </trkpt>
      <trkpt lat="43.73286" lon="6.94224">
        <ele>1113.2</ele>
        <time>2025-09-27T09:38:31Z</time>
      </trkpt>
      <trkpt lat="43.73285" lon="6.94232">
        <ele>1113.5</ele>
        <time>2025-09-27T09:38:34Z</time>
      </trkpt>
      <trkpt lat="43.73284" lon="6.94241">
        <ele>1113.8</ele>
        <time>2025-09-27T09:38:37Z</time>
      </trkpt>
      <trkpt lat="43.73284" lon="6.94248">
        <ele>1114</ele>
        <time>2025-09-27T09:38:39Z</time>
      </trkpt>
      <trkpt lat="43.73286" lon="6.94254">
        <ele>1114.2</ele>
        <time>2025-09-27T09:38:42Z</time>
      </trkpt>
      <trkpt lat="43.73288" lon="6.94261">
        <ele>1114.4</ele>
        <time>2025-09-27T09:38:46Z</time>
      </trkpt>
      <trkpt lat="43.73287" lon="6.94255">
        <ele>1114.7</ele>
        <time>2025-09-27T09:38:57Z</time>
      </trkpt>
      <trkpt lat="43.7329" lon="6.9425">
        <ele>1114.9</ele>
        <time>2025-09-27T09:39:02Z</time>
      </trkpt>
      <trkpt lat="43.73294" lon="6.94245">
        <ele>1115.2</ele>
        <time>2025-09-27T09:39:08Z</time>
      </trkpt>
      <trkpt lat="43.73298" lon="6.9424">
        <ele>1115.5</ele>
        <time>2025-09-27T09:39:11Z</time>
      </trkpt>
      <trkpt lat="43.73303" lon="6.94237">
        <ele>1115.7</ele>
        <time>2025-09-27T09:39:14Z</time>
      </trkpt>
      <trkpt lat="43.73307" lon="6.94236">
        <ele>1116</ele>
        <time>2025-09-27T09:39:17Z</time>
      </trkpt>
      <trkpt lat="43.73312" lon="6.94235">
        <ele>1116.1</ele>
        <time>2025-09-27T09:39:20Z</time>
      </trkpt>
      <trkpt lat="43.73317" lon="6.94233">
        <ele>1116.3</ele>
        <time>2025-09-27T09:39:23Z</time>
      </trkpt>
      <trkpt lat="43.73322" lon="6.9423">
        <ele>1116.5</ele>
        <time>2025-09-27T09:39:26Z</time>
      </trkpt>
      <trkpt lat="43.73329" lon="6.94227">
        <ele>1116.8</ele>
        <time>2025-09-27T09:39:29Z</time>
      </trkpt>
      <trkpt lat="43.73335" lon="6.94225">
        <ele>1116.9</ele>
        <time>2025-09-27T09:39:32Z</time>
      </trkpt>
      <trkpt lat="43.7334" lon="6.94223">
        <ele>1117</ele>
        <time>2025-09-27T09:39:34Z</time>
      </trkpt>
      <trkpt lat="43.73344" lon="6.94222">
        <ele>1117</ele>
        <time>2025-09-27T09:39:36Z</time>
      </trkpt>
      <trkpt lat="43.73349" lon="6.9422">
        <ele>1116.9</ele>
        <time>2025-09-27T09:39:38Z</time>
      </trkpt>
      <trkpt lat="43.73354" lon="6.94219">
        <ele>1116.8</ele>
        <time>2025-09-27T09:39:40Z</time>
      </trkpt>
      <trkpt lat="43.73359" lon="6.94217">
        <ele>1116.6</ele>
        <time>2025-09-27T09:39:42Z</time>
      </trkpt>
      <trkpt lat="43.73366" lon="6.94215">
        <ele>1116.3</ele>
        <time>2025-09-27T09:39:45Z</time>
      </trkpt>
      <trkpt lat="43.73371" lon="6.94213">
        <ele>1116</ele>
        <time>2025-09-27T09:39:47Z</time>
      </trkpt>
      <trkpt lat="43.73378" lon="6.9421">
        <ele>1115.7</ele>
        <time>2025-09-27T09:39:49Z</time>
      </trkpt>
      <trkpt lat="43.73385" lon="6.94206">
        <ele>1115.4</ele>
        <time>2025-09-27T09:39:51Z</time>
      </trkpt>
      <trkpt lat="43.73391" lon="6.94202">
        <ele>1115.1</ele>
        <time>2025-09-27T09:39:53Z</time>
      </trkpt>
      <trkpt lat="43.73398" lon="6.94197">
        <ele>1114.8</ele>
        <time>2025-09-27T09:39:55Z</time>
      </trkpt>
      <trkpt lat="43.73404" lon="6.94193">
        <ele>1114.5</ele>
        <time>2025-09-27T09:39:57Z</time>
      </trkpt>
      <trkpt lat="43.73411" lon="6.94192">
        <ele>1114.1</ele>
        <time>2025-09-27T09:39:59Z</time>
      </trkpt>
      <trkpt lat="43.73418" lon="6.94194">
        <ele>1113.7</ele>
        <time>2025-09-27T09:40:01Z</time>
      </trkpt>
      <trkpt lat="43.73422" lon="6.94196">
        <ele>1113.4</ele>
        <time>2025-09-27T09:40:02Z</time>
      </trkpt>
      <trkpt lat="43.73426" lon="6.942">
        <ele>1113.1</ele>
        <time>2025-09-27T09:40:03Z</time>
      </trkpt>
      <trkpt lat="43.73431" lon="6.94207">
        <ele>1112.6</ele>
        <time>2025-09-27T09:40:05Z</time>
      </trkpt>
      <trkpt lat="43.73435" lon="6.94214">
        <ele>1112</ele>
        <time>2025-09-27T09:40:07Z</time>
      </trkpt>
      <trkpt lat="43.73441" lon="6.94215">
        <ele>1111.4</ele>
        <time>2025-09-27T09:40:10Z</time>
      </trkpt>
      <trkpt lat="43.73446" lon="6.9421">
        <ele>1110.9</ele>
        <time>2025-09-27T09:40:12Z</time>
      </trkpt>
      <trkpt lat="43.73452" lon="6.94204">
        <ele>1110.4</ele>
        <time>2025-09-27T09:40:14Z</time>
      </trkpt>
      <trkpt lat="43.7346" lon="6.94202">
        <ele>1110</ele>
        <time>2025-09-27T09:40:16Z</time>
      </trkpt>
      <trkpt lat="43.73465" lon="6.942">
        <ele>1109.8</ele>
        <time>2025-09-27T09:40:17Z</time>
      </trkpt>
      <trkpt lat="43.7347" lon="6.94199">
        <ele>1109.7</ele>
        <time>2025-09-27T09:40:18Z</time>
      </trkpt>
      <trkpt lat="43.73474" lon="6.94197">
        <ele>1109.6</ele>
        <time>2025-09-27T09:40:19Z</time>
      </trkpt>
      <trkpt lat="43.73482" lon="6.94193">
        <ele>1109.7</ele>
        <time>2025-09-27T09:40:21Z</time>
      </trkpt>
      <trkpt lat="43.73488" lon="6.94187">
        <ele>1109.9</ele>
        <time>2025-09-27T09:40:23Z</time>
      </trkpt>
      <trkpt lat="43.73494" lon="6.9418">
        <ele>1110.1</ele>
        <time>2025-09-27T09:40:25Z</time>
      </trkpt>
      <trkpt lat="43.73499" lon="6.94174">
        <ele>1110.2</ele>
        <time>2025-09-27T09:40:27Z</time>
      </trkpt>
      <trkpt lat="43.73503" lon="6.94167">
        <ele>1110.3</ele>
        <time>2025-09-27T09:40:29Z</time>
      </trkpt>
      <trkpt lat="43.73509" lon="6.9416">
        <ele>1110.2</ele>
        <time>2025-09-27T09:40:31Z</time>
      </trkpt>
      <trkpt lat="43.73515" lon="6.94153">
        <ele>1110.1</ele>
        <time>2025-09-27T09:40:33Z</time>
      </trkpt>
      <trkpt lat="43.73522" lon="6.94146">
        <ele>1110</ele>
        <time>2025-09-27T09:40:35Z</time>
      </trkpt>
      <trkpt lat="43.73529" lon="6.9414">
        <ele>1109.9</ele>
        <time>2025-09-27T09:40:37Z</time>
      </trkpt>
      <trkpt lat="43.73536" lon="6.94136">
        <ele>1109.8</ele>
        <time>2025-09-27T09:40:39Z</time>
      </trkpt>
      <trkpt lat="43.73542" lon="6.94129">
        <ele>1109.6</ele>
        <time>2025-09-27T09:40:41Z</time>
      </trkpt>
      <trkpt lat="43.73547" lon="6.94121">
        <ele>1109.3</ele>
        <time>2025-09-27T09:40:43Z</time>
      </trkpt>
      <trkpt lat="43.73554" lon="6.94112">
        <ele>1109.1</ele>
        <time>2025-09-27T09:40:45Z</time>
      </trkpt>
      <trkpt lat="43.73557" lon="6.94108">
        <ele>1109</ele>
        <time>2025-09-27T09:40:46Z</time>
      </trkpt>
      <trkpt lat="43.73561" lon="6.94105">
        <ele>1109</ele>
        <time>2025-09-27T09:40:47Z</time>
      </trkpt>
      <trkpt lat="43.73569" lon="6.941">
        <ele>1109</ele>
        <time>2025-09-27T09:40:49Z</time>
      </trkpt>
      <trkpt lat="43.73576" lon="6.94098">
        <ele>1109.1</ele>
        <time>2025-09-27T09:40:51Z</time>
      </trkpt>
      <trkpt lat="43.73583" lon="6.94096">
        <ele>1109.4</ele>
        <time>2025-09-27T09:40:53Z</time>
      </trkpt>
      <trkpt lat="43.73589" lon="6.94099">
        <ele>1109.6</ele>
        <time>2025-09-27T09:40:55Z</time>
      </trkpt>
      <trkpt lat="43.73594" lon="6.94102">
        <ele>1109.8</ele>
        <time>2025-09-27T09:40:57Z</time>
      </trkpt>
      <trkpt lat="43.73599" lon="6.941">
        <ele>1110</ele>
        <time>2025-09-27T09:40:59Z</time>
      </trkpt>
      <trkpt lat="43.73605" lon="6.94097">
        <ele>1110.2</ele>
        <time>2025-09-27T09:41:02Z</time>
      </trkpt>
      <trkpt lat="43.7361" lon="6.94092">
        <ele>1110.3</ele>
        <time>2025-09-27T09:41:05Z</time>
      </trkpt>
      <trkpt lat="43.73614" lon="6.94088">
        <ele>1110.4</ele>
        <time>2025-09-27T09:41:07Z</time>
      </trkpt>
      <trkpt lat="43.73617" lon="6.94084">
        <ele>1110.6</ele>
        <time>2025-09-27T09:41:09Z</time>
      </trkpt>
      <trkpt lat="43.73621" lon="6.94077">
        <ele>1110.7</ele>
        <time>2025-09-27T09:41:12Z</time>
      </trkpt>
      <trkpt lat="43.73625" lon="6.94072">
        <ele>1110.8</ele>
        <time>2025-09-27T09:41:15Z</time>
      </trkpt>
      <trkpt lat="43.73628" lon="6.94067">
        <ele>1111</ele>
        <time>2025-09-27T09:41:18Z</time>
      </trkpt>
      <trkpt lat="43.73632" lon="6.94061">
        <ele>1111.1</ele>
        <time>2025-09-27T09:41:27Z</time>
      </trkpt>
      <trkpt lat="43.73635" lon="6.94056">
        <ele>1111.3</ele>
        <time>2025-09-27T09:41:30Z</time>
      </trkpt>
      <trkpt lat="43.73639" lon="6.94051">
        <ele>1111.4</ele>
        <time>2025-09-27T09:41:32Z</time>
      </trkpt>
      <trkpt lat="43.73644" lon="6.94046">
        <ele>1111.7</ele>
        <time>2025-09-27T09:41:35Z</time>
      </trkpt>
      <trkpt lat="43.73648" lon="6.94045">
        <ele>1112</ele>
        <time>2025-09-27T09:41:38Z</time>
      </trkpt>
      <trkpt lat="43.73654" lon="6.94045">
        <ele>1112.3</ele>
        <time>2025-09-27T09:41:41Z</time>
      </trkpt>
      <trkpt lat="43.73659" lon="6.94045">
        <ele>1112.7</ele>
        <time>2025-09-27T09:41:44Z</time>
      </trkpt>
      <trkpt lat="43.73664" lon="6.94042">
        <ele>1113.5</ele>
        <time>2025-09-27T09:41:48Z</time>
      </trkpt>
      <trkpt lat="43.73668" lon="6.9404">
        <ele>1114.2</ele>
        <time>2025-09-27T09:41:51Z</time>
      </trkpt>
      <trkpt lat="43.73673" lon="6.94037">
        <ele>1115.1</ele>
        <time>2025-09-27T09:41:56Z</time>
      </trkpt>
      <trkpt lat="43.73677" lon="6.94034">
        <ele>1116.1</ele>
        <time>2025-09-27T09:42:00Z</time>
      </trkpt>
      <trkpt lat="43.73681" lon="6.94031">
        <ele>1116.9</ele>
        <time>2025-09-27T09:42:05Z</time>
      </trkpt>
      <trkpt lat="43.73685" lon="6.94027">
        <ele>1117.8</ele>
        <time>2025-09-27T09:42:11Z</time>
      </trkpt>
      <trkpt lat="43.73689" lon="6.94023">
        <ele>1118.6</ele>
        <time>2025-09-27T09:42:17Z</time>
      </trkpt>
      <trkpt lat="43.73693" lon="6.9402">
        <ele>1119.4</ele>
        <time>2025-09-27T09:42:23Z</time>
      </trkpt>
      <trkpt lat="43.73697" lon="6.94018">
        <ele>1120.3</ele>
        <time>2025-09-27T09:42:33Z</time>
      </trkpt>
      <trkpt lat="43.73703" lon="6.94016">
        <ele>1121.2</ele>
        <time>2025-09-27T09:42:37Z</time>
      </trkpt>
      <trkpt lat="43.73707" lon="6.94013">
        <ele>1122.1</ele>
        <time>2025-09-27T09:42:41Z</time>
      </trkpt>
      <trkpt lat="43.73713" lon="6.94011">
        <ele>1123.1</ele>
        <time>2025-09-27T09:42:45Z</time>
      </trkpt>
      <trkpt lat="43.73717" lon="6.94008">
        <ele>1124.1</ele>
        <time>2025-09-27T09:42:50Z</time>
      </trkpt>
      <trkpt lat="43.73722" lon="6.94005">
        <ele>1125</ele>
        <time>2025-09-27T09:42:54Z</time>
      </trkpt>
      <trkpt lat="43.73726" lon="6.94009">
        <ele>1125.8</ele>
        <time>2025-09-27T09:42:58Z</time>
      </trkpt>
      <trkpt lat="43.73729" lon="6.94016">
        <ele>1126.7</ele>
        <time>2025-09-27T09:43:03Z</time>
      </trkpt>
      <trkpt lat="43.73734" lon="6.94017">
        <ele>1127.5</ele>
        <time>2025-09-27T09:43:08Z</time>
      </trkpt>
      <trkpt lat="43.73738" lon="6.94014">
        <ele>1128.2</ele>
        <time>2025-09-27T09:43:12Z</time>
      </trkpt>
      <trkpt lat="43.73743" lon="6.9401">
        <ele>1129</ele>
        <time>2025-09-27T09:43:16Z</time>
      </trkpt>
      <trkpt lat="43.73748" lon="6.94007">
        <ele>1129.7</ele>
        <time>2025-09-27T09:43:21Z</time>
      </trkpt>
      <trkpt lat="43.73753" lon="6.94005">
        <ele>1130.3</ele>
        <time>2025-09-27T09:43:27Z</time>
      </trkpt>
      <trkpt lat="43.73759" lon="6.94006">
        <ele>1130.7</ele>
        <time>2025-09-27T09:43:32Z</time>
      </trkpt>
      <trkpt lat="43.73763" lon="6.94008">
        <ele>1130.9</ele>
        <time>2025-09-27T09:43:36Z</time>
      </trkpt>
      <trkpt lat="43.73769" lon="6.94006">
        <ele>1130.9</ele>
        <time>2025-09-27T09:43:41Z</time>
      </trkpt>
      <trkpt lat="43.73773" lon="6.94002">
        <ele>1130.6</ele>
        <time>2025-09-27T09:43:44Z</time>
      </trkpt>
      <trkpt lat="43.73779" lon="6.93997">
        <ele>1130.2</ele>
        <time>2025-09-27T09:43:47Z</time>
      </trkpt>
      <trkpt lat="43.73783" lon="6.93993">
        <ele>1129.8</ele>
        <time>2025-09-27T09:43:49Z</time>
      </trkpt>
      <trkpt lat="43.73787" lon="6.9399">
        <ele>1129.3</ele>
        <time>2025-09-27T09:43:51Z</time>
      </trkpt>
      <trkpt lat="43.73792" lon="6.93988">
        <ele>1128.8</ele>
        <time>2025-09-27T09:43:53Z</time>
      </trkpt>
      <trkpt lat="43.73799" lon="6.93985">
        <ele>1128.1</ele>
        <time>2025-09-27T09:43:55Z</time>
      </trkpt>
      <trkpt lat="43.73803" lon="6.93981">
        <ele>1127.5</ele>
        <time>2025-09-27T09:43:57Z</time>
      </trkpt>
      <trkpt lat="43.73809" lon="6.93976">
        <ele>1126.9</ele>
        <time>2025-09-27T09:43:59Z</time>
      </trkpt>
      <trkpt lat="43.73812" lon="6.93967">
        <ele>1126.4</ele>
        <time>2025-09-27T09:44:01Z</time>
      </trkpt>
      <trkpt lat="43.73815" lon="6.9396">
        <ele>1126.1</ele>
        <time>2025-09-27T09:44:03Z</time>
      </trkpt>
      <trkpt lat="43.73818" lon="6.93951">
        <ele>1125.8</ele>
        <time>2025-09-27T09:44:05Z</time>
      </trkpt>
      <trkpt lat="43.73821" lon="6.93946">
        <ele>1125.7</ele>
        <time>2025-09-27T09:44:07Z</time>
      </trkpt>
      <trkpt lat="43.73826" lon="6.93945">
        <ele>1125.5</ele>
        <time>2025-09-27T09:44:11Z</time>
      </trkpt>
      <trkpt lat="43.73833" lon="6.93946">
        <ele>1125.3</ele>
        <time>2025-09-27T09:44:13Z</time>
      </trkpt>
      <trkpt lat="43.7384" lon="6.93944">
        <ele>1124.9</ele>
        <time>2025-09-27T09:44:15Z</time>
      </trkpt>
      <trkpt lat="43.73845" lon="6.93944">
        <ele>1124.7</ele>
        <time>2025-09-27T09:44:17Z</time>
      </trkpt>
      <trkpt lat="43.73854" lon="6.93946">
        <ele>1124.3</ele>
        <time>2025-09-27T09:44:20Z</time>
      </trkpt>
      <trkpt lat="43.73861" lon="6.93947">
        <ele>1124.1</ele>
        <time>2025-09-27T09:44:22Z</time>
      </trkpt>
      <trkpt lat="43.73869" lon="6.93948">
        <ele>1123.8</ele>
        <time>2025-09-27T09:44:24Z</time>
      </trkpt>
      <trkpt lat="43.73875" lon="6.93947">
        <ele>1123.6</ele>
        <time>2025-09-27T09:44:26Z</time>
      </trkpt>
      <trkpt lat="43.73882" lon="6.93948">
        <ele>1123.4</ele>
        <time>2025-09-27T09:44:28Z</time>
      </trkpt>
      <trkpt lat="43.73888" lon="6.93949">
        <ele>1123.2</ele>
        <time>2025-09-27T09:44:30Z</time>
      </trkpt>
      <trkpt lat="43.73895" lon="6.93949">
        <ele>1122.9</ele>
        <time>2025-09-27T09:44:32Z</time>
      </trkpt>
      <trkpt lat="43.73903" lon="6.93951">
        <ele>1122.6</ele>
        <time>2025-09-27T09:44:34Z</time>
      </trkpt>
      <trkpt lat="43.7391" lon="6.93951">
        <ele>1122.4</ele>
        <time>2025-09-27T09:44:36Z</time>
      </trkpt>
      <trkpt lat="43.73919" lon="6.93952">
        <ele>1122.2</ele>
        <time>2025-09-27T09:44:38Z</time>
      </trkpt>
      <trkpt lat="43.73928" lon="6.93953">
        <ele>1122.1</ele>
        <time>2025-09-27T09:44:40Z</time>
      </trkpt>
      <trkpt lat="43.73935" lon="6.93951">
        <ele>1122</ele>
        <time>2025-09-27T09:44:42Z</time>
      </trkpt>
      <trkpt lat="43.73942" lon="6.93948">
        <ele>1121.9</ele>
        <time>2025-09-27T09:44:44Z</time>
      </trkpt>
      <trkpt lat="43.73949" lon="6.93945">
        <ele>1121.9</ele>
        <time>2025-09-27T09:44:46Z</time>
      </trkpt>
      <trkpt lat="43.73957" lon="6.93943">
        <ele>1121.9</ele>
        <time>2025-09-27T09:44:48Z</time>
      </trkpt>
      <trkpt lat="43.73964" lon="6.9394">
        <ele>1121.8</ele>
        <time>2025-09-27T09:44:50Z</time>
      </trkpt>
      <trkpt lat="43.73969" lon="6.93938">
        <ele>1121.7</ele>
        <time>2025-09-27T09:44:52Z</time>
      </trkpt>
      <trkpt lat="43.73974" lon="6.93937">
        <ele>1121.6</ele>
        <time>2025-09-27T09:44:55Z</time>
      </trkpt>
      <trkpt lat="43.7398" lon="6.93936">
        <ele>1121.4</ele>
        <time>2025-09-27T09:44:57Z</time>
      </trkpt>
      <trkpt lat="43.73987" lon="6.93934">
        <ele>1121.2</ele>
        <time>2025-09-27T09:44:59Z</time>
      </trkpt>
      <trkpt lat="43.73993" lon="6.93929">
        <ele>1120.9</ele>
        <time>2025-09-27T09:45:01Z</time>
      </trkpt>
      <trkpt lat="43.73996" lon="6.93925">
        <ele>1120.6</ele>
        <time>2025-09-27T09:45:07Z</time>
      </trkpt>
      <trkpt lat="43.74001" lon="6.93925">
        <ele>1120.4</ele>
        <time>2025-09-27T09:45:21Z</time>
      </trkpt>
      <trkpt lat="43.74005" lon="6.93921">
        <ele>1120.1</ele>
        <time>2025-09-27T09:45:24Z</time>
      </trkpt>
      <trkpt lat="43.7401" lon="6.93916">
        <ele>1119.6</ele>
        <time>2025-09-27T09:45:27Z</time>
      </trkpt>
      <trkpt lat="43.74016" lon="6.93914">
        <ele>1119.1</ele>
        <time>2025-09-27T09:45:30Z</time>
      </trkpt>
      <trkpt lat="43.74024" lon="6.93912">
        <ele>1118.3</ele>
        <time>2025-09-27T09:45:32Z</time>
      </trkpt>
      <trkpt lat="43.74029" lon="6.9391">
        <ele>1117.8</ele>
        <time>2025-09-27T09:45:33Z</time>
      </trkpt>
      <trkpt lat="43.74033" lon="6.93908">
        <ele>1117.4</ele>
        <time>2025-09-27T09:45:34Z</time>
      </trkpt>
      <trkpt lat="43.7404" lon="6.93904">
        <ele>1116.9</ele>
        <time>2025-09-27T09:45:36Z</time>
      </trkpt>
      <trkpt lat="43.74047" lon="6.93902">
        <ele>1116.5</ele>
        <time>2025-09-27T09:45:38Z</time>
      </trkpt>
      <trkpt lat="43.74052" lon="6.93901">
        <ele>1116.2</ele>
        <time>2025-09-27T09:45:40Z</time>
      </trkpt>
      <trkpt lat="43.74056" lon="6.93896">
        <ele>1116</ele>
        <time>2025-09-27T09:45:42Z</time>
      </trkpt>
      <trkpt lat="43.74059" lon="6.9389">
        <ele>1115.6</ele>
        <time>2025-09-27T09:45:45Z</time>
      </trkpt>
      <trkpt lat="43.74061" lon="6.93882">
        <ele>1115.5</ele>
        <time>2025-09-27T09:46:13Z</time>
      </trkpt>
      <trkpt lat="43.74061" lon="6.93875">
        <ele>1115.4</ele>
        <time>2025-09-27T09:46:17Z</time>
      </trkpt>
      <trkpt lat="43.74061" lon="6.93868">
        <ele>1115.4</ele>
        <time>2025-09-27T09:46:19Z</time>
      </trkpt>
      <trkpt lat="43.74061" lon="6.93858">
        <ele>1115.4</ele>
        <time>2025-09-27T09:46:21Z</time>
      </trkpt>
      <trkpt lat="43.7406" lon="6.93849">
        <ele>1115.4</ele>
        <time>2025-09-27T09:46:23Z</time>
      </trkpt>
      <trkpt lat="43.74058" lon="6.93839">
        <ele>1115.6</ele>
        <time>2025-09-27T09:46:25Z</time>
      </trkpt>
      <trkpt lat="43.74055" lon="6.93831">
        <ele>1115.8</ele>
        <time>2025-09-27T09:46:27Z</time>
      </trkpt>
      <trkpt lat="43.74052" lon="6.93821">
        <ele>1115.9</ele>
        <time>2025-09-27T09:46:29Z</time>
      </trkpt>
      <trkpt lat="43.7405" lon="6.93812">
        <ele>1116</ele>
        <time>2025-09-27T09:46:31Z</time>
      </trkpt>
      <trkpt lat="43.74047" lon="6.93803">
        <ele>1116</ele>
        <time>2025-09-27T09:46:33Z</time>
      </trkpt>
      <trkpt lat="43.74046" lon="6.93793">
        <ele>1116.1</ele>
        <time>2025-09-27T09:46:35Z</time>
      </trkpt>
      <trkpt lat="43.74044" lon="6.93783">
        <ele>1116.1</ele>
        <time>2025-09-27T09:46:37Z</time>
      </trkpt>
      <trkpt lat="43.74044" lon="6.93774">
        <ele>1116.2</ele>
        <time>2025-09-27T09:46:39Z</time>
      </trkpt>
      <trkpt lat="43.74046" lon="6.93766">
        <ele>1116.2</ele>
        <time>2025-09-27T09:46:41Z</time>
      </trkpt>
      <trkpt lat="43.74051" lon="6.9376">
        <ele>1116</ele>
        <time>2025-09-27T09:46:43Z</time>
      </trkpt>
      <trkpt lat="43.74057" lon="6.93755">
        <ele>1115.6</ele>
        <time>2025-09-27T09:46:45Z</time>
      </trkpt>
      <trkpt lat="43.74065" lon="6.93752">
        <ele>1115.1</ele>
        <time>2025-09-27T09:46:47Z</time>
      </trkpt>
      <trkpt lat="43.7407" lon="6.93748">
        <ele>1114.6</ele>
        <time>2025-09-27T09:46:49Z</time>
      </trkpt>
      <trkpt lat="43.7407" lon="6.93741">
        <ele>1114.7</ele>
        <time>2025-09-27T09:46:52Z</time>
      </trkpt>
      <trkpt lat="43.74068" lon="6.93734">
        <ele>1115</ele>
        <time>2025-09-27T09:46:54Z</time>
      </trkpt>
      <trkpt lat="43.74065" lon="6.93729">
        <ele>1115.3</ele>
        <time>2025-09-27T09:46:56Z</time>
      </trkpt>
      <trkpt lat="43.74063" lon="6.93723">
        <ele>1115.3</ele>
        <time>2025-09-27T09:46:58Z</time>
      </trkpt>
      <trkpt lat="43.7406" lon="6.93718">
        <ele>1115.6</ele>
        <time>2025-09-27T09:47:00Z</time>
      </trkpt>
      <trkpt lat="43.74056" lon="6.93711">
        <ele>1116</ele>
        <time>2025-09-27T09:47:03Z</time>
      </trkpt>
      <trkpt lat="43.74052" lon="6.93707">
        <ele>1116.2</ele>
        <time>2025-09-27T09:47:05Z</time>
      </trkpt>
      <trkpt lat="43.74048" lon="6.93702">
        <ele>1116.3</ele>
        <time>2025-09-27T09:47:08Z</time>
      </trkpt>
      <trkpt lat="43.74044" lon="6.93695">
        <ele>1116.6</ele>
        <time>2025-09-27T09:47:12Z</time>
      </trkpt>
      <trkpt lat="43.74043" lon="6.93687">
        <ele>1116.5</ele>
        <time>2025-09-27T09:47:15Z</time>
      </trkpt>
      <trkpt lat="43.74044" lon="6.93679">
        <ele>1116.2</ele>
        <time>2025-09-27T09:47:18Z</time>
      </trkpt>
      <trkpt lat="43.74047" lon="6.93674">
        <ele>1115.9</ele>
        <time>2025-09-27T09:47:20Z</time>
      </trkpt>
      <trkpt lat="43.74049" lon="6.93668">
        <ele>1115.8</ele>
        <time>2025-09-27T09:47:22Z</time>
      </trkpt>
      <trkpt lat="43.74051" lon="6.93661">
        <ele>1115.6</ele>
        <time>2025-09-27T09:47:24Z</time>
      </trkpt>
      <trkpt lat="43.74052" lon="6.93653">
        <ele>1115.5</ele>
        <time>2025-09-27T09:47:26Z</time>
      </trkpt>
      <trkpt lat="43.74054" lon="6.93645">
        <ele>1115.5</ele>
        <time>2025-09-27T09:47:28Z</time>
      </trkpt>
      <trkpt lat="43.74055" lon="6.93637">
        <ele>1115.6</ele>
        <time>2025-09-27T09:47:30Z</time>
      </trkpt>
      <trkpt lat="43.74055" lon="6.93629">
        <ele>1115.6</ele>
        <time>2025-09-27T09:47:32Z</time>
      </trkpt>
      <trkpt lat="43.74054" lon="6.93621">
        <ele>1115.5</ele>
        <time>2025-09-27T09:47:34Z</time>
      </trkpt>
      <trkpt lat="43.74055" lon="6.93615">
        <ele>1115.5</ele>
        <time>2025-09-27T09:47:36Z</time>
      </trkpt>
      <trkpt lat="43.74055" lon="6.93608">
        <ele>1115.5</ele>
        <time>2025-09-27T09:47:38Z</time>
      </trkpt>
      <trkpt lat="43.74057" lon="6.936">
        <ele>1115.4</ele>
        <time>2025-09-27T09:47:40Z</time>
      </trkpt>
      <trkpt lat="43.74058" lon="6.93593">
        <ele>1115.4</ele>
        <time>2025-09-27T09:47:42Z</time>
      </trkpt>
      <trkpt lat="43.74059" lon="6.93584">
        <ele>1115.4</ele>
        <time>2025-09-27T09:47:44Z</time>
      </trkpt>
      <trkpt lat="43.74063" lon="6.93576">
        <ele>1115.4</ele>
        <time>2025-09-27T09:47:46Z</time>
      </trkpt>
      <trkpt lat="43.74066" lon="6.93567">
        <ele>1115.4</ele>
        <time>2025-09-27T09:47:48Z</time>
      </trkpt>
      <trkpt lat="43.74069" lon="6.93556">
        <ele>1115.4</ele>
        <time>2025-09-27T09:47:50Z</time>
      </trkpt>
      <trkpt lat="43.7407" lon="6.93549">
        <ele>1115.4</ele>
        <time>2025-09-27T09:47:51Z</time>
      </trkpt>
      <trkpt lat="43.7407" lon="6.93543">
        <ele>1115.5</ele>
        <time>2025-09-27T09:47:52Z</time>
      </trkpt>
      <trkpt lat="43.74069" lon="6.93537">
        <ele>1115.6</ele>
        <time>2025-09-27T09:47:53Z</time>
      </trkpt>
      <trkpt lat="43.74065" lon="6.9353">
        <ele>1115.8</ele>
        <time>2025-09-27T09:47:55Z</time>
      </trkpt>
      <trkpt lat="43.74062" lon="6.93522">
        <ele>1116.1</ele>
        <time>2025-09-27T09:47:58Z</time>
      </trkpt>
      <trkpt lat="43.74059" lon="6.93513">
        <ele>1116.4</ele>
        <time>2025-09-27T09:48:01Z</time>
      </trkpt>
      <trkpt lat="43.74058" lon="6.93506">
        <ele>1116.6</ele>
        <time>2025-09-27T09:48:04Z</time>
      </trkpt>
      <trkpt lat="43.74057" lon="6.93498">
        <ele>1116.7</ele>
        <time>2025-09-27T09:48:07Z</time>
      </trkpt>
      <trkpt lat="43.7406" lon="6.93491">
        <ele>1116.8</ele>
        <time>2025-09-27T09:48:10Z</time>
      </trkpt>
      <trkpt lat="43.74062" lon="6.93484">
        <ele>1116.8</ele>
        <time>2025-09-27T09:48:12Z</time>
      </trkpt>
      <trkpt lat="43.74062" lon="6.93477">
        <ele>1116.8</ele>
        <time>2025-09-27T09:48:14Z</time>
      </trkpt>
      <trkpt lat="43.74062" lon="6.9347">
        <ele>1116.8</ele>
        <time>2025-09-27T09:48:16Z</time>
      </trkpt>
      <trkpt lat="43.7406" lon="6.93463">
        <ele>1116.8</ele>
        <time>2025-09-27T09:48:18Z</time>
      </trkpt>
      <trkpt lat="43.74059" lon="6.93456">
        <ele>1116.8</ele>
        <time>2025-09-27T09:48:20Z</time>
      </trkpt>
      <trkpt lat="43.74056" lon="6.9345">
        <ele>1116.8</ele>
        <time>2025-09-27T09:48:22Z</time>
      </trkpt>
      <trkpt lat="43.74054" lon="6.93442">
        <ele>1116.8</ele>
        <time>2025-09-27T09:48:24Z</time>
      </trkpt>
      <trkpt lat="43.74051" lon="6.93435">
        <ele>1116.9</ele>
        <time>2025-09-27T09:48:26Z</time>
      </trkpt>
      <trkpt lat="43.74049" lon="6.93427">
        <ele>1116.9</ele>
        <time>2025-09-27T09:48:28Z</time>
      </trkpt>
      <trkpt lat="43.74047" lon="6.93419">
        <ele>1116.9</ele>
        <time>2025-09-27T09:48:30Z</time>
      </trkpt>
      <trkpt lat="43.74048" lon="6.93412">
        <ele>1116.9</ele>
        <time>2025-09-27T09:48:32Z</time>
      </trkpt>
      <trkpt lat="43.74049" lon="6.93404">
        <ele>1116.9</ele>
        <time>2025-09-27T09:48:36Z</time>
      </trkpt>
      <trkpt lat="43.74051" lon="6.93394">
        <ele>1116.8</ele>
        <time>2025-09-27T09:48:39Z</time>
      </trkpt>
      <trkpt lat="43.74051" lon="6.93387">
        <ele>1116.8</ele>
        <time>2025-09-27T09:48:41Z</time>
      </trkpt>
      <trkpt lat="43.74052" lon="6.93378">
        <ele>1116.7</ele>
        <time>2025-09-27T09:48:43Z</time>
      </trkpt>
      <trkpt lat="43.74051" lon="6.93371">
        <ele>1116.7</ele>
        <time>2025-09-27T09:48:45Z</time>
      </trkpt>
      <trkpt lat="43.74048" lon="6.93366">
        <ele>1116.7</ele>
        <time>2025-09-27T09:48:47Z</time>
      </trkpt>
      <trkpt lat="43.74045" lon="6.9336">
        <ele>1116.7</ele>
        <time>2025-09-27T09:48:49Z</time>
      </trkpt>
      <trkpt lat="43.74042" lon="6.93355">
        <ele>1116.6</ele>
        <time>2025-09-27T09:48:51Z</time>
      </trkpt>
      <trkpt lat="43.74039" lon="6.93349">
        <ele>1116.5</ele>
        <time>2025-09-27T09:48:53Z</time>
      </trkpt>
      <trkpt lat="43.74039" lon="6.93341">
        <ele>1116.4</ele>
        <time>2025-09-27T09:48:55Z</time>
      </trkpt>
      <trkpt lat="43.74038" lon="6.93332">
        <ele>1116.2</ele>
        <time>2025-09-27T09:48:57Z</time>
      </trkpt>
      <trkpt lat="43.74036" lon="6.93325">
        <ele>1116.1</ele>
        <time>2025-09-27T09:48:59Z</time>
      </trkpt>
      <trkpt lat="43.74033" lon="6.93318">
        <ele>1116</ele>
        <time>2025-09-27T09:49:01Z</time>
      </trkpt>
      <trkpt lat="43.74029" lon="6.93312">
        <ele>1115.9</ele>
        <time>2025-09-27T09:49:03Z</time>
      </trkpt>
      <trkpt lat="43.74025" lon="6.93306">
        <ele>1115.9</ele>
        <time>2025-09-27T09:49:05Z</time>
      </trkpt>
      <trkpt lat="43.74022" lon="6.93299">
        <ele>1115.8</ele>
        <time>2025-09-27T09:49:07Z</time>
      </trkpt>
      <trkpt lat="43.7402" lon="6.93292">
        <ele>1115.8</ele>
        <time>2025-09-27T09:49:09Z</time>
      </trkpt>
      <trkpt lat="43.74016" lon="6.93288">
        <ele>1115.7</ele>
        <time>2025-09-27T09:49:11Z</time>
      </trkpt>
      <trkpt lat="43.74013" lon="6.93283">
        <ele>1115.7</ele>
        <time>2025-09-27T09:49:13Z</time>
      </trkpt>
      <trkpt lat="43.74011" lon="6.93277">
        <ele>1115.7</ele>
        <time>2025-09-27T09:49:15Z</time>
      </trkpt>
      <trkpt lat="43.7401" lon="6.93269">
        <ele>1115.7</ele>
        <time>2025-09-27T09:49:17Z</time>
      </trkpt>
      <trkpt lat="43.74009" lon="6.9326">
        <ele>1115.7</ele>
        <time>2025-09-27T09:49:19Z</time>
      </trkpt>
      <trkpt lat="43.74004" lon="6.93255">
        <ele>1115.7</ele>
        <time>2025-09-27T09:49:21Z</time>
      </trkpt>
      <trkpt lat="43.74001" lon="6.93249">
        <ele>1115.7</ele>
        <time>2025-09-27T09:49:23Z</time>
      </trkpt>
      <trkpt lat="43.73998" lon="6.9324">
        <ele>1115.8</ele>
        <time>2025-09-27T09:49:25Z</time>
      </trkpt>
      <trkpt lat="43.73996" lon="6.9323">
        <ele>1115.9</ele>
        <time>2025-09-27T09:49:27Z</time>
      </trkpt>
      <trkpt lat="43.73993" lon="6.93221">
        <ele>1116</ele>
        <time>2025-09-27T09:49:29Z</time>
      </trkpt>
      <trkpt lat="43.73989" lon="6.93215">
        <ele>1116</ele>
        <time>2025-09-27T09:49:31Z</time>
      </trkpt>
      <trkpt lat="43.73985" lon="6.93209">
        <ele>1116</ele>
        <time>2025-09-27T09:49:33Z</time>
      </trkpt>
      <trkpt lat="43.73982" lon="6.93202">
        <ele>1116.1</ele>
        <time>2025-09-27T09:49:35Z</time>
      </trkpt>
      <trkpt lat="43.73982" lon="6.93194">
        <ele>1116.1</ele>
        <time>2025-09-27T09:49:38Z</time>
      </trkpt>
      <trkpt lat="43.73984" lon="6.93185">
        <ele>1116.2</ele>
        <time>2025-09-27T09:49:41Z</time>
      </trkpt>
      <trkpt lat="43.73984" lon="6.93176">
        <ele>1116.3</ele>
        <time>2025-09-27T09:49:44Z</time>
      </trkpt>
      <trkpt lat="43.73983" lon="6.93167">
        <ele>1116.4</ele>
        <time>2025-09-27T09:49:47Z</time>
      </trkpt>
      <trkpt lat="43.73982" lon="6.9316">
        <ele>1116.5</ele>
        <time>2025-09-27T09:49:49Z</time>
      </trkpt>
      <trkpt lat="43.73979" lon="6.93152">
        <ele>1116.8</ele>
        <time>2025-09-27T09:49:51Z</time>
      </trkpt>
      <trkpt lat="43.73976" lon="6.93145">
        <ele>1116.9</ele>
        <time>2025-09-27T09:49:53Z</time>
      </trkpt>
      <trkpt lat="43.73973" lon="6.93138">
        <ele>1117.1</ele>
        <time>2025-09-27T09:49:55Z</time>
      </trkpt>
      <trkpt lat="43.7397" lon="6.93131">
        <ele>1117.3</ele>
        <time>2025-09-27T09:49:57Z</time>
      </trkpt>
      <trkpt lat="43.73967" lon="6.93126">
        <ele>1117.5</ele>
        <time>2025-09-27T09:49:59Z</time>
      </trkpt>
      <trkpt lat="43.73965" lon="6.93118">
        <ele>1117.6</ele>
        <time>2025-09-27T09:50:02Z</time>
      </trkpt>
      <trkpt lat="43.73961" lon="6.93112">
        <ele>1117.7</ele>
        <time>2025-09-27T09:50:04Z</time>
      </trkpt>
      <trkpt lat="43.73957" lon="6.93106">
        <ele>1117.8</ele>
        <time>2025-09-27T09:50:06Z</time>
      </trkpt>
      <trkpt lat="43.73956" lon="6.93099">
        <ele>1117.9</ele>
        <time>2025-09-27T09:50:08Z</time>
      </trkpt>
      <trkpt lat="43.73956" lon="6.93093">
        <ele>1118</ele>
        <time>2025-09-27T09:50:10Z</time>
      </trkpt>
      <trkpt lat="43.73951" lon="6.93087">
        <ele>1118.2</ele>
        <time>2025-09-27T09:50:13Z</time>
      </trkpt>
      <trkpt lat="43.73947" lon="6.93084">
        <ele>1118.3</ele>
        <time>2025-09-27T09:50:15Z</time>
      </trkpt>
      <trkpt lat="43.73944" lon="6.93076">
        <ele>1118.5</ele>
        <time>2025-09-27T09:50:18Z</time>
      </trkpt>
      <trkpt lat="43.73941" lon="6.93071">
        <ele>1118.6</ele>
        <time>2025-09-27T09:50:20Z</time>
      </trkpt>
      <trkpt lat="43.7394" lon="6.93062">
        <ele>1118.7</ele>
        <time>2025-09-27T09:50:23Z</time>
      </trkpt>
      <trkpt lat="43.7394" lon="6.93055">
        <ele>1118.8</ele>
        <time>2025-09-27T09:50:25Z</time>
      </trkpt>
      <trkpt lat="43.73938" lon="6.93049">
        <ele>1118.9</ele>
        <time>2025-09-27T09:50:27Z</time>
      </trkpt>
      <trkpt lat="43.73935" lon="6.93043">
        <ele>1119</ele>
        <time>2025-09-27T09:50:29Z</time>
      </trkpt>
      <trkpt lat="43.73933" lon="6.93036">
        <ele>1119.2</ele>
        <time>2025-09-27T09:50:31Z</time>
      </trkpt>
      <trkpt lat="43.73931" lon="6.93029">
        <ele>1119.3</ele>
        <time>2025-09-27T09:50:33Z</time>
      </trkpt>
      <trkpt lat="43.7393" lon="6.93021">
        <ele>1119.5</ele>
        <time>2025-09-27T09:50:35Z</time>
      </trkpt>
      <trkpt lat="43.73929" lon="6.93013">
        <ele>1119.6</ele>
        <time>2025-09-27T09:50:37Z</time>
      </trkpt>
      <trkpt lat="43.73927" lon="6.93005">
        <ele>1119.7</ele>
        <time>2025-09-27T09:50:39Z</time>
      </trkpt>
      <trkpt lat="43.73922" lon="6.93">
        <ele>1119.8</ele>
        <time>2025-09-27T09:50:41Z</time>
      </trkpt>
      <trkpt lat="43.73919" lon="6.92994">
        <ele>1119.8</ele>
        <time>2025-09-27T09:50:44Z</time>
      </trkpt>
      <trkpt lat="43.73918" lon="6.92987">
        <ele>1119.8</ele>
        <time>2025-09-27T09:50:46Z</time>
      </trkpt>
      <trkpt lat="43.73917" lon="6.92979">
        <ele>1119.8</ele>
        <time>2025-09-27T09:50:48Z</time>
      </trkpt>
      <trkpt lat="43.73914" lon="6.92973">
        <ele>1119.7</ele>
        <time>2025-09-27T09:50:50Z</time>
      </trkpt>
      <trkpt lat="43.73912" lon="6.92966">
        <ele>1119.6</ele>
        <time>2025-09-27T09:50:52Z</time>
      </trkpt>
      <trkpt lat="43.7391" lon="6.92959">
        <ele>1119.5</ele>
        <time>2025-09-27T09:50:54Z</time>
      </trkpt>
      <trkpt lat="43.73907" lon="6.92951">
        <ele>1119.4</ele>
        <time>2025-09-27T09:50:56Z</time>
      </trkpt>
      <trkpt lat="43.73903" lon="6.92945">
        <ele>1119.3</ele>
        <time>2025-09-27T09:50:58Z</time>
      </trkpt>
      <trkpt lat="43.73899" lon="6.9294">
        <ele>1119.2</ele>
        <time>2025-09-27T09:51:01Z</time>
      </trkpt>
      <trkpt lat="43.73893" lon="6.92937">
        <ele>1119.7</ele>
        <time>2025-09-27T09:51:04Z</time>
      </trkpt>
      <trkpt lat="43.73888" lon="6.92936">
        <ele>1120.2</ele>
        <time>2025-09-27T09:51:07Z</time>
      </trkpt>
      <trkpt lat="43.73883" lon="6.92935">
        <ele>1120.5</ele>
        <time>2025-09-27T09:51:10Z</time>
      </trkpt>
      <trkpt lat="43.73878" lon="6.92931">
        <ele>1121.1</ele>
        <time>2025-09-27T09:51:13Z</time>
      </trkpt>
      <trkpt lat="43.73874" lon="6.92924">
        <ele>1121.2</ele>
        <time>2025-09-27T09:51:16Z</time>
      </trkpt>
      <trkpt lat="43.73871" lon="6.92918">
        <ele>1121.4</ele>
        <time>2025-09-27T09:51:18Z</time>
      </trkpt>
      <trkpt lat="43.73869" lon="6.92912">
        <ele>1121.6</ele>
        <time>2025-09-27T09:51:20Z</time>
      </trkpt>
      <trkpt lat="43.73867" lon="6.92906">
        <ele>1121.7</ele>
        <time>2025-09-27T09:51:22Z</time>
      </trkpt>
      <trkpt lat="43.73865" lon="6.92898">
        <ele>1121.7</ele>
        <time>2025-09-27T09:51:24Z</time>
      </trkpt>
      <trkpt lat="43.73865" lon="6.92891">
        <ele>1121.6</ele>
        <time>2025-09-27T09:51:26Z</time>
      </trkpt>
      <trkpt lat="43.73866" lon="6.92883">
        <ele>1121.5</ele>
        <time>2025-09-27T09:51:28Z</time>
      </trkpt>
      <trkpt lat="43.73867" lon="6.92875">
        <ele>1121.3</ele>
        <time>2025-09-27T09:51:30Z</time>
      </trkpt>
      <trkpt lat="43.73865" lon="6.92866">
        <ele>1121.2</ele>
        <time>2025-09-27T09:51:32Z</time>
      </trkpt>
      <trkpt lat="43.73863" lon="6.92857">
        <ele>1121.2</ele>
        <time>2025-09-27T09:51:34Z</time>
      </trkpt>
      <trkpt lat="43.73861" lon="6.92848">
        <ele>1121</ele>
        <time>2025-09-27T09:51:36Z</time>
      </trkpt>
      <trkpt lat="43.73859" lon="6.92841">
        <ele>1121</ele>
        <time>2025-09-27T09:51:38Z</time>
      </trkpt>
      <trkpt lat="43.73856" lon="6.92832">
        <ele>1121.1</ele>
        <time>2025-09-27T09:51:40Z</time>
      </trkpt>
      <trkpt lat="43.73852" lon="6.92823">
        <ele>1121.1</ele>
        <time>2025-09-27T09:51:42Z</time>
      </trkpt>
      <trkpt lat="43.73847" lon="6.92815">
        <ele>1121.5</ele>
        <time>2025-09-27T09:51:44Z</time>
      </trkpt>
      <trkpt lat="43.73844" lon="6.92807">
        <ele>1121.5</ele>
        <time>2025-09-27T09:51:46Z</time>
      </trkpt>
      <trkpt lat="43.7384" lon="6.92798">
        <ele>1121.6</ele>
        <time>2025-09-27T09:51:48Z</time>
      </trkpt>
      <trkpt lat="43.73841" lon="6.9279">
        <ele>1121.3</ele>
        <time>2025-09-27T09:51:50Z</time>
      </trkpt>
      <trkpt lat="43.73842" lon="6.9278">
        <ele>1120.8</ele>
        <time>2025-09-27T09:51:52Z</time>
      </trkpt>
      <trkpt lat="43.73841" lon="6.9277">
        <ele>1120.7</ele>
        <time>2025-09-27T09:51:54Z</time>
      </trkpt>
      <trkpt lat="43.7384" lon="6.92759">
        <ele>1120.1</ele>
        <time>2025-09-27T09:51:56Z</time>
      </trkpt>
      <trkpt lat="43.73839" lon="6.92748">
        <ele>1120</ele>
        <time>2025-09-27T09:51:58Z</time>
      </trkpt>
      <trkpt lat="43.73838" lon="6.92736">
        <ele>1119.7</ele>
        <time>2025-09-27T09:52:00Z</time>
      </trkpt>
      <trkpt lat="43.73838" lon="6.92729">
        <ele>1119.4</ele>
        <time>2025-09-27T09:52:01Z</time>
      </trkpt>
      <trkpt lat="43.73838" lon="6.92722">
        <ele>1119.2</ele>
        <time>2025-09-27T09:52:02Z</time>
      </trkpt>
      <trkpt lat="43.73838" lon="6.92715">
        <ele>1119.1</ele>
        <time>2025-09-27T09:52:03Z</time>
      </trkpt>
      <trkpt lat="43.73839" lon="6.92708">
        <ele>1118.8</ele>
        <time>2025-09-27T09:52:04Z</time>
      </trkpt>
      <trkpt lat="43.7384" lon="6.92702">
        <ele>1118.5</ele>
        <time>2025-09-27T09:52:05Z</time>
      </trkpt>
      <trkpt lat="43.73841" lon="6.9269">
        <ele>1118</ele>
        <time>2025-09-27T09:52:07Z</time>
      </trkpt>
      <trkpt lat="43.73842" lon="6.92678">
        <ele>1117.4</ele>
        <time>2025-09-27T09:52:09Z</time>
      </trkpt>
      <trkpt lat="43.73844" lon="6.92667">
        <ele>1117</ele>
        <time>2025-09-27T09:52:11Z</time>
      </trkpt>
      <trkpt lat="43.73844" lon="6.92656">
        <ele>1117</ele>
        <time>2025-09-27T09:52:13Z</time>
      </trkpt>
      <trkpt lat="43.73845" lon="6.92647">
        <ele>1117.1</ele>
        <time>2025-09-27T09:52:15Z</time>
      </trkpt>
      <trkpt lat="43.73848" lon="6.92637">
        <ele>1117.1</ele>
        <time>2025-09-27T09:52:17Z</time>
      </trkpt>
      <trkpt lat="43.7385" lon="6.92627">
        <ele>1116.9</ele>
        <time>2025-09-27T09:52:19Z</time>
      </trkpt>
      <trkpt lat="43.73853" lon="6.92616">
        <ele>1116.5</ele>
        <time>2025-09-27T09:52:21Z</time>
      </trkpt>
      <trkpt lat="43.73855" lon="6.92609">
        <ele>1116.2</ele>
        <time>2025-09-27T09:52:22Z</time>
      </trkpt>
      <trkpt lat="43.73858" lon="6.92603">
        <ele>1115.9</ele>
        <time>2025-09-27T09:52:23Z</time>
      </trkpt>
      <trkpt lat="43.73861" lon="6.92598">
        <ele>1115.4</ele>
        <time>2025-09-27T09:52:24Z</time>
      </trkpt>
      <trkpt lat="43.73865" lon="6.92592">
        <ele>1114.9</ele>
        <time>2025-09-27T09:52:26Z</time>
      </trkpt>
      <trkpt lat="43.73867" lon="6.92584">
        <ele>1114.2</ele>
        <time>2025-09-27T09:52:28Z</time>
      </trkpt>
      <trkpt lat="43.73869" lon="6.92574">
        <ele>1113.4</ele>
        <time>2025-09-27T09:52:30Z</time>
      </trkpt>
      <trkpt lat="43.7387" lon="6.92568">
        <ele>1113</ele>
        <time>2025-09-27T09:52:31Z</time>
      </trkpt>
      <trkpt lat="43.73871" lon="6.92561">
        <ele>1112.6</ele>
        <time>2025-09-27T09:52:32Z</time>
      </trkpt>
      <trkpt lat="43.73873" lon="6.92555">
        <ele>1112.4</ele>
        <time>2025-09-27T09:52:33Z</time>
      </trkpt>
      <trkpt lat="43.73877" lon="6.92545">
        <ele>1112.1</ele>
        <time>2025-09-27T09:52:35Z</time>
      </trkpt>
      <trkpt lat="43.73876" lon="6.92535">
        <ele>1112.2</ele>
        <time>2025-09-27T09:52:37Z</time>
      </trkpt>
      <trkpt lat="43.73875" lon="6.92528">
        <ele>1112.4</ele>
        <time>2025-09-27T09:52:39Z</time>
      </trkpt>
      <trkpt lat="43.73873" lon="6.9252">
        <ele>1112.8</ele>
        <time>2025-09-27T09:52:42Z</time>
      </trkpt>
      <trkpt lat="43.73871" lon="6.92514">
        <ele>1113.2</ele>
        <time>2025-09-27T09:52:46Z</time>
      </trkpt>
      <trkpt lat="43.7387" lon="6.92505">
        <ele>1113.8</ele>
        <time>2025-09-27T09:52:50Z</time>
      </trkpt>
      <trkpt lat="43.73873" lon="6.92498">
        <ele>1114.4</ele>
        <time>2025-09-27T09:52:53Z</time>
      </trkpt>
      <trkpt lat="43.73874" lon="6.92489">
        <ele>1115</ele>
        <time>2025-09-27T09:52:56Z</time>
      </trkpt>
      <trkpt lat="43.73875" lon="6.92482">
        <ele>1115.5</ele>
        <time>2025-09-27T09:52:58Z</time>
      </trkpt>
      <trkpt lat="43.73875" lon="6.92475">
        <ele>1116.1</ele>
        <time>2025-09-27T09:53:00Z</time>
      </trkpt>
      <trkpt lat="43.73875" lon="6.92467">
        <ele>1116.8</ele>
        <time>2025-09-27T09:53:02Z</time>
      </trkpt>
      <trkpt lat="43.73874" lon="6.9246">
        <ele>1117.6</ele>
        <time>2025-09-27T09:53:05Z</time>
      </trkpt>
      <trkpt lat="43.73872" lon="6.92453">
        <ele>1118.3</ele>
        <time>2025-09-27T09:53:20Z</time>
      </trkpt>
      <trkpt lat="43.73874" lon="6.92446">
        <ele>1118.9</ele>
        <time>2025-09-27T09:53:29Z</time>
      </trkpt>
      <trkpt lat="43.73876" lon="6.9244">
        <ele>1119.3</ele>
        <time>2025-09-27T09:53:34Z</time>
      </trkpt>
      <trkpt lat="43.73877" lon="6.92434">
        <ele>1119.7</ele>
        <time>2025-09-27T09:53:39Z</time>
      </trkpt>
      <trkpt lat="43.7388" lon="6.92428">
        <ele>1120</ele>
        <time>2025-09-27T09:53:47Z</time>
      </trkpt>
      <trkpt lat="43.73883" lon="6.9242">
        <ele>1120.4</ele>
        <time>2025-09-27T09:53:50Z</time>
      </trkpt>
      <trkpt lat="43.73885" lon="6.92413">
        <ele>1120.7</ele>
        <time>2025-09-27T09:53:53Z</time>
      </trkpt>
      <trkpt lat="43.73887" lon="6.92405">
        <ele>1121</ele>
        <time>2025-09-27T09:53:56Z</time>
      </trkpt>
      <trkpt lat="43.7389" lon="6.92397">
        <ele>1121.1</ele>
        <time>2025-09-27T09:53:59Z</time>
      </trkpt>
      <trkpt lat="43.73892" lon="6.92391">
        <ele>1121.2</ele>
        <time>2025-09-27T09:54:01Z</time>
      </trkpt>
      <trkpt lat="43.73894" lon="6.92383">
        <ele>1121.3</ele>
        <time>2025-09-27T09:54:04Z</time>
      </trkpt>
      <trkpt lat="43.73895" lon="6.92376">
        <ele>1121.3</ele>
        <time>2025-09-27T09:54:06Z</time>
      </trkpt>
      <trkpt lat="43.73896" lon="6.92368">
        <ele>1121.2</ele>
        <time>2025-09-27T09:54:08Z</time>
      </trkpt>
      <trkpt lat="43.73897" lon="6.92361">
        <ele>1121.2</ele>
        <time>2025-09-27T09:54:10Z</time>
      </trkpt>
      <trkpt lat="43.73897" lon="6.92353">
        <ele>1121.3</ele>
        <time>2025-09-27T09:54:12Z</time>
      </trkpt>
      <trkpt lat="43.73897" lon="6.92345">
        <ele>1121.4</ele>
        <time>2025-09-27T09:54:14Z</time>
      </trkpt>
      <trkpt lat="43.73896" lon="6.92336">
        <ele>1121.4</ele>
        <time>2025-09-27T09:54:16Z</time>
      </trkpt>
      <trkpt lat="43.73896" lon="6.92328">
        <ele>1121.4</ele>
        <time>2025-09-27T09:54:18Z</time>
      </trkpt>
      <trkpt lat="43.73896" lon="6.9232">
        <ele>1121.3</ele>
        <time>2025-09-27T09:54:20Z</time>
      </trkpt>
      <trkpt lat="43.73899" lon="6.92312">
        <ele>1121.2</ele>
        <time>2025-09-27T09:54:22Z</time>
      </trkpt>
      <trkpt lat="43.73901" lon="6.92303">
        <ele>1121.1</ele>
        <time>2025-09-27T09:54:24Z</time>
      </trkpt>
      <trkpt lat="43.73901" lon="6.92294">
        <ele>1120.9</ele>
        <time>2025-09-27T09:54:26Z</time>
      </trkpt>
      <trkpt lat="43.73898" lon="6.92286">
        <ele>1120.8</ele>
        <time>2025-09-27T09:54:28Z</time>
      </trkpt>
      <trkpt lat="43.73897" lon="6.92276">
        <ele>1120.7</ele>
        <time>2025-09-27T09:54:30Z</time>
      </trkpt>
      <trkpt lat="43.73896" lon="6.92265">
        <ele>1120.6</ele>
        <time>2025-09-27T09:54:32Z</time>
      </trkpt>
      <trkpt lat="43.73896" lon="6.92252">
        <ele>1120.2</ele>
        <time>2025-09-27T09:54:34Z</time>
      </trkpt>
      <trkpt lat="43.73896" lon="6.92245">
        <ele>1120</ele>
        <time>2025-09-27T09:54:35Z</time>
      </trkpt>
      <trkpt lat="43.73896" lon="6.92238">
        <ele>1119.9</ele>
        <time>2025-09-27T09:54:36Z</time>
      </trkpt>
      <trkpt lat="43.73896" lon="6.92231">
        <ele>1119.7</ele>
        <time>2025-09-27T09:54:37Z</time>
      </trkpt>
      <trkpt lat="43.73896" lon="6.92224">
        <ele>1119.5</ele>
        <time>2025-09-27T09:54:38Z</time>
      </trkpt>
      <trkpt lat="43.73896" lon="6.92217">
        <ele>1119.4</ele>
        <time>2025-09-27T09:54:39Z</time>
      </trkpt>
      <trkpt lat="43.73895" lon="6.9221">
        <ele>1119.3</ele>
        <time>2025-09-27T09:54:40Z</time>
      </trkpt>
      <trkpt lat="43.73894" lon="6.92204">
        <ele>1119.2</ele>
        <time>2025-09-27T09:54:41Z</time>
      </trkpt>
      <trkpt lat="43.73893" lon="6.92192">
        <ele>1119.1</ele>
        <time>2025-09-27T09:54:43Z</time>
      </trkpt>
      <trkpt lat="43.73891" lon="6.92179">
        <ele>1119.1</ele>
        <time>2025-09-27T09:54:45Z</time>
      </trkpt>
      <trkpt lat="43.7389" lon="6.92172">
        <ele>1119</ele>
        <time>2025-09-27T09:54:46Z</time>
      </trkpt>
      <trkpt lat="43.7389" lon="6.92166">
        <ele>1118.9</ele>
        <time>2025-09-27T09:54:47Z</time>
      </trkpt>
      <trkpt lat="43.7389" lon="6.92159">
        <ele>1118.7</ele>
        <time>2025-09-27T09:54:48Z</time>
      </trkpt>
      <trkpt lat="43.7389" lon="6.92152">
        <ele>1118.5</ele>
        <time>2025-09-27T09:54:49Z</time>
      </trkpt>
      <trkpt lat="43.7389" lon="6.92145">
        <ele>1118.4</ele>
        <time>2025-09-27T09:54:50Z</time>
      </trkpt>
      <trkpt lat="43.7389" lon="6.92138">
        <ele>1118.2</ele>
        <time>2025-09-27T09:54:51Z</time>
      </trkpt>
      <trkpt lat="43.7389" lon="6.92132">
        <ele>1118</ele>
        <time>2025-09-27T09:54:52Z</time>
      </trkpt>
      <trkpt lat="43.7389" lon="6.92125">
        <ele>1117.8</ele>
        <time>2025-09-27T09:54:53Z</time>
      </trkpt>
      <trkpt lat="43.73891" lon="6.92118">
        <ele>1117.6</ele>
        <time>2025-09-27T09:54:54Z</time>
      </trkpt>
      <trkpt lat="43.73892" lon="6.92112">
        <ele>1117.5</ele>
        <time>2025-09-27T09:54:55Z</time>
      </trkpt>
      <trkpt lat="43.73892" lon="6.92105">
        <ele>1117.3</ele>
        <time>2025-09-27T09:54:56Z</time>
      </trkpt>
      <trkpt lat="43.73891" lon="6.92098">
        <ele>1117.2</ele>
        <time>2025-09-27T09:54:57Z</time>
      </trkpt>
      <trkpt lat="43.73889" lon="6.92086">
        <ele>1117.1</ele>
        <time>2025-09-27T09:54:59Z</time>
      </trkpt>
      <trkpt lat="43.73889" lon="6.92074">
        <ele>1116.9</ele>
        <time>2025-09-27T09:55:01Z</time>
      </trkpt>
      <trkpt lat="43.73887" lon="6.92062">
        <ele>1116.8</ele>
        <time>2025-09-27T09:55:03Z</time>
      </trkpt>
      <trkpt lat="43.73887" lon="6.92056">
        <ele>1116.8</ele>
        <time>2025-09-27T09:55:04Z</time>
      </trkpt>
      <trkpt lat="43.73888" lon="6.92049">
        <ele>1116.7</ele>
        <time>2025-09-27T09:55:05Z</time>
      </trkpt>
      <trkpt lat="43.73888" lon="6.92042">
        <ele>1116.7</ele>
        <time>2025-09-27T09:55:06Z</time>
      </trkpt>
      <trkpt lat="43.73888" lon="6.92035">
        <ele>1116.7</ele>
        <time>2025-09-27T09:55:07Z</time>
      </trkpt>
      <trkpt lat="43.73888" lon="6.92027">
        <ele>1116.7</ele>
        <time>2025-09-27T09:55:08Z</time>
      </trkpt>
      <trkpt lat="43.73886" lon="6.9202">
        <ele>1116.8</ele>
        <time>2025-09-27T09:55:09Z</time>
      </trkpt>
      <trkpt lat="43.73884" lon="6.92013">
        <ele>1116.9</ele>
        <time>2025-09-27T09:55:10Z</time>
      </trkpt>
      <trkpt lat="43.73883" lon="6.92007">
        <ele>1117</ele>
        <time>2025-09-27T09:55:11Z</time>
      </trkpt>
      <trkpt lat="43.73882" lon="6.91995">
        <ele>1117.1</ele>
        <time>2025-09-27T09:55:13Z</time>
      </trkpt>
      <trkpt lat="43.73884" lon="6.91985">
        <ele>1117</ele>
        <time>2025-09-27T09:55:15Z</time>
      </trkpt>
      <trkpt lat="43.73886" lon="6.91979">
        <ele>1116.9</ele>
        <time>2025-09-27T09:55:16Z</time>
      </trkpt>
      <trkpt lat="43.73888" lon="6.91973">
        <ele>1116.7</ele>
        <time>2025-09-27T09:55:17Z</time>
      </trkpt>
      <trkpt lat="43.7389" lon="6.91966">
        <ele>1116.5</ele>
        <time>2025-09-27T09:55:18Z</time>
      </trkpt>
      <trkpt lat="43.73891" lon="6.91959">
        <ele>1116.2</ele>
        <time>2025-09-27T09:55:19Z</time>
      </trkpt>
      <trkpt lat="43.73892" lon="6.91952">
        <ele>1116.1</ele>
        <time>2025-09-27T09:55:20Z</time>
      </trkpt>
      <trkpt lat="43.73892" lon="6.91945">
        <ele>1115.9</ele>
        <time>2025-09-27T09:55:21Z</time>
      </trkpt>
      <trkpt lat="43.73892" lon="6.91939">
        <ele>1115.8</ele>
        <time>2025-09-27T09:55:22Z</time>
      </trkpt>
      <trkpt lat="43.73892" lon="6.91932">
        <ele>1115.8</ele>
        <time>2025-09-27T09:55:23Z</time>
      </trkpt>
      <trkpt lat="43.73892" lon="6.91926">
        <ele>1115.7</ele>
        <time>2025-09-27T09:55:24Z</time>
      </trkpt>
      <trkpt lat="43.73892" lon="6.91919">
        <ele>1115.7</ele>
        <time>2025-09-27T09:55:25Z</time>
      </trkpt>
      <trkpt lat="43.73892" lon="6.91913">
        <ele>1115.6</ele>
        <time>2025-09-27T09:55:26Z</time>
      </trkpt>
      <trkpt lat="43.73895" lon="6.91901">
        <ele>1115.5</ele>
        <time>2025-09-27T09:55:28Z</time>
      </trkpt>
      <trkpt lat="43.73898" lon="6.9189">
        <ele>1115.3</ele>
        <time>2025-09-27T09:55:30Z</time>
      </trkpt>
      <trkpt lat="43.73898" lon="6.91879">
        <ele>1115</ele>
        <time>2025-09-27T09:55:32Z</time>
      </trkpt>
      <trkpt lat="43.73897" lon="6.91869">
        <ele>1114.8</ele>
        <time>2025-09-27T09:55:34Z</time>
      </trkpt>
      <trkpt lat="43.73898" lon="6.91856">
        <ele>1114.3</ele>
        <time>2025-09-27T09:55:36Z</time>
      </trkpt>
      <trkpt lat="43.73898" lon="6.91848">
        <ele>1114.1</ele>
        <time>2025-09-27T09:55:37Z</time>
      </trkpt>
      <trkpt lat="43.73897" lon="6.91839">
        <ele>1113.8</ele>
        <time>2025-09-27T09:55:38Z</time>
      </trkpt>
      <trkpt lat="43.73896" lon="6.91831">
        <ele>1113.8</ele>
        <time>2025-09-27T09:55:39Z</time>
      </trkpt>
      <trkpt lat="43.73895" lon="6.91823">
        <ele>1113.9</ele>
        <time>2025-09-27T09:55:40Z</time>
      </trkpt>
      <trkpt lat="43.73894" lon="6.91817">
        <ele>1114.1</ele>
        <time>2025-09-27T09:55:41Z</time>
      </trkpt>
      <trkpt lat="43.7389" lon="6.91808">
        <ele>1114.5</ele>
        <time>2025-09-27T09:55:43Z</time>
      </trkpt>
      <trkpt lat="43.73887" lon="6.918">
        <ele>1114.8</ele>
        <time>2025-09-27T09:55:45Z</time>
      </trkpt>
      <trkpt lat="43.73885" lon="6.91791">
        <ele>1115.1</ele>
        <time>2025-09-27T09:55:47Z</time>
      </trkpt>
      <trkpt lat="43.73883" lon="6.91781">
        <ele>1115.3</ele>
        <time>2025-09-27T09:55:49Z</time>
      </trkpt>
      <trkpt lat="43.7388" lon="6.9177">
        <ele>1115.5</ele>
        <time>2025-09-27T09:55:51Z</time>
      </trkpt>
      <trkpt lat="43.73878" lon="6.91759">
        <ele>1115.7</ele>
        <time>2025-09-27T09:55:53Z</time>
      </trkpt>
      <trkpt lat="43.73876" lon="6.91747">
        <ele>1115.7</ele>
        <time>2025-09-27T09:55:55Z</time>
      </trkpt>
      <trkpt lat="43.73876" lon="6.91735">
        <ele>1115.6</ele>
        <time>2025-09-27T09:55:57Z</time>
      </trkpt>
      <trkpt lat="43.73877" lon="6.91728">
        <ele>1115.5</ele>
        <time>2025-09-27T09:55:58Z</time>
      </trkpt>
      <trkpt lat="43.73877" lon="6.91721">
        <ele>1115.3</ele>
        <time>2025-09-27T09:55:59Z</time>
      </trkpt>
      <trkpt lat="43.73878" lon="6.91714">
        <ele>1115</ele>
        <time>2025-09-27T09:56:00Z</time>
      </trkpt>
      <trkpt lat="43.73879" lon="6.91707">
        <ele>1114.7</ele>
        <time>2025-09-27T09:56:01Z</time>
      </trkpt>
      <trkpt lat="43.73881" lon="6.91699">
        <ele>1114.3</ele>
        <time>2025-09-27T09:56:02Z</time>
      </trkpt>
      <trkpt lat="43.73882" lon="6.9169">
        <ele>1113.9</ele>
        <time>2025-09-27T09:56:03Z</time>
      </trkpt>
      <trkpt lat="43.73884" lon="6.91681">
        <ele>1113.5</ele>
        <time>2025-09-27T09:56:04Z</time>
      </trkpt>
      <trkpt lat="43.73885" lon="6.91672">
        <ele>1113.2</ele>
        <time>2025-09-27T09:56:05Z</time>
      </trkpt>
      <trkpt lat="43.73885" lon="6.91664">
        <ele>1113.1</ele>
        <time>2025-09-27T09:56:06Z</time>
      </trkpt>
      <trkpt lat="43.73883" lon="6.91656">
        <ele>1113.2</ele>
        <time>2025-09-27T09:56:07Z</time>
      </trkpt>
      <trkpt lat="43.73882" lon="6.91649">
        <ele>1113.2</ele>
        <time>2025-09-27T09:56:08Z</time>
      </trkpt>
      <trkpt lat="43.7388" lon="6.91643">
        <ele>1113.3</ele>
        <time>2025-09-27T09:56:09Z</time>
      </trkpt>
      <trkpt lat="43.73879" lon="6.91636">
        <ele>1113.4</ele>
        <time>2025-09-27T09:56:10Z</time>
      </trkpt>
      <trkpt lat="43.73878" lon="6.9163">
        <ele>1113.5</ele>
        <time>2025-09-27T09:56:11Z</time>
      </trkpt>
      <trkpt lat="43.73877" lon="6.91623">
        <ele>1113.5</ele>
        <time>2025-09-27T09:56:12Z</time>
      </trkpt>
      <trkpt lat="43.73877" lon="6.91616">
        <ele>1113.6</ele>
        <time>2025-09-27T09:56:13Z</time>
      </trkpt>
      <trkpt lat="43.73876" lon="6.91609">
        <ele>1113.7</ele>
        <time>2025-09-27T09:56:14Z</time>
      </trkpt>
      <trkpt lat="43.73876" lon="6.91602">
        <ele>1113.7</ele>
        <time>2025-09-27T09:56:15Z</time>
      </trkpt>
      <trkpt lat="43.73875" lon="6.91595">
        <ele>1113.7</ele>
        <time>2025-09-27T09:56:16Z</time>
      </trkpt>
      <trkpt lat="43.73875" lon="6.91589">
        <ele>1113.7</ele>
        <time>2025-09-27T09:56:17Z</time>
      </trkpt>
      <trkpt lat="43.73874" lon="6.91582">
        <ele>1113.6</ele>
        <time>2025-09-27T09:56:18Z</time>
      </trkpt>
      <trkpt lat="43.73874" lon="6.91576">
        <ele>1113.5</ele>
        <time>2025-09-27T09:56:19Z</time>
      </trkpt>
      <trkpt lat="43.73874" lon="6.91569">
        <ele>1113.3</ele>
        <time>2025-09-27T09:56:20Z</time>
      </trkpt>
      <trkpt lat="43.73875" lon="6.91563">
        <ele>1113.1</ele>
        <time>2025-09-27T09:56:21Z</time>
      </trkpt>
      <trkpt lat="43.73876" lon="6.91555">
        <ele>1112.7</ele>
        <time>2025-09-27T09:56:22Z</time>
      </trkpt>
      <trkpt lat="43.73877" lon="6.91547">
        <ele>1112.3</ele>
        <time>2025-09-27T09:56:23Z</time>
      </trkpt>
      <trkpt lat="43.73878" lon="6.91539">
        <ele>1111.8</ele>
        <time>2025-09-27T09:56:24Z</time>
      </trkpt>
      <trkpt lat="43.73878" lon="6.9153">
        <ele>1111.4</ele>
        <time>2025-09-27T09:56:25Z</time>
      </trkpt>
      <trkpt lat="43.73878" lon="6.91521">
        <ele>1110.9</ele>
        <time>2025-09-27T09:56:26Z</time>
      </trkpt>
      <trkpt lat="43.73876" lon="6.91512">
        <ele>1110.5</ele>
        <time>2025-09-27T09:56:27Z</time>
      </trkpt>
      <trkpt lat="43.73874" lon="6.91504">
        <ele>1110.3</ele>
        <time>2025-09-27T09:56:28Z</time>
      </trkpt>
      <trkpt lat="43.73872" lon="6.91497">
        <ele>1110.3</ele>
        <time>2025-09-27T09:56:29Z</time>
      </trkpt>
      <trkpt lat="43.73871" lon="6.9149">
        <ele>1110.5</ele>
        <time>2025-09-27T09:56:30Z</time>
      </trkpt>
      <trkpt lat="43.73871" lon="6.91479">
        <ele>1110.8</ele>
        <time>2025-09-27T09:56:32Z</time>
      </trkpt>
      <trkpt lat="43.73871" lon="6.91468">
        <ele>1111.1</ele>
        <time>2025-09-27T09:56:34Z</time>
      </trkpt>
      <trkpt lat="43.73869" lon="6.91459">
        <ele>1111.4</ele>
        <time>2025-09-27T09:56:36Z</time>
      </trkpt>
      <trkpt lat="43.73867" lon="6.91449">
        <ele>1111.6</ele>
        <time>2025-09-27T09:56:38Z</time>
      </trkpt>
      <trkpt lat="43.73863" lon="6.91441">
        <ele>1111.7</ele>
        <time>2025-09-27T09:56:40Z</time>
      </trkpt>
      <trkpt lat="43.73858" lon="6.91433">
        <ele>1111.8</ele>
        <time>2025-09-27T09:56:42Z</time>
      </trkpt>
      <trkpt lat="43.73854" lon="6.91424">
        <ele>1112</ele>
        <time>2025-09-27T09:56:44Z</time>
      </trkpt>
      <trkpt lat="43.73851" lon="6.91417">
        <ele>1112.2</ele>
        <time>2025-09-27T09:56:46Z</time>
      </trkpt>
      <trkpt lat="43.73848" lon="6.91409">
        <ele>1112.4</ele>
        <time>2025-09-27T09:56:48Z</time>
      </trkpt>
      <trkpt lat="43.73847" lon="6.91402">
        <ele>1112.6</ele>
        <time>2025-09-27T09:56:50Z</time>
      </trkpt>
      <trkpt lat="43.73846" lon="6.91395">
        <ele>1112.7</ele>
        <time>2025-09-27T09:56:52Z</time>
      </trkpt>
      <trkpt lat="43.73843" lon="6.91387">
        <ele>1112.9</ele>
        <time>2025-09-27T09:56:54Z</time>
      </trkpt>
      <trkpt lat="43.7384" lon="6.91379">
        <ele>1113</ele>
        <time>2025-09-27T09:56:56Z</time>
      </trkpt>
      <trkpt lat="43.73837" lon="6.91372">
        <ele>1113.2</ele>
        <time>2025-09-27T09:56:58Z</time>
      </trkpt>
      <trkpt lat="43.73834" lon="6.91366">
        <ele>1113.3</ele>
        <time>2025-09-27T09:57:00Z</time>
      </trkpt>
      <trkpt lat="43.73832" lon="6.91358">
        <ele>1113.4</ele>
        <time>2025-09-27T09:57:02Z</time>
      </trkpt>
      <trkpt lat="43.7383" lon="6.9135">
        <ele>1113.5</ele>
        <time>2025-09-27T09:57:04Z</time>
      </trkpt>
      <trkpt lat="43.73829" lon="6.91341">
        <ele>1113.6</ele>
        <time>2025-09-27T09:57:06Z</time>
      </trkpt>
      <trkpt lat="43.73828" lon="6.91332">
        <ele>1113.6</ele>
        <time>2025-09-27T09:57:08Z</time>
      </trkpt>
      <trkpt lat="43.7383" lon="6.91323">
        <ele>1113.5</ele>
        <time>2025-09-27T09:57:10Z</time>
      </trkpt>
      <trkpt lat="43.7383" lon="6.91312">
        <ele>1113.4</ele>
        <time>2025-09-27T09:57:12Z</time>
      </trkpt>
      <trkpt lat="43.73831" lon="6.91302">
        <ele>1113.2</ele>
        <time>2025-09-27T09:57:14Z</time>
      </trkpt>
      <trkpt lat="43.73831" lon="6.91292">
        <ele>1113</ele>
        <time>2025-09-27T09:57:16Z</time>
      </trkpt>
      <trkpt lat="43.73831" lon="6.91279">
        <ele>1112.7</ele>
        <time>2025-09-27T09:57:18Z</time>
      </trkpt>
      <trkpt lat="43.73831" lon="6.91268">
        <ele>1112.5</ele>
        <time>2025-09-27T09:57:20Z</time>
      </trkpt>
      <trkpt lat="43.7383" lon="6.91258">
        <ele>1112.3</ele>
        <time>2025-09-27T09:57:22Z</time>
      </trkpt>
      <trkpt lat="43.73828" lon="6.91249">
        <ele>1112.6</ele>
        <time>2025-09-27T09:57:24Z</time>
      </trkpt>
      <trkpt lat="43.73828" lon="6.9124">
        <ele>1113.5</ele>
        <time>2025-09-27T09:57:26Z</time>
      </trkpt>
      <trkpt lat="43.73827" lon="6.91232">
        <ele>1114.3</ele>
        <time>2025-09-27T09:57:28Z</time>
      </trkpt>
      <trkpt lat="43.73827" lon="6.91224">
        <ele>1115</ele>
        <time>2025-09-27T09:57:30Z</time>
      </trkpt>
      <trkpt lat="43.73826" lon="6.91217">
        <ele>1115.7</ele>
        <time>2025-09-27T09:57:32Z</time>
      </trkpt>
      <trkpt lat="43.7383" lon="6.91219">
        <ele>1115</ele>
        <time>2025-09-27T09:58:54Z</time>
      </trkpt>
      <trkpt lat="43.73835" lon="6.91217">
        <ele>1114.2</ele>
        <time>2025-09-27T10:02:01Z</time>
      </trkpt>
      <trkpt lat="43.73838" lon="6.91209">
        <ele>1113.1</ele>
        <time>2025-09-27T10:02:04Z</time>
      </trkpt>
      <trkpt lat="43.7384" lon="6.91199">
        <ele>1111.6</ele>
        <time>2025-09-27T10:02:06Z</time>
      </trkpt>
      <trkpt lat="43.73841" lon="6.91188">
        <ele>1110.2</ele>
        <time>2025-09-27T10:02:08Z</time>
      </trkpt>
      <trkpt lat="43.73841" lon="6.91179">
        <ele>1109.3</ele>
        <time>2025-09-27T10:02:10Z</time>
      </trkpt>
      <trkpt lat="43.73846" lon="6.91181">
        <ele>1108.6</ele>
        <time>2025-09-27T10:02:43Z</time>
      </trkpt>
      <trkpt lat="43.73852" lon="6.91181">
        <ele>1106.7</ele>
        <time>2025-09-27T10:02:45Z</time>
      </trkpt>
      <trkpt lat="43.73856" lon="6.91178">
        <ele>1106</ele>
        <time>2025-09-27T10:02:47Z</time>
      </trkpt>
      <trkpt lat="43.7386" lon="6.91175">
        <ele>1105.1</ele>
        <time>2025-09-27T10:02:49Z</time>
      </trkpt>
      <trkpt lat="43.73866" lon="6.91172">
        <ele>1103.9</ele>
        <time>2025-09-27T10:02:51Z</time>
      </trkpt>
      <trkpt lat="43.73872" lon="6.9117">
        <ele>1102.3</ele>
        <time>2025-09-27T10:02:54Z</time>
      </trkpt>
      <trkpt lat="43.73875" lon="6.91163">
        <ele>1100.8</ele>
        <time>2025-09-27T10:02:58Z</time>
      </trkpt>
      <trkpt lat="43.73877" lon="6.91157">
        <ele>1099.5</ele>
        <time>2025-09-27T10:03:00Z</time>
      </trkpt>
      <trkpt lat="43.7388" lon="6.91153">
        <ele>1098.4</ele>
        <time>2025-09-27T10:03:02Z</time>
      </trkpt>
      <trkpt lat="43.73886" lon="6.91151">
        <ele>1097</ele>
        <time>2025-09-27T10:03:04Z</time>
      </trkpt>
      <trkpt lat="43.7389" lon="6.91145">
        <ele>1095.9</ele>
        <time>2025-09-27T10:03:06Z</time>
      </trkpt>
      <trkpt lat="43.73889" lon="6.91136">
        <ele>1094.6</ele>
        <time>2025-09-27T10:03:08Z</time>
      </trkpt>
      <trkpt lat="43.73891" lon="6.91128">
        <ele>1093.6</ele>
        <time>2025-09-27T10:03:10Z</time>
      </trkpt>
      <trkpt lat="43.73896" lon="6.91127">
        <ele>1093</ele>
        <time>2025-09-27T10:03:12Z</time>
      </trkpt>
      <trkpt lat="43.73904" lon="6.91127">
        <ele>1092.3</ele>
        <time>2025-09-27T10:03:14Z</time>
      </trkpt>
      <trkpt lat="43.73912" lon="6.91129">
        <ele>1091.7</ele>
        <time>2025-09-27T10:03:16Z</time>
      </trkpt>
      <trkpt lat="43.73917" lon="6.91129">
        <ele>1091.5</ele>
        <time>2025-09-27T10:03:17Z</time>
      </trkpt>
      <trkpt lat="43.73922" lon="6.91127">
        <ele>1091.2</ele>
        <time>2025-09-27T10:03:18Z</time>
      </trkpt>
      <trkpt lat="43.73928" lon="6.91123">
        <ele>1090.8</ele>
        <time>2025-09-27T10:03:19Z</time>
      </trkpt>
      <trkpt lat="43.73934" lon="6.9112">
        <ele>1090.3</ele>
        <time>2025-09-27T10:03:20Z</time>
      </trkpt>
      <trkpt lat="43.7394" lon="6.91117">
        <ele>1090</ele>
        <time>2025-09-27T10:03:21Z</time>
      </trkpt>
      <trkpt lat="43.73945" lon="6.91116">
        <ele>1089.7</ele>
        <time>2025-09-27T10:03:22Z</time>
      </trkpt>
      <trkpt lat="43.73952" lon="6.91113">
        <ele>1089.4</ele>
        <time>2025-09-27T10:03:24Z</time>
      </trkpt>
      <trkpt lat="43.73957" lon="6.91108">
        <ele>1088.8</ele>
        <time>2025-09-27T10:03:26Z</time>
      </trkpt>
      <trkpt lat="43.73962" lon="6.91101">
        <ele>1088.5</ele>
        <time>2025-09-27T10:03:28Z</time>
      </trkpt>
      <trkpt lat="43.73966" lon="6.91097">
        <ele>1088.2</ele>
        <time>2025-09-27T10:03:30Z</time>
      </trkpt>
      <trkpt lat="43.73971" lon="6.91093">
        <ele>1087.7</ele>
        <time>2025-09-27T10:03:32Z</time>
      </trkpt>
      <trkpt lat="43.7398" lon="6.91092">
        <ele>1087</ele>
        <time>2025-09-27T10:03:34Z</time>
      </trkpt>
      <trkpt lat="43.73984" lon="6.91092">
        <ele>1086.8</ele>
        <time>2025-09-27T10:03:35Z</time>
      </trkpt>
      <trkpt lat="43.73989" lon="6.91091">
        <ele>1086.3</ele>
        <time>2025-09-27T10:03:36Z</time>
      </trkpt>
      <trkpt lat="43.73993" lon="6.9109">
        <ele>1086</ele>
        <time>2025-09-27T10:03:37Z</time>
      </trkpt>
      <trkpt lat="43.73998" lon="6.91089">
        <ele>1085.5</ele>
        <time>2025-09-27T10:03:38Z</time>
      </trkpt>
      <trkpt lat="43.74003" lon="6.91088">
        <ele>1085.2</ele>
        <time>2025-09-27T10:03:39Z</time>
      </trkpt>
      <trkpt lat="43.74007" lon="6.91087">
        <ele>1084.6</ele>
        <time>2025-09-27T10:03:40Z</time>
      </trkpt>
      <trkpt lat="43.74012" lon="6.91085">
        <ele>1084.3</ele>
        <time>2025-09-27T10:03:41Z</time>
      </trkpt>
      <trkpt lat="43.74017" lon="6.91083">
        <ele>1083.8</ele>
        <time>2025-09-27T10:03:42Z</time>
      </trkpt>
      <trkpt lat="43.74021" lon="6.91081">
        <ele>1083.4</ele>
        <time>2025-09-27T10:03:43Z</time>
      </trkpt>
      <trkpt lat="43.74025" lon="6.91078">
        <ele>1082.8</ele>
        <time>2025-09-27T10:03:44Z</time>
      </trkpt>
      <trkpt lat="43.74029" lon="6.91074">
        <ele>1082.5</ele>
        <time>2025-09-27T10:03:45Z</time>
      </trkpt>
      <trkpt lat="43.74034" lon="6.91072">
        <ele>1082.2</ele>
        <time>2025-09-27T10:03:46Z</time>
      </trkpt>
      <trkpt lat="43.74039" lon="6.91068">
        <ele>1081.7</ele>
        <time>2025-09-27T10:03:47Z</time>
      </trkpt>
      <trkpt lat="43.74043" lon="6.91064">
        <ele>1081.5</ele>
        <time>2025-09-27T10:03:48Z</time>
      </trkpt>
      <trkpt lat="43.74046" lon="6.91058">
        <ele>1081.2</ele>
        <time>2025-09-27T10:03:49Z</time>
      </trkpt>
      <trkpt lat="43.74049" lon="6.91053">
        <ele>1081</ele>
        <time>2025-09-27T10:03:50Z</time>
      </trkpt>
      <trkpt lat="43.74052" lon="6.91048">
        <ele>1080.7</ele>
        <time>2025-09-27T10:03:51Z</time>
      </trkpt>
      <trkpt lat="43.74055" lon="6.91041">
        <ele>1080.4</ele>
        <time>2025-09-27T10:03:52Z</time>
      </trkpt>
      <trkpt lat="43.74057" lon="6.91035">
        <ele>1080.2</ele>
        <time>2025-09-27T10:03:53Z</time>
      </trkpt>
      <trkpt lat="43.74058" lon="6.91025">
        <ele>1080.2</ele>
        <time>2025-09-27T10:03:55Z</time>
      </trkpt>
      <trkpt lat="43.74058" lon="6.91018">
        <ele>1080.2</ele>
        <time>2025-09-27T10:03:57Z</time>
      </trkpt>
      <trkpt lat="43.74059" lon="6.9101">
        <ele>1079.9</ele>
        <time>2025-09-27T10:04:00Z</time>
      </trkpt>
      <trkpt lat="43.74059" lon="6.91003">
        <ele>1079.9</ele>
        <time>2025-09-27T10:04:03Z</time>
      </trkpt>
      <trkpt lat="43.74057" lon="6.90994">
        <ele>1080.1</ele>
        <time>2025-09-27T10:04:06Z</time>
      </trkpt>
      <trkpt lat="43.74055" lon="6.90986">
        <ele>1080.4</ele>
        <time>2025-09-27T10:04:08Z</time>
      </trkpt>
      <trkpt lat="43.74054" lon="6.90978">
        <ele>1080.3</ele>
        <time>2025-09-27T10:04:10Z</time>
      </trkpt>
      <trkpt lat="43.74051" lon="6.90969">
        <ele>1080.6</ele>
        <time>2025-09-27T10:04:12Z</time>
      </trkpt>
      <trkpt lat="43.74049" lon="6.9096">
        <ele>1080.8</ele>
        <time>2025-09-27T10:04:14Z</time>
      </trkpt>
      <trkpt lat="43.74047" lon="6.90952">
        <ele>1081</ele>
        <time>2025-09-27T10:04:16Z</time>
      </trkpt>
      <trkpt lat="43.74044" lon="6.90944">
        <ele>1081</ele>
        <time>2025-09-27T10:04:18Z</time>
      </trkpt>
      <trkpt lat="43.74042" lon="6.90936">
        <ele>1081.2</ele>
        <time>2025-09-27T10:04:20Z</time>
      </trkpt>
      <trkpt lat="43.7404" lon="6.90929">
        <ele>1081.4</ele>
        <time>2025-09-27T10:04:22Z</time>
      </trkpt>
      <trkpt lat="43.74037" lon="6.90921">
        <ele>1081.6</ele>
        <time>2025-09-27T10:04:24Z</time>
      </trkpt>
      <trkpt lat="43.74035" lon="6.90914">
        <ele>1081.6</ele>
        <time>2025-09-27T10:04:26Z</time>
      </trkpt>
      <trkpt lat="43.74034" lon="6.90908">
        <ele>1081.7</ele>
        <time>2025-09-27T10:04:28Z</time>
      </trkpt>
      <trkpt lat="43.74032" lon="6.90901">
        <ele>1081.7</ele>
        <time>2025-09-27T10:04:31Z</time>
      </trkpt>
      <trkpt lat="43.74029" lon="6.90894">
        <ele>1081.8</ele>
        <time>2025-09-27T10:04:35Z</time>
      </trkpt>
      <trkpt lat="43.74028" lon="6.90886">
        <ele>1081.9</ele>
        <time>2025-09-27T10:04:38Z</time>
      </trkpt>
      <trkpt lat="43.74026" lon="6.90878">
        <ele>1081.8</ele>
        <time>2025-09-27T10:04:41Z</time>
      </trkpt>
      <trkpt lat="43.74026" lon="6.9087">
        <ele>1081.6</ele>
        <time>2025-09-27T10:04:44Z</time>
      </trkpt>
      <trkpt lat="43.74025" lon="6.90861">
        <ele>1081.6</ele>
        <time>2025-09-27T10:04:47Z</time>
      </trkpt>
      <trkpt lat="43.74024" lon="6.90854">
        <ele>1081.4</ele>
        <time>2025-09-27T10:04:49Z</time>
      </trkpt>
      <trkpt lat="43.74023" lon="6.90848">
        <ele>1081.3</ele>
        <time>2025-09-27T10:04:51Z</time>
      </trkpt>
      <trkpt lat="43.74022" lon="6.90841">
        <ele>1081.4</ele>
        <time>2025-09-27T10:04:53Z</time>
      </trkpt>
      <trkpt lat="43.74021" lon="6.90834">
        <ele>1081.3</ele>
        <time>2025-09-27T10:04:55Z</time>
      </trkpt>
      <trkpt lat="43.74019" lon="6.90826">
        <ele>1081.2</ele>
        <time>2025-09-27T10:04:57Z</time>
      </trkpt>
      <trkpt lat="43.74018" lon="6.90818">
        <ele>1081.3</ele>
        <time>2025-09-27T10:04:59Z</time>
      </trkpt>
      <trkpt lat="43.74017" lon="6.9081">
        <ele>1081.2</ele>
        <time>2025-09-27T10:05:01Z</time>
      </trkpt>
      <trkpt lat="43.74016" lon="6.90802">
        <ele>1081.2</ele>
        <time>2025-09-27T10:05:03Z</time>
      </trkpt>
      <trkpt lat="43.74015" lon="6.90794">
        <ele>1081.3</ele>
        <time>2025-09-27T10:05:05Z</time>
      </trkpt>
      <trkpt lat="43.74015" lon="6.90786">
        <ele>1081.2</ele>
        <time>2025-09-27T10:05:07Z</time>
      </trkpt>
      <trkpt lat="43.74014" lon="6.90778">
        <ele>1081.1</ele>
        <time>2025-09-27T10:05:09Z</time>
      </trkpt>
      <trkpt lat="43.74013" lon="6.9077">
        <ele>1081</ele>
        <time>2025-09-27T10:05:11Z</time>
      </trkpt>
      <trkpt lat="43.74012" lon="6.90763">
        <ele>1081</ele>
        <time>2025-09-27T10:05:13Z</time>
      </trkpt>
      <trkpt lat="43.74012" lon="6.90756">
        <ele>1080.9</ele>
        <time>2025-09-27T10:05:15Z</time>
      </trkpt>
      <trkpt lat="43.74011" lon="6.90749">
        <ele>1080.8</ele>
        <time>2025-09-27T10:05:17Z</time>
      </trkpt>
      <trkpt lat="43.7401" lon="6.90741">
        <ele>1080.6</ele>
        <time>2025-09-27T10:05:19Z</time>
      </trkpt>
      <trkpt lat="43.7401" lon="6.90734">
        <ele>1080.5</ele>
        <time>2025-09-27T10:05:21Z</time>
      </trkpt>
      <trkpt lat="43.74009" lon="6.90727">
        <ele>1080.3</ele>
        <time>2025-09-27T10:05:23Z</time>
      </trkpt>
      <trkpt lat="43.74009" lon="6.9072">
        <ele>1080.2</ele>
        <time>2025-09-27T10:05:25Z</time>
      </trkpt>
      <trkpt lat="43.74009" lon="6.90712">
        <ele>1080</ele>
        <time>2025-09-27T10:05:27Z</time>
      </trkpt>
      <trkpt lat="43.74009" lon="6.90705">
        <ele>1079.9</ele>
        <time>2025-09-27T10:05:29Z</time>
      </trkpt>
      <trkpt lat="43.74009" lon="6.90697">
        <ele>1079.9</ele>
        <time>2025-09-27T10:05:31Z</time>
      </trkpt>
      <trkpt lat="43.74011" lon="6.90689">
        <ele>1079.8</ele>
        <time>2025-09-27T10:05:33Z</time>
      </trkpt>
      <trkpt lat="43.74012" lon="6.90681">
        <ele>1080</ele>
        <time>2025-09-27T10:05:35Z</time>
      </trkpt>
      <trkpt lat="43.74014" lon="6.90672">
        <ele>1080.1</ele>
        <time>2025-09-27T10:05:37Z</time>
      </trkpt>
      <trkpt lat="43.74015" lon="6.90663">
        <ele>1080.5</ele>
        <time>2025-09-27T10:05:39Z</time>
      </trkpt>
      <trkpt lat="43.74015" lon="6.90654">
        <ele>1080.9</ele>
        <time>2025-09-27T10:05:41Z</time>
      </trkpt>
      <trkpt lat="43.74014" lon="6.90647">
        <ele>1081.3</ele>
        <time>2025-09-27T10:05:43Z</time>
      </trkpt>
      <trkpt lat="43.74013" lon="6.90639">
        <ele>1081.7</ele>
        <time>2025-09-27T10:05:45Z</time>
      </trkpt>
      <trkpt lat="43.74013" lon="6.90631">
        <ele>1082.3</ele>
        <time>2025-09-27T10:05:47Z</time>
      </trkpt>
      <trkpt lat="43.74014" lon="6.90623">
        <ele>1082.6</ele>
        <time>2025-09-27T10:05:49Z</time>
      </trkpt>
      <trkpt lat="43.74016" lon="6.90615">
        <ele>1083.3</ele>
        <time>2025-09-27T10:05:51Z</time>
      </trkpt>
      <trkpt lat="43.74018" lon="6.90607">
        <ele>1083.2</ele>
        <time>2025-09-27T10:05:53Z</time>
      </trkpt>
      <trkpt lat="43.74021" lon="6.906">
        <ele>1083.2</ele>
        <time>2025-09-27T10:05:55Z</time>
      </trkpt>
      <trkpt lat="43.74025" lon="6.90593">
        <ele>1083.3</ele>
        <time>2025-09-27T10:05:57Z</time>
      </trkpt>
      <trkpt lat="43.7403" lon="6.90587">
        <ele>1083.4</ele>
        <time>2025-09-27T10:05:59Z</time>
      </trkpt>
      <trkpt lat="43.74034" lon="6.90581">
        <ele>1083.6</ele>
        <time>2025-09-27T10:06:01Z</time>
      </trkpt>
      <trkpt lat="43.74039" lon="6.90576">
        <ele>1083.9</ele>
        <time>2025-09-27T10:06:03Z</time>
      </trkpt>
      <trkpt lat="43.74045" lon="6.90572">
        <ele>1084.2</ele>
        <time>2025-09-27T10:06:05Z</time>
      </trkpt>
      <trkpt lat="43.7405" lon="6.90569">
        <ele>1084.5</ele>
        <time>2025-09-27T10:06:07Z</time>
      </trkpt>
      <trkpt lat="43.74055" lon="6.90563">
        <ele>1084.9</ele>
        <time>2025-09-27T10:06:09Z</time>
      </trkpt>
      <trkpt lat="43.74059" lon="6.90557">
        <ele>1085.3</ele>
        <time>2025-09-27T10:06:11Z</time>
      </trkpt>
      <trkpt lat="43.74063" lon="6.90552">
        <ele>1085.2</ele>
        <time>2025-09-27T10:06:13Z</time>
      </trkpt>
      <trkpt lat="43.74067" lon="6.9055">
        <ele>1085</ele>
        <time>2025-09-27T10:06:15Z</time>
      </trkpt>
      <trkpt lat="43.74073" lon="6.90549">
        <ele>1084.8</ele>
        <time>2025-09-27T10:06:17Z</time>
      </trkpt>
      <trkpt lat="43.7408" lon="6.90546">
        <ele>1084.5</ele>
        <time>2025-09-27T10:06:19Z</time>
      </trkpt>
      <trkpt lat="43.74086" lon="6.90544">
        <ele>1084.3</ele>
        <time>2025-09-27T10:06:21Z</time>
      </trkpt>
      <trkpt lat="43.74093" lon="6.90541">
        <ele>1084.2</ele>
        <time>2025-09-27T10:06:23Z</time>
      </trkpt>
      <trkpt lat="43.741" lon="6.90537">
        <ele>1084.1</ele>
        <time>2025-09-27T10:06:25Z</time>
      </trkpt>
      <trkpt lat="43.74107" lon="6.90533">
        <ele>1084</ele>
        <time>2025-09-27T10:06:27Z</time>
      </trkpt>
      <trkpt lat="43.74115" lon="6.90529">
        <ele>1084</ele>
        <time>2025-09-27T10:06:29Z</time>
      </trkpt>
      <trkpt lat="43.74122" lon="6.90526">
        <ele>1084</ele>
        <time>2025-09-27T10:06:31Z</time>
      </trkpt>
      <trkpt lat="43.7413" lon="6.90523">
        <ele>1084</ele>
        <time>2025-09-27T10:06:33Z</time>
      </trkpt>
      <trkpt lat="43.74137" lon="6.9052">
        <ele>1084.1</ele>
        <time>2025-09-27T10:06:35Z</time>
      </trkpt>
      <trkpt lat="43.74143" lon="6.90518">
        <ele>1084.2</ele>
        <time>2025-09-27T10:06:37Z</time>
      </trkpt>
      <trkpt lat="43.7415" lon="6.90515">
        <ele>1084.3</ele>
        <time>2025-09-27T10:06:39Z</time>
      </trkpt>
      <trkpt lat="43.74156" lon="6.90512">
        <ele>1084.3</ele>
        <time>2025-09-27T10:06:41Z</time>
      </trkpt>
      <trkpt lat="43.74163" lon="6.90509">
        <ele>1084.4</ele>
        <time>2025-09-27T10:06:43Z</time>
      </trkpt>
      <trkpt lat="43.7417" lon="6.90505">
        <ele>1084.5</ele>
        <time>2025-09-27T10:06:45Z</time>
      </trkpt>
      <trkpt lat="43.74177" lon="6.90501">
        <ele>1084.6</ele>
        <time>2025-09-27T10:06:47Z</time>
      </trkpt>
      <trkpt lat="43.74184" lon="6.90499">
        <ele>1084.8</ele>
        <time>2025-09-27T10:06:49Z</time>
      </trkpt>
      <trkpt lat="43.74192" lon="6.90497">
        <ele>1085</ele>
        <time>2025-09-27T10:06:51Z</time>
      </trkpt>
      <trkpt lat="43.74198" lon="6.90494">
        <ele>1085.3</ele>
        <time>2025-09-27T10:06:53Z</time>
      </trkpt>
      <trkpt lat="43.74204" lon="6.9049">
        <ele>1085.6</ele>
        <time>2025-09-27T10:06:55Z</time>
      </trkpt>
      <trkpt lat="43.74207" lon="6.90483">
        <ele>1085.8</ele>
        <time>2025-09-27T10:06:57Z</time>
      </trkpt>
      <trkpt lat="43.74206" lon="6.90474">
        <ele>1086.1</ele>
        <time>2025-09-27T10:06:59Z</time>
      </trkpt>
      <trkpt lat="43.74205" lon="6.90466">
        <ele>1086.4</ele>
        <time>2025-09-27T10:07:01Z</time>
      </trkpt>
      <trkpt lat="43.74203" lon="6.90458">
        <ele>1086.7</ele>
        <time>2025-09-27T10:07:03Z</time>
      </trkpt>
      <trkpt lat="43.74201" lon="6.90449">
        <ele>1087</ele>
        <time>2025-09-27T10:07:05Z</time>
      </trkpt>
      <trkpt lat="43.742" lon="6.9044">
        <ele>1087.2</ele>
        <time>2025-09-27T10:07:07Z</time>
      </trkpt>
      <trkpt lat="43.742" lon="6.90431">
        <ele>1087.4</ele>
        <time>2025-09-27T10:07:09Z</time>
      </trkpt>
      <trkpt lat="43.74201" lon="6.90423">
        <ele>1087.4</ele>
        <time>2025-09-27T10:07:11Z</time>
      </trkpt>
      <trkpt lat="43.74202" lon="6.90415">
        <ele>1087.4</ele>
        <time>2025-09-27T10:07:13Z</time>
      </trkpt>
      <trkpt lat="43.74202" lon="6.90408">
        <ele>1087.5</ele>
        <time>2025-09-27T10:07:15Z</time>
      </trkpt>
      <trkpt lat="43.74201" lon="6.90402">
        <ele>1087.5</ele>
        <time>2025-09-27T10:07:17Z</time>
      </trkpt>
      <trkpt lat="43.74201" lon="6.90395">
        <ele>1087.5</ele>
        <time>2025-09-27T10:07:19Z</time>
      </trkpt>
      <trkpt lat="43.742" lon="6.90387">
        <ele>1087.6</ele>
        <time>2025-09-27T10:07:21Z</time>
      </trkpt>
      <trkpt lat="43.74199" lon="6.90378">
        <ele>1087.7</ele>
        <time>2025-09-27T10:07:23Z</time>
      </trkpt>
      <trkpt lat="43.74198" lon="6.90369">
        <ele>1087.8</ele>
        <time>2025-09-27T10:07:25Z</time>
      </trkpt>
      <trkpt lat="43.74197" lon="6.9036">
        <ele>1087.9</ele>
        <time>2025-09-27T10:07:27Z</time>
      </trkpt>
      <trkpt lat="43.74196" lon="6.90351">
        <ele>1088</ele>
        <time>2025-09-27T10:07:29Z</time>
      </trkpt>
      <trkpt lat="43.74195" lon="6.90342">
        <ele>1088.1</ele>
        <time>2025-09-27T10:07:31Z</time>
      </trkpt>
      <trkpt lat="43.74195" lon="6.90334">
        <ele>1088.2</ele>
        <time>2025-09-27T10:07:33Z</time>
      </trkpt>
      <trkpt lat="43.74194" lon="6.90324">
        <ele>1088.4</ele>
        <time>2025-09-27T10:07:35Z</time>
      </trkpt>
      <trkpt lat="43.74193" lon="6.90315">
        <ele>1088.5</ele>
        <time>2025-09-27T10:07:37Z</time>
      </trkpt>
      <trkpt lat="43.74192" lon="6.90306">
        <ele>1088.6</ele>
        <time>2025-09-27T10:07:39Z</time>
      </trkpt>
      <trkpt lat="43.74191" lon="6.90297">
        <ele>1088.7</ele>
        <time>2025-09-27T10:07:41Z</time>
      </trkpt>
      <trkpt lat="43.7419" lon="6.90288">
        <ele>1088.8</ele>
        <time>2025-09-27T10:07:43Z</time>
      </trkpt>
      <trkpt lat="43.74189" lon="6.90278">
        <ele>1088.9</ele>
        <time>2025-09-27T10:07:45Z</time>
      </trkpt>
      <trkpt lat="43.74188" lon="6.90269">
        <ele>1089</ele>
        <time>2025-09-27T10:07:47Z</time>
      </trkpt>
      <trkpt lat="43.74187" lon="6.90259">
        <ele>1089.1</ele>
        <time>2025-09-27T10:07:49Z</time>
      </trkpt>
      <trkpt lat="43.74186" lon="6.9025">
        <ele>1089.1</ele>
        <time>2025-09-27T10:07:51Z</time>
      </trkpt>
      <trkpt lat="43.74185" lon="6.9024">
        <ele>1089.2</ele>
        <time>2025-09-27T10:07:53Z</time>
      </trkpt>
      <trkpt lat="43.74183" lon="6.90231">
        <ele>1089.3</ele>
        <time>2025-09-27T10:07:55Z</time>
      </trkpt>
      <trkpt lat="43.74182" lon="6.90222">
        <ele>1089.4</ele>
        <time>2025-09-27T10:07:57Z</time>
      </trkpt>
      <trkpt lat="43.74181" lon="6.90213">
        <ele>1089.6</ele>
        <time>2025-09-27T10:07:59Z</time>
      </trkpt>
      <trkpt lat="43.74181" lon="6.90203">
        <ele>1089.7</ele>
        <time>2025-09-27T10:08:01Z</time>
      </trkpt>
      <trkpt lat="43.74181" lon="6.90194">
        <ele>1089.9</ele>
        <time>2025-09-27T10:08:03Z</time>
      </trkpt>
      <trkpt lat="43.74181" lon="6.90185">
        <ele>1090.1</ele>
        <time>2025-09-27T10:08:05Z</time>
      </trkpt>
      <trkpt lat="43.74181" lon="6.90176">
        <ele>1090.3</ele>
        <time>2025-09-27T10:08:07Z</time>
      </trkpt>
      <trkpt lat="43.7418" lon="6.90167">
        <ele>1090.5</ele>
        <time>2025-09-27T10:08:09Z</time>
      </trkpt>
      <trkpt lat="43.7418" lon="6.90158">
        <ele>1090.7</ele>
        <time>2025-09-27T10:08:11Z</time>
      </trkpt>
      <trkpt lat="43.74179" lon="6.90149">
        <ele>1090.9</ele>
        <time>2025-09-27T10:08:13Z</time>
      </trkpt>
      <trkpt lat="43.74179" lon="6.90141">
        <ele>1091.2</ele>
        <time>2025-09-27T10:08:15Z</time>
      </trkpt>
      <trkpt lat="43.74179" lon="6.90132">
        <ele>1091.5</ele>
        <time>2025-09-27T10:08:17Z</time>
      </trkpt>
      <trkpt lat="43.74178" lon="6.90124">
        <ele>1091.7</ele>
        <time>2025-09-27T10:08:19Z</time>
      </trkpt>
      <trkpt lat="43.74178" lon="6.90117">
        <ele>1092.1</ele>
        <time>2025-09-27T10:08:21Z</time>
      </trkpt>
      <trkpt lat="43.74176" lon="6.90108">
        <ele>1092.4</ele>
        <time>2025-09-27T10:08:23Z</time>
      </trkpt>
      <trkpt lat="43.74176" lon="6.901">
        <ele>1092.9</ele>
        <time>2025-09-27T10:08:25Z</time>
      </trkpt>
      <trkpt lat="43.74175" lon="6.90092">
        <ele>1093.3</ele>
        <time>2025-09-27T10:08:27Z</time>
      </trkpt>
      <trkpt lat="43.74174" lon="6.90085">
        <ele>1093.7</ele>
        <time>2025-09-27T10:08:29Z</time>
      </trkpt>
      <trkpt lat="43.74174" lon="6.90077">
        <ele>1094.1</ele>
        <time>2025-09-27T10:08:31Z</time>
      </trkpt>
      <trkpt lat="43.74173" lon="6.9007">
        <ele>1094.6</ele>
        <time>2025-09-27T10:08:33Z</time>
      </trkpt>
      <trkpt lat="43.74173" lon="6.90062">
        <ele>1095.1</ele>
        <time>2025-09-27T10:08:35Z</time>
      </trkpt>
      <trkpt lat="43.74173" lon="6.90055">
        <ele>1095.5</ele>
        <time>2025-09-27T10:08:37Z</time>
      </trkpt>
      <trkpt lat="43.74172" lon="6.90047">
        <ele>1096</ele>
        <time>2025-09-27T10:08:39Z</time>
      </trkpt>
      <trkpt lat="43.74172" lon="6.9004">
        <ele>1096.5</ele>
        <time>2025-09-27T10:08:41Z</time>
      </trkpt>
      <trkpt lat="43.74172" lon="6.90034">
        <ele>1096.9</ele>
        <time>2025-09-27T10:08:43Z</time>
      </trkpt>
      <trkpt lat="43.74171" lon="6.90027">
        <ele>1097.3</ele>
        <time>2025-09-27T10:08:45Z</time>
      </trkpt>
      <trkpt lat="43.74171" lon="6.90021">
        <ele>1098</ele>
        <time>2025-09-27T10:08:47Z</time>
      </trkpt>
      <trkpt lat="43.74172" lon="6.90015">
        <ele>1099</ele>
        <time>2025-09-27T10:08:49Z</time>
      </trkpt>
      <trkpt lat="43.74173" lon="6.90008">
        <ele>1100</ele>
        <time>2025-09-27T10:08:51Z</time>
      </trkpt>
      <trkpt lat="43.74173" lon="6.90002">
        <ele>1101</ele>
        <time>2025-09-27T10:08:53Z</time>
      </trkpt>
      <trkpt lat="43.74174" lon="6.89995">
        <ele>1101.5</ele>
        <time>2025-09-27T10:08:55Z</time>
      </trkpt>
      <trkpt lat="43.74179" lon="6.89989">
        <ele>1101.4</ele>
        <time>2025-09-27T10:08:57Z</time>
      </trkpt>
      <trkpt lat="43.74186" lon="6.89985">
        <ele>1101.4</ele>
        <time>2025-09-27T10:08:59Z</time>
      </trkpt>
      <trkpt lat="43.74191" lon="6.89983">
        <ele>1101.5</ele>
        <time>2025-09-27T10:09:01Z</time>
      </trkpt>
      <trkpt lat="43.74195" lon="6.8998">
        <ele>1101.7</ele>
        <time>2025-09-27T10:09:03Z</time>
      </trkpt>
      <trkpt lat="43.742" lon="6.89978">
        <ele>1102</ele>
        <time>2025-09-27T10:09:05Z</time>
      </trkpt>
      <trkpt lat="43.74205" lon="6.89977">
        <ele>1102.4</ele>
        <time>2025-09-27T10:09:07Z</time>
      </trkpt>
      <trkpt lat="43.7421" lon="6.89975">
        <ele>1102.8</ele>
        <time>2025-09-27T10:09:09Z</time>
      </trkpt>
      <trkpt lat="43.74216" lon="6.89973">
        <ele>1103.4</ele>
        <time>2025-09-27T10:09:12Z</time>
      </trkpt>
      <trkpt lat="43.7422" lon="6.89972">
        <ele>1103.9</ele>
        <time>2025-09-27T10:09:15Z</time>
      </trkpt>
      <trkpt lat="43.74226" lon="6.8997">
        <ele>1104.5</ele>
        <time>2025-09-27T10:09:18Z</time>
      </trkpt>
      <trkpt lat="43.74231" lon="6.89968">
        <ele>1105</ele>
        <time>2025-09-27T10:09:20Z</time>
      </trkpt>
      <trkpt lat="43.74237" lon="6.89967">
        <ele>1105.6</ele>
        <time>2025-09-27T10:09:23Z</time>
      </trkpt>
      <trkpt lat="43.74242" lon="6.89966">
        <ele>1106.1</ele>
        <time>2025-09-27T10:09:26Z</time>
      </trkpt>
      <trkpt lat="43.74247" lon="6.89965">
        <ele>1106.6</ele>
        <time>2025-09-27T10:09:31Z</time>
      </trkpt>
      <trkpt lat="43.74253" lon="6.89962">
        <ele>1107.2</ele>
        <time>2025-09-27T10:09:35Z</time>
      </trkpt>
      <trkpt lat="43.74258" lon="6.89958">
        <ele>1107.6</ele>
        <time>2025-09-27T10:09:37Z</time>
      </trkpt>
      <trkpt lat="43.74264" lon="6.89957">
        <ele>1108.1</ele>
        <time>2025-09-27T10:09:39Z</time>
      </trkpt>
      <trkpt lat="43.7427" lon="6.89953">
        <ele>1108.5</ele>
        <time>2025-09-27T10:09:41Z</time>
      </trkpt>
      <trkpt lat="43.74274" lon="6.89952">
        <ele>1108.9</ele>
        <time>2025-09-27T10:09:43Z</time>
      </trkpt>
      <trkpt lat="43.74279" lon="6.89948">
        <ele>1109.3</ele>
        <time>2025-09-27T10:09:46Z</time>
      </trkpt>
      <trkpt lat="43.74286" lon="6.89943">
        <ele>1109.5</ele>
        <time>2025-09-27T10:09:49Z</time>
      </trkpt>
      <trkpt lat="43.74291" lon="6.89939">
        <ele>1110</ele>
        <time>2025-09-27T10:09:51Z</time>
      </trkpt>
      <trkpt lat="43.74295" lon="6.89936">
        <ele>1110.4</ele>
        <time>2025-09-27T10:09:53Z</time>
      </trkpt>
      <trkpt lat="43.743" lon="6.89931">
        <ele>1111</ele>
        <time>2025-09-27T10:09:56Z</time>
      </trkpt>
      <trkpt lat="43.74304" lon="6.89927">
        <ele>1111.6</ele>
        <time>2025-09-27T10:09:59Z</time>
      </trkpt>
      <trkpt lat="43.74307" lon="6.89923">
        <ele>1112.1</ele>
        <time>2025-09-27T10:10:02Z</time>
      </trkpt>
      <trkpt lat="43.74312" lon="6.89918">
        <ele>1112.7</ele>
        <time>2025-09-27T10:10:06Z</time>
      </trkpt>
      <trkpt lat="43.74315" lon="6.89913">
        <ele>1113.3</ele>
        <time>2025-09-27T10:10:09Z</time>
      </trkpt>
      <trkpt lat="43.74319" lon="6.89907">
        <ele>1113.8</ele>
        <time>2025-09-27T10:10:12Z</time>
      </trkpt>
      <trkpt lat="43.74322" lon="6.89902">
        <ele>1114.4</ele>
        <time>2025-09-27T10:10:15Z</time>
      </trkpt>
      <trkpt lat="43.74325" lon="6.89896">
        <ele>1114.9</ele>
        <time>2025-09-27T10:10:18Z</time>
      </trkpt>
      <trkpt lat="43.74329" lon="6.89891">
        <ele>1115.3</ele>
        <time>2025-09-27T10:10:21Z</time>
      </trkpt>
      <trkpt lat="43.74332" lon="6.89885">
        <ele>1115.8</ele>
        <time>2025-09-27T10:10:24Z</time>
      </trkpt>
      <trkpt lat="43.74335" lon="6.89879">
        <ele>1116.3</ele>
        <time>2025-09-27T10:10:27Z</time>
      </trkpt>
      <trkpt lat="43.74338" lon="6.89874">
        <ele>1116.8</ele>
        <time>2025-09-27T10:10:30Z</time>
      </trkpt>
      <trkpt lat="43.74341" lon="6.89867">
        <ele>1117.4</ele>
        <time>2025-09-27T10:10:34Z</time>
      </trkpt>
      <trkpt lat="43.74344" lon="6.89861">
        <ele>1118.1</ele>
        <time>2025-09-27T10:10:38Z</time>
      </trkpt>
      <trkpt lat="43.74346" lon="6.89855">
        <ele>1118.7</ele>
        <time>2025-09-27T10:10:42Z</time>
      </trkpt>
      <trkpt lat="43.7435" lon="6.8985">
        <ele>1119.4</ele>
        <time>2025-09-27T10:10:46Z</time>
      </trkpt>
      <trkpt lat="43.74353" lon="6.89845">
        <ele>1120</ele>
        <time>2025-09-27T10:10:50Z</time>
      </trkpt>
      <trkpt lat="43.74356" lon="6.89841">
        <ele>1120.7</ele>
        <time>2025-09-27T10:10:54Z</time>
      </trkpt>
      <trkpt lat="43.7436" lon="6.89836">
        <ele>1121.5</ele>
        <time>2025-09-27T10:10:59Z</time>
      </trkpt>
      <trkpt lat="43.74363" lon="6.89831">
        <ele>1122.2</ele>
        <time>2025-09-27T10:11:03Z</time>
      </trkpt>
      <trkpt lat="43.74367" lon="6.89826">
        <ele>1123.1</ele>
        <time>2025-09-27T10:11:08Z</time>
      </trkpt>
      <trkpt lat="43.74371" lon="6.89821">
        <ele>1124</ele>
        <time>2025-09-27T10:11:13Z</time>
      </trkpt>
      <trkpt lat="43.74374" lon="6.89816">
        <ele>1124.7</ele>
        <time>2025-09-27T10:11:17Z</time>
      </trkpt>
      <trkpt lat="43.74379" lon="6.89814">
        <ele>1125.6</ele>
        <time>2025-09-27T10:11:23Z</time>
      </trkpt>
      <trkpt lat="43.74383" lon="6.89812">
        <ele>1126.3</ele>
        <time>2025-09-27T10:11:47Z</time>
      </trkpt>
      <trkpt lat="43.74386" lon="6.89816">
        <ele>1127</ele>
        <time>2025-09-27T10:18:10Z</time>
      </trkpt>
      <trkpt lat="43.74382" lon="6.89814">
        <ele>1127.7</ele>
        <time>2025-09-27T10:18:25Z</time>
      </trkpt>
      <trkpt lat="43.74378" lon="6.89812">
        <ele>1128.3</ele>
        <time>2025-09-27T10:18:43Z</time>
      </trkpt>
      <trkpt lat="43.74378" lon="6.89806">
        <ele>1129</ele>
        <time>2025-09-27T10:20:18Z</time>
      </trkpt>
      <trkpt lat="43.74381" lon="6.898">
        <ele>1129.7</ele>
        <time>2025-09-27T10:21:46Z</time>
      </trkpt>
      <trkpt lat="43.74385" lon="6.89796">
        <ele>1130.7</ele>
        <time>2025-09-27T10:21:51Z</time>
      </trkpt>
      <trkpt lat="43.74388" lon="6.89791">
        <ele>1131.7</ele>
        <time>2025-09-27T10:22:15Z</time>
      </trkpt>
      <trkpt lat="43.74393" lon="6.89789">
        <ele>1132.8</ele>
        <time>2025-09-27T10:22:20Z</time>
      </trkpt>
      <trkpt lat="43.74398" lon="6.89786">
        <ele>1134</ele>
        <time>2025-09-27T10:22:25Z</time>
      </trkpt>
      <trkpt lat="43.74402" lon="6.89782">
        <ele>1134.9</ele>
        <time>2025-09-27T10:22:29Z</time>
      </trkpt>
      <trkpt lat="43.74404" lon="6.89776">
        <ele>1136</ele>
        <time>2025-09-27T10:22:34Z</time>
      </trkpt>
      <trkpt lat="43.74406" lon="6.8977">
        <ele>1137</ele>
        <time>2025-09-27T10:22:39Z</time>
      </trkpt>
      <trkpt lat="43.74409" lon="6.89763">
        <ele>1138.1</ele>
        <time>2025-09-27T10:22:44Z</time>
      </trkpt>
      <trkpt lat="43.74411" lon="6.89757">
        <ele>1139</ele>
        <time>2025-09-27T10:22:56Z</time>
      </trkpt>
      <trkpt lat="43.74414" lon="6.89752">
        <ele>1139.9</ele>
        <time>2025-09-27T10:23:00Z</time>
      </trkpt>
      <trkpt lat="43.74418" lon="6.89748">
        <ele>1140.9</ele>
        <time>2025-09-27T10:23:04Z</time>
      </trkpt>
      <trkpt lat="43.74421" lon="6.89742">
        <ele>1141.9</ele>
        <time>2025-09-27T10:23:08Z</time>
      </trkpt>
      <trkpt lat="43.74425" lon="6.89736">
        <ele>1142.9</ele>
        <time>2025-09-27T10:23:12Z</time>
      </trkpt>
      <trkpt lat="43.74428" lon="6.89731">
        <ele>1143.9</ele>
        <time>2025-09-27T10:23:16Z</time>
      </trkpt>
      <trkpt lat="43.74431" lon="6.89725">
        <ele>1144.7</ele>
        <time>2025-09-27T10:23:21Z</time>
      </trkpt>
      <trkpt lat="43.74432" lon="6.89717">
        <ele>1145.6</ele>
        <time>2025-09-27T10:23:26Z</time>
      </trkpt>
      <trkpt lat="43.74433" lon="6.89711">
        <ele>1146.3</ele>
        <time>2025-09-27T10:23:30Z</time>
      </trkpt>
      <trkpt lat="43.74434" lon="6.89703">
        <ele>1147</ele>
        <time>2025-09-27T10:23:34Z</time>
      </trkpt>
      <trkpt lat="43.74436" lon="6.89697">
        <ele>1147.8</ele>
        <time>2025-09-27T10:23:38Z</time>
      </trkpt>
      <trkpt lat="43.74437" lon="6.8969">
        <ele>1148.7</ele>
        <time>2025-09-27T10:23:42Z</time>
      </trkpt>
      <trkpt lat="43.74438" lon="6.89682">
        <ele>1149.7</ele>
        <time>2025-09-27T10:23:47Z</time>
      </trkpt>
      <trkpt lat="43.74439" lon="6.89675">
        <ele>1150.7</ele>
        <time>2025-09-27T10:23:52Z</time>
      </trkpt>
      <trkpt lat="43.7444" lon="6.89668">
        <ele>1151.7</ele>
        <time>2025-09-27T10:23:57Z</time>
      </trkpt>
      <trkpt lat="43.74441" lon="6.89662">
        <ele>1152.8</ele>
        <time>2025-09-27T10:24:05Z</time>
      </trkpt>
      <trkpt lat="43.74442" lon="6.89655">
        <ele>1153.8</ele>
        <time>2025-09-27T10:24:11Z</time>
      </trkpt>
      <trkpt lat="43.74445" lon="6.89649">
        <ele>1155</ele>
        <time>2025-09-27T10:24:18Z</time>
      </trkpt>
      <trkpt lat="43.74448" lon="6.89644">
        <ele>1156.2</ele>
        <time>2025-09-27T10:24:25Z</time>
      </trkpt>
      <trkpt lat="43.7445" lon="6.89637">
        <ele>1157.4</ele>
        <time>2025-09-27T10:24:32Z</time>
      </trkpt>
      <trkpt lat="43.74452" lon="6.89632">
        <ele>1158.5</ele>
        <time>2025-09-27T10:24:38Z</time>
      </trkpt>
      <trkpt lat="43.74454" lon="6.89626">
        <ele>1159.7</ele>
        <time>2025-09-27T10:24:44Z</time>
      </trkpt>
      <trkpt lat="43.74456" lon="6.89621">
        <ele>1160.8</ele>
        <time>2025-09-27T10:24:51Z</time>
      </trkpt>
      <trkpt lat="43.74457" lon="6.89614">
        <ele>1162</ele>
        <time>2025-09-27T10:24:58Z</time>
      </trkpt>
      <trkpt lat="43.74459" lon="6.89608">
        <ele>1163.2</ele>
        <time>2025-09-27T10:25:03Z</time>
      </trkpt>
      <trkpt lat="43.7446" lon="6.89601">
        <ele>1164.4</ele>
        <time>2025-09-27T10:25:09Z</time>
      </trkpt>
      <trkpt lat="43.74463" lon="6.89595">
        <ele>1165.6</ele>
        <time>2025-09-27T10:25:16Z</time>
      </trkpt>
      <trkpt lat="43.74465" lon="6.89589">
        <ele>1166.9</ele>
        <time>2025-09-27T10:25:22Z</time>
      </trkpt>
      <trkpt lat="43.74468" lon="6.89583">
        <ele>1168</ele>
        <time>2025-09-27T10:25:29Z</time>
      </trkpt>
      <trkpt lat="43.74469" lon="6.89577">
        <ele>1169.2</ele>
        <time>2025-09-27T10:25:36Z</time>
      </trkpt>
      <trkpt lat="43.7447" lon="6.89571">
        <ele>1170.2</ele>
        <time>2025-09-27T10:25:42Z</time>
      </trkpt>
      <trkpt lat="43.74471" lon="6.89564">
        <ele>1171.3</ele>
        <time>2025-09-27T10:25:48Z</time>
      </trkpt>
      <trkpt lat="43.74473" lon="6.89558">
        <ele>1172.4</ele>
        <time>2025-09-27T10:25:54Z</time>
      </trkpt>
      <trkpt lat="43.74475" lon="6.89552">
        <ele>1173.6</ele>
        <time>2025-09-27T10:26:00Z</time>
      </trkpt>
      <trkpt lat="43.74477" lon="6.89545">
        <ele>1174.7</ele>
        <time>2025-09-27T10:26:06Z</time>
      </trkpt>
      <trkpt lat="43.74478" lon="6.89539">
        <ele>1175.7</ele>
        <time>2025-09-27T10:26:11Z</time>
      </trkpt>
      <trkpt lat="43.74481" lon="6.89533">
        <ele>1176.9</ele>
        <time>2025-09-27T10:26:18Z</time>
      </trkpt>
      <trkpt lat="43.74485" lon="6.89532">
        <ele>1177.9</ele>
        <time>2025-09-27T10:27:05Z</time>
      </trkpt>
      <trkpt lat="43.7449" lon="6.89535">
        <ele>1178.8</ele>
        <time>2025-09-27T10:28:55Z</time>
      </trkpt>
      <trkpt lat="43.74493" lon="6.89541">
        <ele>1179.6</ele>
        <time>2025-09-27T10:28:58Z</time>
      </trkpt>
      <trkpt lat="43.74495" lon="6.89548">
        <ele>1180.3</ele>
        <time>2025-09-27T10:29:01Z</time>
      </trkpt>
      <trkpt lat="43.74497" lon="6.89556">
        <ele>1180.8</ele>
        <time>2025-09-27T10:29:04Z</time>
      </trkpt>
      <trkpt lat="43.74499" lon="6.89565">
        <ele>1181.3</ele>
        <time>2025-09-27T10:29:07Z</time>
      </trkpt>
      <trkpt lat="43.745" lon="6.89572">
        <ele>1181.6</ele>
        <time>2025-09-27T10:29:09Z</time>
      </trkpt>
      <trkpt lat="43.74501" lon="6.89578">
        <ele>1181.9</ele>
        <time>2025-09-27T10:29:11Z</time>
      </trkpt>
      <trkpt lat="43.74505" lon="6.89583">
        <ele>1182.3</ele>
        <time>2025-09-27T10:29:35Z</time>
      </trkpt>
      <trkpt lat="43.74507" lon="6.89589">
        <ele>1182.9</ele>
        <time>2025-09-27T10:29:38Z</time>
      </trkpt>
      <trkpt lat="43.74511" lon="6.89596">
        <ele>1183.6</ele>
        <time>2025-09-27T10:29:41Z</time>
      </trkpt>
      <trkpt lat="43.74513" lon="6.89604">
        <ele>1184.5</ele>
        <time>2025-09-27T10:29:44Z</time>
      </trkpt>
      <trkpt lat="43.74514" lon="6.89611">
        <ele>1185.4</ele>
        <time>2025-09-27T10:29:47Z</time>
      </trkpt>
      <trkpt lat="43.74516" lon="6.89619">
        <ele>1186.7</ele>
        <time>2025-09-27T10:29:50Z</time>
      </trkpt>
      <trkpt lat="43.74518" lon="6.89625">
        <ele>1187.8</ele>
        <time>2025-09-27T10:29:53Z</time>
      </trkpt>
      <trkpt lat="43.7452" lon="6.89631">
        <ele>1189</ele>
        <time>2025-09-27T10:30:03Z</time>
      </trkpt>
      <trkpt lat="43.74524" lon="6.89634">
        <ele>1190.2</ele>
        <time>2025-09-27T10:30:19Z</time>
      </trkpt>
      <trkpt lat="43.74527" lon="6.8964">
        <ele>1191.5</ele>
        <time>2025-09-27T10:30:28Z</time>
      </trkpt>
      <trkpt lat="43.74528" lon="6.89646">
        <ele>1192.6</ele>
        <time>2025-09-27T10:30:34Z</time>
      </trkpt>
      <trkpt lat="43.74531" lon="6.8965">
        <ele>1193.7</ele>
        <time>2025-09-27T10:30:43Z</time>
      </trkpt>
      <trkpt lat="43.74536" lon="6.89646">
        <ele>1194.7</ele>
        <time>2025-09-27T10:30:53Z</time>
      </trkpt>
      <trkpt lat="43.74541" lon="6.89649">
        <ele>1195.3</ele>
        <time>2025-09-27T10:31:03Z</time>
      </trkpt>
      <trkpt lat="43.74546" lon="6.89652">
        <ele>1195.5</ele>
        <time>2025-09-27T10:31:08Z</time>
      </trkpt>
      <trkpt lat="43.7455" lon="6.89656">
        <ele>1195.6</ele>
        <time>2025-09-27T10:31:12Z</time>
      </trkpt>
      <trkpt lat="43.74554" lon="6.89659">
        <ele>1195.5</ele>
        <time>2025-09-27T10:31:16Z</time>
      </trkpt>
      <trkpt lat="43.74558" lon="6.89662">
        <ele>1195.4</ele>
        <time>2025-09-27T10:31:19Z</time>
      </trkpt>
      <trkpt lat="43.74562" lon="6.89665">
        <ele>1195.1</ele>
        <time>2025-09-27T10:31:21Z</time>
      </trkpt>
      <trkpt lat="43.74567" lon="6.89669">
        <ele>1194.8</ele>
        <time>2025-09-27T10:31:23Z</time>
      </trkpt>
      <trkpt lat="43.74573" lon="6.89673">
        <ele>1194.4</ele>
        <time>2025-09-27T10:31:25Z</time>
      </trkpt>
      <trkpt lat="43.74579" lon="6.89678">
        <ele>1193.9</ele>
        <time>2025-09-27T10:31:27Z</time>
      </trkpt>
      <trkpt lat="43.74586" lon="6.89684">
        <ele>1193.3</ele>
        <time>2025-09-27T10:31:29Z</time>
      </trkpt>
      <trkpt lat="43.74593" lon="6.89688">
        <ele>1192.7</ele>
        <time>2025-09-27T10:31:31Z</time>
      </trkpt>
      <trkpt lat="43.74599" lon="6.89696">
        <ele>1192</ele>
        <time>2025-09-27T10:31:33Z</time>
      </trkpt>
      <trkpt lat="43.74603" lon="6.89707">
        <ele>1191.2</ele>
        <time>2025-09-27T10:31:35Z</time>
      </trkpt>
      <trkpt lat="43.74605" lon="6.89714">
        <ele>1190.8</ele>
        <time>2025-09-27T10:31:36Z</time>
      </trkpt>
      <trkpt lat="43.74608" lon="6.89719">
        <ele>1190.3</ele>
        <time>2025-09-27T10:31:37Z</time>
      </trkpt>
      <trkpt lat="43.74611" lon="6.89725">
        <ele>1189.7</ele>
        <time>2025-09-27T10:31:38Z</time>
      </trkpt>
      <trkpt lat="43.74615" lon="6.89732">
        <ele>1189.2</ele>
        <time>2025-09-27T10:31:39Z</time>
      </trkpt>
      <trkpt lat="43.74618" lon="6.89739">
        <ele>1188.7</ele>
        <time>2025-09-27T10:31:40Z</time>
      </trkpt>
      <trkpt lat="43.74622" lon="6.89746">
        <ele>1188.2</ele>
        <time>2025-09-27T10:31:41Z</time>
      </trkpt>
      <trkpt lat="43.74628" lon="6.89751">
        <ele>1187.7</ele>
        <time>2025-09-27T10:31:42Z</time>
      </trkpt>
      <trkpt lat="43.74634" lon="6.89753">
        <ele>1187.3</ele>
        <time>2025-09-27T10:31:43Z</time>
      </trkpt>
      <trkpt lat="43.7464" lon="6.89754">
        <ele>1187.1</ele>
        <time>2025-09-27T10:31:44Z</time>
      </trkpt>
      <trkpt lat="43.74646" lon="6.89755">
        <ele>1187</ele>
        <time>2025-09-27T10:31:45Z</time>
      </trkpt>
      <trkpt lat="43.74652" lon="6.89757">
        <ele>1187</ele>
        <time>2025-09-27T10:31:46Z</time>
      </trkpt>
      <trkpt lat="43.74655" lon="6.89761">
        <ele>1187</ele>
        <time>2025-09-27T10:31:47Z</time>
      </trkpt>
      <trkpt lat="43.74658" lon="6.89766">
        <ele>1186.9</ele>
        <time>2025-09-27T10:31:48Z</time>
      </trkpt>
      <trkpt lat="43.74661" lon="6.89771">
        <ele>1186.8</ele>
        <time>2025-09-27T10:31:49Z</time>
      </trkpt>
      <trkpt lat="43.74663" lon="6.89777">
        <ele>1186.6</ele>
        <time>2025-09-27T10:31:50Z</time>
      </trkpt>
      <trkpt lat="43.74666" lon="6.89782">
        <ele>1186.3</ele>
        <time>2025-09-27T10:31:51Z</time>
      </trkpt>
      <trkpt lat="43.74668" lon="6.89788">
        <ele>1186</ele>
        <time>2025-09-27T10:31:52Z</time>
      </trkpt>
      <trkpt lat="43.74671" lon="6.89794">
        <ele>1185.7</ele>
        <time>2025-09-27T10:31:53Z</time>
      </trkpt>
      <trkpt lat="43.74672" lon="6.898">
        <ele>1185.3</ele>
        <time>2025-09-27T10:31:54Z</time>
      </trkpt>
      <trkpt lat="43.74674" lon="6.89808">
        <ele>1184.8</ele>
        <time>2025-09-27T10:31:55Z</time>
      </trkpt>
      <trkpt lat="43.74676" lon="6.89815">
        <ele>1184.4</ele>
        <time>2025-09-27T10:31:56Z</time>
      </trkpt>
      <trkpt lat="43.7468" lon="6.89822">
        <ele>1184</ele>
        <time>2025-09-27T10:31:57Z</time>
      </trkpt>
      <trkpt lat="43.74684" lon="6.89827">
        <ele>1183.8</ele>
        <time>2025-09-27T10:31:58Z</time>
      </trkpt>
      <trkpt lat="43.74688" lon="6.89832">
        <ele>1183.6</ele>
        <time>2025-09-27T10:31:59Z</time>
      </trkpt>
      <trkpt lat="43.74689" lon="6.89842">
        <ele>1183.4</ele>
        <time>2025-09-27T10:32:01Z</time>
      </trkpt>
      <trkpt lat="43.74691" lon="6.89853">
        <ele>1183.2</ele>
        <time>2025-09-27T10:32:03Z</time>
      </trkpt>
      <trkpt lat="43.74692" lon="6.89863">
        <ele>1183.3</ele>
        <time>2025-09-27T10:32:05Z</time>
      </trkpt>
      <trkpt lat="43.74692" lon="6.8987">
        <ele>1183.4</ele>
        <time>2025-09-27T10:32:07Z</time>
      </trkpt>
      <trkpt lat="43.74693" lon="6.89878">
        <ele>1183.5</ele>
        <time>2025-09-27T10:32:10Z</time>
      </trkpt>
      <trkpt lat="43.74693" lon="6.89884">
        <ele>1183.6</ele>
        <time>2025-09-27T10:32:14Z</time>
      </trkpt>
      <trkpt lat="43.74693" lon="6.89893">
        <ele>1183.7</ele>
        <time>2025-09-27T10:32:17Z</time>
      </trkpt>
      <trkpt lat="43.74693" lon="6.899">
        <ele>1183.6</ele>
        <time>2025-09-27T10:32:19Z</time>
      </trkpt>
      <trkpt lat="43.74692" lon="6.89908">
        <ele>1183.6</ele>
        <time>2025-09-27T10:32:21Z</time>
      </trkpt>
      <trkpt lat="43.74689" lon="6.89917">
        <ele>1183.5</ele>
        <time>2025-09-27T10:32:24Z</time>
      </trkpt>
      <trkpt lat="43.74686" lon="6.89925">
        <ele>1183.5</ele>
        <time>2025-09-27T10:32:26Z</time>
      </trkpt>
      <trkpt lat="43.74687" lon="6.89934">
        <ele>1184.4</ele>
        <time>2025-09-27T10:32:29Z</time>
      </trkpt>
      <trkpt lat="43.74689" lon="6.8994">
        <ele>1185.1</ele>
        <time>2025-09-27T10:32:32Z</time>
      </trkpt>
      <trkpt lat="43.7469" lon="6.89947">
        <ele>1185.8</ele>
        <time>2025-09-27T10:32:35Z</time>
      </trkpt>
      <trkpt lat="43.74692" lon="6.89954">
        <ele>1186.4</ele>
        <time>2025-09-27T10:32:38Z</time>
      </trkpt>
      <trkpt lat="43.74695" lon="6.89959">
        <ele>1186.9</ele>
        <time>2025-09-27T10:32:41Z</time>
      </trkpt>
      <trkpt lat="43.74699" lon="6.89964">
        <ele>1187.4</ele>
        <time>2025-09-27T10:32:44Z</time>
      </trkpt>
      <trkpt lat="43.74703" lon="6.89968">
        <ele>1187.9</ele>
        <time>2025-09-27T10:32:47Z</time>
      </trkpt>
      <trkpt lat="43.74706" lon="6.89973">
        <ele>1188.2</ele>
        <time>2025-09-27T10:32:50Z</time>
      </trkpt>
      <trkpt lat="43.74708" lon="6.8998">
        <ele>1188.5</ele>
        <time>2025-09-27T10:32:53Z</time>
      </trkpt>
      <trkpt lat="43.74709" lon="6.89987">
        <ele>1188.7</ele>
        <time>2025-09-27T10:32:56Z</time>
      </trkpt>
      <trkpt lat="43.74711" lon="6.89995">
        <ele>1188.8</ele>
        <time>2025-09-27T10:32:59Z</time>
      </trkpt>
      <trkpt lat="43.74712" lon="6.90002">
        <ele>1188.9</ele>
        <time>2025-09-27T10:33:01Z</time>
      </trkpt>
      <trkpt lat="43.74715" lon="6.90008">
        <ele>1189</ele>
        <time>2025-09-27T10:33:03Z</time>
      </trkpt>
      <trkpt lat="43.74718" lon="6.90015">
        <ele>1189.2</ele>
        <time>2025-09-27T10:33:05Z</time>
      </trkpt>
      <trkpt lat="43.74723" lon="6.90018">
        <ele>1189.5</ele>
        <time>2025-09-27T10:33:07Z</time>
      </trkpt>
      <trkpt lat="43.74728" lon="6.9002">
        <ele>1189.8</ele>
        <time>2025-09-27T10:33:09Z</time>
      </trkpt>
      <trkpt lat="43.74733" lon="6.90023">
        <ele>1190.1</ele>
        <time>2025-09-27T10:33:11Z</time>
      </trkpt>
      <trkpt lat="43.74737" lon="6.90027">
        <ele>1190.4</ele>
        <time>2025-09-27T10:33:13Z</time>
      </trkpt>
      <trkpt lat="43.74741" lon="6.90032">
        <ele>1190.8</ele>
        <time>2025-09-27T10:33:16Z</time>
      </trkpt>
      <trkpt lat="43.74744" lon="6.90037">
        <ele>1191.3</ele>
        <time>2025-09-27T10:33:19Z</time>
      </trkpt>
      <trkpt lat="43.74749" lon="6.90041">
        <ele>1191.8</ele>
        <time>2025-09-27T10:33:22Z</time>
      </trkpt>
      <trkpt lat="43.74754" lon="6.90044">
        <ele>1192.5</ele>
        <time>2025-09-27T10:33:26Z</time>
      </trkpt>
      <trkpt lat="43.74759" lon="6.90045">
        <ele>1193.1</ele>
        <time>2025-09-27T10:33:29Z</time>
      </trkpt>
      <trkpt lat="43.74763" lon="6.90049">
        <ele>1193.8</ele>
        <time>2025-09-27T10:33:32Z</time>
      </trkpt>
      <trkpt lat="43.74766" lon="6.90055">
        <ele>1194.3</ele>
        <time>2025-09-27T10:33:35Z</time>
      </trkpt>
      <trkpt lat="43.74769" lon="6.9006">
        <ele>1195</ele>
        <time>2025-09-27T10:33:38Z</time>
      </trkpt>
      <trkpt lat="43.74772" lon="6.90065">
        <ele>1195.6</ele>
        <time>2025-09-27T10:33:41Z</time>
      </trkpt>
      <trkpt lat="43.74777" lon="6.90069">
        <ele>1196.3</ele>
        <time>2025-09-27T10:33:45Z</time>
      </trkpt>
      <trkpt lat="43.74781" lon="6.90073">
        <ele>1196.9</ele>
        <time>2025-09-27T10:33:49Z</time>
      </trkpt>
      <trkpt lat="43.74784" lon="6.90077">
        <ele>1197.5</ele>
        <time>2025-09-27T10:33:52Z</time>
      </trkpt>
      <trkpt lat="43.74787" lon="6.90084">
        <ele>1198.4</ele>
        <time>2025-09-27T10:33:56Z</time>
      </trkpt>
      <trkpt lat="43.7479" lon="6.9009">
        <ele>1199.1</ele>
        <time>2025-09-27T10:33:59Z</time>
      </trkpt>
      <trkpt lat="43.74793" lon="6.90096">
        <ele>1199.8</ele>
        <time>2025-09-27T10:34:02Z</time>
      </trkpt>
      <trkpt lat="43.74796" lon="6.90103">
        <ele>1200.5</ele>
        <time>2025-09-27T10:34:06Z</time>
      </trkpt>
      <trkpt lat="43.74801" lon="6.90106">
        <ele>1201</ele>
        <time>2025-09-27T10:34:11Z</time>
      </trkpt>
      <trkpt lat="43.74806" lon="6.90106">
        <ele>1201.7</ele>
        <time>2025-09-27T10:34:23Z</time>
      </trkpt>
      <trkpt lat="43.74811" lon="6.90105">
        <ele>1202.4</ele>
        <time>2025-09-27T10:34:27Z</time>
      </trkpt>
      <trkpt lat="43.74816" lon="6.90102">
        <ele>1203.2</ele>
        <time>2025-09-27T10:34:31Z</time>
      </trkpt>
      <trkpt lat="43.74813" lon="6.90096">
        <ele>1204.1</ele>
        <time>2025-09-27T10:34:35Z</time>
      </trkpt>
      <trkpt lat="43.7481" lon="6.90091">
        <ele>1205.1</ele>
        <time>2025-09-27T10:34:43Z</time>
      </trkpt>
      <trkpt lat="43.7481" lon="6.90085">
        <ele>1206</ele>
        <time>2025-09-27T10:34:52Z</time>
      </trkpt>
      <trkpt lat="43.74814" lon="6.90083">
        <ele>1206.8</ele>
        <time>2025-09-27T10:35:00Z</time>
      </trkpt>
      <trkpt lat="43.74819" lon="6.90085">
        <ele>1207.7</ele>
        <time>2025-09-27T10:35:07Z</time>
      </trkpt>
      <trkpt lat="43.74824" lon="6.90085">
        <ele>1208.5</ele>
        <time>2025-09-27T10:35:14Z</time>
      </trkpt>
      <trkpt lat="43.74828" lon="6.90085">
        <ele>1209.3</ele>
        <time>2025-09-27T10:35:20Z</time>
      </trkpt>
      <trkpt lat="43.74833" lon="6.90083">
        <ele>1210.1</ele>
        <time>2025-09-27T10:35:26Z</time>
      </trkpt>
      <trkpt lat="43.74837" lon="6.9008">
        <ele>1210.9</ele>
        <time>2025-09-27T10:35:32Z</time>
      </trkpt>
      <trkpt lat="43.74834" lon="6.90075">
        <ele>1211.7</ele>
        <time>2025-09-27T10:35:39Z</time>
      </trkpt>
      <trkpt lat="43.7483" lon="6.90071">
        <ele>1212.4</ele>
        <time>2025-09-27T10:35:45Z</time>
      </trkpt>
      <trkpt lat="43.74825" lon="6.90067">
        <ele>1213.2</ele>
        <time>2025-09-27T10:35:51Z</time>
      </trkpt>
      <trkpt lat="43.74822" lon="6.90062">
        <ele>1213.7</ele>
        <time>2025-09-27T10:35:56Z</time>
      </trkpt>
      <trkpt lat="43.74827" lon="6.90061">
        <ele>1214.2</ele>
        <time>2025-09-27T10:36:02Z</time>
      </trkpt>
      <trkpt lat="43.74831" lon="6.90061">
        <ele>1214.6</ele>
        <time>2025-09-27T10:36:06Z</time>
      </trkpt>
      <trkpt lat="43.74836" lon="6.90061">
        <ele>1214.8</ele>
        <time>2025-09-27T10:36:12Z</time>
      </trkpt>
      <trkpt lat="43.74841" lon="6.90062">
        <ele>1214.9</ele>
        <time>2025-09-27T10:36:17Z</time>
      </trkpt>
      <trkpt lat="43.74846" lon="6.90063">
        <ele>1215</ele>
        <time>2025-09-27T10:36:29Z</time>
      </trkpt>
      <trkpt lat="43.74851" lon="6.90064">
        <ele>1215</ele>
        <time>2025-09-27T10:36:32Z</time>
      </trkpt>
      <trkpt lat="43.74856" lon="6.90065">
        <ele>1215</ele>
        <time>2025-09-27T10:36:34Z</time>
      </trkpt>
      <trkpt lat="43.74862" lon="6.90063">
        <ele>1215.1</ele>
        <time>2025-09-27T10:36:37Z</time>
      </trkpt>
      <trkpt lat="43.74866" lon="6.90061">
        <ele>1215.4</ele>
        <time>2025-09-27T10:36:43Z</time>
      </trkpt>
      <trkpt lat="43.74872" lon="6.90065">
        <ele>1215.9</ele>
        <time>2025-09-27T10:36:49Z</time>
      </trkpt>
      <trkpt lat="43.74877" lon="6.90063">
        <ele>1216.6</ele>
        <time>2025-09-27T10:36:52Z</time>
      </trkpt>
      <trkpt lat="43.7488" lon="6.90056">
        <ele>1217.4</ele>
        <time>2025-09-27T10:36:56Z</time>
      </trkpt>
      <trkpt lat="43.74883" lon="6.90052">
        <ele>1218.2</ele>
        <time>2025-09-27T10:37:06Z</time>
      </trkpt>
      <trkpt lat="43.74887" lon="6.90049">
        <ele>1219.1</ele>
        <time>2025-09-27T10:37:12Z</time>
      </trkpt>
      <trkpt lat="43.7489" lon="6.90043">
        <ele>1219.9</ele>
        <time>2025-09-27T10:37:19Z</time>
      </trkpt>
      <trkpt lat="43.74892" lon="6.90036">
        <ele>1220.8</ele>
        <time>2025-09-27T10:37:24Z</time>
      </trkpt>
      <trkpt lat="43.74896" lon="6.90033">
        <ele>1221.6</ele>
        <time>2025-09-27T10:37:30Z</time>
      </trkpt>
      <trkpt lat="43.74894" lon="6.90026">
        <ele>1222.4</ele>
        <time>2025-09-27T10:37:38Z</time>
      </trkpt>
      <trkpt lat="43.74894" lon="6.90019">
        <ele>1223.2</ele>
        <time>2025-09-27T10:37:45Z</time>
      </trkpt>
      <trkpt lat="43.74894" lon="6.90012">
        <ele>1224.1</ele>
        <time>2025-09-27T10:37:50Z</time>
      </trkpt>
      <trkpt lat="43.74899" lon="6.90009">
        <ele>1225.1</ele>
        <time>2025-09-27T10:37:56Z</time>
      </trkpt>
      <trkpt lat="43.74903" lon="6.90004">
        <ele>1226.1</ele>
        <time>2025-09-27T10:38:01Z</time>
      </trkpt>
      <trkpt lat="43.74906" lon="6.89999">
        <ele>1227.2</ele>
        <time>2025-09-27T10:38:07Z</time>
      </trkpt>
      <trkpt lat="43.74908" lon="6.89993">
        <ele>1228.5</ele>
        <time>2025-09-27T10:38:14Z</time>
      </trkpt>
      <trkpt lat="43.7491" lon="6.89987">
        <ele>1229.8</ele>
        <time>2025-09-27T10:38:26Z</time>
      </trkpt>
      <trkpt lat="43.74911" lon="6.89981">
        <ele>1231.2</ele>
        <time>2025-09-27T10:38:35Z</time>
      </trkpt>
      <trkpt lat="43.74912" lon="6.89974">
        <ele>1232.6</ele>
        <time>2025-09-27T10:38:42Z</time>
      </trkpt>
      <trkpt lat="43.74916" lon="6.89973">
        <ele>1234</ele>
        <time>2025-09-27T10:38:57Z</time>
      </trkpt>
      <trkpt lat="43.74919" lon="6.89968">
        <ele>1235.5</ele>
        <time>2025-09-27T10:39:06Z</time>
      </trkpt>
      <trkpt lat="43.74923" lon="6.89963">
        <ele>1236.9</ele>
        <time>2025-09-27T10:39:16Z</time>
      </trkpt>
      <trkpt lat="43.74926" lon="6.89968">
        <ele>1238</ele>
        <time>2025-09-27T10:39:25Z</time>
      </trkpt>
      <trkpt lat="43.74931" lon="6.89969">
        <ele>1239.3</ele>
        <time>2025-09-27T10:39:49Z</time>
      </trkpt>
      <trkpt lat="43.74933" lon="6.89975">
        <ele>1240.4</ele>
        <time>2025-09-27T10:39:55Z</time>
      </trkpt>
      <trkpt lat="43.74935" lon="6.89981">
        <ele>1241.5</ele>
        <time>2025-09-27T10:40:02Z</time>
      </trkpt>
      <trkpt lat="43.74938" lon="6.89986">
        <ele>1242.4</ele>
        <time>2025-09-27T10:40:16Z</time>
      </trkpt>
      <trkpt lat="43.74941" lon="6.89992">
        <ele>1243.3</ele>
        <time>2025-09-27T10:40:28Z</time>
      </trkpt>
      <trkpt lat="43.74941" lon="6.89999">
        <ele>1244</ele>
        <time>2025-09-27T10:40:36Z</time>
      </trkpt>
      <trkpt lat="43.74941" lon="6.90005">
        <ele>1244.6</ele>
        <time>2025-09-27T10:41:40Z</time>
      </trkpt>
      <trkpt lat="43.74945" lon="6.9001">
        <ele>1245.1</ele>
        <time>2025-09-27T10:43:38Z</time>
      </trkpt>
      <trkpt lat="43.74945" lon="6.90016">
        <ele>1245.5</ele>
        <time>2025-09-27T10:43:41Z</time>
      </trkpt>
      <trkpt lat="43.74948" lon="6.90023">
        <ele>1246.1</ele>
        <time>2025-09-27T10:43:44Z</time>
      </trkpt>
      <trkpt lat="43.74951" lon="6.90028">
        <ele>1246.8</ele>
        <time>2025-09-27T10:43:48Z</time>
      </trkpt>
      <trkpt lat="43.74954" lon="6.90033">
        <ele>1247.5</ele>
        <time>2025-09-27T10:43:57Z</time>
      </trkpt>
      <trkpt lat="43.74957" lon="6.90037">
        <ele>1248.2</ele>
        <time>2025-09-27T10:44:04Z</time>
      </trkpt>
      <trkpt lat="43.74961" lon="6.90042">
        <ele>1248.8</ele>
        <time>2025-09-27T10:44:12Z</time>
      </trkpt>
      <trkpt lat="43.74964" lon="6.90047">
        <ele>1249.4</ele>
        <time>2025-09-27T10:44:15Z</time>
      </trkpt>
      <trkpt lat="43.74967" lon="6.90052">
        <ele>1249.9</ele>
        <time>2025-09-27T10:44:18Z</time>
      </trkpt>
      <trkpt lat="43.74971" lon="6.90056">
        <ele>1250.5</ele>
        <time>2025-09-27T10:44:21Z</time>
      </trkpt>
      <trkpt lat="43.74975" lon="6.9006">
        <ele>1251.2</ele>
        <time>2025-09-27T10:44:24Z</time>
      </trkpt>
      <trkpt lat="43.74979" lon="6.90062">
        <ele>1251.9</ele>
        <time>2025-09-27T10:44:28Z</time>
      </trkpt>
      <trkpt lat="43.74983" lon="6.90067">
        <ele>1252.6</ele>
        <time>2025-09-27T10:44:32Z</time>
      </trkpt>
      <trkpt lat="43.74988" lon="6.90071">
        <ele>1253.4</ele>
        <time>2025-09-27T10:44:38Z</time>
      </trkpt>
      <trkpt lat="43.74993" lon="6.90074">
        <ele>1254.1</ele>
        <time>2025-09-27T10:44:43Z</time>
      </trkpt>
      <trkpt lat="43.74996" lon="6.90078">
        <ele>1254.7</ele>
        <time>2025-09-27T10:44:47Z</time>
      </trkpt>
      <trkpt lat="43.75" lon="6.90083">
        <ele>1255.3</ele>
        <time>2025-09-27T10:44:51Z</time>
      </trkpt>
      <trkpt lat="43.75003" lon="6.90088">
        <ele>1255.8</ele>
        <time>2025-09-27T10:44:55Z</time>
      </trkpt>
      <trkpt lat="43.75006" lon="6.90092">
        <ele>1256.3</ele>
        <time>2025-09-27T10:44:58Z</time>
      </trkpt>
      <trkpt lat="43.75011" lon="6.90098">
        <ele>1256.9</ele>
        <time>2025-09-27T10:45:02Z</time>
      </trkpt>
      <trkpt lat="43.75013" lon="6.90105">
        <ele>1257.4</ele>
        <time>2025-09-27T10:45:05Z</time>
      </trkpt>
      <trkpt lat="43.75015" lon="6.9011">
        <ele>1257.9</ele>
        <time>2025-09-27T10:45:08Z</time>
      </trkpt>
      <trkpt lat="43.75018" lon="6.90118">
        <ele>1258.4</ele>
        <time>2025-09-27T10:45:12Z</time>
      </trkpt>
      <trkpt lat="43.7502" lon="6.90124">
        <ele>1258.5</ele>
        <time>2025-09-27T10:45:15Z</time>
      </trkpt>
      <trkpt lat="43.75023" lon="6.90131">
        <ele>1258.6</ele>
        <time>2025-09-27T10:45:18Z</time>
      </trkpt>
      <trkpt lat="43.75027" lon="6.90137">
        <ele>1258.8</ele>
        <time>2025-09-27T10:45:20Z</time>
      </trkpt>
      <trkpt lat="43.7503" lon="6.90143">
        <ele>1259</ele>
        <time>2025-09-27T10:45:23Z</time>
      </trkpt>
      <trkpt lat="43.75034" lon="6.90149">
        <ele>1259.4</ele>
        <time>2025-09-27T10:45:26Z</time>
      </trkpt>
      <trkpt lat="43.75038" lon="6.90153">
        <ele>1259.6</ele>
        <time>2025-09-27T10:45:29Z</time>
      </trkpt>
      <trkpt lat="43.75042" lon="6.90158">
        <ele>1259.6</ele>
        <time>2025-09-27T10:45:32Z</time>
      </trkpt>
      <trkpt lat="43.75046" lon="6.90167">
        <ele>1259.4</ele>
        <time>2025-09-27T10:45:34Z</time>
      </trkpt>
      <trkpt lat="43.75048" lon="6.90173">
        <ele>1259.3</ele>
        <time>2025-09-27T10:45:35Z</time>
      </trkpt>
      <trkpt lat="43.75051" lon="6.90178">
        <ele>1259.3</ele>
        <time>2025-09-27T10:45:36Z</time>
      </trkpt>
      <trkpt lat="43.75054" lon="6.90184">
        <ele>1259.4</ele>
        <time>2025-09-27T10:45:37Z</time>
      </trkpt>
      <trkpt lat="43.75061" lon="6.90191">
        <ele>1259.9</ele>
        <time>2025-09-27T10:45:39Z</time>
      </trkpt>
      <trkpt lat="43.75064" lon="6.90195">
        <ele>1260.3</ele>
        <time>2025-09-27T10:45:41Z</time>
      </trkpt>
      <trkpt lat="43.75067" lon="6.90202">
        <ele>1260.9</ele>
        <time>2025-09-27T10:45:44Z</time>
      </trkpt>
      <trkpt lat="43.75072" lon="6.90207">
        <ele>1261.6</ele>
        <time>2025-09-27T10:45:47Z</time>
      </trkpt>
      <trkpt lat="43.75077" lon="6.90211">
        <ele>1262.2</ele>
        <time>2025-09-27T10:45:50Z</time>
      </trkpt>
      <trkpt lat="43.7508" lon="6.90217">
        <ele>1262.8</ele>
        <time>2025-09-27T10:45:53Z</time>
      </trkpt>
      <trkpt lat="43.75083" lon="6.90223">
        <ele>1263.4</ele>
        <time>2025-09-27T10:45:57Z</time>
      </trkpt>
      <trkpt lat="43.75086" lon="6.9023">
        <ele>1263.8</ele>
        <time>2025-09-27T10:46:00Z</time>
      </trkpt>
      <trkpt lat="43.75088" lon="6.90237">
        <ele>1264.2</ele>
        <time>2025-09-27T10:46:03Z</time>
      </trkpt>
      <trkpt lat="43.75091" lon="6.90243">
        <ele>1264.8</ele>
        <time>2025-09-27T10:46:06Z</time>
      </trkpt>
      <trkpt lat="43.75096" lon="6.90246">
        <ele>1265.4</ele>
        <time>2025-09-27T10:46:09Z</time>
      </trkpt>
      <trkpt lat="43.751" lon="6.90249">
        <ele>1266.3</ele>
        <time>2025-09-27T10:46:16Z</time>
      </trkpt>
      <trkpt lat="43.75104" lon="6.90253">
        <ele>1267.2</ele>
        <time>2025-09-27T10:46:25Z</time>
      </trkpt>
      <trkpt lat="43.75107" lon="6.90259">
        <ele>1268.2</ele>
        <time>2025-09-27T10:46:31Z</time>
      </trkpt>
      <trkpt lat="43.7511" lon="6.90264">
        <ele>1269</ele>
        <time>2025-09-27T10:46:39Z</time>
      </trkpt>
      <trkpt lat="43.75112" lon="6.9027">
        <ele>1269.8</ele>
        <time>2025-09-27T10:46:45Z</time>
      </trkpt>
      <trkpt lat="43.75115" lon="6.90275">
        <ele>1270.6</ele>
        <time>2025-09-27T10:46:51Z</time>
      </trkpt>
      <trkpt lat="43.75119" lon="6.9028">
        <ele>1271.2</ele>
        <time>2025-09-27T10:46:59Z</time>
      </trkpt>
      <trkpt lat="43.75122" lon="6.90286">
        <ele>1271.5</ele>
        <time>2025-09-27T10:47:05Z</time>
      </trkpt>
      <trkpt lat="43.75125" lon="6.90291">
        <ele>1271.7</ele>
        <time>2025-09-27T10:47:08Z</time>
      </trkpt>
      <trkpt lat="43.75128" lon="6.90296">
        <ele>1271.8</ele>
        <time>2025-09-27T10:47:11Z</time>
      </trkpt>
      <trkpt lat="43.7513" lon="6.90304">
        <ele>1271.6</ele>
        <time>2025-09-27T10:47:14Z</time>
      </trkpt>
      <trkpt lat="43.75132" lon="6.90311">
        <ele>1271.3</ele>
        <time>2025-09-27T10:47:16Z</time>
      </trkpt>
      <trkpt lat="43.75132" lon="6.90319">
        <ele>1271</ele>
        <time>2025-09-27T10:47:18Z</time>
      </trkpt>
      <trkpt lat="43.75133" lon="6.9033">
        <ele>1270.7</ele>
        <time>2025-09-27T10:47:20Z</time>
      </trkpt>
      <trkpt lat="43.75136" lon="6.90341">
        <ele>1270.8</ele>
        <time>2025-09-27T10:47:22Z</time>
      </trkpt>
      <trkpt lat="43.75139" lon="6.90347">
        <ele>1271.2</ele>
        <time>2025-09-27T10:47:24Z</time>
      </trkpt>
      <trkpt lat="43.75141" lon="6.90355">
        <ele>1271.6</ele>
        <time>2025-09-27T10:47:27Z</time>
      </trkpt>
      <trkpt lat="43.75143" lon="6.90361">
        <ele>1272.1</ele>
        <time>2025-09-27T10:47:30Z</time>
      </trkpt>
      <trkpt lat="43.75145" lon="6.90368">
        <ele>1272.6</ele>
        <time>2025-09-27T10:47:33Z</time>
      </trkpt>
      <trkpt lat="43.75147" lon="6.90375">
        <ele>1273</ele>
        <time>2025-09-27T10:47:36Z</time>
      </trkpt>
      <trkpt lat="43.7515" lon="6.90381">
        <ele>1273.2</ele>
        <time>2025-09-27T10:47:39Z</time>
      </trkpt>
      <trkpt lat="43.75152" lon="6.90388">
        <ele>1273.4</ele>
        <time>2025-09-27T10:47:42Z</time>
      </trkpt>
      <trkpt lat="43.75154" lon="6.90396">
        <ele>1273.4</ele>
        <time>2025-09-27T10:47:45Z</time>
      </trkpt>
      <trkpt lat="43.75156" lon="6.90402">
        <ele>1273.4</ele>
        <time>2025-09-27T10:47:47Z</time>
      </trkpt>
      <trkpt lat="43.75159" lon="6.90408">
        <ele>1273.3</ele>
        <time>2025-09-27T10:47:49Z</time>
      </trkpt>
      <trkpt lat="43.75163" lon="6.90414">
        <ele>1273.3</ele>
        <time>2025-09-27T10:47:52Z</time>
      </trkpt>
      <trkpt lat="43.75168" lon="6.9042">
        <ele>1273.5</ele>
        <time>2025-09-27T10:47:55Z</time>
      </trkpt>
      <trkpt lat="43.75173" lon="6.90425">
        <ele>1273.8</ele>
        <time>2025-09-27T10:47:58Z</time>
      </trkpt>
      <trkpt lat="43.75177" lon="6.90429">
        <ele>1274.1</ele>
        <time>2025-09-27T10:48:00Z</time>
      </trkpt>
      <trkpt lat="43.75182" lon="6.90434">
        <ele>1274.6</ele>
        <time>2025-09-27T10:48:03Z</time>
      </trkpt>
      <trkpt lat="43.75186" lon="6.90441">
        <ele>1275.1</ele>
        <time>2025-09-27T10:48:06Z</time>
      </trkpt>
      <trkpt lat="43.75191" lon="6.90446">
        <ele>1275.6</ele>
        <time>2025-09-27T10:48:09Z</time>
      </trkpt>
      <trkpt lat="43.75195" lon="6.90452">
        <ele>1276.1</ele>
        <time>2025-09-27T10:48:12Z</time>
      </trkpt>
      <trkpt lat="43.75198" lon="6.90457">
        <ele>1276.7</ele>
        <time>2025-09-27T10:48:16Z</time>
      </trkpt>
      <trkpt lat="43.75201" lon="6.90463">
        <ele>1277.6</ele>
        <time>2025-09-27T10:48:24Z</time>
      </trkpt>
      <trkpt lat="43.75204" lon="6.90468">
        <ele>1278.2</ele>
        <time>2025-09-27T10:48:35Z</time>
      </trkpt>
      <trkpt lat="43.75205" lon="6.90474">
        <ele>1278.8</ele>
        <time>2025-09-27T10:48:44Z</time>
      </trkpt>
      <trkpt lat="43.75206" lon="6.90481">
        <ele>1279.1</ele>
        <time>2025-09-27T10:48:52Z</time>
      </trkpt>
      <trkpt lat="43.75207" lon="6.90488">
        <ele>1279.3</ele>
        <time>2025-09-27T10:48:59Z</time>
      </trkpt>
      <trkpt lat="43.75208" lon="6.90495">
        <ele>1279.4</ele>
        <time>2025-09-27T10:49:02Z</time>
      </trkpt>
      <trkpt lat="43.7521" lon="6.90502">
        <ele>1279.4</ele>
        <time>2025-09-27T10:49:05Z</time>
      </trkpt>
      <trkpt lat="43.75212" lon="6.90509">
        <ele>1279.4</ele>
        <time>2025-09-27T10:49:08Z</time>
      </trkpt>
      <trkpt lat="43.75214" lon="6.90515">
        <ele>1279.4</ele>
        <time>2025-09-27T10:49:10Z</time>
      </trkpt>
      <trkpt lat="43.75216" lon="6.90522">
        <ele>1279.2</ele>
        <time>2025-09-27T10:49:13Z</time>
      </trkpt>
      <trkpt lat="43.75218" lon="6.90528">
        <ele>1278.9</ele>
        <time>2025-09-27T10:49:16Z</time>
      </trkpt>
      <trkpt lat="43.75219" lon="6.90535">
        <ele>1278.5</ele>
        <time>2025-09-27T10:50:27Z</time>
      </trkpt>
      <trkpt lat="43.75222" lon="6.90544">
        <ele>1277.8</ele>
        <time>2025-09-27T10:50:29Z</time>
      </trkpt>
      <trkpt lat="43.75224" lon="6.90554">
        <ele>1276.8</ele>
        <time>2025-09-27T10:50:31Z</time>
      </trkpt>
      <trkpt lat="43.75226" lon="6.9056">
        <ele>1276.3</ele>
        <time>2025-09-27T10:50:32Z</time>
      </trkpt>
      <trkpt lat="43.75227" lon="6.90567">
        <ele>1275.8</ele>
        <time>2025-09-27T10:50:33Z</time>
      </trkpt>
      <trkpt lat="43.75229" lon="6.90574">
        <ele>1275.2</ele>
        <time>2025-09-27T10:50:34Z</time>
      </trkpt>
      <trkpt lat="43.75231" lon="6.90582">
        <ele>1274.6</ele>
        <time>2025-09-27T10:50:35Z</time>
      </trkpt>
      <trkpt lat="43.75231" lon="6.90591">
        <ele>1274</ele>
        <time>2025-09-27T10:50:36Z</time>
      </trkpt>
      <trkpt lat="43.75232" lon="6.90599">
        <ele>1273.4</ele>
        <time>2025-09-27T10:50:37Z</time>
      </trkpt>
      <trkpt lat="43.75233" lon="6.90607">
        <ele>1272.7</ele>
        <time>2025-09-27T10:50:38Z</time>
      </trkpt>
      <trkpt lat="43.75235" lon="6.90616">
        <ele>1272</ele>
        <time>2025-09-27T10:50:39Z</time>
      </trkpt>
      <trkpt lat="43.75238" lon="6.90625">
        <ele>1271.3</ele>
        <time>2025-09-27T10:50:40Z</time>
      </trkpt>
      <trkpt lat="43.75241" lon="6.90634">
        <ele>1270.5</ele>
        <time>2025-09-27T10:50:41Z</time>
      </trkpt>
      <trkpt lat="43.75244" lon="6.90643">
        <ele>1269.8</ele>
        <time>2025-09-27T10:50:42Z</time>
      </trkpt>
      <trkpt lat="43.75248" lon="6.90652">
        <ele>1269.1</ele>
        <time>2025-09-27T10:50:43Z</time>
      </trkpt>
      <trkpt lat="43.7525" lon="6.9066">
        <ele>1268.4</ele>
        <time>2025-09-27T10:50:44Z</time>
      </trkpt>
      <trkpt lat="43.75252" lon="6.90668">
        <ele>1267.8</ele>
        <time>2025-09-27T10:50:45Z</time>
      </trkpt>
      <trkpt lat="43.75254" lon="6.90677">
        <ele>1267.1</ele>
        <time>2025-09-27T10:50:46Z</time>
      </trkpt>
      <trkpt lat="43.75256" lon="6.90687">
        <ele>1266.7</ele>
        <time>2025-09-27T10:50:47Z</time>
      </trkpt>
      <trkpt lat="43.75256" lon="6.90697">
        <ele>1266.3</ele>
        <time>2025-09-27T10:50:48Z</time>
      </trkpt>
      <trkpt lat="43.75257" lon="6.90708">
        <ele>1265.9</ele>
        <time>2025-09-27T10:50:49Z</time>
      </trkpt>
      <trkpt lat="43.75258" lon="6.90718">
        <ele>1265.7</ele>
        <time>2025-09-27T10:50:50Z</time>
      </trkpt>
      <trkpt lat="43.7526" lon="6.90727">
        <ele>1265.9</ele>
        <time>2025-09-27T10:50:51Z</time>
      </trkpt>
      <trkpt lat="43.75262" lon="6.90735">
        <ele>1266.2</ele>
        <time>2025-09-27T10:50:52Z</time>
      </trkpt>
      <trkpt lat="43.75263" lon="6.90745">
        <ele>1266.5</ele>
        <time>2025-09-27T10:50:54Z</time>
      </trkpt>
      <trkpt lat="43.75264" lon="6.90752">
        <ele>1266.6</ele>
        <time>2025-09-27T10:50:56Z</time>
      </trkpt>
      <trkpt lat="43.75266" lon="6.90758">
        <ele>1266.6</ele>
        <time>2025-09-27T10:50:58Z</time>
      </trkpt>
      <trkpt lat="43.75267" lon="6.90765">
        <ele>1266.5</ele>
        <time>2025-09-27T10:51:00Z</time>
      </trkpt>
      <trkpt lat="43.75269" lon="6.90773">
        <ele>1266.4</ele>
        <time>2025-09-27T10:51:02Z</time>
      </trkpt>
      <trkpt lat="43.75273" lon="6.90782">
        <ele>1266.2</ele>
        <time>2025-09-27T10:51:04Z</time>
      </trkpt>
      <trkpt lat="43.75276" lon="6.90792">
        <ele>1266</ele>
        <time>2025-09-27T10:51:06Z</time>
      </trkpt>
      <trkpt lat="43.75278" lon="6.90802">
        <ele>1265.8</ele>
        <time>2025-09-27T10:51:08Z</time>
      </trkpt>
      <trkpt lat="43.7528" lon="6.90811">
        <ele>1265.6</ele>
        <time>2025-09-27T10:51:10Z</time>
      </trkpt>
      <trkpt lat="43.75282" lon="6.90819">
        <ele>1265.5</ele>
        <time>2025-09-27T10:51:12Z</time>
      </trkpt>
      <trkpt lat="43.75285" lon="6.90826">
        <ele>1265.5</ele>
        <time>2025-09-27T10:51:14Z</time>
      </trkpt>
      <trkpt lat="43.75288" lon="6.90833">
        <ele>1265.6</ele>
        <time>2025-09-27T10:51:16Z</time>
      </trkpt>
      <trkpt lat="43.75291" lon="6.9084">
        <ele>1265.8</ele>
        <time>2025-09-27T10:51:18Z</time>
      </trkpt>
      <trkpt lat="43.75294" lon="6.90848">
        <ele>1266</ele>
        <time>2025-09-27T10:51:20Z</time>
      </trkpt>
      <trkpt lat="43.75296" lon="6.90854">
        <ele>1266.4</ele>
        <time>2025-09-27T10:51:22Z</time>
      </trkpt>
      <trkpt lat="43.75297" lon="6.9086">
        <ele>1266.7</ele>
        <time>2025-09-27T10:51:24Z</time>
      </trkpt>
      <trkpt lat="43.75299" lon="6.90869">
        <ele>1267</ele>
        <time>2025-09-27T10:51:27Z</time>
      </trkpt>
      <trkpt lat="43.75298" lon="6.90878">
        <ele>1267.6</ele>
        <time>2025-09-27T10:51:30Z</time>
      </trkpt>
      <trkpt lat="43.75297" lon="6.90884">
        <ele>1268</ele>
        <time>2025-09-27T10:51:33Z</time>
      </trkpt>
      <trkpt lat="43.75296" lon="6.90891">
        <ele>1268.4</ele>
        <time>2025-09-27T10:51:36Z</time>
      </trkpt>
      <trkpt lat="43.75294" lon="6.90899">
        <ele>1268.9</ele>
        <time>2025-09-27T10:51:39Z</time>
      </trkpt>
      <trkpt lat="43.75292" lon="6.90907">
        <ele>1269.3</ele>
        <time>2025-09-27T10:51:42Z</time>
      </trkpt>
      <trkpt lat="43.75291" lon="6.90914">
        <ele>1269.6</ele>
        <time>2025-09-27T10:51:45Z</time>
      </trkpt>
      <trkpt lat="43.7529" lon="6.90921">
        <ele>1269.9</ele>
        <time>2025-09-27T10:51:48Z</time>
      </trkpt>
      <trkpt lat="43.75288" lon="6.90928">
        <ele>1270.1</ele>
        <time>2025-09-27T10:51:51Z</time>
      </trkpt>
      <trkpt lat="43.75288" lon="6.90936">
        <ele>1270.2</ele>
        <time>2025-09-27T10:51:54Z</time>
      </trkpt>
      <trkpt lat="43.75288" lon="6.90944">
        <ele>1270.2</ele>
        <time>2025-09-27T10:51:57Z</time>
      </trkpt>
      <trkpt lat="43.75289" lon="6.90952">
        <ele>1270.2</ele>
        <time>2025-09-27T10:52:00Z</time>
      </trkpt>
      <trkpt lat="43.75288" lon="6.90961">
        <ele>1270.1</ele>
        <time>2025-09-27T10:52:03Z</time>
      </trkpt>
      <trkpt lat="43.7529" lon="6.9097">
        <ele>1270.1</ele>
        <time>2025-09-27T10:52:06Z</time>
      </trkpt>
      <trkpt lat="43.7529" lon="6.90976">
        <ele>1270</ele>
        <time>2025-09-27T10:52:08Z</time>
      </trkpt>
      <trkpt lat="43.75291" lon="6.90983">
        <ele>1269.9</ele>
        <time>2025-09-27T10:52:10Z</time>
      </trkpt>
      <trkpt lat="43.7529" lon="6.9099">
        <ele>1269.7</ele>
        <time>2025-09-27T10:52:12Z</time>
      </trkpt>
      <trkpt lat="43.75289" lon="6.90997">
        <ele>1269.5</ele>
        <time>2025-09-27T10:52:14Z</time>
      </trkpt>
      <trkpt lat="43.75286" lon="6.91006">
        <ele>1269.1</ele>
        <time>2025-09-27T10:52:16Z</time>
      </trkpt>
      <trkpt lat="43.75285" lon="6.91016">
        <ele>1268.5</ele>
        <time>2025-09-27T10:52:18Z</time>
      </trkpt>
      <trkpt lat="43.75283" lon="6.91027">
        <ele>1267.8</ele>
        <time>2025-09-27T10:52:20Z</time>
      </trkpt>
      <trkpt lat="43.7528" lon="6.91039">
        <ele>1267</ele>
        <time>2025-09-27T10:52:22Z</time>
      </trkpt>
      <trkpt lat="43.75278" lon="6.91046">
        <ele>1266.7</ele>
        <time>2025-09-27T10:52:23Z</time>
      </trkpt>
      <trkpt lat="43.75277" lon="6.91053">
        <ele>1266.4</ele>
        <time>2025-09-27T10:52:24Z</time>
      </trkpt>
      <trkpt lat="43.75276" lon="6.9106">
        <ele>1266.1</ele>
        <time>2025-09-27T10:52:25Z</time>
      </trkpt>
      <trkpt lat="43.75275" lon="6.91067">
        <ele>1265.8</ele>
        <time>2025-09-27T10:52:26Z</time>
      </trkpt>
      <trkpt lat="43.75274" lon="6.91074">
        <ele>1265.5</ele>
        <time>2025-09-27T10:52:27Z</time>
      </trkpt>
      <trkpt lat="43.75274" lon="6.91082">
        <ele>1265.3</ele>
        <time>2025-09-27T10:52:28Z</time>
      </trkpt>
      <trkpt lat="43.75273" lon="6.9109">
        <ele>1265.1</ele>
        <time>2025-09-27T10:52:29Z</time>
      </trkpt>
      <trkpt lat="43.75273" lon="6.91097">
        <ele>1264.9</ele>
        <time>2025-09-27T10:52:30Z</time>
      </trkpt>
      <trkpt lat="43.75273" lon="6.91103">
        <ele>1264.7</ele>
        <time>2025-09-27T10:52:31Z</time>
      </trkpt>
      <trkpt lat="43.75272" lon="6.9111">
        <ele>1264.6</ele>
        <time>2025-09-27T10:52:32Z</time>
      </trkpt>
      <trkpt lat="43.75272" lon="6.91117">
        <ele>1264.5</ele>
        <time>2025-09-27T10:52:33Z</time>
      </trkpt>
      <trkpt lat="43.75272" lon="6.91123">
        <ele>1264.4</ele>
        <time>2025-09-27T10:52:34Z</time>
      </trkpt>
      <trkpt lat="43.75272" lon="6.91136">
        <ele>1264.2</ele>
        <time>2025-09-27T10:52:36Z</time>
      </trkpt>
      <trkpt lat="43.75271" lon="6.91143">
        <ele>1264</ele>
        <time>2025-09-27T10:52:37Z</time>
      </trkpt>
      <trkpt lat="43.75271" lon="6.9115">
        <ele>1263.8</ele>
        <time>2025-09-27T10:52:38Z</time>
      </trkpt>
      <trkpt lat="43.7527" lon="6.91158">
        <ele>1263.5</ele>
        <time>2025-09-27T10:52:39Z</time>
      </trkpt>
      <trkpt lat="43.75269" lon="6.91166">
        <ele>1263.2</ele>
        <time>2025-09-27T10:52:40Z</time>
      </trkpt>
      <trkpt lat="43.75269" lon="6.91175">
        <ele>1262.9</ele>
        <time>2025-09-27T10:52:41Z</time>
      </trkpt>
      <trkpt lat="43.75268" lon="6.91183">
        <ele>1262.5</ele>
        <time>2025-09-27T10:52:42Z</time>
      </trkpt>
      <trkpt lat="43.75267" lon="6.91192">
        <ele>1262.2</ele>
        <time>2025-09-27T10:52:43Z</time>
      </trkpt>
      <trkpt lat="43.75266" lon="6.912">
        <ele>1261.9</ele>
        <time>2025-09-27T10:52:44Z</time>
      </trkpt>
      <trkpt lat="43.75265" lon="6.91208">
        <ele>1261.7</ele>
        <time>2025-09-27T10:52:45Z</time>
      </trkpt>
      <trkpt lat="43.75265" lon="6.91217">
        <ele>1261.4</ele>
        <time>2025-09-27T10:52:46Z</time>
      </trkpt>
      <trkpt lat="43.75264" lon="6.91224">
        <ele>1261.2</ele>
        <time>2025-09-27T10:52:47Z</time>
      </trkpt>
      <trkpt lat="43.75264" lon="6.91232">
        <ele>1261</ele>
        <time>2025-09-27T10:52:48Z</time>
      </trkpt>
      <trkpt lat="43.75264" lon="6.9124">
        <ele>1260.8</ele>
        <time>2025-09-27T10:52:49Z</time>
      </trkpt>
      <trkpt lat="43.75264" lon="6.91247">
        <ele>1260.7</ele>
        <time>2025-09-27T10:52:50Z</time>
      </trkpt>
      <trkpt lat="43.75264" lon="6.91254">
        <ele>1260.7</ele>
        <time>2025-09-27T10:52:51Z</time>
      </trkpt>
      <trkpt lat="43.75265" lon="6.91262">
        <ele>1260.7</ele>
        <time>2025-09-27T10:52:52Z</time>
      </trkpt>
      <trkpt lat="43.75266" lon="6.91269">
        <ele>1260.7</ele>
        <time>2025-09-27T10:52:53Z</time>
      </trkpt>
      <trkpt lat="43.75266" lon="6.91276">
        <ele>1260.7</ele>
        <time>2025-09-27T10:52:54Z</time>
      </trkpt>
      <trkpt lat="43.75268" lon="6.91283">
        <ele>1260.7</ele>
        <time>2025-09-27T10:52:55Z</time>
      </trkpt>
      <trkpt lat="43.75269" lon="6.9129">
        <ele>1260.7</ele>
        <time>2025-09-27T10:52:56Z</time>
      </trkpt>
      <trkpt lat="43.7527" lon="6.91296">
        <ele>1260.7</ele>
        <time>2025-09-27T10:52:57Z</time>
      </trkpt>
      <trkpt lat="43.75271" lon="6.91302">
        <ele>1260.7</ele>
        <time>2025-09-27T10:52:58Z</time>
      </trkpt>
      <trkpt lat="43.75273" lon="6.91308">
        <ele>1260.7</ele>
        <time>2025-09-27T10:52:59Z</time>
      </trkpt>
      <trkpt lat="43.75276" lon="6.9132">
        <ele>1260.8</ele>
        <time>2025-09-27T10:53:01Z</time>
      </trkpt>
      <trkpt lat="43.75279" lon="6.91331">
        <ele>1260.7</ele>
        <time>2025-09-27T10:53:03Z</time>
      </trkpt>
      <trkpt lat="43.75282" lon="6.91343">
        <ele>1260.5</ele>
        <time>2025-09-27T10:53:05Z</time>
      </trkpt>
      <trkpt lat="43.75284" lon="6.91349">
        <ele>1260.4</ele>
        <time>2025-09-27T10:53:06Z</time>
      </trkpt>
      <trkpt lat="43.75286" lon="6.91361">
        <ele>1260.1</ele>
        <time>2025-09-27T10:53:08Z</time>
      </trkpt>
      <trkpt lat="43.75288" lon="6.91373">
        <ele>1259.8</ele>
        <time>2025-09-27T10:53:10Z</time>
      </trkpt>
      <trkpt lat="43.75289" lon="6.91384">
        <ele>1259.4</ele>
        <time>2025-09-27T10:53:12Z</time>
      </trkpt>
      <trkpt lat="43.7529" lon="6.91396">
        <ele>1259</ele>
        <time>2025-09-27T10:53:14Z</time>
      </trkpt>
      <trkpt lat="43.75291" lon="6.91407">
        <ele>1258.6</ele>
        <time>2025-09-27T10:53:16Z</time>
      </trkpt>
      <trkpt lat="43.75294" lon="6.91417">
        <ele>1258.2</ele>
        <time>2025-09-27T10:53:18Z</time>
      </trkpt>
      <trkpt lat="43.75298" lon="6.91428">
        <ele>1257.8</ele>
        <time>2025-09-27T10:53:20Z</time>
      </trkpt>
      <trkpt lat="43.753" lon="6.91439">
        <ele>1257.5</ele>
        <time>2025-09-27T10:53:22Z</time>
      </trkpt>
      <trkpt lat="43.75299" lon="6.91449">
        <ele>1257.1</ele>
        <time>2025-09-27T10:53:24Z</time>
      </trkpt>
      <trkpt lat="43.75297" lon="6.91459">
        <ele>1256.8</ele>
        <time>2025-09-27T10:53:26Z</time>
      </trkpt>
      <trkpt lat="43.75296" lon="6.9147">
        <ele>1256.4</ele>
        <time>2025-09-27T10:53:28Z</time>
      </trkpt>
      <trkpt lat="43.75296" lon="6.91476">
        <ele>1256.1</ele>
        <time>2025-09-27T10:53:29Z</time>
      </trkpt>
      <trkpt lat="43.75295" lon="6.91483">
        <ele>1255.9</ele>
        <time>2025-09-27T10:53:30Z</time>
      </trkpt>
      <trkpt lat="43.75294" lon="6.9149">
        <ele>1255.8</ele>
        <time>2025-09-27T10:53:31Z</time>
      </trkpt>
      <trkpt lat="43.75292" lon="6.91496">
        <ele>1255.6</ele>
        <time>2025-09-27T10:53:32Z</time>
      </trkpt>
      <trkpt lat="43.7529" lon="6.91502">
        <ele>1255.5</ele>
        <time>2025-09-27T10:53:33Z</time>
      </trkpt>
      <trkpt lat="43.75288" lon="6.91507">
        <ele>1255.3</ele>
        <time>2025-09-27T10:53:34Z</time>
      </trkpt>
      <trkpt lat="43.75286" lon="6.91513">
        <ele>1255.3</ele>
        <time>2025-09-27T10:53:35Z</time>
      </trkpt>
      <trkpt lat="43.75285" lon="6.91519">
        <ele>1255.2</ele>
        <time>2025-09-27T10:53:36Z</time>
      </trkpt>
      <trkpt lat="43.75283" lon="6.91525">
        <ele>1255.1</ele>
        <time>2025-09-27T10:53:37Z</time>
      </trkpt>
      <trkpt lat="43.75282" lon="6.91531">
        <ele>1255.1</ele>
        <time>2025-09-27T10:53:38Z</time>
      </trkpt>
      <trkpt lat="43.75282" lon="6.91538">
        <ele>1255</ele>
        <time>2025-09-27T10:53:39Z</time>
      </trkpt>
      <trkpt lat="43.75281" lon="6.91544">
        <ele>1254.9</ele>
        <time>2025-09-27T10:53:40Z</time>
      </trkpt>
      <trkpt lat="43.75281" lon="6.91551">
        <ele>1254.8</ele>
        <time>2025-09-27T10:53:41Z</time>
      </trkpt>
      <trkpt lat="43.7528" lon="6.91557">
        <ele>1254.7</ele>
        <time>2025-09-27T10:53:42Z</time>
      </trkpt>
      <trkpt lat="43.75279" lon="6.91564">
        <ele>1254.5</ele>
        <time>2025-09-27T10:53:43Z</time>
      </trkpt>
      <trkpt lat="43.75278" lon="6.91571">
        <ele>1254.3</ele>
        <time>2025-09-27T10:53:44Z</time>
      </trkpt>
      <trkpt lat="43.75276" lon="6.91578">
        <ele>1254.2</ele>
        <time>2025-09-27T10:53:45Z</time>
      </trkpt>
      <trkpt lat="43.75274" lon="6.91585">
        <ele>1254</ele>
        <time>2025-09-27T10:53:46Z</time>
      </trkpt>
      <trkpt lat="43.75272" lon="6.91593">
        <ele>1253.8</ele>
        <time>2025-09-27T10:53:47Z</time>
      </trkpt>
      <trkpt lat="43.75269" lon="6.916">
        <ele>1253.8</ele>
        <time>2025-09-27T10:53:48Z</time>
      </trkpt>
      <trkpt lat="43.75266" lon="6.91606">
        <ele>1253.7</ele>
        <time>2025-09-27T10:53:49Z</time>
      </trkpt>
      <trkpt lat="43.75263" lon="6.91613">
        <ele>1253.8</ele>
        <time>2025-09-27T10:53:50Z</time>
      </trkpt>
      <trkpt lat="43.7526" lon="6.91619">
        <ele>1253.9</ele>
        <time>2025-09-27T10:53:51Z</time>
      </trkpt>
      <trkpt lat="43.75257" lon="6.91626">
        <ele>1254.1</ele>
        <time>2025-09-27T10:53:52Z</time>
      </trkpt>
      <trkpt lat="43.75254" lon="6.91631">
        <ele>1254.2</ele>
        <time>2025-09-27T10:53:53Z</time>
      </trkpt>
      <trkpt lat="43.75251" lon="6.91637">
        <ele>1254.4</ele>
        <time>2025-09-27T10:53:54Z</time>
      </trkpt>
      <trkpt lat="43.75248" lon="6.91643">
        <ele>1254.6</ele>
        <time>2025-09-27T10:53:55Z</time>
      </trkpt>
      <trkpt lat="43.75246" lon="6.91648">
        <ele>1254.8</ele>
        <time>2025-09-27T10:53:56Z</time>
      </trkpt>
      <trkpt lat="43.75242" lon="6.91658">
        <ele>1255.1</ele>
        <time>2025-09-27T10:53:58Z</time>
      </trkpt>
      <trkpt lat="43.75237" lon="6.91668">
        <ele>1255.3</ele>
        <time>2025-09-27T10:54:00Z</time>
      </trkpt>
      <trkpt lat="43.75232" lon="6.91677">
        <ele>1255.4</ele>
        <time>2025-09-27T10:54:02Z</time>
      </trkpt>
      <trkpt lat="43.75227" lon="6.91686">
        <ele>1255.5</ele>
        <time>2025-09-27T10:54:04Z</time>
      </trkpt>
      <trkpt lat="43.75222" lon="6.91696">
        <ele>1255.5</ele>
        <time>2025-09-27T10:54:06Z</time>
      </trkpt>
      <trkpt lat="43.75216" lon="6.91706">
        <ele>1255.5</ele>
        <time>2025-09-27T10:54:08Z</time>
      </trkpt>
      <trkpt lat="43.75211" lon="6.91716">
        <ele>1255.5</ele>
        <time>2025-09-27T10:54:10Z</time>
      </trkpt>
      <trkpt lat="43.75208" lon="6.91721">
        <ele>1255.6</ele>
        <time>2025-09-27T10:54:11Z</time>
      </trkpt>
      <trkpt lat="43.75202" lon="6.91731">
        <ele>1255.7</ele>
        <time>2025-09-27T10:54:13Z</time>
      </trkpt>
      <trkpt lat="43.75197" lon="6.9174">
        <ele>1255.8</ele>
        <time>2025-09-27T10:54:15Z</time>
      </trkpt>
      <trkpt lat="43.75192" lon="6.9175">
        <ele>1255.9</ele>
        <time>2025-09-27T10:54:17Z</time>
      </trkpt>
      <trkpt lat="43.75187" lon="6.91759">
        <ele>1256</ele>
        <time>2025-09-27T10:54:19Z</time>
      </trkpt>
      <trkpt lat="43.75181" lon="6.91767">
        <ele>1256.1</ele>
        <time>2025-09-27T10:54:21Z</time>
      </trkpt>
      <trkpt lat="43.75176" lon="6.91775">
        <ele>1256.2</ele>
        <time>2025-09-27T10:54:23Z</time>
      </trkpt>
      <trkpt lat="43.7517" lon="6.91782">
        <ele>1256.3</ele>
        <time>2025-09-27T10:54:25Z</time>
      </trkpt>
      <trkpt lat="43.75164" lon="6.91789">
        <ele>1256.4</ele>
        <time>2025-09-27T10:54:27Z</time>
      </trkpt>
      <trkpt lat="43.75159" lon="6.91795">
        <ele>1256.5</ele>
        <time>2025-09-27T10:54:29Z</time>
      </trkpt>
      <trkpt lat="43.75154" lon="6.91802">
        <ele>1256.5</ele>
        <time>2025-09-27T10:54:31Z</time>
      </trkpt>
      <trkpt lat="43.75149" lon="6.91808">
        <ele>1256.6</ele>
        <time>2025-09-27T10:54:33Z</time>
      </trkpt>
      <trkpt lat="43.75144" lon="6.91815">
        <ele>1256.6</ele>
        <time>2025-09-27T10:54:35Z</time>
      </trkpt>
      <trkpt lat="43.75138" lon="6.91823">
        <ele>1256.7</ele>
        <time>2025-09-27T10:54:37Z</time>
      </trkpt>
      <trkpt lat="43.75134" lon="6.91832">
        <ele>1256.7</ele>
        <time>2025-09-27T10:54:39Z</time>
      </trkpt>
      <trkpt lat="43.75128" lon="6.9184">
        <ele>1256.8</ele>
        <time>2025-09-27T10:54:41Z</time>
      </trkpt>
      <trkpt lat="43.75123" lon="6.91849">
        <ele>1256.9</ele>
        <time>2025-09-27T10:54:43Z</time>
      </trkpt>
      <trkpt lat="43.75119" lon="6.91857">
        <ele>1257.1</ele>
        <time>2025-09-27T10:54:45Z</time>
      </trkpt>
      <trkpt lat="43.75114" lon="6.91865">
        <ele>1257.2</ele>
        <time>2025-09-27T10:54:47Z</time>
      </trkpt>
      <trkpt lat="43.7511" lon="6.91872">
        <ele>1257.3</ele>
        <time>2025-09-27T10:54:49Z</time>
      </trkpt>
      <trkpt lat="43.75106" lon="6.9188">
        <ele>1257.4</ele>
        <time>2025-09-27T10:54:51Z</time>
      </trkpt>
      <trkpt lat="43.75101" lon="6.91887">
        <ele>1257.3</ele>
        <time>2025-09-27T10:54:53Z</time>
      </trkpt>
      <trkpt lat="43.75097" lon="6.91895">
        <ele>1257.3</ele>
        <time>2025-09-27T10:54:55Z</time>
      </trkpt>
      <trkpt lat="43.75092" lon="6.91904">
        <ele>1257.2</ele>
        <time>2025-09-27T10:54:57Z</time>
      </trkpt>
      <trkpt lat="43.75088" lon="6.91914">
        <ele>1257.1</ele>
        <time>2025-09-27T10:54:59Z</time>
      </trkpt>
      <trkpt lat="43.75085" lon="6.91925">
        <ele>1256.9</ele>
        <time>2025-09-27T10:55:01Z</time>
      </trkpt>
      <trkpt lat="43.75083" lon="6.91937">
        <ele>1256.8</ele>
        <time>2025-09-27T10:55:03Z</time>
      </trkpt>
      <trkpt lat="43.75083" lon="6.91943">
        <ele>1256.7</ele>
        <time>2025-09-27T10:55:04Z</time>
      </trkpt>
      <trkpt lat="43.75082" lon="6.91949">
        <ele>1256.7</ele>
        <time>2025-09-27T10:55:05Z</time>
      </trkpt>
      <trkpt lat="43.75083" lon="6.91956">
        <ele>1256.7</ele>
        <time>2025-09-27T10:55:06Z</time>
      </trkpt>
      <trkpt lat="43.75084" lon="6.91963">
        <ele>1256.7</ele>
        <time>2025-09-27T10:55:07Z</time>
      </trkpt>
      <trkpt lat="43.75085" lon="6.91969">
        <ele>1256.7</ele>
        <time>2025-09-27T10:55:08Z</time>
      </trkpt>
      <trkpt lat="43.75087" lon="6.91975">
        <ele>1256.9</ele>
        <time>2025-09-27T10:55:09Z</time>
      </trkpt>
      <trkpt lat="43.75089" lon="6.91981">
        <ele>1257.1</ele>
        <time>2025-09-27T10:55:10Z</time>
      </trkpt>
      <trkpt lat="43.75091" lon="6.91991">
        <ele>1257.5</ele>
        <time>2025-09-27T10:55:12Z</time>
      </trkpt>
      <trkpt lat="43.75093" lon="6.91998">
        <ele>1257.9</ele>
        <time>2025-09-27T10:55:14Z</time>
      </trkpt>
      <trkpt lat="43.75095" lon="6.92004">
        <ele>1258.3</ele>
        <time>2025-09-27T10:55:16Z</time>
      </trkpt>
      <trkpt lat="43.75098" lon="6.92011">
        <ele>1258.9</ele>
        <time>2025-09-27T10:55:19Z</time>
      </trkpt>
      <trkpt lat="43.75102" lon="6.92019">
        <ele>1259.6</ele>
        <time>2025-09-27T10:55:22Z</time>
      </trkpt>
      <trkpt lat="43.75104" lon="6.92025">
        <ele>1260.2</ele>
        <time>2025-09-27T10:55:25Z</time>
      </trkpt>
      <trkpt lat="43.75106" lon="6.92032">
        <ele>1260.7</ele>
        <time>2025-09-27T10:55:28Z</time>
      </trkpt>
      <trkpt lat="43.75108" lon="6.92038">
        <ele>1261.2</ele>
        <time>2025-09-27T10:55:31Z</time>
      </trkpt>
      <trkpt lat="43.75111" lon="6.92044">
        <ele>1261.7</ele>
        <time>2025-09-27T10:55:34Z</time>
      </trkpt>
      <trkpt lat="43.75113" lon="6.9205">
        <ele>1262.2</ele>
        <time>2025-09-27T10:55:37Z</time>
      </trkpt>
      <trkpt lat="43.75115" lon="6.92056">
        <ele>1262.7</ele>
        <time>2025-09-27T10:55:40Z</time>
      </trkpt>
      <trkpt lat="43.75116" lon="6.92063">
        <ele>1263.3</ele>
        <time>2025-09-27T10:55:43Z</time>
      </trkpt>
      <trkpt lat="43.75117" lon="6.92069">
        <ele>1263.7</ele>
        <time>2025-09-27T10:55:46Z</time>
      </trkpt>
      <trkpt lat="43.75117" lon="6.92076">
        <ele>1264.2</ele>
        <time>2025-09-27T10:55:49Z</time>
      </trkpt>
      <trkpt lat="43.75117" lon="6.92083">
        <ele>1264.7</ele>
        <time>2025-09-27T10:55:52Z</time>
      </trkpt>
      <trkpt lat="43.75117" lon="6.9209">
        <ele>1265.1</ele>
        <time>2025-09-27T10:55:55Z</time>
      </trkpt>
      <trkpt lat="43.75117" lon="6.92097">
        <ele>1265.5</ele>
        <time>2025-09-27T10:55:58Z</time>
      </trkpt>
      <trkpt lat="43.75116" lon="6.92105">
        <ele>1265.9</ele>
        <time>2025-09-27T10:56:01Z</time>
      </trkpt>
      <trkpt lat="43.75115" lon="6.92112">
        <ele>1266.2</ele>
        <time>2025-09-27T10:56:04Z</time>
      </trkpt>
      <trkpt lat="43.75114" lon="6.9212">
        <ele>1266.3</ele>
        <time>2025-09-27T10:56:07Z</time>
      </trkpt>
      <trkpt lat="43.75112" lon="6.92127">
        <ele>1266.3</ele>
        <time>2025-09-27T10:56:10Z</time>
      </trkpt>
      <trkpt lat="43.75111" lon="6.92133">
        <ele>1266.2</ele>
        <time>2025-09-27T10:56:13Z</time>
      </trkpt>
      <trkpt lat="43.75109" lon="6.92139">
        <ele>1266</ele>
        <time>2025-09-27T10:56:16Z</time>
      </trkpt>
      <trkpt lat="43.75108" lon="6.92145">
        <ele>1265.8</ele>
        <time>2025-09-27T10:56:19Z</time>
      </trkpt>
      <trkpt lat="43.75106" lon="6.92154">
        <ele>1265.5</ele>
        <time>2025-09-27T10:56:22Z</time>
      </trkpt>
      <trkpt lat="43.75105" lon="6.92163">
        <ele>1265.2</ele>
        <time>2025-09-27T10:56:24Z</time>
      </trkpt>
      <trkpt lat="43.75103" lon="6.92173">
        <ele>1264.8</ele>
        <time>2025-09-27T10:56:26Z</time>
      </trkpt>
      <trkpt lat="43.75103" lon="6.92185">
        <ele>1264.6</ele>
        <time>2025-09-27T10:56:28Z</time>
      </trkpt>
      <trkpt lat="43.75103" lon="6.92197">
        <ele>1264.5</ele>
        <time>2025-09-27T10:56:30Z</time>
      </trkpt>
      <trkpt lat="43.75104" lon="6.92208">
        <ele>1264.6</ele>
        <time>2025-09-27T10:56:32Z</time>
      </trkpt>
      <trkpt lat="43.75107" lon="6.92216">
        <ele>1264.6</ele>
        <time>2025-09-27T10:56:34Z</time>
      </trkpt>
      <trkpt lat="43.7511" lon="6.92223">
        <ele>1264.8</ele>
        <time>2025-09-27T10:56:36Z</time>
      </trkpt>
      <trkpt lat="43.75113" lon="6.92228">
        <ele>1265</ele>
        <time>2025-09-27T10:56:38Z</time>
      </trkpt>
      <trkpt lat="43.75116" lon="6.92234">
        <ele>1265.2</ele>
        <time>2025-09-27T10:56:40Z</time>
      </trkpt>
      <trkpt lat="43.75119" lon="6.92241">
        <ele>1265.4</ele>
        <time>2025-09-27T10:56:42Z</time>
      </trkpt>
      <trkpt lat="43.7512" lon="6.92249">
        <ele>1265.6</ele>
        <time>2025-09-27T10:56:44Z</time>
      </trkpt>
      <trkpt lat="43.75121" lon="6.92256">
        <ele>1265.8</ele>
        <time>2025-09-27T10:56:46Z</time>
      </trkpt>
      <trkpt lat="43.75123" lon="6.92264">
        <ele>1265.9</ele>
        <time>2025-09-27T10:56:48Z</time>
      </trkpt>
      <trkpt lat="43.75126" lon="6.92271">
        <ele>1266</ele>
        <time>2025-09-27T10:56:50Z</time>
      </trkpt>
      <trkpt lat="43.7513" lon="6.92277">
        <ele>1266.1</ele>
        <time>2025-09-27T10:56:52Z</time>
      </trkpt>
      <trkpt lat="43.75135" lon="6.92283">
        <ele>1266.2</ele>
        <time>2025-09-27T10:56:54Z</time>
      </trkpt>
      <trkpt lat="43.75139" lon="6.92289">
        <ele>1266.3</ele>
        <time>2025-09-27T10:56:56Z</time>
      </trkpt>
      <trkpt lat="43.75143" lon="6.92294">
        <ele>1266.4</ele>
        <time>2025-09-27T10:56:58Z</time>
      </trkpt>
      <trkpt lat="43.75146" lon="6.92299">
        <ele>1266.4</ele>
        <time>2025-09-27T10:57:00Z</time>
      </trkpt>
      <trkpt lat="43.7515" lon="6.92307">
        <ele>1266.4</ele>
        <time>2025-09-27T10:57:03Z</time>
      </trkpt>
      <trkpt lat="43.75151" lon="6.92315">
        <ele>1266.4</ele>
        <time>2025-09-27T10:57:06Z</time>
      </trkpt>
      <trkpt lat="43.75152" lon="6.92323">
        <ele>1266.4</ele>
        <time>2025-09-27T10:57:08Z</time>
      </trkpt>
      <trkpt lat="43.75152" lon="6.9233">
        <ele>1266.5</ele>
        <time>2025-09-27T10:57:10Z</time>
      </trkpt>
      <trkpt lat="43.75152" lon="6.92338">
        <ele>1266.6</ele>
        <time>2025-09-27T10:57:12Z</time>
      </trkpt>
      <trkpt lat="43.75152" lon="6.92345">
        <ele>1266.7</ele>
        <time>2025-09-27T10:57:14Z</time>
      </trkpt>
      <trkpt lat="43.75151" lon="6.92353">
        <ele>1266.7</ele>
        <time>2025-09-27T10:57:16Z</time>
      </trkpt>
      <trkpt lat="43.7515" lon="6.92361">
        <ele>1266.8</ele>
        <time>2025-09-27T10:57:18Z</time>
      </trkpt>
      <trkpt lat="43.75148" lon="6.92369">
        <ele>1266.9</ele>
        <time>2025-09-27T10:57:20Z</time>
      </trkpt>
      <trkpt lat="43.75148" lon="6.92378">
        <ele>1266.9</ele>
        <time>2025-09-27T10:57:22Z</time>
      </trkpt>
      <trkpt lat="43.7515" lon="6.92386">
        <ele>1266.9</ele>
        <time>2025-09-27T10:57:24Z</time>
      </trkpt>
      <trkpt lat="43.75154" lon="6.92392">
        <ele>1267</ele>
        <time>2025-09-27T10:57:26Z</time>
      </trkpt>
      <trkpt lat="43.75159" lon="6.92396">
        <ele>1267</ele>
        <time>2025-09-27T10:57:28Z</time>
      </trkpt>
      <trkpt lat="43.75164" lon="6.92401">
        <ele>1267.1</ele>
        <time>2025-09-27T10:57:30Z</time>
      </trkpt>
      <trkpt lat="43.75166" lon="6.92407">
        <ele>1267.1</ele>
        <time>2025-09-27T10:57:32Z</time>
      </trkpt>
      <trkpt lat="43.75166" lon="6.92413">
        <ele>1267.1</ele>
        <time>2025-09-27T10:57:34Z</time>
      </trkpt>
      <trkpt lat="43.75165" lon="6.9242">
        <ele>1267.1</ele>
        <time>2025-09-27T10:57:36Z</time>
      </trkpt>
      <trkpt lat="43.75163" lon="6.92426">
        <ele>1267</ele>
        <time>2025-09-27T10:57:38Z</time>
      </trkpt>
      <trkpt lat="43.75161" lon="6.92433">
        <ele>1267</ele>
        <time>2025-09-27T10:57:40Z</time>
      </trkpt>
      <trkpt lat="43.75158" lon="6.92439">
        <ele>1267</ele>
        <time>2025-09-27T10:57:42Z</time>
      </trkpt>
      <trkpt lat="43.75156" lon="6.92444">
        <ele>1267</ele>
        <time>2025-09-27T10:57:44Z</time>
      </trkpt>
      <trkpt lat="43.75155" lon="6.92451">
        <ele>1267.1</ele>
        <time>2025-09-27T10:57:46Z</time>
      </trkpt>
      <trkpt lat="43.75155" lon="6.92457">
        <ele>1267.2</ele>
        <time>2025-09-27T10:57:48Z</time>
      </trkpt>
      <trkpt lat="43.75155" lon="6.92464">
        <ele>1267.3</ele>
        <time>2025-09-27T10:57:50Z</time>
      </trkpt>
      <trkpt lat="43.75156" lon="6.9247">
        <ele>1267.4</ele>
        <time>2025-09-27T10:57:52Z</time>
      </trkpt>
      <trkpt lat="43.75154" lon="6.92477">
        <ele>1267.5</ele>
        <time>2025-09-27T10:57:54Z</time>
      </trkpt>
      <trkpt lat="43.75153" lon="6.92484">
        <ele>1267.5</ele>
        <time>2025-09-27T10:57:56Z</time>
      </trkpt>
      <trkpt lat="43.75151" lon="6.92493">
        <ele>1267.6</ele>
        <time>2025-09-27T10:57:59Z</time>
      </trkpt>
      <trkpt lat="43.75149" lon="6.92498">
        <ele>1267.6</ele>
        <time>2025-09-27T10:58:01Z</time>
      </trkpt>
      <trkpt lat="43.75147" lon="6.92505">
        <ele>1267.6</ele>
        <time>2025-09-27T10:58:03Z</time>
      </trkpt>
      <trkpt lat="43.75145" lon="6.92513">
        <ele>1267.5</ele>
        <time>2025-09-27T10:58:06Z</time>
      </trkpt>
      <trkpt lat="43.75143" lon="6.92521">
        <ele>1267.5</ele>
        <time>2025-09-27T10:58:09Z</time>
      </trkpt>
      <trkpt lat="43.75142" lon="6.92529">
        <ele>1267.5</ele>
        <time>2025-09-27T10:58:12Z</time>
      </trkpt>
      <trkpt lat="43.75141" lon="6.92538">
        <ele>1267.4</ele>
        <time>2025-09-27T10:58:15Z</time>
      </trkpt>
      <trkpt lat="43.7514" lon="6.92545">
        <ele>1267.4</ele>
        <time>2025-09-27T10:58:17Z</time>
      </trkpt>
      <trkpt lat="43.75141" lon="6.92552">
        <ele>1267.4</ele>
        <time>2025-09-27T10:58:19Z</time>
      </trkpt>
      <trkpt lat="43.75141" lon="6.92559">
        <ele>1267.4</ele>
        <time>2025-09-27T10:58:21Z</time>
      </trkpt>
      <trkpt lat="43.75141" lon="6.92567">
        <ele>1267.4</ele>
        <time>2025-09-27T10:58:23Z</time>
      </trkpt>
      <trkpt lat="43.75142" lon="6.92573">
        <ele>1267.5</ele>
        <time>2025-09-27T10:58:25Z</time>
      </trkpt>
      <trkpt lat="43.75143" lon="6.92582">
        <ele>1267.6</ele>
        <time>2025-09-27T10:58:28Z</time>
      </trkpt>
      <trkpt lat="43.75144" lon="6.9259">
        <ele>1267.7</ele>
        <time>2025-09-27T10:58:31Z</time>
      </trkpt>
      <trkpt lat="43.75146" lon="6.92598">
        <ele>1267.8</ele>
        <time>2025-09-27T10:58:34Z</time>
      </trkpt>
      <trkpt lat="43.75143" lon="6.92605">
        <ele>1267.9</ele>
        <time>2025-09-27T10:58:37Z</time>
      </trkpt>
      <trkpt lat="43.75141" lon="6.92612">
        <ele>1268</ele>
        <time>2025-09-27T10:58:40Z</time>
      </trkpt>
      <trkpt lat="43.75138" lon="6.9262">
        <ele>1268.1</ele>
        <time>2025-09-27T10:58:43Z</time>
      </trkpt>
      <trkpt lat="43.75139" lon="6.92629">
        <ele>1268.1</ele>
        <time>2025-09-27T10:58:46Z</time>
      </trkpt>
      <trkpt lat="43.7514" lon="6.92635">
        <ele>1268.2</ele>
        <time>2025-09-27T10:58:48Z</time>
      </trkpt>
      <trkpt lat="43.7514" lon="6.92642">
        <ele>1268.2</ele>
        <time>2025-09-27T10:58:50Z</time>
      </trkpt>
      <trkpt lat="43.75138" lon="6.92649">
        <ele>1268.1</ele>
        <time>2025-09-27T10:58:53Z</time>
      </trkpt>
      <trkpt lat="43.75133" lon="6.92653">
        <ele>1268.1</ele>
        <time>2025-09-27T10:58:56Z</time>
      </trkpt>
      <trkpt lat="43.75129" lon="6.92655">
        <ele>1268</ele>
        <time>2025-09-27T10:58:59Z</time>
      </trkpt>
      <trkpt lat="43.75125" lon="6.92659">
        <ele>1267.9</ele>
        <time>2025-09-27T10:59:04Z</time>
      </trkpt>
      <trkpt lat="43.75127" lon="6.92666">
        <ele>1267.8</ele>
        <time>2025-09-27T11:00:22Z</time>
      </trkpt>
      <trkpt lat="43.7513" lon="6.92673">
        <ele>1267.7</ele>
        <time>2025-09-27T11:00:24Z</time>
      </trkpt>
      <trkpt lat="43.75132" lon="6.92682">
        <ele>1267.6</ele>
        <time>2025-09-27T11:00:26Z</time>
      </trkpt>
      <trkpt lat="43.75135" lon="6.92694">
        <ele>1267.6</ele>
        <time>2025-09-27T11:00:28Z</time>
      </trkpt>
      <trkpt lat="43.75139" lon="6.92703">
        <ele>1267.8</ele>
        <time>2025-09-27T11:00:30Z</time>
      </trkpt>
      <trkpt lat="43.75141" lon="6.92711">
        <ele>1268</ele>
        <time>2025-09-27T11:00:32Z</time>
      </trkpt>
      <trkpt lat="43.75143" lon="6.92717">
        <ele>1268.2</ele>
        <time>2025-09-27T11:00:34Z</time>
      </trkpt>
      <trkpt lat="43.75144" lon="6.92724">
        <ele>1268.4</ele>
        <time>2025-09-27T11:00:36Z</time>
      </trkpt>
      <trkpt lat="43.75146" lon="6.92732">
        <ele>1268.6</ele>
        <time>2025-09-27T11:00:38Z</time>
      </trkpt>
      <trkpt lat="43.75147" lon="6.9274">
        <ele>1268.8</ele>
        <time>2025-09-27T11:00:40Z</time>
      </trkpt>
      <trkpt lat="43.75147" lon="6.92747">
        <ele>1268.9</ele>
        <time>2025-09-27T11:00:42Z</time>
      </trkpt>
      <trkpt lat="43.75148" lon="6.92754">
        <ele>1268.9</ele>
        <time>2025-09-27T11:00:44Z</time>
      </trkpt>
      <trkpt lat="43.7515" lon="6.9276">
        <ele>1268.9</ele>
        <time>2025-09-27T11:00:46Z</time>
      </trkpt>
      <trkpt lat="43.75153" lon="6.92767">
        <ele>1268.7</ele>
        <time>2025-09-27T11:00:49Z</time>
      </trkpt>
      <trkpt lat="43.75157" lon="6.92772">
        <ele>1269.2</ele>
        <time>2025-09-27T11:01:02Z</time>
      </trkpt>
      <trkpt lat="43.75161" lon="6.9277">
        <ele>1269.5</ele>
        <time>2025-09-27T11:11:41Z</time>
      </trkpt>
      <trkpt lat="43.75166" lon="6.92774">
        <ele>1269.8</ele>
        <time>2025-09-27T11:23:15Z</time>
      </trkpt>
      <trkpt lat="43.7517" lon="6.92773">
        <ele>1270.6</ele>
        <time>2025-09-27T11:23:18Z</time>
      </trkpt>
      <trkpt lat="43.75176" lon="6.92773">
        <ele>1271.1</ele>
        <time>2025-09-27T11:23:21Z</time>
      </trkpt>
      <trkpt lat="43.75181" lon="6.92777">
        <ele>1271.1</ele>
        <time>2025-09-27T11:23:23Z</time>
      </trkpt>
      <trkpt lat="43.75186" lon="6.92782">
        <ele>1271.5</ele>
        <time>2025-09-27T11:23:25Z</time>
      </trkpt>
      <trkpt lat="43.75192" lon="6.92789">
        <ele>1271.8</ele>
        <time>2025-09-27T11:23:27Z</time>
      </trkpt>
      <trkpt lat="43.75198" lon="6.92793">
        <ele>1272.2</ele>
        <time>2025-09-27T11:23:29Z</time>
      </trkpt>
      <trkpt lat="43.75202" lon="6.92799">
        <ele>1272.2</ele>
        <time>2025-09-27T11:23:31Z</time>
      </trkpt>
      <trkpt lat="43.75207" lon="6.92804">
        <ele>1272.4</ele>
        <time>2025-09-27T11:23:33Z</time>
      </trkpt>
      <trkpt lat="43.75211" lon="6.9281">
        <ele>1272.3</ele>
        <time>2025-09-27T11:23:35Z</time>
      </trkpt>
      <trkpt lat="43.75215" lon="6.92819">
        <ele>1272.1</ele>
        <time>2025-09-27T11:23:37Z</time>
      </trkpt>
      <trkpt lat="43.75218" lon="6.92828">
        <ele>1272</ele>
        <time>2025-09-27T11:23:39Z</time>
      </trkpt>
      <trkpt lat="43.75221" lon="6.92837">
        <ele>1271.8</ele>
        <time>2025-09-27T11:23:41Z</time>
      </trkpt>
      <trkpt lat="43.75224" lon="6.92844">
        <ele>1271.7</ele>
        <time>2025-09-27T11:23:43Z</time>
      </trkpt>
      <trkpt lat="43.75228" lon="6.9285">
        <ele>1271.7</ele>
        <time>2025-09-27T11:23:45Z</time>
      </trkpt>
      <trkpt lat="43.7523" lon="6.92857">
        <ele>1271.6</ele>
        <time>2025-09-27T11:23:47Z</time>
      </trkpt>
      <trkpt lat="43.75231" lon="6.92865">
        <ele>1271.2</ele>
        <time>2025-09-27T11:23:49Z</time>
      </trkpt>
      <trkpt lat="43.75232" lon="6.92874">
        <ele>1271.1</ele>
        <time>2025-09-27T11:23:51Z</time>
      </trkpt>
      <trkpt lat="43.75234" lon="6.92883">
        <ele>1270.8</ele>
        <time>2025-09-27T11:23:53Z</time>
      </trkpt>
      <trkpt lat="43.75234" lon="6.92892">
        <ele>1270.8</ele>
        <time>2025-09-27T11:23:55Z</time>
      </trkpt>
      <trkpt lat="43.75232" lon="6.92903">
        <ele>1270.3</ele>
        <time>2025-09-27T11:23:57Z</time>
      </trkpt>
      <trkpt lat="43.7523" lon="6.92914">
        <ele>1269.9</ele>
        <time>2025-09-27T11:23:59Z</time>
      </trkpt>
      <trkpt lat="43.7523" lon="6.92922">
        <ele>1269.6</ele>
        <time>2025-09-27T11:24:01Z</time>
      </trkpt>
      <trkpt lat="43.75228" lon="6.92929">
        <ele>1269.1</ele>
        <time>2025-09-27T11:24:03Z</time>
      </trkpt>
      <trkpt lat="43.75224" lon="6.92936">
        <ele>1269</ele>
        <time>2025-09-27T11:24:05Z</time>
      </trkpt>
      <trkpt lat="43.7522" lon="6.92943">
        <ele>1268.9</ele>
        <time>2025-09-27T11:24:07Z</time>
      </trkpt>
      <trkpt lat="43.75218" lon="6.92951">
        <ele>1268.8</ele>
        <time>2025-09-27T11:24:09Z</time>
      </trkpt>
      <trkpt lat="43.75214" lon="6.92958">
        <ele>1268.8</ele>
        <time>2025-09-27T11:24:11Z</time>
      </trkpt>
      <trkpt lat="43.7521" lon="6.92963">
        <ele>1268.9</ele>
        <time>2025-09-27T11:24:13Z</time>
      </trkpt>
      <trkpt lat="43.75205" lon="6.92968">
        <ele>1269.1</ele>
        <time>2025-09-27T11:24:15Z</time>
      </trkpt>
      <trkpt lat="43.752" lon="6.92974">
        <ele>1269.2</ele>
        <time>2025-09-27T11:24:17Z</time>
      </trkpt>
      <trkpt lat="43.75197" lon="6.9298">
        <ele>1269.2</ele>
        <time>2025-09-27T11:24:19Z</time>
      </trkpt>
      <trkpt lat="43.75196" lon="6.9299">
        <ele>1269.2</ele>
        <time>2025-09-27T11:24:21Z</time>
      </trkpt>
      <trkpt lat="43.75193" lon="6.92999">
        <ele>1269.2</ele>
        <time>2025-09-27T11:24:23Z</time>
      </trkpt>
      <trkpt lat="43.7519" lon="6.93009">
        <ele>1269.2</ele>
        <time>2025-09-27T11:24:25Z</time>
      </trkpt>
      <trkpt lat="43.75191" lon="6.93018">
        <ele>1269.3</ele>
        <time>2025-09-27T11:24:27Z</time>
      </trkpt>
      <trkpt lat="43.75191" lon="6.93027">
        <ele>1269.5</ele>
        <time>2025-09-27T11:24:29Z</time>
      </trkpt>
      <trkpt lat="43.7519" lon="6.93035">
        <ele>1269.7</ele>
        <time>2025-09-27T11:24:31Z</time>
      </trkpt>
      <trkpt lat="43.7519" lon="6.93042">
        <ele>1270</ele>
        <time>2025-09-27T11:24:33Z</time>
      </trkpt>
      <trkpt lat="43.75191" lon="6.9305">
        <ele>1270.2</ele>
        <time>2025-09-27T11:24:35Z</time>
      </trkpt>
      <trkpt lat="43.75191" lon="6.93058">
        <ele>1270.4</ele>
        <time>2025-09-27T11:24:37Z</time>
      </trkpt>
      <trkpt lat="43.75191" lon="6.93065">
        <ele>1270.6</ele>
        <time>2025-09-27T11:24:39Z</time>
      </trkpt>
      <trkpt lat="43.75191" lon="6.93073">
        <ele>1270.7</ele>
        <time>2025-09-27T11:24:41Z</time>
      </trkpt>
      <trkpt lat="43.75192" lon="6.9308">
        <ele>1270.7</ele>
        <time>2025-09-27T11:24:43Z</time>
      </trkpt>
      <trkpt lat="43.75192" lon="6.93088">
        <ele>1270.7</ele>
        <time>2025-09-27T11:24:45Z</time>
      </trkpt>
      <trkpt lat="43.75192" lon="6.93097">
        <ele>1270.7</ele>
        <time>2025-09-27T11:24:47Z</time>
      </trkpt>
      <trkpt lat="43.75191" lon="6.93106">
        <ele>1270.7</ele>
        <time>2025-09-27T11:24:49Z</time>
      </trkpt>
      <trkpt lat="43.7519" lon="6.93115">
        <ele>1270.7</ele>
        <time>2025-09-27T11:24:51Z</time>
      </trkpt>
      <trkpt lat="43.7519" lon="6.93123">
        <ele>1270.7</ele>
        <time>2025-09-27T11:24:53Z</time>
      </trkpt>
      <trkpt lat="43.75189" lon="6.93132">
        <ele>1270.7</ele>
        <time>2025-09-27T11:24:55Z</time>
      </trkpt>
      <trkpt lat="43.75189" lon="6.9314">
        <ele>1270.6</ele>
        <time>2025-09-27T11:24:57Z</time>
      </trkpt>
      <trkpt lat="43.7519" lon="6.93149">
        <ele>1270.6</ele>
        <time>2025-09-27T11:24:59Z</time>
      </trkpt>
      <trkpt lat="43.7519" lon="6.93159">
        <ele>1270.5</ele>
        <time>2025-09-27T11:25:01Z</time>
      </trkpt>
      <trkpt lat="43.7519" lon="6.93168">
        <ele>1270.6</ele>
        <time>2025-09-27T11:25:03Z</time>
      </trkpt>
      <trkpt lat="43.75189" lon="6.93178">
        <ele>1270.7</ele>
        <time>2025-09-27T11:25:05Z</time>
      </trkpt>
      <trkpt lat="43.75188" lon="6.93187">
        <ele>1270.8</ele>
        <time>2025-09-27T11:25:07Z</time>
      </trkpt>
      <trkpt lat="43.75188" lon="6.93195">
        <ele>1271.1</ele>
        <time>2025-09-27T11:25:09Z</time>
      </trkpt>
      <trkpt lat="43.75187" lon="6.93203">
        <ele>1271.3</ele>
        <time>2025-09-27T11:25:11Z</time>
      </trkpt>
      <trkpt lat="43.75187" lon="6.93209">
        <ele>1271.5</ele>
        <time>2025-09-27T11:25:13Z</time>
      </trkpt>
      <trkpt lat="43.75187" lon="6.93218">
        <ele>1271.8</ele>
        <time>2025-09-27T11:25:16Z</time>
      </trkpt>
      <trkpt lat="43.75185" lon="6.93226">
        <ele>1272.1</ele>
        <time>2025-09-27T11:25:19Z</time>
      </trkpt>
      <trkpt lat="43.75184" lon="6.93232">
        <ele>1272.3</ele>
        <time>2025-09-27T11:25:21Z</time>
      </trkpt>
      <trkpt lat="43.75183" lon="6.93239">
        <ele>1272.5</ele>
        <time>2025-09-27T11:25:23Z</time>
      </trkpt>
      <trkpt lat="43.75182" lon="6.93245">
        <ele>1272.7</ele>
        <time>2025-09-27T11:25:25Z</time>
      </trkpt>
      <trkpt lat="43.75181" lon="6.93251">
        <ele>1272.9</ele>
        <time>2025-09-27T11:25:27Z</time>
      </trkpt>
      <trkpt lat="43.75181" lon="6.93258">
        <ele>1273</ele>
        <time>2025-09-27T11:25:29Z</time>
      </trkpt>
      <trkpt lat="43.7518" lon="6.93266">
        <ele>1273.2</ele>
        <time>2025-09-27T11:25:32Z</time>
      </trkpt>
      <trkpt lat="43.75179" lon="6.93276">
        <ele>1273.3</ele>
        <time>2025-09-27T11:25:35Z</time>
      </trkpt>
      <trkpt lat="43.75177" lon="6.93282">
        <ele>1273.3</ele>
        <time>2025-09-27T11:25:37Z</time>
      </trkpt>
      <trkpt lat="43.75176" lon="6.93289">
        <ele>1273.3</ele>
        <time>2025-09-27T11:25:39Z</time>
      </trkpt>
      <trkpt lat="43.75174" lon="6.93296">
        <ele>1273.2</ele>
        <time>2025-09-27T11:25:41Z</time>
      </trkpt>
      <trkpt lat="43.75171" lon="6.93306">
        <ele>1273</ele>
        <time>2025-09-27T11:25:43Z</time>
      </trkpt>
      <trkpt lat="43.7517" lon="6.93313">
        <ele>1273</ele>
        <time>2025-09-27T11:25:45Z</time>
      </trkpt>
      <trkpt lat="43.7517" lon="6.93322">
        <ele>1272.9</ele>
        <time>2025-09-27T11:25:47Z</time>
      </trkpt>
      <trkpt lat="43.75169" lon="6.93329">
        <ele>1272.9</ele>
        <time>2025-09-27T11:25:49Z</time>
      </trkpt>
      <trkpt lat="43.75167" lon="6.93337">
        <ele>1272.9</ele>
        <time>2025-09-27T11:25:51Z</time>
      </trkpt>
      <trkpt lat="43.75166" lon="6.93345">
        <ele>1272.9</ele>
        <time>2025-09-27T11:25:53Z</time>
      </trkpt>
      <trkpt lat="43.75165" lon="6.93354">
        <ele>1272.9</ele>
        <time>2025-09-27T11:25:55Z</time>
      </trkpt>
      <trkpt lat="43.75164" lon="6.93361">
        <ele>1272.9</ele>
        <time>2025-09-27T11:25:57Z</time>
      </trkpt>
      <trkpt lat="43.75163" lon="6.93369">
        <ele>1272.9</ele>
        <time>2025-09-27T11:25:59Z</time>
      </trkpt>
      <trkpt lat="43.75163" lon="6.93376">
        <ele>1272.9</ele>
        <time>2025-09-27T11:26:01Z</time>
      </trkpt>
      <trkpt lat="43.75163" lon="6.93383">
        <ele>1272.9</ele>
        <time>2025-09-27T11:26:03Z</time>
      </trkpt>
      <trkpt lat="43.75165" lon="6.9339">
        <ele>1272.9</ele>
        <time>2025-09-27T11:26:05Z</time>
      </trkpt>
      <trkpt lat="43.75166" lon="6.93398">
        <ele>1273</ele>
        <time>2025-09-27T11:26:07Z</time>
      </trkpt>
      <trkpt lat="43.75166" lon="6.93407">
        <ele>1273.2</ele>
        <time>2025-09-27T11:26:09Z</time>
      </trkpt>
      <trkpt lat="43.75165" lon="6.93414">
        <ele>1273.5</ele>
        <time>2025-09-27T11:26:11Z</time>
      </trkpt>
      <trkpt lat="43.75164" lon="6.93422">
        <ele>1273.9</ele>
        <time>2025-09-27T11:26:14Z</time>
      </trkpt>
      <trkpt lat="43.75162" lon="6.9343">
        <ele>1274.3</ele>
        <time>2025-09-27T11:26:17Z</time>
      </trkpt>
      <trkpt lat="43.75163" lon="6.93437">
        <ele>1274.8</ele>
        <time>2025-09-27T11:26:20Z</time>
      </trkpt>
      <trkpt lat="43.75163" lon="6.93444">
        <ele>1275.3</ele>
        <time>2025-09-27T11:26:23Z</time>
      </trkpt>
      <trkpt lat="43.75162" lon="6.93452">
        <ele>1275.8</ele>
        <time>2025-09-27T11:26:26Z</time>
      </trkpt>
      <trkpt lat="43.75164" lon="6.9346">
        <ele>1276.4</ele>
        <time>2025-09-27T11:26:29Z</time>
      </trkpt>
      <trkpt lat="43.75163" lon="6.93467">
        <ele>1276.9</ele>
        <time>2025-09-27T11:26:32Z</time>
      </trkpt>
      <trkpt lat="43.75163" lon="6.93474">
        <ele>1277.4</ele>
        <time>2025-09-27T11:26:35Z</time>
      </trkpt>
      <trkpt lat="43.75163" lon="6.93481">
        <ele>1277.9</ele>
        <time>2025-09-27T11:26:38Z</time>
      </trkpt>
      <trkpt lat="43.75163" lon="6.9349">
        <ele>1278.4</ele>
        <time>2025-09-27T11:26:42Z</time>
      </trkpt>
      <trkpt lat="43.75162" lon="6.93496">
        <ele>1278.8</ele>
        <time>2025-09-27T11:26:45Z</time>
      </trkpt>
      <trkpt lat="43.75162" lon="6.93504">
        <ele>1279.2</ele>
        <time>2025-09-27T11:26:49Z</time>
      </trkpt>
      <trkpt lat="43.75162" lon="6.93511">
        <ele>1279.5</ele>
        <time>2025-09-27T11:26:52Z</time>
      </trkpt>
      <trkpt lat="43.75162" lon="6.93518">
        <ele>1279.7</ele>
        <time>2025-09-27T11:26:56Z</time>
      </trkpt>
      <trkpt lat="43.75162" lon="6.93524">
        <ele>1280</ele>
        <time>2025-09-27T11:27:00Z</time>
      </trkpt>
      <trkpt lat="43.75161" lon="6.93531">
        <ele>1280.2</ele>
        <time>2025-09-27T11:27:03Z</time>
      </trkpt>
      <trkpt lat="43.7516" lon="6.93538">
        <ele>1280.3</ele>
        <time>2025-09-27T11:27:06Z</time>
      </trkpt>
      <trkpt lat="43.7516" lon="6.93545">
        <ele>1280.5</ele>
        <time>2025-09-27T11:27:09Z</time>
      </trkpt>
      <trkpt lat="43.75159" lon="6.93553">
        <ele>1280.6</ele>
        <time>2025-09-27T11:27:12Z</time>
      </trkpt>
      <trkpt lat="43.75159" lon="6.93561">
        <ele>1280.7</ele>
        <time>2025-09-27T11:27:15Z</time>
      </trkpt>
      <trkpt lat="43.7516" lon="6.93568">
        <ele>1280.8</ele>
        <time>2025-09-27T11:27:18Z</time>
      </trkpt>
      <trkpt lat="43.7516" lon="6.93577">
        <ele>1280.8</ele>
        <time>2025-09-27T11:27:21Z</time>
      </trkpt>
      <trkpt lat="43.75161" lon="6.93586">
        <ele>1280.7</ele>
        <time>2025-09-27T11:27:24Z</time>
      </trkpt>
      <trkpt lat="43.75161" lon="6.93595">
        <ele>1280.7</ele>
        <time>2025-09-27T11:27:27Z</time>
      </trkpt>
      <trkpt lat="43.7516" lon="6.93603">
        <ele>1280.6</ele>
        <time>2025-09-27T11:27:29Z</time>
      </trkpt>
      <trkpt lat="43.75159" lon="6.9361">
        <ele>1280.5</ele>
        <time>2025-09-27T11:27:31Z</time>
      </trkpt>
      <trkpt lat="43.75158" lon="6.93617">
        <ele>1280.4</ele>
        <time>2025-09-27T11:27:33Z</time>
      </trkpt>
      <trkpt lat="43.75156" lon="6.93625">
        <ele>1280.4</ele>
        <time>2025-09-27T11:27:35Z</time>
      </trkpt>
      <trkpt lat="43.75156" lon="6.93634">
        <ele>1280.4</ele>
        <time>2025-09-27T11:27:37Z</time>
      </trkpt>
      <trkpt lat="43.75155" lon="6.93642">
        <ele>1280.5</ele>
        <time>2025-09-27T11:27:39Z</time>
      </trkpt>
      <trkpt lat="43.75154" lon="6.93649">
        <ele>1280.7</ele>
        <time>2025-09-27T11:27:41Z</time>
      </trkpt>
      <trkpt lat="43.75152" lon="6.93655">
        <ele>1281</ele>
        <time>2025-09-27T11:27:43Z</time>
      </trkpt>
      <trkpt lat="43.75149" lon="6.93663">
        <ele>1281.4</ele>
        <time>2025-09-27T11:27:46Z</time>
      </trkpt>
      <trkpt lat="43.75147" lon="6.93671">
        <ele>1281.8</ele>
        <time>2025-09-27T11:27:49Z</time>
      </trkpt>
      <trkpt lat="43.75146" lon="6.93679">
        <ele>1282.3</ele>
        <time>2025-09-27T11:27:52Z</time>
      </trkpt>
      <trkpt lat="43.75145" lon="6.93687">
        <ele>1282.7</ele>
        <time>2025-09-27T11:27:55Z</time>
      </trkpt>
      <trkpt lat="43.75143" lon="6.93695">
        <ele>1283.1</ele>
        <time>2025-09-27T11:27:58Z</time>
      </trkpt>
      <trkpt lat="43.75142" lon="6.93704">
        <ele>1283.5</ele>
        <time>2025-09-27T11:28:01Z</time>
      </trkpt>
      <trkpt lat="43.7514" lon="6.93712">
        <ele>1283.8</ele>
        <time>2025-09-27T11:28:04Z</time>
      </trkpt>
      <trkpt lat="43.7514" lon="6.93721">
        <ele>1283.9</ele>
        <time>2025-09-27T11:28:07Z</time>
      </trkpt>
      <trkpt lat="43.7514" lon="6.9373">
        <ele>1283.9</ele>
        <time>2025-09-27T11:28:10Z</time>
      </trkpt>
      <trkpt lat="43.75139" lon="6.93739">
        <ele>1283.8</ele>
        <time>2025-09-27T11:28:13Z</time>
      </trkpt>
      <trkpt lat="43.7514" lon="6.93747">
        <ele>1283.5</ele>
        <time>2025-09-27T11:28:16Z</time>
      </trkpt>
      <trkpt lat="43.75141" lon="6.93754">
        <ele>1283.2</ele>
        <time>2025-09-27T11:28:18Z</time>
      </trkpt>
      <trkpt lat="43.75144" lon="6.93762">
        <ele>1282.8</ele>
        <time>2025-09-27T11:28:20Z</time>
      </trkpt>
      <trkpt lat="43.75147" lon="6.93773">
        <ele>1282.2</ele>
        <time>2025-09-27T11:28:22Z</time>
      </trkpt>
      <trkpt lat="43.75148" lon="6.93779">
        <ele>1281.9</ele>
        <time>2025-09-27T11:28:23Z</time>
      </trkpt>
      <trkpt lat="43.7515" lon="6.93785">
        <ele>1281.6</ele>
        <time>2025-09-27T11:28:24Z</time>
      </trkpt>
      <trkpt lat="43.75152" lon="6.93792">
        <ele>1281.3</ele>
        <time>2025-09-27T11:28:25Z</time>
      </trkpt>
      <trkpt lat="43.75154" lon="6.93798">
        <ele>1281.1</ele>
        <time>2025-09-27T11:28:26Z</time>
      </trkpt>
      <trkpt lat="43.75154" lon="6.93805">
        <ele>1281</ele>
        <time>2025-09-27T11:28:27Z</time>
      </trkpt>
      <trkpt lat="43.75153" lon="6.93812">
        <ele>1280.9</ele>
        <time>2025-09-27T11:28:28Z</time>
      </trkpt>
      <trkpt lat="43.75152" lon="6.93818">
        <ele>1280.9</ele>
        <time>2025-09-27T11:28:29Z</time>
      </trkpt>
      <trkpt lat="43.75151" lon="6.93828">
        <ele>1281.1</ele>
        <time>2025-09-27T11:28:31Z</time>
      </trkpt>
      <trkpt lat="43.75148" lon="6.93834">
        <ele>1281.3</ele>
        <time>2025-09-27T11:28:33Z</time>
      </trkpt>
      <trkpt lat="43.75145" lon="6.93839">
        <ele>1281.6</ele>
        <time>2025-09-27T11:28:36Z</time>
      </trkpt>
      <trkpt lat="43.75141" lon="6.93844">
        <ele>1282</ele>
        <time>2025-09-27T11:28:39Z</time>
      </trkpt>
      <trkpt lat="43.75137" lon="6.93849">
        <ele>1282.5</ele>
        <time>2025-09-27T11:28:42Z</time>
      </trkpt>
      <trkpt lat="43.75133" lon="6.93854">
        <ele>1282.9</ele>
        <time>2025-09-27T11:28:45Z</time>
      </trkpt>
      <trkpt lat="43.7513" lon="6.93859">
        <ele>1283.4</ele>
        <time>2025-09-27T11:28:48Z</time>
      </trkpt>
      <trkpt lat="43.75127" lon="6.93863">
        <ele>1283.9</ele>
        <time>2025-09-27T11:28:51Z</time>
      </trkpt>
      <trkpt lat="43.75123" lon="6.93867">
        <ele>1284.4</ele>
        <time>2025-09-27T11:28:54Z</time>
      </trkpt>
      <trkpt lat="43.75119" lon="6.93873">
        <ele>1285.1</ele>
        <time>2025-09-27T11:28:58Z</time>
      </trkpt>
      <trkpt lat="43.75117" lon="6.93879">
        <ele>1285.6</ele>
        <time>2025-09-27T11:29:01Z</time>
      </trkpt>
      <trkpt lat="43.75115" lon="6.93884">
        <ele>1286.1</ele>
        <time>2025-09-27T11:29:04Z</time>
      </trkpt>
      <trkpt lat="43.75111" lon="6.93891">
        <ele>1286.7</ele>
        <time>2025-09-27T11:29:08Z</time>
      </trkpt>
      <trkpt lat="43.75108" lon="6.93896">
        <ele>1287.2</ele>
        <time>2025-09-27T11:29:11Z</time>
      </trkpt>
      <trkpt lat="43.75105" lon="6.93901">
        <ele>1287.8</ele>
        <time>2025-09-27T11:29:15Z</time>
      </trkpt>
      <trkpt lat="43.75101" lon="6.93907">
        <ele>1288.4</ele>
        <time>2025-09-27T11:29:19Z</time>
      </trkpt>
      <trkpt lat="43.75098" lon="6.93913">
        <ele>1289</ele>
        <time>2025-09-27T11:29:23Z</time>
      </trkpt>
      <trkpt lat="43.75096" lon="6.93919">
        <ele>1289.5</ele>
        <time>2025-09-27T11:29:27Z</time>
      </trkpt>
      <trkpt lat="43.75093" lon="6.93926">
        <ele>1290.1</ele>
        <time>2025-09-27T11:29:31Z</time>
      </trkpt>
      <trkpt lat="43.75091" lon="6.93933">
        <ele>1290.7</ele>
        <time>2025-09-27T11:29:35Z</time>
      </trkpt>
      <trkpt lat="43.75088" lon="6.93941">
        <ele>1291.2</ele>
        <time>2025-09-27T11:29:39Z</time>
      </trkpt>
      <trkpt lat="43.75085" lon="6.93946">
        <ele>1291.6</ele>
        <time>2025-09-27T11:29:42Z</time>
      </trkpt>
      <trkpt lat="43.75083" lon="6.93953">
        <ele>1292.1</ele>
        <time>2025-09-27T11:29:46Z</time>
      </trkpt>
      <trkpt lat="43.75082" lon="6.93959">
        <ele>1292.4</ele>
        <time>2025-09-27T11:29:49Z</time>
      </trkpt>
      <trkpt lat="43.7508" lon="6.93966">
        <ele>1292.6</ele>
        <time>2025-09-27T11:29:52Z</time>
      </trkpt>
      <trkpt lat="43.75079" lon="6.93973">
        <ele>1292.9</ele>
        <time>2025-09-27T11:29:55Z</time>
      </trkpt>
      <trkpt lat="43.75079" lon="6.9398">
        <ele>1293.1</ele>
        <time>2025-09-27T11:29:58Z</time>
      </trkpt>
      <trkpt lat="43.75078" lon="6.93988">
        <ele>1293.4</ele>
        <time>2025-09-27T11:30:01Z</time>
      </trkpt>
      <trkpt lat="43.75078" lon="6.93995">
        <ele>1293.6</ele>
        <time>2025-09-27T11:30:04Z</time>
      </trkpt>
      <trkpt lat="43.75078" lon="6.94003">
        <ele>1293.8</ele>
        <time>2025-09-27T11:30:07Z</time>
      </trkpt>
      <trkpt lat="43.75078" lon="6.9401">
        <ele>1294.1</ele>
        <time>2025-09-27T11:30:10Z</time>
      </trkpt>
      <trkpt lat="43.75078" lon="6.94017">
        <ele>1294.3</ele>
        <time>2025-09-27T11:30:13Z</time>
      </trkpt>
      <trkpt lat="43.75076" lon="6.94025">
        <ele>1294.6</ele>
        <time>2025-09-27T11:30:16Z</time>
      </trkpt>
      <trkpt lat="43.75075" lon="6.94033">
        <ele>1295</ele>
        <time>2025-09-27T11:30:19Z</time>
      </trkpt>
      <trkpt lat="43.75074" lon="6.9404">
        <ele>1295.5</ele>
        <time>2025-09-27T11:30:22Z</time>
      </trkpt>
      <trkpt lat="43.75072" lon="6.94047">
        <ele>1296</ele>
        <time>2025-09-27T11:30:25Z</time>
      </trkpt>
      <trkpt lat="43.75071" lon="6.94054">
        <ele>1296.6</ele>
        <time>2025-09-27T11:30:28Z</time>
      </trkpt>
      <trkpt lat="43.75069" lon="6.94061">
        <ele>1297.2</ele>
        <time>2025-09-27T11:30:31Z</time>
      </trkpt>
      <trkpt lat="43.75068" lon="6.94069">
        <ele>1297.8</ele>
        <time>2025-09-27T11:30:34Z</time>
      </trkpt>
      <trkpt lat="43.75066" lon="6.94076">
        <ele>1298.4</ele>
        <time>2025-09-27T11:30:37Z</time>
      </trkpt>
      <trkpt lat="43.75065" lon="6.94083">
        <ele>1299</ele>
        <time>2025-09-27T11:30:40Z</time>
      </trkpt>
      <trkpt lat="43.75064" lon="6.94091">
        <ele>1299.7</ele>
        <time>2025-09-27T11:30:43Z</time>
      </trkpt>
      <trkpt lat="43.75063" lon="6.94098">
        <ele>1300.2</ele>
        <time>2025-09-27T11:30:46Z</time>
      </trkpt>
      <trkpt lat="43.75063" lon="6.94104">
        <ele>1300.8</ele>
        <time>2025-09-27T11:30:49Z</time>
      </trkpt>
      <trkpt lat="43.75062" lon="6.94111">
        <ele>1301.2</ele>
        <time>2025-09-27T11:30:52Z</time>
      </trkpt>
      <trkpt lat="43.75061" lon="6.94118">
        <ele>1301.8</ele>
        <time>2025-09-27T11:30:55Z</time>
      </trkpt>
      <trkpt lat="43.7506" lon="6.94126">
        <ele>1302.3</ele>
        <time>2025-09-27T11:30:58Z</time>
      </trkpt>
      <trkpt lat="43.7506" lon="6.94133">
        <ele>1302.8</ele>
        <time>2025-09-27T11:31:01Z</time>
      </trkpt>
      <trkpt lat="43.7506" lon="6.9414">
        <ele>1303.4</ele>
        <time>2025-09-27T11:31:04Z</time>
      </trkpt>
      <trkpt lat="43.75061" lon="6.94148">
        <ele>1304</ele>
        <time>2025-09-27T11:31:08Z</time>
      </trkpt>
      <trkpt lat="43.7506" lon="6.94156">
        <ele>1304.5</ele>
        <time>2025-09-27T11:31:12Z</time>
      </trkpt>
      <trkpt lat="43.7506" lon="6.94163">
        <ele>1304.9</ele>
        <time>2025-09-27T11:31:15Z</time>
      </trkpt>
      <trkpt lat="43.7506" lon="6.94169">
        <ele>1305.3</ele>
        <time>2025-09-27T11:31:18Z</time>
      </trkpt>
      <trkpt lat="43.75059" lon="6.94177">
        <ele>1305.7</ele>
        <time>2025-09-27T11:31:21Z</time>
      </trkpt>
      <trkpt lat="43.75059" lon="6.94183">
        <ele>1306.1</ele>
        <time>2025-09-27T11:31:24Z</time>
      </trkpt>
      <trkpt lat="43.75059" lon="6.94191">
        <ele>1306.5</ele>
        <time>2025-09-27T11:31:27Z</time>
      </trkpt>
      <trkpt lat="43.75058" lon="6.94198">
        <ele>1306.8</ele>
        <time>2025-09-27T11:31:30Z</time>
      </trkpt>
      <trkpt lat="43.75059" lon="6.94205">
        <ele>1307.2</ele>
        <time>2025-09-27T11:31:33Z</time>
      </trkpt>
      <trkpt lat="43.75059" lon="6.94213">
        <ele>1307.6</ele>
        <time>2025-09-27T11:31:36Z</time>
      </trkpt>
      <trkpt lat="43.75058" lon="6.94221">
        <ele>1308</ele>
        <time>2025-09-27T11:31:39Z</time>
      </trkpt>
      <trkpt lat="43.75057" lon="6.94228">
        <ele>1308.4</ele>
        <time>2025-09-27T11:31:42Z</time>
      </trkpt>
      <trkpt lat="43.75057" lon="6.94236">
        <ele>1308.8</ele>
        <time>2025-09-27T11:31:45Z</time>
      </trkpt>
      <trkpt lat="43.75057" lon="6.94243">
        <ele>1309.2</ele>
        <time>2025-09-27T11:31:48Z</time>
      </trkpt>
      <trkpt lat="43.75057" lon="6.94251">
        <ele>1309.7</ele>
        <time>2025-09-27T11:31:51Z</time>
      </trkpt>
      <trkpt lat="43.75057" lon="6.94259">
        <ele>1310.1</ele>
        <time>2025-09-27T11:31:54Z</time>
      </trkpt>
      <trkpt lat="43.75056" lon="6.94266">
        <ele>1310.4</ele>
        <time>2025-09-27T11:31:57Z</time>
      </trkpt>
      <trkpt lat="43.75055" lon="6.94274">
        <ele>1310.9</ele>
        <time>2025-09-27T11:32:00Z</time>
      </trkpt>
      <trkpt lat="43.75054" lon="6.94281">
        <ele>1311.3</ele>
        <time>2025-09-27T11:32:03Z</time>
      </trkpt>
      <trkpt lat="43.75053" lon="6.94289">
        <ele>1311.7</ele>
        <time>2025-09-27T11:32:06Z</time>
      </trkpt>
      <trkpt lat="43.75053" lon="6.94297">
        <ele>1312.2</ele>
        <time>2025-09-27T11:32:09Z</time>
      </trkpt>
      <trkpt lat="43.75052" lon="6.94305">
        <ele>1312.7</ele>
        <time>2025-09-27T11:32:12Z</time>
      </trkpt>
      <trkpt lat="43.75052" lon="6.94313">
        <ele>1313.1</ele>
        <time>2025-09-27T11:32:15Z</time>
      </trkpt>
      <trkpt lat="43.75052" lon="6.94321">
        <ele>1313.5</ele>
        <time>2025-09-27T11:32:18Z</time>
      </trkpt>
      <trkpt lat="43.75052" lon="6.94329">
        <ele>1313.9</ele>
        <time>2025-09-27T11:32:21Z</time>
      </trkpt>
      <trkpt lat="43.75054" lon="6.94336">
        <ele>1314.4</ele>
        <time>2025-09-27T11:32:24Z</time>
      </trkpt>
      <trkpt lat="43.75056" lon="6.94344">
        <ele>1314.8</ele>
        <time>2025-09-27T11:32:27Z</time>
      </trkpt>
      <trkpt lat="43.75056" lon="6.94352">
        <ele>1315.2</ele>
        <time>2025-09-27T11:32:30Z</time>
      </trkpt>
      <trkpt lat="43.75057" lon="6.94359">
        <ele>1315.5</ele>
        <time>2025-09-27T11:32:33Z</time>
      </trkpt>
      <trkpt lat="43.75058" lon="6.94366">
        <ele>1315.7</ele>
        <time>2025-09-27T11:32:36Z</time>
      </trkpt>
      <trkpt lat="43.7506" lon="6.94373">
        <ele>1315.9</ele>
        <time>2025-09-27T11:32:39Z</time>
      </trkpt>
      <trkpt lat="43.75061" lon="6.9438">
        <ele>1316.1</ele>
        <time>2025-09-27T11:32:42Z</time>
      </trkpt>
      <trkpt lat="43.75063" lon="6.94388">
        <ele>1316.3</ele>
        <time>2025-09-27T11:32:45Z</time>
      </trkpt>
      <trkpt lat="43.75065" lon="6.94395">
        <ele>1316.4</ele>
        <time>2025-09-27T11:32:48Z</time>
      </trkpt>
      <trkpt lat="43.75067" lon="6.94403">
        <ele>1316.5</ele>
        <time>2025-09-27T11:32:51Z</time>
      </trkpt>
      <trkpt lat="43.75068" lon="6.94412">
        <ele>1316.6</ele>
        <time>2025-09-27T11:32:54Z</time>
      </trkpt>
      <trkpt lat="43.7507" lon="6.94421">
        <ele>1316.7</ele>
        <time>2025-09-27T11:32:57Z</time>
      </trkpt>
      <trkpt lat="43.75072" lon="6.94429">
        <ele>1316.7</ele>
        <time>2025-09-27T11:33:00Z</time>
      </trkpt>
      <trkpt lat="43.75074" lon="6.94435">
        <ele>1316.7</ele>
        <time>2025-09-27T11:33:03Z</time>
      </trkpt>
      <trkpt lat="43.75077" lon="6.94443">
        <ele>1316.6</ele>
        <time>2025-09-27T11:33:06Z</time>
      </trkpt>
      <trkpt lat="43.75081" lon="6.94449">
        <ele>1316.4</ele>
        <time>2025-09-27T11:33:09Z</time>
      </trkpt>
      <trkpt lat="43.75085" lon="6.94457">
        <ele>1316.3</ele>
        <time>2025-09-27T11:33:12Z</time>
      </trkpt>
      <trkpt lat="43.75088" lon="6.94462">
        <ele>1316.1</ele>
        <time>2025-09-27T11:33:14Z</time>
      </trkpt>
      <trkpt lat="43.75092" lon="6.94466">
        <ele>1315.9</ele>
        <time>2025-09-27T11:33:17Z</time>
      </trkpt>
      <trkpt lat="43.75096" lon="6.94474">
        <ele>1315.7</ele>
        <time>2025-09-27T11:33:20Z</time>
      </trkpt>
      <trkpt lat="43.75097" lon="6.94482">
        <ele>1315.4</ele>
        <time>2025-09-27T11:33:22Z</time>
      </trkpt>
      <trkpt lat="43.75098" lon="6.94492">
        <ele>1315.4</ele>
        <time>2025-09-27T11:33:24Z</time>
      </trkpt>
      <trkpt lat="43.75099" lon="6.94501">
        <ele>1315.4</ele>
        <time>2025-09-27T11:33:26Z</time>
      </trkpt>
      <trkpt lat="43.75099" lon="6.94508">
        <ele>1315.5</ele>
        <time>2025-09-27T11:33:28Z</time>
      </trkpt>
      <trkpt lat="43.751" lon="6.94517">
        <ele>1315.8</ele>
        <time>2025-09-27T11:33:31Z</time>
      </trkpt>
      <trkpt lat="43.751" lon="6.94525">
        <ele>1316.2</ele>
        <time>2025-09-27T11:33:34Z</time>
      </trkpt>
      <trkpt lat="43.751" lon="6.94533">
        <ele>1316.6</ele>
        <time>2025-09-27T11:33:37Z</time>
      </trkpt>
      <trkpt lat="43.751" lon="6.9454">
        <ele>1317</ele>
        <time>2025-09-27T11:33:40Z</time>
      </trkpt>
      <trkpt lat="43.75099" lon="6.94548">
        <ele>1317.6</ele>
        <time>2025-09-27T11:33:44Z</time>
      </trkpt>
      <trkpt lat="43.751" lon="6.94554">
        <ele>1318.1</ele>
        <time>2025-09-27T11:33:47Z</time>
      </trkpt>
      <trkpt lat="43.75099" lon="6.94562">
        <ele>1318.9</ele>
        <time>2025-09-27T11:33:51Z</time>
      </trkpt>
      <trkpt lat="43.75099" lon="6.94569">
        <ele>1319.5</ele>
        <time>2025-09-27T11:33:54Z</time>
      </trkpt>
      <trkpt lat="43.75099" lon="6.94576">
        <ele>1320.2</ele>
        <time>2025-09-27T11:33:58Z</time>
      </trkpt>
      <trkpt lat="43.75099" lon="6.94583">
        <ele>1320.9</ele>
        <time>2025-09-27T11:34:02Z</time>
      </trkpt>
      <trkpt lat="43.751" lon="6.94591">
        <ele>1321.7</ele>
        <time>2025-09-27T11:34:06Z</time>
      </trkpt>
      <trkpt lat="43.75098" lon="6.94598">
        <ele>1322.4</ele>
        <time>2025-09-27T11:34:10Z</time>
      </trkpt>
      <trkpt lat="43.75096" lon="6.94604">
        <ele>1323</ele>
        <time>2025-09-27T11:34:13Z</time>
      </trkpt>
      <trkpt lat="43.75095" lon="6.9461">
        <ele>1323.6</ele>
        <time>2025-09-27T11:34:16Z</time>
      </trkpt>
      <trkpt lat="43.75094" lon="6.94617">
        <ele>1324.3</ele>
        <time>2025-09-27T11:34:20Z</time>
      </trkpt>
      <trkpt lat="43.75093" lon="6.94624">
        <ele>1324.9</ele>
        <time>2025-09-27T11:34:24Z</time>
      </trkpt>
      <trkpt lat="43.75092" lon="6.94631">
        <ele>1325.4</ele>
        <time>2025-09-27T11:34:27Z</time>
      </trkpt>
      <trkpt lat="43.7509" lon="6.94638">
        <ele>1325.8</ele>
        <time>2025-09-27T11:34:30Z</time>
      </trkpt>
      <trkpt lat="43.75088" lon="6.94643">
        <ele>1326.1</ele>
        <time>2025-09-27T11:34:34Z</time>
      </trkpt>
      <trkpt lat="43.75086" lon="6.94649">
        <ele>1326.3</ele>
        <time>2025-09-27T11:34:38Z</time>
      </trkpt>
      <trkpt lat="43.75085" lon="6.94655">
        <ele>1326.5</ele>
        <time>2025-09-27T11:34:42Z</time>
      </trkpt>
      <trkpt lat="43.75084" lon="6.94663">
        <ele>1326.4</ele>
        <time>2025-09-27T11:34:46Z</time>
      </trkpt>
      <trkpt lat="43.75083" lon="6.94669">
        <ele>1326.4</ele>
        <time>2025-09-27T11:34:50Z</time>
      </trkpt>
      <trkpt lat="43.75082" lon="6.94676">
        <ele>1326.2</ele>
        <time>2025-09-27T11:34:54Z</time>
      </trkpt>
      <trkpt lat="43.75082" lon="6.94684">
        <ele>1326</ele>
        <time>2025-09-27T11:36:32Z</time>
      </trkpt>
      <trkpt lat="43.75082" lon="6.94691">
        <ele>1325.6</ele>
        <time>2025-09-27T11:36:35Z</time>
      </trkpt>
      <trkpt lat="43.75081" lon="6.94698">
        <ele>1325.2</ele>
        <time>2025-09-27T11:36:37Z</time>
      </trkpt>
      <trkpt lat="43.7508" lon="6.94709">
        <ele>1324.8</ele>
        <time>2025-09-27T11:36:39Z</time>
      </trkpt>
      <trkpt lat="43.7508" lon="6.94716">
        <ele>1324.8</ele>
        <time>2025-09-27T11:36:41Z</time>
      </trkpt>
      <trkpt lat="43.7508" lon="6.94724">
        <ele>1325.1</ele>
        <time>2025-09-27T11:36:44Z</time>
      </trkpt>
      <trkpt lat="43.75079" lon="6.9473">
        <ele>1325.4</ele>
        <time>2025-09-27T11:36:47Z</time>
      </trkpt>
      <trkpt lat="43.75076" lon="6.94737">
        <ele>1326</ele>
        <time>2025-09-27T11:36:50Z</time>
      </trkpt>
      <trkpt lat="43.75074" lon="6.94743">
        <ele>1326.6</ele>
        <time>2025-09-27T11:36:52Z</time>
      </trkpt>
      <trkpt lat="43.75072" lon="6.94749">
        <ele>1327.3</ele>
        <time>2025-09-27T11:36:54Z</time>
      </trkpt>
      <trkpt lat="43.7507" lon="6.94756">
        <ele>1327.9</ele>
        <time>2025-09-27T11:36:56Z</time>
      </trkpt>
      <trkpt lat="43.75071" lon="6.94763">
        <ele>1328.5</ele>
        <time>2025-09-27T11:37:00Z</time>
      </trkpt>
      <trkpt lat="43.75073" lon="6.9477">
        <ele>1328.9</ele>
        <time>2025-09-27T11:37:03Z</time>
      </trkpt>
      <trkpt lat="43.75074" lon="6.94778">
        <ele>1329.2</ele>
        <time>2025-09-27T11:37:06Z</time>
      </trkpt>
      <trkpt lat="43.75074" lon="6.94785">
        <ele>1329.4</ele>
        <time>2025-09-27T11:37:09Z</time>
      </trkpt>
      <trkpt lat="43.75072" lon="6.9479">
        <ele>1329.5</ele>
        <time>2025-09-27T11:37:13Z</time>
      </trkpt>
      <trkpt lat="43.75068" lon="6.94791">
        <ele>1329.4</ele>
        <time>2025-09-27T11:42:43Z</time>
      </trkpt>
      <trkpt lat="43.7507" lon="6.94799">
        <ele>1328.9</ele>
        <time>2025-09-27T11:43:58Z</time>
      </trkpt>
      <trkpt lat="43.75071" lon="6.94806">
        <ele>1328.3</ele>
        <time>2025-09-27T11:44:00Z</time>
      </trkpt>
      <trkpt lat="43.75073" lon="6.94811">
        <ele>1327.4</ele>
        <time>2025-09-27T11:44:02Z</time>
      </trkpt>
      <trkpt lat="43.75075" lon="6.94819">
        <ele>1326.1</ele>
        <time>2025-09-27T11:44:06Z</time>
      </trkpt>
      <trkpt lat="43.75079" lon="6.94825">
        <ele>1324.8</ele>
        <time>2025-09-27T11:44:08Z</time>
      </trkpt>
      <trkpt lat="43.75084" lon="6.94828">
        <ele>1324.4</ele>
        <time>2025-09-27T11:44:10Z</time>
      </trkpt>
      <trkpt lat="43.75088" lon="6.94831">
        <ele>1324.1</ele>
        <time>2025-09-27T11:44:12Z</time>
      </trkpt>
      <trkpt lat="43.75092" lon="6.94835">
        <ele>1323.7</ele>
        <time>2025-09-27T11:44:14Z</time>
      </trkpt>
      <trkpt lat="43.75097" lon="6.94841">
        <ele>1322.9</ele>
        <time>2025-09-27T11:44:16Z</time>
      </trkpt>
      <trkpt lat="43.75101" lon="6.94848">
        <ele>1321.8</ele>
        <time>2025-09-27T11:44:18Z</time>
      </trkpt>
      <trkpt lat="43.75106" lon="6.94855">
        <ele>1320.3</ele>
        <time>2025-09-27T11:44:20Z</time>
      </trkpt>
      <trkpt lat="43.75112" lon="6.94863">
        <ele>1318.4</ele>
        <time>2025-09-27T11:44:22Z</time>
      </trkpt>
      <trkpt lat="43.75117" lon="6.94871">
        <ele>1316.5</ele>
        <time>2025-09-27T11:44:24Z</time>
      </trkpt>
      <trkpt lat="43.75121" lon="6.94879">
        <ele>1314.8</ele>
        <time>2025-09-27T11:44:26Z</time>
      </trkpt>
      <trkpt lat="43.75122" lon="6.94889">
        <ele>1313.1</ele>
        <time>2025-09-27T11:44:28Z</time>
      </trkpt>
      <trkpt lat="43.75124" lon="6.94898">
        <ele>1311.5</ele>
        <time>2025-09-27T11:44:30Z</time>
      </trkpt>
      <trkpt lat="43.75125" lon="6.94909">
        <ele>1309.8</ele>
        <time>2025-09-27T11:44:32Z</time>
      </trkpt>
      <trkpt lat="43.75127" lon="6.94917">
        <ele>1308.3</ele>
        <time>2025-09-27T11:44:34Z</time>
      </trkpt>
      <trkpt lat="43.75131" lon="6.94924">
        <ele>1306.8</ele>
        <time>2025-09-27T11:44:36Z</time>
      </trkpt>
      <trkpt lat="43.75134" lon="6.9493">
        <ele>1305.4</ele>
        <time>2025-09-27T11:44:38Z</time>
      </trkpt>
      <trkpt lat="43.75137" lon="6.9494">
        <ele>1303.7</ele>
        <time>2025-09-27T11:44:40Z</time>
      </trkpt>
      <trkpt lat="43.75138" lon="6.94946">
        <ele>1302.6</ele>
        <time>2025-09-27T11:44:41Z</time>
      </trkpt>
      <trkpt lat="43.7514" lon="6.94952">
        <ele>1301.7</ele>
        <time>2025-09-27T11:44:42Z</time>
      </trkpt>
      <trkpt lat="43.75141" lon="6.94964">
        <ele>1299.9</ele>
        <time>2025-09-27T11:44:44Z</time>
      </trkpt>
      <trkpt lat="43.75141" lon="6.94971">
        <ele>1298.9</ele>
        <time>2025-09-27T11:44:45Z</time>
      </trkpt>
      <trkpt lat="43.75141" lon="6.9498">
        <ele>1297.9</ele>
        <time>2025-09-27T11:44:46Z</time>
      </trkpt>
      <trkpt lat="43.7514" lon="6.94988">
        <ele>1297.4</ele>
        <time>2025-09-27T11:44:47Z</time>
      </trkpt>
      <trkpt lat="43.75138" lon="6.94997">
        <ele>1297.1</ele>
        <time>2025-09-27T11:44:48Z</time>
      </trkpt>
      <trkpt lat="43.75134" lon="6.95003">
        <ele>1297</ele>
        <time>2025-09-27T11:44:49Z</time>
      </trkpt>
      <trkpt lat="43.7513" lon="6.95008">
        <ele>1296.9</ele>
        <time>2025-09-27T11:44:50Z</time>
      </trkpt>
      <trkpt lat="43.75124" lon="6.95013">
        <ele>1297</ele>
        <time>2025-09-27T11:44:52Z</time>
      </trkpt>
      <trkpt lat="43.75119" lon="6.95016">
        <ele>1297.1</ele>
        <time>2025-09-27T11:44:54Z</time>
      </trkpt>
      <trkpt lat="43.75114" lon="6.95017">
        <ele>1297.3</ele>
        <time>2025-09-27T11:44:56Z</time>
      </trkpt>
      <trkpt lat="43.7511" lon="6.95017">
        <ele>1297.5</ele>
        <time>2025-09-27T11:44:58Z</time>
      </trkpt>
      <trkpt lat="43.75105" lon="6.95018">
        <ele>1297.8</ele>
        <time>2025-09-27T11:45:00Z</time>
      </trkpt>
      <trkpt lat="43.75099" lon="6.95019">
        <ele>1298.2</ele>
        <time>2025-09-27T11:45:03Z</time>
      </trkpt>
      <trkpt lat="43.75093" lon="6.95021">
        <ele>1298.7</ele>
        <time>2025-09-27T11:45:06Z</time>
      </trkpt>
      <trkpt lat="43.75089" lon="6.95021">
        <ele>1299.1</ele>
        <time>2025-09-27T11:45:08Z</time>
      </trkpt>
      <trkpt lat="43.75084" lon="6.95019">
        <ele>1299.6</ele>
        <time>2025-09-27T11:45:11Z</time>
      </trkpt>
      <trkpt lat="43.75078" lon="6.9502">
        <ele>1300.1</ele>
        <time>2025-09-27T11:45:15Z</time>
      </trkpt>
      <trkpt lat="43.75072" lon="6.9502">
        <ele>1300.6</ele>
        <time>2025-09-27T11:45:18Z</time>
      </trkpt>
      <trkpt lat="43.75067" lon="6.95021">
        <ele>1301</ele>
        <time>2025-09-27T11:45:27Z</time>
      </trkpt>
      <trkpt lat="43.75063" lon="6.95016">
        <ele>1301.4</ele>
        <time>2025-09-27T11:45:36Z</time>
      </trkpt>
      <trkpt lat="43.75058" lon="6.95012">
        <ele>1302</ele>
        <time>2025-09-27T11:45:43Z</time>
      </trkpt>
      <trkpt lat="43.75053" lon="6.95014">
        <ele>1302.6</ele>
        <time>2025-09-27T11:45:46Z</time>
      </trkpt>
      <trkpt lat="43.75048" lon="6.95017">
        <ele>1303.2</ele>
        <time>2025-09-27T11:45:49Z</time>
      </trkpt>
      <trkpt lat="43.75043" lon="6.95019">
        <ele>1304</ele>
        <time>2025-09-27T11:45:53Z</time>
      </trkpt>
      <trkpt lat="43.75037" lon="6.95019">
        <ele>1304.7</ele>
        <time>2025-09-27T11:45:57Z</time>
      </trkpt>
      <trkpt lat="43.75031" lon="6.95018">
        <ele>1305.4</ele>
        <time>2025-09-27T11:46:01Z</time>
      </trkpt>
      <trkpt lat="43.75025" lon="6.95019">
        <ele>1306</ele>
        <time>2025-09-27T11:46:05Z</time>
      </trkpt>
      <trkpt lat="43.7502" lon="6.95017">
        <ele>1306.6</ele>
        <time>2025-09-27T11:46:09Z</time>
      </trkpt>
      <trkpt lat="43.75015" lon="6.95017">
        <ele>1307.1</ele>
        <time>2025-09-27T11:46:12Z</time>
      </trkpt>
      <trkpt lat="43.7501" lon="6.95018">
        <ele>1307.6</ele>
        <time>2025-09-27T11:46:15Z</time>
      </trkpt>
      <trkpt lat="43.75005" lon="6.9502">
        <ele>1308.3</ele>
        <time>2025-09-27T11:46:19Z</time>
      </trkpt>
      <trkpt lat="43.75002" lon="6.95026">
        <ele>1309</ele>
        <time>2025-09-27T11:46:24Z</time>
      </trkpt>
      <trkpt lat="43.75002" lon="6.95033">
        <ele>1309.6</ele>
        <time>2025-09-27T11:46:28Z</time>
      </trkpt>
      <trkpt lat="43.75001" lon="6.95041">
        <ele>1310.2</ele>
        <time>2025-09-27T11:46:32Z</time>
      </trkpt>
      <trkpt lat="43.74998" lon="6.95047">
        <ele>1310.8</ele>
        <time>2025-09-27T11:46:36Z</time>
      </trkpt>
      <trkpt lat="43.74993" lon="6.95048">
        <ele>1311.3</ele>
        <time>2025-09-27T11:46:42Z</time>
      </trkpt>
      <trkpt lat="43.74995" lon="6.95055">
        <ele>1311.7</ele>
        <time>2025-09-27T11:46:50Z</time>
      </trkpt>
      <trkpt lat="43.74998" lon="6.95061">
        <ele>1311.9</ele>
        <time>2025-09-27T11:46:56Z</time>
      </trkpt>
      <trkpt lat="43.74998" lon="6.95068">
        <ele>1312.2</ele>
        <time>2025-09-27T11:46:59Z</time>
      </trkpt>
      <trkpt lat="43.74998" lon="6.95076">
        <ele>1312.5</ele>
        <time>2025-09-27T11:47:02Z</time>
      </trkpt>
      <trkpt lat="43.74997" lon="6.95083">
        <ele>1312.8</ele>
        <time>2025-09-27T11:47:05Z</time>
      </trkpt>
      <trkpt lat="43.74996" lon="6.9509">
        <ele>1313</ele>
        <time>2025-09-27T11:47:08Z</time>
      </trkpt>
      <trkpt lat="43.74996" lon="6.95098">
        <ele>1313.4</ele>
        <time>2025-09-27T11:47:12Z</time>
      </trkpt>
      <trkpt lat="43.74996" lon="6.95105">
        <ele>1313.7</ele>
        <time>2025-09-27T11:47:15Z</time>
      </trkpt>
      <trkpt lat="43.74997" lon="6.95112">
        <ele>1314</ele>
        <time>2025-09-27T11:47:18Z</time>
      </trkpt>
      <trkpt lat="43.74997" lon="6.9512">
        <ele>1314.4</ele>
        <time>2025-09-27T11:47:22Z</time>
      </trkpt>
      <trkpt lat="43.74996" lon="6.95126">
        <ele>1314.7</ele>
        <time>2025-09-27T11:47:25Z</time>
      </trkpt>
      <trkpt lat="43.74994" lon="6.95133">
        <ele>1315.1</ele>
        <time>2025-09-27T11:47:28Z</time>
      </trkpt>
      <trkpt lat="43.74991" lon="6.95138">
        <ele>1315.4</ele>
        <time>2025-09-27T11:47:31Z</time>
      </trkpt>
      <trkpt lat="43.7499" lon="6.95146">
        <ele>1315.5</ele>
        <time>2025-09-27T11:47:34Z</time>
      </trkpt>
      <trkpt lat="43.7499" lon="6.95153">
        <ele>1315.5</ele>
        <time>2025-09-27T11:47:37Z</time>
      </trkpt>
      <trkpt lat="43.7499" lon="6.9516">
        <ele>1315.4</ele>
        <time>2025-09-27T11:47:39Z</time>
      </trkpt>
      <trkpt lat="43.74989" lon="6.95169">
        <ele>1315.2</ele>
        <time>2025-09-27T11:47:41Z</time>
      </trkpt>
      <trkpt lat="43.74987" lon="6.95177">
        <ele>1315.2</ele>
        <time>2025-09-27T11:47:43Z</time>
      </trkpt>
      <trkpt lat="43.74983" lon="6.95184">
        <ele>1315.4</ele>
        <time>2025-09-27T11:47:46Z</time>
      </trkpt>
      <trkpt lat="43.74979" lon="6.95191">
        <ele>1315.7</ele>
        <time>2025-09-27T11:47:49Z</time>
      </trkpt>
      <trkpt lat="43.74976" lon="6.95197">
        <ele>1315.9</ele>
        <time>2025-09-27T11:47:51Z</time>
      </trkpt>
      <trkpt lat="43.74973" lon="6.95203">
        <ele>1316.1</ele>
        <time>2025-09-27T11:47:53Z</time>
      </trkpt>
      <trkpt lat="43.74969" lon="6.95207">
        <ele>1316.2</ele>
        <time>2025-09-27T11:47:55Z</time>
      </trkpt>
      <trkpt lat="43.74963" lon="6.9521">
        <ele>1316.2</ele>
        <time>2025-09-27T11:47:57Z</time>
      </trkpt>
      <trkpt lat="43.7496" lon="6.95214">
        <ele>1315.9</ele>
        <time>2025-09-27T11:47:59Z</time>
      </trkpt>
      <trkpt lat="43.74961" lon="6.95222">
        <ele>1315.3</ele>
        <time>2025-09-27T11:48:03Z</time>
      </trkpt>
      <trkpt lat="43.74963" lon="6.95229">
        <ele>1314.4</ele>
        <time>2025-09-27T11:48:06Z</time>
      </trkpt>
      <trkpt lat="43.74966" lon="6.9524">
        <ele>1312.8</ele>
        <time>2025-09-27T11:48:08Z</time>
      </trkpt>
      <trkpt lat="43.74967" lon="6.95247">
        <ele>1311.7</ele>
        <time>2025-09-27T11:48:09Z</time>
      </trkpt>
      <trkpt lat="43.74968" lon="6.95253">
        <ele>1310.8</ele>
        <time>2025-09-27T11:48:10Z</time>
      </trkpt>
      <trkpt lat="43.74966" lon="6.95262">
        <ele>1309.4</ele>
        <time>2025-09-27T11:48:12Z</time>
      </trkpt>
      <trkpt lat="43.74962" lon="6.95274">
        <ele>1308</ele>
        <time>2025-09-27T11:48:14Z</time>
      </trkpt>
      <trkpt lat="43.74961" lon="6.95282">
        <ele>1307.4</ele>
        <time>2025-09-27T11:48:15Z</time>
      </trkpt>
      <trkpt lat="43.7496" lon="6.95288">
        <ele>1307.1</ele>
        <time>2025-09-27T11:48:16Z</time>
      </trkpt>
      <trkpt lat="43.74957" lon="6.95297">
        <ele>1306.9</ele>
        <time>2025-09-27T11:48:18Z</time>
      </trkpt>
      <trkpt lat="43.74953" lon="6.95304">
        <ele>1306.9</ele>
        <time>2025-09-27T11:48:20Z</time>
      </trkpt>
      <trkpt lat="43.74948" lon="6.95309">
        <ele>1306.8</ele>
        <time>2025-09-27T11:48:23Z</time>
      </trkpt>
      <trkpt lat="43.74945" lon="6.95315">
        <ele>1306.8</ele>
        <time>2025-09-27T11:48:26Z</time>
      </trkpt>
      <trkpt lat="43.74944" lon="6.95321">
        <ele>1306.7</ele>
        <time>2025-09-27T11:48:29Z</time>
      </trkpt>
      <trkpt lat="43.74939" lon="6.95327">
        <ele>1306.4</ele>
        <time>2025-09-27T11:48:32Z</time>
      </trkpt>
      <trkpt lat="43.74933" lon="6.95333">
        <ele>1305.9</ele>
        <time>2025-09-27T11:48:34Z</time>
      </trkpt>
      <trkpt lat="43.74926" lon="6.95339">
        <ele>1305.1</ele>
        <time>2025-09-27T11:48:36Z</time>
      </trkpt>
      <trkpt lat="43.7492" lon="6.95347">
        <ele>1304</ele>
        <time>2025-09-27T11:48:38Z</time>
      </trkpt>
      <trkpt lat="43.74916" lon="6.95351">
        <ele>1303.3</ele>
        <time>2025-09-27T11:48:39Z</time>
      </trkpt>
      <trkpt lat="43.74912" lon="6.95355">
        <ele>1302.6</ele>
        <time>2025-09-27T11:48:40Z</time>
      </trkpt>
      <trkpt lat="43.74905" lon="6.95361">
        <ele>1301.3</ele>
        <time>2025-09-27T11:48:42Z</time>
      </trkpt>
      <trkpt lat="43.74901" lon="6.95371">
        <ele>1300.1</ele>
        <time>2025-09-27T11:48:44Z</time>
      </trkpt>
      <trkpt lat="43.74898" lon="6.95377">
        <ele>1299.5</ele>
        <time>2025-09-27T11:48:45Z</time>
      </trkpt>
      <trkpt lat="43.74896" lon="6.95383">
        <ele>1299</ele>
        <time>2025-09-27T11:48:46Z</time>
      </trkpt>
      <trkpt lat="43.74894" lon="6.95389">
        <ele>1298.6</ele>
        <time>2025-09-27T11:48:47Z</time>
      </trkpt>
      <trkpt lat="43.74894" lon="6.95395">
        <ele>1298.2</ele>
        <time>2025-09-27T11:48:48Z</time>
      </trkpt>
      <trkpt lat="43.74893" lon="6.95402">
        <ele>1297.9</ele>
        <time>2025-09-27T11:48:49Z</time>
      </trkpt>
      <trkpt lat="43.74892" lon="6.95408">
        <ele>1297.5</ele>
        <time>2025-09-27T11:48:50Z</time>
      </trkpt>
      <trkpt lat="43.7489" lon="6.95414">
        <ele>1297.1</ele>
        <time>2025-09-27T11:48:51Z</time>
      </trkpt>
      <trkpt lat="43.74888" lon="6.9542">
        <ele>1296.8</ele>
        <time>2025-09-27T11:48:52Z</time>
      </trkpt>
      <trkpt lat="43.74887" lon="6.95427">
        <ele>1296.4</ele>
        <time>2025-09-27T11:48:53Z</time>
      </trkpt>
      <trkpt lat="43.74886" lon="6.95433">
        <ele>1296.1</ele>
        <time>2025-09-27T11:48:54Z</time>
      </trkpt>
      <trkpt lat="43.74883" lon="6.95443">
        <ele>1295.3</ele>
        <time>2025-09-27T11:48:56Z</time>
      </trkpt>
      <trkpt lat="43.74879" lon="6.95448">
        <ele>1294.7</ele>
        <time>2025-09-27T11:48:57Z</time>
      </trkpt>
      <trkpt lat="43.74876" lon="6.95452">
        <ele>1294.1</ele>
        <time>2025-09-27T11:48:58Z</time>
      </trkpt>
      <trkpt lat="43.74871" lon="6.95458">
        <ele>1293.4</ele>
        <time>2025-09-27T11:48:59Z</time>
      </trkpt>
      <trkpt lat="43.74867" lon="6.95464">
        <ele>1292.8</ele>
        <time>2025-09-27T11:49:00Z</time>
      </trkpt>
      <trkpt lat="43.74862" lon="6.9547">
        <ele>1292.2</ele>
        <time>2025-09-27T11:49:01Z</time>
      </trkpt>
      <trkpt lat="43.74859" lon="6.95477">
        <ele>1291.6</ele>
        <time>2025-09-27T11:49:02Z</time>
      </trkpt>
      <trkpt lat="43.74854" lon="6.95483">
        <ele>1291</ele>
        <time>2025-09-27T11:49:03Z</time>
      </trkpt>
      <trkpt lat="43.7485" lon="6.9549">
        <ele>1290.4</ele>
        <time>2025-09-27T11:49:04Z</time>
      </trkpt>
      <trkpt lat="43.74844" lon="6.95495">
        <ele>1289.7</ele>
        <time>2025-09-27T11:49:05Z</time>
      </trkpt>
      <trkpt lat="43.74839" lon="6.955">
        <ele>1289.1</ele>
        <time>2025-09-27T11:49:06Z</time>
      </trkpt>
      <trkpt lat="43.74834" lon="6.95503">
        <ele>1288.7</ele>
        <time>2025-09-27T11:49:07Z</time>
      </trkpt>
      <trkpt lat="43.7483" lon="6.95508">
        <ele>1288.4</ele>
        <time>2025-09-27T11:49:08Z</time>
      </trkpt>
      <trkpt lat="43.74827" lon="6.95514">
        <ele>1288.3</ele>
        <time>2025-09-27T11:49:09Z</time>
      </trkpt>
      <trkpt lat="43.74824" lon="6.9552">
        <ele>1288.2</ele>
        <time>2025-09-27T11:49:10Z</time>
      </trkpt>
      <trkpt lat="43.74821" lon="6.95526">
        <ele>1288.2</ele>
        <time>2025-09-27T11:49:11Z</time>
      </trkpt>
      <trkpt lat="43.74817" lon="6.95535">
        <ele>1288.4</ele>
        <time>2025-09-27T11:49:13Z</time>
      </trkpt>
      <trkpt lat="43.74815" lon="6.95543">
        <ele>1288.5</ele>
        <time>2025-09-27T11:49:15Z</time>
      </trkpt>
      <trkpt lat="43.74813" lon="6.95551">
        <ele>1288.7</ele>
        <time>2025-09-27T11:49:17Z</time>
      </trkpt>
      <trkpt lat="43.7481" lon="6.95559">
        <ele>1288.8</ele>
        <time>2025-09-27T11:49:19Z</time>
      </trkpt>
      <trkpt lat="43.74807" lon="6.95567">
        <ele>1288.9</ele>
        <time>2025-09-27T11:49:21Z</time>
      </trkpt>
      <trkpt lat="43.74804" lon="6.95574">
        <ele>1288.8</ele>
        <time>2025-09-27T11:49:23Z</time>
      </trkpt>
      <trkpt lat="43.74799" lon="6.95582">
        <ele>1288.6</ele>
        <time>2025-09-27T11:49:25Z</time>
      </trkpt>
      <trkpt lat="43.74795" lon="6.9559">
        <ele>1288.2</ele>
        <time>2025-09-27T11:49:27Z</time>
      </trkpt>
      <trkpt lat="43.7479" lon="6.95599">
        <ele>1287.8</ele>
        <time>2025-09-27T11:49:29Z</time>
      </trkpt>
      <trkpt lat="43.74783" lon="6.95606">
        <ele>1287.2</ele>
        <time>2025-09-27T11:49:31Z</time>
      </trkpt>
      <trkpt lat="43.74779" lon="6.95617">
        <ele>1286.2</ele>
        <time>2025-09-27T11:49:33Z</time>
      </trkpt>
      <trkpt lat="43.74778" lon="6.95623">
        <ele>1285.5</ele>
        <time>2025-09-27T11:49:34Z</time>
      </trkpt>
      <trkpt lat="43.74775" lon="6.95629">
        <ele>1284.8</ele>
        <time>2025-09-27T11:49:35Z</time>
      </trkpt>
      <trkpt lat="43.74771" lon="6.95633">
        <ele>1283.9</ele>
        <time>2025-09-27T11:49:36Z</time>
      </trkpt>
      <trkpt lat="43.74767" lon="6.95637">
        <ele>1283.1</ele>
        <time>2025-09-27T11:49:37Z</time>
      </trkpt>
      <trkpt lat="43.74762" lon="6.95645">
        <ele>1281.7</ele>
        <time>2025-09-27T11:49:39Z</time>
      </trkpt>
      <trkpt lat="43.74758" lon="6.95654">
        <ele>1280.1</ele>
        <time>2025-09-27T11:49:41Z</time>
      </trkpt>
      <trkpt lat="43.74752" lon="6.95663">
        <ele>1278.2</ele>
        <time>2025-09-27T11:49:43Z</time>
      </trkpt>
      <trkpt lat="43.74749" lon="6.95669">
        <ele>1277</ele>
        <time>2025-09-27T11:49:44Z</time>
      </trkpt>
      <trkpt lat="43.74746" lon="6.95679">
        <ele>1275.1</ele>
        <time>2025-09-27T11:49:46Z</time>
      </trkpt>
      <trkpt lat="43.74744" lon="6.95685">
        <ele>1274.1</ele>
        <time>2025-09-27T11:49:47Z</time>
      </trkpt>
      <trkpt lat="43.74742" lon="6.95691">
        <ele>1273.1</ele>
        <time>2025-09-27T11:49:48Z</time>
      </trkpt>
      <trkpt lat="43.74738" lon="6.95701">
        <ele>1271.4</ele>
        <time>2025-09-27T11:49:50Z</time>
      </trkpt>
      <trkpt lat="43.74731" lon="6.95704">
        <ele>1270.2</ele>
        <time>2025-09-27T11:49:52Z</time>
      </trkpt>
      <trkpt lat="43.74724" lon="6.95705">
        <ele>1268.8</ele>
        <time>2025-09-27T11:49:54Z</time>
      </trkpt>
      <trkpt lat="43.74719" lon="6.95706">
        <ele>1267.9</ele>
        <time>2025-09-27T11:49:55Z</time>
      </trkpt>
      <trkpt lat="43.7471" lon="6.95709">
        <ele>1266.2</ele>
        <time>2025-09-27T11:49:57Z</time>
      </trkpt>
      <trkpt lat="43.74706" lon="6.95712">
        <ele>1265.4</ele>
        <time>2025-09-27T11:49:58Z</time>
      </trkpt>
      <trkpt lat="43.74701" lon="6.95715">
        <ele>1264.4</ele>
        <time>2025-09-27T11:49:59Z</time>
      </trkpt>
      <trkpt lat="43.74696" lon="6.95718">
        <ele>1263.5</ele>
        <time>2025-09-27T11:50:00Z</time>
      </trkpt>
      <trkpt lat="43.74692" lon="6.9572">
        <ele>1262.7</ele>
        <time>2025-09-27T11:50:01Z</time>
      </trkpt>
      <trkpt lat="43.74688" lon="6.95723">
        <ele>1261.9</ele>
        <time>2025-09-27T11:50:02Z</time>
      </trkpt>
      <trkpt lat="43.74683" lon="6.95727">
        <ele>1261.1</ele>
        <time>2025-09-27T11:50:03Z</time>
      </trkpt>
      <trkpt lat="43.74678" lon="6.95732">
        <ele>1260.2</ele>
        <time>2025-09-27T11:50:04Z</time>
      </trkpt>
      <trkpt lat="43.74674" lon="6.95737">
        <ele>1259.4</ele>
        <time>2025-09-27T11:50:05Z</time>
      </trkpt>
      <trkpt lat="43.7467" lon="6.95742">
        <ele>1258.7</ele>
        <time>2025-09-27T11:50:06Z</time>
      </trkpt>
      <trkpt lat="43.74665" lon="6.95748">
        <ele>1258</ele>
        <time>2025-09-27T11:50:07Z</time>
      </trkpt>
      <trkpt lat="43.7466" lon="6.95756">
        <ele>1257.1</ele>
        <time>2025-09-27T11:50:09Z</time>
      </trkpt>
      <trkpt lat="43.74657" lon="6.95763">
        <ele>1256.3</ele>
        <time>2025-09-27T11:50:11Z</time>
      </trkpt>
      <trkpt lat="43.74654" lon="6.95773">
        <ele>1255.2</ele>
        <time>2025-09-27T11:50:13Z</time>
      </trkpt>
      <trkpt lat="43.7465" lon="6.95782">
        <ele>1254.3</ele>
        <time>2025-09-27T11:50:15Z</time>
      </trkpt>
      <trkpt lat="43.74647" lon="6.95788">
        <ele>1253.7</ele>
        <time>2025-09-27T11:50:16Z</time>
      </trkpt>
      <trkpt lat="43.74643" lon="6.95793">
        <ele>1253.2</ele>
        <time>2025-09-27T11:50:17Z</time>
      </trkpt>
      <trkpt lat="43.74638" lon="6.958">
        <ele>1252.2</ele>
        <time>2025-09-27T11:50:19Z</time>
      </trkpt>
      <trkpt lat="43.74633" lon="6.95802">
        <ele>1251.6</ele>
        <time>2025-09-27T11:50:20Z</time>
      </trkpt>
      <trkpt lat="43.74627" lon="6.95803">
        <ele>1250.8</ele>
        <time>2025-09-27T11:50:21Z</time>
      </trkpt>
      <trkpt lat="43.74622" lon="6.95803">
        <ele>1250.1</ele>
        <time>2025-09-27T11:50:22Z</time>
      </trkpt>
      <trkpt lat="43.74617" lon="6.95803">
        <ele>1249.5</ele>
        <time>2025-09-27T11:50:23Z</time>
      </trkpt>
      <trkpt lat="43.74612" lon="6.95803">
        <ele>1249</ele>
        <time>2025-09-27T11:50:24Z</time>
      </trkpt>
      <trkpt lat="43.74604" lon="6.95809">
        <ele>1248.2</ele>
        <time>2025-09-27T11:50:26Z</time>
      </trkpt>
      <trkpt lat="43.74595" lon="6.95811">
        <ele>1247.5</ele>
        <time>2025-09-27T11:50:28Z</time>
      </trkpt>
      <trkpt lat="43.7459" lon="6.95813">
        <ele>1247.2</ele>
        <time>2025-09-27T11:50:29Z</time>
      </trkpt>
      <trkpt lat="43.74583" lon="6.95818">
        <ele>1247</ele>
        <time>2025-09-27T11:50:31Z</time>
      </trkpt>
      <trkpt lat="43.74579" lon="6.95821">
        <ele>1247.1</ele>
        <time>2025-09-27T11:50:33Z</time>
      </trkpt>
      <trkpt lat="43.74574" lon="6.95821">
        <ele>1247.2</ele>
        <time>2025-09-27T11:50:36Z</time>
      </trkpt>
      <trkpt lat="43.74568" lon="6.95821">
        <ele>1247.5</ele>
        <time>2025-09-27T11:50:39Z</time>
      </trkpt>
      <trkpt lat="43.74563" lon="6.95821">
        <ele>1247.7</ele>
        <time>2025-09-27T11:50:42Z</time>
      </trkpt>
      <trkpt lat="43.74557" lon="6.9582">
        <ele>1248.2</ele>
        <time>2025-09-27T11:50:46Z</time>
      </trkpt>
      <trkpt lat="43.74551" lon="6.95817">
        <ele>1248.8</ele>
        <time>2025-09-27T11:50:50Z</time>
      </trkpt>
      <trkpt lat="43.74546" lon="6.95815">
        <ele>1249.6</ele>
        <time>2025-09-27T11:50:53Z</time>
      </trkpt>
      <trkpt lat="43.74542" lon="6.95812">
        <ele>1250.2</ele>
        <time>2025-09-27T11:51:00Z</time>
      </trkpt>
      <trkpt lat="43.74538" lon="6.95809">
        <ele>1250.9</ele>
        <time>2025-09-27T11:51:06Z</time>
      </trkpt>
      <trkpt lat="43.74533" lon="6.95811">
        <ele>1251.4</ele>
        <time>2025-09-27T11:51:12Z</time>
      </trkpt>
      <trkpt lat="43.74529" lon="6.95814">
        <ele>1251.6</ele>
        <time>2025-09-27T11:51:17Z</time>
      </trkpt>
      <trkpt lat="43.74525" lon="6.95817">
        <ele>1251.6</ele>
        <time>2025-09-27T11:52:00Z</time>
      </trkpt>
      <trkpt lat="43.74522" lon="6.95822">
        <ele>1251.4</ele>
        <time>2025-09-27T11:53:13Z</time>
      </trkpt>
      <trkpt lat="43.7452" lon="6.95828">
        <ele>1251</ele>
        <time>2025-09-27T11:53:18Z</time>
      </trkpt>
      <trkpt lat="43.74518" lon="6.95834">
        <ele>1250.5</ele>
        <time>2025-09-27T11:53:32Z</time>
      </trkpt>
      <trkpt lat="43.74515" lon="6.9584">
        <ele>1249.7</ele>
        <time>2025-09-27T11:53:35Z</time>
      </trkpt>
      <trkpt lat="43.7451" lon="6.95842">
        <ele>1248.9</ele>
        <time>2025-09-27T11:53:37Z</time>
      </trkpt>
      <trkpt lat="43.74506" lon="6.95844">
        <ele>1248.3</ele>
        <time>2025-09-27T11:53:39Z</time>
      </trkpt>
      <trkpt lat="43.74501" lon="6.95845">
        <ele>1247.6</ele>
        <time>2025-09-27T11:53:46Z</time>
      </trkpt>
      <trkpt lat="43.74496" lon="6.95844">
        <ele>1247</ele>
        <time>2025-09-27T11:53:50Z</time>
      </trkpt>
      <trkpt lat="43.74491" lon="6.95845">
        <ele>1246.5</ele>
        <time>2025-09-27T11:53:57Z</time>
      </trkpt>
      <trkpt lat="43.74486" lon="6.95846">
        <ele>1246.3</ele>
        <time>2025-09-27T11:54:02Z</time>
      </trkpt>
      <trkpt lat="43.74481" lon="6.95848">
        <ele>1246.1</ele>
        <time>2025-09-27T11:54:05Z</time>
      </trkpt>
      <trkpt lat="43.74478" lon="6.95853">
        <ele>1245.9</ele>
        <time>2025-09-27T11:54:09Z</time>
      </trkpt>
      <trkpt lat="43.74475" lon="6.9586">
        <ele>1245.6</ele>
        <time>2025-09-27T11:54:12Z</time>
      </trkpt>
      <trkpt lat="43.74473" lon="6.95867">
        <ele>1245.1</ele>
        <time>2025-09-27T11:54:14Z</time>
      </trkpt>
      <trkpt lat="43.74469" lon="6.95874">
        <ele>1244.4</ele>
        <time>2025-09-27T11:54:16Z</time>
      </trkpt>
      <trkpt lat="43.74463" lon="6.95883">
        <ele>1243.4</ele>
        <time>2025-09-27T11:54:18Z</time>
      </trkpt>
      <trkpt lat="43.74461" lon="6.95889">
        <ele>1242.9</ele>
        <time>2025-09-27T11:54:19Z</time>
      </trkpt>
      <trkpt lat="43.7446" lon="6.95897">
        <ele>1242.4</ele>
        <time>2025-09-27T11:54:20Z</time>
      </trkpt>
      <trkpt lat="43.74459" lon="6.95904">
        <ele>1242</ele>
        <time>2025-09-27T11:54:21Z</time>
      </trkpt>
      <trkpt lat="43.74458" lon="6.95912">
        <ele>1241.7</ele>
        <time>2025-09-27T11:54:22Z</time>
      </trkpt>
      <trkpt lat="43.74458" lon="6.9592">
        <ele>1241.4</ele>
        <time>2025-09-27T11:54:23Z</time>
      </trkpt>
      <trkpt lat="43.74459" lon="6.95928">
        <ele>1241.1</ele>
        <time>2025-09-27T11:54:24Z</time>
      </trkpt>
      <trkpt lat="43.7446" lon="6.95935">
        <ele>1240.9</ele>
        <time>2025-09-27T11:54:25Z</time>
      </trkpt>
      <trkpt lat="43.74461" lon="6.95943">
        <ele>1240.6</ele>
        <time>2025-09-27T11:54:26Z</time>
      </trkpt>
      <trkpt lat="43.74462" lon="6.95949">
        <ele>1240.3</ele>
        <time>2025-09-27T11:54:27Z</time>
      </trkpt>
      <trkpt lat="43.74462" lon="6.95956">
        <ele>1240</ele>
        <time>2025-09-27T11:54:29Z</time>
      </trkpt>
      <trkpt lat="43.74463" lon="6.95962">
        <ele>1239.6</ele>
        <time>2025-09-27T11:54:47Z</time>
      </trkpt>
      <trkpt lat="43.7446" lon="6.95967">
        <ele>1239.1</ele>
        <time>2025-09-27T11:54:50Z</time>
      </trkpt>
      <trkpt lat="43.74458" lon="6.95975">
        <ele>1238.4</ele>
        <time>2025-09-27T11:54:53Z</time>
      </trkpt>
      <trkpt lat="43.74457" lon="6.95982">
        <ele>1237.8</ele>
        <time>2025-09-27T11:54:55Z</time>
      </trkpt>
      <trkpt lat="43.74457" lon="6.9599">
        <ele>1237.2</ele>
        <time>2025-09-27T11:54:57Z</time>
      </trkpt>
      <trkpt lat="43.74458" lon="6.95999">
        <ele>1236.4</ele>
        <time>2025-09-27T11:54:59Z</time>
      </trkpt>
      <trkpt lat="43.74459" lon="6.9601">
        <ele>1235.6</ele>
        <time>2025-09-27T11:55:01Z</time>
      </trkpt>
      <trkpt lat="43.74457" lon="6.96021">
        <ele>1234.5</ele>
        <time>2025-09-27T11:55:03Z</time>
      </trkpt>
      <trkpt lat="43.74455" lon="6.96027">
        <ele>1233.8</ele>
        <time>2025-09-27T11:55:04Z</time>
      </trkpt>
      <trkpt lat="43.74453" lon="6.96035">
        <ele>1233</ele>
        <time>2025-09-27T11:55:05Z</time>
      </trkpt>
      <trkpt lat="43.74452" lon="6.96042">
        <ele>1232.1</ele>
        <time>2025-09-27T11:55:06Z</time>
      </trkpt>
      <trkpt lat="43.74451" lon="6.96049">
        <ele>1231.3</ele>
        <time>2025-09-27T11:55:07Z</time>
      </trkpt>
      <trkpt lat="43.74449" lon="6.96057">
        <ele>1230.2</ele>
        <time>2025-09-27T11:55:09Z</time>
      </trkpt>
      <trkpt lat="43.74448" lon="6.96065">
        <ele>1229.1</ele>
        <time>2025-09-27T11:55:11Z</time>
      </trkpt>
      <trkpt lat="43.74449" lon="6.96077">
        <ele>1227.7</ele>
        <time>2025-09-27T11:55:13Z</time>
      </trkpt>
      <trkpt lat="43.74449" lon="6.96083">
        <ele>1226.9</ele>
        <time>2025-09-27T11:55:14Z</time>
      </trkpt>
      <trkpt lat="43.7445" lon="6.9609">
        <ele>1226.2</ele>
        <time>2025-09-27T11:55:15Z</time>
      </trkpt>
      <trkpt lat="43.74451" lon="6.96097">
        <ele>1225.4</ele>
        <time>2025-09-27T11:55:16Z</time>
      </trkpt>
      <trkpt lat="43.7445" lon="6.96107">
        <ele>1224.5</ele>
        <time>2025-09-27T11:55:18Z</time>
      </trkpt>
      <trkpt lat="43.74445" lon="6.96113">
        <ele>1223.6</ele>
        <time>2025-09-27T11:55:20Z</time>
      </trkpt>
      <trkpt lat="43.74444" lon="6.96119">
        <ele>1223</ele>
        <time>2025-09-27T11:55:22Z</time>
      </trkpt>
      <trkpt lat="43.74446" lon="6.96127">
        <ele>1222.3</ele>
        <time>2025-09-27T11:55:24Z</time>
      </trkpt>
      <trkpt lat="43.74445" lon="6.96136">
        <ele>1221.7</ele>
        <time>2025-09-27T11:55:26Z</time>
      </trkpt>
      <trkpt lat="43.74443" lon="6.96147">
        <ele>1221</ele>
        <time>2025-09-27T11:55:28Z</time>
      </trkpt>
      <trkpt lat="43.74441" lon="6.96158">
        <ele>1220.2</ele>
        <time>2025-09-27T11:55:30Z</time>
      </trkpt>
      <trkpt lat="43.74438" lon="6.96168">
        <ele>1219.4</ele>
        <time>2025-09-27T11:55:32Z</time>
      </trkpt>
      <trkpt lat="43.74438" lon="6.96177">
        <ele>1218.7</ele>
        <time>2025-09-27T11:55:34Z</time>
      </trkpt>
      <trkpt lat="43.74437" lon="6.96188">
        <ele>1217.7</ele>
        <time>2025-09-27T11:55:36Z</time>
      </trkpt>
      <trkpt lat="43.74436" lon="6.962">
        <ele>1216.8</ele>
        <time>2025-09-27T11:55:38Z</time>
      </trkpt>
      <trkpt lat="43.74438" lon="6.96211">
        <ele>1216.1</ele>
        <time>2025-09-27T11:55:40Z</time>
      </trkpt>
      <trkpt lat="43.7444" lon="6.96221">
        <ele>1215.5</ele>
        <time>2025-09-27T11:55:42Z</time>
      </trkpt>
      <trkpt lat="43.74444" lon="6.96228">
        <ele>1214.9</ele>
        <time>2025-09-27T11:55:44Z</time>
      </trkpt>
      <trkpt lat="43.74447" lon="6.96233">
        <ele>1214.4</ele>
        <time>2025-09-27T11:55:46Z</time>
      </trkpt>
      <trkpt lat="43.7445" lon="6.96239">
        <ele>1213.7</ele>
        <time>2025-09-27T11:55:48Z</time>
      </trkpt>
      <trkpt lat="43.74452" lon="6.96246">
        <ele>1212.8</ele>
        <time>2025-09-27T11:55:51Z</time>
      </trkpt>
      <trkpt lat="43.74453" lon="6.96253">
        <ele>1212.1</ele>
        <time>2025-09-27T11:55:53Z</time>
      </trkpt>
      <trkpt lat="43.74453" lon="6.96262">
        <ele>1211.3</ele>
        <time>2025-09-27T11:55:55Z</time>
      </trkpt>
      <trkpt lat="43.74451" lon="6.96271">
        <ele>1210.8</ele>
        <time>2025-09-27T11:55:57Z</time>
      </trkpt>
      <trkpt lat="43.74448" lon="6.96277">
        <ele>1210.6</ele>
        <time>2025-09-27T11:55:59Z</time>
      </trkpt>
      <trkpt lat="43.74445" lon="6.96283">
        <ele>1210.6</ele>
        <time>2025-09-27T11:56:02Z</time>
      </trkpt>
      <trkpt lat="43.74442" lon="6.96288">
        <ele>1210.6</ele>
        <time>2025-09-27T11:56:05Z</time>
      </trkpt>
      <trkpt lat="43.74439" lon="6.96294">
        <ele>1210.6</ele>
        <time>2025-09-27T11:56:08Z</time>
      </trkpt>
      <trkpt lat="43.74437" lon="6.96302">
        <ele>1210.7</ele>
        <time>2025-09-27T11:56:11Z</time>
      </trkpt>
      <trkpt lat="43.74436" lon="6.96309">
        <ele>1210.7</ele>
        <time>2025-09-27T11:56:14Z</time>
      </trkpt>
      <trkpt lat="43.74432" lon="6.96315">
        <ele>1210.8</ele>
        <time>2025-09-27T11:56:17Z</time>
      </trkpt>
      <trkpt lat="43.74428" lon="6.96323">
        <ele>1210.8</ele>
        <time>2025-09-27T11:56:20Z</time>
      </trkpt>
      <trkpt lat="43.74425" lon="6.96327">
        <ele>1210.9</ele>
        <time>2025-09-27T11:56:22Z</time>
      </trkpt>
      <trkpt lat="43.74421" lon="6.9633">
        <ele>1210.9</ele>
        <time>2025-09-27T11:56:24Z</time>
      </trkpt>
      <trkpt lat="43.74418" lon="6.96337">
        <ele>1211</ele>
        <time>2025-09-27T11:56:27Z</time>
      </trkpt>
      <trkpt lat="43.74416" lon="6.96346">
        <ele>1211.3</ele>
        <time>2025-09-27T11:56:30Z</time>
      </trkpt>
      <trkpt lat="43.74413" lon="6.96352">
        <ele>1211.5</ele>
        <time>2025-09-27T11:56:32Z</time>
      </trkpt>
      <trkpt lat="43.74411" lon="6.96358">
        <ele>1211.8</ele>
        <time>2025-09-27T11:56:34Z</time>
      </trkpt>
      <trkpt lat="43.74408" lon="6.96363">
        <ele>1212</ele>
        <time>2025-09-27T11:56:36Z</time>
      </trkpt>
      <trkpt lat="43.74404" lon="6.96368">
        <ele>1212.2</ele>
        <time>2025-09-27T11:56:38Z</time>
      </trkpt>
      <trkpt lat="43.74401" lon="6.96373">
        <ele>1212.4</ele>
        <time>2025-09-27T11:56:40Z</time>
      </trkpt>
      <trkpt lat="43.74397" lon="6.96378">
        <ele>1212.6</ele>
        <time>2025-09-27T11:56:42Z</time>
      </trkpt>
      <trkpt lat="43.74394" lon="6.96386">
        <ele>1212.7</ele>
        <time>2025-09-27T11:56:45Z</time>
      </trkpt>
      <trkpt lat="43.7439" lon="6.96393">
        <ele>1212.8</ele>
        <time>2025-09-27T11:56:48Z</time>
      </trkpt>
      <trkpt lat="43.74386" lon="6.96398">
        <ele>1212.7</ele>
        <time>2025-09-27T11:56:50Z</time>
      </trkpt>
      <trkpt lat="43.74382" lon="6.96403">
        <ele>1212.6</ele>
        <time>2025-09-27T11:56:52Z</time>
      </trkpt>
      <trkpt lat="43.74379" lon="6.96409">
        <ele>1212.5</ele>
        <time>2025-09-27T11:56:54Z</time>
      </trkpt>
      <trkpt lat="43.74377" lon="6.96416">
        <ele>1212.4</ele>
        <time>2025-09-27T11:56:56Z</time>
      </trkpt>
      <trkpt lat="43.74374" lon="6.96424">
        <ele>1212.3</ele>
        <time>2025-09-27T11:56:58Z</time>
      </trkpt>
      <trkpt lat="43.74371" lon="6.96431">
        <ele>1212.1</ele>
        <time>2025-09-27T11:57:00Z</time>
      </trkpt>
      <trkpt lat="43.74369" lon="6.96438">
        <ele>1212</ele>
        <time>2025-09-27T11:57:02Z</time>
      </trkpt>
      <trkpt lat="43.74367" lon="6.96446">
        <ele>1211.8</ele>
        <time>2025-09-27T11:57:04Z</time>
      </trkpt>
      <trkpt lat="43.74364" lon="6.96454">
        <ele>1211.5</ele>
        <time>2025-09-27T11:57:06Z</time>
      </trkpt>
      <trkpt lat="43.74361" lon="6.96461">
        <ele>1211.1</ele>
        <time>2025-09-27T11:57:08Z</time>
      </trkpt>
      <trkpt lat="43.74357" lon="6.9647">
        <ele>1210.5</ele>
        <time>2025-09-27T11:57:10Z</time>
      </trkpt>
      <trkpt lat="43.74355" lon="6.96479">
        <ele>1209.9</ele>
        <time>2025-09-27T11:57:12Z</time>
      </trkpt>
      <trkpt lat="43.74354" lon="6.96488">
        <ele>1209.2</ele>
        <time>2025-09-27T11:57:14Z</time>
      </trkpt>
      <trkpt lat="43.74353" lon="6.96499">
        <ele>1208.4</ele>
        <time>2025-09-27T11:57:16Z</time>
      </trkpt>
      <trkpt lat="43.74352" lon="6.96506">
        <ele>1207.9</ele>
        <time>2025-09-27T11:57:17Z</time>
      </trkpt>
      <trkpt lat="43.74351" lon="6.96512">
        <ele>1207.3</ele>
        <time>2025-09-27T11:57:18Z</time>
      </trkpt>
      <trkpt lat="43.7435" lon="6.96518">
        <ele>1206.8</ele>
        <time>2025-09-27T11:57:19Z</time>
      </trkpt>
      <trkpt lat="43.74347" lon="6.96529">
        <ele>1205.8</ele>
        <time>2025-09-27T11:57:21Z</time>
      </trkpt>
      <trkpt lat="43.74345" lon="6.96539">
        <ele>1204.9</ele>
        <time>2025-09-27T11:57:23Z</time>
      </trkpt>
      <trkpt lat="43.74342" lon="6.96549">
        <ele>1204.1</ele>
        <time>2025-09-27T11:57:25Z</time>
      </trkpt>
      <trkpt lat="43.74339" lon="6.9656">
        <ele>1203.4</ele>
        <time>2025-09-27T11:57:27Z</time>
      </trkpt>
      <trkpt lat="43.74337" lon="6.96569">
        <ele>1203.2</ele>
        <time>2025-09-27T11:57:29Z</time>
      </trkpt>
      <trkpt lat="43.74337" lon="6.96578">
        <ele>1203</ele>
        <time>2025-09-27T11:57:31Z</time>
      </trkpt>
      <trkpt lat="43.74336" lon="6.96586">
        <ele>1202.9</ele>
        <time>2025-09-27T11:57:33Z</time>
      </trkpt>
      <trkpt lat="43.74335" lon="6.96593">
        <ele>1202.9</ele>
        <time>2025-09-27T11:57:35Z</time>
      </trkpt>
      <trkpt lat="43.74334" lon="6.96601">
        <ele>1202.8</ele>
        <time>2025-09-27T11:57:37Z</time>
      </trkpt>
      <trkpt lat="43.74332" lon="6.96611">
        <ele>1202.7</ele>
        <time>2025-09-27T11:57:39Z</time>
      </trkpt>
      <trkpt lat="43.7433" lon="6.96622">
        <ele>1202.5</ele>
        <time>2025-09-27T11:57:41Z</time>
      </trkpt>
      <trkpt lat="43.74328" lon="6.96632">
        <ele>1202.2</ele>
        <time>2025-09-27T11:57:43Z</time>
      </trkpt>
      <trkpt lat="43.74327" lon="6.9664">
        <ele>1201.9</ele>
        <time>2025-09-27T11:57:45Z</time>
      </trkpt>
      <trkpt lat="43.74326" lon="6.96647">
        <ele>1201.7</ele>
        <time>2025-09-27T11:57:47Z</time>
      </trkpt>
      <trkpt lat="43.74325" lon="6.96654">
        <ele>1201.5</ele>
        <time>2025-09-27T11:57:49Z</time>
      </trkpt>
      <trkpt lat="43.74324" lon="6.96661">
        <ele>1201.2</ele>
        <time>2025-09-27T11:57:51Z</time>
      </trkpt>
      <trkpt lat="43.74323" lon="6.96669">
        <ele>1201</ele>
        <time>2025-09-27T11:57:53Z</time>
      </trkpt>
      <trkpt lat="43.74323" lon="6.96677">
        <ele>1200.7</ele>
        <time>2025-09-27T11:57:55Z</time>
      </trkpt>
      <trkpt lat="43.74322" lon="6.96684">
        <ele>1200.5</ele>
        <time>2025-09-27T11:57:57Z</time>
      </trkpt>
      <trkpt lat="43.74322" lon="6.96691">
        <ele>1200.2</ele>
        <time>2025-09-27T11:57:59Z</time>
      </trkpt>
      <trkpt lat="43.74321" lon="6.96698">
        <ele>1199.9</ele>
        <time>2025-09-27T11:58:01Z</time>
      </trkpt>
      <trkpt lat="43.74321" lon="6.96706">
        <ele>1199.4</ele>
        <time>2025-09-27T11:58:03Z</time>
      </trkpt>
      <trkpt lat="43.74321" lon="6.96714">
        <ele>1198.8</ele>
        <time>2025-09-27T11:58:05Z</time>
      </trkpt>
      <trkpt lat="43.7432" lon="6.96725">
        <ele>1198</ele>
        <time>2025-09-27T11:58:07Z</time>
      </trkpt>
      <trkpt lat="43.7432" lon="6.96734">
        <ele>1197</ele>
        <time>2025-09-27T11:58:09Z</time>
      </trkpt>
      <trkpt lat="43.74319" lon="6.96744">
        <ele>1195.9</ele>
        <time>2025-09-27T11:58:11Z</time>
      </trkpt>
      <trkpt lat="43.74321" lon="6.96753">
        <ele>1194.8</ele>
        <time>2025-09-27T11:58:13Z</time>
      </trkpt>
      <trkpt lat="43.7432" lon="6.96763">
        <ele>1193.6</ele>
        <time>2025-09-27T11:58:15Z</time>
      </trkpt>
      <trkpt lat="43.74318" lon="6.96774">
        <ele>1192.1</ele>
        <time>2025-09-27T11:58:17Z</time>
      </trkpt>
      <trkpt lat="43.74316" lon="6.96784">
        <ele>1190.7</ele>
        <time>2025-09-27T11:58:19Z</time>
      </trkpt>
      <trkpt lat="43.74314" lon="6.96794">
        <ele>1189.3</ele>
        <time>2025-09-27T11:58:21Z</time>
      </trkpt>
      <trkpt lat="43.74314" lon="6.96804">
        <ele>1188</ele>
        <time>2025-09-27T11:58:23Z</time>
      </trkpt>
      <trkpt lat="43.74312" lon="6.96815">
        <ele>1186.3</ele>
        <time>2025-09-27T11:58:25Z</time>
      </trkpt>
      <trkpt lat="43.74311" lon="6.96821">
        <ele>1185.3</ele>
        <time>2025-09-27T11:58:26Z</time>
      </trkpt>
      <trkpt lat="43.74309" lon="6.96831">
        <ele>1183.8</ele>
        <time>2025-09-27T11:58:28Z</time>
      </trkpt>
      <trkpt lat="43.74308" lon="6.96839">
        <ele>1182.6</ele>
        <time>2025-09-27T11:58:30Z</time>
      </trkpt>
      <trkpt lat="43.74307" lon="6.96846">
        <ele>1181.4</ele>
        <time>2025-09-27T11:58:32Z</time>
      </trkpt>
      <trkpt lat="43.74305" lon="6.96853">
        <ele>1180.1</ele>
        <time>2025-09-27T11:58:34Z</time>
      </trkpt>
      <trkpt lat="43.74303" lon="6.9686">
        <ele>1178.8</ele>
        <time>2025-09-27T11:58:36Z</time>
      </trkpt>
      <trkpt lat="43.74301" lon="6.96866">
        <ele>1177.6</ele>
        <time>2025-09-27T11:58:38Z</time>
      </trkpt>
      <trkpt lat="43.74299" lon="6.96874">
        <ele>1176.1</ele>
        <time>2025-09-27T11:58:41Z</time>
      </trkpt>
      <trkpt lat="43.74298" lon="6.96883">
        <ele>1174.3</ele>
        <time>2025-09-27T11:58:43Z</time>
      </trkpt>
      <trkpt lat="43.743" lon="6.96894">
        <ele>1172.3</ele>
        <time>2025-09-27T11:58:45Z</time>
      </trkpt>
      <trkpt lat="43.74302" lon="6.96904">
        <ele>1170.4</ele>
        <time>2025-09-27T11:58:47Z</time>
      </trkpt>
      <trkpt lat="43.74305" lon="6.96914">
        <ele>1168.6</ele>
        <time>2025-09-27T11:58:49Z</time>
      </trkpt>
      <trkpt lat="43.74305" lon="6.96924">
        <ele>1167</ele>
        <time>2025-09-27T11:58:51Z</time>
      </trkpt>
      <trkpt lat="43.74307" lon="6.96935">
        <ele>1165.3</ele>
        <time>2025-09-27T11:58:53Z</time>
      </trkpt>
      <trkpt lat="43.74308" lon="6.96945">
        <ele>1163.7</ele>
        <time>2025-09-27T11:58:55Z</time>
      </trkpt>
      <trkpt lat="43.74309" lon="6.96955">
        <ele>1162.2</ele>
        <time>2025-09-27T11:58:57Z</time>
      </trkpt>
      <trkpt lat="43.74309" lon="6.96964">
        <ele>1160.9</ele>
        <time>2025-09-27T11:58:59Z</time>
      </trkpt>
      <trkpt lat="43.74308" lon="6.96975">
        <ele>1159.3</ele>
        <time>2025-09-27T11:59:01Z</time>
      </trkpt>
      <trkpt lat="43.74307" lon="6.96982">
        <ele>1158.1</ele>
        <time>2025-09-27T11:59:03Z</time>
      </trkpt>
      <trkpt lat="43.74308" lon="6.9699">
        <ele>1156.6</ele>
        <time>2025-09-27T11:59:06Z</time>
      </trkpt>
      <trkpt lat="43.74307" lon="6.96997">
        <ele>1155.2</ele>
        <time>2025-09-27T11:59:09Z</time>
      </trkpt>
      <trkpt lat="43.74307" lon="6.97005">
        <ele>1153.5</ele>
        <time>2025-09-27T11:59:12Z</time>
      </trkpt>
      <trkpt lat="43.74304" lon="6.97011">
        <ele>1151.8</ele>
        <time>2025-09-27T11:59:15Z</time>
      </trkpt>
      <trkpt lat="43.74303" lon="6.97017">
        <ele>1150.5</ele>
        <time>2025-09-27T11:59:17Z</time>
      </trkpt>
      <trkpt lat="43.74301" lon="6.97026">
        <ele>1148.9</ele>
        <time>2025-09-27T11:59:19Z</time>
      </trkpt>
      <trkpt lat="43.743" lon="6.97034">
        <ele>1147.4</ele>
        <time>2025-09-27T11:59:21Z</time>
      </trkpt>
      <trkpt lat="43.74301" lon="6.97041">
        <ele>1146.2</ele>
        <time>2025-09-27T11:59:23Z</time>
      </trkpt>
      <trkpt lat="43.74303" lon="6.97046">
        <ele>1145</ele>
        <time>2025-09-27T11:59:25Z</time>
      </trkpt>
      <trkpt lat="43.74304" lon="6.97054">
        <ele>1143.6</ele>
        <time>2025-09-27T11:59:28Z</time>
      </trkpt>
      <trkpt lat="43.74304" lon="6.97061">
        <ele>1142.3</ele>
        <time>2025-09-27T11:59:31Z</time>
      </trkpt>
      <trkpt lat="43.74306" lon="6.97067">
        <ele>1140.9</ele>
        <time>2025-09-27T11:59:34Z</time>
      </trkpt>
      <trkpt lat="43.74309" lon="6.97073">
        <ele>1139.4</ele>
        <time>2025-09-27T11:59:36Z</time>
      </trkpt>
      <trkpt lat="43.74308" lon="6.97079">
        <ele>1138.1</ele>
        <time>2025-09-27T11:59:41Z</time>
      </trkpt>
      <trkpt lat="43.74308" lon="6.97086">
        <ele>1136.6</ele>
        <time>2025-09-27T11:59:50Z</time>
      </trkpt>
      <trkpt lat="43.74308" lon="6.97092">
        <ele>1135.1</ele>
        <time>2025-09-27T11:59:59Z</time>
      </trkpt>
      <trkpt lat="43.74306" lon="6.97099">
        <ele>1133.6</ele>
        <time>2025-09-27T12:00:08Z</time>
      </trkpt>
      <trkpt lat="43.74304" lon="6.97105">
        <ele>1131.9</ele>
        <time>2025-09-27T12:00:15Z</time>
      </trkpt>
      <trkpt lat="43.74302" lon="6.97112">
        <ele>1130.4</ele>
        <time>2025-09-27T12:00:22Z</time>
      </trkpt>
      <trkpt lat="43.743" lon="6.97117">
        <ele>1128.8</ele>
        <time>2025-09-27T12:00:28Z</time>
      </trkpt>
      <trkpt lat="43.74299" lon="6.97124">
        <ele>1127.3</ele>
        <time>2025-09-27T12:00:37Z</time>
      </trkpt>
      <trkpt lat="43.74301" lon="6.97129">
        <ele>1125.7</ele>
        <time>2025-09-27T12:00:43Z</time>
      </trkpt>
      <trkpt lat="43.74299" lon="6.97136">
        <ele>1123.9</ele>
        <time>2025-09-27T12:00:50Z</time>
      </trkpt>
      <trkpt lat="43.74295" lon="6.97141">
        <ele>1122.3</ele>
        <time>2025-09-27T12:00:53Z</time>
      </trkpt>
      <trkpt lat="43.74294" lon="6.97149">
        <ele>1120.6</ele>
        <time>2025-09-27T12:00:56Z</time>
      </trkpt>
      <trkpt lat="43.74294" lon="6.97157">
        <ele>1118.8</ele>
        <time>2025-09-27T12:00:59Z</time>
      </trkpt>
      <trkpt lat="43.74292" lon="6.97163">
        <ele>1117.5</ele>
        <time>2025-09-27T12:01:01Z</time>
      </trkpt>
      <trkpt lat="43.7429" lon="6.9717">
        <ele>1116.2</ele>
        <time>2025-09-27T12:01:03Z</time>
      </trkpt>
      <trkpt lat="43.74289" lon="6.97177">
        <ele>1114.9</ele>
        <time>2025-09-27T12:01:05Z</time>
      </trkpt>
      <trkpt lat="43.74287" lon="6.97187">
        <ele>1113.1</ele>
        <time>2025-09-27T12:01:08Z</time>
      </trkpt>
      <trkpt lat="43.74288" lon="6.97195">
        <ele>1111.9</ele>
        <time>2025-09-27T12:01:10Z</time>
      </trkpt>
      <trkpt lat="43.74288" lon="6.97202">
        <ele>1110.8</ele>
        <time>2025-09-27T12:01:12Z</time>
      </trkpt>
      <trkpt lat="43.74287" lon="6.97209">
        <ele>1109.6</ele>
        <time>2025-09-27T12:01:14Z</time>
      </trkpt>
      <trkpt lat="43.74287" lon="6.97218">
        <ele>1108.4</ele>
        <time>2025-09-27T12:01:17Z</time>
      </trkpt>
      <trkpt lat="43.74285" lon="6.97224">
        <ele>1107.5</ele>
        <time>2025-09-27T12:01:18Z</time>
      </trkpt>
      <trkpt lat="43.74284" lon="6.9723">
        <ele>1106.7</ele>
        <time>2025-09-27T12:01:19Z</time>
      </trkpt>
      <trkpt lat="43.74283" lon="6.9724">
        <ele>1105.7</ele>
        <time>2025-09-27T12:01:21Z</time>
      </trkpt>
      <trkpt lat="43.74281" lon="6.97246">
        <ele>1105.1</ele>
        <time>2025-09-27T12:01:22Z</time>
      </trkpt>
      <trkpt lat="43.74278" lon="6.97254">
        <ele>1104.5</ele>
        <time>2025-09-27T12:01:24Z</time>
      </trkpt>
      <trkpt lat="43.74277" lon="6.97261">
        <ele>1104.2</ele>
        <time>2025-09-27T12:01:39Z</time>
      </trkpt>
      <trkpt lat="43.74273" lon="6.97265">
        <ele>1104</ele>
        <time>2025-09-27T12:02:19Z</time>
      </trkpt>
      <trkpt lat="43.7427" lon="6.97271">
        <ele>1103.9</ele>
        <time>2025-09-27T12:02:36Z</time>
      </trkpt>
      <trkpt lat="43.74267" lon="6.97277">
        <ele>1103.7</ele>
        <time>2025-09-27T12:02:40Z</time>
      </trkpt>
      <trkpt lat="43.74262" lon="6.97281">
        <ele>1103.6</ele>
        <time>2025-09-27T12:02:44Z</time>
      </trkpt>
      <trkpt lat="43.74256" lon="6.9728">
        <ele>1103.4</ele>
        <time>2025-09-27T12:02:47Z</time>
      </trkpt>
      <trkpt lat="43.74249" lon="6.97281">
        <ele>1103.1</ele>
        <time>2025-09-27T12:02:49Z</time>
      </trkpt>
      <trkpt lat="43.74243" lon="6.97284">
        <ele>1102.8</ele>
        <time>2025-09-27T12:02:51Z</time>
      </trkpt>
      <trkpt lat="43.74238" lon="6.9729">
        <ele>1102.4</ele>
        <time>2025-09-27T12:02:53Z</time>
      </trkpt>
      <trkpt lat="43.74233" lon="6.97297">
        <ele>1102.1</ele>
        <time>2025-09-27T12:02:55Z</time>
      </trkpt>
      <trkpt lat="43.74228" lon="6.97306">
        <ele>1101.7</ele>
        <time>2025-09-27T12:02:57Z</time>
      </trkpt>
      <trkpt lat="43.74224" lon="6.97315">
        <ele>1101.3</ele>
        <time>2025-09-27T12:02:59Z</time>
      </trkpt>
      <trkpt lat="43.74219" lon="6.97322">
        <ele>1100.8</ele>
        <time>2025-09-27T12:03:01Z</time>
      </trkpt>
      <trkpt lat="43.74215" lon="6.97332">
        <ele>1100</ele>
        <time>2025-09-27T12:03:03Z</time>
      </trkpt>
      <trkpt lat="43.74212" lon="6.97337">
        <ele>1099.5</ele>
        <time>2025-09-27T12:03:04Z</time>
      </trkpt>
      <trkpt lat="43.74209" lon="6.97344">
        <ele>1098.7</ele>
        <time>2025-09-27T12:03:06Z</time>
      </trkpt>
      <trkpt lat="43.74207" lon="6.97352">
        <ele>1097.9</ele>
        <time>2025-09-27T12:03:08Z</time>
      </trkpt>
      <trkpt lat="43.74205" lon="6.9736">
        <ele>1097</ele>
        <time>2025-09-27T12:03:10Z</time>
      </trkpt>
      <trkpt lat="43.74204" lon="6.97367">
        <ele>1096.1</ele>
        <time>2025-09-27T12:03:12Z</time>
      </trkpt>
      <trkpt lat="43.74201" lon="6.97377">
        <ele>1094.5</ele>
        <time>2025-09-27T12:03:14Z</time>
      </trkpt>
      <trkpt lat="43.74199" lon="6.97386">
        <ele>1092.9</ele>
        <time>2025-09-27T12:03:16Z</time>
      </trkpt>
      <trkpt lat="43.74198" lon="6.97395">
        <ele>1091.4</ele>
        <time>2025-09-27T12:03:18Z</time>
      </trkpt>
      <trkpt lat="43.74195" lon="6.97406">
        <ele>1089.4</ele>
        <time>2025-09-27T12:03:20Z</time>
      </trkpt>
      <trkpt lat="43.74192" lon="6.97412">
        <ele>1088.5</ele>
        <time>2025-09-27T12:03:21Z</time>
      </trkpt>
      <trkpt lat="43.74188" lon="6.97418">
        <ele>1087.5</ele>
        <time>2025-09-27T12:03:22Z</time>
      </trkpt>
      <trkpt lat="43.74186" lon="6.97425">
        <ele>1086.9</ele>
        <time>2025-09-27T12:03:23Z</time>
      </trkpt>
      <trkpt lat="43.74185" lon="6.97433">
        <ele>1086.3</ele>
        <time>2025-09-27T12:03:24Z</time>
      </trkpt>
      <trkpt lat="43.74182" lon="6.97443">
        <ele>1085.8</ele>
        <time>2025-09-27T12:03:25Z</time>
      </trkpt>
      <trkpt lat="43.7418" lon="6.97449">
        <ele>1085.6</ele>
        <time>2025-09-27T12:03:26Z</time>
      </trkpt>
      <trkpt lat="43.74176" lon="6.97453">
        <ele>1085.4</ele>
        <time>2025-09-27T12:03:27Z</time>
      </trkpt>
      <trkpt lat="43.74172" lon="6.97457">
        <ele>1085.2</ele>
        <time>2025-09-27T12:03:28Z</time>
      </trkpt>
      <trkpt lat="43.74169" lon="6.97462">
        <ele>1085.1</ele>
        <time>2025-09-27T12:03:29Z</time>
      </trkpt>
      <trkpt lat="43.74165" lon="6.97473">
        <ele>1084.8</ele>
        <time>2025-09-27T12:03:31Z</time>
      </trkpt>
      <trkpt lat="43.74161" lon="6.97483">
        <ele>1084.6</ele>
        <time>2025-09-27T12:03:33Z</time>
      </trkpt>
      <trkpt lat="43.74156" lon="6.97492">
        <ele>1084.2</ele>
        <time>2025-09-27T12:03:35Z</time>
      </trkpt>
      <trkpt lat="43.7415" lon="6.975">
        <ele>1083.7</ele>
        <time>2025-09-27T12:03:37Z</time>
      </trkpt>
      <trkpt lat="43.74147" lon="6.9751">
        <ele>1083</ele>
        <time>2025-09-27T12:03:39Z</time>
      </trkpt>
      <trkpt lat="43.74146" lon="6.97517">
        <ele>1082.4</ele>
        <time>2025-09-27T12:03:41Z</time>
      </trkpt>
      <trkpt lat="43.74142" lon="6.97521">
        <ele>1081.9</ele>
        <time>2025-09-27T12:03:43Z</time>
      </trkpt>
      <trkpt lat="43.74137" lon="6.97526">
        <ele>1081.4</ele>
        <time>2025-09-27T12:03:45Z</time>
      </trkpt>
      <trkpt lat="43.74136" lon="6.97535">
        <ele>1080.8</ele>
        <time>2025-09-27T12:03:47Z</time>
      </trkpt>
      <trkpt lat="43.74136" lon="6.97544">
        <ele>1080.4</ele>
        <time>2025-09-27T12:03:49Z</time>
      </trkpt>
      <trkpt lat="43.74133" lon="6.97554">
        <ele>1080</ele>
        <time>2025-09-27T12:03:51Z</time>
      </trkpt>
      <trkpt lat="43.7413" lon="6.97563">
        <ele>1079.7</ele>
        <time>2025-09-27T12:03:53Z</time>
      </trkpt>
      <trkpt lat="43.74129" lon="6.97573">
        <ele>1079.5</ele>
        <time>2025-09-27T12:03:55Z</time>
      </trkpt>
      <trkpt lat="43.74129" lon="6.97581">
        <ele>1079.4</ele>
        <time>2025-09-27T12:03:57Z</time>
      </trkpt>
      <trkpt lat="43.74129" lon="6.9759">
        <ele>1079.2</ele>
        <time>2025-09-27T12:03:59Z</time>
      </trkpt>
      <trkpt lat="43.74128" lon="6.97599">
        <ele>1079</ele>
        <time>2025-09-27T12:04:01Z</time>
      </trkpt>
      <trkpt lat="43.74126" lon="6.97608">
        <ele>1078.5</ele>
        <time>2025-09-27T12:04:03Z</time>
      </trkpt>
      <trkpt lat="43.74125" lon="6.97614">
        <ele>1078</ele>
        <time>2025-09-27T12:04:04Z</time>
      </trkpt>
      <trkpt lat="43.74123" lon="6.9762">
        <ele>1077.4</ele>
        <time>2025-09-27T12:04:05Z</time>
      </trkpt>
      <trkpt lat="43.74121" lon="6.97626">
        <ele>1076.8</ele>
        <time>2025-09-27T12:04:06Z</time>
      </trkpt>
      <trkpt lat="43.74118" lon="6.9763">
        <ele>1076.1</ele>
        <time>2025-09-27T12:04:07Z</time>
      </trkpt>
      <trkpt lat="43.74112" lon="6.9764">
        <ele>1074.9</ele>
        <time>2025-09-27T12:04:09Z</time>
      </trkpt>
      <trkpt lat="43.74109" lon="6.9765">
        <ele>1073.7</ele>
        <time>2025-09-27T12:04:11Z</time>
      </trkpt>
      <trkpt lat="43.74106" lon="6.9766">
        <ele>1072.5</ele>
        <time>2025-09-27T12:04:13Z</time>
      </trkpt>
      <trkpt lat="43.74104" lon="6.97671">
        <ele>1071.4</ele>
        <time>2025-09-27T12:04:15Z</time>
      </trkpt>
      <trkpt lat="43.74102" lon="6.97682">
        <ele>1070.5</ele>
        <time>2025-09-27T12:04:17Z</time>
      </trkpt>
      <trkpt lat="43.74099" lon="6.97689">
        <ele>1069.6</ele>
        <time>2025-09-27T12:04:19Z</time>
      </trkpt>
      <trkpt lat="43.74094" lon="6.97687">
        <ele>1069.4</ele>
        <time>2025-09-27T12:04:22Z</time>
      </trkpt>
      <trkpt lat="43.7409" lon="6.97689">
        <ele>1069.3</ele>
        <time>2025-09-27T12:06:07Z</time>
      </trkpt>
      <trkpt lat="43.74085" lon="6.97684">
        <ele>1069</ele>
        <time>2025-09-27T12:06:11Z</time>
      </trkpt>
      <trkpt lat="43.74081" lon="6.97677">
        <ele>1068.8</ele>
        <time>2025-09-27T12:06:14Z</time>
      </trkpt>
      <trkpt lat="43.74078" lon="6.97672">
        <ele>1068.5</ele>
        <time>2025-09-27T12:06:16Z</time>
      </trkpt>
      <trkpt lat="43.74074" lon="6.97665">
        <ele>1068.2</ele>
        <time>2025-09-27T12:06:18Z</time>
      </trkpt>
      <trkpt lat="43.74069" lon="6.97657">
        <ele>1067.8</ele>
        <time>2025-09-27T12:06:20Z</time>
      </trkpt>
      <trkpt lat="43.74065" lon="6.97649">
        <ele>1067.4</ele>
        <time>2025-09-27T12:06:22Z</time>
      </trkpt>
      <trkpt lat="43.74059" lon="6.97641">
        <ele>1066.9</ele>
        <time>2025-09-27T12:06:24Z</time>
      </trkpt>
      <trkpt lat="43.74054" lon="6.97634">
        <ele>1066.4</ele>
        <time>2025-09-27T12:06:26Z</time>
      </trkpt>
      <trkpt lat="43.74049" lon="6.97626">
        <ele>1066</ele>
        <time>2025-09-27T12:06:28Z</time>
      </trkpt>
      <trkpt lat="43.74044" lon="6.97619">
        <ele>1065.5</ele>
        <time>2025-09-27T12:06:30Z</time>
      </trkpt>
      <trkpt lat="43.74039" lon="6.97611">
        <ele>1065.1</ele>
        <time>2025-09-27T12:06:32Z</time>
      </trkpt>
      <trkpt lat="43.74033" lon="6.97603">
        <ele>1064.8</ele>
        <time>2025-09-27T12:06:34Z</time>
      </trkpt>
      <trkpt lat="43.74027" lon="6.97595">
        <ele>1064.5</ele>
        <time>2025-09-27T12:06:36Z</time>
      </trkpt>
      <trkpt lat="43.74023" lon="6.97588">
        <ele>1064.3</ele>
        <time>2025-09-27T12:06:38Z</time>
      </trkpt>
      <trkpt lat="43.7402" lon="6.9758">
        <ele>1064.1</ele>
        <time>2025-09-27T12:06:40Z</time>
      </trkpt>
      <trkpt lat="43.74016" lon="6.97572">
        <ele>1063.7</ele>
        <time>2025-09-27T12:06:42Z</time>
      </trkpt>
      <trkpt lat="43.74014" lon="6.97564">
        <ele>1063.3</ele>
        <time>2025-09-27T12:06:44Z</time>
      </trkpt>
      <trkpt lat="43.74011" lon="6.97556">
        <ele>1062.7</ele>
        <time>2025-09-27T12:06:46Z</time>
      </trkpt>
      <trkpt lat="43.74008" lon="6.97547">
        <ele>1062.2</ele>
        <time>2025-09-27T12:06:48Z</time>
      </trkpt>
      <trkpt lat="43.74004" lon="6.97537">
        <ele>1061.5</ele>
        <time>2025-09-27T12:06:50Z</time>
      </trkpt>
      <trkpt lat="43.74002" lon="6.97528">
        <ele>1060.8</ele>
        <time>2025-09-27T12:06:52Z</time>
      </trkpt>
      <trkpt lat="43.73998" lon="6.97518">
        <ele>1059.9</ele>
        <time>2025-09-27T12:06:54Z</time>
      </trkpt>
      <trkpt lat="43.73996" lon="6.97509">
        <ele>1058.9</ele>
        <time>2025-09-27T12:06:56Z</time>
      </trkpt>
      <trkpt lat="43.73994" lon="6.97502">
        <ele>1058</ele>
        <time>2025-09-27T12:06:58Z</time>
      </trkpt>
      <trkpt lat="43.73992" lon="6.97495">
        <ele>1056.9</ele>
        <time>2025-09-27T12:07:00Z</time>
      </trkpt>
      <trkpt lat="43.7399" lon="6.97485">
        <ele>1055.6</ele>
        <time>2025-09-27T12:07:02Z</time>
      </trkpt>
      <trkpt lat="43.73987" lon="6.97476">
        <ele>1054.1</ele>
        <time>2025-09-27T12:07:04Z</time>
      </trkpt>
      <trkpt lat="43.73984" lon="6.97466">
        <ele>1052.6</ele>
        <time>2025-09-27T12:07:06Z</time>
      </trkpt>
      <trkpt lat="43.73982" lon="6.97455">
        <ele>1051.1</ele>
        <time>2025-09-27T12:07:08Z</time>
      </trkpt>
      <trkpt lat="43.73978" lon="6.97447">
        <ele>1050</ele>
        <time>2025-09-27T12:07:10Z</time>
      </trkpt>
      <trkpt lat="43.73974" lon="6.97439">
        <ele>1048.8</ele>
        <time>2025-09-27T12:07:12Z</time>
      </trkpt>
      <trkpt lat="43.73971" lon="6.97431">
        <ele>1047.6</ele>
        <time>2025-09-27T12:07:14Z</time>
      </trkpt>
      <trkpt lat="43.73968" lon="6.9742">
        <ele>1046.2</ele>
        <time>2025-09-27T12:07:16Z</time>
      </trkpt>
      <trkpt lat="43.73964" lon="6.97411">
        <ele>1044.8</ele>
        <time>2025-09-27T12:07:18Z</time>
      </trkpt>
      <trkpt lat="43.7396" lon="6.97402">
        <ele>1043.2</ele>
        <time>2025-09-27T12:07:20Z</time>
      </trkpt>
      <trkpt lat="43.73955" lon="6.97393">
        <ele>1041.8</ele>
        <time>2025-09-27T12:07:22Z</time>
      </trkpt>
      <trkpt lat="43.73953" lon="6.97385">
        <ele>1040.6</ele>
        <time>2025-09-27T12:07:24Z</time>
      </trkpt>
      <trkpt lat="43.73952" lon="6.97378">
        <ele>1039.8</ele>
        <time>2025-09-27T12:07:26Z</time>
      </trkpt>
      <trkpt lat="43.73945" lon="6.97372">
        <ele>1038.8</ele>
        <time>2025-09-27T12:07:28Z</time>
      </trkpt>
      <trkpt lat="43.73941" lon="6.9737">
        <ele>1038.2</ele>
        <time>2025-09-27T12:07:29Z</time>
      </trkpt>
      <trkpt lat="43.73937" lon="6.97369">
        <ele>1037.7</ele>
        <time>2025-09-27T12:07:30Z</time>
      </trkpt>
      <trkpt lat="43.73932" lon="6.97367">
        <ele>1037.2</ele>
        <time>2025-09-27T12:07:31Z</time>
      </trkpt>
      <trkpt lat="43.73925" lon="6.97366">
        <ele>1036.6</ele>
        <time>2025-09-27T12:07:33Z</time>
      </trkpt>
      <trkpt lat="43.73922" lon="6.9737">
        <ele>1036.1</ele>
        <time>2025-09-27T12:07:35Z</time>
      </trkpt>
      <trkpt lat="43.73917" lon="6.97377">
        <ele>1035.4</ele>
        <time>2025-09-27T12:07:37Z</time>
      </trkpt>
      <trkpt lat="43.73912" lon="6.97384">
        <ele>1034.7</ele>
        <time>2025-09-27T12:07:40Z</time>
      </trkpt>
      <trkpt lat="43.73907" lon="6.97388">
        <ele>1034.1</ele>
        <time>2025-09-27T12:07:42Z</time>
      </trkpt>
      <trkpt lat="43.73902" lon="6.97389">
        <ele>1033.4</ele>
        <time>2025-09-27T12:07:45Z</time>
      </trkpt>
      <trkpt lat="43.73897" lon="6.97387">
        <ele>1032.8</ele>
        <time>2025-09-27T12:07:48Z</time>
      </trkpt>
      <trkpt lat="43.73889" lon="6.97384">
        <ele>1031.5</ele>
        <time>2025-09-27T12:07:50Z</time>
      </trkpt>
      <trkpt lat="43.73884" lon="6.97383">
        <ele>1030.9</ele>
        <time>2025-09-27T12:07:51Z</time>
      </trkpt>
      <trkpt lat="43.73879" lon="6.97381">
        <ele>1030.4</ele>
        <time>2025-09-27T12:07:52Z</time>
      </trkpt>
      <trkpt lat="43.73874" lon="6.9738">
        <ele>1030.1</ele>
        <time>2025-09-27T12:07:53Z</time>
      </trkpt>
      <trkpt lat="43.73864" lon="6.97381">
        <ele>1029.8</ele>
        <time>2025-09-27T12:07:55Z</time>
      </trkpt>
      <trkpt lat="43.73859" lon="6.97382">
        <ele>1029.8</ele>
        <time>2025-09-27T12:07:56Z</time>
      </trkpt>
      <trkpt lat="43.73851" lon="6.97384">
        <ele>1029.8</ele>
        <time>2025-09-27T12:07:58Z</time>
      </trkpt>
      <trkpt lat="43.73844" lon="6.9739">
        <ele>1029.8</ele>
        <time>2025-09-27T12:08:00Z</time>
      </trkpt>
      <trkpt lat="43.7384" lon="6.97397">
        <ele>1029.9</ele>
        <time>2025-09-27T12:08:02Z</time>
      </trkpt>
      <trkpt lat="43.73836" lon="6.97401">
        <ele>1030</ele>
        <time>2025-09-27T12:08:04Z</time>
      </trkpt>
      <trkpt lat="43.73832" lon="6.97404">
        <ele>1030.2</ele>
        <time>2025-09-27T12:08:06Z</time>
      </trkpt>
      <trkpt lat="43.73826" lon="6.97406">
        <ele>1030.5</ele>
        <time>2025-09-27T12:08:08Z</time>
      </trkpt>
      <trkpt lat="43.73821" lon="6.97409">
        <ele>1030.8</ele>
        <time>2025-09-27T12:08:10Z</time>
      </trkpt>
      <trkpt lat="43.73814" lon="6.97413">
        <ele>1031.2</ele>
        <time>2025-09-27T12:08:12Z</time>
      </trkpt>
      <trkpt lat="43.73808" lon="6.97417">
        <ele>1031.6</ele>
        <time>2025-09-27T12:08:14Z</time>
      </trkpt>
      <trkpt lat="43.73802" lon="6.97421">
        <ele>1031.9</ele>
        <time>2025-09-27T12:08:16Z</time>
      </trkpt>
      <trkpt lat="43.73795" lon="6.97426">
        <ele>1032.1</ele>
        <time>2025-09-27T12:08:18Z</time>
      </trkpt>
      <trkpt lat="43.73788" lon="6.97429">
        <ele>1032.3</ele>
        <time>2025-09-27T12:08:20Z</time>
      </trkpt>
      <trkpt lat="43.73781" lon="6.97431">
        <ele>1032.4</ele>
        <time>2025-09-27T12:08:22Z</time>
      </trkpt>
      <trkpt lat="43.73774" lon="6.97432">
        <ele>1032.5</ele>
        <time>2025-09-27T12:08:24Z</time>
      </trkpt>
      <trkpt lat="43.73768" lon="6.97434">
        <ele>1032.6</ele>
        <time>2025-09-27T12:08:26Z</time>
      </trkpt>
      <trkpt lat="43.73761" lon="6.97435">
        <ele>1032.5</ele>
        <time>2025-09-27T12:08:28Z</time>
      </trkpt>
      <trkpt lat="43.73754" lon="6.97438">
        <ele>1032.3</ele>
        <time>2025-09-27T12:08:30Z</time>
      </trkpt>
      <trkpt lat="43.73746" lon="6.97441">
        <ele>1031.9</ele>
        <time>2025-09-27T12:08:32Z</time>
      </trkpt>
      <trkpt lat="43.73741" lon="6.97442">
        <ele>1031.7</ele>
        <time>2025-09-27T12:08:33Z</time>
      </trkpt>
      <trkpt lat="43.73733" lon="6.97444">
        <ele>1031.3</ele>
        <time>2025-09-27T12:08:35Z</time>
      </trkpt>
      <trkpt lat="43.73726" lon="6.97446">
        <ele>1031.1</ele>
        <time>2025-09-27T12:08:37Z</time>
      </trkpt>
      <trkpt lat="43.7372" lon="6.97445">
        <ele>1031</ele>
        <time>2025-09-27T12:08:39Z</time>
      </trkpt>
      <trkpt lat="43.73712" lon="6.97446">
        <ele>1030.9</ele>
        <time>2025-09-27T12:08:41Z</time>
      </trkpt>
      <trkpt lat="43.73705" lon="6.97447">
        <ele>1030.8</ele>
        <time>2025-09-27T12:08:43Z</time>
      </trkpt>
      <trkpt lat="43.73698" lon="6.97448">
        <ele>1030.8</ele>
        <time>2025-09-27T12:08:45Z</time>
      </trkpt>
      <trkpt lat="43.73693" lon="6.97449">
        <ele>1030.8</ele>
        <time>2025-09-27T12:08:46Z</time>
      </trkpt>
      <trkpt lat="43.73688" lon="6.97451">
        <ele>1030.8</ele>
        <time>2025-09-27T12:08:47Z</time>
      </trkpt>
      <trkpt lat="43.73681" lon="6.97453">
        <ele>1031</ele>
        <time>2025-09-27T12:08:49Z</time>
      </trkpt>
      <trkpt lat="43.73673" lon="6.97456">
        <ele>1031.1</ele>
        <time>2025-09-27T12:08:51Z</time>
      </trkpt>
      <trkpt lat="43.73666" lon="6.9746">
        <ele>1031.3</ele>
        <time>2025-09-27T12:08:53Z</time>
      </trkpt>
      <trkpt lat="43.73658" lon="6.97462">
        <ele>1031.4</ele>
        <time>2025-09-27T12:08:55Z</time>
      </trkpt>
      <trkpt lat="43.73651" lon="6.97464">
        <ele>1031.5</ele>
        <time>2025-09-27T12:08:57Z</time>
      </trkpt>
      <trkpt lat="43.73644" lon="6.97466">
        <ele>1031.7</ele>
        <time>2025-09-27T12:08:59Z</time>
      </trkpt>
      <trkpt lat="43.73637" lon="6.97467">
        <ele>1031.8</ele>
        <time>2025-09-27T12:09:01Z</time>
      </trkpt>
      <trkpt lat="43.73631" lon="6.97467">
        <ele>1032</ele>
        <time>2025-09-27T12:09:03Z</time>
      </trkpt>
      <trkpt lat="43.73626" lon="6.97466">
        <ele>1032.2</ele>
        <time>2025-09-27T12:09:05Z</time>
      </trkpt>
      <trkpt lat="43.73621" lon="6.97465">
        <ele>1032.4</ele>
        <time>2025-09-27T12:09:07Z</time>
      </trkpt>
      <trkpt lat="43.73616" lon="6.97463">
        <ele>1032.7</ele>
        <time>2025-09-27T12:09:09Z</time>
      </trkpt>
      <trkpt lat="43.73611" lon="6.97461">
        <ele>1033.1</ele>
        <time>2025-09-27T12:09:12Z</time>
      </trkpt>
      <trkpt lat="43.73605" lon="6.97459">
        <ele>1033.4</ele>
        <time>2025-09-27T12:09:15Z</time>
      </trkpt>
      <trkpt lat="43.73599" lon="6.97458">
        <ele>1033.6</ele>
        <time>2025-09-27T12:09:18Z</time>
      </trkpt>
      <trkpt lat="43.73593" lon="6.97454">
        <ele>1033.7</ele>
        <time>2025-09-27T12:09:21Z</time>
      </trkpt>
      <trkpt lat="43.73588" lon="6.97452">
        <ele>1033.6</ele>
        <time>2025-09-27T12:09:23Z</time>
      </trkpt>
      <trkpt lat="43.73583" lon="6.9745">
        <ele>1033.5</ele>
        <time>2025-09-27T12:09:25Z</time>
      </trkpt>
      <trkpt lat="43.73578" lon="6.97449">
        <ele>1033.3</ele>
        <time>2025-09-27T12:09:27Z</time>
      </trkpt>
      <trkpt lat="43.73573" lon="6.97446">
        <ele>1032.9</ele>
        <time>2025-09-27T12:09:29Z</time>
      </trkpt>
      <trkpt lat="43.73567" lon="6.97442">
        <ele>1032.5</ele>
        <time>2025-09-27T12:09:31Z</time>
      </trkpt>
      <trkpt lat="43.73563" lon="6.97436">
        <ele>1032.2</ele>
        <time>2025-09-27T12:09:33Z</time>
      </trkpt>
      <trkpt lat="43.73559" lon="6.97432">
        <ele>1031.8</ele>
        <time>2025-09-27T12:09:35Z</time>
      </trkpt>
      <trkpt lat="43.73555" lon="6.97429">
        <ele>1031.5</ele>
        <time>2025-09-27T12:09:37Z</time>
      </trkpt>
      <trkpt lat="43.73552" lon="6.97424">
        <ele>1031.1</ele>
        <time>2025-09-27T12:09:39Z</time>
      </trkpt>
      <trkpt lat="43.73548" lon="6.97418">
        <ele>1030.5</ele>
        <time>2025-09-27T12:09:41Z</time>
      </trkpt>
      <trkpt lat="43.73545" lon="6.9741">
        <ele>1029.9</ele>
        <time>2025-09-27T12:09:43Z</time>
      </trkpt>
      <trkpt lat="43.73542" lon="6.97401">
        <ele>1029.1</ele>
        <time>2025-09-27T12:09:45Z</time>
      </trkpt>
      <trkpt lat="43.73539" lon="6.97392">
        <ele>1028.4</ele>
        <time>2025-09-27T12:09:47Z</time>
      </trkpt>
      <trkpt lat="43.73535" lon="6.97382">
        <ele>1027.6</ele>
        <time>2025-09-27T12:09:49Z</time>
      </trkpt>
      <trkpt lat="43.73532" lon="6.97376">
        <ele>1027.1</ele>
        <time>2025-09-27T12:09:50Z</time>
      </trkpt>
      <trkpt lat="43.7353" lon="6.9737">
        <ele>1026.6</ele>
        <time>2025-09-27T12:09:51Z</time>
      </trkpt>
      <trkpt lat="43.73528" lon="6.97364">
        <ele>1026.2</ele>
        <time>2025-09-27T12:09:52Z</time>
      </trkpt>
      <trkpt lat="43.73525" lon="6.97358">
        <ele>1025.7</ele>
        <time>2025-09-27T12:09:53Z</time>
      </trkpt>
      <trkpt lat="43.73521" lon="6.97354">
        <ele>1025.3</ele>
        <time>2025-09-27T12:09:54Z</time>
      </trkpt>
      <trkpt lat="43.73514" lon="6.9735">
        <ele>1024.8</ele>
        <time>2025-09-27T12:09:56Z</time>
      </trkpt>
      <trkpt lat="43.73508" lon="6.97346">
        <ele>1024.5</ele>
        <time>2025-09-27T12:09:58Z</time>
      </trkpt>
      <trkpt lat="43.73502" lon="6.97343">
        <ele>1024.5</ele>
        <time>2025-09-27T12:10:00Z</time>
      </trkpt>
      <trkpt lat="43.73497" lon="6.97341">
        <ele>1024.5</ele>
        <time>2025-09-27T12:10:02Z</time>
      </trkpt>
      <trkpt lat="43.73491" lon="6.97337">
        <ele>1024.7</ele>
        <time>2025-09-27T12:10:04Z</time>
      </trkpt>
      <trkpt lat="43.73485" lon="6.97335">
        <ele>1024.9</ele>
        <time>2025-09-27T12:10:06Z</time>
      </trkpt>
      <trkpt lat="43.7348" lon="6.97333">
        <ele>1025.1</ele>
        <time>2025-09-27T12:10:08Z</time>
      </trkpt>
      <trkpt lat="43.73475" lon="6.97331">
        <ele>1025.2</ele>
        <time>2025-09-27T12:10:10Z</time>
      </trkpt>
      <trkpt lat="43.73469" lon="6.97329">
        <ele>1025.3</ele>
        <time>2025-09-27T12:10:12Z</time>
      </trkpt>
      <trkpt lat="43.73463" lon="6.97327">
        <ele>1025.2</ele>
        <time>2025-09-27T12:10:14Z</time>
      </trkpt>
      <trkpt lat="43.73457" lon="6.97324">
        <ele>1025.2</ele>
        <time>2025-09-27T12:10:16Z</time>
      </trkpt>
      <trkpt lat="43.73451" lon="6.97322">
        <ele>1025.2</ele>
        <time>2025-09-27T12:10:18Z</time>
      </trkpt>
      <trkpt lat="43.73445" lon="6.97319">
        <ele>1025.3</ele>
        <time>2025-09-27T12:10:20Z</time>
      </trkpt>
      <trkpt lat="43.73438" lon="6.97316">
        <ele>1025.6</ele>
        <time>2025-09-27T12:10:22Z</time>
      </trkpt>
      <trkpt lat="43.73431" lon="6.97313">
        <ele>1025.9</ele>
        <time>2025-09-27T12:10:24Z</time>
      </trkpt>
      <trkpt lat="43.73426" lon="6.9731">
        <ele>1026.2</ele>
        <time>2025-09-27T12:10:26Z</time>
      </trkpt>
      <trkpt lat="43.7342" lon="6.97307">
        <ele>1026.5</ele>
        <time>2025-09-27T12:10:28Z</time>
      </trkpt>
      <trkpt lat="43.73415" lon="6.97305">
        <ele>1026.7</ele>
        <time>2025-09-27T12:10:30Z</time>
      </trkpt>
      <trkpt lat="43.7341" lon="6.97304">
        <ele>1026.8</ele>
        <time>2025-09-27T12:10:32Z</time>
      </trkpt>
      <trkpt lat="43.73405" lon="6.97301">
        <ele>1027</ele>
        <time>2025-09-27T12:10:34Z</time>
      </trkpt>
      <trkpt lat="43.73399" lon="6.97298">
        <ele>1027</ele>
        <time>2025-09-27T12:10:36Z</time>
      </trkpt>
      <trkpt lat="43.73393" lon="6.97296">
        <ele>1027</ele>
        <time>2025-09-27T12:10:38Z</time>
      </trkpt>
      <trkpt lat="43.73387" lon="6.97293">
        <ele>1027</ele>
        <time>2025-09-27T12:10:40Z</time>
      </trkpt>
      <trkpt lat="43.73381" lon="6.9729">
        <ele>1026.9</ele>
        <time>2025-09-27T12:10:42Z</time>
      </trkpt>
      <trkpt lat="43.73374" lon="6.97288">
        <ele>1026.7</ele>
        <time>2025-09-27T12:10:44Z</time>
      </trkpt>
      <trkpt lat="43.73368" lon="6.97285">
        <ele>1026.5</ele>
        <time>2025-09-27T12:10:46Z</time>
      </trkpt>
      <trkpt lat="43.7336" lon="6.97281">
        <ele>1026.2</ele>
        <time>2025-09-27T12:10:48Z</time>
      </trkpt>
      <trkpt lat="43.73353" lon="6.97278">
        <ele>1026</ele>
        <time>2025-09-27T12:10:50Z</time>
      </trkpt>
      <trkpt lat="43.73345" lon="6.97274">
        <ele>1026</ele>
        <time>2025-09-27T12:10:52Z</time>
      </trkpt>
      <trkpt lat="43.73338" lon="6.97271">
        <ele>1026</ele>
        <time>2025-09-27T12:10:54Z</time>
      </trkpt>
      <trkpt lat="43.73331" lon="6.97268">
        <ele>1026.2</ele>
        <time>2025-09-27T12:10:56Z</time>
      </trkpt>
      <trkpt lat="43.73324" lon="6.97265">
        <ele>1026.5</ele>
        <time>2025-09-27T12:10:58Z</time>
      </trkpt>
      <trkpt lat="43.73318" lon="6.97262">
        <ele>1027</ele>
        <time>2025-09-27T12:11:00Z</time>
      </trkpt>
      <trkpt lat="43.73312" lon="6.97259">
        <ele>1027.5</ele>
        <time>2025-09-27T12:11:02Z</time>
      </trkpt>
      <trkpt lat="43.73307" lon="6.97257">
        <ele>1028.1</ele>
        <time>2025-09-27T12:11:05Z</time>
      </trkpt>
      <trkpt lat="43.73302" lon="6.97254">
        <ele>1028.6</ele>
        <time>2025-09-27T12:11:08Z</time>
      </trkpt>
      <trkpt lat="43.73296" lon="6.97252">
        <ele>1029.2</ele>
        <time>2025-09-27T12:11:11Z</time>
      </trkpt>
      <trkpt lat="43.73291" lon="6.9725">
        <ele>1029.7</ele>
        <time>2025-09-27T12:11:14Z</time>
      </trkpt>
      <trkpt lat="43.73285" lon="6.97248">
        <ele>1030.2</ele>
        <time>2025-09-27T12:11:17Z</time>
      </trkpt>
      <trkpt lat="43.73281" lon="6.97246">
        <ele>1030.5</ele>
        <time>2025-09-27T12:11:20Z</time>
      </trkpt>
      <trkpt lat="43.73275" lon="6.97243">
        <ele>1030.9</ele>
        <time>2025-09-27T12:11:23Z</time>
      </trkpt>
      <trkpt lat="43.7327" lon="6.97241">
        <ele>1031.2</ele>
        <time>2025-09-27T12:11:26Z</time>
      </trkpt>
      <trkpt lat="43.73264" lon="6.97239">
        <ele>1031.5</ele>
        <time>2025-09-27T12:11:29Z</time>
      </trkpt>
      <trkpt lat="43.73258" lon="6.97236">
        <ele>1031.8</ele>
        <time>2025-09-27T12:11:32Z</time>
      </trkpt>
      <trkpt lat="43.73253" lon="6.97234">
        <ele>1032.2</ele>
        <time>2025-09-27T12:11:35Z</time>
      </trkpt>
      <trkpt lat="43.73247" lon="6.97231">
        <ele>1032.6</ele>
        <time>2025-09-27T12:11:38Z</time>
      </trkpt>
      <trkpt lat="43.73241" lon="6.97229">
        <ele>1033</ele>
        <time>2025-09-27T12:11:41Z</time>
      </trkpt>
      <trkpt lat="43.73236" lon="6.97227">
        <ele>1033.3</ele>
        <time>2025-09-27T12:11:44Z</time>
      </trkpt>
      <trkpt lat="43.73232" lon="6.97225">
        <ele>1033.6</ele>
        <time>2025-09-27T12:11:47Z</time>
      </trkpt>
      <trkpt lat="43.73227" lon="6.97222">
        <ele>1033.9</ele>
        <time>2025-09-27T12:11:50Z</time>
      </trkpt>
      <trkpt lat="43.73222" lon="6.9722">
        <ele>1034.1</ele>
        <time>2025-09-27T12:11:53Z</time>
      </trkpt>
      <trkpt lat="43.73216" lon="6.97217">
        <ele>1034.2</ele>
        <time>2025-09-27T12:11:56Z</time>
      </trkpt>
      <trkpt lat="43.73211" lon="6.97215">
        <ele>1034.3</ele>
        <time>2025-09-27T12:11:59Z</time>
      </trkpt>
      <trkpt lat="43.73206" lon="6.97214">
        <ele>1034.2</ele>
        <time>2025-09-27T12:12:02Z</time>
      </trkpt>
      <trkpt lat="43.73201" lon="6.97211">
        <ele>1034.1</ele>
        <time>2025-09-27T12:12:05Z</time>
      </trkpt>
      <trkpt lat="43.73196" lon="6.9721">
        <ele>1033.9</ele>
        <time>2025-09-27T12:12:09Z</time>
      </trkpt>
      <trkpt lat="43.7319" lon="6.97207">
        <ele>1033.6</ele>
        <time>2025-09-27T12:12:12Z</time>
      </trkpt>
      <trkpt lat="43.73185" lon="6.97205">
        <ele>1033.3</ele>
        <time>2025-09-27T12:12:14Z</time>
      </trkpt>
      <trkpt lat="43.7318" lon="6.97202">
        <ele>1033</ele>
        <time>2025-09-27T12:12:16Z</time>
      </trkpt>
      <trkpt lat="43.73174" lon="6.97199">
        <ele>1032.7</ele>
        <time>2025-09-27T12:12:18Z</time>
      </trkpt>
      <trkpt lat="43.73168" lon="6.97196">
        <ele>1032.4</ele>
        <time>2025-09-27T12:12:20Z</time>
      </trkpt>
      <trkpt lat="43.73162" lon="6.97195">
        <ele>1032.3</ele>
        <time>2025-09-27T12:12:33Z</time>
      </trkpt>
      <trkpt lat="43.73157" lon="6.97193">
        <ele>1032.1</ele>
        <time>2025-09-27T12:12:36Z</time>
      </trkpt>
      <trkpt lat="43.73152" lon="6.97191">
        <ele>1032</ele>
        <time>2025-09-27T12:12:38Z</time>
      </trkpt>
      <trkpt lat="43.73147" lon="6.97189">
        <ele>1031.9</ele>
        <time>2025-09-27T12:12:40Z</time>
      </trkpt>
      <trkpt lat="43.73142" lon="6.97186">
        <ele>1031.7</ele>
        <time>2025-09-27T12:12:42Z</time>
      </trkpt>
      <trkpt lat="43.73136" lon="6.97184">
        <ele>1031.5</ele>
        <time>2025-09-27T12:12:44Z</time>
      </trkpt>
      <trkpt lat="43.7313" lon="6.97182">
        <ele>1031.2</ele>
        <time>2025-09-27T12:12:46Z</time>
      </trkpt>
      <trkpt lat="43.73124" lon="6.97179">
        <ele>1030.8</ele>
        <time>2025-09-27T12:12:48Z</time>
      </trkpt>
      <trkpt lat="43.73117" lon="6.97176">
        <ele>1030.6</ele>
        <time>2025-09-27T12:12:50Z</time>
      </trkpt>
      <trkpt lat="43.7311" lon="6.97172">
        <ele>1030.3</ele>
        <time>2025-09-27T12:12:52Z</time>
      </trkpt>
      <trkpt lat="43.73103" lon="6.97169">
        <ele>1030.3</ele>
        <time>2025-09-27T12:12:54Z</time>
      </trkpt>
      <trkpt lat="43.73095" lon="6.97166">
        <ele>1030.4</ele>
        <time>2025-09-27T12:12:56Z</time>
      </trkpt>
      <trkpt lat="43.73088" lon="6.97163">
        <ele>1030.6</ele>
        <time>2025-09-27T12:12:58Z</time>
      </trkpt>
      <trkpt lat="43.73082" lon="6.9716">
        <ele>1030.9</ele>
        <time>2025-09-27T12:13:00Z</time>
      </trkpt>
      <trkpt lat="43.73075" lon="6.97157">
        <ele>1031.1</ele>
        <time>2025-09-27T12:13:02Z</time>
      </trkpt>
      <trkpt lat="43.73068" lon="6.97155">
        <ele>1031.4</ele>
        <time>2025-09-27T12:13:04Z</time>
      </trkpt>
      <trkpt lat="43.73062" lon="6.97152">
        <ele>1031.6</ele>
        <time>2025-09-27T12:13:06Z</time>
      </trkpt>
      <trkpt lat="43.73056" lon="6.9715">
        <ele>1031.8</ele>
        <time>2025-09-27T12:13:08Z</time>
      </trkpt>
      <trkpt lat="43.73049" lon="6.97147">
        <ele>1032</ele>
        <time>2025-09-27T12:13:10Z</time>
      </trkpt>
      <trkpt lat="43.73043" lon="6.97145">
        <ele>1032.2</ele>
        <time>2025-09-27T12:13:12Z</time>
      </trkpt>
      <trkpt lat="43.73038" lon="6.97142">
        <ele>1032.4</ele>
        <time>2025-09-27T12:13:14Z</time>
      </trkpt>
      <trkpt lat="43.73033" lon="6.9714">
        <ele>1032.6</ele>
        <time>2025-09-27T12:13:16Z</time>
      </trkpt>
      <trkpt lat="43.73028" lon="6.97138">
        <ele>1032.7</ele>
        <time>2025-09-27T12:13:19Z</time>
      </trkpt>
      <trkpt lat="43.73022" lon="6.97135">
        <ele>1032.8</ele>
        <time>2025-09-27T12:13:22Z</time>
      </trkpt>
      <trkpt lat="43.73018" lon="6.97128">
        <ele>1032.6</ele>
        <time>2025-09-27T12:13:25Z</time>
      </trkpt>
      <trkpt lat="43.73013" lon="6.97123">
        <ele>1032.4</ele>
        <time>2025-09-27T12:13:28Z</time>
      </trkpt>
      <trkpt lat="43.73009" lon="6.9712">
        <ele>1032.1</ele>
        <time>2025-09-27T12:13:31Z</time>
      </trkpt>
      <trkpt lat="43.73005" lon="6.97114">
        <ele>1031.8</ele>
        <time>2025-09-27T12:13:34Z</time>
      </trkpt>
      <trkpt lat="43.73002" lon="6.97109">
        <ele>1031.5</ele>
        <time>2025-09-27T12:13:37Z</time>
      </trkpt>
      <trkpt lat="43.72997" lon="6.97105">
        <ele>1031.1</ele>
        <time>2025-09-27T12:13:40Z</time>
      </trkpt>
      <trkpt lat="43.72993" lon="6.97103">
        <ele>1030.7</ele>
        <time>2025-09-27T12:13:43Z</time>
      </trkpt>
      <trkpt lat="43.72991" lon="6.97109">
        <ele>1030.3</ele>
        <time>2025-09-27T12:14:03Z</time>
      </trkpt>
      <trkpt lat="43.72995" lon="6.97115">
        <ele>1029</ele>
        <time>2025-09-27T12:14:06Z</time>
      </trkpt>
      <trkpt lat="43.72998" lon="6.9712">
        <ele>1027.9</ele>
        <time>2025-09-27T12:14:08Z</time>
      </trkpt>
      <trkpt lat="43.73" lon="6.97127">
        <ele>1026.7</ele>
        <time>2025-09-27T12:14:10Z</time>
      </trkpt>
      <trkpt lat="43.73" lon="6.97133">
        <ele>1025.7</ele>
        <time>2025-09-27T12:14:13Z</time>
      </trkpt>
      <trkpt lat="43.72995" lon="6.97129">
        <ele>1024.3</ele>
        <time>2025-09-27T12:14:17Z</time>
      </trkpt>
      <trkpt lat="43.72992" lon="6.97124">
        <ele>1023.3</ele>
        <time>2025-09-27T12:14:19Z</time>
      </trkpt>
      <trkpt lat="43.72989" lon="6.97132">
        <ele>1022.1</ele>
        <time>2025-09-27T12:14:25Z</time>
      </trkpt>
      <trkpt lat="43.72991" lon="6.97139">
        <ele>1020.8</ele>
        <time>2025-09-27T12:14:27Z</time>
      </trkpt>
      <trkpt lat="43.72992" lon="6.97146">
        <ele>1019.7</ele>
        <time>2025-09-27T12:14:29Z</time>
      </trkpt>
      <trkpt lat="43.72993" lon="6.97155">
        <ele>1018.3</ele>
        <time>2025-09-27T12:14:31Z</time>
      </trkpt>
      <trkpt lat="43.72994" lon="6.97163">
        <ele>1017</ele>
        <time>2025-09-27T12:14:33Z</time>
      </trkpt>
      <trkpt lat="43.72994" lon="6.97171">
        <ele>1015.7</ele>
        <time>2025-09-27T12:14:35Z</time>
      </trkpt>
      <trkpt lat="43.72996" lon="6.97177">
        <ele>1014.6</ele>
        <time>2025-09-27T12:14:38Z</time>
      </trkpt>
      <trkpt lat="43.72995" lon="6.97183">
        <ele>1013.4</ele>
        <time>2025-09-27T12:15:09Z</time>
      </trkpt>
      <trkpt lat="43.72993" lon="6.97191">
        <ele>1012.1</ele>
        <time>2025-09-27T12:15:15Z</time>
      </trkpt>
      <trkpt lat="43.72993" lon="6.972">
        <ele>1010.6</ele>
        <time>2025-09-27T12:15:18Z</time>
      </trkpt>
      <trkpt lat="43.72992" lon="6.97208">
        <ele>1009.4</ele>
        <time>2025-09-27T12:15:20Z</time>
      </trkpt>
      <trkpt lat="43.72991" lon="6.97216">
        <ele>1008.1</ele>
        <time>2025-09-27T12:15:22Z</time>
      </trkpt>
      <trkpt lat="43.72989" lon="6.97223">
        <ele>1006.9</ele>
        <time>2025-09-27T12:15:24Z</time>
      </trkpt>
      <trkpt lat="43.72986" lon="6.9723">
        <ele>1005.7</ele>
        <time>2025-09-27T12:15:26Z</time>
      </trkpt>
      <trkpt lat="43.72982" lon="6.97237">
        <ele>1004.4</ele>
        <time>2025-09-27T12:15:28Z</time>
      </trkpt>
      <trkpt lat="43.7298" lon="6.97242">
        <ele>1003.5</ele>
        <time>2025-09-27T12:15:40Z</time>
      </trkpt>
      <trkpt lat="43.72977" lon="6.97248">
        <ele>1002.5</ele>
        <time>2025-09-27T12:16:04Z</time>
      </trkpt>
      <trkpt lat="43.72975" lon="6.97254">
        <ele>1001.7</ele>
        <time>2025-09-27T12:16:07Z</time>
      </trkpt>
      <trkpt lat="43.72972" lon="6.97261">
        <ele>1000.5</ele>
        <time>2025-09-27T12:16:10Z</time>
      </trkpt>
      <trkpt lat="43.72969" lon="6.97267">
        <ele>999.5</ele>
        <time>2025-09-27T12:16:13Z</time>
      </trkpt>
      <trkpt lat="43.72966" lon="6.97274">
        <ele>998.3</ele>
        <time>2025-09-27T12:16:16Z</time>
      </trkpt>
      <trkpt lat="43.72963" lon="6.97281">
        <ele>997.2</ele>
        <time>2025-09-27T12:16:19Z</time>
      </trkpt>
      <trkpt lat="43.72959" lon="6.97285">
        <ele>996.3</ele>
        <time>2025-09-27T12:16:22Z</time>
      </trkpt>
      <trkpt lat="43.72959" lon="6.97277">
        <ele>995.2</ele>
        <time>2025-09-27T12:16:26Z</time>
      </trkpt>
      <trkpt lat="43.72961" lon="6.97268">
        <ele>993.9</ele>
        <time>2025-09-27T12:16:28Z</time>
      </trkpt>
      <trkpt lat="43.72962" lon="6.97258">
        <ele>992.7</ele>
        <time>2025-09-27T12:16:30Z</time>
      </trkpt>
      <trkpt lat="43.72958" lon="6.97259">
        <ele>991.8</ele>
        <time>2025-09-27T12:16:36Z</time>
      </trkpt>
      <trkpt lat="43.72956" lon="6.97265">
        <ele>990.9</ele>
        <time>2025-09-27T12:16:38Z</time>
      </trkpt>
      <trkpt lat="43.72952" lon="6.97272">
        <ele>989.7</ele>
        <time>2025-09-27T12:16:41Z</time>
      </trkpt>
      <trkpt lat="43.72949" lon="6.97279">
        <ele>988.6</ele>
        <time>2025-09-27T12:16:47Z</time>
      </trkpt>
      <trkpt lat="43.72947" lon="6.97285">
        <ele>987.6</ele>
        <time>2025-09-27T12:16:49Z</time>
      </trkpt>
      <trkpt lat="43.72943" lon="6.97291">
        <ele>986.6</ele>
        <time>2025-09-27T12:16:52Z</time>
      </trkpt>
      <trkpt lat="43.7294" lon="6.97297">
        <ele>985.6</ele>
        <time>2025-09-27T12:16:55Z</time>
      </trkpt>
      <trkpt lat="43.72938" lon="6.97303">
        <ele>984.7</ele>
        <time>2025-09-27T12:16:59Z</time>
      </trkpt>
      <trkpt lat="43.72935" lon="6.97295">
        <ele>983.7</ele>
        <time>2025-09-27T12:17:04Z</time>
      </trkpt>
      <trkpt lat="43.72936" lon="6.97285">
        <ele>982.7</ele>
        <time>2025-09-27T12:17:06Z</time>
      </trkpt>
      <trkpt lat="43.72938" lon="6.97274">
        <ele>981.5</ele>
        <time>2025-09-27T12:17:08Z</time>
      </trkpt>
      <trkpt lat="43.72939" lon="6.97262">
        <ele>980.3</ele>
        <time>2025-09-27T12:17:10Z</time>
      </trkpt>
      <trkpt lat="43.7294" lon="6.97251">
        <ele>979.2</ele>
        <time>2025-09-27T12:17:12Z</time>
      </trkpt>
      <trkpt lat="43.72942" lon="6.97242">
        <ele>978.3</ele>
        <time>2025-09-27T12:17:14Z</time>
      </trkpt>
      <trkpt lat="43.72937" lon="6.97243">
        <ele>977.7</ele>
        <time>2025-09-27T12:17:18Z</time>
      </trkpt>
      <trkpt lat="43.72936" lon="6.97251">
        <ele>976.9</ele>
        <time>2025-09-27T12:17:20Z</time>
      </trkpt>
      <trkpt lat="43.72933" lon="6.97261">
        <ele>975.9</ele>
        <time>2025-09-27T12:17:22Z</time>
      </trkpt>
      <trkpt lat="43.72929" lon="6.97271">
        <ele>974.8</ele>
        <time>2025-09-27T12:17:24Z</time>
      </trkpt>
      <trkpt lat="43.72925" lon="6.97279">
        <ele>973.8</ele>
        <time>2025-09-27T12:17:26Z</time>
      </trkpt>
      <trkpt lat="43.72921" lon="6.97288">
        <ele>972.7</ele>
        <time>2025-09-27T12:17:28Z</time>
      </trkpt>
      <trkpt lat="43.72917" lon="6.97297">
        <ele>971.6</ele>
        <time>2025-09-27T12:17:30Z</time>
      </trkpt>
      <trkpt lat="43.72912" lon="6.97306">
        <ele>970.4</ele>
        <time>2025-09-27T12:17:32Z</time>
      </trkpt>
      <trkpt lat="43.72908" lon="6.97313">
        <ele>969.2</ele>
        <time>2025-09-27T12:17:34Z</time>
      </trkpt>
      <trkpt lat="43.72903" lon="6.97323">
        <ele>967.9</ele>
        <time>2025-09-27T12:17:36Z</time>
      </trkpt>
      <trkpt lat="43.72898" lon="6.97331">
        <ele>966.7</ele>
        <time>2025-09-27T12:17:38Z</time>
      </trkpt>
      <trkpt lat="43.72894" lon="6.97337">
        <ele>965.7</ele>
        <time>2025-09-27T12:17:40Z</time>
      </trkpt>
      <trkpt lat="43.72889" lon="6.97344">
        <ele>964.6</ele>
        <time>2025-09-27T12:17:42Z</time>
      </trkpt>
      <trkpt lat="43.72886" lon="6.97349">
        <ele>963.9</ele>
        <time>2025-09-27T12:17:44Z</time>
      </trkpt>
      <trkpt lat="43.72884" lon="6.97342">
        <ele>963</ele>
        <time>2025-09-27T12:17:50Z</time>
      </trkpt>
      <trkpt lat="43.72887" lon="6.97335">
        <ele>962</ele>
        <time>2025-09-27T12:17:52Z</time>
      </trkpt>
      <trkpt lat="43.7289" lon="6.97324">
        <ele>960.9</ele>
        <time>2025-09-27T12:17:54Z</time>
      </trkpt>
      <trkpt lat="43.72893" lon="6.97313">
        <ele>959.6</ele>
        <time>2025-09-27T12:17:56Z</time>
      </trkpt>
      <trkpt lat="43.72895" lon="6.97307">
        <ele>959</ele>
        <time>2025-09-27T12:17:57Z</time>
      </trkpt>
      <trkpt lat="43.72897" lon="6.97298">
        <ele>957.9</ele>
        <time>2025-09-27T12:17:59Z</time>
      </trkpt>
      <trkpt lat="43.72897" lon="6.97287">
        <ele>956.8</ele>
        <time>2025-09-27T12:18:01Z</time>
      </trkpt>
      <trkpt lat="43.72897" lon="6.97277">
        <ele>955.7</ele>
        <time>2025-09-27T12:18:03Z</time>
      </trkpt>
      <trkpt lat="43.72899" lon="6.9727">
        <ele>954.9</ele>
        <time>2025-09-27T12:18:05Z</time>
      </trkpt>
      <trkpt lat="43.729" lon="6.97264">
        <ele>954.2</ele>
        <time>2025-09-27T12:18:09Z</time>
      </trkpt>
      <trkpt lat="43.729" lon="6.97257">
        <ele>953.4</ele>
        <time>2025-09-27T12:18:12Z</time>
      </trkpt>
      <trkpt lat="43.72896" lon="6.9726">
        <ele>952.6</ele>
        <time>2025-09-27T12:18:18Z</time>
      </trkpt>
      <trkpt lat="43.72893" lon="6.97267">
        <ele>951.5</ele>
        <time>2025-09-27T12:18:21Z</time>
      </trkpt>
      <trkpt lat="43.7289" lon="6.97272">
        <ele>950.4</ele>
        <time>2025-09-27T12:18:23Z</time>
      </trkpt>
      <trkpt lat="43.72886" lon="6.97279">
        <ele>949</ele>
        <time>2025-09-27T12:18:25Z</time>
      </trkpt>
      <trkpt lat="43.72883" lon="6.97285">
        <ele>947.8</ele>
        <time>2025-09-27T12:18:27Z</time>
      </trkpt>
      <trkpt lat="43.72878" lon="6.9729">
        <ele>946.4</ele>
        <time>2025-09-27T12:18:29Z</time>
      </trkpt>
      <trkpt lat="43.72874" lon="6.97296">
        <ele>945</ele>
        <time>2025-09-27T12:18:31Z</time>
      </trkpt>
      <trkpt lat="43.7287" lon="6.97302">
        <ele>943.6</ele>
        <time>2025-09-27T12:18:34Z</time>
      </trkpt>
      <trkpt lat="43.72869" lon="6.97294">
        <ele>942.2</ele>
        <time>2025-09-27T12:18:40Z</time>
      </trkpt>
      <trkpt lat="43.72871" lon="6.97288">
        <ele>941.2</ele>
        <time>2025-09-27T12:18:42Z</time>
      </trkpt>
      <trkpt lat="43.72872" lon="6.9728">
        <ele>939.9</ele>
        <time>2025-09-27T12:18:44Z</time>
      </trkpt>
      <trkpt lat="43.72874" lon="6.97272">
        <ele>938.7</ele>
        <time>2025-09-27T12:18:46Z</time>
      </trkpt>
      <trkpt lat="43.72876" lon="6.97264">
        <ele>937.5</ele>
        <time>2025-09-27T12:18:48Z</time>
      </trkpt>
      <trkpt lat="43.72878" lon="6.97258">
        <ele>936.5</ele>
        <time>2025-09-27T12:18:50Z</time>
      </trkpt>
      <trkpt lat="43.72873" lon="6.97257">
        <ele>935.4</ele>
        <time>2025-09-27T12:18:55Z</time>
      </trkpt>
      <trkpt lat="43.72869" lon="6.97264">
        <ele>934.2</ele>
        <time>2025-09-27T12:18:57Z</time>
      </trkpt>
      <trkpt lat="43.72866" lon="6.97271">
        <ele>933</ele>
        <time>2025-09-27T12:18:59Z</time>
      </trkpt>
      <trkpt lat="43.72862" lon="6.97281">
        <ele>931.7</ele>
        <time>2025-09-27T12:19:01Z</time>
      </trkpt>
      <trkpt lat="43.72856" lon="6.97289">
        <ele>930.5</ele>
        <time>2025-09-27T12:19:03Z</time>
      </trkpt>
      <trkpt lat="43.72851" lon="6.97296">
        <ele>929.3</ele>
        <time>2025-09-27T12:19:05Z</time>
      </trkpt>
      <trkpt lat="43.72845" lon="6.97306">
        <ele>928</ele>
        <time>2025-09-27T12:19:07Z</time>
      </trkpt>
      <trkpt lat="43.72842" lon="6.97312">
        <ele>927.2</ele>
        <time>2025-09-27T12:19:08Z</time>
      </trkpt>
      <trkpt lat="43.72838" lon="6.97318">
        <ele>926.4</ele>
        <time>2025-09-27T12:19:09Z</time>
      </trkpt>
      <trkpt lat="43.72835" lon="6.97325">
        <ele>925.7</ele>
        <time>2025-09-27T12:19:10Z</time>
      </trkpt>
      <trkpt lat="43.72833" lon="6.97331">
        <ele>925</ele>
        <time>2025-09-27T12:19:11Z</time>
      </trkpt>
      <trkpt lat="43.72831" lon="6.97337">
        <ele>924.4</ele>
        <time>2025-09-27T12:19:12Z</time>
      </trkpt>
      <trkpt lat="43.72827" lon="6.97344">
        <ele>923.6</ele>
        <time>2025-09-27T12:19:14Z</time>
      </trkpt>
      <trkpt lat="43.72821" lon="6.97351">
        <ele>922.5</ele>
        <time>2025-09-27T12:19:16Z</time>
      </trkpt>
      <trkpt lat="43.72818" lon="6.97356">
        <ele>921.8</ele>
        <time>2025-09-27T12:19:17Z</time>
      </trkpt>
      <trkpt lat="43.72812" lon="6.97365">
        <ele>920.5</ele>
        <time>2025-09-27T12:19:19Z</time>
      </trkpt>
      <trkpt lat="43.72807" lon="6.97372">
        <ele>919.2</ele>
        <time>2025-09-27T12:19:21Z</time>
      </trkpt>
      <trkpt lat="43.72803" lon="6.97375">
        <ele>918.5</ele>
        <time>2025-09-27T12:19:23Z</time>
      </trkpt>
      <trkpt lat="43.728" lon="6.9738">
        <ele>917.8</ele>
        <time>2025-09-27T12:19:53Z</time>
      </trkpt>
      <trkpt lat="43.72796" lon="6.97388">
        <ele>916.7</ele>
        <time>2025-09-27T12:19:56Z</time>
      </trkpt>
      <trkpt lat="43.72792" lon="6.97396">
        <ele>915.6</ele>
        <time>2025-09-27T12:19:58Z</time>
      </trkpt>
      <trkpt lat="43.72789" lon="6.97408">
        <ele>914.4</ele>
        <time>2025-09-27T12:20:00Z</time>
      </trkpt>
      <trkpt lat="43.72784" lon="6.97414">
        <ele>913.5</ele>
        <time>2025-09-27T12:20:02Z</time>
      </trkpt>
      <trkpt lat="43.72777" lon="6.97418">
        <ele>912.3</ele>
        <time>2025-09-27T12:20:04Z</time>
      </trkpt>
      <trkpt lat="43.72769" lon="6.97424">
        <ele>910.9</ele>
        <time>2025-09-27T12:20:06Z</time>
      </trkpt>
      <trkpt lat="43.72763" lon="6.97428">
        <ele>909.8</ele>
        <time>2025-09-27T12:20:08Z</time>
      </trkpt>
      <trkpt lat="43.72763" lon="6.97419">
        <ele>908.7</ele>
        <time>2025-09-27T12:20:11Z</time>
      </trkpt>
      <trkpt lat="43.72767" lon="6.9741">
        <ele>907.4</ele>
        <time>2025-09-27T12:20:13Z</time>
      </trkpt>
      <trkpt lat="43.72772" lon="6.974">
        <ele>906.2</ele>
        <time>2025-09-27T12:20:15Z</time>
      </trkpt>
      <trkpt lat="43.72774" lon="6.97388">
        <ele>904.9</ele>
        <time>2025-09-27T12:20:17Z</time>
      </trkpt>
      <trkpt lat="43.72774" lon="6.97381">
        <ele>904.2</ele>
        <time>2025-09-27T12:20:18Z</time>
      </trkpt>
      <trkpt lat="43.72774" lon="6.97374">
        <ele>903.5</ele>
        <time>2025-09-27T12:20:19Z</time>
      </trkpt>
      <trkpt lat="43.72775" lon="6.97368">
        <ele>902.8</ele>
        <time>2025-09-27T12:20:20Z</time>
      </trkpt>
      <trkpt lat="43.72776" lon="6.97355">
        <ele>901.4</ele>
        <time>2025-09-27T12:20:22Z</time>
      </trkpt>
      <trkpt lat="43.72777" lon="6.97349">
        <ele>900.7</ele>
        <time>2025-09-27T12:20:23Z</time>
      </trkpt>
      <trkpt lat="43.72777" lon="6.97342">
        <ele>899.9</ele>
        <time>2025-09-27T12:20:24Z</time>
      </trkpt>
      <trkpt lat="43.72777" lon="6.97335">
        <ele>899</ele>
        <time>2025-09-27T12:20:25Z</time>
      </trkpt>
      <trkpt lat="43.72778" lon="6.97327">
        <ele>898.1</ele>
        <time>2025-09-27T12:20:26Z</time>
      </trkpt>
      <trkpt lat="43.72779" lon="6.97319">
        <ele>897.1</ele>
        <time>2025-09-27T12:20:27Z</time>
      </trkpt>
      <trkpt lat="43.7278" lon="6.97312">
        <ele>896.3</ele>
        <time>2025-09-27T12:20:28Z</time>
      </trkpt>
      <trkpt lat="43.7278" lon="6.97305">
        <ele>895.4</ele>
        <time>2025-09-27T12:20:29Z</time>
      </trkpt>
      <trkpt lat="43.7278" lon="6.97297">
        <ele>894.7</ele>
        <time>2025-09-27T12:20:30Z</time>
      </trkpt>
      <trkpt lat="43.72781" lon="6.97291">
        <ele>894</ele>
        <time>2025-09-27T12:20:31Z</time>
      </trkpt>
      <trkpt lat="43.72782" lon="6.97282">
        <ele>893</ele>
        <time>2025-09-27T12:20:33Z</time>
      </trkpt>
      <trkpt lat="43.72784" lon="6.97276">
        <ele>892.4</ele>
        <time>2025-09-27T12:20:45Z</time>
      </trkpt>
      <trkpt lat="43.72787" lon="6.97271">
        <ele>891.8</ele>
        <time>2025-09-27T12:20:56Z</time>
      </trkpt>
      <trkpt lat="43.72787" lon="6.97263">
        <ele>891</ele>
        <time>2025-09-27T12:21:15Z</time>
      </trkpt>
      <trkpt lat="43.72789" lon="6.97254">
        <ele>890.1</ele>
        <time>2025-09-27T12:21:17Z</time>
      </trkpt>
      <trkpt lat="43.7279" lon="6.97248">
        <ele>889.5</ele>
        <time>2025-09-27T12:21:18Z</time>
      </trkpt>
      <trkpt lat="43.72791" lon="6.97241">
        <ele>888.9</ele>
        <time>2025-09-27T12:21:19Z</time>
      </trkpt>
      <trkpt lat="43.72792" lon="6.97234">
        <ele>888.3</ele>
        <time>2025-09-27T12:21:20Z</time>
      </trkpt>
      <trkpt lat="43.72792" lon="6.97228">
        <ele>887.8</ele>
        <time>2025-09-27T12:21:21Z</time>
      </trkpt>
      <trkpt lat="43.72793" lon="6.97221">
        <ele>887.2</ele>
        <time>2025-09-27T12:21:22Z</time>
      </trkpt>
      <trkpt lat="43.72794" lon="6.97214">
        <ele>886.7</ele>
        <time>2025-09-27T12:21:23Z</time>
      </trkpt>
      <trkpt lat="43.72794" lon="6.97208">
        <ele>886.2</ele>
        <time>2025-09-27T12:21:24Z</time>
      </trkpt>
      <trkpt lat="43.72794" lon="6.97201">
        <ele>885.6</ele>
        <time>2025-09-27T12:21:25Z</time>
      </trkpt>
      <trkpt lat="43.72793" lon="6.97193">
        <ele>885</ele>
        <time>2025-09-27T12:21:26Z</time>
      </trkpt>
      <trkpt lat="43.72792" lon="6.97186">
        <ele>884.4</ele>
        <time>2025-09-27T12:21:27Z</time>
      </trkpt>
      <trkpt lat="43.72791" lon="6.97179">
        <ele>883.7</ele>
        <time>2025-09-27T12:21:28Z</time>
      </trkpt>
      <trkpt lat="43.72791" lon="6.97171">
        <ele>883</ele>
        <time>2025-09-27T12:21:29Z</time>
      </trkpt>
      <trkpt lat="43.7279" lon="6.97165">
        <ele>882.4</ele>
        <time>2025-09-27T12:21:30Z</time>
      </trkpt>
      <trkpt lat="43.7279" lon="6.97158">
        <ele>881.8</ele>
        <time>2025-09-27T12:21:31Z</time>
      </trkpt>
      <trkpt lat="43.7279" lon="6.97151">
        <ele>881</ele>
        <time>2025-09-27T12:21:32Z</time>
      </trkpt>
      <trkpt lat="43.72789" lon="6.97143">
        <ele>880.3</ele>
        <time>2025-09-27T12:21:33Z</time>
      </trkpt>
      <trkpt lat="43.72789" lon="6.97137">
        <ele>879.6</ele>
        <time>2025-09-27T12:21:34Z</time>
      </trkpt>
      <trkpt lat="43.72788" lon="6.97126">
        <ele>878.6</ele>
        <time>2025-09-27T12:21:36Z</time>
      </trkpt>
      <trkpt lat="43.72786" lon="6.97117">
        <ele>877.5</ele>
        <time>2025-09-27T12:21:38Z</time>
      </trkpt>
      <trkpt lat="43.72786" lon="6.97104">
        <ele>876.2</ele>
        <time>2025-09-27T12:21:40Z</time>
      </trkpt>
      <trkpt lat="43.72785" lon="6.97097">
        <ele>875.5</ele>
        <time>2025-09-27T12:21:41Z</time>
      </trkpt>
      <trkpt lat="43.72786" lon="6.9709">
        <ele>874.7</ele>
        <time>2025-09-27T12:21:42Z</time>
      </trkpt>
      <trkpt lat="43.72787" lon="6.97083">
        <ele>874</ele>
        <time>2025-09-27T12:21:43Z</time>
      </trkpt>
      <trkpt lat="43.72787" lon="6.97075">
        <ele>873.2</ele>
        <time>2025-09-27T12:21:44Z</time>
      </trkpt>
      <trkpt lat="43.72787" lon="6.97068">
        <ele>872.5</ele>
        <time>2025-09-27T12:21:45Z</time>
      </trkpt>
      <trkpt lat="43.72787" lon="6.97057">
        <ele>871.1</ele>
        <time>2025-09-27T12:21:47Z</time>
      </trkpt>
      <trkpt lat="43.72786" lon="6.9705">
        <ele>870.3</ele>
        <time>2025-09-27T12:21:48Z</time>
      </trkpt>
      <trkpt lat="43.72786" lon="6.97042">
        <ele>869.5</ele>
        <time>2025-09-27T12:21:49Z</time>
      </trkpt>
      <trkpt lat="43.72785" lon="6.97034">
        <ele>868.6</ele>
        <time>2025-09-27T12:21:50Z</time>
      </trkpt>
      <trkpt lat="43.72785" lon="6.97026">
        <ele>867.7</ele>
        <time>2025-09-27T12:21:51Z</time>
      </trkpt>
      <trkpt lat="43.72785" lon="6.97018">
        <ele>867</ele>
        <time>2025-09-27T12:21:52Z</time>
      </trkpt>
      <trkpt lat="43.72784" lon="6.97012">
        <ele>866.3</ele>
        <time>2025-09-27T12:21:53Z</time>
      </trkpt>
      <trkpt lat="43.72783" lon="6.97005">
        <ele>865.6</ele>
        <time>2025-09-27T12:21:54Z</time>
      </trkpt>
      <trkpt lat="43.72782" lon="6.96998">
        <ele>864.9</ele>
        <time>2025-09-27T12:21:55Z</time>
      </trkpt>
      <trkpt lat="43.7278" lon="6.9699">
        <ele>864</ele>
        <time>2025-09-27T12:21:56Z</time>
      </trkpt>
      <trkpt lat="43.72778" lon="6.96982">
        <ele>863.1</ele>
        <time>2025-09-27T12:21:57Z</time>
      </trkpt>
      <trkpt lat="43.72775" lon="6.96975">
        <ele>862.3</ele>
        <time>2025-09-27T12:21:58Z</time>
      </trkpt>
      <trkpt lat="43.72773" lon="6.96967">
        <ele>861.4</ele>
        <time>2025-09-27T12:21:59Z</time>
      </trkpt>
      <trkpt lat="43.7277" lon="6.9696">
        <ele>860.7</ele>
        <time>2025-09-27T12:22:00Z</time>
      </trkpt>
      <trkpt lat="43.72769" lon="6.96954">
        <ele>860</ele>
        <time>2025-09-27T12:22:01Z</time>
      </trkpt>
      <trkpt lat="43.72767" lon="6.96947">
        <ele>859.3</ele>
        <time>2025-09-27T12:22:02Z</time>
      </trkpt>
      <trkpt lat="43.72765" lon="6.9694">
        <ele>858.4</ele>
        <time>2025-09-27T12:22:03Z</time>
      </trkpt>
      <trkpt lat="43.72762" lon="6.96932">
        <ele>857.6</ele>
        <time>2025-09-27T12:22:04Z</time>
      </trkpt>
      <trkpt lat="43.7276" lon="6.96925">
        <ele>856.7</ele>
        <time>2025-09-27T12:22:05Z</time>
      </trkpt>
      <trkpt lat="43.72758" lon="6.96917">
        <ele>855.8</ele>
        <time>2025-09-27T12:22:06Z</time>
      </trkpt>
      <trkpt lat="43.72756" lon="6.96909">
        <ele>854.9</ele>
        <time>2025-09-27T12:22:07Z</time>
      </trkpt>
      <trkpt lat="43.72754" lon="6.96901">
        <ele>854</ele>
        <time>2025-09-27T12:22:08Z</time>
      </trkpt>
      <trkpt lat="43.72752" lon="6.96894">
        <ele>853.2</ele>
        <time>2025-09-27T12:22:09Z</time>
      </trkpt>
      <trkpt lat="43.7275" lon="6.96888">
        <ele>852.5</ele>
        <time>2025-09-27T12:22:10Z</time>
      </trkpt>
      <trkpt lat="43.72748" lon="6.96881">
        <ele>851.9</ele>
        <time>2025-09-27T12:22:11Z</time>
      </trkpt>
      <trkpt lat="43.72746" lon="6.96874">
        <ele>851.2</ele>
        <time>2025-09-27T12:22:12Z</time>
      </trkpt>
      <trkpt lat="43.72744" lon="6.96867">
        <ele>850.5</ele>
        <time>2025-09-27T12:22:13Z</time>
      </trkpt>
      <trkpt lat="43.72742" lon="6.96861">
        <ele>849.9</ele>
        <time>2025-09-27T12:22:14Z</time>
      </trkpt>
      <trkpt lat="43.7274" lon="6.96856">
        <ele>849.4</ele>
        <time>2025-09-27T12:22:15Z</time>
      </trkpt>
      <trkpt lat="43.72736" lon="6.96846">
        <ele>848.4</ele>
        <time>2025-09-27T12:22:17Z</time>
      </trkpt>
      <trkpt lat="43.72731" lon="6.96841">
        <ele>847.6</ele>
        <time>2025-09-27T12:22:19Z</time>
      </trkpt>
      <trkpt lat="43.72724" lon="6.96842">
        <ele>846.8</ele>
        <time>2025-09-27T12:22:21Z</time>
      </trkpt>
      <trkpt lat="43.7272" lon="6.96846">
        <ele>846.2</ele>
        <time>2025-09-27T12:22:25Z</time>
      </trkpt>
      <trkpt lat="43.72715" lon="6.96846">
        <ele>845.7</ele>
        <time>2025-09-27T12:22:29Z</time>
      </trkpt>
      <trkpt lat="43.72713" lon="6.96839">
        <ele>845.1</ele>
        <time>2025-09-27T12:22:32Z</time>
      </trkpt>
      <trkpt lat="43.72711" lon="6.9683">
        <ele>844.4</ele>
        <time>2025-09-27T12:22:35Z</time>
      </trkpt>
      <trkpt lat="43.72708" lon="6.96824">
        <ele>843.1</ele>
        <time>2025-09-27T12:22:37Z</time>
      </trkpt>
      <trkpt lat="43.72703" lon="6.9682">
        <ele>841.4</ele>
        <time>2025-09-27T12:22:39Z</time>
      </trkpt>
      <trkpt lat="43.72699" lon="6.9682">
        <ele>840.5</ele>
        <time>2025-09-27T12:23:31Z</time>
      </trkpt>
      <trkpt lat="43.72693" lon="6.96823">
        <ele>840.4</ele>
        <time>2025-09-27T12:23:39Z</time>
      </trkpt>
      <trkpt lat="43.72689" lon="6.96828">
        <ele>840.2</ele>
        <time>2025-09-27T12:23:41Z</time>
      </trkpt>
      <trkpt lat="43.72685" lon="6.96834">
        <ele>840.1</ele>
        <time>2025-09-27T12:23:44Z</time>
      </trkpt>
      <trkpt lat="43.72681" lon="6.96837">
        <ele>839.8</ele>
        <time>2025-09-27T12:23:47Z</time>
      </trkpt>
      <trkpt lat="43.72676" lon="6.96838">
        <ele>839.5</ele>
        <time>2025-09-27T12:24:11Z</time>
      </trkpt>
      <trkpt lat="43.7267" lon="6.9684">
        <ele>839.2</ele>
        <time>2025-09-27T12:24:14Z</time>
      </trkpt>
      <trkpt lat="43.72665" lon="6.96844">
        <ele>838.9</ele>
        <time>2025-09-27T12:24:16Z</time>
      </trkpt>
      <trkpt lat="43.72659" lon="6.96848">
        <ele>838.5</ele>
        <time>2025-09-27T12:24:18Z</time>
      </trkpt>
      <trkpt lat="43.72652" lon="6.9685">
        <ele>837.9</ele>
        <time>2025-09-27T12:24:20Z</time>
      </trkpt>
      <trkpt lat="43.72646" lon="6.96854">
        <ele>837.1</ele>
        <time>2025-09-27T12:24:22Z</time>
      </trkpt>
      <trkpt lat="43.72639" lon="6.96861">
        <ele>836.1</ele>
        <time>2025-09-27T12:24:24Z</time>
      </trkpt>
      <trkpt lat="43.72633" lon="6.96864">
        <ele>835.1</ele>
        <time>2025-09-27T12:24:26Z</time>
      </trkpt>
      <trkpt lat="43.72627" lon="6.9686">
        <ele>834.2</ele>
        <time>2025-09-27T12:24:28Z</time>
      </trkpt>
      <trkpt lat="43.72623" lon="6.96856">
        <ele>833.5</ele>
        <time>2025-09-27T12:24:29Z</time>
      </trkpt>
      <trkpt lat="43.72619" lon="6.96852">
        <ele>832.7</ele>
        <time>2025-09-27T12:24:30Z</time>
      </trkpt>
      <trkpt lat="43.72614" lon="6.96847">
        <ele>832</ele>
        <time>2025-09-27T12:24:31Z</time>
      </trkpt>
      <trkpt lat="43.72608" lon="6.96843">
        <ele>831.2</ele>
        <time>2025-09-27T12:24:32Z</time>
      </trkpt>
      <trkpt lat="43.72603" lon="6.9684">
        <ele>830.6</ele>
        <time>2025-09-27T12:24:33Z</time>
      </trkpt>
      <trkpt lat="43.72599" lon="6.96836">
        <ele>829.9</ele>
        <time>2025-09-27T12:24:34Z</time>
      </trkpt>
      <trkpt lat="43.72594" lon="6.96831">
        <ele>829.2</ele>
        <time>2025-09-27T12:24:35Z</time>
      </trkpt>
      <trkpt lat="43.7259" lon="6.96825">
        <ele>828.5</ele>
        <time>2025-09-27T12:24:36Z</time>
      </trkpt>
      <trkpt lat="43.72585" lon="6.96819">
        <ele>827.7</ele>
        <time>2025-09-27T12:24:37Z</time>
      </trkpt>
      <trkpt lat="43.7258" lon="6.96812">
        <ele>826.9</ele>
        <time>2025-09-27T12:24:38Z</time>
      </trkpt>
      <trkpt lat="43.72575" lon="6.96805">
        <ele>826.1</ele>
        <time>2025-09-27T12:24:39Z</time>
      </trkpt>
      <trkpt lat="43.72569" lon="6.96801">
        <ele>825.3</ele>
        <time>2025-09-27T12:24:40Z</time>
      </trkpt>
      <trkpt lat="43.72563" lon="6.96796">
        <ele>824.4</ele>
        <time>2025-09-27T12:24:41Z</time>
      </trkpt>
      <trkpt lat="43.72558" lon="6.96792">
        <ele>823.5</ele>
        <time>2025-09-27T12:24:42Z</time>
      </trkpt>
      <trkpt lat="43.72552" lon="6.96788">
        <ele>822.6</ele>
        <time>2025-09-27T12:24:43Z</time>
      </trkpt>
      <trkpt lat="43.72547" lon="6.96784">
        <ele>821.7</ele>
        <time>2025-09-27T12:24:44Z</time>
      </trkpt>
      <trkpt lat="43.72542" lon="6.9678">
        <ele>820.8</ele>
        <time>2025-09-27T12:24:45Z</time>
      </trkpt>
      <trkpt lat="43.72537" lon="6.96775">
        <ele>819.9</ele>
        <time>2025-09-27T12:24:46Z</time>
      </trkpt>
      <trkpt lat="43.72531" lon="6.96771">
        <ele>818.9</ele>
        <time>2025-09-27T12:24:47Z</time>
      </trkpt>
      <trkpt lat="43.72525" lon="6.96766">
        <ele>817.9</ele>
        <time>2025-09-27T12:24:48Z</time>
      </trkpt>
      <trkpt lat="43.72519" lon="6.9676">
        <ele>816.9</ele>
        <time>2025-09-27T12:24:49Z</time>
      </trkpt>
      <trkpt lat="43.72513" lon="6.96755">
        <ele>816</ele>
        <time>2025-09-27T12:24:50Z</time>
      </trkpt>
      <trkpt lat="43.72509" lon="6.96751">
        <ele>815.3</ele>
        <time>2025-09-27T12:24:51Z</time>
      </trkpt>
      <trkpt lat="43.72502" lon="6.96751">
        <ele>814.3</ele>
        <time>2025-09-27T12:24:53Z</time>
      </trkpt>
      <trkpt lat="43.72502" lon="6.96759">
        <ele>813.4</ele>
        <time>2025-09-27T12:24:55Z</time>
      </trkpt>
      <trkpt lat="43.72503" lon="6.96766">
        <ele>812.2</ele>
        <time>2025-09-27T12:24:57Z</time>
      </trkpt>
      <trkpt lat="43.72497" lon="6.96765">
        <ele>811.4</ele>
        <time>2025-09-27T12:25:00Z</time>
      </trkpt>
      <trkpt lat="43.72492" lon="6.96757">
        <ele>810.2</ele>
        <time>2025-09-27T12:25:02Z</time>
      </trkpt>
      <trkpt lat="43.72489" lon="6.96745">
        <ele>809.1</ele>
        <time>2025-09-27T12:25:04Z</time>
      </trkpt>
      <trkpt lat="43.72488" lon="6.96739">
        <ele>808.5</ele>
        <time>2025-09-27T12:25:05Z</time>
      </trkpt>
      <trkpt lat="43.72486" lon="6.96728">
        <ele>807.3</ele>
        <time>2025-09-27T12:25:07Z</time>
      </trkpt>
      <trkpt lat="43.72484" lon="6.96719">
        <ele>806.2</ele>
        <time>2025-09-27T12:25:09Z</time>
      </trkpt>
      <trkpt lat="43.72478" lon="6.96714">
        <ele>804.9</ele>
        <time>2025-09-27T12:25:11Z</time>
      </trkpt>
      <trkpt lat="43.72471" lon="6.9671">
        <ele>803.2</ele>
        <time>2025-09-27T12:25:13Z</time>
      </trkpt>
      <trkpt lat="43.72467" lon="6.96705">
        <ele>802.3</ele>
        <time>2025-09-27T12:25:14Z</time>
      </trkpt>
      <trkpt lat="43.72464" lon="6.96699">
        <ele>801.2</ele>
        <time>2025-09-27T12:25:15Z</time>
      </trkpt>
      <trkpt lat="43.72459" lon="6.96694">
        <ele>800.3</ele>
        <time>2025-09-27T12:25:16Z</time>
      </trkpt>
      <trkpt lat="43.72454" lon="6.96689">
        <ele>799.5</ele>
        <time>2025-09-27T12:25:17Z</time>
      </trkpt>
      <trkpt lat="43.7245" lon="6.96685">
        <ele>798.8</ele>
        <time>2025-09-27T12:25:18Z</time>
      </trkpt>
      <trkpt lat="43.72445" lon="6.9668">
        <ele>798</ele>
        <time>2025-09-27T12:25:19Z</time>
      </trkpt>
      <trkpt lat="43.72441" lon="6.96674">
        <ele>797.3</ele>
        <time>2025-09-27T12:25:20Z</time>
      </trkpt>
      <trkpt lat="43.72437" lon="6.96668">
        <ele>796.6</ele>
        <time>2025-09-27T12:25:21Z</time>
      </trkpt>
      <trkpt lat="43.72435" lon="6.9666">
        <ele>795.9</ele>
        <time>2025-09-27T12:25:22Z</time>
      </trkpt>
      <trkpt lat="43.72434" lon="6.96652">
        <ele>795.1</ele>
        <time>2025-09-27T12:25:23Z</time>
      </trkpt>
      <trkpt lat="43.72433" lon="6.96644">
        <ele>794.2</ele>
        <time>2025-09-27T12:25:24Z</time>
      </trkpt>
      <trkpt lat="43.72432" lon="6.96635">
        <ele>793.3</ele>
        <time>2025-09-27T12:25:25Z</time>
      </trkpt>
      <trkpt lat="43.72429" lon="6.96625">
        <ele>792.3</ele>
        <time>2025-09-27T12:25:26Z</time>
      </trkpt>
      <trkpt lat="43.72425" lon="6.96617">
        <ele>791.4</ele>
        <time>2025-09-27T12:25:27Z</time>
      </trkpt>
      <trkpt lat="43.72421" lon="6.96612">
        <ele>790.6</ele>
        <time>2025-09-27T12:25:28Z</time>
      </trkpt>
      <trkpt lat="43.72417" lon="6.96608">
        <ele>790</ele>
        <time>2025-09-27T12:25:29Z</time>
      </trkpt>
      <trkpt lat="43.7241" lon="6.96605">
        <ele>788.8</ele>
        <time>2025-09-27T12:25:31Z</time>
      </trkpt>
      <trkpt lat="43.72401" lon="6.96605">
        <ele>787.4</ele>
        <time>2025-09-27T12:25:33Z</time>
      </trkpt>
      <trkpt lat="43.72396" lon="6.96606">
        <ele>786.5</ele>
        <time>2025-09-27T12:25:34Z</time>
      </trkpt>
      <trkpt lat="43.72389" lon="6.9661">
        <ele>785.3</ele>
        <time>2025-09-27T12:25:36Z</time>
      </trkpt>
      <trkpt lat="43.72385" lon="6.96614">
        <ele>784.4</ele>
        <time>2025-09-27T12:25:38Z</time>
      </trkpt>
      <trkpt lat="43.72382" lon="6.96621">
        <ele>783.4</ele>
        <time>2025-09-27T12:25:40Z</time>
      </trkpt>
      <trkpt lat="43.72381" lon="6.96629">
        <ele>782.2</ele>
        <time>2025-09-27T12:25:42Z</time>
      </trkpt>
      <trkpt lat="43.7238" lon="6.96641">
        <ele>781.1</ele>
        <time>2025-09-27T12:25:44Z</time>
      </trkpt>
      <trkpt lat="43.7238" lon="6.96647">
        <ele>780.6</ele>
        <time>2025-09-27T12:25:45Z</time>
      </trkpt>
      <trkpt lat="43.72379" lon="6.96654">
        <ele>780.2</ele>
        <time>2025-09-27T12:25:46Z</time>
      </trkpt>
      <trkpt lat="43.72377" lon="6.9666">
        <ele>779.8</ele>
        <time>2025-09-27T12:25:47Z</time>
      </trkpt>
      <trkpt lat="43.72375" lon="6.96666">
        <ele>779.4</ele>
        <time>2025-09-27T12:25:48Z</time>
      </trkpt>
      <trkpt lat="43.72372" lon="6.96672">
        <ele>779.1</ele>
        <time>2025-09-27T12:25:49Z</time>
      </trkpt>
      <trkpt lat="43.72367" lon="6.9668">
        <ele>778.7</ele>
        <time>2025-09-27T12:25:51Z</time>
      </trkpt>
      <trkpt lat="43.72365" lon="6.96688">
        <ele>778.5</ele>
        <time>2025-09-27T12:25:53Z</time>
      </trkpt>
      <trkpt lat="43.72364" lon="6.96695">
        <ele>778.4</ele>
        <time>2025-09-27T12:25:55Z</time>
      </trkpt>
      <trkpt lat="43.72359" lon="6.96702">
        <ele>778.3</ele>
        <time>2025-09-27T12:25:57Z</time>
      </trkpt>
      <trkpt lat="43.72353" lon="6.96706">
        <ele>778.3</ele>
        <time>2025-09-27T12:25:59Z</time>
      </trkpt>
      <trkpt lat="43.72346" lon="6.96707">
        <ele>778.1</ele>
        <time>2025-09-27T12:26:01Z</time>
      </trkpt>
      <trkpt lat="43.72339" lon="6.96707">
        <ele>777.9</ele>
        <time>2025-09-27T12:26:03Z</time>
      </trkpt>
      <trkpt lat="43.72333" lon="6.96706">
        <ele>777.7</ele>
        <time>2025-09-27T12:26:05Z</time>
      </trkpt>
      <trkpt lat="43.72328" lon="6.96706">
        <ele>777.5</ele>
        <time>2025-09-27T12:26:07Z</time>
      </trkpt>
      <trkpt lat="43.72323" lon="6.96705">
        <ele>777.4</ele>
        <time>2025-09-27T12:26:09Z</time>
      </trkpt>
      <trkpt lat="43.72318" lon="6.96705">
        <ele>777.3</ele>
        <time>2025-09-27T12:26:11Z</time>
      </trkpt>
      <trkpt lat="43.72312" lon="6.96705">
        <ele>777.2</ele>
        <time>2025-09-27T12:26:13Z</time>
      </trkpt>
      <trkpt lat="43.72303" lon="6.96707">
        <ele>777.3</ele>
        <time>2025-09-27T12:26:15Z</time>
      </trkpt>
      <trkpt lat="43.72296" lon="6.9671">
        <ele>777.3</ele>
        <time>2025-09-27T12:26:17Z</time>
      </trkpt>
      <trkpt lat="43.72288" lon="6.96713">
        <ele>777.4</ele>
        <time>2025-09-27T12:26:19Z</time>
      </trkpt>
      <trkpt lat="43.72282" lon="6.96714">
        <ele>777.3</ele>
        <time>2025-09-27T12:26:21Z</time>
      </trkpt>
      <trkpt lat="43.72275" lon="6.96717">
        <ele>777.1</ele>
        <time>2025-09-27T12:26:23Z</time>
      </trkpt>
      <trkpt lat="43.72267" lon="6.96719">
        <ele>776.6</ele>
        <time>2025-09-27T12:26:25Z</time>
      </trkpt>
      <trkpt lat="43.72259" lon="6.96722">
        <ele>776</ele>
        <time>2025-09-27T12:26:27Z</time>
      </trkpt>
      <trkpt lat="43.72256" lon="6.9673">
        <ele>775.4</ele>
        <time>2025-09-27T12:26:29Z</time>
      </trkpt>
      <trkpt lat="43.72254" lon="6.96739">
        <ele>774.8</ele>
        <time>2025-09-27T12:26:31Z</time>
      </trkpt>
      <trkpt lat="43.72253" lon="6.96749">
        <ele>774.1</ele>
        <time>2025-09-27T12:26:33Z</time>
      </trkpt>
      <trkpt lat="43.72253" lon="6.9676">
        <ele>773.1</ele>
        <time>2025-09-27T12:26:35Z</time>
      </trkpt>
      <trkpt lat="43.72253" lon="6.96771">
        <ele>772.1</ele>
        <time>2025-09-27T12:26:37Z</time>
      </trkpt>
      <trkpt lat="43.72254" lon="6.9678">
        <ele>771.2</ele>
        <time>2025-09-27T12:26:39Z</time>
      </trkpt>
      <trkpt lat="43.7225" lon="6.96777">
        <ele>771</ele>
        <time>2025-09-27T12:26:58Z</time>
      </trkpt>
      <trkpt lat="43.72248" lon="6.96768">
        <ele>770.7</ele>
        <time>2025-09-27T12:27:01Z</time>
      </trkpt>
      <trkpt lat="43.72247" lon="6.96762">
        <ele>770.5</ele>
        <time>2025-09-27T12:27:03Z</time>
      </trkpt>
      <trkpt lat="43.72246" lon="6.96755">
        <ele>770.3</ele>
        <time>2025-09-27T12:27:05Z</time>
      </trkpt>
      <trkpt lat="43.72245" lon="6.96749">
        <ele>770.1</ele>
        <time>2025-09-27T12:27:07Z</time>
      </trkpt>
      <trkpt lat="43.72244" lon="6.96743">
        <ele>769.9</ele>
        <time>2025-09-27T12:27:09Z</time>
      </trkpt>
      <trkpt lat="43.72243" lon="6.96736">
        <ele>769.7</ele>
        <time>2025-09-27T12:27:11Z</time>
      </trkpt>
      <trkpt lat="43.72242" lon="6.96729">
        <ele>769.6</ele>
        <time>2025-09-27T12:27:13Z</time>
      </trkpt>
      <trkpt lat="43.7224" lon="6.96722">
        <ele>769.4</ele>
        <time>2025-09-27T12:27:15Z</time>
      </trkpt>
      <trkpt lat="43.72238" lon="6.96714">
        <ele>769.3</ele>
        <time>2025-09-27T12:27:17Z</time>
      </trkpt>
      <trkpt lat="43.72237" lon="6.96707">
        <ele>769.2</ele>
        <time>2025-09-27T12:27:19Z</time>
      </trkpt>
      <trkpt lat="43.72236" lon="6.96701">
        <ele>769.1</ele>
        <time>2025-09-27T12:27:21Z</time>
      </trkpt>
      <trkpt lat="43.72234" lon="6.96694">
        <ele>769</ele>
        <time>2025-09-27T12:27:23Z</time>
      </trkpt>
      <trkpt lat="43.72233" lon="6.96687">
        <ele>769</ele>
        <time>2025-09-27T12:27:25Z</time>
      </trkpt>
      <trkpt lat="43.72231" lon="6.96681">
        <ele>768.8</ele>
        <time>2025-09-27T12:27:27Z</time>
      </trkpt>
      <trkpt lat="43.7223" lon="6.96672">
        <ele>768.5</ele>
        <time>2025-09-27T12:27:30Z</time>
      </trkpt>
      <trkpt lat="43.72229" lon="6.96663">
        <ele>768.1</ele>
        <time>2025-09-27T12:27:32Z</time>
      </trkpt>
      <trkpt lat="43.72229" lon="6.96651">
        <ele>767.2</ele>
        <time>2025-09-27T12:27:34Z</time>
      </trkpt>
      <trkpt lat="43.7223" lon="6.96644">
        <ele>766.6</ele>
        <time>2025-09-27T12:27:35Z</time>
      </trkpt>
      <trkpt lat="43.72233" lon="6.96636">
        <ele>765.8</ele>
        <time>2025-09-27T12:27:36Z</time>
      </trkpt>
      <trkpt lat="43.72236" lon="6.96628">
        <ele>764.9</ele>
        <time>2025-09-27T12:27:37Z</time>
      </trkpt>
      <trkpt lat="43.72239" lon="6.96619">
        <ele>763.9</ele>
        <time>2025-09-27T12:27:38Z</time>
      </trkpt>
      <trkpt lat="43.7224" lon="6.96609">
        <ele>763.2</ele>
        <time>2025-09-27T12:27:39Z</time>
      </trkpt>
      <trkpt lat="43.72239" lon="6.96599">
        <ele>762.5</ele>
        <time>2025-09-27T12:27:40Z</time>
      </trkpt>
      <trkpt lat="43.72238" lon="6.96588">
        <ele>761.9</ele>
        <time>2025-09-27T12:27:41Z</time>
      </trkpt>
      <trkpt lat="43.72236" lon="6.96576">
        <ele>761.3</ele>
        <time>2025-09-27T12:27:42Z</time>
      </trkpt>
      <trkpt lat="43.72233" lon="6.96566">
        <ele>760.8</ele>
        <time>2025-09-27T12:27:43Z</time>
      </trkpt>
      <trkpt lat="43.7223" lon="6.96555">
        <ele>760.5</ele>
        <time>2025-09-27T12:27:44Z</time>
      </trkpt>
      <trkpt lat="43.72227" lon="6.96545">
        <ele>760.2</ele>
        <time>2025-09-27T12:27:45Z</time>
      </trkpt>
      <trkpt lat="43.72224" lon="6.96534">
        <ele>759.9</ele>
        <time>2025-09-27T12:27:46Z</time>
      </trkpt>
      <trkpt lat="43.72221" lon="6.96524">
        <ele>759.7</ele>
        <time>2025-09-27T12:27:47Z</time>
      </trkpt>
      <trkpt lat="43.72217" lon="6.96513">
        <ele>759.6</ele>
        <time>2025-09-27T12:27:48Z</time>
      </trkpt>
      <trkpt lat="43.72213" lon="6.96505">
        <ele>759.6</ele>
        <time>2025-09-27T12:27:49Z</time>
      </trkpt>
      <trkpt lat="43.72208" lon="6.965">
        <ele>759.6</ele>
        <time>2025-09-27T12:27:50Z</time>
      </trkpt>
      <trkpt lat="43.72202" lon="6.96497">
        <ele>759.7</ele>
        <time>2025-09-27T12:27:51Z</time>
      </trkpt>
      <trkpt lat="43.72197" lon="6.96495">
        <ele>759.7</ele>
        <time>2025-09-27T12:27:52Z</time>
      </trkpt>
      <trkpt lat="43.72192" lon="6.96495">
        <ele>759.8</ele>
        <time>2025-09-27T12:27:53Z</time>
      </trkpt>
      <trkpt lat="43.72187" lon="6.96495">
        <ele>759.9</ele>
        <time>2025-09-27T12:27:54Z</time>
      </trkpt>
      <trkpt lat="43.7218" lon="6.96497">
        <ele>760.1</ele>
        <time>2025-09-27T12:27:56Z</time>
      </trkpt>
      <trkpt lat="43.72175" lon="6.96501">
        <ele>760.3</ele>
        <time>2025-09-27T12:27:58Z</time>
      </trkpt>
      <trkpt lat="43.7217" lon="6.96506">
        <ele>760.5</ele>
        <time>2025-09-27T12:28:00Z</time>
      </trkpt>
      <trkpt lat="43.72165" lon="6.9651">
        <ele>760.8</ele>
        <time>2025-09-27T12:28:02Z</time>
      </trkpt>
      <trkpt lat="43.7216" lon="6.96514">
        <ele>761</ele>
        <time>2025-09-27T12:28:04Z</time>
      </trkpt>
      <trkpt lat="43.72155" lon="6.96518">
        <ele>761.3</ele>
        <time>2025-09-27T12:28:06Z</time>
      </trkpt>
      <trkpt lat="43.72151" lon="6.96522">
        <ele>761.6</ele>
        <time>2025-09-27T12:28:08Z</time>
      </trkpt>
      <trkpt lat="43.72147" lon="6.96525">
        <ele>761.8</ele>
        <time>2025-09-27T12:28:10Z</time>
      </trkpt>
      <trkpt lat="43.72141" lon="6.9653">
        <ele>762.1</ele>
        <time>2025-09-27T12:28:13Z</time>
      </trkpt>
      <trkpt lat="43.72137" lon="6.96534">
        <ele>762.3</ele>
        <time>2025-09-27T12:28:15Z</time>
      </trkpt>
      <trkpt lat="43.72132" lon="6.96538">
        <ele>762.5</ele>
        <time>2025-09-27T12:28:17Z</time>
      </trkpt>
      <trkpt lat="43.72126" lon="6.96541">
        <ele>762.6</ele>
        <time>2025-09-27T12:28:19Z</time>
      </trkpt>
      <trkpt lat="43.72121" lon="6.96544">
        <ele>762.6</ele>
        <time>2025-09-27T12:28:21Z</time>
      </trkpt>
      <trkpt lat="43.72114" lon="6.96546">
        <ele>762.7</ele>
        <time>2025-09-27T12:28:23Z</time>
      </trkpt>
      <trkpt lat="43.72109" lon="6.96547">
        <ele>762.6</ele>
        <time>2025-09-27T12:28:25Z</time>
      </trkpt>
      <trkpt lat="43.72103" lon="6.96549">
        <ele>762.6</ele>
        <time>2025-09-27T12:28:27Z</time>
      </trkpt>
      <trkpt lat="43.72097" lon="6.9655">
        <ele>762.5</ele>
        <time>2025-09-27T12:28:29Z</time>
      </trkpt>
      <trkpt lat="43.72091" lon="6.96552">
        <ele>762.3</ele>
        <time>2025-09-27T12:28:31Z</time>
      </trkpt>
      <trkpt lat="43.72084" lon="6.96553">
        <ele>762</ele>
        <time>2025-09-27T12:28:33Z</time>
      </trkpt>
      <trkpt lat="43.72077" lon="6.96549">
        <ele>761.5</ele>
        <time>2025-09-27T12:28:35Z</time>
      </trkpt>
      <trkpt lat="43.72072" lon="6.9654">
        <ele>760.7</ele>
        <time>2025-09-27T12:28:37Z</time>
      </trkpt>
      <trkpt lat="43.7207" lon="6.96534">
        <ele>760.2</ele>
        <time>2025-09-27T12:28:38Z</time>
      </trkpt>
      <trkpt lat="43.72067" lon="6.96527">
        <ele>759.6</ele>
        <time>2025-09-27T12:28:39Z</time>
      </trkpt>
      <trkpt lat="43.72065" lon="6.96518">
        <ele>758.9</ele>
        <time>2025-09-27T12:28:40Z</time>
      </trkpt>
      <trkpt lat="43.72063" lon="6.96509">
        <ele>758.2</ele>
        <time>2025-09-27T12:28:41Z</time>
      </trkpt>
      <trkpt lat="43.72062" lon="6.96499">
        <ele>757.6</ele>
        <time>2025-09-27T12:28:42Z</time>
      </trkpt>
      <trkpt lat="43.72061" lon="6.9649">
        <ele>757.1</ele>
        <time>2025-09-27T12:28:43Z</time>
      </trkpt>
      <trkpt lat="43.7206" lon="6.9648">
        <ele>756.7</ele>
        <time>2025-09-27T12:28:44Z</time>
      </trkpt>
      <trkpt lat="43.72059" lon="6.96471">
        <ele>756.5</ele>
        <time>2025-09-27T12:28:45Z</time>
      </trkpt>
      <trkpt lat="43.72059" lon="6.96461">
        <ele>756.3</ele>
        <time>2025-09-27T12:28:46Z</time>
      </trkpt>
      <trkpt lat="43.72058" lon="6.96452">
        <ele>756.1</ele>
        <time>2025-09-27T12:28:47Z</time>
      </trkpt>
      <trkpt lat="43.72058" lon="6.96443">
        <ele>756</ele>
        <time>2025-09-27T12:28:48Z</time>
      </trkpt>
      <trkpt lat="43.72057" lon="6.96434">
        <ele>755.9</ele>
        <time>2025-09-27T12:28:49Z</time>
      </trkpt>
      <trkpt lat="43.72056" lon="6.96426">
        <ele>755.8</ele>
        <time>2025-09-27T12:28:50Z</time>
      </trkpt>
      <trkpt lat="43.72055" lon="6.96417">
        <ele>755.7</ele>
        <time>2025-09-27T12:28:51Z</time>
      </trkpt>
      <trkpt lat="43.72053" lon="6.96409">
        <ele>755.6</ele>
        <time>2025-09-27T12:28:52Z</time>
      </trkpt>
      <trkpt lat="43.72051" lon="6.96402">
        <ele>755.6</ele>
        <time>2025-09-27T12:28:53Z</time>
      </trkpt>
      <trkpt lat="43.72049" lon="6.96395">
        <ele>755.7</ele>
        <time>2025-09-27T12:28:54Z</time>
      </trkpt>
      <trkpt lat="43.72047" lon="6.96389">
        <ele>755.9</ele>
        <time>2025-09-27T12:28:55Z</time>
      </trkpt>
      <trkpt lat="43.72044" lon="6.96378">
        <ele>756.3</ele>
        <time>2025-09-27T12:28:57Z</time>
      </trkpt>
      <trkpt lat="43.72041" lon="6.96368">
        <ele>756.8</ele>
        <time>2025-09-27T12:28:59Z</time>
      </trkpt>
      <trkpt lat="43.7204" lon="6.96361">
        <ele>757.3</ele>
        <time>2025-09-27T12:29:01Z</time>
      </trkpt>
      <trkpt lat="43.72039" lon="6.96354">
        <ele>757.7</ele>
        <time>2025-09-27T12:29:03Z</time>
      </trkpt>
      <trkpt lat="43.72038" lon="6.96346">
        <ele>758.3</ele>
        <time>2025-09-27T12:29:06Z</time>
      </trkpt>
      <trkpt lat="43.72037" lon="6.9634">
        <ele>758.8</ele>
        <time>2025-09-27T12:29:09Z</time>
      </trkpt>
      <trkpt lat="43.72035" lon="6.96334">
        <ele>759.3</ele>
        <time>2025-09-27T12:29:12Z</time>
      </trkpt>
      <trkpt lat="43.72033" lon="6.96326">
        <ele>759.8</ele>
        <time>2025-09-27T12:29:15Z</time>
      </trkpt>
      <trkpt lat="43.72033" lon="6.96319">
        <ele>760.4</ele>
        <time>2025-09-27T12:29:18Z</time>
      </trkpt>
      <trkpt lat="43.72032" lon="6.9631">
        <ele>761.1</ele>
        <time>2025-09-27T12:29:21Z</time>
      </trkpt>
      <trkpt lat="43.72031" lon="6.96302">
        <ele>761.7</ele>
        <time>2025-09-27T12:29:24Z</time>
      </trkpt>
      <trkpt lat="43.72029" lon="6.96294">
        <ele>762.2</ele>
        <time>2025-09-27T12:29:27Z</time>
      </trkpt>
      <trkpt lat="43.72026" lon="6.96286">
        <ele>762.8</ele>
        <time>2025-09-27T12:29:30Z</time>
      </trkpt>
      <trkpt lat="43.72024" lon="6.96279">
        <ele>763.3</ele>
        <time>2025-09-27T12:29:33Z</time>
      </trkpt>
      <trkpt lat="43.72022" lon="6.96273">
        <ele>763.8</ele>
        <time>2025-09-27T12:29:36Z</time>
      </trkpt>
      <trkpt lat="43.7202" lon="6.96267">
        <ele>764.3</ele>
        <time>2025-09-27T12:29:39Z</time>
      </trkpt>
      <trkpt lat="43.72018" lon="6.9626">
        <ele>764.8</ele>
        <time>2025-09-27T12:29:42Z</time>
      </trkpt>
      <trkpt lat="43.72016" lon="6.96254">
        <ele>765.3</ele>
        <time>2025-09-27T12:29:45Z</time>
      </trkpt>
      <trkpt lat="43.72014" lon="6.96248">
        <ele>765.7</ele>
        <time>2025-09-27T12:29:48Z</time>
      </trkpt>
      <trkpt lat="43.72012" lon="6.9624">
        <ele>766.2</ele>
        <time>2025-09-27T12:29:51Z</time>
      </trkpt>
      <trkpt lat="43.72011" lon="6.96232">
        <ele>766.5</ele>
        <time>2025-09-27T12:29:54Z</time>
      </trkpt>
      <trkpt lat="43.7201" lon="6.96224">
        <ele>766.7</ele>
        <time>2025-09-27T12:29:57Z</time>
      </trkpt>
      <trkpt lat="43.72009" lon="6.96216">
        <ele>766.9</ele>
        <time>2025-09-27T12:30:00Z</time>
      </trkpt>
      <trkpt lat="43.72008" lon="6.9621">
        <ele>767</ele>
        <time>2025-09-27T12:30:02Z</time>
      </trkpt>
      <trkpt lat="43.72006" lon="6.96204">
        <ele>767</ele>
        <time>2025-09-27T12:30:04Z</time>
      </trkpt>
      <trkpt lat="43.72001" lon="6.962">
        <ele>766.9</ele>
        <time>2025-09-27T12:30:07Z</time>
      </trkpt>
      <trkpt lat="43.71995" lon="6.96197">
        <ele>766.7</ele>
        <time>2025-09-27T12:30:09Z</time>
      </trkpt>
      <trkpt lat="43.71989" lon="6.96194">
        <ele>766.3</ele>
        <time>2025-09-27T12:30:11Z</time>
      </trkpt>
      <trkpt lat="43.71982" lon="6.9619">
        <ele>765.8</ele>
        <time>2025-09-27T12:30:13Z</time>
      </trkpt>
      <trkpt lat="43.71978" lon="6.96187">
        <ele>765.4</ele>
        <time>2025-09-27T12:30:14Z</time>
      </trkpt>
      <trkpt lat="43.71973" lon="6.96183">
        <ele>764.9</ele>
        <time>2025-09-27T12:30:15Z</time>
      </trkpt>
      <trkpt lat="43.71968" lon="6.96179">
        <ele>764.4</ele>
        <time>2025-09-27T12:30:16Z</time>
      </trkpt>
      <trkpt lat="43.71963" lon="6.96176">
        <ele>763.8</ele>
        <time>2025-09-27T12:30:17Z</time>
      </trkpt>
      <trkpt lat="43.71956" lon="6.96174">
        <ele>763.3</ele>
        <time>2025-09-27T12:30:18Z</time>
      </trkpt>
      <trkpt lat="43.7195" lon="6.96174">
        <ele>762.9</ele>
        <time>2025-09-27T12:30:19Z</time>
      </trkpt>
      <trkpt lat="43.71944" lon="6.96173">
        <ele>762.6</ele>
        <time>2025-09-27T12:30:20Z</time>
      </trkpt>
      <trkpt lat="43.71938" lon="6.96174">
        <ele>762.4</ele>
        <time>2025-09-27T12:30:21Z</time>
      </trkpt>
      <trkpt lat="43.71932" lon="6.96175">
        <ele>762.4</ele>
        <time>2025-09-27T12:30:22Z</time>
      </trkpt>
      <trkpt lat="43.71926" lon="6.96176">
        <ele>762.3</ele>
        <time>2025-09-27T12:30:23Z</time>
      </trkpt>
      <trkpt lat="43.71921" lon="6.96178">
        <ele>762.4</ele>
        <time>2025-09-27T12:30:24Z</time>
      </trkpt>
      <trkpt lat="43.71916" lon="6.96179">
        <ele>762.4</ele>
        <time>2025-09-27T12:30:25Z</time>
      </trkpt>
      <trkpt lat="43.71911" lon="6.96181">
        <ele>762.5</ele>
        <time>2025-09-27T12:30:26Z</time>
      </trkpt>
      <trkpt lat="43.71902" lon="6.96183">
        <ele>762.8</ele>
        <time>2025-09-27T12:30:28Z</time>
      </trkpt>
      <trkpt lat="43.71896" lon="6.96184">
        <ele>763</ele>
        <time>2025-09-27T12:30:30Z</time>
      </trkpt>
      <trkpt lat="43.7189" lon="6.96185">
        <ele>763.3</ele>
        <time>2025-09-27T12:30:32Z</time>
      </trkpt>
      <trkpt lat="43.71883" lon="6.96186">
        <ele>763.6</ele>
        <time>2025-09-27T12:30:34Z</time>
      </trkpt>
      <trkpt lat="43.71878" lon="6.96188">
        <ele>763.8</ele>
        <time>2025-09-27T12:30:36Z</time>
      </trkpt>
      <trkpt lat="43.71872" lon="6.9619">
        <ele>764.1</ele>
        <time>2025-09-27T12:30:38Z</time>
      </trkpt>
      <trkpt lat="43.71866" lon="6.96192">
        <ele>764.4</ele>
        <time>2025-09-27T12:30:40Z</time>
      </trkpt>
      <trkpt lat="43.7186" lon="6.96196">
        <ele>764.7</ele>
        <time>2025-09-27T12:30:42Z</time>
      </trkpt>
      <trkpt lat="43.71854" lon="6.96201">
        <ele>764.8</ele>
        <time>2025-09-27T12:30:44Z</time>
      </trkpt>
      <trkpt lat="43.71849" lon="6.96206">
        <ele>765</ele>
        <time>2025-09-27T12:30:46Z</time>
      </trkpt>
      <trkpt lat="43.71845" lon="6.96214">
        <ele>765.1</ele>
        <time>2025-09-27T12:30:48Z</time>
      </trkpt>
      <trkpt lat="43.7184" lon="6.96221">
        <ele>765.2</ele>
        <time>2025-09-27T12:30:50Z</time>
      </trkpt>
      <trkpt lat="43.71837" lon="6.96227">
        <ele>765.3</ele>
        <time>2025-09-27T12:30:52Z</time>
      </trkpt>
      <trkpt lat="43.71832" lon="6.96232">
        <ele>765.4</ele>
        <time>2025-09-27T12:30:54Z</time>
      </trkpt>
      <trkpt lat="43.71827" lon="6.96236">
        <ele>765.4</ele>
        <time>2025-09-27T12:30:56Z</time>
      </trkpt>
      <trkpt lat="43.71822" lon="6.96242">
        <ele>765.3</ele>
        <time>2025-09-27T12:30:58Z</time>
      </trkpt>
      <trkpt lat="43.71818" lon="6.96248">
        <ele>765.2</ele>
        <time>2025-09-27T12:31:00Z</time>
      </trkpt>
      <trkpt lat="43.71814" lon="6.96255">
        <ele>765.2</ele>
        <time>2025-09-27T12:31:02Z</time>
      </trkpt>
      <trkpt lat="43.71811" lon="6.96264">
        <ele>765.1</ele>
        <time>2025-09-27T12:31:04Z</time>
      </trkpt>
      <trkpt lat="43.71809" lon="6.96272">
        <ele>765.1</ele>
        <time>2025-09-27T12:31:06Z</time>
      </trkpt>
      <trkpt lat="43.71807" lon="6.96281">
        <ele>765.2</ele>
        <time>2025-09-27T12:31:08Z</time>
      </trkpt>
      <trkpt lat="43.71805" lon="6.9629">
        <ele>765.4</ele>
        <time>2025-09-27T12:31:10Z</time>
      </trkpt>
      <trkpt lat="43.71803" lon="6.96299">
        <ele>765.6</ele>
        <time>2025-09-27T12:31:12Z</time>
      </trkpt>
      <trkpt lat="43.71801" lon="6.96307">
        <ele>765.9</ele>
        <time>2025-09-27T12:31:14Z</time>
      </trkpt>
      <trkpt lat="43.718" lon="6.96316">
        <ele>766.3</ele>
        <time>2025-09-27T12:31:16Z</time>
      </trkpt>
      <trkpt lat="43.71798" lon="6.96324">
        <ele>766.6</ele>
        <time>2025-09-27T12:31:18Z</time>
      </trkpt>
      <trkpt lat="43.71796" lon="6.96332">
        <ele>767</ele>
        <time>2025-09-27T12:31:20Z</time>
      </trkpt>
      <trkpt lat="43.71795" lon="6.96339">
        <ele>767.4</ele>
        <time>2025-09-27T12:31:22Z</time>
      </trkpt>
      <trkpt lat="43.71793" lon="6.96346">
        <ele>767.9</ele>
        <time>2025-09-27T12:31:24Z</time>
      </trkpt>
      <trkpt lat="43.71792" lon="6.96352">
        <ele>768.3</ele>
        <time>2025-09-27T12:31:26Z</time>
      </trkpt>
      <trkpt lat="43.7179" lon="6.96359">
        <ele>768.8</ele>
        <time>2025-09-27T12:31:28Z</time>
      </trkpt>
      <trkpt lat="43.71788" lon="6.96365">
        <ele>769.2</ele>
        <time>2025-09-27T12:31:30Z</time>
      </trkpt>
      <trkpt lat="43.71786" lon="6.96371">
        <ele>769.6</ele>
        <time>2025-09-27T12:31:32Z</time>
      </trkpt>
      <trkpt lat="43.71784" lon="6.96379">
        <ele>770.2</ele>
        <time>2025-09-27T12:31:35Z</time>
      </trkpt>
      <trkpt lat="43.71782" lon="6.96387">
        <ele>770.8</ele>
        <time>2025-09-27T12:31:38Z</time>
      </trkpt>
      <trkpt lat="43.71779" lon="6.96393">
        <ele>771.3</ele>
        <time>2025-09-27T12:31:41Z</time>
      </trkpt>
      <trkpt lat="43.71777" lon="6.964">
        <ele>771.7</ele>
        <time>2025-09-27T12:31:44Z</time>
      </trkpt>
      <trkpt lat="43.71773" lon="6.96406">
        <ele>772.2</ele>
        <time>2025-09-27T12:31:47Z</time>
      </trkpt>
      <trkpt lat="43.71771" lon="6.96412">
        <ele>772.6</ele>
        <time>2025-09-27T12:31:50Z</time>
      </trkpt>
      <trkpt lat="43.71767" lon="6.96418">
        <ele>772.9</ele>
        <time>2025-09-27T12:31:53Z</time>
      </trkpt>
      <trkpt lat="43.71763" lon="6.96423">
        <ele>773.3</ele>
        <time>2025-09-27T12:31:56Z</time>
      </trkpt>
      <trkpt lat="43.71759" lon="6.96428">
        <ele>773.6</ele>
        <time>2025-09-27T12:31:58Z</time>
      </trkpt>
      <trkpt lat="43.71755" lon="6.96432">
        <ele>773.9</ele>
        <time>2025-09-27T12:32:00Z</time>
      </trkpt>
      <trkpt lat="43.71752" lon="6.96437">
        <ele>774.2</ele>
        <time>2025-09-27T12:32:02Z</time>
      </trkpt>
      <trkpt lat="43.71747" lon="6.96442">
        <ele>774.6</ele>
        <time>2025-09-27T12:32:05Z</time>
      </trkpt>
      <trkpt lat="43.71743" lon="6.96446">
        <ele>774.9</ele>
        <time>2025-09-27T12:32:07Z</time>
      </trkpt>
      <trkpt lat="43.71738" lon="6.96451">
        <ele>775.2</ele>
        <time>2025-09-27T12:32:10Z</time>
      </trkpt>
      <trkpt lat="43.71732" lon="6.96456">
        <ele>775.6</ele>
        <time>2025-09-27T12:32:13Z</time>
      </trkpt>
      <trkpt lat="43.71728" lon="6.96459">
        <ele>775.8</ele>
        <time>2025-09-27T12:32:15Z</time>
      </trkpt>
      <trkpt lat="43.71724" lon="6.96462">
        <ele>776</ele>
        <time>2025-09-27T12:32:17Z</time>
      </trkpt>
      <trkpt lat="43.7172" lon="6.96466">
        <ele>776.2</ele>
        <time>2025-09-27T12:32:19Z</time>
      </trkpt>
      <trkpt lat="43.71717" lon="6.96471">
        <ele>776.4</ele>
        <time>2025-09-27T12:32:21Z</time>
      </trkpt>
      <trkpt lat="43.71713" lon="6.96478">
        <ele>776.5</ele>
        <time>2025-09-27T12:32:24Z</time>
      </trkpt>
      <trkpt lat="43.71711" lon="6.96484">
        <ele>776.7</ele>
        <time>2025-09-27T12:32:26Z</time>
      </trkpt>
      <trkpt lat="43.71709" lon="6.9649">
        <ele>776.8</ele>
        <time>2025-09-27T12:32:28Z</time>
      </trkpt>
      <trkpt lat="43.71707" lon="6.96496">
        <ele>776.9</ele>
        <time>2025-09-27T12:32:30Z</time>
      </trkpt>
      <trkpt lat="43.71704" lon="6.96501">
        <ele>776.9</ele>
        <time>2025-09-27T12:32:32Z</time>
      </trkpt>
      <trkpt lat="43.71702" lon="6.96506">
        <ele>777</ele>
        <time>2025-09-27T12:32:34Z</time>
      </trkpt>
      <trkpt lat="43.71699" lon="6.96513">
        <ele>777</ele>
        <time>2025-09-27T12:32:36Z</time>
      </trkpt>
      <trkpt lat="43.71695" lon="6.96519">
        <ele>777</ele>
        <time>2025-09-27T12:32:38Z</time>
      </trkpt>
      <trkpt lat="43.71691" lon="6.96524">
        <ele>776.8</ele>
        <time>2025-09-27T12:32:40Z</time>
      </trkpt>
      <trkpt lat="43.71687" lon="6.96528">
        <ele>776.6</ele>
        <time>2025-09-27T12:32:42Z</time>
      </trkpt>
      <trkpt lat="43.71682" lon="6.96533">
        <ele>776.3</ele>
        <time>2025-09-27T12:32:44Z</time>
      </trkpt>
      <trkpt lat="43.71675" lon="6.96538">
        <ele>775.7</ele>
        <time>2025-09-27T12:32:46Z</time>
      </trkpt>
      <trkpt lat="43.71671" lon="6.96541">
        <ele>775.3</ele>
        <time>2025-09-27T12:32:47Z</time>
      </trkpt>
      <trkpt lat="43.71666" lon="6.96544">
        <ele>774.9</ele>
        <time>2025-09-27T12:32:48Z</time>
      </trkpt>
      <trkpt lat="43.71662" lon="6.96548">
        <ele>774.6</ele>
        <time>2025-09-27T12:32:49Z</time>
      </trkpt>
      <trkpt lat="43.71657" lon="6.96553">
        <ele>774.2</ele>
        <time>2025-09-27T12:32:50Z</time>
      </trkpt>
      <trkpt lat="43.71653" lon="6.96557">
        <ele>774</ele>
        <time>2025-09-27T12:32:51Z</time>
      </trkpt>
      <trkpt lat="43.71649" lon="6.96563">
        <ele>773.8</ele>
        <time>2025-09-27T12:32:52Z</time>
      </trkpt>
      <trkpt lat="43.71645" lon="6.96568">
        <ele>773.7</ele>
        <time>2025-09-27T12:32:53Z</time>
      </trkpt>
      <trkpt lat="43.71642" lon="6.96574">
        <ele>773.6</ele>
        <time>2025-09-27T12:32:54Z</time>
      </trkpt>
      <trkpt lat="43.71639" lon="6.96579">
        <ele>773.6</ele>
        <time>2025-09-27T12:32:55Z</time>
      </trkpt>
      <trkpt lat="43.71636" lon="6.96585">
        <ele>773.6</ele>
        <time>2025-09-27T12:32:56Z</time>
      </trkpt>
      <trkpt lat="43.71634" lon="6.9659">
        <ele>773.6</ele>
        <time>2025-09-27T12:32:57Z</time>
      </trkpt>
      <trkpt lat="43.71629" lon="6.966">
        <ele>773.7</ele>
        <time>2025-09-27T12:32:59Z</time>
      </trkpt>
      <trkpt lat="43.71626" lon="6.96606">
        <ele>773.9</ele>
        <time>2025-09-27T12:33:01Z</time>
      </trkpt>
      <trkpt lat="43.71623" lon="6.96612">
        <ele>774</ele>
        <time>2025-09-27T12:33:03Z</time>
      </trkpt>
      <trkpt lat="43.71619" lon="6.96619">
        <ele>774.1</ele>
        <time>2025-09-27T12:33:05Z</time>
      </trkpt>
      <trkpt lat="43.71616" lon="6.96627">
        <ele>774.4</ele>
        <time>2025-09-27T12:33:07Z</time>
      </trkpt>
      <trkpt lat="43.71612" lon="6.96634">
        <ele>774.6</ele>
        <time>2025-09-27T12:33:09Z</time>
      </trkpt>
      <trkpt lat="43.71608" lon="6.96641">
        <ele>774.9</ele>
        <time>2025-09-27T12:33:11Z</time>
      </trkpt>
      <trkpt lat="43.71605" lon="6.96647">
        <ele>775.1</ele>
        <time>2025-09-27T12:33:13Z</time>
      </trkpt>
      <trkpt lat="43.71601" lon="6.96654">
        <ele>775.5</ele>
        <time>2025-09-27T12:33:15Z</time>
      </trkpt>
      <trkpt lat="43.71599" lon="6.9666">
        <ele>775.9</ele>
        <time>2025-09-27T12:33:17Z</time>
      </trkpt>
      <trkpt lat="43.71596" lon="6.96666">
        <ele>776.2</ele>
        <time>2025-09-27T12:33:19Z</time>
      </trkpt>
      <trkpt lat="43.71593" lon="6.96672">
        <ele>776.7</ele>
        <time>2025-09-27T12:33:21Z</time>
      </trkpt>
      <trkpt lat="43.7159" lon="6.96677">
        <ele>777.1</ele>
        <time>2025-09-27T12:33:23Z</time>
      </trkpt>
      <trkpt lat="43.71586" lon="6.96685">
        <ele>777.8</ele>
        <time>2025-09-27T12:33:26Z</time>
      </trkpt>
      <trkpt lat="43.71584" lon="6.96692">
        <ele>778.3</ele>
        <time>2025-09-27T12:33:28Z</time>
      </trkpt>
      <trkpt lat="43.71581" lon="6.96698">
        <ele>778.8</ele>
        <time>2025-09-27T12:33:30Z</time>
      </trkpt>
      <trkpt lat="43.71578" lon="6.96705">
        <ele>779.4</ele>
        <time>2025-09-27T12:33:33Z</time>
      </trkpt>
      <trkpt lat="43.71575" lon="6.96712">
        <ele>780</ele>
        <time>2025-09-27T12:33:36Z</time>
      </trkpt>
      <trkpt lat="43.71571" lon="6.9672">
        <ele>780.7</ele>
        <time>2025-09-27T12:33:39Z</time>
      </trkpt>
      <trkpt lat="43.71568" lon="6.96725">
        <ele>781.1</ele>
        <time>2025-09-27T12:33:41Z</time>
      </trkpt>
      <trkpt lat="43.71565" lon="6.9673">
        <ele>781.6</ele>
        <time>2025-09-27T12:33:43Z</time>
      </trkpt>
      <trkpt lat="43.71561" lon="6.96734">
        <ele>782</ele>
        <time>2025-09-27T12:33:45Z</time>
      </trkpt>
      <trkpt lat="43.71556" lon="6.96739">
        <ele>782.5</ele>
        <time>2025-09-27T12:33:48Z</time>
      </trkpt>
      <trkpt lat="43.71551" lon="6.96743">
        <ele>783</ele>
        <time>2025-09-27T12:33:51Z</time>
      </trkpt>
      <trkpt lat="43.71545" lon="6.96747">
        <ele>783.5</ele>
        <time>2025-09-27T12:33:54Z</time>
      </trkpt>
      <trkpt lat="43.71539" lon="6.9675">
        <ele>784</ele>
        <time>2025-09-27T12:33:57Z</time>
      </trkpt>
      <trkpt lat="43.71534" lon="6.96753">
        <ele>784.4</ele>
        <time>2025-09-27T12:34:00Z</time>
      </trkpt>
      <trkpt lat="43.71528" lon="6.96755">
        <ele>784.7</ele>
        <time>2025-09-27T12:34:03Z</time>
      </trkpt>
      <trkpt lat="43.71521" lon="6.96756">
        <ele>785</ele>
        <time>2025-09-27T12:34:06Z</time>
      </trkpt>
      <trkpt lat="43.71515" lon="6.96756">
        <ele>785.3</ele>
        <time>2025-09-27T12:34:09Z</time>
      </trkpt>
      <trkpt lat="43.7151" lon="6.96756">
        <ele>785.4</ele>
        <time>2025-09-27T12:34:11Z</time>
      </trkpt>
      <trkpt lat="43.71505" lon="6.96755">
        <ele>785.6</ele>
        <time>2025-09-27T12:34:13Z</time>
      </trkpt>
      <trkpt lat="43.715" lon="6.96753">
        <ele>785.7</ele>
        <time>2025-09-27T12:34:16Z</time>
      </trkpt>
      <trkpt lat="43.71494" lon="6.9675">
        <ele>785.8</ele>
        <time>2025-09-27T12:34:19Z</time>
      </trkpt>
      <trkpt lat="43.7149" lon="6.96747">
        <ele>785.9</ele>
        <time>2025-09-27T12:34:22Z</time>
      </trkpt>
      <trkpt lat="43.71485" lon="6.96745">
        <ele>785.9</ele>
        <time>2025-09-27T12:39:27Z</time>
      </trkpt>
      <trkpt lat="43.7148" lon="6.96743">
        <ele>785.7</ele>
        <time>2025-09-27T12:39:30Z</time>
      </trkpt>
      <trkpt lat="43.71474" lon="6.96737">
        <ele>785.5</ele>
        <time>2025-09-27T12:39:33Z</time>
      </trkpt>
      <trkpt lat="43.71471" lon="6.96733">
        <ele>785.3</ele>
        <time>2025-09-27T12:39:35Z</time>
      </trkpt>
      <trkpt lat="43.71468" lon="6.96728">
        <ele>785.1</ele>
        <time>2025-09-27T12:39:37Z</time>
      </trkpt>
      <trkpt lat="43.71464" lon="6.96722">
        <ele>784.9</ele>
        <time>2025-09-27T12:39:39Z</time>
      </trkpt>
      <trkpt lat="43.71461" lon="6.96716">
        <ele>784.8</ele>
        <time>2025-09-27T12:39:41Z</time>
      </trkpt>
      <trkpt lat="43.71457" lon="6.96711">
        <ele>784.6</ele>
        <time>2025-09-27T12:39:43Z</time>
      </trkpt>
      <trkpt lat="43.71452" lon="6.96706">
        <ele>784.4</ele>
        <time>2025-09-27T12:39:45Z</time>
      </trkpt>
      <trkpt lat="43.71447" lon="6.96701">
        <ele>784.2</ele>
        <time>2025-09-27T12:39:47Z</time>
      </trkpt>
      <trkpt lat="43.71442" lon="6.96697">
        <ele>783.9</ele>
        <time>2025-09-27T12:39:49Z</time>
      </trkpt>
      <trkpt lat="43.71436" lon="6.96694">
        <ele>783.5</ele>
        <time>2025-09-27T12:39:51Z</time>
      </trkpt>
      <trkpt lat="43.7143" lon="6.96695">
        <ele>783.1</ele>
        <time>2025-09-27T12:39:53Z</time>
      </trkpt>
      <trkpt lat="43.71424" lon="6.96699">
        <ele>782.7</ele>
        <time>2025-09-27T12:39:55Z</time>
      </trkpt>
      <trkpt lat="43.71417" lon="6.96703">
        <ele>782.1</ele>
        <time>2025-09-27T12:39:57Z</time>
      </trkpt>
      <trkpt lat="43.71409" lon="6.96707">
        <ele>781.4</ele>
        <time>2025-09-27T12:39:59Z</time>
      </trkpt>
      <trkpt lat="43.71405" lon="6.96709">
        <ele>781</ele>
        <time>2025-09-27T12:40:00Z</time>
      </trkpt>
      <trkpt lat="43.714" lon="6.96711">
        <ele>780.5</ele>
        <time>2025-09-27T12:40:01Z</time>
      </trkpt>
      <trkpt lat="43.71396" lon="6.96712">
        <ele>780.1</ele>
        <time>2025-09-27T12:40:02Z</time>
      </trkpt>
      <trkpt lat="43.71391" lon="6.96714">
        <ele>779.5</ele>
        <time>2025-09-27T12:40:03Z</time>
      </trkpt>
      <trkpt lat="43.71385" lon="6.96716">
        <ele>778.9</ele>
        <time>2025-09-27T12:40:04Z</time>
      </trkpt>
      <trkpt lat="43.7138" lon="6.96718">
        <ele>778.2</ele>
        <time>2025-09-27T12:40:05Z</time>
      </trkpt>
      <trkpt lat="43.71376" lon="6.9672">
        <ele>777.4</ele>
        <time>2025-09-27T12:40:06Z</time>
      </trkpt>
      <trkpt lat="43.71368" lon="6.96722">
        <ele>776.1</ele>
        <time>2025-09-27T12:40:08Z</time>
      </trkpt>
      <trkpt lat="43.7136" lon="6.96722">
        <ele>774.8</ele>
        <time>2025-09-27T12:40:10Z</time>
      </trkpt>
      <trkpt lat="43.71353" lon="6.96719">
        <ele>773.5</ele>
        <time>2025-09-27T12:40:12Z</time>
      </trkpt>
      <trkpt lat="43.71348" lon="6.96723">
        <ele>772.4</ele>
        <time>2025-09-27T12:40:14Z</time>
      </trkpt>
      <trkpt lat="43.71342" lon="6.9673">
        <ele>771.2</ele>
        <time>2025-09-27T12:40:16Z</time>
      </trkpt>
      <trkpt lat="43.71337" lon="6.96738">
        <ele>770</ele>
        <time>2025-09-27T12:40:18Z</time>
      </trkpt>
      <trkpt lat="43.7133" lon="6.96745">
        <ele>769</ele>
        <time>2025-09-27T12:40:20Z</time>
      </trkpt>
      <trkpt lat="43.71322" lon="6.96752">
        <ele>767.9</ele>
        <time>2025-09-27T12:40:22Z</time>
      </trkpt>
      <trkpt lat="43.71319" lon="6.96756">
        <ele>767.4</ele>
        <time>2025-09-27T12:40:23Z</time>
      </trkpt>
      <trkpt lat="43.71312" lon="6.96765">
        <ele>766.5</ele>
        <time>2025-09-27T12:40:25Z</time>
      </trkpt>
      <trkpt lat="43.71308" lon="6.96769">
        <ele>766.1</ele>
        <time>2025-09-27T12:40:26Z</time>
      </trkpt>
      <trkpt lat="43.71304" lon="6.96775">
        <ele>765.6</ele>
        <time>2025-09-27T12:40:27Z</time>
      </trkpt>
      <trkpt lat="43.713" lon="6.96779">
        <ele>765.2</ele>
        <time>2025-09-27T12:40:28Z</time>
      </trkpt>
      <trkpt lat="43.71296" lon="6.96783">
        <ele>764.8</ele>
        <time>2025-09-27T12:40:29Z</time>
      </trkpt>
      <trkpt lat="43.71292" lon="6.96787">
        <ele>764.5</ele>
        <time>2025-09-27T12:40:30Z</time>
      </trkpt>
      <trkpt lat="43.71289" lon="6.96792">
        <ele>764.2</ele>
        <time>2025-09-27T12:40:31Z</time>
      </trkpt>
      <trkpt lat="43.71284" lon="6.968">
        <ele>763.7</ele>
        <time>2025-09-27T12:40:33Z</time>
      </trkpt>
      <trkpt lat="43.71278" lon="6.96808">
        <ele>763.1</ele>
        <time>2025-09-27T12:40:35Z</time>
      </trkpt>
      <trkpt lat="43.71273" lon="6.96815">
        <ele>762.6</ele>
        <time>2025-09-27T12:40:37Z</time>
      </trkpt>
      <trkpt lat="43.71269" lon="6.96819">
        <ele>762.2</ele>
        <time>2025-09-27T12:40:39Z</time>
      </trkpt>
      <trkpt lat="43.71264" lon="6.96825">
        <ele>761.6</ele>
        <time>2025-09-27T12:40:41Z</time>
      </trkpt>
      <trkpt lat="43.71257" lon="6.96832">
        <ele>760.6</ele>
        <time>2025-09-27T12:40:43Z</time>
      </trkpt>
      <trkpt lat="43.71252" lon="6.96835">
        <ele>759.8</ele>
        <time>2025-09-27T12:40:45Z</time>
      </trkpt>
      <trkpt lat="43.71246" lon="6.96837">
        <ele>758.9</ele>
        <time>2025-09-27T12:40:48Z</time>
      </trkpt>
      <trkpt lat="43.71239" lon="6.96837">
        <ele>757.8</ele>
        <time>2025-09-27T12:40:50Z</time>
      </trkpt>
      <trkpt lat="43.7123" lon="6.96838">
        <ele>756.4</ele>
        <time>2025-09-27T12:40:52Z</time>
      </trkpt>
      <trkpt lat="43.71222" lon="6.9684">
        <ele>755.2</ele>
        <time>2025-09-27T12:40:54Z</time>
      </trkpt>
      <trkpt lat="43.71215" lon="6.96841">
        <ele>754</ele>
        <time>2025-09-27T12:40:56Z</time>
      </trkpt>
      <trkpt lat="43.71208" lon="6.96841">
        <ele>752.9</ele>
        <time>2025-09-27T12:40:58Z</time>
      </trkpt>
      <trkpt lat="43.712" lon="6.96842">
        <ele>751.6</ele>
        <time>2025-09-27T12:41:00Z</time>
      </trkpt>
      <trkpt lat="43.71191" lon="6.96841">
        <ele>750.3</ele>
        <time>2025-09-27T12:41:02Z</time>
      </trkpt>
      <trkpt lat="43.71186" lon="6.9684">
        <ele>749.6</ele>
        <time>2025-09-27T12:41:03Z</time>
      </trkpt>
      <trkpt lat="43.71181" lon="6.96839">
        <ele>748.9</ele>
        <time>2025-09-27T12:41:04Z</time>
      </trkpt>
      <trkpt lat="43.71173" lon="6.96837">
        <ele>747.9</ele>
        <time>2025-09-27T12:41:06Z</time>
      </trkpt>
      <trkpt lat="43.71166" lon="6.96832">
        <ele>746.8</ele>
        <time>2025-09-27T12:41:08Z</time>
      </trkpt>
      <trkpt lat="43.71157" lon="6.9683">
        <ele>745.4</ele>
        <time>2025-09-27T12:41:10Z</time>
      </trkpt>
      <trkpt lat="43.71152" lon="6.96828">
        <ele>744.6</ele>
        <time>2025-09-27T12:41:11Z</time>
      </trkpt>
      <trkpt lat="43.71144" lon="6.96827">
        <ele>743.3</ele>
        <time>2025-09-27T12:41:13Z</time>
      </trkpt>
      <trkpt lat="43.7114" lon="6.96829">
        <ele>742.6</ele>
        <time>2025-09-27T12:41:26Z</time>
      </trkpt>
      <trkpt lat="43.71132" lon="6.96827">
        <ele>741.7</ele>
        <time>2025-09-27T12:41:30Z</time>
      </trkpt>
      <trkpt lat="43.71125" lon="6.96825">
        <ele>740.8</ele>
        <time>2025-09-27T12:41:32Z</time>
      </trkpt>
      <trkpt lat="43.71116" lon="6.96822">
        <ele>739.7</ele>
        <time>2025-09-27T12:41:34Z</time>
      </trkpt>
      <trkpt lat="43.71111" lon="6.96821">
        <ele>739.2</ele>
        <time>2025-09-27T12:41:35Z</time>
      </trkpt>
      <trkpt lat="43.71105" lon="6.9682">
        <ele>738.6</ele>
        <time>2025-09-27T12:41:36Z</time>
      </trkpt>
      <trkpt lat="43.71101" lon="6.96818">
        <ele>738.2</ele>
        <time>2025-09-27T12:41:37Z</time>
      </trkpt>
      <trkpt lat="43.71096" lon="6.96817">
        <ele>737.7</ele>
        <time>2025-09-27T12:41:38Z</time>
      </trkpt>
      <trkpt lat="43.71092" lon="6.96815">
        <ele>737.2</ele>
        <time>2025-09-27T12:41:39Z</time>
      </trkpt>
      <trkpt lat="43.71087" lon="6.96813">
        <ele>736.6</ele>
        <time>2025-09-27T12:41:40Z</time>
      </trkpt>
      <trkpt lat="43.71081" lon="6.96811">
        <ele>735.8</ele>
        <time>2025-09-27T12:41:41Z</time>
      </trkpt>
      <trkpt lat="43.71075" lon="6.96809">
        <ele>735</ele>
        <time>2025-09-27T12:41:42Z</time>
      </trkpt>
      <trkpt lat="43.7107" lon="6.96808">
        <ele>734.3</ele>
        <time>2025-09-27T12:41:43Z</time>
      </trkpt>
      <trkpt lat="43.71065" lon="6.96805">
        <ele>733.7</ele>
        <time>2025-09-27T12:41:44Z</time>
      </trkpt>
      <trkpt lat="43.71061" lon="6.96801">
        <ele>733.1</ele>
        <time>2025-09-27T12:41:45Z</time>
      </trkpt>
      <trkpt lat="43.71056" lon="6.96797">
        <ele>732.5</ele>
        <time>2025-09-27T12:41:46Z</time>
      </trkpt>
      <trkpt lat="43.71052" lon="6.96793">
        <ele>731.9</ele>
        <time>2025-09-27T12:41:47Z</time>
      </trkpt>
      <trkpt lat="43.71047" lon="6.96788">
        <ele>731.3</ele>
        <time>2025-09-27T12:41:48Z</time>
      </trkpt>
      <trkpt lat="43.71041" lon="6.96784">
        <ele>730.7</ele>
        <time>2025-09-27T12:41:49Z</time>
      </trkpt>
      <trkpt lat="43.71036" lon="6.9678">
        <ele>730.2</ele>
        <time>2025-09-27T12:41:50Z</time>
      </trkpt>
      <trkpt lat="43.71031" lon="6.96778">
        <ele>729.8</ele>
        <time>2025-09-27T12:41:51Z</time>
      </trkpt>
      <trkpt lat="43.71026" lon="6.96776">
        <ele>729.3</ele>
        <time>2025-09-27T12:41:52Z</time>
      </trkpt>
      <trkpt lat="43.71021" lon="6.96775">
        <ele>728.9</ele>
        <time>2025-09-27T12:41:53Z</time>
      </trkpt>
      <trkpt lat="43.71013" lon="6.96776">
        <ele>728.1</ele>
        <time>2025-09-27T12:41:55Z</time>
      </trkpt>
      <trkpt lat="43.71007" lon="6.96779">
        <ele>727.1</ele>
        <time>2025-09-27T12:41:57Z</time>
      </trkpt>
      <trkpt lat="43.70999" lon="6.96782">
        <ele>725.8</ele>
        <time>2025-09-27T12:41:59Z</time>
      </trkpt>
      <trkpt lat="43.70994" lon="6.96784">
        <ele>724.9</ele>
        <time>2025-09-27T12:42:00Z</time>
      </trkpt>
      <trkpt lat="43.70989" lon="6.96787">
        <ele>724</ele>
        <time>2025-09-27T12:42:01Z</time>
      </trkpt>
      <trkpt lat="43.70982" lon="6.96788">
        <ele>723</ele>
        <time>2025-09-27T12:42:02Z</time>
      </trkpt>
      <trkpt lat="43.70976" lon="6.96789">
        <ele>722.3</ele>
        <time>2025-09-27T12:42:03Z</time>
      </trkpt>
      <trkpt lat="43.7097" lon="6.96789">
        <ele>721.8</ele>
        <time>2025-09-27T12:42:04Z</time>
      </trkpt>
      <trkpt lat="43.70965" lon="6.96789">
        <ele>721.3</ele>
        <time>2025-09-27T12:42:05Z</time>
      </trkpt>
      <trkpt lat="43.7096" lon="6.96787">
        <ele>720.9</ele>
        <time>2025-09-27T12:42:06Z</time>
      </trkpt>
      <trkpt lat="43.70954" lon="6.96784">
        <ele>720.4</ele>
        <time>2025-09-27T12:42:08Z</time>
      </trkpt>
      <trkpt lat="43.7095" lon="6.96782">
        <ele>720</ele>
        <time>2025-09-27T12:42:10Z</time>
      </trkpt>
      <trkpt lat="43.70946" lon="6.96789">
        <ele>719.5</ele>
        <time>2025-09-27T12:42:15Z</time>
      </trkpt>
      <trkpt lat="43.70947" lon="6.96797">
        <ele>719</ele>
        <time>2025-09-27T12:42:18Z</time>
      </trkpt>
      <trkpt lat="43.70947" lon="6.96806">
        <ele>718.6</ele>
        <time>2025-09-27T12:42:20Z</time>
      </trkpt>
      <trkpt lat="43.70947" lon="6.96812">
        <ele>718.3</ele>
        <time>2025-09-27T12:42:21Z</time>
      </trkpt>
      <trkpt lat="43.70947" lon="6.96819">
        <ele>718</ele>
        <time>2025-09-27T12:42:28Z</time>
      </trkpt>
      <trkpt lat="43.70951" lon="6.96823">
        <ele>716.8</ele>
        <time>2025-09-27T12:42:38Z</time>
      </trkpt>
      <trkpt lat="43.70952" lon="6.96829">
        <ele>715.9</ele>
        <time>2025-09-27T12:42:40Z</time>
      </trkpt>
      <trkpt lat="43.70952" lon="6.96837">
        <ele>714.7</ele>
        <time>2025-09-27T12:42:43Z</time>
      </trkpt>
      <trkpt lat="43.70953" lon="6.96844">
        <ele>713.7</ele>
        <time>2025-09-27T12:42:45Z</time>
      </trkpt>
      <trkpt lat="43.70954" lon="6.96854">
        <ele>712.6</ele>
        <time>2025-09-27T12:42:47Z</time>
      </trkpt>
      <trkpt lat="43.70955" lon="6.96865">
        <ele>711.4</ele>
        <time>2025-09-27T12:42:49Z</time>
      </trkpt>
      <trkpt lat="43.70958" lon="6.96875">
        <ele>710.2</ele>
        <time>2025-09-27T12:42:51Z</time>
      </trkpt>
      <trkpt lat="43.70958" lon="6.96884">
        <ele>709</ele>
        <time>2025-09-27T12:42:53Z</time>
      </trkpt>
      <trkpt lat="43.70959" lon="6.96891">
        <ele>707.9</ele>
        <time>2025-09-27T12:42:55Z</time>
      </trkpt>
      <trkpt lat="43.70963" lon="6.96897">
        <ele>706.6</ele>
        <time>2025-09-27T12:42:57Z</time>
      </trkpt>
      <trkpt lat="43.70964" lon="6.96904">
        <ele>705.5</ele>
        <time>2025-09-27T12:43:00Z</time>
      </trkpt>
      <trkpt lat="43.70965" lon="6.96914">
        <ele>705.4</ele>
        <time>2025-09-27T12:43:05Z</time>
      </trkpt>
      <trkpt lat="43.70963" lon="6.96923">
        <ele>705.2</ele>
        <time>2025-09-27T12:43:07Z</time>
      </trkpt>
      <trkpt lat="43.70963" lon="6.96929">
        <ele>705</ele>
        <time>2025-09-27T12:43:09Z</time>
      </trkpt>
      <trkpt lat="43.70962" lon="6.96937">
        <ele>704.7</ele>
        <time>2025-09-27T12:43:12Z</time>
      </trkpt>
      <trkpt lat="43.70962" lon="6.96946">
        <ele>704.4</ele>
        <time>2025-09-27T12:43:15Z</time>
      </trkpt>
      <trkpt lat="43.70962" lon="6.96955">
        <ele>703.9</ele>
        <time>2025-09-27T12:43:18Z</time>
      </trkpt>
      <trkpt lat="43.70961" lon="6.96962">
        <ele>703.5</ele>
        <time>2025-09-27T12:43:20Z</time>
      </trkpt>
      <trkpt lat="43.70961" lon="6.9697">
        <ele>703.1</ele>
        <time>2025-09-27T12:43:22Z</time>
      </trkpt>
      <trkpt lat="43.7096" lon="6.96977">
        <ele>702.7</ele>
        <time>2025-09-27T12:43:24Z</time>
      </trkpt>
      <trkpt lat="43.70959" lon="6.96985">
        <ele>702.1</ele>
        <time>2025-09-27T12:43:26Z</time>
      </trkpt>
      <trkpt lat="43.70957" lon="6.96995">
        <ele>701.4</ele>
        <time>2025-09-27T12:43:28Z</time>
      </trkpt>
      <trkpt lat="43.70956" lon="6.97001">
        <ele>701</ele>
        <time>2025-09-27T12:43:29Z</time>
      </trkpt>
      <trkpt lat="43.70954" lon="6.97007">
        <ele>700.5</ele>
        <time>2025-09-27T12:43:30Z</time>
      </trkpt>
      <trkpt lat="43.70953" lon="6.97014">
        <ele>700</ele>
        <time>2025-09-27T12:43:31Z</time>
      </trkpt>
      <trkpt lat="43.70949" lon="6.97024">
        <ele>699.2</ele>
        <time>2025-09-27T12:43:33Z</time>
      </trkpt>
      <trkpt lat="43.70947" lon="6.97032">
        <ele>698.6</ele>
        <time>2025-09-27T12:43:35Z</time>
      </trkpt>
      <trkpt lat="43.70944" lon="6.97039">
        <ele>698</ele>
        <time>2025-09-27T12:43:37Z</time>
      </trkpt>
      <trkpt lat="43.70941" lon="6.97048">
        <ele>697.5</ele>
        <time>2025-09-27T12:43:39Z</time>
      </trkpt>
      <trkpt lat="43.70936" lon="6.97057">
        <ele>696.9</ele>
        <time>2025-09-27T12:43:41Z</time>
      </trkpt>
      <trkpt lat="43.70932" lon="6.97067">
        <ele>696.3</ele>
        <time>2025-09-27T12:43:43Z</time>
      </trkpt>
      <trkpt lat="43.70928" lon="6.97078">
        <ele>695.7</ele>
        <time>2025-09-27T12:43:45Z</time>
      </trkpt>
      <trkpt lat="43.70926" lon="6.97084">
        <ele>695.4</ele>
        <time>2025-09-27T12:43:46Z</time>
      </trkpt>
      <trkpt lat="43.70923" lon="6.9709">
        <ele>695.1</ele>
        <time>2025-09-27T12:43:47Z</time>
      </trkpt>
      <trkpt lat="43.70921" lon="6.97096">
        <ele>694.7</ele>
        <time>2025-09-27T12:43:48Z</time>
      </trkpt>
      <trkpt lat="43.70919" lon="6.97101">
        <ele>694.4</ele>
        <time>2025-09-27T12:43:49Z</time>
      </trkpt>
      <trkpt lat="43.70916" lon="6.97107">
        <ele>694</ele>
        <time>2025-09-27T12:43:50Z</time>
      </trkpt>
      <trkpt lat="43.70913" lon="6.97113">
        <ele>693.6</ele>
        <time>2025-09-27T12:43:51Z</time>
      </trkpt>
      <trkpt lat="43.7091" lon="6.97119">
        <ele>693.1</ele>
        <time>2025-09-27T12:43:52Z</time>
      </trkpt>
      <trkpt lat="43.70907" lon="6.97124">
        <ele>692.6</ele>
        <time>2025-09-27T12:43:53Z</time>
      </trkpt>
      <trkpt lat="43.70904" lon="6.97131">
        <ele>692</ele>
        <time>2025-09-27T12:43:54Z</time>
      </trkpt>
      <trkpt lat="43.70901" lon="6.97138">
        <ele>691.3</ele>
        <time>2025-09-27T12:43:55Z</time>
      </trkpt>
      <trkpt lat="43.70898" lon="6.97145">
        <ele>690.7</ele>
        <time>2025-09-27T12:43:56Z</time>
      </trkpt>
      <trkpt lat="43.70895" lon="6.97153">
        <ele>689.9</ele>
        <time>2025-09-27T12:43:57Z</time>
      </trkpt>
      <trkpt lat="43.70893" lon="6.97162">
        <ele>689.1</ele>
        <time>2025-09-27T12:43:58Z</time>
      </trkpt>
      <trkpt lat="43.7089" lon="6.97171">
        <ele>688.4</ele>
        <time>2025-09-27T12:43:59Z</time>
      </trkpt>
      <trkpt lat="43.70887" lon="6.97181">
        <ele>687.6</ele>
        <time>2025-09-27T12:44:00Z</time>
      </trkpt>
      <trkpt lat="43.70883" lon="6.97189">
        <ele>687</ele>
        <time>2025-09-27T12:44:01Z</time>
      </trkpt>
      <trkpt lat="43.7088" lon="6.97196">
        <ele>686.5</ele>
        <time>2025-09-27T12:44:02Z</time>
      </trkpt>
      <trkpt lat="43.70876" lon="6.97202">
        <ele>686.1</ele>
        <time>2025-09-27T12:44:03Z</time>
      </trkpt>
      <trkpt lat="43.70873" lon="6.97206">
        <ele>685.7</ele>
        <time>2025-09-27T12:44:04Z</time>
      </trkpt>
      <trkpt lat="43.70869" lon="6.97212">
        <ele>685.3</ele>
        <time>2025-09-27T12:44:05Z</time>
      </trkpt>
      <trkpt lat="43.70865" lon="6.97217">
        <ele>684.8</ele>
        <time>2025-09-27T12:44:06Z</time>
      </trkpt>
      <trkpt lat="43.7086" lon="6.97222">
        <ele>684.3</ele>
        <time>2025-09-27T12:44:07Z</time>
      </trkpt>
      <trkpt lat="43.70855" lon="6.97228">
        <ele>683.7</ele>
        <time>2025-09-27T12:44:08Z</time>
      </trkpt>
      <trkpt lat="43.7085" lon="6.97233">
        <ele>682.9</ele>
        <time>2025-09-27T12:44:09Z</time>
      </trkpt>
      <trkpt lat="43.70845" lon="6.97238">
        <ele>682.1</ele>
        <time>2025-09-27T12:44:10Z</time>
      </trkpt>
      <trkpt lat="43.70839" lon="6.97244">
        <ele>681.2</ele>
        <time>2025-09-27T12:44:11Z</time>
      </trkpt>
      <trkpt lat="43.70834" lon="6.97252">
        <ele>680.3</ele>
        <time>2025-09-27T12:44:12Z</time>
      </trkpt>
      <trkpt lat="43.70829" lon="6.97259">
        <ele>679.4</ele>
        <time>2025-09-27T12:44:13Z</time>
      </trkpt>
      <trkpt lat="43.70824" lon="6.97267">
        <ele>678.4</ele>
        <time>2025-09-27T12:44:14Z</time>
      </trkpt>
      <trkpt lat="43.7082" lon="6.97275">
        <ele>677.5</ele>
        <time>2025-09-27T12:44:15Z</time>
      </trkpt>
      <trkpt lat="43.70816" lon="6.97283">
        <ele>676.6</ele>
        <time>2025-09-27T12:44:16Z</time>
      </trkpt>
      <trkpt lat="43.70812" lon="6.97291">
        <ele>675.7</ele>
        <time>2025-09-27T12:44:17Z</time>
      </trkpt>
      <trkpt lat="43.70809" lon="6.973">
        <ele>674.8</ele>
        <time>2025-09-27T12:44:18Z</time>
      </trkpt>
      <trkpt lat="43.70805" lon="6.97309">
        <ele>673.8</ele>
        <time>2025-09-27T12:44:19Z</time>
      </trkpt>
      <trkpt lat="43.70802" lon="6.97317">
        <ele>673</ele>
        <time>2025-09-27T12:44:20Z</time>
      </trkpt>
      <trkpt lat="43.708" lon="6.97325">
        <ele>672.3</ele>
        <time>2025-09-27T12:44:21Z</time>
      </trkpt>
      <trkpt lat="43.70798" lon="6.97333">
        <ele>671.7</ele>
        <time>2025-09-27T12:44:22Z</time>
      </trkpt>
      <trkpt lat="43.70795" lon="6.9734">
        <ele>671.1</ele>
        <time>2025-09-27T12:44:23Z</time>
      </trkpt>
      <trkpt lat="43.7079" lon="6.97349">
        <ele>670.2</ele>
        <time>2025-09-27T12:44:25Z</time>
      </trkpt>
      <trkpt lat="43.70788" lon="6.97354">
        <ele>669.8</ele>
        <time>2025-09-27T12:44:27Z</time>
      </trkpt>
      <trkpt lat="43.70785" lon="6.97361">
        <ele>669.2</ele>
        <time>2025-09-27T12:44:29Z</time>
      </trkpt>
      <trkpt lat="43.70783" lon="6.97368">
        <ele>668.7</ele>
        <time>2025-09-27T12:44:31Z</time>
      </trkpt>
      <trkpt lat="43.70782" lon="6.97377">
        <ele>668.2</ele>
        <time>2025-09-27T12:44:33Z</time>
      </trkpt>
      <trkpt lat="43.70781" lon="6.97385">
        <ele>667.9</ele>
        <time>2025-09-27T12:44:35Z</time>
      </trkpt>
      <trkpt lat="43.7078" lon="6.9739">
        <ele>667.7</ele>
        <time>2025-09-27T12:44:48Z</time>
      </trkpt>
    </trkseg>
  </trk>
</gpx>